<?xml version="1.0" encoding="UTF-8" standalone="no" ?>
<gpx xmlns="http://www.topografix.com/GPX/1/1" xmlns:xsi="http://www.w3.org/2001/XMLSchema-instance" xsi:schemaLocation="http://www.topografix.com/GPX/1/1 http://www.topografix.com/GPX/1/1/gpx.xsd" version="1.1" creator="VisuGPX - https://www.visugpx.com">
  <metadata>
    <name>Berges Canal Jonage</name>
    <desc><![CDATA[Berges Canal Jonage]]></desc>
  </metadata>
  <wpt lat="45.77" lon="4.82555">
    <ele>240</ele>
    <name><![CDATA[Start]]></name>
  </wpt>
  <wpt lat="45.76672" lon="4.9124">
    <ele>229</ele>
    <name><![CDATA[Pause]]></name>
  </wpt>
  <wpt lat="45.76676" lon="4.91217">
    <ele>232</ele>
    <name><![CDATA[Resume]]></name>
  </wpt>
  <wpt lat="45.77882" lon="4.84049">
    <ele>233</ele>
    <name><![CDATA[Pause]]></name>
  </wpt>
  <wpt lat="45.77877" lon="4.84028">
    <ele>234</ele>
    <name><![CDATA[Resume]]></name>
  </wpt>
  <wpt lat="45.77874" lon="4.84016">
    <ele>238</ele>
    <name><![CDATA[Pause]]></name>
  </wpt>
  <wpt lat="45.77859" lon="4.84007">
    <ele>243</ele>
    <name><![CDATA[Resume]]></name>
  </wpt>
  <wpt lat="45.77773" lon="4.83904">
    <ele>267</ele>
    <name><![CDATA[Pause]]></name>
  </wpt>
  <wpt lat="45.77756" lon="4.83891">
    <ele>274</ele>
    <name><![CDATA[Resume]]></name>
  </wpt>
  <wpt lat="45.76971" lon="4.82482">
    <ele>278</ele>
    <name><![CDATA[End]]></name>
  </wpt>
  <trk>
    <name><![CDATA[Berges Canal Jonage_1]]></name>
    <trkseg>
      <trkpt lat="45.77" lon="4.82555">
        <ele>240</ele>
        <time>2010-11-23T17:52:01Z</time>
      </trkpt>
      <trkpt lat="45.76987" lon="4.82554">
        <ele>289</ele>
        <time>2010-11-23T17:52:02Z</time>
      </trkpt>
      <trkpt lat="45.76983" lon="4.82562">
        <ele>281</ele>
        <time>2010-11-23T17:52:03Z</time>
      </trkpt>
      <trkpt lat="45.76982" lon="4.82573">
        <ele>249.10461425781</ele>
        <time>2010-11-23T17:52:04Z</time>
      </trkpt>
      <trkpt lat="45.76986" lon="4.82579">
        <ele>237</ele>
        <time>2010-11-23T17:52:05Z</time>
      </trkpt>
      <trkpt lat="45.76982" lon="4.82571">
        <ele>261</ele>
        <time>2010-11-23T17:52:06Z</time>
      </trkpt>
      <trkpt lat="45.76975" lon="4.82572">
        <ele>260.55334472656</ele>
        <time>2010-11-23T17:52:07Z</time>
      </trkpt>
      <trkpt lat="45.76972" lon="4.82582">
        <ele>259.47549438477</ele>
        <time>2010-11-23T17:52:08Z</time>
      </trkpt>
      <trkpt lat="45.76965" lon="4.82588">
        <ele>246.15626525879</ele>
        <time>2010-11-23T17:52:09Z</time>
      </trkpt>
      <trkpt lat="45.7698" lon="4.82625">
        <ele>270</ele>
        <time>2010-11-23T17:52:16Z</time>
      </trkpt>
      <trkpt lat="45.76987" lon="4.82622">
        <ele>263.5491027832</ele>
        <time>2010-11-23T17:52:17Z</time>
      </trkpt>
      <trkpt lat="45.76994" lon="4.82619">
        <ele>239.6029510498</ele>
        <time>2010-11-23T17:52:18Z</time>
      </trkpt>
      <trkpt lat="45.77001" lon="4.82621">
        <ele>245.26672363281</ele>
        <time>2010-11-23T17:52:19Z</time>
      </trkpt>
      <trkpt lat="45.76998" lon="4.82629">
        <ele>257</ele>
        <time>2010-11-23T17:52:20Z</time>
      </trkpt>
      <trkpt lat="45.76998" lon="4.8264">
        <ele>243.48277282715</ele>
        <time>2010-11-23T17:52:21Z</time>
      </trkpt>
      <trkpt lat="45.76991" lon="4.82634">
        <ele>246.22727966309</ele>
        <time>2010-11-23T17:52:22Z</time>
      </trkpt>
      <trkpt lat="45.76992" lon="4.82639">
        <ele>257</ele>
        <time>2010-11-23T17:52:23Z</time>
      </trkpt>
      <trkpt lat="45.76992" lon="4.82637">
        <ele>255</ele>
        <time>2010-11-23T17:52:24Z</time>
      </trkpt>
      <trkpt lat="45.76994" lon="4.82639">
        <ele>254</ele>
        <time>2010-11-23T17:52:25Z</time>
      </trkpt>
      <trkpt lat="45.7699" lon="4.82639">
        <ele>248</ele>
        <time>2010-11-23T17:52:26Z</time>
      </trkpt>
      <trkpt lat="45.76991" lon="4.82647">
        <ele>265</ele>
        <time>2010-11-23T17:52:27Z</time>
      </trkpt>
      <trkpt lat="45.76986" lon="4.82645">
        <ele>303</ele>
        <time>2010-11-23T17:52:28Z</time>
      </trkpt>
      <trkpt lat="45.76993" lon="4.82646">
        <ele>313.62622070312</ele>
        <time>2010-11-23T17:52:29Z</time>
      </trkpt>
      <trkpt lat="45.77" lon="4.82642">
        <ele>308.31829833984</ele>
        <time>2010-11-23T17:52:30Z</time>
      </trkpt>
      <trkpt lat="45.77005" lon="4.82648">
        <ele>283</ele>
        <time>2010-11-23T17:52:31Z</time>
      </trkpt>
      <trkpt lat="45.77001" lon="4.82658">
        <ele>314</ele>
        <time>2010-11-23T17:52:32Z</time>
      </trkpt>
      <trkpt lat="45.77007" lon="4.82661">
        <ele>305</ele>
        <time>2010-11-23T17:52:33Z</time>
      </trkpt>
      <trkpt lat="45.77004" lon="4.82666">
        <ele>285</ele>
        <time>2010-11-23T17:52:34Z</time>
      </trkpt>
      <trkpt lat="45.77008" lon="4.82669">
        <ele>339</ele>
        <time>2010-11-23T17:52:36Z</time>
      </trkpt>
      <trkpt lat="45.77006" lon="4.82661">
        <ele>314.16525268555</ele>
        <time>2010-11-23T17:52:37Z</time>
      </trkpt>
      <trkpt lat="45.77013" lon="4.82665">
        <ele>281.31072998047</ele>
        <time>2010-11-23T17:52:38Z</time>
      </trkpt>
      <trkpt lat="45.77019" lon="4.82671">
        <ele>264.59878540039</ele>
        <time>2010-11-23T17:52:39Z</time>
      </trkpt>
      <trkpt lat="45.77022" lon="4.82674">
        <ele>257</ele>
        <time>2010-11-23T17:52:40Z</time>
      </trkpt>
      <trkpt lat="45.77024" lon="4.82664">
        <ele>273.48684692383</ele>
        <time>2010-11-23T17:52:41Z</time>
      </trkpt>
      <trkpt lat="45.77027" lon="4.82662">
        <ele>279</ele>
        <time>2010-11-23T17:52:42Z</time>
      </trkpt>
      <trkpt lat="45.77033" lon="4.82666">
        <ele>279</ele>
        <time>2010-11-23T17:52:43Z</time>
      </trkpt>
      <trkpt lat="45.77035" lon="4.82662">
        <ele>272</ele>
        <time>2010-11-23T17:52:44Z</time>
      </trkpt>
      <trkpt lat="45.77038" lon="4.82663">
        <ele>266</ele>
        <time>2010-11-23T17:52:45Z</time>
      </trkpt>
      <trkpt lat="45.77081" lon="4.82764">
        <ele>279</ele>
        <time>2010-11-23T17:53:10Z</time>
      </trkpt>
      <trkpt lat="45.77086" lon="4.82763">
        <ele>271</ele>
        <time>2010-11-23T17:53:11Z</time>
      </trkpt>
      <trkpt lat="45.77097" lon="4.82765">
        <ele>277</ele>
        <time>2010-11-23T17:53:13Z</time>
      </trkpt>
      <trkpt lat="45.77095" lon="4.82756">
        <ele>276.53140258789</ele>
        <time>2010-11-23T17:53:14Z</time>
      </trkpt>
      <trkpt lat="45.77088" lon="4.82752">
        <ele>263.02493286133</ele>
        <time>2010-11-23T17:53:15Z</time>
      </trkpt>
      <trkpt lat="45.77089" lon="4.82748">
        <ele>261</ele>
        <time>2010-11-23T17:53:16Z</time>
      </trkpt>
      <trkpt lat="45.77087" lon="4.82753">
        <ele>252</ele>
        <time>2010-11-23T17:53:17Z</time>
      </trkpt>
      <trkpt lat="45.77089" lon="4.82764">
        <ele>267.08889770508</ele>
        <time>2010-11-23T17:53:18Z</time>
      </trkpt>
      <trkpt lat="45.77089" lon="4.82774">
        <ele>260.4260559082</ele>
        <time>2010-11-23T17:53:19Z</time>
      </trkpt>
      <trkpt lat="45.77092" lon="4.82767">
        <ele>237</ele>
        <time>2010-11-23T17:53:20Z</time>
      </trkpt>
      <trkpt lat="45.771" lon="4.82765">
        <ele>242.20684814453</ele>
        <time>2010-11-23T17:53:21Z</time>
      </trkpt>
      <trkpt lat="45.77107" lon="4.82761">
        <ele>242.94372558594</ele>
        <time>2010-11-23T17:53:22Z</time>
      </trkpt>
      <trkpt lat="45.77114" lon="4.82765">
        <ele>252.4603729248</ele>
        <time>2010-11-23T17:53:23Z</time>
      </trkpt>
      <trkpt lat="45.77118" lon="4.82773">
        <ele>261.88446044922</ele>
        <time>2010-11-23T17:53:24Z</time>
      </trkpt>
      <trkpt lat="45.77112" lon="4.8278">
        <ele>260.01416015625</ele>
        <time>2010-11-23T17:53:25Z</time>
      </trkpt>
      <trkpt lat="45.77107" lon="4.82788">
        <ele>260.47500610352</ele>
        <time>2010-11-23T17:53:26Z</time>
      </trkpt>
      <trkpt lat="45.77112" lon="4.82796">
        <ele>267.14532470703</ele>
        <time>2010-11-23T17:53:27Z</time>
      </trkpt>
      <trkpt lat="45.77115" lon="4.82798">
        <ele>263</ele>
        <time>2010-11-23T17:53:28Z</time>
      </trkpt>
      <trkpt lat="45.7711" lon="4.8281">
        <ele>267</ele>
        <time>2010-11-23T17:53:32Z</time>
      </trkpt>
      <trkpt lat="45.7711" lon="4.82819">
        <ele>265.55773925781</ele>
        <time>2010-11-23T17:53:33Z</time>
      </trkpt>
      <trkpt lat="45.77115" lon="4.82821">
        <ele>267</ele>
        <time>2010-11-23T17:53:34Z</time>
      </trkpt>
      <trkpt lat="45.77113" lon="4.82826">
        <ele>265</ele>
        <time>2010-11-23T17:53:35Z</time>
      </trkpt>
      <trkpt lat="45.77116" lon="4.82826">
        <ele>263</ele>
        <time>2010-11-23T17:53:36Z</time>
      </trkpt>
      <trkpt lat="45.77111" lon="4.82828">
        <ele>262</ele>
        <time>2010-11-23T17:53:37Z</time>
      </trkpt>
      <trkpt lat="45.77112" lon="4.82827">
        <ele>262</ele>
        <time>2010-11-23T17:53:38Z</time>
      </trkpt>
      <trkpt lat="45.77108" lon="4.82831">
        <ele>261.26196289062</ele>
        <time>2010-11-23T17:53:39Z</time>
      </trkpt>
      <trkpt lat="45.77103" lon="4.82835">
        <ele>261</ele>
        <time>2010-11-23T17:53:40Z</time>
      </trkpt>
      <trkpt lat="45.77102" lon="4.82835">
        <ele>261</ele>
        <time>2010-11-23T17:53:41Z</time>
      </trkpt>
      <trkpt lat="45.77101" lon="4.82835">
        <ele>262</ele>
        <time>2010-11-23T17:53:42Z</time>
      </trkpt>
      <trkpt lat="45.771" lon="4.82836">
        <ele>261</ele>
        <time>2010-11-23T17:53:43Z</time>
      </trkpt>
      <trkpt lat="45.77099" lon="4.82836">
        <ele>260</ele>
        <time>2010-11-23T17:53:44Z</time>
      </trkpt>
      <trkpt lat="45.77099" lon="4.82836">
        <ele>260</ele>
        <time>2010-11-23T17:53:45Z</time>
      </trkpt>
      <trkpt lat="45.77098" lon="4.82841">
        <ele>260.91519165039</ele>
        <time>2010-11-23T17:53:46Z</time>
      </trkpt>
      <trkpt lat="45.77094" lon="4.8285">
        <ele>260.22219848633</ele>
        <time>2010-11-23T17:53:47Z</time>
      </trkpt>
      <trkpt lat="45.77092" lon="4.82861">
        <ele>261.90844726562</ele>
        <time>2010-11-23T17:53:48Z</time>
      </trkpt>
      <trkpt lat="45.77089" lon="4.82869">
        <ele>262</ele>
        <time>2010-11-23T17:53:49Z</time>
      </trkpt>
      <trkpt lat="45.77089" lon="4.82875">
        <ele>262</ele>
        <time>2010-11-23T17:53:50Z</time>
      </trkpt>
      <trkpt lat="45.77088" lon="4.82879">
        <ele>261</ele>
        <time>2010-11-23T17:53:51Z</time>
      </trkpt>
      <trkpt lat="45.77088" lon="4.82883">
        <ele>260</ele>
        <time>2010-11-23T17:53:52Z</time>
      </trkpt>
      <trkpt lat="45.77087" lon="4.82887">
        <ele>260</ele>
        <time>2010-11-23T17:53:53Z</time>
      </trkpt>
      <trkpt lat="45.77087" lon="4.8289">
        <ele>260</ele>
        <time>2010-11-23T17:53:54Z</time>
      </trkpt>
      <trkpt lat="45.77088" lon="4.82895">
        <ele>260</ele>
        <time>2010-11-23T17:53:55Z</time>
      </trkpt>
      <trkpt lat="45.77089" lon="4.829">
        <ele>261</ele>
        <time>2010-11-23T17:53:56Z</time>
      </trkpt>
      <trkpt lat="45.77089" lon="4.82905">
        <ele>261</ele>
        <time>2010-11-23T17:53:57Z</time>
      </trkpt>
      <trkpt lat="45.77091" lon="4.82909">
        <ele>261</ele>
        <time>2010-11-23T17:53:58Z</time>
      </trkpt>
      <trkpt lat="45.77092" lon="4.82912">
        <ele>262</ele>
        <time>2010-11-23T17:53:59Z</time>
      </trkpt>
      <trkpt lat="45.77092" lon="4.82915">
        <ele>261</ele>
        <time>2010-11-23T17:54:00Z</time>
      </trkpt>
      <trkpt lat="45.77092" lon="4.82918">
        <ele>262</ele>
        <time>2010-11-23T17:54:01Z</time>
      </trkpt>
      <trkpt lat="45.77093" lon="4.82922">
        <ele>262</ele>
        <time>2010-11-23T17:54:02Z</time>
      </trkpt>
      <trkpt lat="45.77093" lon="4.82926">
        <ele>262</ele>
        <time>2010-11-23T17:54:03Z</time>
      </trkpt>
      <trkpt lat="45.77094" lon="4.8293">
        <ele>262</ele>
        <time>2010-11-23T17:54:04Z</time>
      </trkpt>
      <trkpt lat="45.77094" lon="4.82933">
        <ele>262</ele>
        <time>2010-11-23T17:54:05Z</time>
      </trkpt>
      <trkpt lat="45.77093" lon="4.82939">
        <ele>262</ele>
        <time>2010-11-23T17:54:06Z</time>
      </trkpt>
      <trkpt lat="45.77093" lon="4.82941">
        <ele>264</ele>
        <time>2010-11-23T17:54:07Z</time>
      </trkpt>
      <trkpt lat="45.77093" lon="4.82944">
        <ele>264</ele>
        <time>2010-11-23T17:54:08Z</time>
      </trkpt>
      <trkpt lat="45.77093" lon="4.82947">
        <ele>264</ele>
        <time>2010-11-23T17:54:09Z</time>
      </trkpt>
      <trkpt lat="45.77093" lon="4.82951">
        <ele>264</ele>
        <time>2010-11-23T17:54:10Z</time>
      </trkpt>
      <trkpt lat="45.77093" lon="4.82955">
        <ele>264</ele>
        <time>2010-11-23T17:54:11Z</time>
      </trkpt>
      <trkpt lat="45.77092" lon="4.82958">
        <ele>264</ele>
        <time>2010-11-23T17:54:12Z</time>
      </trkpt>
      <trkpt lat="45.77093" lon="4.82962">
        <ele>263</ele>
        <time>2010-11-23T17:54:13Z</time>
      </trkpt>
      <trkpt lat="45.77093" lon="4.82968">
        <ele>262</ele>
        <time>2010-11-23T17:54:14Z</time>
      </trkpt>
      <trkpt lat="45.77093" lon="4.82971">
        <ele>262</ele>
        <time>2010-11-23T17:54:15Z</time>
      </trkpt>
      <trkpt lat="45.77093" lon="4.82975">
        <ele>261</ele>
        <time>2010-11-23T17:54:16Z</time>
      </trkpt>
      <trkpt lat="45.77093" lon="4.82979">
        <ele>260</ele>
        <time>2010-11-23T17:54:17Z</time>
      </trkpt>
      <trkpt lat="45.77094" lon="4.82984">
        <ele>260</ele>
        <time>2010-11-23T17:54:18Z</time>
      </trkpt>
      <trkpt lat="45.77096" lon="4.82988">
        <ele>259</ele>
        <time>2010-11-23T17:54:19Z</time>
      </trkpt>
      <trkpt lat="45.77097" lon="4.82992">
        <ele>259</ele>
        <time>2010-11-23T17:54:20Z</time>
      </trkpt>
      <trkpt lat="45.77097" lon="4.82996">
        <ele>259</ele>
        <time>2010-11-23T17:54:21Z</time>
      </trkpt>
      <trkpt lat="45.77098" lon="4.82999">
        <ele>259</ele>
        <time>2010-11-23T17:54:22Z</time>
      </trkpt>
      <trkpt lat="45.771" lon="4.83003">
        <ele>259</ele>
        <time>2010-11-23T17:54:23Z</time>
      </trkpt>
      <trkpt lat="45.771" lon="4.83007">
        <ele>258</ele>
        <time>2010-11-23T17:54:24Z</time>
      </trkpt>
      <trkpt lat="45.77101" lon="4.83011">
        <ele>258</ele>
        <time>2010-11-23T17:54:25Z</time>
      </trkpt>
      <trkpt lat="45.77097" lon="4.83014">
        <ele>258</ele>
        <time>2010-11-23T17:54:26Z</time>
      </trkpt>
      <trkpt lat="45.77095" lon="4.83019">
        <ele>258</ele>
        <time>2010-11-23T17:54:27Z</time>
      </trkpt>
      <trkpt lat="45.77095" lon="4.83022">
        <ele>258</ele>
        <time>2010-11-23T17:54:28Z</time>
      </trkpt>
      <trkpt lat="45.77094" lon="4.83027">
        <ele>258</ele>
        <time>2010-11-23T17:54:29Z</time>
      </trkpt>
      <trkpt lat="45.77094" lon="4.83032">
        <ele>258</ele>
        <time>2010-11-23T17:54:30Z</time>
      </trkpt>
      <trkpt lat="45.77093" lon="4.83035">
        <ele>258</ele>
        <time>2010-11-23T17:54:31Z</time>
      </trkpt>
      <trkpt lat="45.77093" lon="4.8304">
        <ele>257</ele>
        <time>2010-11-23T17:54:32Z</time>
      </trkpt>
      <trkpt lat="45.77093" lon="4.83044">
        <ele>258</ele>
        <time>2010-11-23T17:54:33Z</time>
      </trkpt>
      <trkpt lat="45.77091" lon="4.83048">
        <ele>258</ele>
        <time>2010-11-23T17:54:34Z</time>
      </trkpt>
      <trkpt lat="45.77089" lon="4.83052">
        <ele>258</ele>
        <time>2010-11-23T17:54:35Z</time>
      </trkpt>
      <trkpt lat="45.77088" lon="4.83056">
        <ele>258</ele>
        <time>2010-11-23T17:54:36Z</time>
      </trkpt>
      <trkpt lat="45.77088" lon="4.8306">
        <ele>258</ele>
        <time>2010-11-23T17:54:37Z</time>
      </trkpt>
      <trkpt lat="45.77088" lon="4.83064">
        <ele>258</ele>
        <time>2010-11-23T17:54:38Z</time>
      </trkpt>
      <trkpt lat="45.77087" lon="4.83067">
        <ele>259</ele>
        <time>2010-11-23T17:54:39Z</time>
      </trkpt>
      <trkpt lat="45.77087" lon="4.83071">
        <ele>259</ele>
        <time>2010-11-23T17:54:40Z</time>
      </trkpt>
      <trkpt lat="45.77087" lon="4.83074">
        <ele>260</ele>
        <time>2010-11-23T17:54:41Z</time>
      </trkpt>
      <trkpt lat="45.77087" lon="4.83078">
        <ele>259</ele>
        <time>2010-11-23T17:54:42Z</time>
      </trkpt>
      <trkpt lat="45.77087" lon="4.83081">
        <ele>259</ele>
        <time>2010-11-23T17:54:43Z</time>
      </trkpt>
      <trkpt lat="45.77086" lon="4.83085">
        <ele>259</ele>
        <time>2010-11-23T17:54:44Z</time>
      </trkpt>
      <trkpt lat="45.77086" lon="4.83088">
        <ele>259</ele>
        <time>2010-11-23T17:54:45Z</time>
      </trkpt>
      <trkpt lat="45.77086" lon="4.83091">
        <ele>259</ele>
        <time>2010-11-23T17:54:46Z</time>
      </trkpt>
      <trkpt lat="45.77087" lon="4.83094">
        <ele>259</ele>
        <time>2010-11-23T17:54:47Z</time>
      </trkpt>
      <trkpt lat="45.77088" lon="4.83097">
        <ele>259</ele>
        <time>2010-11-23T17:54:48Z</time>
      </trkpt>
      <trkpt lat="45.77089" lon="4.831">
        <ele>259</ele>
        <time>2010-11-23T17:54:49Z</time>
      </trkpt>
      <trkpt lat="45.77089" lon="4.83103">
        <ele>259</ele>
        <time>2010-11-23T17:54:50Z</time>
      </trkpt>
      <trkpt lat="45.77089" lon="4.83107">
        <ele>259</ele>
        <time>2010-11-23T17:54:51Z</time>
      </trkpt>
      <trkpt lat="45.7709" lon="4.83111">
        <ele>259</ele>
        <time>2010-11-23T17:54:52Z</time>
      </trkpt>
      <trkpt lat="45.77089" lon="4.83113">
        <ele>259</ele>
        <time>2010-11-23T17:54:53Z</time>
      </trkpt>
      <trkpt lat="45.77089" lon="4.83115">
        <ele>259</ele>
        <time>2010-11-23T17:54:54Z</time>
      </trkpt>
      <trkpt lat="45.77089" lon="4.83119">
        <ele>259</ele>
        <time>2010-11-23T17:54:55Z</time>
      </trkpt>
      <trkpt lat="45.7709" lon="4.83118">
        <ele>259</ele>
        <time>2010-11-23T17:54:56Z</time>
      </trkpt>
      <trkpt lat="45.77092" lon="4.8312">
        <ele>259</ele>
        <time>2010-11-23T17:54:57Z</time>
      </trkpt>
      <trkpt lat="45.77092" lon="4.83123">
        <ele>259</ele>
        <time>2010-11-23T17:54:58Z</time>
      </trkpt>
      <trkpt lat="45.77092" lon="4.83127">
        <ele>258</ele>
        <time>2010-11-23T17:54:59Z</time>
      </trkpt>
      <trkpt lat="45.77087" lon="4.83135">
        <ele>258</ele>
        <time>2010-11-23T17:55:00Z</time>
      </trkpt>
      <trkpt lat="45.77088" lon="4.8314">
        <ele>257</ele>
        <time>2010-11-23T17:55:01Z</time>
      </trkpt>
      <trkpt lat="45.77087" lon="4.83148">
        <ele>257</ele>
        <time>2010-11-23T17:55:02Z</time>
      </trkpt>
      <trkpt lat="45.77085" lon="4.83152">
        <ele>258</ele>
        <time>2010-11-23T17:55:03Z</time>
      </trkpt>
      <trkpt lat="45.77086" lon="4.83155">
        <ele>257</ele>
        <time>2010-11-23T17:55:04Z</time>
      </trkpt>
      <trkpt lat="45.77086" lon="4.83158">
        <ele>257</ele>
        <time>2010-11-23T17:55:05Z</time>
      </trkpt>
      <trkpt lat="45.77085" lon="4.83162">
        <ele>257</ele>
        <time>2010-11-23T17:55:06Z</time>
      </trkpt>
      <trkpt lat="45.77086" lon="4.83166">
        <ele>257</ele>
        <time>2010-11-23T17:55:07Z</time>
      </trkpt>
      <trkpt lat="45.77087" lon="4.8317">
        <ele>258</ele>
        <time>2010-11-23T17:55:08Z</time>
      </trkpt>
      <trkpt lat="45.77087" lon="4.83175">
        <ele>257</ele>
        <time>2010-11-23T17:55:09Z</time>
      </trkpt>
      <trkpt lat="45.77087" lon="4.83178">
        <ele>257</ele>
        <time>2010-11-23T17:55:10Z</time>
      </trkpt>
      <trkpt lat="45.77088" lon="4.83182">
        <ele>257</ele>
        <time>2010-11-23T17:55:11Z</time>
      </trkpt>
      <trkpt lat="45.77088" lon="4.83186">
        <ele>258</ele>
        <time>2010-11-23T17:55:12Z</time>
      </trkpt>
      <trkpt lat="45.77089" lon="4.83189">
        <ele>257</ele>
        <time>2010-11-23T17:55:13Z</time>
      </trkpt>
      <trkpt lat="45.7709" lon="4.83194">
        <ele>257</ele>
        <time>2010-11-23T17:55:14Z</time>
      </trkpt>
      <trkpt lat="45.7709" lon="4.83198">
        <ele>257</ele>
        <time>2010-11-23T17:55:15Z</time>
      </trkpt>
      <trkpt lat="45.7709" lon="4.83202">
        <ele>257</ele>
        <time>2010-11-23T17:55:16Z</time>
      </trkpt>
      <trkpt lat="45.77091" lon="4.83205">
        <ele>257</ele>
        <time>2010-11-23T17:55:17Z</time>
      </trkpt>
      <trkpt lat="45.77091" lon="4.8321">
        <ele>257</ele>
        <time>2010-11-23T17:55:18Z</time>
      </trkpt>
      <trkpt lat="45.77092" lon="4.83213">
        <ele>257</ele>
        <time>2010-11-23T17:55:19Z</time>
      </trkpt>
      <trkpt lat="45.77092" lon="4.83217">
        <ele>257</ele>
        <time>2010-11-23T17:55:20Z</time>
      </trkpt>
      <trkpt lat="45.7709" lon="4.83221">
        <ele>258</ele>
        <time>2010-11-23T17:55:21Z</time>
      </trkpt>
      <trkpt lat="45.7709" lon="4.83226">
        <ele>257</ele>
        <time>2010-11-23T17:55:22Z</time>
      </trkpt>
      <trkpt lat="45.7709" lon="4.83229">
        <ele>256</ele>
        <time>2010-11-23T17:55:23Z</time>
      </trkpt>
      <trkpt lat="45.7709" lon="4.83233">
        <ele>256</ele>
        <time>2010-11-23T17:55:24Z</time>
      </trkpt>
      <trkpt lat="45.77092" lon="4.83236">
        <ele>256</ele>
        <time>2010-11-23T17:55:25Z</time>
      </trkpt>
      <trkpt lat="45.77091" lon="4.83242">
        <ele>256</ele>
        <time>2010-11-23T17:55:26Z</time>
      </trkpt>
      <trkpt lat="45.77092" lon="4.83247">
        <ele>256</ele>
        <time>2010-11-23T17:55:27Z</time>
      </trkpt>
      <trkpt lat="45.77092" lon="4.8325">
        <ele>256</ele>
        <time>2010-11-23T17:55:28Z</time>
      </trkpt>
      <trkpt lat="45.77092" lon="4.83253">
        <ele>256</ele>
        <time>2010-11-23T17:55:29Z</time>
      </trkpt>
      <trkpt lat="45.77092" lon="4.83255">
        <ele>256</ele>
        <time>2010-11-23T17:55:30Z</time>
      </trkpt>
      <trkpt lat="45.7709" lon="4.83257">
        <ele>257</ele>
        <time>2010-11-23T17:55:31Z</time>
      </trkpt>
      <trkpt lat="45.7709" lon="4.8326">
        <ele>256</ele>
        <time>2010-11-23T17:55:32Z</time>
      </trkpt>
      <trkpt lat="45.77092" lon="4.83262">
        <ele>256</ele>
        <time>2010-11-23T17:55:33Z</time>
      </trkpt>
      <trkpt lat="45.77092" lon="4.83265">
        <ele>256</ele>
        <time>2010-11-23T17:55:34Z</time>
      </trkpt>
      <trkpt lat="45.77092" lon="4.83269">
        <ele>257</ele>
        <time>2010-11-23T17:55:35Z</time>
      </trkpt>
      <trkpt lat="45.77092" lon="4.83273">
        <ele>257</ele>
        <time>2010-11-23T17:55:36Z</time>
      </trkpt>
      <trkpt lat="45.77092" lon="4.83277">
        <ele>257</ele>
        <time>2010-11-23T17:55:37Z</time>
      </trkpt>
      <trkpt lat="45.77093" lon="4.83282">
        <ele>257</ele>
        <time>2010-11-23T17:55:38Z</time>
      </trkpt>
      <trkpt lat="45.77094" lon="4.83287">
        <ele>258</ele>
        <time>2010-11-23T17:55:39Z</time>
      </trkpt>
      <trkpt lat="45.77095" lon="4.8329">
        <ele>258</ele>
        <time>2010-11-23T17:55:40Z</time>
      </trkpt>
      <trkpt lat="45.77096" lon="4.83294">
        <ele>258</ele>
        <time>2010-11-23T17:55:41Z</time>
      </trkpt>
      <trkpt lat="45.77097" lon="4.83299">
        <ele>259</ele>
        <time>2010-11-23T17:55:42Z</time>
      </trkpt>
      <trkpt lat="45.77097" lon="4.83302">
        <ele>259</ele>
        <time>2010-11-23T17:55:43Z</time>
      </trkpt>
      <trkpt lat="45.77097" lon="4.83307">
        <ele>260</ele>
        <time>2010-11-23T17:55:44Z</time>
      </trkpt>
      <trkpt lat="45.77094" lon="4.8331">
        <ele>259</ele>
        <time>2010-11-23T17:55:45Z</time>
      </trkpt>
      <trkpt lat="45.77092" lon="4.83314">
        <ele>259</ele>
        <time>2010-11-23T17:55:46Z</time>
      </trkpt>
      <trkpt lat="45.7709" lon="4.83316">
        <ele>259</ele>
        <time>2010-11-23T17:55:47Z</time>
      </trkpt>
      <trkpt lat="45.77089" lon="4.83319">
        <ele>259</ele>
        <time>2010-11-23T17:55:48Z</time>
      </trkpt>
      <trkpt lat="45.77087" lon="4.8332">
        <ele>259</ele>
        <time>2010-11-23T17:55:49Z</time>
      </trkpt>
      <trkpt lat="45.77085" lon="4.83324">
        <ele>260</ele>
        <time>2010-11-23T17:55:50Z</time>
      </trkpt>
      <trkpt lat="45.77083" lon="4.83327">
        <ele>260</ele>
        <time>2010-11-23T17:55:51Z</time>
      </trkpt>
      <trkpt lat="45.7708" lon="4.83329">
        <ele>260</ele>
        <time>2010-11-23T17:55:52Z</time>
      </trkpt>
      <trkpt lat="45.77078" lon="4.83331">
        <ele>260</ele>
        <time>2010-11-23T17:55:53Z</time>
      </trkpt>
      <trkpt lat="45.77075" lon="4.83334">
        <ele>260</ele>
        <time>2010-11-23T17:55:54Z</time>
      </trkpt>
      <trkpt lat="45.77072" lon="4.83335">
        <ele>260</ele>
        <time>2010-11-23T17:55:55Z</time>
      </trkpt>
      <trkpt lat="45.77068" lon="4.83336">
        <ele>260</ele>
        <time>2010-11-23T17:55:56Z</time>
      </trkpt>
      <trkpt lat="45.77066" lon="4.83338">
        <ele>261</ele>
        <time>2010-11-23T17:55:57Z</time>
      </trkpt>
      <trkpt lat="45.77063" lon="4.83339">
        <ele>261</ele>
        <time>2010-11-23T17:55:58Z</time>
      </trkpt>
      <trkpt lat="45.7706" lon="4.8334">
        <ele>261</ele>
        <time>2010-11-23T17:55:59Z</time>
      </trkpt>
      <trkpt lat="45.77057" lon="4.8334">
        <ele>262</ele>
        <time>2010-11-23T17:56:00Z</time>
      </trkpt>
      <trkpt lat="45.77051" lon="4.83336">
        <ele>260.0813293457</ele>
        <time>2010-11-23T17:56:01Z</time>
      </trkpt>
      <trkpt lat="45.77048" lon="4.83338">
        <ele>259</ele>
        <time>2010-11-23T17:56:02Z</time>
      </trkpt>
      <trkpt lat="45.77044" lon="4.83341">
        <ele>259</ele>
        <time>2010-11-23T17:56:03Z</time>
      </trkpt>
      <trkpt lat="45.77046" lon="4.83346">
        <ele>257</ele>
        <time>2010-11-23T17:56:04Z</time>
      </trkpt>
      <trkpt lat="45.77045" lon="4.8335">
        <ele>257</ele>
        <time>2010-11-23T17:56:05Z</time>
      </trkpt>
      <trkpt lat="45.77044" lon="4.83354">
        <ele>257</ele>
        <time>2010-11-23T17:56:06Z</time>
      </trkpt>
      <trkpt lat="45.77045" lon="4.83356">
        <ele>256</ele>
        <time>2010-11-23T17:56:07Z</time>
      </trkpt>
      <trkpt lat="45.77045" lon="4.83361">
        <ele>256</ele>
        <time>2010-11-23T17:56:08Z</time>
      </trkpt>
      <trkpt lat="45.77046" lon="4.83365">
        <ele>256</ele>
        <time>2010-11-23T17:56:09Z</time>
      </trkpt>
      <trkpt lat="45.77047" lon="4.83367">
        <ele>255</ele>
        <time>2010-11-23T17:56:10Z</time>
      </trkpt>
      <trkpt lat="45.77046" lon="4.83371">
        <ele>255</ele>
        <time>2010-11-23T17:56:11Z</time>
      </trkpt>
      <trkpt lat="45.77046" lon="4.83376">
        <ele>255</ele>
        <time>2010-11-23T17:56:12Z</time>
      </trkpt>
      <trkpt lat="45.77048" lon="4.83381">
        <ele>255</ele>
        <time>2010-11-23T17:56:13Z</time>
      </trkpt>
      <trkpt lat="45.77048" lon="4.83386">
        <ele>255</ele>
        <time>2010-11-23T17:56:14Z</time>
      </trkpt>
      <trkpt lat="45.77049" lon="4.8339">
        <ele>255</ele>
        <time>2010-11-23T17:56:15Z</time>
      </trkpt>
      <trkpt lat="45.77049" lon="4.83395">
        <ele>255</ele>
        <time>2010-11-23T17:56:16Z</time>
      </trkpt>
      <trkpt lat="45.77048" lon="4.834">
        <ele>256</ele>
        <time>2010-11-23T17:56:17Z</time>
      </trkpt>
      <trkpt lat="45.77048" lon="4.83404">
        <ele>256</ele>
        <time>2010-11-23T17:56:18Z</time>
      </trkpt>
      <trkpt lat="45.7705" lon="4.83406">
        <ele>257</ele>
        <time>2010-11-23T17:56:19Z</time>
      </trkpt>
      <trkpt lat="45.7705" lon="4.83411">
        <ele>257</ele>
        <time>2010-11-23T17:56:20Z</time>
      </trkpt>
      <trkpt lat="45.77048" lon="4.83417">
        <ele>257</ele>
        <time>2010-11-23T17:56:21Z</time>
      </trkpt>
      <trkpt lat="45.77047" lon="4.83425">
        <ele>258</ele>
        <time>2010-11-23T17:56:22Z</time>
      </trkpt>
      <trkpt lat="45.77045" lon="4.83429">
        <ele>258</ele>
        <time>2010-11-23T17:56:23Z</time>
      </trkpt>
      <trkpt lat="45.77044" lon="4.83434">
        <ele>258</ele>
        <time>2010-11-23T17:56:24Z</time>
      </trkpt>
      <trkpt lat="45.77045" lon="4.83435">
        <ele>258</ele>
        <time>2010-11-23T17:56:25Z</time>
      </trkpt>
      <trkpt lat="45.77049" lon="4.83438">
        <ele>257</ele>
        <time>2010-11-23T17:56:26Z</time>
      </trkpt>
      <trkpt lat="45.7705" lon="4.83439">
        <ele>258</ele>
        <time>2010-11-23T17:56:27Z</time>
      </trkpt>
      <trkpt lat="45.77051" lon="4.83443">
        <ele>258</ele>
        <time>2010-11-23T17:56:28Z</time>
      </trkpt>
      <trkpt lat="45.77055" lon="4.83447">
        <ele>258</ele>
        <time>2010-11-23T17:56:29Z</time>
      </trkpt>
      <trkpt lat="45.77058" lon="4.83449">
        <ele>258</ele>
        <time>2010-11-23T17:56:30Z</time>
      </trkpt>
      <trkpt lat="45.77059" lon="4.83452">
        <ele>258</ele>
        <time>2010-11-23T17:56:31Z</time>
      </trkpt>
      <trkpt lat="45.77059" lon="4.83455">
        <ele>258</ele>
        <time>2010-11-23T17:56:32Z</time>
      </trkpt>
      <trkpt lat="45.77059" lon="4.83458">
        <ele>257</ele>
        <time>2010-11-23T17:56:33Z</time>
      </trkpt>
      <trkpt lat="45.7706" lon="4.83462">
        <ele>257</ele>
        <time>2010-11-23T17:56:34Z</time>
      </trkpt>
      <trkpt lat="45.77061" lon="4.83465">
        <ele>257</ele>
        <time>2010-11-23T17:56:35Z</time>
      </trkpt>
      <trkpt lat="45.77063" lon="4.83468">
        <ele>257</ele>
        <time>2010-11-23T17:56:36Z</time>
      </trkpt>
      <trkpt lat="45.77063" lon="4.83473">
        <ele>257</ele>
        <time>2010-11-23T17:56:37Z</time>
      </trkpt>
      <trkpt lat="45.77063" lon="4.83478">
        <ele>257</ele>
        <time>2010-11-23T17:56:38Z</time>
      </trkpt>
      <trkpt lat="45.77064" lon="4.83483">
        <ele>256</ele>
        <time>2010-11-23T17:56:39Z</time>
      </trkpt>
      <trkpt lat="45.77065" lon="4.83487">
        <ele>256</ele>
        <time>2010-11-23T17:56:40Z</time>
      </trkpt>
      <trkpt lat="45.77067" lon="4.8349">
        <ele>256</ele>
        <time>2010-11-23T17:56:41Z</time>
      </trkpt>
      <trkpt lat="45.77068" lon="4.83493">
        <ele>256</ele>
        <time>2010-11-23T17:56:42Z</time>
      </trkpt>
      <trkpt lat="45.77068" lon="4.83497">
        <ele>256</ele>
        <time>2010-11-23T17:56:43Z</time>
      </trkpt>
      <trkpt lat="45.77068" lon="4.83503">
        <ele>256</ele>
        <time>2010-11-23T17:56:44Z</time>
      </trkpt>
      <trkpt lat="45.7707" lon="4.83506">
        <ele>255</ele>
        <time>2010-11-23T17:56:45Z</time>
      </trkpt>
      <trkpt lat="45.7707" lon="4.83511">
        <ele>254</ele>
        <time>2010-11-23T17:56:46Z</time>
      </trkpt>
      <trkpt lat="45.77072" lon="4.83516">
        <ele>253</ele>
        <time>2010-11-23T17:56:47Z</time>
      </trkpt>
      <trkpt lat="45.77071" lon="4.83521">
        <ele>252</ele>
        <time>2010-11-23T17:56:48Z</time>
      </trkpt>
      <trkpt lat="45.77071" lon="4.83524">
        <ele>252</ele>
        <time>2010-11-23T17:56:49Z</time>
      </trkpt>
      <trkpt lat="45.77071" lon="4.8353">
        <ele>252</ele>
        <time>2010-11-23T17:56:50Z</time>
      </trkpt>
      <trkpt lat="45.77071" lon="4.83534">
        <ele>251</ele>
        <time>2010-11-23T17:56:51Z</time>
      </trkpt>
      <trkpt lat="45.77072" lon="4.83538">
        <ele>250</ele>
        <time>2010-11-23T17:56:52Z</time>
      </trkpt>
      <trkpt lat="45.77072" lon="4.83545">
        <ele>248</ele>
        <time>2010-11-23T17:56:53Z</time>
      </trkpt>
      <trkpt lat="45.77072" lon="4.83551">
        <ele>247</ele>
        <time>2010-11-23T17:56:54Z</time>
      </trkpt>
      <trkpt lat="45.77072" lon="4.83556">
        <ele>247</ele>
        <time>2010-11-23T17:56:55Z</time>
      </trkpt>
      <trkpt lat="45.77073" lon="4.83559">
        <ele>247</ele>
        <time>2010-11-23T17:56:56Z</time>
      </trkpt>
      <trkpt lat="45.77072" lon="4.83565">
        <ele>248</ele>
        <time>2010-11-23T17:56:57Z</time>
      </trkpt>
      <trkpt lat="45.77073" lon="4.83567">
        <ele>247</ele>
        <time>2010-11-23T17:56:58Z</time>
      </trkpt>
      <trkpt lat="45.77068" lon="4.83571">
        <ele>247</ele>
        <time>2010-11-23T17:56:59Z</time>
      </trkpt>
      <trkpt lat="45.77064" lon="4.83573">
        <ele>246</ele>
        <time>2010-11-23T17:57:00Z</time>
      </trkpt>
      <trkpt lat="45.77061" lon="4.83574">
        <ele>246</ele>
        <time>2010-11-23T17:57:01Z</time>
      </trkpt>
      <trkpt lat="45.77058" lon="4.83577">
        <ele>246</ele>
        <time>2010-11-23T17:57:02Z</time>
      </trkpt>
      <trkpt lat="45.77056" lon="4.83578">
        <ele>246</ele>
        <time>2010-11-23T17:57:03Z</time>
      </trkpt>
      <trkpt lat="45.77054" lon="4.83579">
        <ele>246</ele>
        <time>2010-11-23T17:57:04Z</time>
      </trkpt>
      <trkpt lat="45.77051" lon="4.8358">
        <ele>245</ele>
        <time>2010-11-23T17:57:05Z</time>
      </trkpt>
      <trkpt lat="45.77049" lon="4.8358">
        <ele>246</ele>
        <time>2010-11-23T17:57:06Z</time>
      </trkpt>
      <trkpt lat="45.77046" lon="4.8358">
        <ele>246</ele>
        <time>2010-11-23T17:57:07Z</time>
      </trkpt>
      <trkpt lat="45.77044" lon="4.83582">
        <ele>245</ele>
        <time>2010-11-23T17:57:08Z</time>
      </trkpt>
      <trkpt lat="45.77043" lon="4.83582">
        <ele>245</ele>
        <time>2010-11-23T17:57:09Z</time>
      </trkpt>
      <trkpt lat="45.7704" lon="4.83582">
        <ele>244</ele>
        <time>2010-11-23T17:57:10Z</time>
      </trkpt>
      <trkpt lat="45.77036" lon="4.83582">
        <ele>244</ele>
        <time>2010-11-23T17:57:11Z</time>
      </trkpt>
      <trkpt lat="45.77033" lon="4.83582">
        <ele>244</ele>
        <time>2010-11-23T17:57:12Z</time>
      </trkpt>
      <trkpt lat="45.77029" lon="4.83584">
        <ele>245</ele>
        <time>2010-11-23T17:57:13Z</time>
      </trkpt>
      <trkpt lat="45.77025" lon="4.83587">
        <ele>246</ele>
        <time>2010-11-23T17:57:14Z</time>
      </trkpt>
      <trkpt lat="45.77022" lon="4.83589">
        <ele>246</ele>
        <time>2010-11-23T17:57:15Z</time>
      </trkpt>
      <trkpt lat="45.77018" lon="4.8359">
        <ele>247</ele>
        <time>2010-11-23T17:57:16Z</time>
      </trkpt>
      <trkpt lat="45.77015" lon="4.83591">
        <ele>247</ele>
        <time>2010-11-23T17:57:17Z</time>
      </trkpt>
      <trkpt lat="45.77013" lon="4.83592">
        <ele>247</ele>
        <time>2010-11-23T17:57:18Z</time>
      </trkpt>
      <trkpt lat="45.77011" lon="4.83592">
        <ele>247</ele>
        <time>2010-11-23T17:57:19Z</time>
      </trkpt>
      <trkpt lat="45.77009" lon="4.8359">
        <ele>247</ele>
        <time>2010-11-23T17:57:20Z</time>
      </trkpt>
      <trkpt lat="45.77008" lon="4.83589">
        <ele>246</ele>
        <time>2010-11-23T17:57:21Z</time>
      </trkpt>
      <trkpt lat="45.77007" lon="4.83586">
        <ele>246</ele>
        <time>2010-11-23T17:57:22Z</time>
      </trkpt>
      <trkpt lat="45.77007" lon="4.83586">
        <ele>246</ele>
        <time>2010-11-23T17:57:23Z</time>
      </trkpt>
      <trkpt lat="45.77008" lon="4.83586">
        <ele>245</ele>
        <time>2010-11-23T17:57:24Z</time>
      </trkpt>
      <trkpt lat="45.77008" lon="4.83587">
        <ele>244</ele>
        <time>2010-11-23T17:57:25Z</time>
      </trkpt>
      <trkpt lat="45.77008" lon="4.83588">
        <ele>243</ele>
        <time>2010-11-23T17:57:26Z</time>
      </trkpt>
      <trkpt lat="45.77008" lon="4.8359">
        <ele>243</ele>
        <time>2010-11-23T17:57:27Z</time>
      </trkpt>
      <trkpt lat="45.77011" lon="4.8359">
        <ele>243</ele>
        <time>2010-11-23T17:57:28Z</time>
      </trkpt>
      <trkpt lat="45.77012" lon="4.83591">
        <ele>243</ele>
        <time>2010-11-23T17:57:29Z</time>
      </trkpt>
      <trkpt lat="45.77014" lon="4.83592">
        <ele>242</ele>
        <time>2010-11-23T17:57:30Z</time>
      </trkpt>
      <trkpt lat="45.77015" lon="4.83597">
        <ele>242</ele>
        <time>2010-11-23T17:57:31Z</time>
      </trkpt>
      <trkpt lat="45.77017" lon="4.83602">
        <ele>242</ele>
        <time>2010-11-23T17:57:32Z</time>
      </trkpt>
      <trkpt lat="45.77017" lon="4.83606">
        <ele>243</ele>
        <time>2010-11-23T17:57:33Z</time>
      </trkpt>
      <trkpt lat="45.77018" lon="4.83613">
        <ele>243</ele>
        <time>2010-11-23T17:57:34Z</time>
      </trkpt>
      <trkpt lat="45.77015" lon="4.83623">
        <ele>241.05200195312</ele>
        <time>2010-11-23T17:57:35Z</time>
      </trkpt>
      <trkpt lat="45.77017" lon="4.83627">
        <ele>240</ele>
        <time>2010-11-23T17:57:36Z</time>
      </trkpt>
      <trkpt lat="45.77022" lon="4.83629">
        <ele>239</ele>
        <time>2010-11-23T17:57:37Z</time>
      </trkpt>
      <trkpt lat="45.77026" lon="4.83631">
        <ele>239</ele>
        <time>2010-11-23T17:57:38Z</time>
      </trkpt>
      <trkpt lat="45.77028" lon="4.83633">
        <ele>238</ele>
        <time>2010-11-23T17:57:39Z</time>
      </trkpt>
      <trkpt lat="45.77033" lon="4.83635">
        <ele>238</ele>
        <time>2010-11-23T17:57:40Z</time>
      </trkpt>
      <trkpt lat="45.77037" lon="4.83637">
        <ele>238</ele>
        <time>2010-11-23T17:57:41Z</time>
      </trkpt>
      <trkpt lat="45.7704" lon="4.8364">
        <ele>238</ele>
        <time>2010-11-23T17:57:42Z</time>
      </trkpt>
      <trkpt lat="45.77043" lon="4.83642">
        <ele>238</ele>
        <time>2010-11-23T17:57:43Z</time>
      </trkpt>
      <trkpt lat="45.77044" lon="4.83645">
        <ele>239</ele>
        <time>2010-11-23T17:57:44Z</time>
      </trkpt>
      <trkpt lat="45.77044" lon="4.83646">
        <ele>239</ele>
        <time>2010-11-23T17:57:45Z</time>
      </trkpt>
      <trkpt lat="45.77045" lon="4.83647">
        <ele>239</ele>
        <time>2010-11-23T17:57:46Z</time>
      </trkpt>
      <trkpt lat="45.77046" lon="4.83652">
        <ele>240</ele>
        <time>2010-11-23T17:57:47Z</time>
      </trkpt>
      <trkpt lat="45.77048" lon="4.83655">
        <ele>242</ele>
        <time>2010-11-23T17:57:48Z</time>
      </trkpt>
      <trkpt lat="45.77049" lon="4.83656">
        <ele>243</ele>
        <time>2010-11-23T17:57:49Z</time>
      </trkpt>
      <trkpt lat="45.7705" lon="4.83658">
        <ele>242</ele>
        <time>2010-11-23T17:57:50Z</time>
      </trkpt>
      <trkpt lat="45.77048" lon="4.83665">
        <ele>242</ele>
        <time>2010-11-23T17:57:51Z</time>
      </trkpt>
      <trkpt lat="45.77048" lon="4.83669">
        <ele>242</ele>
        <time>2010-11-23T17:57:52Z</time>
      </trkpt>
      <trkpt lat="45.77048" lon="4.83674">
        <ele>241</ele>
        <time>2010-11-23T17:57:53Z</time>
      </trkpt>
      <trkpt lat="45.77048" lon="4.83676">
        <ele>241</ele>
        <time>2010-11-23T17:57:54Z</time>
      </trkpt>
      <trkpt lat="45.77048" lon="4.8368">
        <ele>241</ele>
        <time>2010-11-23T17:57:55Z</time>
      </trkpt>
      <trkpt lat="45.77048" lon="4.83683">
        <ele>241</ele>
        <time>2010-11-23T17:57:56Z</time>
      </trkpt>
      <trkpt lat="45.77049" lon="4.83687">
        <ele>241</ele>
        <time>2010-11-23T17:57:57Z</time>
      </trkpt>
      <trkpt lat="45.77049" lon="4.83691">
        <ele>242</ele>
        <time>2010-11-23T17:57:58Z</time>
      </trkpt>
      <trkpt lat="45.7705" lon="4.83697">
        <ele>242</ele>
        <time>2010-11-23T17:57:59Z</time>
      </trkpt>
      <trkpt lat="45.7705" lon="4.837">
        <ele>242</ele>
        <time>2010-11-23T17:58:00Z</time>
      </trkpt>
      <trkpt lat="45.7705" lon="4.83704">
        <ele>242</ele>
        <time>2010-11-23T17:58:01Z</time>
      </trkpt>
      <trkpt lat="45.77052" lon="4.83704">
        <ele>242</ele>
        <time>2010-11-23T17:58:02Z</time>
      </trkpt>
      <trkpt lat="45.77052" lon="4.83707">
        <ele>242</ele>
        <time>2010-11-23T17:58:03Z</time>
      </trkpt>
      <trkpt lat="45.77054" lon="4.8371">
        <ele>243</ele>
        <time>2010-11-23T17:58:04Z</time>
      </trkpt>
      <trkpt lat="45.77055" lon="4.83713">
        <ele>243</ele>
        <time>2010-11-23T17:58:05Z</time>
      </trkpt>
      <trkpt lat="45.77058" lon="4.83712">
        <ele>243</ele>
        <time>2010-11-23T17:58:06Z</time>
      </trkpt>
      <trkpt lat="45.77058" lon="4.83714">
        <ele>243</ele>
        <time>2010-11-23T17:58:07Z</time>
      </trkpt>
      <trkpt lat="45.77059" lon="4.83718">
        <ele>243</ele>
        <time>2010-11-23T17:58:08Z</time>
      </trkpt>
      <trkpt lat="45.77059" lon="4.8372">
        <ele>242</ele>
        <time>2010-11-23T17:58:09Z</time>
      </trkpt>
      <trkpt lat="45.77061" lon="4.8372">
        <ele>242</ele>
        <time>2010-11-23T17:58:10Z</time>
      </trkpt>
      <trkpt lat="45.77061" lon="4.83725">
        <ele>242</ele>
        <time>2010-11-23T17:58:11Z</time>
      </trkpt>
      <trkpt lat="45.7706" lon="4.83728">
        <ele>241</ele>
        <time>2010-11-23T17:58:12Z</time>
      </trkpt>
      <trkpt lat="45.77061" lon="4.83735">
        <ele>239.10641479492</ele>
        <time>2010-11-23T17:58:13Z</time>
      </trkpt>
      <trkpt lat="45.77061" lon="4.83746">
        <ele>235.51092529297</ele>
        <time>2010-11-23T17:58:14Z</time>
      </trkpt>
      <trkpt lat="45.77061" lon="4.8375">
        <ele>235</ele>
        <time>2010-11-23T17:58:15Z</time>
      </trkpt>
      <trkpt lat="45.7706" lon="4.83754">
        <ele>234</ele>
        <time>2010-11-23T17:58:16Z</time>
      </trkpt>
      <trkpt lat="45.7706" lon="4.83757">
        <ele>233</ele>
        <time>2010-11-23T17:58:17Z</time>
      </trkpt>
      <trkpt lat="45.77056" lon="4.83764">
        <ele>232.30641174316</ele>
        <time>2010-11-23T17:58:18Z</time>
      </trkpt>
      <trkpt lat="45.77051" lon="4.83769">
        <ele>232</ele>
        <time>2010-11-23T17:58:19Z</time>
      </trkpt>
      <trkpt lat="45.7705" lon="4.83772">
        <ele>233</ele>
        <time>2010-11-23T17:58:20Z</time>
      </trkpt>
      <trkpt lat="45.77048" lon="4.83773">
        <ele>233</ele>
        <time>2010-11-23T17:58:21Z</time>
      </trkpt>
      <trkpt lat="45.77046" lon="4.83774">
        <ele>232</ele>
        <time>2010-11-23T17:58:22Z</time>
      </trkpt>
      <trkpt lat="45.77043" lon="4.83774">
        <ele>232</ele>
        <time>2010-11-23T17:58:23Z</time>
      </trkpt>
      <trkpt lat="45.77039" lon="4.83776">
        <ele>232</ele>
        <time>2010-11-23T17:58:24Z</time>
      </trkpt>
      <trkpt lat="45.77036" lon="4.83778">
        <ele>233</ele>
        <time>2010-11-23T17:58:25Z</time>
      </trkpt>
      <trkpt lat="45.77033" lon="4.83779">
        <ele>233</ele>
        <time>2010-11-23T17:58:26Z</time>
      </trkpt>
      <trkpt lat="45.77031" lon="4.83781">
        <ele>233</ele>
        <time>2010-11-23T17:58:27Z</time>
      </trkpt>
      <trkpt lat="45.77029" lon="4.8378">
        <ele>233</ele>
        <time>2010-11-23T17:58:28Z</time>
      </trkpt>
      <trkpt lat="45.77026" lon="4.83781">
        <ele>233</ele>
        <time>2010-11-23T17:58:29Z</time>
      </trkpt>
      <trkpt lat="45.77023" lon="4.8378">
        <ele>233</ele>
        <time>2010-11-23T17:58:30Z</time>
      </trkpt>
      <trkpt lat="45.77021" lon="4.83783">
        <ele>233</ele>
        <time>2010-11-23T17:58:31Z</time>
      </trkpt>
      <trkpt lat="45.77018" lon="4.83784">
        <ele>232</ele>
        <time>2010-11-23T17:58:32Z</time>
      </trkpt>
      <trkpt lat="45.77017" lon="4.83784">
        <ele>232</ele>
        <time>2010-11-23T17:58:33Z</time>
      </trkpt>
      <trkpt lat="45.77015" lon="4.83785">
        <ele>232</ele>
        <time>2010-11-23T17:58:34Z</time>
      </trkpt>
      <trkpt lat="45.77012" lon="4.83786">
        <ele>233</ele>
        <time>2010-11-23T17:58:35Z</time>
      </trkpt>
      <trkpt lat="45.77011" lon="4.83788">
        <ele>233</ele>
        <time>2010-11-23T17:58:36Z</time>
      </trkpt>
      <trkpt lat="45.77008" lon="4.83792">
        <ele>232</ele>
        <time>2010-11-23T17:58:37Z</time>
      </trkpt>
      <trkpt lat="45.77004" lon="4.83795">
        <ele>232</ele>
        <time>2010-11-23T17:58:38Z</time>
      </trkpt>
      <trkpt lat="45.77001" lon="4.83799">
        <ele>233</ele>
        <time>2010-11-23T17:58:39Z</time>
      </trkpt>
      <trkpt lat="45.76998" lon="4.838">
        <ele>233</ele>
        <time>2010-11-23T17:58:40Z</time>
      </trkpt>
      <trkpt lat="45.76994" lon="4.83802">
        <ele>234</ele>
        <time>2010-11-23T17:58:41Z</time>
      </trkpt>
      <trkpt lat="45.7699" lon="4.83805">
        <ele>235</ele>
        <time>2010-11-23T17:58:42Z</time>
      </trkpt>
      <trkpt lat="45.76987" lon="4.83805">
        <ele>235</ele>
        <time>2010-11-23T17:58:43Z</time>
      </trkpt>
      <trkpt lat="45.76984" lon="4.83803">
        <ele>236</ele>
        <time>2010-11-23T17:58:44Z</time>
      </trkpt>
      <trkpt lat="45.76981" lon="4.83803">
        <ele>236</ele>
        <time>2010-11-23T17:58:45Z</time>
      </trkpt>
      <trkpt lat="45.76978" lon="4.83802">
        <ele>237</ele>
        <time>2010-11-23T17:58:46Z</time>
      </trkpt>
      <trkpt lat="45.76975" lon="4.83802">
        <ele>238</ele>
        <time>2010-11-23T17:58:47Z</time>
      </trkpt>
      <trkpt lat="45.76971" lon="4.83802">
        <ele>238</ele>
        <time>2010-11-23T17:58:48Z</time>
      </trkpt>
      <trkpt lat="45.76968" lon="4.83797">
        <ele>237</ele>
        <time>2010-11-23T17:58:49Z</time>
      </trkpt>
      <trkpt lat="45.7697" lon="4.83787">
        <ele>233.76342773438</ele>
        <time>2010-11-23T17:58:50Z</time>
      </trkpt>
      <trkpt lat="45.7697" lon="4.83776">
        <ele>230.16644287109</ele>
        <time>2010-11-23T17:58:51Z</time>
      </trkpt>
      <trkpt lat="45.76967" lon="4.8377">
        <ele>228</ele>
        <time>2010-11-23T17:58:52Z</time>
      </trkpt>
      <trkpt lat="45.76963" lon="4.8377">
        <ele>227</ele>
        <time>2010-11-23T17:58:53Z</time>
      </trkpt>
      <trkpt lat="45.76959" lon="4.83769">
        <ele>225</ele>
        <time>2010-11-23T17:58:54Z</time>
      </trkpt>
      <trkpt lat="45.76955" lon="4.83768">
        <ele>224</ele>
        <time>2010-11-23T17:58:55Z</time>
      </trkpt>
      <trkpt lat="45.76952" lon="4.83766">
        <ele>224</ele>
        <time>2010-11-23T17:58:56Z</time>
      </trkpt>
      <trkpt lat="45.76948" lon="4.83766">
        <ele>224</ele>
        <time>2010-11-23T17:58:57Z</time>
      </trkpt>
      <trkpt lat="45.76945" lon="4.83766">
        <ele>224</ele>
        <time>2010-11-23T17:58:58Z</time>
      </trkpt>
      <trkpt lat="45.76942" lon="4.83766">
        <ele>224</ele>
        <time>2010-11-23T17:58:59Z</time>
      </trkpt>
      <trkpt lat="45.76939" lon="4.83766">
        <ele>227</ele>
        <time>2010-11-23T17:59:00Z</time>
      </trkpt>
      <trkpt lat="45.76935" lon="4.83766">
        <ele>226</ele>
        <time>2010-11-23T17:59:01Z</time>
      </trkpt>
      <trkpt lat="45.76932" lon="4.83765">
        <ele>226</ele>
        <time>2010-11-23T17:59:02Z</time>
      </trkpt>
      <trkpt lat="45.76929" lon="4.83765">
        <ele>227</ele>
        <time>2010-11-23T17:59:03Z</time>
      </trkpt>
      <trkpt lat="45.76924" lon="4.83765">
        <ele>228</ele>
        <time>2010-11-23T17:59:04Z</time>
      </trkpt>
      <trkpt lat="45.7692" lon="4.83765">
        <ele>229</ele>
        <time>2010-11-23T17:59:05Z</time>
      </trkpt>
      <trkpt lat="45.76917" lon="4.83764">
        <ele>229</ele>
        <time>2010-11-23T17:59:06Z</time>
      </trkpt>
      <trkpt lat="45.76913" lon="4.83765">
        <ele>230</ele>
        <time>2010-11-23T17:59:07Z</time>
      </trkpt>
      <trkpt lat="45.76911" lon="4.83766">
        <ele>231</ele>
        <time>2010-11-23T17:59:08Z</time>
      </trkpt>
      <trkpt lat="45.76908" lon="4.83769">
        <ele>232</ele>
        <time>2010-11-23T17:59:09Z</time>
      </trkpt>
      <trkpt lat="45.76906" lon="4.83771">
        <ele>233</ele>
        <time>2010-11-23T17:59:10Z</time>
      </trkpt>
      <trkpt lat="45.76904" lon="4.83774">
        <ele>233</ele>
        <time>2010-11-23T17:59:11Z</time>
      </trkpt>
      <trkpt lat="45.76902" lon="4.83777">
        <ele>233</ele>
        <time>2010-11-23T17:59:12Z</time>
      </trkpt>
      <trkpt lat="45.76899" lon="4.83779">
        <ele>234</ele>
        <time>2010-11-23T17:59:13Z</time>
      </trkpt>
      <trkpt lat="45.76897" lon="4.83781">
        <ele>234</ele>
        <time>2010-11-23T17:59:14Z</time>
      </trkpt>
      <trkpt lat="45.76894" lon="4.83783">
        <ele>235</ele>
        <time>2010-11-23T17:59:15Z</time>
      </trkpt>
      <trkpt lat="45.76891" lon="4.83786">
        <ele>236</ele>
        <time>2010-11-23T17:59:16Z</time>
      </trkpt>
      <trkpt lat="45.7689" lon="4.8379">
        <ele>235</ele>
        <time>2010-11-23T17:59:17Z</time>
      </trkpt>
      <trkpt lat="45.76888" lon="4.83794">
        <ele>235</ele>
        <time>2010-11-23T17:59:18Z</time>
      </trkpt>
      <trkpt lat="45.76887" lon="4.83799">
        <ele>235</ele>
        <time>2010-11-23T17:59:19Z</time>
      </trkpt>
      <trkpt lat="45.76887" lon="4.83802">
        <ele>234</ele>
        <time>2010-11-23T17:59:20Z</time>
      </trkpt>
      <trkpt lat="45.76886" lon="4.83807">
        <ele>233</ele>
        <time>2010-11-23T17:59:21Z</time>
      </trkpt>
      <trkpt lat="45.76886" lon="4.8381">
        <ele>231</ele>
        <time>2010-11-23T17:59:22Z</time>
      </trkpt>
      <trkpt lat="45.76887" lon="4.83813">
        <ele>230</ele>
        <time>2010-11-23T17:59:23Z</time>
      </trkpt>
      <trkpt lat="45.76887" lon="4.83816">
        <ele>229</ele>
        <time>2010-11-23T17:59:24Z</time>
      </trkpt>
      <trkpt lat="45.76887" lon="4.83819">
        <ele>229</ele>
        <time>2010-11-23T17:59:25Z</time>
      </trkpt>
      <trkpt lat="45.76885" lon="4.83821">
        <ele>229</ele>
        <time>2010-11-23T17:59:26Z</time>
      </trkpt>
      <trkpt lat="45.76883" lon="4.83823">
        <ele>228</ele>
        <time>2010-11-23T17:59:27Z</time>
      </trkpt>
      <trkpt lat="45.76881" lon="4.83824">
        <ele>228</ele>
        <time>2010-11-23T17:59:28Z</time>
      </trkpt>
      <trkpt lat="45.7688" lon="4.83824">
        <ele>228</ele>
        <time>2010-11-23T17:59:29Z</time>
      </trkpt>
      <trkpt lat="45.76876" lon="4.83825">
        <ele>229</ele>
        <time>2010-11-23T17:59:30Z</time>
      </trkpt>
      <trkpt lat="45.76874" lon="4.83827">
        <ele>229</ele>
        <time>2010-11-23T17:59:31Z</time>
      </trkpt>
      <trkpt lat="45.76871" lon="4.83828">
        <ele>229</ele>
        <time>2010-11-23T17:59:32Z</time>
      </trkpt>
      <trkpt lat="45.76869" lon="4.83829">
        <ele>228</ele>
        <time>2010-11-23T17:59:33Z</time>
      </trkpt>
      <trkpt lat="45.76867" lon="4.83832">
        <ele>228</ele>
        <time>2010-11-23T17:59:34Z</time>
      </trkpt>
      <trkpt lat="45.76865" lon="4.83834">
        <ele>228</ele>
        <time>2010-11-23T17:59:35Z</time>
      </trkpt>
      <trkpt lat="45.76864" lon="4.83837">
        <ele>228</ele>
        <time>2010-11-23T17:59:36Z</time>
      </trkpt>
      <trkpt lat="45.76862" lon="4.8384">
        <ele>228</ele>
        <time>2010-11-23T17:59:37Z</time>
      </trkpt>
      <trkpt lat="45.76861" lon="4.83843">
        <ele>227</ele>
        <time>2010-11-23T17:59:38Z</time>
      </trkpt>
      <trkpt lat="45.76862" lon="4.83847">
        <ele>227</ele>
        <time>2010-11-23T17:59:39Z</time>
      </trkpt>
      <trkpt lat="45.76862" lon="4.83851">
        <ele>226</ele>
        <time>2010-11-23T17:59:40Z</time>
      </trkpt>
      <trkpt lat="45.76862" lon="4.83855">
        <ele>226</ele>
        <time>2010-11-23T17:59:41Z</time>
      </trkpt>
      <trkpt lat="45.76862" lon="4.83859">
        <ele>226</ele>
        <time>2010-11-23T17:59:42Z</time>
      </trkpt>
      <trkpt lat="45.76862" lon="4.83863">
        <ele>226</ele>
        <time>2010-11-23T17:59:43Z</time>
      </trkpt>
      <trkpt lat="45.76862" lon="4.83867">
        <ele>226</ele>
        <time>2010-11-23T17:59:44Z</time>
      </trkpt>
      <trkpt lat="45.76862" lon="4.83871">
        <ele>226</ele>
        <time>2010-11-23T17:59:45Z</time>
      </trkpt>
      <trkpt lat="45.76862" lon="4.83876">
        <ele>226</ele>
        <time>2010-11-23T17:59:46Z</time>
      </trkpt>
      <trkpt lat="45.76862" lon="4.83879">
        <ele>226</ele>
        <time>2010-11-23T17:59:47Z</time>
      </trkpt>
      <trkpt lat="45.76862" lon="4.83883">
        <ele>225</ele>
        <time>2010-11-23T17:59:48Z</time>
      </trkpt>
      <trkpt lat="45.76862" lon="4.83887">
        <ele>226</ele>
        <time>2010-11-23T17:59:49Z</time>
      </trkpt>
      <trkpt lat="45.76862" lon="4.8389">
        <ele>225</ele>
        <time>2010-11-23T17:59:50Z</time>
      </trkpt>
      <trkpt lat="45.76862" lon="4.83895">
        <ele>226</ele>
        <time>2010-11-23T17:59:51Z</time>
      </trkpt>
      <trkpt lat="45.76863" lon="4.83898">
        <ele>226</ele>
        <time>2010-11-23T17:59:52Z</time>
      </trkpt>
      <trkpt lat="45.76864" lon="4.83903">
        <ele>226</ele>
        <time>2010-11-23T17:59:53Z</time>
      </trkpt>
      <trkpt lat="45.76864" lon="4.83907">
        <ele>225</ele>
        <time>2010-11-23T17:59:54Z</time>
      </trkpt>
      <trkpt lat="45.76865" lon="4.83911">
        <ele>225</ele>
        <time>2010-11-23T17:59:55Z</time>
      </trkpt>
      <trkpt lat="45.76866" lon="4.83915">
        <ele>224</ele>
        <time>2010-11-23T17:59:56Z</time>
      </trkpt>
      <trkpt lat="45.76866" lon="4.83919">
        <ele>224</ele>
        <time>2010-11-23T17:59:57Z</time>
      </trkpt>
      <trkpt lat="45.76865" lon="4.83923">
        <ele>223</ele>
        <time>2010-11-23T17:59:58Z</time>
      </trkpt>
      <trkpt lat="45.76865" lon="4.83927">
        <ele>224</ele>
        <time>2010-11-23T17:59:59Z</time>
      </trkpt>
      <trkpt lat="45.76864" lon="4.83931">
        <ele>224</ele>
        <time>2010-11-23T18:00:00Z</time>
      </trkpt>
      <trkpt lat="45.76864" lon="4.83934">
        <ele>224</ele>
        <time>2010-11-23T18:00:01Z</time>
      </trkpt>
      <trkpt lat="45.76864" lon="4.83938">
        <ele>223</ele>
        <time>2010-11-23T18:00:02Z</time>
      </trkpt>
      <trkpt lat="45.76864" lon="4.83942">
        <ele>223</ele>
        <time>2010-11-23T18:00:03Z</time>
      </trkpt>
      <trkpt lat="45.76864" lon="4.83946">
        <ele>223</ele>
        <time>2010-11-23T18:00:04Z</time>
      </trkpt>
      <trkpt lat="45.76863" lon="4.8395">
        <ele>223</ele>
        <time>2010-11-23T18:00:05Z</time>
      </trkpt>
      <trkpt lat="45.76864" lon="4.83955">
        <ele>223</ele>
        <time>2010-11-23T18:00:06Z</time>
      </trkpt>
      <trkpt lat="45.76864" lon="4.83958">
        <ele>223</ele>
        <time>2010-11-23T18:00:07Z</time>
      </trkpt>
      <trkpt lat="45.76862" lon="4.83962">
        <ele>223</ele>
        <time>2010-11-23T18:00:08Z</time>
      </trkpt>
      <trkpt lat="45.76866" lon="4.83965">
        <ele>222</ele>
        <time>2010-11-23T18:00:09Z</time>
      </trkpt>
      <trkpt lat="45.76867" lon="4.8397">
        <ele>223</ele>
        <time>2010-11-23T18:00:10Z</time>
      </trkpt>
      <trkpt lat="45.76867" lon="4.83975">
        <ele>222</ele>
        <time>2010-11-23T18:00:11Z</time>
      </trkpt>
      <trkpt lat="45.76867" lon="4.83979">
        <ele>222</ele>
        <time>2010-11-23T18:00:12Z</time>
      </trkpt>
      <trkpt lat="45.76866" lon="4.83983">
        <ele>222</ele>
        <time>2010-11-23T18:00:13Z</time>
      </trkpt>
      <trkpt lat="45.76866" lon="4.83987">
        <ele>222</ele>
        <time>2010-11-23T18:00:14Z</time>
      </trkpt>
      <trkpt lat="45.76866" lon="4.83991">
        <ele>222</ele>
        <time>2010-11-23T18:00:15Z</time>
      </trkpt>
      <trkpt lat="45.76866" lon="4.83995">
        <ele>222</ele>
        <time>2010-11-23T18:00:16Z</time>
      </trkpt>
      <trkpt lat="45.76866" lon="4.83999">
        <ele>222</ele>
        <time>2010-11-23T18:00:17Z</time>
      </trkpt>
      <trkpt lat="45.76866" lon="4.84004">
        <ele>223</ele>
        <time>2010-11-23T18:00:18Z</time>
      </trkpt>
      <trkpt lat="45.76866" lon="4.84008">
        <ele>222</ele>
        <time>2010-11-23T18:00:19Z</time>
      </trkpt>
      <trkpt lat="45.76866" lon="4.84013">
        <ele>222</ele>
        <time>2010-11-23T18:00:20Z</time>
      </trkpt>
      <trkpt lat="45.76867" lon="4.84017">
        <ele>222</ele>
        <time>2010-11-23T18:00:21Z</time>
      </trkpt>
      <trkpt lat="45.76867" lon="4.84022">
        <ele>223</ele>
        <time>2010-11-23T18:00:22Z</time>
      </trkpt>
      <trkpt lat="45.76867" lon="4.84026">
        <ele>223</ele>
        <time>2010-11-23T18:00:23Z</time>
      </trkpt>
      <trkpt lat="45.76867" lon="4.8403">
        <ele>222</ele>
        <time>2010-11-23T18:00:24Z</time>
      </trkpt>
      <trkpt lat="45.76867" lon="4.84034">
        <ele>222</ele>
        <time>2010-11-23T18:00:25Z</time>
      </trkpt>
      <trkpt lat="45.76867" lon="4.84037">
        <ele>223</ele>
        <time>2010-11-23T18:00:26Z</time>
      </trkpt>
      <trkpt lat="45.76867" lon="4.84042">
        <ele>224</ele>
        <time>2010-11-23T18:00:27Z</time>
      </trkpt>
      <trkpt lat="45.76867" lon="4.84046">
        <ele>224</ele>
        <time>2010-11-23T18:00:28Z</time>
      </trkpt>
      <trkpt lat="45.76867" lon="4.8405">
        <ele>225</ele>
        <time>2010-11-23T18:00:29Z</time>
      </trkpt>
      <trkpt lat="45.76866" lon="4.84054">
        <ele>225</ele>
        <time>2010-11-23T18:00:30Z</time>
      </trkpt>
      <trkpt lat="45.76866" lon="4.84058">
        <ele>225</ele>
        <time>2010-11-23T18:00:31Z</time>
      </trkpt>
      <trkpt lat="45.76866" lon="4.84062">
        <ele>225</ele>
        <time>2010-11-23T18:00:32Z</time>
      </trkpt>
      <trkpt lat="45.76867" lon="4.84066">
        <ele>225</ele>
        <time>2010-11-23T18:00:33Z</time>
      </trkpt>
      <trkpt lat="45.76867" lon="4.8407">
        <ele>225</ele>
        <time>2010-11-23T18:00:34Z</time>
      </trkpt>
      <trkpt lat="45.76867" lon="4.84074">
        <ele>225</ele>
        <time>2010-11-23T18:00:35Z</time>
      </trkpt>
      <trkpt lat="45.76872" lon="4.84076">
        <ele>224</ele>
        <time>2010-11-23T18:00:36Z</time>
      </trkpt>
      <trkpt lat="45.76873" lon="4.8408">
        <ele>223</ele>
        <time>2010-11-23T18:00:37Z</time>
      </trkpt>
      <trkpt lat="45.76875" lon="4.84083">
        <ele>223</ele>
        <time>2010-11-23T18:00:38Z</time>
      </trkpt>
      <trkpt lat="45.76877" lon="4.84086">
        <ele>222</ele>
        <time>2010-11-23T18:00:39Z</time>
      </trkpt>
      <trkpt lat="45.7688" lon="4.84088">
        <ele>222</ele>
        <time>2010-11-23T18:00:40Z</time>
      </trkpt>
      <trkpt lat="45.76881" lon="4.8409">
        <ele>222</ele>
        <time>2010-11-23T18:00:41Z</time>
      </trkpt>
      <trkpt lat="45.76884" lon="4.84093">
        <ele>221</ele>
        <time>2010-11-23T18:00:42Z</time>
      </trkpt>
      <trkpt lat="45.76887" lon="4.84095">
        <ele>221</ele>
        <time>2010-11-23T18:00:43Z</time>
      </trkpt>
      <trkpt lat="45.7689" lon="4.84097">
        <ele>221</ele>
        <time>2010-11-23T18:00:44Z</time>
      </trkpt>
      <trkpt lat="45.76892" lon="4.841">
        <ele>221</ele>
        <time>2010-11-23T18:00:45Z</time>
      </trkpt>
      <trkpt lat="45.76895" lon="4.84102">
        <ele>221</ele>
        <time>2010-11-23T18:00:46Z</time>
      </trkpt>
      <trkpt lat="45.76898" lon="4.84102">
        <ele>221</ele>
        <time>2010-11-23T18:00:47Z</time>
      </trkpt>
      <trkpt lat="45.76901" lon="4.84102">
        <ele>220</ele>
        <time>2010-11-23T18:00:48Z</time>
      </trkpt>
      <trkpt lat="45.76904" lon="4.84103">
        <ele>221</ele>
        <time>2010-11-23T18:00:49Z</time>
      </trkpt>
      <trkpt lat="45.76906" lon="4.84103">
        <ele>220</ele>
        <time>2010-11-23T18:00:50Z</time>
      </trkpt>
      <trkpt lat="45.7691" lon="4.84099">
        <ele>220</ele>
        <time>2010-11-23T18:00:51Z</time>
      </trkpt>
      <trkpt lat="45.76913" lon="4.84101">
        <ele>220</ele>
        <time>2010-11-23T18:00:52Z</time>
      </trkpt>
      <trkpt lat="45.76915" lon="4.84102">
        <ele>220</ele>
        <time>2010-11-23T18:00:53Z</time>
      </trkpt>
      <trkpt lat="45.76918" lon="4.84103">
        <ele>220</ele>
        <time>2010-11-23T18:00:54Z</time>
      </trkpt>
      <trkpt lat="45.7692" lon="4.84102">
        <ele>220</ele>
        <time>2010-11-23T18:00:55Z</time>
      </trkpt>
      <trkpt lat="45.76922" lon="4.841">
        <ele>221</ele>
        <time>2010-11-23T18:00:56Z</time>
      </trkpt>
      <trkpt lat="45.76925" lon="4.84098">
        <ele>220</ele>
        <time>2010-11-23T18:00:57Z</time>
      </trkpt>
      <trkpt lat="45.76929" lon="4.84094">
        <ele>219</ele>
        <time>2010-11-23T18:00:58Z</time>
      </trkpt>
      <trkpt lat="45.76933" lon="4.8409">
        <ele>218</ele>
        <time>2010-11-23T18:00:59Z</time>
      </trkpt>
      <trkpt lat="45.76936" lon="4.8409">
        <ele>218</ele>
        <time>2010-11-23T18:01:00Z</time>
      </trkpt>
      <trkpt lat="45.7694" lon="4.8409">
        <ele>217</ele>
        <time>2010-11-23T18:01:01Z</time>
      </trkpt>
      <trkpt lat="45.76945" lon="4.84093">
        <ele>215</ele>
        <time>2010-11-23T18:01:02Z</time>
      </trkpt>
      <trkpt lat="45.76949" lon="4.84093">
        <ele>214</ele>
        <time>2010-11-23T18:01:03Z</time>
      </trkpt>
      <trkpt lat="45.76952" lon="4.84094">
        <ele>213</ele>
        <time>2010-11-23T18:01:04Z</time>
      </trkpt>
      <trkpt lat="45.76955" lon="4.84093">
        <ele>212</ele>
        <time>2010-11-23T18:01:05Z</time>
      </trkpt>
      <trkpt lat="45.76957" lon="4.84092">
        <ele>212</ele>
        <time>2010-11-23T18:01:06Z</time>
      </trkpt>
      <trkpt lat="45.7696" lon="4.84091">
        <ele>211</ele>
        <time>2010-11-23T18:01:07Z</time>
      </trkpt>
      <trkpt lat="45.76962" lon="4.8409">
        <ele>210</ele>
        <time>2010-11-23T18:01:08Z</time>
      </trkpt>
      <trkpt lat="45.76963" lon="4.8409">
        <ele>210</ele>
        <time>2010-11-23T18:01:09Z</time>
      </trkpt>
      <trkpt lat="45.76965" lon="4.8409">
        <ele>210</ele>
        <time>2010-11-23T18:01:10Z</time>
      </trkpt>
      <trkpt lat="45.76967" lon="4.84092">
        <ele>210</ele>
        <time>2010-11-23T18:01:11Z</time>
      </trkpt>
      <trkpt lat="45.7697" lon="4.84094">
        <ele>211</ele>
        <time>2010-11-23T18:01:12Z</time>
      </trkpt>
      <trkpt lat="45.76972" lon="4.84096">
        <ele>211</ele>
        <time>2010-11-23T18:01:13Z</time>
      </trkpt>
      <trkpt lat="45.76974" lon="4.84096">
        <ele>211</ele>
        <time>2010-11-23T18:01:14Z</time>
      </trkpt>
      <trkpt lat="45.76976" lon="4.84096">
        <ele>211</ele>
        <time>2010-11-23T18:01:15Z</time>
      </trkpt>
      <trkpt lat="45.76978" lon="4.84097">
        <ele>210</ele>
        <time>2010-11-23T18:01:16Z</time>
      </trkpt>
      <trkpt lat="45.7698" lon="4.84096">
        <ele>210</ele>
        <time>2010-11-23T18:01:17Z</time>
      </trkpt>
      <trkpt lat="45.76983" lon="4.84096">
        <ele>211</ele>
        <time>2010-11-23T18:01:18Z</time>
      </trkpt>
      <trkpt lat="45.76985" lon="4.84097">
        <ele>211</ele>
        <time>2010-11-23T18:01:19Z</time>
      </trkpt>
      <trkpt lat="45.76988" lon="4.84096">
        <ele>211</ele>
        <time>2010-11-23T18:01:20Z</time>
      </trkpt>
      <trkpt lat="45.76991" lon="4.84096">
        <ele>211</ele>
        <time>2010-11-23T18:01:21Z</time>
      </trkpt>
      <trkpt lat="45.76993" lon="4.84096">
        <ele>211</ele>
        <time>2010-11-23T18:01:22Z</time>
      </trkpt>
      <trkpt lat="45.76994" lon="4.84095">
        <ele>211</ele>
        <time>2010-11-23T18:01:23Z</time>
      </trkpt>
      <trkpt lat="45.76997" lon="4.84095">
        <ele>210</ele>
        <time>2010-11-23T18:01:24Z</time>
      </trkpt>
      <trkpt lat="45.76999" lon="4.84095">
        <ele>210</ele>
        <time>2010-11-23T18:01:25Z</time>
      </trkpt>
      <trkpt lat="45.77002" lon="4.84095">
        <ele>210</ele>
        <time>2010-11-23T18:01:26Z</time>
      </trkpt>
      <trkpt lat="45.77004" lon="4.84094">
        <ele>210</ele>
        <time>2010-11-23T18:01:27Z</time>
      </trkpt>
      <trkpt lat="45.77006" lon="4.84094">
        <ele>209</ele>
        <time>2010-11-23T18:01:28Z</time>
      </trkpt>
      <trkpt lat="45.77008" lon="4.84095">
        <ele>209</ele>
        <time>2010-11-23T18:01:29Z</time>
      </trkpt>
      <trkpt lat="45.77011" lon="4.84095">
        <ele>209</ele>
        <time>2010-11-23T18:01:30Z</time>
      </trkpt>
      <trkpt lat="45.77014" lon="4.84093">
        <ele>208</ele>
        <time>2010-11-23T18:01:31Z</time>
      </trkpt>
      <trkpt lat="45.77017" lon="4.84095">
        <ele>207</ele>
        <time>2010-11-23T18:01:32Z</time>
      </trkpt>
      <trkpt lat="45.77022" lon="4.84094">
        <ele>207</ele>
        <time>2010-11-23T18:01:33Z</time>
      </trkpt>
      <trkpt lat="45.77023" lon="4.84095">
        <ele>207</ele>
        <time>2010-11-23T18:01:34Z</time>
      </trkpt>
      <trkpt lat="45.77026" lon="4.84094">
        <ele>207</ele>
        <time>2010-11-23T18:01:35Z</time>
      </trkpt>
      <trkpt lat="45.77028" lon="4.84094">
        <ele>207</ele>
        <time>2010-11-23T18:01:36Z</time>
      </trkpt>
      <trkpt lat="45.77031" lon="4.84095">
        <ele>207</ele>
        <time>2010-11-23T18:01:37Z</time>
      </trkpt>
      <trkpt lat="45.77034" lon="4.84096">
        <ele>206</ele>
        <time>2010-11-23T18:01:38Z</time>
      </trkpt>
      <trkpt lat="45.77036" lon="4.84096">
        <ele>206</ele>
        <time>2010-11-23T18:01:39Z</time>
      </trkpt>
      <trkpt lat="45.77038" lon="4.84095">
        <ele>207</ele>
        <time>2010-11-23T18:01:40Z</time>
      </trkpt>
      <trkpt lat="45.7704" lon="4.84095">
        <ele>207</ele>
        <time>2010-11-23T18:01:41Z</time>
      </trkpt>
      <trkpt lat="45.77042" lon="4.84094">
        <ele>208</ele>
        <time>2010-11-23T18:01:42Z</time>
      </trkpt>
      <trkpt lat="45.77043" lon="4.84092">
        <ele>208</ele>
        <time>2010-11-23T18:01:43Z</time>
      </trkpt>
      <trkpt lat="45.77047" lon="4.84092">
        <ele>209</ele>
        <time>2010-11-23T18:01:44Z</time>
      </trkpt>
      <trkpt lat="45.7705" lon="4.8409">
        <ele>210</ele>
        <time>2010-11-23T18:01:45Z</time>
      </trkpt>
      <trkpt lat="45.77053" lon="4.8409">
        <ele>210</ele>
        <time>2010-11-23T18:01:46Z</time>
      </trkpt>
      <trkpt lat="45.77055" lon="4.8409">
        <ele>211</ele>
        <time>2010-11-23T18:01:47Z</time>
      </trkpt>
      <trkpt lat="45.77059" lon="4.8409">
        <ele>211</ele>
        <time>2010-11-23T18:01:48Z</time>
      </trkpt>
      <trkpt lat="45.77061" lon="4.84089">
        <ele>211</ele>
        <time>2010-11-23T18:01:49Z</time>
      </trkpt>
      <trkpt lat="45.77065" lon="4.84088">
        <ele>211</ele>
        <time>2010-11-23T18:01:50Z</time>
      </trkpt>
      <trkpt lat="45.77067" lon="4.8409">
        <ele>210</ele>
        <time>2010-11-23T18:01:51Z</time>
      </trkpt>
      <trkpt lat="45.7707" lon="4.8409">
        <ele>210</ele>
        <time>2010-11-23T18:01:52Z</time>
      </trkpt>
      <trkpt lat="45.77073" lon="4.84091">
        <ele>210</ele>
        <time>2010-11-23T18:01:53Z</time>
      </trkpt>
      <trkpt lat="45.77076" lon="4.84092">
        <ele>209</ele>
        <time>2010-11-23T18:01:54Z</time>
      </trkpt>
      <trkpt lat="45.7708" lon="4.84093">
        <ele>208</ele>
        <time>2010-11-23T18:01:55Z</time>
      </trkpt>
      <trkpt lat="45.77083" lon="4.84095">
        <ele>207</ele>
        <time>2010-11-23T18:01:56Z</time>
      </trkpt>
      <trkpt lat="45.77086" lon="4.84095">
        <ele>207</ele>
        <time>2010-11-23T18:01:57Z</time>
      </trkpt>
      <trkpt lat="45.77088" lon="4.84096">
        <ele>207</ele>
        <time>2010-11-23T18:01:58Z</time>
      </trkpt>
      <trkpt lat="45.77092" lon="4.84097">
        <ele>207</ele>
        <time>2010-11-23T18:01:59Z</time>
      </trkpt>
      <trkpt lat="45.77093" lon="4.84097">
        <ele>207</ele>
        <time>2010-11-23T18:02:00Z</time>
      </trkpt>
      <trkpt lat="45.77096" lon="4.84098">
        <ele>206</ele>
        <time>2010-11-23T18:02:01Z</time>
      </trkpt>
      <trkpt lat="45.77099" lon="4.84098">
        <ele>206</ele>
        <time>2010-11-23T18:02:02Z</time>
      </trkpt>
      <trkpt lat="45.77101" lon="4.84098">
        <ele>207</ele>
        <time>2010-11-23T18:02:03Z</time>
      </trkpt>
      <trkpt lat="45.77103" lon="4.84098">
        <ele>207</ele>
        <time>2010-11-23T18:02:04Z</time>
      </trkpt>
      <trkpt lat="45.77107" lon="4.84097">
        <ele>209</ele>
        <time>2010-11-23T18:02:05Z</time>
      </trkpt>
      <trkpt lat="45.77109" lon="4.84097">
        <ele>209</ele>
        <time>2010-11-23T18:02:06Z</time>
      </trkpt>
      <trkpt lat="45.77111" lon="4.84098">
        <ele>209</ele>
        <time>2010-11-23T18:02:07Z</time>
      </trkpt>
      <trkpt lat="45.77114" lon="4.84098">
        <ele>210</ele>
        <time>2010-11-23T18:02:08Z</time>
      </trkpt>
      <trkpt lat="45.77115" lon="4.84098">
        <ele>210</ele>
        <time>2010-11-23T18:02:09Z</time>
      </trkpt>
      <trkpt lat="45.77118" lon="4.84098">
        <ele>211</ele>
        <time>2010-11-23T18:02:10Z</time>
      </trkpt>
      <trkpt lat="45.77121" lon="4.84097">
        <ele>212</ele>
        <time>2010-11-23T18:02:11Z</time>
      </trkpt>
      <trkpt lat="45.77124" lon="4.84097">
        <ele>212</ele>
        <time>2010-11-23T18:02:12Z</time>
      </trkpt>
      <trkpt lat="45.77127" lon="4.84096">
        <ele>214</ele>
        <time>2010-11-23T18:02:13Z</time>
      </trkpt>
      <trkpt lat="45.7713" lon="4.84096">
        <ele>214</ele>
        <time>2010-11-23T18:02:14Z</time>
      </trkpt>
      <trkpt lat="45.77132" lon="4.84097">
        <ele>214</ele>
        <time>2010-11-23T18:02:15Z</time>
      </trkpt>
      <trkpt lat="45.77134" lon="4.84098">
        <ele>215</ele>
        <time>2010-11-23T18:02:16Z</time>
      </trkpt>
      <trkpt lat="45.77137" lon="4.84098">
        <ele>216</ele>
        <time>2010-11-23T18:02:17Z</time>
      </trkpt>
      <trkpt lat="45.7714" lon="4.841">
        <ele>217</ele>
        <time>2010-11-23T18:02:18Z</time>
      </trkpt>
      <trkpt lat="45.77142" lon="4.841">
        <ele>218</ele>
        <time>2010-11-23T18:02:19Z</time>
      </trkpt>
      <trkpt lat="45.77145" lon="4.84101">
        <ele>218</ele>
        <time>2010-11-23T18:02:20Z</time>
      </trkpt>
      <trkpt lat="45.77147" lon="4.841">
        <ele>218</ele>
        <time>2010-11-23T18:02:21Z</time>
      </trkpt>
      <trkpt lat="45.7715" lon="4.84099">
        <ele>218</ele>
        <time>2010-11-23T18:02:22Z</time>
      </trkpt>
      <trkpt lat="45.77153" lon="4.84098">
        <ele>217</ele>
        <time>2010-11-23T18:02:23Z</time>
      </trkpt>
      <trkpt lat="45.77155" lon="4.84098">
        <ele>217</ele>
        <time>2010-11-23T18:02:24Z</time>
      </trkpt>
      <trkpt lat="45.77157" lon="4.84097">
        <ele>217</ele>
        <time>2010-11-23T18:02:25Z</time>
      </trkpt>
      <trkpt lat="45.7716" lon="4.84097">
        <ele>217</ele>
        <time>2010-11-23T18:02:26Z</time>
      </trkpt>
      <trkpt lat="45.77162" lon="4.84097">
        <ele>217</ele>
        <time>2010-11-23T18:02:27Z</time>
      </trkpt>
      <trkpt lat="45.77165" lon="4.84096">
        <ele>217</ele>
        <time>2010-11-23T18:02:28Z</time>
      </trkpt>
      <trkpt lat="45.77168" lon="4.84095">
        <ele>217</ele>
        <time>2010-11-23T18:02:29Z</time>
      </trkpt>
      <trkpt lat="45.77171" lon="4.84094">
        <ele>217</ele>
        <time>2010-11-23T18:02:30Z</time>
      </trkpt>
      <trkpt lat="45.77174" lon="4.84092">
        <ele>217</ele>
        <time>2010-11-23T18:02:31Z</time>
      </trkpt>
      <trkpt lat="45.77177" lon="4.84088">
        <ele>217</ele>
        <time>2010-11-23T18:02:32Z</time>
      </trkpt>
      <trkpt lat="45.7718" lon="4.84086">
        <ele>217</ele>
        <time>2010-11-23T18:02:33Z</time>
      </trkpt>
      <trkpt lat="45.77183" lon="4.84084">
        <ele>217</ele>
        <time>2010-11-23T18:02:34Z</time>
      </trkpt>
      <trkpt lat="45.77186" lon="4.84081">
        <ele>217</ele>
        <time>2010-11-23T18:02:35Z</time>
      </trkpt>
      <trkpt lat="45.77189" lon="4.84079">
        <ele>217</ele>
        <time>2010-11-23T18:02:36Z</time>
      </trkpt>
      <trkpt lat="45.77192" lon="4.84078">
        <ele>217</ele>
        <time>2010-11-23T18:02:37Z</time>
      </trkpt>
      <trkpt lat="45.77196" lon="4.84076">
        <ele>217</ele>
        <time>2010-11-23T18:02:38Z</time>
      </trkpt>
      <trkpt lat="45.77198" lon="4.84075">
        <ele>217</ele>
        <time>2010-11-23T18:02:39Z</time>
      </trkpt>
      <trkpt lat="45.772" lon="4.84075">
        <ele>217</ele>
        <time>2010-11-23T18:02:40Z</time>
      </trkpt>
      <trkpt lat="45.77205" lon="4.84076">
        <ele>216</ele>
        <time>2010-11-23T18:02:41Z</time>
      </trkpt>
      <trkpt lat="45.77207" lon="4.84078">
        <ele>215</ele>
        <time>2010-11-23T18:02:42Z</time>
      </trkpt>
      <trkpt lat="45.77211" lon="4.84078">
        <ele>215</ele>
        <time>2010-11-23T18:02:43Z</time>
      </trkpt>
      <trkpt lat="45.77213" lon="4.84079">
        <ele>215</ele>
        <time>2010-11-23T18:02:44Z</time>
      </trkpt>
      <trkpt lat="45.77217" lon="4.84079">
        <ele>216</ele>
        <time>2010-11-23T18:02:45Z</time>
      </trkpt>
      <trkpt lat="45.77219" lon="4.84079">
        <ele>216</ele>
        <time>2010-11-23T18:02:46Z</time>
      </trkpt>
      <trkpt lat="45.77221" lon="4.84078">
        <ele>217</ele>
        <time>2010-11-23T18:02:47Z</time>
      </trkpt>
      <trkpt lat="45.77223" lon="4.84078">
        <ele>217</ele>
        <time>2010-11-23T18:02:48Z</time>
      </trkpt>
      <trkpt lat="45.77226" lon="4.84078">
        <ele>217</ele>
        <time>2010-11-23T18:02:49Z</time>
      </trkpt>
      <trkpt lat="45.77228" lon="4.84078">
        <ele>217</ele>
        <time>2010-11-23T18:02:50Z</time>
      </trkpt>
      <trkpt lat="45.7723" lon="4.84078">
        <ele>217</ele>
        <time>2010-11-23T18:02:51Z</time>
      </trkpt>
      <trkpt lat="45.77246" lon="4.84085">
        <ele>216</ele>
        <time>2010-11-23T18:02:58Z</time>
      </trkpt>
      <trkpt lat="45.77248" lon="4.84085">
        <ele>216</ele>
        <time>2010-11-23T18:02:59Z</time>
      </trkpt>
      <trkpt lat="45.77254" lon="4.84084">
        <ele>216</ele>
        <time>2010-11-23T18:03:00Z</time>
      </trkpt>
      <trkpt lat="45.7726" lon="4.84083">
        <ele>216</ele>
        <time>2010-11-23T18:03:01Z</time>
      </trkpt>
      <trkpt lat="45.77265" lon="4.84081">
        <ele>216</ele>
        <time>2010-11-23T18:03:02Z</time>
      </trkpt>
      <trkpt lat="45.77267" lon="4.84081">
        <ele>217</ele>
        <time>2010-11-23T18:03:03Z</time>
      </trkpt>
      <trkpt lat="45.7727" lon="4.84082">
        <ele>216</ele>
        <time>2010-11-23T18:03:04Z</time>
      </trkpt>
      <trkpt lat="45.77273" lon="4.84082">
        <ele>216</ele>
        <time>2010-11-23T18:03:05Z</time>
      </trkpt>
      <trkpt lat="45.77276" lon="4.8408">
        <ele>216</ele>
        <time>2010-11-23T18:03:06Z</time>
      </trkpt>
      <trkpt lat="45.77278" lon="4.84081">
        <ele>215</ele>
        <time>2010-11-23T18:03:07Z</time>
      </trkpt>
      <trkpt lat="45.7728" lon="4.84082">
        <ele>214</ele>
        <time>2010-11-23T18:03:08Z</time>
      </trkpt>
      <trkpt lat="45.77284" lon="4.84083">
        <ele>214</ele>
        <time>2010-11-23T18:03:09Z</time>
      </trkpt>
      <trkpt lat="45.77286" lon="4.84082">
        <ele>214</ele>
        <time>2010-11-23T18:03:10Z</time>
      </trkpt>
      <trkpt lat="45.77289" lon="4.84085">
        <ele>213</ele>
        <time>2010-11-23T18:03:11Z</time>
      </trkpt>
      <trkpt lat="45.77292" lon="4.84083">
        <ele>213</ele>
        <time>2010-11-23T18:03:12Z</time>
      </trkpt>
      <trkpt lat="45.77295" lon="4.84083">
        <ele>214</ele>
        <time>2010-11-23T18:03:13Z</time>
      </trkpt>
      <trkpt lat="45.77298" lon="4.84082">
        <ele>214</ele>
        <time>2010-11-23T18:03:14Z</time>
      </trkpt>
      <trkpt lat="45.773" lon="4.84085">
        <ele>214</ele>
        <time>2010-11-23T18:03:15Z</time>
      </trkpt>
      <trkpt lat="45.77302" lon="4.84086">
        <ele>214</ele>
        <time>2010-11-23T18:03:16Z</time>
      </trkpt>
      <trkpt lat="45.77306" lon="4.84087">
        <ele>214</ele>
        <time>2010-11-23T18:03:17Z</time>
      </trkpt>
      <trkpt lat="45.77308" lon="4.84087">
        <ele>213</ele>
        <time>2010-11-23T18:03:19Z</time>
      </trkpt>
      <trkpt lat="45.77308" lon="4.84089">
        <ele>213</ele>
        <time>2010-11-23T18:03:19Z</time>
      </trkpt>
      <trkpt lat="45.7731" lon="4.84096">
        <ele>213</ele>
        <time>2010-11-23T18:03:20Z</time>
      </trkpt>
      <trkpt lat="45.77313" lon="4.84097">
        <ele>214</ele>
        <time>2010-11-23T18:03:21Z</time>
      </trkpt>
      <trkpt lat="45.77315" lon="4.84097">
        <ele>213</ele>
        <time>2010-11-23T18:03:22Z</time>
      </trkpt>
      <trkpt lat="45.77317" lon="4.84099">
        <ele>212</ele>
        <time>2010-11-23T18:03:23Z</time>
      </trkpt>
      <trkpt lat="45.7732" lon="4.84102">
        <ele>213</ele>
        <time>2010-11-23T18:03:24Z</time>
      </trkpt>
      <trkpt lat="45.77322" lon="4.84105">
        <ele>213</ele>
        <time>2010-11-23T18:03:25Z</time>
      </trkpt>
      <trkpt lat="45.77324" lon="4.84109">
        <ele>214</ele>
        <time>2010-11-23T18:03:26Z</time>
      </trkpt>
      <trkpt lat="45.77326" lon="4.8411">
        <ele>215</ele>
        <time>2010-11-23T18:03:27Z</time>
      </trkpt>
      <trkpt lat="45.77329" lon="4.84112">
        <ele>214</ele>
        <time>2010-11-23T18:03:28Z</time>
      </trkpt>
      <trkpt lat="45.77332" lon="4.84112">
        <ele>213</ele>
        <time>2010-11-23T18:03:29Z</time>
      </trkpt>
      <trkpt lat="45.77334" lon="4.84113">
        <ele>214</ele>
        <time>2010-11-23T18:03:30Z</time>
      </trkpt>
      <trkpt lat="45.77337" lon="4.84114">
        <ele>213</ele>
        <time>2010-11-23T18:03:31Z</time>
      </trkpt>
      <trkpt lat="45.77338" lon="4.84116">
        <ele>213</ele>
        <time>2010-11-23T18:03:32Z</time>
      </trkpt>
      <trkpt lat="45.7734" lon="4.84118">
        <ele>213</ele>
        <time>2010-11-23T18:03:33Z</time>
      </trkpt>
      <trkpt lat="45.77343" lon="4.84119">
        <ele>213</ele>
        <time>2010-11-23T18:03:34Z</time>
      </trkpt>
      <trkpt lat="45.77345" lon="4.84122">
        <ele>213</ele>
        <time>2010-11-23T18:03:35Z</time>
      </trkpt>
      <trkpt lat="45.77348" lon="4.84122">
        <ele>213</ele>
        <time>2010-11-23T18:03:36Z</time>
      </trkpt>
      <trkpt lat="45.77349" lon="4.84126">
        <ele>214</ele>
        <time>2010-11-23T18:03:37Z</time>
      </trkpt>
      <trkpt lat="45.77351" lon="4.84128">
        <ele>213</ele>
        <time>2010-11-23T18:03:38Z</time>
      </trkpt>
      <trkpt lat="45.77353" lon="4.84129">
        <ele>213</ele>
        <time>2010-11-23T18:03:39Z</time>
      </trkpt>
      <trkpt lat="45.77355" lon="4.84129">
        <ele>213</ele>
        <time>2010-11-23T18:03:40Z</time>
      </trkpt>
      <trkpt lat="45.77358" lon="4.84132">
        <ele>214</ele>
        <time>2010-11-23T18:03:41Z</time>
      </trkpt>
      <trkpt lat="45.7736" lon="4.84134">
        <ele>215</ele>
        <time>2010-11-23T18:03:42Z</time>
      </trkpt>
      <trkpt lat="45.77362" lon="4.84136">
        <ele>216</ele>
        <time>2010-11-23T18:03:43Z</time>
      </trkpt>
      <trkpt lat="45.77363" lon="4.84139">
        <ele>217</ele>
        <time>2010-11-23T18:03:44Z</time>
      </trkpt>
      <trkpt lat="45.77366" lon="4.8414">
        <ele>217</ele>
        <time>2010-11-23T18:03:45Z</time>
      </trkpt>
      <trkpt lat="45.77368" lon="4.84142">
        <ele>217</ele>
        <time>2010-11-23T18:03:46Z</time>
      </trkpt>
      <trkpt lat="45.77369" lon="4.84143">
        <ele>217</ele>
        <time>2010-11-23T18:03:47Z</time>
      </trkpt>
      <trkpt lat="45.77372" lon="4.84145">
        <ele>217</ele>
        <time>2010-11-23T18:03:48Z</time>
      </trkpt>
      <trkpt lat="45.77373" lon="4.84147">
        <ele>217</ele>
        <time>2010-11-23T18:03:49Z</time>
      </trkpt>
      <trkpt lat="45.77375" lon="4.84149">
        <ele>216</ele>
        <time>2010-11-23T18:03:50Z</time>
      </trkpt>
      <trkpt lat="45.77379" lon="4.84152">
        <ele>216</ele>
        <time>2010-11-23T18:03:51Z</time>
      </trkpt>
      <trkpt lat="45.77381" lon="4.84154">
        <ele>216</ele>
        <time>2010-11-23T18:03:52Z</time>
      </trkpt>
      <trkpt lat="45.77383" lon="4.84154">
        <ele>215</ele>
        <time>2010-11-23T18:03:53Z</time>
      </trkpt>
      <trkpt lat="45.77386" lon="4.84156">
        <ele>215</ele>
        <time>2010-11-23T18:03:54Z</time>
      </trkpt>
      <trkpt lat="45.77389" lon="4.84158">
        <ele>215</ele>
        <time>2010-11-23T18:03:55Z</time>
      </trkpt>
      <trkpt lat="45.77392" lon="4.84159">
        <ele>215</ele>
        <time>2010-11-23T18:03:56Z</time>
      </trkpt>
      <trkpt lat="45.77395" lon="4.84161">
        <ele>215</ele>
        <time>2010-11-23T18:03:57Z</time>
      </trkpt>
      <trkpt lat="45.77397" lon="4.84162">
        <ele>214</ele>
        <time>2010-11-23T18:03:58Z</time>
      </trkpt>
      <trkpt lat="45.77398" lon="4.84163">
        <ele>214</ele>
        <time>2010-11-23T18:03:59Z</time>
      </trkpt>
      <trkpt lat="45.77401" lon="4.84166">
        <ele>214</ele>
        <time>2010-11-23T18:04:00Z</time>
      </trkpt>
      <trkpt lat="45.77402" lon="4.84168">
        <ele>214</ele>
        <time>2010-11-23T18:04:01Z</time>
      </trkpt>
      <trkpt lat="45.77404" lon="4.84171">
        <ele>214</ele>
        <time>2010-11-23T18:04:02Z</time>
      </trkpt>
      <trkpt lat="45.77406" lon="4.84174">
        <ele>215</ele>
        <time>2010-11-23T18:04:03Z</time>
      </trkpt>
      <trkpt lat="45.77409" lon="4.84176">
        <ele>215</ele>
        <time>2010-11-23T18:04:04Z</time>
      </trkpt>
      <trkpt lat="45.77411" lon="4.84178">
        <ele>215</ele>
        <time>2010-11-23T18:04:05Z</time>
      </trkpt>
      <trkpt lat="45.77413" lon="4.84179">
        <ele>216</ele>
        <time>2010-11-23T18:04:06Z</time>
      </trkpt>
      <trkpt lat="45.77416" lon="4.84182">
        <ele>215</ele>
        <time>2010-11-23T18:04:07Z</time>
      </trkpt>
      <trkpt lat="45.77419" lon="4.84183">
        <ele>216</ele>
        <time>2010-11-23T18:04:08Z</time>
      </trkpt>
      <trkpt lat="45.77421" lon="4.84186">
        <ele>217</ele>
        <time>2010-11-23T18:04:09Z</time>
      </trkpt>
      <trkpt lat="45.77423" lon="4.84187">
        <ele>216</ele>
        <time>2010-11-23T18:04:10Z</time>
      </trkpt>
      <trkpt lat="45.77425" lon="4.84189">
        <ele>216</ele>
        <time>2010-11-23T18:04:11Z</time>
      </trkpt>
      <trkpt lat="45.77427" lon="4.84191">
        <ele>216</ele>
        <time>2010-11-23T18:04:12Z</time>
      </trkpt>
      <trkpt lat="45.77429" lon="4.84193">
        <ele>217</ele>
        <time>2010-11-23T18:04:13Z</time>
      </trkpt>
      <trkpt lat="45.77431" lon="4.84195">
        <ele>217</ele>
        <time>2010-11-23T18:04:14Z</time>
      </trkpt>
      <trkpt lat="45.77434" lon="4.84196">
        <ele>217</ele>
        <time>2010-11-23T18:04:15Z</time>
      </trkpt>
      <trkpt lat="45.77435" lon="4.84199">
        <ele>218</ele>
        <time>2010-11-23T18:04:16Z</time>
      </trkpt>
      <trkpt lat="45.77438" lon="4.842">
        <ele>218</ele>
        <time>2010-11-23T18:04:17Z</time>
      </trkpt>
      <trkpt lat="45.7744" lon="4.84203">
        <ele>217</ele>
        <time>2010-11-23T18:04:18Z</time>
      </trkpt>
      <trkpt lat="45.77441" lon="4.84205">
        <ele>217</ele>
        <time>2010-11-23T18:04:19Z</time>
      </trkpt>
      <trkpt lat="45.77443" lon="4.84206">
        <ele>216</ele>
        <time>2010-11-23T18:04:20Z</time>
      </trkpt>
      <trkpt lat="45.77446" lon="4.84208">
        <ele>216</ele>
        <time>2010-11-23T18:04:21Z</time>
      </trkpt>
      <trkpt lat="45.77449" lon="4.84209">
        <ele>217</ele>
        <time>2010-11-23T18:04:22Z</time>
      </trkpt>
      <trkpt lat="45.77451" lon="4.84211">
        <ele>217</ele>
        <time>2010-11-23T18:04:23Z</time>
      </trkpt>
      <trkpt lat="45.77454" lon="4.84212">
        <ele>217</ele>
        <time>2010-11-23T18:04:24Z</time>
      </trkpt>
      <trkpt lat="45.77457" lon="4.84214">
        <ele>217</ele>
        <time>2010-11-23T18:04:25Z</time>
      </trkpt>
      <trkpt lat="45.7746" lon="4.84214">
        <ele>217</ele>
        <time>2010-11-23T18:04:26Z</time>
      </trkpt>
      <trkpt lat="45.77462" lon="4.84217">
        <ele>217</ele>
        <time>2010-11-23T18:04:27Z</time>
      </trkpt>
      <trkpt lat="45.77465" lon="4.84218">
        <ele>218</ele>
        <time>2010-11-23T18:04:28Z</time>
      </trkpt>
      <trkpt lat="45.77467" lon="4.84219">
        <ele>218</ele>
        <time>2010-11-23T18:04:29Z</time>
      </trkpt>
      <trkpt lat="45.77469" lon="4.8422">
        <ele>218</ele>
        <time>2010-11-23T18:04:30Z</time>
      </trkpt>
      <trkpt lat="45.77471" lon="4.84221">
        <ele>217</ele>
        <time>2010-11-23T18:04:31Z</time>
      </trkpt>
      <trkpt lat="45.77473" lon="4.84222">
        <ele>216</ele>
        <time>2010-11-23T18:04:32Z</time>
      </trkpt>
      <trkpt lat="45.77476" lon="4.84222">
        <ele>216</ele>
        <time>2010-11-23T18:04:33Z</time>
      </trkpt>
      <trkpt lat="45.77477" lon="4.84225">
        <ele>217</ele>
        <time>2010-11-23T18:04:34Z</time>
      </trkpt>
      <trkpt lat="45.77479" lon="4.84227">
        <ele>217</ele>
        <time>2010-11-23T18:04:35Z</time>
      </trkpt>
      <trkpt lat="45.77481" lon="4.84228">
        <ele>218</ele>
        <time>2010-11-23T18:04:36Z</time>
      </trkpt>
      <trkpt lat="45.77483" lon="4.8423">
        <ele>218</ele>
        <time>2010-11-23T18:04:37Z</time>
      </trkpt>
      <trkpt lat="45.77486" lon="4.84232">
        <ele>218</ele>
        <time>2010-11-23T18:04:38Z</time>
      </trkpt>
      <trkpt lat="45.77488" lon="4.84233">
        <ele>218</ele>
        <time>2010-11-23T18:04:39Z</time>
      </trkpt>
      <trkpt lat="45.7749" lon="4.84235">
        <ele>218</ele>
        <time>2010-11-23T18:04:40Z</time>
      </trkpt>
      <trkpt lat="45.77493" lon="4.84236">
        <ele>218</ele>
        <time>2010-11-23T18:04:41Z</time>
      </trkpt>
      <trkpt lat="45.77495" lon="4.84237">
        <ele>218</ele>
        <time>2010-11-23T18:04:42Z</time>
      </trkpt>
      <trkpt lat="45.77499" lon="4.84239">
        <ele>218</ele>
        <time>2010-11-23T18:04:43Z</time>
      </trkpt>
      <trkpt lat="45.77501" lon="4.8424">
        <ele>218</ele>
        <time>2010-11-23T18:04:44Z</time>
      </trkpt>
      <trkpt lat="45.77504" lon="4.84242">
        <ele>218</ele>
        <time>2010-11-23T18:04:45Z</time>
      </trkpt>
      <trkpt lat="45.77506" lon="4.84243">
        <ele>218</ele>
        <time>2010-11-23T18:04:46Z</time>
      </trkpt>
      <trkpt lat="45.77508" lon="4.84244">
        <ele>218</ele>
        <time>2010-11-23T18:04:47Z</time>
      </trkpt>
      <trkpt lat="45.7751" lon="4.84245">
        <ele>218</ele>
        <time>2010-11-23T18:04:48Z</time>
      </trkpt>
      <trkpt lat="45.77513" lon="4.84247">
        <ele>217</ele>
        <time>2010-11-23T18:04:49Z</time>
      </trkpt>
      <trkpt lat="45.77515" lon="4.84248">
        <ele>217</ele>
        <time>2010-11-23T18:04:50Z</time>
      </trkpt>
      <trkpt lat="45.77517" lon="4.84249">
        <ele>217</ele>
        <time>2010-11-23T18:04:51Z</time>
      </trkpt>
      <trkpt lat="45.7752" lon="4.8425">
        <ele>217</ele>
        <time>2010-11-23T18:04:52Z</time>
      </trkpt>
      <trkpt lat="45.77523" lon="4.84251">
        <ele>217</ele>
        <time>2010-11-23T18:04:53Z</time>
      </trkpt>
      <trkpt lat="45.77525" lon="4.84253">
        <ele>217</ele>
        <time>2010-11-23T18:04:54Z</time>
      </trkpt>
      <trkpt lat="45.77528" lon="4.84256">
        <ele>217</ele>
        <time>2010-11-23T18:04:55Z</time>
      </trkpt>
      <trkpt lat="45.7753" lon="4.84257">
        <ele>217</ele>
        <time>2010-11-23T18:04:56Z</time>
      </trkpt>
      <trkpt lat="45.77532" lon="4.84259">
        <ele>217</ele>
        <time>2010-11-23T18:04:57Z</time>
      </trkpt>
      <trkpt lat="45.77534" lon="4.8426">
        <ele>217</ele>
        <time>2010-11-23T18:04:58Z</time>
      </trkpt>
      <trkpt lat="45.77536" lon="4.84263">
        <ele>216</ele>
        <time>2010-11-23T18:04:59Z</time>
      </trkpt>
      <trkpt lat="45.77539" lon="4.84265">
        <ele>215</ele>
        <time>2010-11-23T18:05:00Z</time>
      </trkpt>
      <trkpt lat="45.77541" lon="4.84267">
        <ele>215</ele>
        <time>2010-11-23T18:05:01Z</time>
      </trkpt>
      <trkpt lat="45.77544" lon="4.84269">
        <ele>215</ele>
        <time>2010-11-23T18:05:02Z</time>
      </trkpt>
      <trkpt lat="45.77546" lon="4.84269">
        <ele>215</ele>
        <time>2010-11-23T18:05:03Z</time>
      </trkpt>
      <trkpt lat="45.77549" lon="4.8427">
        <ele>215</ele>
        <time>2010-11-23T18:05:04Z</time>
      </trkpt>
      <trkpt lat="45.77551" lon="4.84271">
        <ele>214</ele>
        <time>2010-11-23T18:05:05Z</time>
      </trkpt>
      <trkpt lat="45.77553" lon="4.84271">
        <ele>215</ele>
        <time>2010-11-23T18:05:06Z</time>
      </trkpt>
      <trkpt lat="45.77556" lon="4.84276">
        <ele>217</ele>
        <time>2010-11-23T18:05:07Z</time>
      </trkpt>
      <trkpt lat="45.77557" lon="4.8428">
        <ele>218</ele>
        <time>2010-11-23T18:05:08Z</time>
      </trkpt>
      <trkpt lat="45.77558" lon="4.84282">
        <ele>218</ele>
        <time>2010-11-23T18:05:09Z</time>
      </trkpt>
      <trkpt lat="45.7756" lon="4.84285">
        <ele>219</ele>
        <time>2010-11-23T18:05:10Z</time>
      </trkpt>
      <trkpt lat="45.77561" lon="4.84287">
        <ele>218</ele>
        <time>2010-11-23T18:05:11Z</time>
      </trkpt>
      <trkpt lat="45.77564" lon="4.84287">
        <ele>218</ele>
        <time>2010-11-23T18:05:12Z</time>
      </trkpt>
      <trkpt lat="45.77566" lon="4.84289">
        <ele>219</ele>
        <time>2010-11-23T18:05:13Z</time>
      </trkpt>
      <trkpt lat="45.77568" lon="4.84291">
        <ele>219</ele>
        <time>2010-11-23T18:05:14Z</time>
      </trkpt>
      <trkpt lat="45.7757" lon="4.84292">
        <ele>219</ele>
        <time>2010-11-23T18:05:15Z</time>
      </trkpt>
      <trkpt lat="45.77572" lon="4.84294">
        <ele>220</ele>
        <time>2010-11-23T18:05:16Z</time>
      </trkpt>
      <trkpt lat="45.77574" lon="4.84296">
        <ele>221</ele>
        <time>2010-11-23T18:05:17Z</time>
      </trkpt>
      <trkpt lat="45.77576" lon="4.84298">
        <ele>221</ele>
        <time>2010-11-23T18:05:18Z</time>
      </trkpt>
      <trkpt lat="45.77579" lon="4.84298">
        <ele>221</ele>
        <time>2010-11-23T18:05:19Z</time>
      </trkpt>
      <trkpt lat="45.77581" lon="4.84299">
        <ele>221</ele>
        <time>2010-11-23T18:05:20Z</time>
      </trkpt>
      <trkpt lat="45.77582" lon="4.84301">
        <ele>222</ele>
        <time>2010-11-23T18:05:21Z</time>
      </trkpt>
      <trkpt lat="45.77584" lon="4.84305">
        <ele>222</ele>
        <time>2010-11-23T18:05:22Z</time>
      </trkpt>
      <trkpt lat="45.77587" lon="4.84307">
        <ele>223</ele>
        <time>2010-11-23T18:05:23Z</time>
      </trkpt>
      <trkpt lat="45.77588" lon="4.84309">
        <ele>223</ele>
        <time>2010-11-23T18:05:24Z</time>
      </trkpt>
      <trkpt lat="45.7759" lon="4.84311">
        <ele>223</ele>
        <time>2010-11-23T18:05:25Z</time>
      </trkpt>
      <trkpt lat="45.77592" lon="4.84313">
        <ele>224</ele>
        <time>2010-11-23T18:05:26Z</time>
      </trkpt>
      <trkpt lat="45.77595" lon="4.84314">
        <ele>224</ele>
        <time>2010-11-23T18:05:27Z</time>
      </trkpt>
      <trkpt lat="45.77597" lon="4.84316">
        <ele>223</ele>
        <time>2010-11-23T18:05:28Z</time>
      </trkpt>
      <trkpt lat="45.77599" lon="4.84317">
        <ele>223</ele>
        <time>2010-11-23T18:05:29Z</time>
      </trkpt>
      <trkpt lat="45.77601" lon="4.8432">
        <ele>223</ele>
        <time>2010-11-23T18:05:30Z</time>
      </trkpt>
      <trkpt lat="45.77603" lon="4.84322">
        <ele>224</ele>
        <time>2010-11-23T18:05:31Z</time>
      </trkpt>
      <trkpt lat="45.77605" lon="4.84323">
        <ele>224</ele>
        <time>2010-11-23T18:05:32Z</time>
      </trkpt>
      <trkpt lat="45.77608" lon="4.84324">
        <ele>224</ele>
        <time>2010-11-23T18:05:33Z</time>
      </trkpt>
      <trkpt lat="45.7761" lon="4.84325">
        <ele>224</ele>
        <time>2010-11-23T18:05:34Z</time>
      </trkpt>
      <trkpt lat="45.77613" lon="4.84326">
        <ele>223</ele>
        <time>2010-11-23T18:05:35Z</time>
      </trkpt>
      <trkpt lat="45.77616" lon="4.84328">
        <ele>223</ele>
        <time>2010-11-23T18:05:36Z</time>
      </trkpt>
      <trkpt lat="45.77619" lon="4.8433">
        <ele>222</ele>
        <time>2010-11-23T18:05:37Z</time>
      </trkpt>
      <trkpt lat="45.77621" lon="4.84332">
        <ele>222</ele>
        <time>2010-11-23T18:05:38Z</time>
      </trkpt>
      <trkpt lat="45.77624" lon="4.84333">
        <ele>222</ele>
        <time>2010-11-23T18:05:39Z</time>
      </trkpt>
      <trkpt lat="45.77626" lon="4.84335">
        <ele>222</ele>
        <time>2010-11-23T18:05:40Z</time>
      </trkpt>
      <trkpt lat="45.7763" lon="4.84336">
        <ele>221</ele>
        <time>2010-11-23T18:05:41Z</time>
      </trkpt>
      <trkpt lat="45.77632" lon="4.84338">
        <ele>221</ele>
        <time>2010-11-23T18:05:42Z</time>
      </trkpt>
      <trkpt lat="45.77634" lon="4.8434">
        <ele>221</ele>
        <time>2010-11-23T18:05:43Z</time>
      </trkpt>
      <trkpt lat="45.77637" lon="4.84342">
        <ele>221</ele>
        <time>2010-11-23T18:05:44Z</time>
      </trkpt>
      <trkpt lat="45.77639" lon="4.84344">
        <ele>221</ele>
        <time>2010-11-23T18:05:45Z</time>
      </trkpt>
      <trkpt lat="45.77641" lon="4.84345">
        <ele>221</ele>
        <time>2010-11-23T18:05:46Z</time>
      </trkpt>
      <trkpt lat="45.77644" lon="4.84347">
        <ele>221</ele>
        <time>2010-11-23T18:05:47Z</time>
      </trkpt>
      <trkpt lat="45.77646" lon="4.84349">
        <ele>221</ele>
        <time>2010-11-23T18:05:48Z</time>
      </trkpt>
      <trkpt lat="45.77647" lon="4.84352">
        <ele>222</ele>
        <time>2010-11-23T18:05:49Z</time>
      </trkpt>
      <trkpt lat="45.7765" lon="4.84354">
        <ele>222</ele>
        <time>2010-11-23T18:05:50Z</time>
      </trkpt>
      <trkpt lat="45.77652" lon="4.84355">
        <ele>222</ele>
        <time>2010-11-23T18:05:51Z</time>
      </trkpt>
      <trkpt lat="45.77654" lon="4.84357">
        <ele>222</ele>
        <time>2010-11-23T18:05:52Z</time>
      </trkpt>
      <trkpt lat="45.77656" lon="4.84358">
        <ele>221</ele>
        <time>2010-11-23T18:05:53Z</time>
      </trkpt>
      <trkpt lat="45.77658" lon="4.84359">
        <ele>221</ele>
        <time>2010-11-23T18:05:54Z</time>
      </trkpt>
      <trkpt lat="45.7766" lon="4.84361">
        <ele>220</ele>
        <time>2010-11-23T18:05:55Z</time>
      </trkpt>
      <trkpt lat="45.77662" lon="4.84363">
        <ele>221</ele>
        <time>2010-11-23T18:05:56Z</time>
      </trkpt>
      <trkpt lat="45.77664" lon="4.84365">
        <ele>222</ele>
        <time>2010-11-23T18:05:57Z</time>
      </trkpt>
      <trkpt lat="45.77667" lon="4.84367">
        <ele>222</ele>
        <time>2010-11-23T18:05:58Z</time>
      </trkpt>
      <trkpt lat="45.77669" lon="4.84369">
        <ele>222</ele>
        <time>2010-11-23T18:05:59Z</time>
      </trkpt>
      <trkpt lat="45.77671" lon="4.8437">
        <ele>221</ele>
        <time>2010-11-23T18:06:00Z</time>
      </trkpt>
      <trkpt lat="45.77674" lon="4.84372">
        <ele>221</ele>
        <time>2010-11-23T18:06:01Z</time>
      </trkpt>
      <trkpt lat="45.77677" lon="4.84372">
        <ele>221</ele>
        <time>2010-11-23T18:06:02Z</time>
      </trkpt>
      <trkpt lat="45.77679" lon="4.84373">
        <ele>220</ele>
        <time>2010-11-23T18:06:03Z</time>
      </trkpt>
      <trkpt lat="45.77682" lon="4.84374">
        <ele>220</ele>
        <time>2010-11-23T18:06:04Z</time>
      </trkpt>
      <trkpt lat="45.77684" lon="4.84374">
        <ele>220</ele>
        <time>2010-11-23T18:06:05Z</time>
      </trkpt>
      <trkpt lat="45.77686" lon="4.84376">
        <ele>220</ele>
        <time>2010-11-23T18:06:06Z</time>
      </trkpt>
      <trkpt lat="45.77689" lon="4.84377">
        <ele>220</ele>
        <time>2010-11-23T18:06:07Z</time>
      </trkpt>
      <trkpt lat="45.77692" lon="4.84378">
        <ele>220</ele>
        <time>2010-11-23T18:06:08Z</time>
      </trkpt>
      <trkpt lat="45.77694" lon="4.8438">
        <ele>220</ele>
        <time>2010-11-23T18:06:09Z</time>
      </trkpt>
      <trkpt lat="45.77697" lon="4.84381">
        <ele>219</ele>
        <time>2010-11-23T18:06:10Z</time>
      </trkpt>
      <trkpt lat="45.77699" lon="4.84382">
        <ele>219</ele>
        <time>2010-11-23T18:06:11Z</time>
      </trkpt>
      <trkpt lat="45.77702" lon="4.84382">
        <ele>219</ele>
        <time>2010-11-23T18:06:12Z</time>
      </trkpt>
      <trkpt lat="45.77705" lon="4.84382">
        <ele>219</ele>
        <time>2010-11-23T18:06:13Z</time>
      </trkpt>
      <trkpt lat="45.77707" lon="4.84384">
        <ele>219</ele>
        <time>2010-11-23T18:06:14Z</time>
      </trkpt>
      <trkpt lat="45.7771" lon="4.84385">
        <ele>219</ele>
        <time>2010-11-23T18:06:15Z</time>
      </trkpt>
      <trkpt lat="45.77712" lon="4.84385">
        <ele>219</ele>
        <time>2010-11-23T18:06:16Z</time>
      </trkpt>
      <trkpt lat="45.77714" lon="4.84387">
        <ele>219</ele>
        <time>2010-11-23T18:06:17Z</time>
      </trkpt>
      <trkpt lat="45.77717" lon="4.84387">
        <ele>219</ele>
        <time>2010-11-23T18:06:18Z</time>
      </trkpt>
      <trkpt lat="45.7772" lon="4.84388">
        <ele>219</ele>
        <time>2010-11-23T18:06:19Z</time>
      </trkpt>
      <trkpt lat="45.77723" lon="4.84386">
        <ele>220</ele>
        <time>2010-11-23T18:06:20Z</time>
      </trkpt>
      <trkpt lat="45.77726" lon="4.84384">
        <ele>220</ele>
        <time>2010-11-23T18:06:21Z</time>
      </trkpt>
      <trkpt lat="45.77729" lon="4.84384">
        <ele>220</ele>
        <time>2010-11-23T18:06:22Z</time>
      </trkpt>
      <trkpt lat="45.77731" lon="4.84384">
        <ele>219</ele>
        <time>2010-11-23T18:06:23Z</time>
      </trkpt>
      <trkpt lat="45.77734" lon="4.84384">
        <ele>220</ele>
        <time>2010-11-23T18:06:24Z</time>
      </trkpt>
      <trkpt lat="45.77737" lon="4.84382">
        <ele>219</ele>
        <time>2010-11-23T18:06:25Z</time>
      </trkpt>
      <trkpt lat="45.77739" lon="4.84378">
        <ele>219</ele>
        <time>2010-11-23T18:06:26Z</time>
      </trkpt>
      <trkpt lat="45.77743" lon="4.84377">
        <ele>219</ele>
        <time>2010-11-23T18:06:27Z</time>
      </trkpt>
      <trkpt lat="45.77745" lon="4.84375">
        <ele>219</ele>
        <time>2010-11-23T18:06:28Z</time>
      </trkpt>
      <trkpt lat="45.77748" lon="4.84377">
        <ele>219</ele>
        <time>2010-11-23T18:06:29Z</time>
      </trkpt>
      <trkpt lat="45.7775" lon="4.84375">
        <ele>218</ele>
        <time>2010-11-23T18:06:30Z</time>
      </trkpt>
      <trkpt lat="45.77753" lon="4.84372">
        <ele>218</ele>
        <time>2010-11-23T18:06:31Z</time>
      </trkpt>
      <trkpt lat="45.77756" lon="4.84371">
        <ele>217</ele>
        <time>2010-11-23T18:06:32Z</time>
      </trkpt>
      <trkpt lat="45.77758" lon="4.84375">
        <ele>218</ele>
        <time>2010-11-23T18:06:33Z</time>
      </trkpt>
      <trkpt lat="45.77761" lon="4.84373">
        <ele>217</ele>
        <time>2010-11-23T18:06:34Z</time>
      </trkpt>
      <trkpt lat="45.77764" lon="4.84372">
        <ele>218</ele>
        <time>2010-11-23T18:06:35Z</time>
      </trkpt>
      <trkpt lat="45.77766" lon="4.84374">
        <ele>219</ele>
        <time>2010-11-23T18:06:36Z</time>
      </trkpt>
      <trkpt lat="45.77769" lon="4.84372">
        <ele>219</ele>
        <time>2010-11-23T18:06:37Z</time>
      </trkpt>
      <trkpt lat="45.77772" lon="4.84372">
        <ele>219</ele>
        <time>2010-11-23T18:06:38Z</time>
      </trkpt>
      <trkpt lat="45.77775" lon="4.84371">
        <ele>219</ele>
        <time>2010-11-23T18:06:39Z</time>
      </trkpt>
      <trkpt lat="45.77778" lon="4.84373">
        <ele>218</ele>
        <time>2010-11-23T18:06:40Z</time>
      </trkpt>
      <trkpt lat="45.7778" lon="4.84373">
        <ele>218</ele>
        <time>2010-11-23T18:06:41Z</time>
      </trkpt>
      <trkpt lat="45.77781" lon="4.84372">
        <ele>218</ele>
        <time>2010-11-23T18:06:42Z</time>
      </trkpt>
      <trkpt lat="45.77784" lon="4.84371">
        <ele>218</ele>
        <time>2010-11-23T18:06:43Z</time>
      </trkpt>
      <trkpt lat="45.77787" lon="4.84372">
        <ele>218</ele>
        <time>2010-11-23T18:06:44Z</time>
      </trkpt>
      <trkpt lat="45.77789" lon="4.84374">
        <ele>219</ele>
        <time>2010-11-23T18:06:45Z</time>
      </trkpt>
      <trkpt lat="45.77792" lon="4.84374">
        <ele>218</ele>
        <time>2010-11-23T18:06:46Z</time>
      </trkpt>
      <trkpt lat="45.77794" lon="4.84374">
        <ele>218</ele>
        <time>2010-11-23T18:06:47Z</time>
      </trkpt>
      <trkpt lat="45.77797" lon="4.84373">
        <ele>218</ele>
        <time>2010-11-23T18:06:48Z</time>
      </trkpt>
      <trkpt lat="45.778" lon="4.84373">
        <ele>219</ele>
        <time>2010-11-23T18:06:49Z</time>
      </trkpt>
      <trkpt lat="45.77802" lon="4.84374">
        <ele>219</ele>
        <time>2010-11-23T18:06:50Z</time>
      </trkpt>
      <trkpt lat="45.77804" lon="4.84374">
        <ele>219</ele>
        <time>2010-11-23T18:06:51Z</time>
      </trkpt>
      <trkpt lat="45.77806" lon="4.84374">
        <ele>219</ele>
        <time>2010-11-23T18:06:52Z</time>
      </trkpt>
      <trkpt lat="45.77808" lon="4.84375">
        <ele>219</ele>
        <time>2010-11-23T18:06:53Z</time>
      </trkpt>
      <trkpt lat="45.7781" lon="4.84375">
        <ele>219</ele>
        <time>2010-11-23T18:06:54Z</time>
      </trkpt>
      <trkpt lat="45.77812" lon="4.84376">
        <ele>219</ele>
        <time>2010-11-23T18:06:55Z</time>
      </trkpt>
      <trkpt lat="45.77814" lon="4.84377">
        <ele>219</ele>
        <time>2010-11-23T18:06:56Z</time>
      </trkpt>
      <trkpt lat="45.77816" lon="4.84379">
        <ele>219</ele>
        <time>2010-11-23T18:06:57Z</time>
      </trkpt>
      <trkpt lat="45.77819" lon="4.84381">
        <ele>219</ele>
        <time>2010-11-23T18:06:58Z</time>
      </trkpt>
      <trkpt lat="45.77821" lon="4.84383">
        <ele>219</ele>
        <time>2010-11-23T18:06:59Z</time>
      </trkpt>
      <trkpt lat="45.77822" lon="4.84386">
        <ele>219</ele>
        <time>2010-11-23T18:07:00Z</time>
      </trkpt>
      <trkpt lat="45.77823" lon="4.84387">
        <ele>217</ele>
        <time>2010-11-23T18:07:01Z</time>
      </trkpt>
      <trkpt lat="45.77823" lon="4.84391">
        <ele>217</ele>
        <time>2010-11-23T18:07:02Z</time>
      </trkpt>
      <trkpt lat="45.77828" lon="4.84392">
        <ele>216</ele>
        <time>2010-11-23T18:07:03Z</time>
      </trkpt>
      <trkpt lat="45.77834" lon="4.84392">
        <ele>216</ele>
        <time>2010-11-23T18:07:04Z</time>
      </trkpt>
      <trkpt lat="45.77837" lon="4.84394">
        <ele>216</ele>
        <time>2010-11-23T18:07:05Z</time>
      </trkpt>
      <trkpt lat="45.77841" lon="4.84395">
        <ele>215</ele>
        <time>2010-11-23T18:07:06Z</time>
      </trkpt>
      <trkpt lat="45.77844" lon="4.84396">
        <ele>215</ele>
        <time>2010-11-23T18:07:07Z</time>
      </trkpt>
      <trkpt lat="45.77847" lon="4.84396">
        <ele>214</ele>
        <time>2010-11-23T18:07:08Z</time>
      </trkpt>
      <trkpt lat="45.7785" lon="4.84396">
        <ele>214</ele>
        <time>2010-11-23T18:07:09Z</time>
      </trkpt>
      <trkpt lat="45.77852" lon="4.84399">
        <ele>214</ele>
        <time>2010-11-23T18:07:10Z</time>
      </trkpt>
      <trkpt lat="45.77855" lon="4.844">
        <ele>213</ele>
        <time>2010-11-23T18:07:11Z</time>
      </trkpt>
      <trkpt lat="45.77857" lon="4.84404">
        <ele>213</ele>
        <time>2010-11-23T18:07:12Z</time>
      </trkpt>
      <trkpt lat="45.77859" lon="4.84408">
        <ele>213</ele>
        <time>2010-11-23T18:07:13Z</time>
      </trkpt>
      <trkpt lat="45.7786" lon="4.84413">
        <ele>213</ele>
        <time>2010-11-23T18:07:14Z</time>
      </trkpt>
      <trkpt lat="45.77862" lon="4.84414">
        <ele>213</ele>
        <time>2010-11-23T18:07:15Z</time>
      </trkpt>
      <trkpt lat="45.77865" lon="4.84414">
        <ele>213</ele>
        <time>2010-11-23T18:07:16Z</time>
      </trkpt>
      <trkpt lat="45.77867" lon="4.84415">
        <ele>213</ele>
        <time>2010-11-23T18:07:17Z</time>
      </trkpt>
      <trkpt lat="45.77869" lon="4.84417">
        <ele>212</ele>
        <time>2010-11-23T18:07:18Z</time>
      </trkpt>
      <trkpt lat="45.77873" lon="4.84418">
        <ele>212</ele>
        <time>2010-11-23T18:07:19Z</time>
      </trkpt>
      <trkpt lat="45.77875" lon="4.84423">
        <ele>214</ele>
        <time>2010-11-23T18:07:20Z</time>
      </trkpt>
      <trkpt lat="45.77877" lon="4.84424">
        <ele>213</ele>
        <time>2010-11-23T18:07:21Z</time>
      </trkpt>
      <trkpt lat="45.77878" lon="4.84429">
        <ele>214</ele>
        <time>2010-11-23T18:07:22Z</time>
      </trkpt>
      <trkpt lat="45.77881" lon="4.8443">
        <ele>214</ele>
        <time>2010-11-23T18:07:23Z</time>
      </trkpt>
      <trkpt lat="45.77883" lon="4.84433">
        <ele>214</ele>
        <time>2010-11-23T18:07:24Z</time>
      </trkpt>
      <trkpt lat="45.77885" lon="4.84434">
        <ele>214</ele>
        <time>2010-11-23T18:07:25Z</time>
      </trkpt>
      <trkpt lat="45.77888" lon="4.84434">
        <ele>214</ele>
        <time>2010-11-23T18:07:26Z</time>
      </trkpt>
      <trkpt lat="45.7789" lon="4.84435">
        <ele>213</ele>
        <time>2010-11-23T18:07:27Z</time>
      </trkpt>
      <trkpt lat="45.77892" lon="4.84435">
        <ele>213</ele>
        <time>2010-11-23T18:07:28Z</time>
      </trkpt>
      <trkpt lat="45.77893" lon="4.84436">
        <ele>213</ele>
        <time>2010-11-23T18:07:29Z</time>
      </trkpt>
      <trkpt lat="45.77897" lon="4.84436">
        <ele>213</ele>
        <time>2010-11-23T18:07:30Z</time>
      </trkpt>
      <trkpt lat="45.77899" lon="4.84437">
        <ele>212</ele>
        <time>2010-11-23T18:07:31Z</time>
      </trkpt>
      <trkpt lat="45.77901" lon="4.84439">
        <ele>212</ele>
        <time>2010-11-23T18:07:32Z</time>
      </trkpt>
      <trkpt lat="45.77904" lon="4.8444">
        <ele>213</ele>
        <time>2010-11-23T18:07:33Z</time>
      </trkpt>
      <trkpt lat="45.77906" lon="4.84441">
        <ele>212</ele>
        <time>2010-11-23T18:07:34Z</time>
      </trkpt>
      <trkpt lat="45.77909" lon="4.84441">
        <ele>212</ele>
        <time>2010-11-23T18:07:35Z</time>
      </trkpt>
      <trkpt lat="45.77911" lon="4.84442">
        <ele>212</ele>
        <time>2010-11-23T18:07:36Z</time>
      </trkpt>
      <trkpt lat="45.77913" lon="4.84443">
        <ele>211</ele>
        <time>2010-11-23T18:07:37Z</time>
      </trkpt>
      <trkpt lat="45.77915" lon="4.84444">
        <ele>211</ele>
        <time>2010-11-23T18:07:38Z</time>
      </trkpt>
      <trkpt lat="45.77918" lon="4.84446">
        <ele>211</ele>
        <time>2010-11-23T18:07:39Z</time>
      </trkpt>
      <trkpt lat="45.77921" lon="4.84447">
        <ele>210</ele>
        <time>2010-11-23T18:07:40Z</time>
      </trkpt>
      <trkpt lat="45.77924" lon="4.84447">
        <ele>211</ele>
        <time>2010-11-23T18:07:41Z</time>
      </trkpt>
      <trkpt lat="45.77925" lon="4.84449">
        <ele>211</ele>
        <time>2010-11-23T18:07:42Z</time>
      </trkpt>
      <trkpt lat="45.77928" lon="4.84453">
        <ele>211</ele>
        <time>2010-11-23T18:07:43Z</time>
      </trkpt>
      <trkpt lat="45.77931" lon="4.84454">
        <ele>211</ele>
        <time>2010-11-23T18:07:44Z</time>
      </trkpt>
      <trkpt lat="45.77934" lon="4.84457">
        <ele>211</ele>
        <time>2010-11-23T18:07:45Z</time>
      </trkpt>
      <trkpt lat="45.77935" lon="4.84459">
        <ele>211</ele>
        <time>2010-11-23T18:07:46Z</time>
      </trkpt>
      <trkpt lat="45.77937" lon="4.84463">
        <ele>211</ele>
        <time>2010-11-23T18:07:47Z</time>
      </trkpt>
      <trkpt lat="45.77939" lon="4.84466">
        <ele>211</ele>
        <time>2010-11-23T18:07:48Z</time>
      </trkpt>
      <trkpt lat="45.7794" lon="4.84468">
        <ele>210</ele>
        <time>2010-11-23T18:07:49Z</time>
      </trkpt>
      <trkpt lat="45.77942" lon="4.8447">
        <ele>210</ele>
        <time>2010-11-23T18:07:50Z</time>
      </trkpt>
      <trkpt lat="45.77945" lon="4.8447">
        <ele>210</ele>
        <time>2010-11-23T18:07:51Z</time>
      </trkpt>
      <trkpt lat="45.77947" lon="4.84471">
        <ele>210</ele>
        <time>2010-11-23T18:07:52Z</time>
      </trkpt>
      <trkpt lat="45.7795" lon="4.84471">
        <ele>210</ele>
        <time>2010-11-23T18:07:53Z</time>
      </trkpt>
      <trkpt lat="45.77952" lon="4.84474">
        <ele>210</ele>
        <time>2010-11-23T18:07:54Z</time>
      </trkpt>
      <trkpt lat="45.77955" lon="4.84473">
        <ele>210</ele>
        <time>2010-11-23T18:07:55Z</time>
      </trkpt>
      <trkpt lat="45.77957" lon="4.84473">
        <ele>210</ele>
        <time>2010-11-23T18:07:56Z</time>
      </trkpt>
      <trkpt lat="45.7796" lon="4.84477">
        <ele>211</ele>
        <time>2010-11-23T18:07:57Z</time>
      </trkpt>
      <trkpt lat="45.77962" lon="4.84482">
        <ele>211</ele>
        <time>2010-11-23T18:07:58Z</time>
      </trkpt>
      <trkpt lat="45.77964" lon="4.84485">
        <ele>211</ele>
        <time>2010-11-23T18:07:59Z</time>
      </trkpt>
      <trkpt lat="45.77966" lon="4.84488">
        <ele>211</ele>
        <time>2010-11-23T18:08:00Z</time>
      </trkpt>
      <trkpt lat="45.77969" lon="4.8449">
        <ele>210</ele>
        <time>2010-11-23T18:08:01Z</time>
      </trkpt>
      <trkpt lat="45.77971" lon="4.84495">
        <ele>209</ele>
        <time>2010-11-23T18:08:02Z</time>
      </trkpt>
      <trkpt lat="45.77973" lon="4.84497">
        <ele>208</ele>
        <time>2010-11-23T18:08:03Z</time>
      </trkpt>
      <trkpt lat="45.77976" lon="4.84499">
        <ele>208</ele>
        <time>2010-11-23T18:08:04Z</time>
      </trkpt>
      <trkpt lat="45.77978" lon="4.84499">
        <ele>208</ele>
        <time>2010-11-23T18:08:05Z</time>
      </trkpt>
      <trkpt lat="45.7798" lon="4.84497">
        <ele>209</ele>
        <time>2010-11-23T18:08:06Z</time>
      </trkpt>
      <trkpt lat="45.77983" lon="4.84495">
        <ele>209</ele>
        <time>2010-11-23T18:08:07Z</time>
      </trkpt>
      <trkpt lat="45.77985" lon="4.84497">
        <ele>209</ele>
        <time>2010-11-23T18:08:08Z</time>
      </trkpt>
      <trkpt lat="45.77987" lon="4.84499">
        <ele>209</ele>
        <time>2010-11-23T18:08:09Z</time>
      </trkpt>
      <trkpt lat="45.77989" lon="4.84499">
        <ele>210</ele>
        <time>2010-11-23T18:08:10Z</time>
      </trkpt>
      <trkpt lat="45.77991" lon="4.84504">
        <ele>212</ele>
        <time>2010-11-23T18:08:11Z</time>
      </trkpt>
      <trkpt lat="45.77993" lon="4.84507">
        <ele>213</ele>
        <time>2010-11-23T18:08:12Z</time>
      </trkpt>
      <trkpt lat="45.77995" lon="4.84509">
        <ele>213</ele>
        <time>2010-11-23T18:08:13Z</time>
      </trkpt>
      <trkpt lat="45.77998" lon="4.8451">
        <ele>212</ele>
        <time>2010-11-23T18:08:14Z</time>
      </trkpt>
      <trkpt lat="45.78" lon="4.84511">
        <ele>212</ele>
        <time>2010-11-23T18:08:15Z</time>
      </trkpt>
      <trkpt lat="45.78002" lon="4.84515">
        <ele>213</ele>
        <time>2010-11-23T18:08:16Z</time>
      </trkpt>
      <trkpt lat="45.78004" lon="4.84516">
        <ele>213</ele>
        <time>2010-11-23T18:08:17Z</time>
      </trkpt>
      <trkpt lat="45.78007" lon="4.84519">
        <ele>213</ele>
        <time>2010-11-23T18:08:18Z</time>
      </trkpt>
      <trkpt lat="45.78009" lon="4.84521">
        <ele>213</ele>
        <time>2010-11-23T18:08:19Z</time>
      </trkpt>
      <trkpt lat="45.7801" lon="4.84523">
        <ele>214</ele>
        <time>2010-11-23T18:08:20Z</time>
      </trkpt>
      <trkpt lat="45.78013" lon="4.84526">
        <ele>213</ele>
        <time>2010-11-23T18:08:21Z</time>
      </trkpt>
      <trkpt lat="45.78015" lon="4.84527">
        <ele>213</ele>
        <time>2010-11-23T18:08:22Z</time>
      </trkpt>
      <trkpt lat="45.78018" lon="4.8453">
        <ele>213</ele>
        <time>2010-11-23T18:08:23Z</time>
      </trkpt>
      <trkpt lat="45.7802" lon="4.84532">
        <ele>213</ele>
        <time>2010-11-23T18:08:24Z</time>
      </trkpt>
      <trkpt lat="45.78022" lon="4.84535">
        <ele>213</ele>
        <time>2010-11-23T18:08:25Z</time>
      </trkpt>
      <trkpt lat="45.78024" lon="4.84537">
        <ele>214</ele>
        <time>2010-11-23T18:08:26Z</time>
      </trkpt>
      <trkpt lat="45.78026" lon="4.84538">
        <ele>214</ele>
        <time>2010-11-23T18:08:27Z</time>
      </trkpt>
      <trkpt lat="45.78028" lon="4.84538">
        <ele>214</ele>
        <time>2010-11-23T18:08:28Z</time>
      </trkpt>
      <trkpt lat="45.7803" lon="4.8454">
        <ele>213</ele>
        <time>2010-11-23T18:08:29Z</time>
      </trkpt>
      <trkpt lat="45.78032" lon="4.84541">
        <ele>213</ele>
        <time>2010-11-23T18:08:30Z</time>
      </trkpt>
      <trkpt lat="45.78035" lon="4.84543">
        <ele>212</ele>
        <time>2010-11-23T18:08:31Z</time>
      </trkpt>
      <trkpt lat="45.78037" lon="4.84544">
        <ele>212</ele>
        <time>2010-11-23T18:08:32Z</time>
      </trkpt>
      <trkpt lat="45.78039" lon="4.84546">
        <ele>212</ele>
        <time>2010-11-23T18:08:33Z</time>
      </trkpt>
      <trkpt lat="45.78042" lon="4.84549">
        <ele>213</ele>
        <time>2010-11-23T18:08:34Z</time>
      </trkpt>
      <trkpt lat="45.78043" lon="4.84551">
        <ele>212</ele>
        <time>2010-11-23T18:08:35Z</time>
      </trkpt>
      <trkpt lat="45.78045" lon="4.84552">
        <ele>212</ele>
        <time>2010-11-23T18:08:36Z</time>
      </trkpt>
      <trkpt lat="45.78047" lon="4.84553">
        <ele>212</ele>
        <time>2010-11-23T18:08:37Z</time>
      </trkpt>
      <trkpt lat="45.7805" lon="4.84556">
        <ele>212</ele>
        <time>2010-11-23T18:08:38Z</time>
      </trkpt>
      <trkpt lat="45.78052" lon="4.84559">
        <ele>211</ele>
        <time>2010-11-23T18:08:39Z</time>
      </trkpt>
      <trkpt lat="45.78054" lon="4.84563">
        <ele>212</ele>
        <time>2010-11-23T18:08:40Z</time>
      </trkpt>
      <trkpt lat="45.78056" lon="4.84565">
        <ele>212</ele>
        <time>2010-11-23T18:08:41Z</time>
      </trkpt>
      <trkpt lat="45.78058" lon="4.84567">
        <ele>212</ele>
        <time>2010-11-23T18:08:42Z</time>
      </trkpt>
      <trkpt lat="45.7806" lon="4.84569">
        <ele>212</ele>
        <time>2010-11-23T18:08:43Z</time>
      </trkpt>
      <trkpt lat="45.78062" lon="4.8457">
        <ele>212</ele>
        <time>2010-11-23T18:08:44Z</time>
      </trkpt>
      <trkpt lat="45.78064" lon="4.84571">
        <ele>212</ele>
        <time>2010-11-23T18:08:45Z</time>
      </trkpt>
      <trkpt lat="45.78066" lon="4.84574">
        <ele>212</ele>
        <time>2010-11-23T18:08:46Z</time>
      </trkpt>
      <trkpt lat="45.78067" lon="4.84576">
        <ele>213</ele>
        <time>2010-11-23T18:08:47Z</time>
      </trkpt>
      <trkpt lat="45.78069" lon="4.84579">
        <ele>213</ele>
        <time>2010-11-23T18:08:48Z</time>
      </trkpt>
      <trkpt lat="45.78072" lon="4.8458">
        <ele>213</ele>
        <time>2010-11-23T18:08:49Z</time>
      </trkpt>
      <trkpt lat="45.78074" lon="4.84582">
        <ele>212</ele>
        <time>2010-11-23T18:08:50Z</time>
      </trkpt>
      <trkpt lat="45.78076" lon="4.84584">
        <ele>212</ele>
        <time>2010-11-23T18:08:51Z</time>
      </trkpt>
      <trkpt lat="45.78079" lon="4.84586">
        <ele>212</ele>
        <time>2010-11-23T18:08:52Z</time>
      </trkpt>
      <trkpt lat="45.78081" lon="4.84587">
        <ele>212</ele>
        <time>2010-11-23T18:08:53Z</time>
      </trkpt>
      <trkpt lat="45.78083" lon="4.84589">
        <ele>212</ele>
        <time>2010-11-23T18:08:54Z</time>
      </trkpt>
      <trkpt lat="45.78086" lon="4.84591">
        <ele>212</ele>
        <time>2010-11-23T18:08:55Z</time>
      </trkpt>
      <trkpt lat="45.78088" lon="4.84591">
        <ele>212</ele>
        <time>2010-11-23T18:08:56Z</time>
      </trkpt>
      <trkpt lat="45.7809" lon="4.84594">
        <ele>212</ele>
        <time>2010-11-23T18:08:57Z</time>
      </trkpt>
      <trkpt lat="45.78091" lon="4.84596">
        <ele>212</ele>
        <time>2010-11-23T18:08:58Z</time>
      </trkpt>
      <trkpt lat="45.78094" lon="4.84598">
        <ele>212</ele>
        <time>2010-11-23T18:08:59Z</time>
      </trkpt>
      <trkpt lat="45.78096" lon="4.84602">
        <ele>211</ele>
        <time>2010-11-23T18:09:00Z</time>
      </trkpt>
      <trkpt lat="45.78098" lon="4.84602">
        <ele>211</ele>
        <time>2010-11-23T18:09:01Z</time>
      </trkpt>
      <trkpt lat="45.78101" lon="4.84604">
        <ele>211</ele>
        <time>2010-11-23T18:09:02Z</time>
      </trkpt>
      <trkpt lat="45.78102" lon="4.84605">
        <ele>211</ele>
        <time>2010-11-23T18:09:03Z</time>
      </trkpt>
      <trkpt lat="45.78104" lon="4.84607">
        <ele>211</ele>
        <time>2010-11-23T18:09:04Z</time>
      </trkpt>
      <trkpt lat="45.78105" lon="4.84611">
        <ele>212</ele>
        <time>2010-11-23T18:09:05Z</time>
      </trkpt>
      <trkpt lat="45.78108" lon="4.84612">
        <ele>212</ele>
        <time>2010-11-23T18:09:06Z</time>
      </trkpt>
      <trkpt lat="45.7811" lon="4.84614">
        <ele>213</ele>
        <time>2010-11-23T18:09:07Z</time>
      </trkpt>
      <trkpt lat="45.78112" lon="4.84616">
        <ele>213</ele>
        <time>2010-11-23T18:09:08Z</time>
      </trkpt>
      <trkpt lat="45.78115" lon="4.84618">
        <ele>213</ele>
        <time>2010-11-23T18:09:09Z</time>
      </trkpt>
      <trkpt lat="45.78116" lon="4.84619">
        <ele>212</ele>
        <time>2010-11-23T18:09:10Z</time>
      </trkpt>
      <trkpt lat="45.78119" lon="4.84622">
        <ele>212</ele>
        <time>2010-11-23T18:09:11Z</time>
      </trkpt>
      <trkpt lat="45.78121" lon="4.84623">
        <ele>212</ele>
        <time>2010-11-23T18:09:12Z</time>
      </trkpt>
      <trkpt lat="45.78123" lon="4.84625">
        <ele>212</ele>
        <time>2010-11-23T18:09:13Z</time>
      </trkpt>
      <trkpt lat="45.78125" lon="4.84628">
        <ele>212</ele>
        <time>2010-11-23T18:09:14Z</time>
      </trkpt>
      <trkpt lat="45.78127" lon="4.8463">
        <ele>212</ele>
        <time>2010-11-23T18:09:15Z</time>
      </trkpt>
      <trkpt lat="45.7813" lon="4.84632">
        <ele>212</ele>
        <time>2010-11-23T18:09:16Z</time>
      </trkpt>
      <trkpt lat="45.78132" lon="4.84635">
        <ele>213</ele>
        <time>2010-11-23T18:09:17Z</time>
      </trkpt>
      <trkpt lat="45.78134" lon="4.84637">
        <ele>212</ele>
        <time>2010-11-23T18:09:18Z</time>
      </trkpt>
      <trkpt lat="45.78137" lon="4.84639">
        <ele>212</ele>
        <time>2010-11-23T18:09:19Z</time>
      </trkpt>
      <trkpt lat="45.78138" lon="4.84641">
        <ele>213</ele>
        <time>2010-11-23T18:09:20Z</time>
      </trkpt>
      <trkpt lat="45.7814" lon="4.84644">
        <ele>213</ele>
        <time>2010-11-23T18:09:21Z</time>
      </trkpt>
      <trkpt lat="45.78143" lon="4.84646">
        <ele>213</ele>
        <time>2010-11-23T18:09:22Z</time>
      </trkpt>
      <trkpt lat="45.78145" lon="4.84649">
        <ele>212</ele>
        <time>2010-11-23T18:09:23Z</time>
      </trkpt>
      <trkpt lat="45.78146" lon="4.84652">
        <ele>212</ele>
        <time>2010-11-23T18:09:24Z</time>
      </trkpt>
      <trkpt lat="45.78148" lon="4.84654">
        <ele>212</ele>
        <time>2010-11-23T18:09:25Z</time>
      </trkpt>
      <trkpt lat="45.7815" lon="4.84657">
        <ele>213</ele>
        <time>2010-11-23T18:09:26Z</time>
      </trkpt>
      <trkpt lat="45.78152" lon="4.84659">
        <ele>213</ele>
        <time>2010-11-23T18:09:27Z</time>
      </trkpt>
      <trkpt lat="45.78155" lon="4.84659">
        <ele>212</ele>
        <time>2010-11-23T18:09:28Z</time>
      </trkpt>
      <trkpt lat="45.78157" lon="4.84662">
        <ele>212</ele>
        <time>2010-11-23T18:09:29Z</time>
      </trkpt>
      <trkpt lat="45.78161" lon="4.84664">
        <ele>212</ele>
        <time>2010-11-23T18:09:30Z</time>
      </trkpt>
      <trkpt lat="45.78163" lon="4.84667">
        <ele>211</ele>
        <time>2010-11-23T18:09:31Z</time>
      </trkpt>
      <trkpt lat="45.78165" lon="4.8467">
        <ele>212</ele>
        <time>2010-11-23T18:09:32Z</time>
      </trkpt>
      <trkpt lat="45.78168" lon="4.84671">
        <ele>212</ele>
        <time>2010-11-23T18:09:33Z</time>
      </trkpt>
      <trkpt lat="45.78171" lon="4.84672">
        <ele>212</ele>
        <time>2010-11-23T18:09:34Z</time>
      </trkpt>
      <trkpt lat="45.78174" lon="4.84672">
        <ele>212</ele>
        <time>2010-11-23T18:09:35Z</time>
      </trkpt>
      <trkpt lat="45.78176" lon="4.84674">
        <ele>212</ele>
        <time>2010-11-23T18:09:36Z</time>
      </trkpt>
      <trkpt lat="45.78179" lon="4.84676">
        <ele>212</ele>
        <time>2010-11-23T18:09:37Z</time>
      </trkpt>
      <trkpt lat="45.78181" lon="4.84677">
        <ele>212</ele>
        <time>2010-11-23T18:09:38Z</time>
      </trkpt>
      <trkpt lat="45.78184" lon="4.84676">
        <ele>212</ele>
        <time>2010-11-23T18:09:39Z</time>
      </trkpt>
      <trkpt lat="45.78186" lon="4.84675">
        <ele>213</ele>
        <time>2010-11-23T18:09:40Z</time>
      </trkpt>
      <trkpt lat="45.7819" lon="4.84678">
        <ele>212</ele>
        <time>2010-11-23T18:09:41Z</time>
      </trkpt>
      <trkpt lat="45.78193" lon="4.84679">
        <ele>213</ele>
        <time>2010-11-23T18:09:42Z</time>
      </trkpt>
      <trkpt lat="45.78196" lon="4.84679">
        <ele>213</ele>
        <time>2010-11-23T18:09:43Z</time>
      </trkpt>
      <trkpt lat="45.78198" lon="4.84679">
        <ele>213</ele>
        <time>2010-11-23T18:09:44Z</time>
      </trkpt>
      <trkpt lat="45.78201" lon="4.84677">
        <ele>213</ele>
        <time>2010-11-23T18:09:45Z</time>
      </trkpt>
      <trkpt lat="45.78204" lon="4.84676">
        <ele>213</ele>
        <time>2010-11-23T18:09:46Z</time>
      </trkpt>
      <trkpt lat="45.78206" lon="4.84679">
        <ele>212</ele>
        <time>2010-11-23T18:09:47Z</time>
      </trkpt>
      <trkpt lat="45.78207" lon="4.84688">
        <ele>214.24591064453</ele>
        <time>2010-11-23T18:09:48Z</time>
      </trkpt>
      <trkpt lat="45.78211" lon="4.84696">
        <ele>216</ele>
        <time>2010-11-23T18:09:49Z</time>
      </trkpt>
      <trkpt lat="45.78213" lon="4.84699">
        <ele>216</ele>
        <time>2010-11-23T18:09:50Z</time>
      </trkpt>
      <trkpt lat="45.78215" lon="4.847">
        <ele>216</ele>
        <time>2010-11-23T18:09:51Z</time>
      </trkpt>
      <trkpt lat="45.78218" lon="4.84699">
        <ele>216</ele>
        <time>2010-11-23T18:09:52Z</time>
      </trkpt>
      <trkpt lat="45.78221" lon="4.84702">
        <ele>215</ele>
        <time>2010-11-23T18:09:53Z</time>
      </trkpt>
      <trkpt lat="45.78223" lon="4.84701">
        <ele>215</ele>
        <time>2010-11-23T18:09:54Z</time>
      </trkpt>
      <trkpt lat="45.78226" lon="4.84704">
        <ele>215</ele>
        <time>2010-11-23T18:09:55Z</time>
      </trkpt>
      <trkpt lat="45.78228" lon="4.84706">
        <ele>215</ele>
        <time>2010-11-23T18:09:56Z</time>
      </trkpt>
      <trkpt lat="45.7823" lon="4.84707">
        <ele>215</ele>
        <time>2010-11-23T18:09:57Z</time>
      </trkpt>
      <trkpt lat="45.78233" lon="4.8471">
        <ele>215</ele>
        <time>2010-11-23T18:09:58Z</time>
      </trkpt>
      <trkpt lat="45.78236" lon="4.84712">
        <ele>215</ele>
        <time>2010-11-23T18:09:59Z</time>
      </trkpt>
      <trkpt lat="45.78238" lon="4.84714">
        <ele>215</ele>
        <time>2010-11-23T18:10:00Z</time>
      </trkpt>
      <trkpt lat="45.78241" lon="4.84714">
        <ele>213</ele>
        <time>2010-11-23T18:10:01Z</time>
      </trkpt>
      <trkpt lat="45.78243" lon="4.84716">
        <ele>212</ele>
        <time>2010-11-23T18:10:02Z</time>
      </trkpt>
      <trkpt lat="45.78246" lon="4.84718">
        <ele>211</ele>
        <time>2010-11-23T18:10:03Z</time>
      </trkpt>
      <trkpt lat="45.78249" lon="4.84719">
        <ele>212</ele>
        <time>2010-11-23T18:10:04Z</time>
      </trkpt>
      <trkpt lat="45.78252" lon="4.84721">
        <ele>213</ele>
        <time>2010-11-23T18:10:05Z</time>
      </trkpt>
      <trkpt lat="45.78255" lon="4.84722">
        <ele>213</ele>
        <time>2010-11-23T18:10:06Z</time>
      </trkpt>
      <trkpt lat="45.78258" lon="4.84723">
        <ele>213</ele>
        <time>2010-11-23T18:10:07Z</time>
      </trkpt>
      <trkpt lat="45.7826" lon="4.84725">
        <ele>213</ele>
        <time>2010-11-23T18:10:08Z</time>
      </trkpt>
      <trkpt lat="45.78261" lon="4.84727">
        <ele>213</ele>
        <time>2010-11-23T18:10:09Z</time>
      </trkpt>
      <trkpt lat="45.78264" lon="4.84729">
        <ele>214</ele>
        <time>2010-11-23T18:10:10Z</time>
      </trkpt>
      <trkpt lat="45.78266" lon="4.84731">
        <ele>214</ele>
        <time>2010-11-23T18:10:11Z</time>
      </trkpt>
      <trkpt lat="45.78268" lon="4.84733">
        <ele>214</ele>
        <time>2010-11-23T18:10:12Z</time>
      </trkpt>
      <trkpt lat="45.7827" lon="4.84735">
        <ele>214</ele>
        <time>2010-11-23T18:10:13Z</time>
      </trkpt>
      <trkpt lat="45.78272" lon="4.84737">
        <ele>212</ele>
        <time>2010-11-23T18:10:14Z</time>
      </trkpt>
      <trkpt lat="45.78273" lon="4.84743">
        <ele>211</ele>
        <time>2010-11-23T18:10:15Z</time>
      </trkpt>
      <trkpt lat="45.78276" lon="4.84745">
        <ele>211</ele>
        <time>2010-11-23T18:10:16Z</time>
      </trkpt>
      <trkpt lat="45.78278" lon="4.84749">
        <ele>211</ele>
        <time>2010-11-23T18:10:17Z</time>
      </trkpt>
      <trkpt lat="45.7828" lon="4.84751">
        <ele>211</ele>
        <time>2010-11-23T18:10:18Z</time>
      </trkpt>
      <trkpt lat="45.78283" lon="4.84754">
        <ele>211</ele>
        <time>2010-11-23T18:10:19Z</time>
      </trkpt>
      <trkpt lat="45.78285" lon="4.84757">
        <ele>211</ele>
        <time>2010-11-23T18:10:20Z</time>
      </trkpt>
      <trkpt lat="45.78287" lon="4.84758">
        <ele>211</ele>
        <time>2010-11-23T18:10:21Z</time>
      </trkpt>
      <trkpt lat="45.78289" lon="4.84761">
        <ele>211</ele>
        <time>2010-11-23T18:10:22Z</time>
      </trkpt>
      <trkpt lat="45.78292" lon="4.84763">
        <ele>211</ele>
        <time>2010-11-23T18:10:23Z</time>
      </trkpt>
      <trkpt lat="45.78294" lon="4.84765">
        <ele>211</ele>
        <time>2010-11-23T18:10:24Z</time>
      </trkpt>
      <trkpt lat="45.78296" lon="4.84768">
        <ele>211</ele>
        <time>2010-11-23T18:10:25Z</time>
      </trkpt>
      <trkpt lat="45.78299" lon="4.8477">
        <ele>210</ele>
        <time>2010-11-23T18:10:26Z</time>
      </trkpt>
      <trkpt lat="45.78301" lon="4.84773">
        <ele>209</ele>
        <time>2010-11-23T18:10:27Z</time>
      </trkpt>
      <trkpt lat="45.78303" lon="4.84774">
        <ele>209</ele>
        <time>2010-11-23T18:10:28Z</time>
      </trkpt>
      <trkpt lat="45.78306" lon="4.84777">
        <ele>209</ele>
        <time>2010-11-23T18:10:29Z</time>
      </trkpt>
      <trkpt lat="45.78308" lon="4.84779">
        <ele>209</ele>
        <time>2010-11-23T18:10:30Z</time>
      </trkpt>
      <trkpt lat="45.7831" lon="4.84782">
        <ele>210</ele>
        <time>2010-11-23T18:10:31Z</time>
      </trkpt>
      <trkpt lat="45.78312" lon="4.84785">
        <ele>210</ele>
        <time>2010-11-23T18:10:32Z</time>
      </trkpt>
      <trkpt lat="45.78314" lon="4.84788">
        <ele>210</ele>
        <time>2010-11-23T18:10:33Z</time>
      </trkpt>
      <trkpt lat="45.78317" lon="4.84791">
        <ele>211</ele>
        <time>2010-11-23T18:10:34Z</time>
      </trkpt>
      <trkpt lat="45.78318" lon="4.84794">
        <ele>210</ele>
        <time>2010-11-23T18:10:35Z</time>
      </trkpt>
      <trkpt lat="45.78321" lon="4.84796">
        <ele>210</ele>
        <time>2010-11-23T18:10:36Z</time>
      </trkpt>
      <trkpt lat="45.78323" lon="4.848">
        <ele>211</ele>
        <time>2010-11-23T18:10:37Z</time>
      </trkpt>
      <trkpt lat="45.78325" lon="4.84803">
        <ele>211</ele>
        <time>2010-11-23T18:10:38Z</time>
      </trkpt>
      <trkpt lat="45.78326" lon="4.84805">
        <ele>211</ele>
        <time>2010-11-23T18:10:39Z</time>
      </trkpt>
      <trkpt lat="45.78329" lon="4.84808">
        <ele>211</ele>
        <time>2010-11-23T18:10:40Z</time>
      </trkpt>
      <trkpt lat="45.78331" lon="4.84811">
        <ele>211</ele>
        <time>2010-11-23T18:10:41Z</time>
      </trkpt>
      <trkpt lat="45.78333" lon="4.84814">
        <ele>211</ele>
        <time>2010-11-23T18:10:42Z</time>
      </trkpt>
      <trkpt lat="45.78335" lon="4.84816">
        <ele>211</ele>
        <time>2010-11-23T18:10:43Z</time>
      </trkpt>
      <trkpt lat="45.78337" lon="4.84818">
        <ele>211</ele>
        <time>2010-11-23T18:10:44Z</time>
      </trkpt>
      <trkpt lat="45.78339" lon="4.84821">
        <ele>211</ele>
        <time>2010-11-23T18:10:45Z</time>
      </trkpt>
      <trkpt lat="45.78341" lon="4.84824">
        <ele>211</ele>
        <time>2010-11-23T18:10:46Z</time>
      </trkpt>
      <trkpt lat="45.78343" lon="4.84826">
        <ele>211</ele>
        <time>2010-11-23T18:10:47Z</time>
      </trkpt>
      <trkpt lat="45.78345" lon="4.84829">
        <ele>211</ele>
        <time>2010-11-23T18:10:48Z</time>
      </trkpt>
      <trkpt lat="45.78347" lon="4.84831">
        <ele>211</ele>
        <time>2010-11-23T18:10:49Z</time>
      </trkpt>
      <trkpt lat="45.78349" lon="4.84834">
        <ele>211</ele>
        <time>2010-11-23T18:10:50Z</time>
      </trkpt>
      <trkpt lat="45.78351" lon="4.84836">
        <ele>210</ele>
        <time>2010-11-23T18:10:51Z</time>
      </trkpt>
      <trkpt lat="45.78353" lon="4.84838">
        <ele>210</ele>
        <time>2010-11-23T18:10:52Z</time>
      </trkpt>
      <trkpt lat="45.78355" lon="4.84841">
        <ele>210</ele>
        <time>2010-11-23T18:10:53Z</time>
      </trkpt>
      <trkpt lat="45.78356" lon="4.84844">
        <ele>210</ele>
        <time>2010-11-23T18:10:54Z</time>
      </trkpt>
      <trkpt lat="45.78359" lon="4.84846">
        <ele>210</ele>
        <time>2010-11-23T18:10:55Z</time>
      </trkpt>
      <trkpt lat="45.78361" lon="4.84849">
        <ele>210</ele>
        <time>2010-11-23T18:10:56Z</time>
      </trkpt>
      <trkpt lat="45.78362" lon="4.84852">
        <ele>210</ele>
        <time>2010-11-23T18:10:57Z</time>
      </trkpt>
      <trkpt lat="45.78364" lon="4.84854">
        <ele>210</ele>
        <time>2010-11-23T18:10:58Z</time>
      </trkpt>
      <trkpt lat="45.78367" lon="4.84858">
        <ele>210</ele>
        <time>2010-11-23T18:10:59Z</time>
      </trkpt>
      <trkpt lat="45.78368" lon="4.84861">
        <ele>208</ele>
        <time>2010-11-23T18:11:00Z</time>
      </trkpt>
      <trkpt lat="45.7837" lon="4.84863">
        <ele>207</ele>
        <time>2010-11-23T18:11:01Z</time>
      </trkpt>
      <trkpt lat="45.78372" lon="4.84866">
        <ele>207</ele>
        <time>2010-11-23T18:11:02Z</time>
      </trkpt>
      <trkpt lat="45.78374" lon="4.84869">
        <ele>206</ele>
        <time>2010-11-23T18:11:04Z</time>
      </trkpt>
      <trkpt lat="45.78375" lon="4.84871">
        <ele>206</ele>
        <time>2010-11-23T18:11:04Z</time>
      </trkpt>
      <trkpt lat="45.78377" lon="4.84875">
        <ele>206</ele>
        <time>2010-11-23T18:11:05Z</time>
      </trkpt>
      <trkpt lat="45.7838" lon="4.84878">
        <ele>207</ele>
        <time>2010-11-23T18:11:06Z</time>
      </trkpt>
      <trkpt lat="45.78382" lon="4.84882">
        <ele>207</ele>
        <time>2010-11-23T18:11:07Z</time>
      </trkpt>
      <trkpt lat="45.78383" lon="4.84885">
        <ele>207</ele>
        <time>2010-11-23T18:11:08Z</time>
      </trkpt>
      <trkpt lat="45.78385" lon="4.84888">
        <ele>207</ele>
        <time>2010-11-23T18:11:09Z</time>
      </trkpt>
      <trkpt lat="45.78386" lon="4.84892">
        <ele>207</ele>
        <time>2010-11-23T18:11:10Z</time>
      </trkpt>
      <trkpt lat="45.78389" lon="4.84895">
        <ele>207</ele>
        <time>2010-11-23T18:11:11Z</time>
      </trkpt>
      <trkpt lat="45.7839" lon="4.84897">
        <ele>207</ele>
        <time>2010-11-23T18:11:12Z</time>
      </trkpt>
      <trkpt lat="45.78392" lon="4.84899">
        <ele>207</ele>
        <time>2010-11-23T18:11:13Z</time>
      </trkpt>
      <trkpt lat="45.78394" lon="4.849">
        <ele>208</ele>
        <time>2010-11-23T18:11:14Z</time>
      </trkpt>
      <trkpt lat="45.78395" lon="4.84905">
        <ele>208</ele>
        <time>2010-11-23T18:11:15Z</time>
      </trkpt>
      <trkpt lat="45.78396" lon="4.84909">
        <ele>208</ele>
        <time>2010-11-23T18:11:16Z</time>
      </trkpt>
      <trkpt lat="45.78398" lon="4.84912">
        <ele>209</ele>
        <time>2010-11-23T18:11:17Z</time>
      </trkpt>
      <trkpt lat="45.784" lon="4.84915">
        <ele>209</ele>
        <time>2010-11-23T18:11:18Z</time>
      </trkpt>
      <trkpt lat="45.78402" lon="4.84919">
        <ele>210</ele>
        <time>2010-11-23T18:11:19Z</time>
      </trkpt>
      <trkpt lat="45.78404" lon="4.84922">
        <ele>210</ele>
        <time>2010-11-23T18:11:20Z</time>
      </trkpt>
      <trkpt lat="45.78406" lon="4.84925">
        <ele>209</ele>
        <time>2010-11-23T18:11:21Z</time>
      </trkpt>
      <trkpt lat="45.78407" lon="4.84928">
        <ele>209</ele>
        <time>2010-11-23T18:11:22Z</time>
      </trkpt>
      <trkpt lat="45.78409" lon="4.84931">
        <ele>208</ele>
        <time>2010-11-23T18:11:23Z</time>
      </trkpt>
      <trkpt lat="45.78411" lon="4.84933">
        <ele>208</ele>
        <time>2010-11-23T18:11:24Z</time>
      </trkpt>
      <trkpt lat="45.78414" lon="4.84936">
        <ele>208</ele>
        <time>2010-11-23T18:11:25Z</time>
      </trkpt>
      <trkpt lat="45.78416" lon="4.84937">
        <ele>207</ele>
        <time>2010-11-23T18:11:26Z</time>
      </trkpt>
      <trkpt lat="45.78418" lon="4.8494">
        <ele>207</ele>
        <time>2010-11-23T18:11:27Z</time>
      </trkpt>
      <trkpt lat="45.78419" lon="4.84943">
        <ele>207</ele>
        <time>2010-11-23T18:11:28Z</time>
      </trkpt>
      <trkpt lat="45.78421" lon="4.84946">
        <ele>208</ele>
        <time>2010-11-23T18:11:29Z</time>
      </trkpt>
      <trkpt lat="45.78424" lon="4.84949">
        <ele>208</ele>
        <time>2010-11-23T18:11:30Z</time>
      </trkpt>
      <trkpt lat="45.78426" lon="4.84951">
        <ele>208</ele>
        <time>2010-11-23T18:11:31Z</time>
      </trkpt>
      <trkpt lat="45.78427" lon="4.84955">
        <ele>207</ele>
        <time>2010-11-23T18:11:32Z</time>
      </trkpt>
      <trkpt lat="45.78429" lon="4.84958">
        <ele>208</ele>
        <time>2010-11-23T18:11:33Z</time>
      </trkpt>
      <trkpt lat="45.7843" lon="4.84962">
        <ele>208</ele>
        <time>2010-11-23T18:11:34Z</time>
      </trkpt>
      <trkpt lat="45.78432" lon="4.84964">
        <ele>208</ele>
        <time>2010-11-23T18:11:35Z</time>
      </trkpt>
      <trkpt lat="45.78434" lon="4.84968">
        <ele>208</ele>
        <time>2010-11-23T18:11:36Z</time>
      </trkpt>
      <trkpt lat="45.78435" lon="4.84971">
        <ele>208</ele>
        <time>2010-11-23T18:11:37Z</time>
      </trkpt>
      <trkpt lat="45.78437" lon="4.84974">
        <ele>209</ele>
        <time>2010-11-23T18:11:38Z</time>
      </trkpt>
      <trkpt lat="45.78439" lon="4.84977">
        <ele>210</ele>
        <time>2010-11-23T18:11:39Z</time>
      </trkpt>
      <trkpt lat="45.7844" lon="4.8498">
        <ele>210</ele>
        <time>2010-11-23T18:11:40Z</time>
      </trkpt>
      <trkpt lat="45.78441" lon="4.84983">
        <ele>209</ele>
        <time>2010-11-23T18:11:41Z</time>
      </trkpt>
      <trkpt lat="45.78443" lon="4.84985">
        <ele>210</ele>
        <time>2010-11-23T18:11:42Z</time>
      </trkpt>
      <trkpt lat="45.78444" lon="4.84988">
        <ele>210</ele>
        <time>2010-11-23T18:11:43Z</time>
      </trkpt>
      <trkpt lat="45.78445" lon="4.84992">
        <ele>210</ele>
        <time>2010-11-23T18:11:44Z</time>
      </trkpt>
      <trkpt lat="45.78447" lon="4.84996">
        <ele>210</ele>
        <time>2010-11-23T18:11:45Z</time>
      </trkpt>
      <trkpt lat="45.78448" lon="4.85">
        <ele>211</ele>
        <time>2010-11-23T18:11:46Z</time>
      </trkpt>
      <trkpt lat="45.78449" lon="4.85003">
        <ele>211</ele>
        <time>2010-11-23T18:11:47Z</time>
      </trkpt>
      <trkpt lat="45.78451" lon="4.85007">
        <ele>211</ele>
        <time>2010-11-23T18:11:48Z</time>
      </trkpt>
      <trkpt lat="45.78452" lon="4.8501">
        <ele>210</ele>
        <time>2010-11-23T18:11:49Z</time>
      </trkpt>
      <trkpt lat="45.78455" lon="4.85012">
        <ele>210</ele>
        <time>2010-11-23T18:11:50Z</time>
      </trkpt>
      <trkpt lat="45.78456" lon="4.85016">
        <ele>210</ele>
        <time>2010-11-23T18:11:51Z</time>
      </trkpt>
      <trkpt lat="45.78458" lon="4.85018">
        <ele>210</ele>
        <time>2010-11-23T18:11:52Z</time>
      </trkpt>
      <trkpt lat="45.7846" lon="4.85021">
        <ele>210</ele>
        <time>2010-11-23T18:11:53Z</time>
      </trkpt>
      <trkpt lat="45.78462" lon="4.85023">
        <ele>210</ele>
        <time>2010-11-23T18:11:54Z</time>
      </trkpt>
      <trkpt lat="45.78464" lon="4.85026">
        <ele>210</ele>
        <time>2010-11-23T18:11:55Z</time>
      </trkpt>
      <trkpt lat="45.78465" lon="4.85029">
        <ele>210</ele>
        <time>2010-11-23T18:11:56Z</time>
      </trkpt>
      <trkpt lat="45.78467" lon="4.85032">
        <ele>210</ele>
        <time>2010-11-23T18:11:57Z</time>
      </trkpt>
      <trkpt lat="45.78469" lon="4.85034">
        <ele>210</ele>
        <time>2010-11-23T18:11:58Z</time>
      </trkpt>
      <trkpt lat="45.78471" lon="4.85037">
        <ele>210</ele>
        <time>2010-11-23T18:11:59Z</time>
      </trkpt>
      <trkpt lat="45.78472" lon="4.85041">
        <ele>210</ele>
        <time>2010-11-23T18:12:00Z</time>
      </trkpt>
      <trkpt lat="45.78474" lon="4.85045">
        <ele>209</ele>
        <time>2010-11-23T18:12:01Z</time>
      </trkpt>
      <trkpt lat="45.78476" lon="4.85047">
        <ele>210</ele>
        <time>2010-11-23T18:12:02Z</time>
      </trkpt>
      <trkpt lat="45.78477" lon="4.8505">
        <ele>210</ele>
        <time>2010-11-23T18:12:03Z</time>
      </trkpt>
      <trkpt lat="45.78479" lon="4.85053">
        <ele>211</ele>
        <time>2010-11-23T18:12:04Z</time>
      </trkpt>
      <trkpt lat="45.7848" lon="4.85055">
        <ele>210</ele>
        <time>2010-11-23T18:12:05Z</time>
      </trkpt>
      <trkpt lat="45.78482" lon="4.85058">
        <ele>210</ele>
        <time>2010-11-23T18:12:06Z</time>
      </trkpt>
      <trkpt lat="45.78484" lon="4.85061">
        <ele>209</ele>
        <time>2010-11-23T18:12:07Z</time>
      </trkpt>
      <trkpt lat="45.78486" lon="4.85064">
        <ele>209</ele>
        <time>2010-11-23T18:12:08Z</time>
      </trkpt>
      <trkpt lat="45.78487" lon="4.85067">
        <ele>209</ele>
        <time>2010-11-23T18:12:09Z</time>
      </trkpt>
      <trkpt lat="45.78488" lon="4.85071">
        <ele>209</ele>
        <time>2010-11-23T18:12:10Z</time>
      </trkpt>
      <trkpt lat="45.78489" lon="4.85074">
        <ele>209</ele>
        <time>2010-11-23T18:12:11Z</time>
      </trkpt>
      <trkpt lat="45.78491" lon="4.85078">
        <ele>210</ele>
        <time>2010-11-23T18:12:12Z</time>
      </trkpt>
      <trkpt lat="45.78492" lon="4.85081">
        <ele>210</ele>
        <time>2010-11-23T18:12:13Z</time>
      </trkpt>
      <trkpt lat="45.78493" lon="4.85084">
        <ele>210</ele>
        <time>2010-11-23T18:12:14Z</time>
      </trkpt>
      <trkpt lat="45.78494" lon="4.85088">
        <ele>210</ele>
        <time>2010-11-23T18:12:15Z</time>
      </trkpt>
      <trkpt lat="45.78496" lon="4.85091">
        <ele>209</ele>
        <time>2010-11-23T18:12:16Z</time>
      </trkpt>
      <trkpt lat="45.78498" lon="4.85094">
        <ele>210</ele>
        <time>2010-11-23T18:12:17Z</time>
      </trkpt>
      <trkpt lat="45.785" lon="4.85097">
        <ele>209</ele>
        <time>2010-11-23T18:12:18Z</time>
      </trkpt>
      <trkpt lat="45.78501" lon="4.851">
        <ele>209</ele>
        <time>2010-11-23T18:12:19Z</time>
      </trkpt>
      <trkpt lat="45.78502" lon="4.85103">
        <ele>209</ele>
        <time>2010-11-23T18:12:20Z</time>
      </trkpt>
      <trkpt lat="45.78503" lon="4.85106">
        <ele>209</ele>
        <time>2010-11-23T18:12:21Z</time>
      </trkpt>
      <trkpt lat="45.78505" lon="4.8511">
        <ele>209</ele>
        <time>2010-11-23T18:12:22Z</time>
      </trkpt>
      <trkpt lat="45.78507" lon="4.85113">
        <ele>209</ele>
        <time>2010-11-23T18:12:23Z</time>
      </trkpt>
      <trkpt lat="45.78508" lon="4.85116">
        <ele>210</ele>
        <time>2010-11-23T18:12:24Z</time>
      </trkpt>
      <trkpt lat="45.78509" lon="4.85119">
        <ele>210</ele>
        <time>2010-11-23T18:12:25Z</time>
      </trkpt>
      <trkpt lat="45.7851" lon="4.85123">
        <ele>210</ele>
        <time>2010-11-23T18:12:26Z</time>
      </trkpt>
      <trkpt lat="45.78511" lon="4.85127">
        <ele>210</ele>
        <time>2010-11-23T18:12:27Z</time>
      </trkpt>
      <trkpt lat="45.78513" lon="4.8513">
        <ele>210</ele>
        <time>2010-11-23T18:12:28Z</time>
      </trkpt>
      <trkpt lat="45.78514" lon="4.85133">
        <ele>210</ele>
        <time>2010-11-23T18:12:29Z</time>
      </trkpt>
      <trkpt lat="45.78516" lon="4.85136">
        <ele>210</ele>
        <time>2010-11-23T18:12:30Z</time>
      </trkpt>
      <trkpt lat="45.78517" lon="4.85139">
        <ele>210</ele>
        <time>2010-11-23T18:12:31Z</time>
      </trkpt>
      <trkpt lat="45.78519" lon="4.85142">
        <ele>210</ele>
        <time>2010-11-23T18:12:32Z</time>
      </trkpt>
      <trkpt lat="45.7852" lon="4.85146">
        <ele>210</ele>
        <time>2010-11-23T18:12:33Z</time>
      </trkpt>
      <trkpt lat="45.78521" lon="4.8515">
        <ele>210</ele>
        <time>2010-11-23T18:12:34Z</time>
      </trkpt>
      <trkpt lat="45.78522" lon="4.85154">
        <ele>211</ele>
        <time>2010-11-23T18:12:35Z</time>
      </trkpt>
      <trkpt lat="45.78524" lon="4.85156">
        <ele>211</ele>
        <time>2010-11-23T18:12:36Z</time>
      </trkpt>
      <trkpt lat="45.78525" lon="4.85159">
        <ele>211</ele>
        <time>2010-11-23T18:12:37Z</time>
      </trkpt>
      <trkpt lat="45.78527" lon="4.85161">
        <ele>210</ele>
        <time>2010-11-23T18:12:38Z</time>
      </trkpt>
      <trkpt lat="45.78529" lon="4.85164">
        <ele>211</ele>
        <time>2010-11-23T18:12:39Z</time>
      </trkpt>
      <trkpt lat="45.7853" lon="4.85168">
        <ele>210</ele>
        <time>2010-11-23T18:12:40Z</time>
      </trkpt>
      <trkpt lat="45.78532" lon="4.8517">
        <ele>210</ele>
        <time>2010-11-23T18:12:41Z</time>
      </trkpt>
      <trkpt lat="45.78533" lon="4.85174">
        <ele>210</ele>
        <time>2010-11-23T18:12:42Z</time>
      </trkpt>
      <trkpt lat="45.78535" lon="4.85176">
        <ele>210</ele>
        <time>2010-11-23T18:12:43Z</time>
      </trkpt>
      <trkpt lat="45.78536" lon="4.85179">
        <ele>210</ele>
        <time>2010-11-23T18:12:44Z</time>
      </trkpt>
      <trkpt lat="45.78537" lon="4.85183">
        <ele>210</ele>
        <time>2010-11-23T18:12:45Z</time>
      </trkpt>
      <trkpt lat="45.78538" lon="4.85186">
        <ele>210</ele>
        <time>2010-11-23T18:12:46Z</time>
      </trkpt>
      <trkpt lat="45.78539" lon="4.85189">
        <ele>209</ele>
        <time>2010-11-23T18:12:47Z</time>
      </trkpt>
      <trkpt lat="45.7854" lon="4.85192">
        <ele>209</ele>
        <time>2010-11-23T18:12:48Z</time>
      </trkpt>
      <trkpt lat="45.78542" lon="4.85197">
        <ele>209</ele>
        <time>2010-11-23T18:12:49Z</time>
      </trkpt>
      <trkpt lat="45.78543" lon="4.852">
        <ele>209</ele>
        <time>2010-11-23T18:12:50Z</time>
      </trkpt>
      <trkpt lat="45.78544" lon="4.85202">
        <ele>209</ele>
        <time>2010-11-23T18:12:51Z</time>
      </trkpt>
      <trkpt lat="45.78545" lon="4.85206">
        <ele>209</ele>
        <time>2010-11-23T18:12:52Z</time>
      </trkpt>
      <trkpt lat="45.78546" lon="4.85209">
        <ele>209</ele>
        <time>2010-11-23T18:12:53Z</time>
      </trkpt>
      <trkpt lat="45.78547" lon="4.85213">
        <ele>210</ele>
        <time>2010-11-23T18:12:54Z</time>
      </trkpt>
      <trkpt lat="45.78548" lon="4.85215">
        <ele>210</ele>
        <time>2010-11-23T18:12:55Z</time>
      </trkpt>
      <trkpt lat="45.78551" lon="4.85219">
        <ele>210</ele>
        <time>2010-11-23T18:12:56Z</time>
      </trkpt>
      <trkpt lat="45.78552" lon="4.85222">
        <ele>210</ele>
        <time>2010-11-23T18:12:57Z</time>
      </trkpt>
      <trkpt lat="45.78553" lon="4.85225">
        <ele>210</ele>
        <time>2010-11-23T18:12:58Z</time>
      </trkpt>
      <trkpt lat="45.78554" lon="4.85229">
        <ele>211</ele>
        <time>2010-11-23T18:12:59Z</time>
      </trkpt>
      <trkpt lat="45.78555" lon="4.85233">
        <ele>211</ele>
        <time>2010-11-23T18:13:00Z</time>
      </trkpt>
      <trkpt lat="45.78556" lon="4.85237">
        <ele>211</ele>
        <time>2010-11-23T18:13:01Z</time>
      </trkpt>
      <trkpt lat="45.78557" lon="4.8524">
        <ele>211</ele>
        <time>2010-11-23T18:13:02Z</time>
      </trkpt>
      <trkpt lat="45.78558" lon="4.85244">
        <ele>211</ele>
        <time>2010-11-23T18:13:03Z</time>
      </trkpt>
      <trkpt lat="45.78559" lon="4.85248">
        <ele>211</ele>
        <time>2010-11-23T18:13:04Z</time>
      </trkpt>
      <trkpt lat="45.7856" lon="4.85251">
        <ele>211</ele>
        <time>2010-11-23T18:13:05Z</time>
      </trkpt>
      <trkpt lat="45.78561" lon="4.85255">
        <ele>211</ele>
        <time>2010-11-23T18:13:06Z</time>
      </trkpt>
      <trkpt lat="45.78562" lon="4.85258">
        <ele>211</ele>
        <time>2010-11-23T18:13:07Z</time>
      </trkpt>
      <trkpt lat="45.78564" lon="4.85261">
        <ele>211</ele>
        <time>2010-11-23T18:13:08Z</time>
      </trkpt>
      <trkpt lat="45.78564" lon="4.85265">
        <ele>211</ele>
        <time>2010-11-23T18:13:09Z</time>
      </trkpt>
      <trkpt lat="45.78565" lon="4.85268">
        <ele>210</ele>
        <time>2010-11-23T18:13:10Z</time>
      </trkpt>
      <trkpt lat="45.78566" lon="4.85272">
        <ele>210</ele>
        <time>2010-11-23T18:13:11Z</time>
      </trkpt>
      <trkpt lat="45.78567" lon="4.85275">
        <ele>210</ele>
        <time>2010-11-23T18:13:12Z</time>
      </trkpt>
      <trkpt lat="45.78568" lon="4.85279">
        <ele>210</ele>
        <time>2010-11-23T18:13:13Z</time>
      </trkpt>
      <trkpt lat="45.78569" lon="4.85282">
        <ele>210</ele>
        <time>2010-11-23T18:13:14Z</time>
      </trkpt>
      <trkpt lat="45.7857" lon="4.85286">
        <ele>210</ele>
        <time>2010-11-23T18:13:15Z</time>
      </trkpt>
      <trkpt lat="45.78571" lon="4.85289">
        <ele>210</ele>
        <time>2010-11-23T18:13:16Z</time>
      </trkpt>
      <trkpt lat="45.78572" lon="4.85293">
        <ele>211</ele>
        <time>2010-11-23T18:13:17Z</time>
      </trkpt>
      <trkpt lat="45.78573" lon="4.85296">
        <ele>211</ele>
        <time>2010-11-23T18:13:18Z</time>
      </trkpt>
      <trkpt lat="45.78574" lon="4.85299">
        <ele>211</ele>
        <time>2010-11-23T18:13:19Z</time>
      </trkpt>
      <trkpt lat="45.78575" lon="4.85302">
        <ele>211</ele>
        <time>2010-11-23T18:13:20Z</time>
      </trkpt>
      <trkpt lat="45.78576" lon="4.85304">
        <ele>211</ele>
        <time>2010-11-23T18:13:21Z</time>
      </trkpt>
      <trkpt lat="45.78577" lon="4.85308">
        <ele>213</ele>
        <time>2010-11-23T18:13:22Z</time>
      </trkpt>
      <trkpt lat="45.78579" lon="4.85311">
        <ele>213</ele>
        <time>2010-11-23T18:13:23Z</time>
      </trkpt>
      <trkpt lat="45.7858" lon="4.85315">
        <ele>213</ele>
        <time>2010-11-23T18:13:24Z</time>
      </trkpt>
      <trkpt lat="45.78581" lon="4.85318">
        <ele>212</ele>
        <time>2010-11-23T18:13:25Z</time>
      </trkpt>
      <trkpt lat="45.78581" lon="4.85322">
        <ele>212</ele>
        <time>2010-11-23T18:13:26Z</time>
      </trkpt>
      <trkpt lat="45.78583" lon="4.85326">
        <ele>212</ele>
        <time>2010-11-23T18:13:27Z</time>
      </trkpt>
      <trkpt lat="45.78583" lon="4.8533">
        <ele>212</ele>
        <time>2010-11-23T18:13:28Z</time>
      </trkpt>
      <trkpt lat="45.78584" lon="4.85333">
        <ele>213</ele>
        <time>2010-11-23T18:13:29Z</time>
      </trkpt>
      <trkpt lat="45.78586" lon="4.85336">
        <ele>212</ele>
        <time>2010-11-23T18:13:30Z</time>
      </trkpt>
      <trkpt lat="45.78587" lon="4.85339">
        <ele>212</ele>
        <time>2010-11-23T18:13:31Z</time>
      </trkpt>
      <trkpt lat="45.78588" lon="4.85343">
        <ele>212</ele>
        <time>2010-11-23T18:13:32Z</time>
      </trkpt>
      <trkpt lat="45.78588" lon="4.85346">
        <ele>212</ele>
        <time>2010-11-23T18:13:33Z</time>
      </trkpt>
      <trkpt lat="45.78589" lon="4.85351">
        <ele>211</ele>
        <time>2010-11-23T18:13:34Z</time>
      </trkpt>
      <trkpt lat="45.7859" lon="4.85354">
        <ele>211</ele>
        <time>2010-11-23T18:13:35Z</time>
      </trkpt>
      <trkpt lat="45.7859" lon="4.85358">
        <ele>211</ele>
        <time>2010-11-23T18:13:36Z</time>
      </trkpt>
      <trkpt lat="45.78591" lon="4.85361">
        <ele>210</ele>
        <time>2010-11-23T18:13:37Z</time>
      </trkpt>
      <trkpt lat="45.78591" lon="4.85364">
        <ele>210</ele>
        <time>2010-11-23T18:13:38Z</time>
      </trkpt>
      <trkpt lat="45.78592" lon="4.85369">
        <ele>210</ele>
        <time>2010-11-23T18:13:39Z</time>
      </trkpt>
      <trkpt lat="45.78592" lon="4.85373">
        <ele>210</ele>
        <time>2010-11-23T18:13:40Z</time>
      </trkpt>
      <trkpt lat="45.78593" lon="4.85376">
        <ele>211</ele>
        <time>2010-11-23T18:13:41Z</time>
      </trkpt>
      <trkpt lat="45.78594" lon="4.8538">
        <ele>211</ele>
        <time>2010-11-23T18:13:42Z</time>
      </trkpt>
      <trkpt lat="45.78595" lon="4.85384">
        <ele>211</ele>
        <time>2010-11-23T18:13:43Z</time>
      </trkpt>
      <trkpt lat="45.78595" lon="4.85388">
        <ele>212</ele>
        <time>2010-11-23T18:13:44Z</time>
      </trkpt>
      <trkpt lat="45.78595" lon="4.85391">
        <ele>212</ele>
        <time>2010-11-23T18:13:45Z</time>
      </trkpt>
      <trkpt lat="45.78596" lon="4.85395">
        <ele>212</ele>
        <time>2010-11-23T18:13:46Z</time>
      </trkpt>
      <trkpt lat="45.78597" lon="4.85399">
        <ele>212</ele>
        <time>2010-11-23T18:13:47Z</time>
      </trkpt>
      <trkpt lat="45.78597" lon="4.85403">
        <ele>212</ele>
        <time>2010-11-23T18:13:48Z</time>
      </trkpt>
      <trkpt lat="45.78597" lon="4.85407">
        <ele>212</ele>
        <time>2010-11-23T18:13:49Z</time>
      </trkpt>
      <trkpt lat="45.78598" lon="4.85411">
        <ele>213</ele>
        <time>2010-11-23T18:13:50Z</time>
      </trkpt>
      <trkpt lat="45.78598" lon="4.85415">
        <ele>212</ele>
        <time>2010-11-23T18:13:51Z</time>
      </trkpt>
      <trkpt lat="45.78598" lon="4.85419">
        <ele>212</ele>
        <time>2010-11-23T18:13:52Z</time>
      </trkpt>
      <trkpt lat="45.78599" lon="4.85422">
        <ele>213</ele>
        <time>2010-11-23T18:13:53Z</time>
      </trkpt>
      <trkpt lat="45.786" lon="4.85425">
        <ele>213</ele>
        <time>2010-11-23T18:13:54Z</time>
      </trkpt>
      <trkpt lat="45.78601" lon="4.85429">
        <ele>213</ele>
        <time>2010-11-23T18:13:55Z</time>
      </trkpt>
      <trkpt lat="45.78602" lon="4.85433">
        <ele>212</ele>
        <time>2010-11-23T18:13:56Z</time>
      </trkpt>
      <trkpt lat="45.78603" lon="4.85436">
        <ele>212</ele>
        <time>2010-11-23T18:13:57Z</time>
      </trkpt>
      <trkpt lat="45.78604" lon="4.8544">
        <ele>212</ele>
        <time>2010-11-23T18:13:58Z</time>
      </trkpt>
      <trkpt lat="45.78604" lon="4.85443">
        <ele>211</ele>
        <time>2010-11-23T18:13:59Z</time>
      </trkpt>
      <trkpt lat="45.78605" lon="4.85447">
        <ele>211</ele>
        <time>2010-11-23T18:14:00Z</time>
      </trkpt>
      <trkpt lat="45.78606" lon="4.8545">
        <ele>211</ele>
        <time>2010-11-23T18:14:01Z</time>
      </trkpt>
      <trkpt lat="45.78606" lon="4.85454">
        <ele>211</ele>
        <time>2010-11-23T18:14:02Z</time>
      </trkpt>
      <trkpt lat="45.78607" lon="4.85458">
        <ele>211</ele>
        <time>2010-11-23T18:14:03Z</time>
      </trkpt>
      <trkpt lat="45.78608" lon="4.85461">
        <ele>211</ele>
        <time>2010-11-23T18:14:04Z</time>
      </trkpt>
      <trkpt lat="45.78609" lon="4.85465">
        <ele>211</ele>
        <time>2010-11-23T18:14:05Z</time>
      </trkpt>
      <trkpt lat="45.78609" lon="4.85468">
        <ele>211</ele>
        <time>2010-11-23T18:14:06Z</time>
      </trkpt>
      <trkpt lat="45.7861" lon="4.85472">
        <ele>211</ele>
        <time>2010-11-23T18:14:07Z</time>
      </trkpt>
      <trkpt lat="45.78611" lon="4.85476">
        <ele>211</ele>
        <time>2010-11-23T18:14:08Z</time>
      </trkpt>
      <trkpt lat="45.78611" lon="4.8548">
        <ele>211</ele>
        <time>2010-11-23T18:14:09Z</time>
      </trkpt>
      <trkpt lat="45.78612" lon="4.85484">
        <ele>212</ele>
        <time>2010-11-23T18:14:10Z</time>
      </trkpt>
      <trkpt lat="45.78612" lon="4.85488">
        <ele>213</ele>
        <time>2010-11-23T18:14:11Z</time>
      </trkpt>
      <trkpt lat="45.78612" lon="4.85492">
        <ele>214</ele>
        <time>2010-11-23T18:14:12Z</time>
      </trkpt>
      <trkpt lat="45.78612" lon="4.85496">
        <ele>215</ele>
        <time>2010-11-23T18:14:13Z</time>
      </trkpt>
      <trkpt lat="45.78613" lon="4.855">
        <ele>216</ele>
        <time>2010-11-23T18:14:14Z</time>
      </trkpt>
      <trkpt lat="45.78613" lon="4.85505">
        <ele>217</ele>
        <time>2010-11-23T18:14:15Z</time>
      </trkpt>
      <trkpt lat="45.78614" lon="4.85508">
        <ele>217</ele>
        <time>2010-11-23T18:14:16Z</time>
      </trkpt>
      <trkpt lat="45.78614" lon="4.85512">
        <ele>217</ele>
        <time>2010-11-23T18:14:17Z</time>
      </trkpt>
      <trkpt lat="45.78616" lon="4.85515">
        <ele>218</ele>
        <time>2010-11-23T18:14:18Z</time>
      </trkpt>
      <trkpt lat="45.78616" lon="4.85518">
        <ele>217</ele>
        <time>2010-11-23T18:14:19Z</time>
      </trkpt>
      <trkpt lat="45.78617" lon="4.85522">
        <ele>217</ele>
        <time>2010-11-23T18:14:20Z</time>
      </trkpt>
      <trkpt lat="45.78617" lon="4.85525">
        <ele>217</ele>
        <time>2010-11-23T18:14:21Z</time>
      </trkpt>
      <trkpt lat="45.78617" lon="4.85529">
        <ele>218</ele>
        <time>2010-11-23T18:14:22Z</time>
      </trkpt>
      <trkpt lat="45.78617" lon="4.85532">
        <ele>218</ele>
        <time>2010-11-23T18:14:23Z</time>
      </trkpt>
      <trkpt lat="45.78617" lon="4.85535">
        <ele>217</ele>
        <time>2010-11-23T18:14:24Z</time>
      </trkpt>
      <trkpt lat="45.78618" lon="4.85538">
        <ele>217</ele>
        <time>2010-11-23T18:14:25Z</time>
      </trkpt>
      <trkpt lat="45.78618" lon="4.85542">
        <ele>217</ele>
        <time>2010-11-23T18:14:26Z</time>
      </trkpt>
      <trkpt lat="45.78619" lon="4.85546">
        <ele>217</ele>
        <time>2010-11-23T18:14:27Z</time>
      </trkpt>
      <trkpt lat="45.78619" lon="4.85549">
        <ele>217</ele>
        <time>2010-11-23T18:14:28Z</time>
      </trkpt>
      <trkpt lat="45.7862" lon="4.85552">
        <ele>217</ele>
        <time>2010-11-23T18:14:29Z</time>
      </trkpt>
      <trkpt lat="45.7862" lon="4.85556">
        <ele>217</ele>
        <time>2010-11-23T18:14:30Z</time>
      </trkpt>
      <trkpt lat="45.7862" lon="4.85559">
        <ele>217</ele>
        <time>2010-11-23T18:14:31Z</time>
      </trkpt>
      <trkpt lat="45.78621" lon="4.85563">
        <ele>217</ele>
        <time>2010-11-23T18:14:32Z</time>
      </trkpt>
      <trkpt lat="45.78622" lon="4.85567">
        <ele>216</ele>
        <time>2010-11-23T18:14:33Z</time>
      </trkpt>
      <trkpt lat="45.78623" lon="4.85569">
        <ele>216</ele>
        <time>2010-11-23T18:14:34Z</time>
      </trkpt>
      <trkpt lat="45.78624" lon="4.85573">
        <ele>216</ele>
        <time>2010-11-23T18:14:35Z</time>
      </trkpt>
      <trkpt lat="45.78625" lon="4.85577">
        <ele>217</ele>
        <time>2010-11-23T18:14:36Z</time>
      </trkpt>
      <trkpt lat="45.78625" lon="4.85582">
        <ele>217</ele>
        <time>2010-11-23T18:14:37Z</time>
      </trkpt>
      <trkpt lat="45.78626" lon="4.85586">
        <ele>216</ele>
        <time>2010-11-23T18:14:38Z</time>
      </trkpt>
      <trkpt lat="45.78626" lon="4.85589">
        <ele>216</ele>
        <time>2010-11-23T18:14:39Z</time>
      </trkpt>
      <trkpt lat="45.78626" lon="4.85591">
        <ele>215</ele>
        <time>2010-11-23T18:14:40Z</time>
      </trkpt>
      <trkpt lat="45.78625" lon="4.85595">
        <ele>214</ele>
        <time>2010-11-23T18:14:41Z</time>
      </trkpt>
      <trkpt lat="45.78626" lon="4.85599">
        <ele>214</ele>
        <time>2010-11-23T18:14:42Z</time>
      </trkpt>
      <trkpt lat="45.78626" lon="4.85602">
        <ele>215</ele>
        <time>2010-11-23T18:14:43Z</time>
      </trkpt>
      <trkpt lat="45.78626" lon="4.85606">
        <ele>215</ele>
        <time>2010-11-23T18:14:44Z</time>
      </trkpt>
      <trkpt lat="45.78626" lon="4.8561">
        <ele>215</ele>
        <time>2010-11-23T18:14:45Z</time>
      </trkpt>
      <trkpt lat="45.78626" lon="4.85614">
        <ele>215</ele>
        <time>2010-11-23T18:14:46Z</time>
      </trkpt>
      <trkpt lat="45.78626" lon="4.85617">
        <ele>215</ele>
        <time>2010-11-23T18:14:47Z</time>
      </trkpt>
      <trkpt lat="45.78626" lon="4.85621">
        <ele>216</ele>
        <time>2010-11-23T18:14:48Z</time>
      </trkpt>
      <trkpt lat="45.78625" lon="4.85625">
        <ele>215</ele>
        <time>2010-11-23T18:14:49Z</time>
      </trkpt>
      <trkpt lat="45.78626" lon="4.85628">
        <ele>217</ele>
        <time>2010-11-23T18:14:50Z</time>
      </trkpt>
      <trkpt lat="45.78625" lon="4.85632">
        <ele>217</ele>
        <time>2010-11-23T18:14:51Z</time>
      </trkpt>
      <trkpt lat="45.78626" lon="4.85635">
        <ele>217</ele>
        <time>2010-11-23T18:14:52Z</time>
      </trkpt>
      <trkpt lat="45.78626" lon="4.85639">
        <ele>218</ele>
        <time>2010-11-23T18:14:53Z</time>
      </trkpt>
      <trkpt lat="45.78627" lon="4.85643">
        <ele>218</ele>
        <time>2010-11-23T18:14:54Z</time>
      </trkpt>
      <trkpt lat="45.78627" lon="4.85647">
        <ele>218</ele>
        <time>2010-11-23T18:14:55Z</time>
      </trkpt>
      <trkpt lat="45.78627" lon="4.8565">
        <ele>219</ele>
        <time>2010-11-23T18:14:56Z</time>
      </trkpt>
      <trkpt lat="45.78627" lon="4.85655">
        <ele>220</ele>
        <time>2010-11-23T18:14:57Z</time>
      </trkpt>
      <trkpt lat="45.78627" lon="4.8566">
        <ele>221</ele>
        <time>2010-11-23T18:14:58Z</time>
      </trkpt>
      <trkpt lat="45.78627" lon="4.85663">
        <ele>222</ele>
        <time>2010-11-23T18:14:59Z</time>
      </trkpt>
      <trkpt lat="45.78627" lon="4.85667">
        <ele>222</ele>
        <time>2010-11-23T18:15:00Z</time>
      </trkpt>
      <trkpt lat="45.78627" lon="4.85671">
        <ele>222</ele>
        <time>2010-11-23T18:15:01Z</time>
      </trkpt>
      <trkpt lat="45.78627" lon="4.85675">
        <ele>221</ele>
        <time>2010-11-23T18:15:02Z</time>
      </trkpt>
      <trkpt lat="45.78627" lon="4.85679">
        <ele>220</ele>
        <time>2010-11-23T18:15:03Z</time>
      </trkpt>
      <trkpt lat="45.78627" lon="4.85684">
        <ele>219</ele>
        <time>2010-11-23T18:15:04Z</time>
      </trkpt>
      <trkpt lat="45.78627" lon="4.85687">
        <ele>218</ele>
        <time>2010-11-23T18:15:05Z</time>
      </trkpt>
      <trkpt lat="45.78626" lon="4.85692">
        <ele>217</ele>
        <time>2010-11-23T18:15:06Z</time>
      </trkpt>
      <trkpt lat="45.78626" lon="4.85695">
        <ele>217</ele>
        <time>2010-11-23T18:15:07Z</time>
      </trkpt>
      <trkpt lat="45.78626" lon="4.85698">
        <ele>217</ele>
        <time>2010-11-23T18:15:08Z</time>
      </trkpt>
      <trkpt lat="45.78627" lon="4.85702">
        <ele>217</ele>
        <time>2010-11-23T18:15:09Z</time>
      </trkpt>
      <trkpt lat="45.78628" lon="4.85705">
        <ele>215</ele>
        <time>2010-11-23T18:15:10Z</time>
      </trkpt>
      <trkpt lat="45.78628" lon="4.85708">
        <ele>215</ele>
        <time>2010-11-23T18:15:11Z</time>
      </trkpt>
      <trkpt lat="45.78628" lon="4.85713">
        <ele>214</ele>
        <time>2010-11-23T18:15:12Z</time>
      </trkpt>
      <trkpt lat="45.78627" lon="4.85717">
        <ele>214</ele>
        <time>2010-11-23T18:15:13Z</time>
      </trkpt>
      <trkpt lat="45.78627" lon="4.85721">
        <ele>214</ele>
        <time>2010-11-23T18:15:14Z</time>
      </trkpt>
      <trkpt lat="45.78627" lon="4.85726">
        <ele>214</ele>
        <time>2010-11-23T18:15:15Z</time>
      </trkpt>
      <trkpt lat="45.78626" lon="4.8573">
        <ele>213</ele>
        <time>2010-11-23T18:15:16Z</time>
      </trkpt>
      <trkpt lat="45.78626" lon="4.85734">
        <ele>213</ele>
        <time>2010-11-23T18:15:17Z</time>
      </trkpt>
      <trkpt lat="45.78626" lon="4.85737">
        <ele>212</ele>
        <time>2010-11-23T18:15:18Z</time>
      </trkpt>
      <trkpt lat="45.78626" lon="4.85741">
        <ele>212</ele>
        <time>2010-11-23T18:15:19Z</time>
      </trkpt>
      <trkpt lat="45.78626" lon="4.85744">
        <ele>212</ele>
        <time>2010-11-23T18:15:20Z</time>
      </trkpt>
      <trkpt lat="45.78626" lon="4.85748">
        <ele>212</ele>
        <time>2010-11-23T18:15:21Z</time>
      </trkpt>
      <trkpt lat="45.78626" lon="4.85751">
        <ele>213</ele>
        <time>2010-11-23T18:15:22Z</time>
      </trkpt>
      <trkpt lat="45.78626" lon="4.85754">
        <ele>214</ele>
        <time>2010-11-23T18:15:23Z</time>
      </trkpt>
      <trkpt lat="45.78626" lon="4.85759">
        <ele>214</ele>
        <time>2010-11-23T18:15:24Z</time>
      </trkpt>
      <trkpt lat="45.78625" lon="4.85763">
        <ele>213</ele>
        <time>2010-11-23T18:15:25Z</time>
      </trkpt>
      <trkpt lat="45.78626" lon="4.85766">
        <ele>213</ele>
        <time>2010-11-23T18:15:26Z</time>
      </trkpt>
      <trkpt lat="45.78626" lon="4.8577">
        <ele>214</ele>
        <time>2010-11-23T18:15:27Z</time>
      </trkpt>
      <trkpt lat="45.78627" lon="4.85773">
        <ele>214</ele>
        <time>2010-11-23T18:15:28Z</time>
      </trkpt>
      <trkpt lat="45.78627" lon="4.85776">
        <ele>214</ele>
        <time>2010-11-23T18:15:29Z</time>
      </trkpt>
      <trkpt lat="45.78627" lon="4.8578">
        <ele>214</ele>
        <time>2010-11-23T18:15:30Z</time>
      </trkpt>
      <trkpt lat="45.78627" lon="4.85784">
        <ele>215</ele>
        <time>2010-11-23T18:15:31Z</time>
      </trkpt>
      <trkpt lat="45.78627" lon="4.85787">
        <ele>215</ele>
        <time>2010-11-23T18:15:32Z</time>
      </trkpt>
      <trkpt lat="45.78627" lon="4.85791">
        <ele>215</ele>
        <time>2010-11-23T18:15:33Z</time>
      </trkpt>
      <trkpt lat="45.78627" lon="4.85795">
        <ele>215</ele>
        <time>2010-11-23T18:15:34Z</time>
      </trkpt>
      <trkpt lat="45.78627" lon="4.85798">
        <ele>216</ele>
        <time>2010-11-23T18:15:35Z</time>
      </trkpt>
      <trkpt lat="45.78627" lon="4.85803">
        <ele>216</ele>
        <time>2010-11-23T18:15:36Z</time>
      </trkpt>
      <trkpt lat="45.78627" lon="4.85806">
        <ele>217</ele>
        <time>2010-11-23T18:15:37Z</time>
      </trkpt>
      <trkpt lat="45.78627" lon="4.85809">
        <ele>217</ele>
        <time>2010-11-23T18:15:38Z</time>
      </trkpt>
      <trkpt lat="45.78627" lon="4.85812">
        <ele>216</ele>
        <time>2010-11-23T18:15:39Z</time>
      </trkpt>
      <trkpt lat="45.78626" lon="4.85816">
        <ele>217</ele>
        <time>2010-11-23T18:15:40Z</time>
      </trkpt>
      <trkpt lat="45.78625" lon="4.85819">
        <ele>216</ele>
        <time>2010-11-23T18:15:41Z</time>
      </trkpt>
      <trkpt lat="45.78624" lon="4.85823">
        <ele>216</ele>
        <time>2010-11-23T18:15:42Z</time>
      </trkpt>
      <trkpt lat="45.78624" lon="4.85827">
        <ele>216</ele>
        <time>2010-11-23T18:15:43Z</time>
      </trkpt>
      <trkpt lat="45.78625" lon="4.85831">
        <ele>216</ele>
        <time>2010-11-23T18:15:44Z</time>
      </trkpt>
      <trkpt lat="45.78625" lon="4.85835">
        <ele>216</ele>
        <time>2010-11-23T18:15:45Z</time>
      </trkpt>
      <trkpt lat="45.78624" lon="4.85838">
        <ele>216</ele>
        <time>2010-11-23T18:15:46Z</time>
      </trkpt>
      <trkpt lat="45.78624" lon="4.85842">
        <ele>216</ele>
        <time>2010-11-23T18:15:47Z</time>
      </trkpt>
      <trkpt lat="45.78624" lon="4.85845">
        <ele>216</ele>
        <time>2010-11-23T18:15:48Z</time>
      </trkpt>
      <trkpt lat="45.78624" lon="4.85849">
        <ele>216</ele>
        <time>2010-11-23T18:15:49Z</time>
      </trkpt>
      <trkpt lat="45.78624" lon="4.85853">
        <ele>215</ele>
        <time>2010-11-23T18:15:50Z</time>
      </trkpt>
      <trkpt lat="45.78623" lon="4.85857">
        <ele>215</ele>
        <time>2010-11-23T18:15:51Z</time>
      </trkpt>
      <trkpt lat="45.78623" lon="4.85861">
        <ele>215</ele>
        <time>2010-11-23T18:15:52Z</time>
      </trkpt>
      <trkpt lat="45.78623" lon="4.85864">
        <ele>214</ele>
        <time>2010-11-23T18:15:53Z</time>
      </trkpt>
      <trkpt lat="45.78623" lon="4.85868">
        <ele>214</ele>
        <time>2010-11-23T18:15:54Z</time>
      </trkpt>
      <trkpt lat="45.78623" lon="4.85872">
        <ele>215</ele>
        <time>2010-11-23T18:15:55Z</time>
      </trkpt>
      <trkpt lat="45.78622" lon="4.85876">
        <ele>215</ele>
        <time>2010-11-23T18:15:56Z</time>
      </trkpt>
      <trkpt lat="45.78622" lon="4.85879">
        <ele>215</ele>
        <time>2010-11-23T18:15:57Z</time>
      </trkpt>
      <trkpt lat="45.78621" lon="4.85883">
        <ele>215</ele>
        <time>2010-11-23T18:15:58Z</time>
      </trkpt>
      <trkpt lat="45.78621" lon="4.85887">
        <ele>215</ele>
        <time>2010-11-23T18:15:59Z</time>
      </trkpt>
      <trkpt lat="45.78621" lon="4.8589">
        <ele>215</ele>
        <time>2010-11-23T18:16:00Z</time>
      </trkpt>
      <trkpt lat="45.7862" lon="4.85894">
        <ele>215</ele>
        <time>2010-11-23T18:16:01Z</time>
      </trkpt>
      <trkpt lat="45.7862" lon="4.85898">
        <ele>215</ele>
        <time>2010-11-23T18:16:02Z</time>
      </trkpt>
      <trkpt lat="45.7862" lon="4.85902">
        <ele>215</ele>
        <time>2010-11-23T18:16:03Z</time>
      </trkpt>
      <trkpt lat="45.78619" lon="4.85905">
        <ele>215</ele>
        <time>2010-11-23T18:16:04Z</time>
      </trkpt>
      <trkpt lat="45.78619" lon="4.85909">
        <ele>215</ele>
        <time>2010-11-23T18:16:05Z</time>
      </trkpt>
      <trkpt lat="45.78619" lon="4.85913">
        <ele>215</ele>
        <time>2010-11-23T18:16:06Z</time>
      </trkpt>
      <trkpt lat="45.78619" lon="4.85916">
        <ele>215</ele>
        <time>2010-11-23T18:16:07Z</time>
      </trkpt>
      <trkpt lat="45.78619" lon="4.8592">
        <ele>214</ele>
        <time>2010-11-23T18:16:08Z</time>
      </trkpt>
      <trkpt lat="45.78618" lon="4.85923">
        <ele>214</ele>
        <time>2010-11-23T18:16:09Z</time>
      </trkpt>
      <trkpt lat="45.78618" lon="4.85927">
        <ele>214</ele>
        <time>2010-11-23T18:16:10Z</time>
      </trkpt>
      <trkpt lat="45.78618" lon="4.8593">
        <ele>214</ele>
        <time>2010-11-23T18:16:11Z</time>
      </trkpt>
      <trkpt lat="45.78617" lon="4.85934">
        <ele>214</ele>
        <time>2010-11-23T18:16:12Z</time>
      </trkpt>
      <trkpt lat="45.78617" lon="4.85938">
        <ele>215</ele>
        <time>2010-11-23T18:16:13Z</time>
      </trkpt>
      <trkpt lat="45.78616" lon="4.85942">
        <ele>215</ele>
        <time>2010-11-23T18:16:14Z</time>
      </trkpt>
      <trkpt lat="45.78616" lon="4.85945">
        <ele>215</ele>
        <time>2010-11-23T18:16:15Z</time>
      </trkpt>
      <trkpt lat="45.78616" lon="4.85948">
        <ele>215</ele>
        <time>2010-11-23T18:16:16Z</time>
      </trkpt>
      <trkpt lat="45.78616" lon="4.85951">
        <ele>215</ele>
        <time>2010-11-23T18:16:17Z</time>
      </trkpt>
      <trkpt lat="45.78615" lon="4.85954">
        <ele>216</ele>
        <time>2010-11-23T18:16:18Z</time>
      </trkpt>
      <trkpt lat="45.78616" lon="4.85957">
        <ele>216</ele>
        <time>2010-11-23T18:16:19Z</time>
      </trkpt>
      <trkpt lat="45.78616" lon="4.8596">
        <ele>216</ele>
        <time>2010-11-23T18:16:20Z</time>
      </trkpt>
      <trkpt lat="45.78617" lon="4.85963">
        <ele>216</ele>
        <time>2010-11-23T18:16:21Z</time>
      </trkpt>
      <trkpt lat="45.78617" lon="4.85967">
        <ele>216</ele>
        <time>2010-11-23T18:16:22Z</time>
      </trkpt>
      <trkpt lat="45.78618" lon="4.85971">
        <ele>216</ele>
        <time>2010-11-23T18:16:23Z</time>
      </trkpt>
      <trkpt lat="45.78617" lon="4.85974">
        <ele>216</ele>
        <time>2010-11-23T18:16:24Z</time>
      </trkpt>
      <trkpt lat="45.78617" lon="4.85978">
        <ele>216</ele>
        <time>2010-11-23T18:16:25Z</time>
      </trkpt>
      <trkpt lat="45.78617" lon="4.85982">
        <ele>216</ele>
        <time>2010-11-23T18:16:26Z</time>
      </trkpt>
      <trkpt lat="45.78616" lon="4.85986">
        <ele>217</ele>
        <time>2010-11-23T18:16:27Z</time>
      </trkpt>
      <trkpt lat="45.78615" lon="4.85989">
        <ele>217</ele>
        <time>2010-11-23T18:16:28Z</time>
      </trkpt>
      <trkpt lat="45.78614" lon="4.85992">
        <ele>217</ele>
        <time>2010-11-23T18:16:29Z</time>
      </trkpt>
      <trkpt lat="45.78615" lon="4.85995">
        <ele>217</ele>
        <time>2010-11-23T18:16:30Z</time>
      </trkpt>
      <trkpt lat="45.78616" lon="4.85999">
        <ele>217</ele>
        <time>2010-11-23T18:16:31Z</time>
      </trkpt>
      <trkpt lat="45.78617" lon="4.86002">
        <ele>217</ele>
        <time>2010-11-23T18:16:32Z</time>
      </trkpt>
      <trkpt lat="45.78617" lon="4.86004">
        <ele>218</ele>
        <time>2010-11-23T18:16:33Z</time>
      </trkpt>
      <trkpt lat="45.78618" lon="4.86007">
        <ele>218</ele>
        <time>2010-11-23T18:16:34Z</time>
      </trkpt>
      <trkpt lat="45.78618" lon="4.8601">
        <ele>218</ele>
        <time>2010-11-23T18:16:35Z</time>
      </trkpt>
      <trkpt lat="45.78619" lon="4.86014">
        <ele>218</ele>
        <time>2010-11-23T18:16:36Z</time>
      </trkpt>
      <trkpt lat="45.7862" lon="4.86017">
        <ele>218</ele>
        <time>2010-11-23T18:16:37Z</time>
      </trkpt>
      <trkpt lat="45.7862" lon="4.86021">
        <ele>218</ele>
        <time>2010-11-23T18:16:38Z</time>
      </trkpt>
      <trkpt lat="45.78622" lon="4.86025">
        <ele>218</ele>
        <time>2010-11-23T18:16:39Z</time>
      </trkpt>
      <trkpt lat="45.78623" lon="4.86029">
        <ele>218</ele>
        <time>2010-11-23T18:16:40Z</time>
      </trkpt>
      <trkpt lat="45.78621" lon="4.86033">
        <ele>218</ele>
        <time>2010-11-23T18:16:41Z</time>
      </trkpt>
      <trkpt lat="45.78615" lon="4.86038">
        <ele>217.16793823242</ele>
        <time>2010-11-23T18:16:42Z</time>
      </trkpt>
      <trkpt lat="45.78614" lon="4.86045">
        <ele>217</ele>
        <time>2010-11-23T18:16:43Z</time>
      </trkpt>
      <trkpt lat="45.78614" lon="4.86051">
        <ele>217</ele>
        <time>2010-11-23T18:16:44Z</time>
      </trkpt>
      <trkpt lat="45.78615" lon="4.86055">
        <ele>217</ele>
        <time>2010-11-23T18:16:45Z</time>
      </trkpt>
      <trkpt lat="45.78615" lon="4.86059">
        <ele>217</ele>
        <time>2010-11-23T18:16:46Z</time>
      </trkpt>
      <trkpt lat="45.78614" lon="4.86065">
        <ele>218</ele>
        <time>2010-11-23T18:16:47Z</time>
      </trkpt>
      <trkpt lat="45.78614" lon="4.86068">
        <ele>218</ele>
        <time>2010-11-23T18:16:48Z</time>
      </trkpt>
      <trkpt lat="45.78613" lon="4.86071">
        <ele>218</ele>
        <time>2010-11-23T18:16:49Z</time>
      </trkpt>
      <trkpt lat="45.78612" lon="4.86075">
        <ele>218</ele>
        <time>2010-11-23T18:16:50Z</time>
      </trkpt>
      <trkpt lat="45.78612" lon="4.86079">
        <ele>218</ele>
        <time>2010-11-23T18:16:51Z</time>
      </trkpt>
      <trkpt lat="45.78612" lon="4.86082">
        <ele>218</ele>
        <time>2010-11-23T18:16:52Z</time>
      </trkpt>
      <trkpt lat="45.78612" lon="4.86085">
        <ele>218</ele>
        <time>2010-11-23T18:16:53Z</time>
      </trkpt>
      <trkpt lat="45.78613" lon="4.86088">
        <ele>219</ele>
        <time>2010-11-23T18:16:54Z</time>
      </trkpt>
      <trkpt lat="45.78613" lon="4.86091">
        <ele>219</ele>
        <time>2010-11-23T18:16:55Z</time>
      </trkpt>
      <trkpt lat="45.78613" lon="4.86095">
        <ele>219</ele>
        <time>2010-11-23T18:16:56Z</time>
      </trkpt>
      <trkpt lat="45.78613" lon="4.86098">
        <ele>219</ele>
        <time>2010-11-23T18:16:57Z</time>
      </trkpt>
      <trkpt lat="45.78612" lon="4.86103">
        <ele>219</ele>
        <time>2010-11-23T18:16:58Z</time>
      </trkpt>
      <trkpt lat="45.78612" lon="4.86106">
        <ele>218</ele>
        <time>2010-11-23T18:16:59Z</time>
      </trkpt>
      <trkpt lat="45.78612" lon="4.8611">
        <ele>218</ele>
        <time>2010-11-23T18:17:00Z</time>
      </trkpt>
      <trkpt lat="45.78611" lon="4.86114">
        <ele>218</ele>
        <time>2010-11-23T18:17:01Z</time>
      </trkpt>
      <trkpt lat="45.78611" lon="4.86117">
        <ele>218</ele>
        <time>2010-11-23T18:17:02Z</time>
      </trkpt>
      <trkpt lat="45.7861" lon="4.86121">
        <ele>218</ele>
        <time>2010-11-23T18:17:03Z</time>
      </trkpt>
      <trkpt lat="45.7861" lon="4.86125">
        <ele>218</ele>
        <time>2010-11-23T18:17:04Z</time>
      </trkpt>
      <trkpt lat="45.78609" lon="4.86128">
        <ele>218</ele>
        <time>2010-11-23T18:17:05Z</time>
      </trkpt>
      <trkpt lat="45.78609" lon="4.86132">
        <ele>218</ele>
        <time>2010-11-23T18:17:06Z</time>
      </trkpt>
      <trkpt lat="45.78609" lon="4.86136">
        <ele>217</ele>
        <time>2010-11-23T18:17:07Z</time>
      </trkpt>
      <trkpt lat="45.78608" lon="4.86139">
        <ele>217</ele>
        <time>2010-11-23T18:17:08Z</time>
      </trkpt>
      <trkpt lat="45.78608" lon="4.86143">
        <ele>217</ele>
        <time>2010-11-23T18:17:09Z</time>
      </trkpt>
      <trkpt lat="45.78609" lon="4.86147">
        <ele>216</ele>
        <time>2010-11-23T18:17:10Z</time>
      </trkpt>
      <trkpt lat="45.78607" lon="4.8615">
        <ele>217</ele>
        <time>2010-11-23T18:17:11Z</time>
      </trkpt>
      <trkpt lat="45.78607" lon="4.86153">
        <ele>217</ele>
        <time>2010-11-23T18:17:12Z</time>
      </trkpt>
      <trkpt lat="45.78607" lon="4.86156">
        <ele>216</ele>
        <time>2010-11-23T18:17:13Z</time>
      </trkpt>
      <trkpt lat="45.78606" lon="4.86161">
        <ele>216</ele>
        <time>2010-11-23T18:17:14Z</time>
      </trkpt>
      <trkpt lat="45.78606" lon="4.86165">
        <ele>214</ele>
        <time>2010-11-23T18:17:15Z</time>
      </trkpt>
      <trkpt lat="45.78605" lon="4.86169">
        <ele>214</ele>
        <time>2010-11-23T18:17:16Z</time>
      </trkpt>
      <trkpt lat="45.78605" lon="4.86172">
        <ele>215</ele>
        <time>2010-11-23T18:17:17Z</time>
      </trkpt>
      <trkpt lat="45.78604" lon="4.86176">
        <ele>215</ele>
        <time>2010-11-23T18:17:18Z</time>
      </trkpt>
      <trkpt lat="45.78604" lon="4.8618">
        <ele>214</ele>
        <time>2010-11-23T18:17:19Z</time>
      </trkpt>
      <trkpt lat="45.78603" lon="4.86184">
        <ele>214</ele>
        <time>2010-11-23T18:17:20Z</time>
      </trkpt>
      <trkpt lat="45.78602" lon="4.86187">
        <ele>215</ele>
        <time>2010-11-23T18:17:21Z</time>
      </trkpt>
      <trkpt lat="45.78602" lon="4.86192">
        <ele>215</ele>
        <time>2010-11-23T18:17:22Z</time>
      </trkpt>
      <trkpt lat="45.78601" lon="4.86195">
        <ele>214</ele>
        <time>2010-11-23T18:17:23Z</time>
      </trkpt>
      <trkpt lat="45.78601" lon="4.86199">
        <ele>214</ele>
        <time>2010-11-23T18:17:24Z</time>
      </trkpt>
      <trkpt lat="45.78601" lon="4.86203">
        <ele>214</ele>
        <time>2010-11-23T18:17:25Z</time>
      </trkpt>
      <trkpt lat="45.78601" lon="4.86206">
        <ele>214</ele>
        <time>2010-11-23T18:17:26Z</time>
      </trkpt>
      <trkpt lat="45.78601" lon="4.8621">
        <ele>214</ele>
        <time>2010-11-23T18:17:27Z</time>
      </trkpt>
      <trkpt lat="45.786" lon="4.86214">
        <ele>214</ele>
        <time>2010-11-23T18:17:28Z</time>
      </trkpt>
      <trkpt lat="45.78599" lon="4.86218">
        <ele>213</ele>
        <time>2010-11-23T18:17:29Z</time>
      </trkpt>
      <trkpt lat="45.78599" lon="4.86222">
        <ele>213</ele>
        <time>2010-11-23T18:17:30Z</time>
      </trkpt>
      <trkpt lat="45.78598" lon="4.86225">
        <ele>213</ele>
        <time>2010-11-23T18:17:31Z</time>
      </trkpt>
      <trkpt lat="45.78598" lon="4.86229">
        <ele>213</ele>
        <time>2010-11-23T18:17:32Z</time>
      </trkpt>
      <trkpt lat="45.78597" lon="4.86233">
        <ele>213</ele>
        <time>2010-11-23T18:17:33Z</time>
      </trkpt>
      <trkpt lat="45.78597" lon="4.86236">
        <ele>213</ele>
        <time>2010-11-23T18:17:34Z</time>
      </trkpt>
      <trkpt lat="45.78596" lon="4.8624">
        <ele>213</ele>
        <time>2010-11-23T18:17:35Z</time>
      </trkpt>
      <trkpt lat="45.78596" lon="4.86244">
        <ele>213</ele>
        <time>2010-11-23T18:17:36Z</time>
      </trkpt>
      <trkpt lat="45.78595" lon="4.86247">
        <ele>213</ele>
        <time>2010-11-23T18:17:37Z</time>
      </trkpt>
      <trkpt lat="45.78594" lon="4.8625">
        <ele>213</ele>
        <time>2010-11-23T18:17:38Z</time>
      </trkpt>
      <trkpt lat="45.78593" lon="4.86253">
        <ele>213</ele>
        <time>2010-11-23T18:17:39Z</time>
      </trkpt>
      <trkpt lat="45.78592" lon="4.86257">
        <ele>213</ele>
        <time>2010-11-23T18:17:40Z</time>
      </trkpt>
      <trkpt lat="45.78591" lon="4.86261">
        <ele>213</ele>
        <time>2010-11-23T18:17:41Z</time>
      </trkpt>
      <trkpt lat="45.78591" lon="4.86265">
        <ele>214</ele>
        <time>2010-11-23T18:17:42Z</time>
      </trkpt>
      <trkpt lat="45.7859" lon="4.86268">
        <ele>214</ele>
        <time>2010-11-23T18:17:43Z</time>
      </trkpt>
      <trkpt lat="45.78589" lon="4.86272">
        <ele>214</ele>
        <time>2010-11-23T18:17:44Z</time>
      </trkpt>
      <trkpt lat="45.78588" lon="4.86275">
        <ele>214</ele>
        <time>2010-11-23T18:17:45Z</time>
      </trkpt>
      <trkpt lat="45.78588" lon="4.86279">
        <ele>214</ele>
        <time>2010-11-23T18:17:46Z</time>
      </trkpt>
      <trkpt lat="45.78587" lon="4.86283">
        <ele>214</ele>
        <time>2010-11-23T18:17:47Z</time>
      </trkpt>
      <trkpt lat="45.78586" lon="4.86287">
        <ele>215</ele>
        <time>2010-11-23T18:17:48Z</time>
      </trkpt>
      <trkpt lat="45.78586" lon="4.8629">
        <ele>215</ele>
        <time>2010-11-23T18:17:49Z</time>
      </trkpt>
      <trkpt lat="45.78585" lon="4.86294">
        <ele>215</ele>
        <time>2010-11-23T18:17:50Z</time>
      </trkpt>
      <trkpt lat="45.78584" lon="4.86298">
        <ele>215</ele>
        <time>2010-11-23T18:17:51Z</time>
      </trkpt>
      <trkpt lat="45.78584" lon="4.86302">
        <ele>216</ele>
        <time>2010-11-23T18:17:52Z</time>
      </trkpt>
      <trkpt lat="45.78583" lon="4.86305">
        <ele>216</ele>
        <time>2010-11-23T18:17:53Z</time>
      </trkpt>
      <trkpt lat="45.78582" lon="4.86309">
        <ele>216</ele>
        <time>2010-11-23T18:17:54Z</time>
      </trkpt>
      <trkpt lat="45.78581" lon="4.86312">
        <ele>216</ele>
        <time>2010-11-23T18:17:55Z</time>
      </trkpt>
      <trkpt lat="45.7858" lon="4.86315">
        <ele>216</ele>
        <time>2010-11-23T18:17:56Z</time>
      </trkpt>
      <trkpt lat="45.78579" lon="4.86318">
        <ele>216</ele>
        <time>2010-11-23T18:17:57Z</time>
      </trkpt>
      <trkpt lat="45.78577" lon="4.86322">
        <ele>216</ele>
        <time>2010-11-23T18:17:58Z</time>
      </trkpt>
      <trkpt lat="45.78576" lon="4.86325">
        <ele>216</ele>
        <time>2010-11-23T18:17:59Z</time>
      </trkpt>
      <trkpt lat="45.78575" lon="4.86329">
        <ele>217</ele>
        <time>2010-11-23T18:18:00Z</time>
      </trkpt>
      <trkpt lat="45.78575" lon="4.86333">
        <ele>217</ele>
        <time>2010-11-23T18:18:01Z</time>
      </trkpt>
      <trkpt lat="45.78574" lon="4.86337">
        <ele>217</ele>
        <time>2010-11-23T18:18:02Z</time>
      </trkpt>
      <trkpt lat="45.78573" lon="4.86341">
        <ele>217</ele>
        <time>2010-11-23T18:18:03Z</time>
      </trkpt>
      <trkpt lat="45.78573" lon="4.86345">
        <ele>218</ele>
        <time>2010-11-23T18:18:04Z</time>
      </trkpt>
      <trkpt lat="45.78574" lon="4.86348">
        <ele>218</ele>
        <time>2010-11-23T18:18:05Z</time>
      </trkpt>
      <trkpt lat="45.78574" lon="4.86352">
        <ele>219</ele>
        <time>2010-11-23T18:18:06Z</time>
      </trkpt>
      <trkpt lat="45.78575" lon="4.86355">
        <ele>219</ele>
        <time>2010-11-23T18:18:07Z</time>
      </trkpt>
      <trkpt lat="45.78575" lon="4.86359">
        <ele>220</ele>
        <time>2010-11-23T18:18:08Z</time>
      </trkpt>
      <trkpt lat="45.78575" lon="4.86363">
        <ele>221</ele>
        <time>2010-11-23T18:18:09Z</time>
      </trkpt>
      <trkpt lat="45.78575" lon="4.86367">
        <ele>221</ele>
        <time>2010-11-23T18:18:10Z</time>
      </trkpt>
      <trkpt lat="45.78576" lon="4.8637">
        <ele>221</ele>
        <time>2010-11-23T18:18:11Z</time>
      </trkpt>
      <trkpt lat="45.78576" lon="4.86373">
        <ele>221</ele>
        <time>2010-11-23T18:18:12Z</time>
      </trkpt>
      <trkpt lat="45.78575" lon="4.86376">
        <ele>221</ele>
        <time>2010-11-23T18:18:13Z</time>
      </trkpt>
      <trkpt lat="45.78574" lon="4.86381">
        <ele>221</ele>
        <time>2010-11-23T18:18:14Z</time>
      </trkpt>
      <trkpt lat="45.78574" lon="4.86386">
        <ele>221</ele>
        <time>2010-11-23T18:18:15Z</time>
      </trkpt>
      <trkpt lat="45.78573" lon="4.8639">
        <ele>220</ele>
        <time>2010-11-23T18:18:16Z</time>
      </trkpt>
      <trkpt lat="45.78573" lon="4.86395">
        <ele>220</ele>
        <time>2010-11-23T18:18:17Z</time>
      </trkpt>
      <trkpt lat="45.78572" lon="4.86399">
        <ele>219</ele>
        <time>2010-11-23T18:18:18Z</time>
      </trkpt>
      <trkpt lat="45.7857" lon="4.86403">
        <ele>220</ele>
        <time>2010-11-23T18:18:19Z</time>
      </trkpt>
      <trkpt lat="45.78567" lon="4.86405">
        <ele>220</ele>
        <time>2010-11-23T18:18:20Z</time>
      </trkpt>
      <trkpt lat="45.78565" lon="4.86409">
        <ele>219</ele>
        <time>2010-11-23T18:18:21Z</time>
      </trkpt>
      <trkpt lat="45.78564" lon="4.86412">
        <ele>219</ele>
        <time>2010-11-23T18:18:22Z</time>
      </trkpt>
      <trkpt lat="45.78561" lon="4.86415">
        <ele>219</ele>
        <time>2010-11-23T18:18:23Z</time>
      </trkpt>
      <trkpt lat="45.78559" lon="4.86419">
        <ele>219</ele>
        <time>2010-11-23T18:18:24Z</time>
      </trkpt>
      <trkpt lat="45.78557" lon="4.86421">
        <ele>219</ele>
        <time>2010-11-23T18:18:25Z</time>
      </trkpt>
      <trkpt lat="45.78555" lon="4.86423">
        <ele>219</ele>
        <time>2010-11-23T18:18:26Z</time>
      </trkpt>
      <trkpt lat="45.78553" lon="4.86426">
        <ele>220</ele>
        <time>2010-11-23T18:18:27Z</time>
      </trkpt>
      <trkpt lat="45.78552" lon="4.86428">
        <ele>220</ele>
        <time>2010-11-23T18:18:28Z</time>
      </trkpt>
      <trkpt lat="45.7855" lon="4.86431">
        <ele>221</ele>
        <time>2010-11-23T18:18:29Z</time>
      </trkpt>
      <trkpt lat="45.78547" lon="4.86433">
        <ele>221</ele>
        <time>2010-11-23T18:18:30Z</time>
      </trkpt>
      <trkpt lat="45.78545" lon="4.86435">
        <ele>221</ele>
        <time>2010-11-23T18:18:31Z</time>
      </trkpt>
      <trkpt lat="45.78542" lon="4.86438">
        <ele>222</ele>
        <time>2010-11-23T18:18:32Z</time>
      </trkpt>
      <trkpt lat="45.7854" lon="4.86441">
        <ele>222</ele>
        <time>2010-11-23T18:18:33Z</time>
      </trkpt>
      <trkpt lat="45.78538" lon="4.86444">
        <ele>221</ele>
        <time>2010-11-23T18:18:34Z</time>
      </trkpt>
      <trkpt lat="45.78536" lon="4.86447">
        <ele>222</ele>
        <time>2010-11-23T18:18:35Z</time>
      </trkpt>
      <trkpt lat="45.78535" lon="4.8645">
        <ele>222</ele>
        <time>2010-11-23T18:18:36Z</time>
      </trkpt>
      <trkpt lat="45.78533" lon="4.86452">
        <ele>222</ele>
        <time>2010-11-23T18:18:37Z</time>
      </trkpt>
      <trkpt lat="45.78532" lon="4.86456">
        <ele>222</ele>
        <time>2010-11-23T18:18:38Z</time>
      </trkpt>
      <trkpt lat="45.7853" lon="4.86459">
        <ele>222</ele>
        <time>2010-11-23T18:18:39Z</time>
      </trkpt>
      <trkpt lat="45.78529" lon="4.86463">
        <ele>222</ele>
        <time>2010-11-23T18:18:40Z</time>
      </trkpt>
      <trkpt lat="45.78528" lon="4.86466">
        <ele>222</ele>
        <time>2010-11-23T18:18:41Z</time>
      </trkpt>
      <trkpt lat="45.78526" lon="4.8647">
        <ele>222</ele>
        <time>2010-11-23T18:18:42Z</time>
      </trkpt>
      <trkpt lat="45.78525" lon="4.86474">
        <ele>222</ele>
        <time>2010-11-23T18:18:43Z</time>
      </trkpt>
      <trkpt lat="45.78525" lon="4.86478">
        <ele>221</ele>
        <time>2010-11-23T18:18:44Z</time>
      </trkpt>
      <trkpt lat="45.78524" lon="4.86481">
        <ele>222</ele>
        <time>2010-11-23T18:18:45Z</time>
      </trkpt>
      <trkpt lat="45.78524" lon="4.86485">
        <ele>221</ele>
        <time>2010-11-23T18:18:46Z</time>
      </trkpt>
      <trkpt lat="45.78523" lon="4.86489">
        <ele>221</ele>
        <time>2010-11-23T18:18:47Z</time>
      </trkpt>
      <trkpt lat="45.78523" lon="4.86492">
        <ele>221</ele>
        <time>2010-11-23T18:18:48Z</time>
      </trkpt>
      <trkpt lat="45.78522" lon="4.86496">
        <ele>222</ele>
        <time>2010-11-23T18:18:49Z</time>
      </trkpt>
      <trkpt lat="45.78522" lon="4.865">
        <ele>223</ele>
        <time>2010-11-23T18:18:50Z</time>
      </trkpt>
      <trkpt lat="45.78521" lon="4.86504">
        <ele>223</ele>
        <time>2010-11-23T18:18:51Z</time>
      </trkpt>
      <trkpt lat="45.78522" lon="4.86508">
        <ele>223</ele>
        <time>2010-11-23T18:18:52Z</time>
      </trkpt>
      <trkpt lat="45.78522" lon="4.86512">
        <ele>223</ele>
        <time>2010-11-23T18:18:53Z</time>
      </trkpt>
      <trkpt lat="45.78523" lon="4.86516">
        <ele>223</ele>
        <time>2010-11-23T18:18:54Z</time>
      </trkpt>
      <trkpt lat="45.78524" lon="4.8652">
        <ele>222</ele>
        <time>2010-11-23T18:18:55Z</time>
      </trkpt>
      <trkpt lat="45.78525" lon="4.86524">
        <ele>222</ele>
        <time>2010-11-23T18:18:56Z</time>
      </trkpt>
      <trkpt lat="45.78526" lon="4.86529">
        <ele>222</ele>
        <time>2010-11-23T18:18:57Z</time>
      </trkpt>
      <trkpt lat="45.78528" lon="4.86532">
        <ele>221</ele>
        <time>2010-11-23T18:18:58Z</time>
      </trkpt>
      <trkpt lat="45.78529" lon="4.86536">
        <ele>221</ele>
        <time>2010-11-23T18:18:59Z</time>
      </trkpt>
      <trkpt lat="45.7853" lon="4.8654">
        <ele>222</ele>
        <time>2010-11-23T18:19:00Z</time>
      </trkpt>
      <trkpt lat="45.7853" lon="4.86544">
        <ele>221</ele>
        <time>2010-11-23T18:19:01Z</time>
      </trkpt>
      <trkpt lat="45.78531" lon="4.86547">
        <ele>221</ele>
        <time>2010-11-23T18:19:02Z</time>
      </trkpt>
      <trkpt lat="45.78532" lon="4.86551">
        <ele>221</ele>
        <time>2010-11-23T18:19:03Z</time>
      </trkpt>
      <trkpt lat="45.78532" lon="4.86553">
        <ele>221</ele>
        <time>2010-11-23T18:19:04Z</time>
      </trkpt>
      <trkpt lat="45.78533" lon="4.86555">
        <ele>220</ele>
        <time>2010-11-23T18:19:05Z</time>
      </trkpt>
      <trkpt lat="45.78534" lon="4.86559">
        <ele>219</ele>
        <time>2010-11-23T18:19:06Z</time>
      </trkpt>
      <trkpt lat="45.78535" lon="4.86562">
        <ele>219</ele>
        <time>2010-11-23T18:19:07Z</time>
      </trkpt>
      <trkpt lat="45.78535" lon="4.86565">
        <ele>219</ele>
        <time>2010-11-23T18:19:08Z</time>
      </trkpt>
      <trkpt lat="45.78536" lon="4.86569">
        <ele>219</ele>
        <time>2010-11-23T18:19:09Z</time>
      </trkpt>
      <trkpt lat="45.78536" lon="4.86573">
        <ele>219</ele>
        <time>2010-11-23T18:19:10Z</time>
      </trkpt>
      <trkpt lat="45.78537" lon="4.86577">
        <ele>218</ele>
        <time>2010-11-23T18:19:11Z</time>
      </trkpt>
      <trkpt lat="45.78538" lon="4.86581">
        <ele>218</ele>
        <time>2010-11-23T18:19:12Z</time>
      </trkpt>
      <trkpt lat="45.78539" lon="4.86584">
        <ele>218</ele>
        <time>2010-11-23T18:19:13Z</time>
      </trkpt>
      <trkpt lat="45.78539" lon="4.86588">
        <ele>217</ele>
        <time>2010-11-23T18:19:14Z</time>
      </trkpt>
      <trkpt lat="45.78539" lon="4.86592">
        <ele>217</ele>
        <time>2010-11-23T18:19:15Z</time>
      </trkpt>
      <trkpt lat="45.78539" lon="4.86596">
        <ele>217</ele>
        <time>2010-11-23T18:19:16Z</time>
      </trkpt>
      <trkpt lat="45.7854" lon="4.86599">
        <ele>217</ele>
        <time>2010-11-23T18:19:17Z</time>
      </trkpt>
      <trkpt lat="45.78539" lon="4.86603">
        <ele>218</ele>
        <time>2010-11-23T18:19:18Z</time>
      </trkpt>
      <trkpt lat="45.78539" lon="4.86606">
        <ele>218</ele>
        <time>2010-11-23T18:19:19Z</time>
      </trkpt>
      <trkpt lat="45.78539" lon="4.86609">
        <ele>218</ele>
        <time>2010-11-23T18:19:20Z</time>
      </trkpt>
      <trkpt lat="45.78539" lon="4.86611">
        <ele>218</ele>
        <time>2010-11-23T18:19:21Z</time>
      </trkpt>
      <trkpt lat="45.78539" lon="4.86612">
        <ele>218</ele>
        <time>2010-11-23T18:19:22Z</time>
      </trkpt>
      <trkpt lat="45.78539" lon="4.86614">
        <ele>218</ele>
        <time>2010-11-23T18:19:23Z</time>
      </trkpt>
      <trkpt lat="45.7854" lon="4.86615">
        <ele>218</ele>
        <time>2010-11-23T18:19:24Z</time>
      </trkpt>
      <trkpt lat="45.7854" lon="4.86617">
        <ele>218</ele>
        <time>2010-11-23T18:19:25Z</time>
      </trkpt>
      <trkpt lat="45.7854" lon="4.86618">
        <ele>218</ele>
        <time>2010-11-23T18:19:26Z</time>
      </trkpt>
      <trkpt lat="45.7854" lon="4.8662">
        <ele>218</ele>
        <time>2010-11-23T18:19:27Z</time>
      </trkpt>
      <trkpt lat="45.7854" lon="4.86621">
        <ele>218</ele>
        <time>2010-11-23T18:19:28Z</time>
      </trkpt>
      <trkpt lat="45.7854" lon="4.86622">
        <ele>219</ele>
        <time>2010-11-23T18:19:29Z</time>
      </trkpt>
      <trkpt lat="45.7854" lon="4.86624">
        <ele>218</ele>
        <time>2010-11-23T18:19:30Z</time>
      </trkpt>
      <trkpt lat="45.7854" lon="4.86625">
        <ele>218</ele>
        <time>2010-11-23T18:19:31Z</time>
      </trkpt>
      <trkpt lat="45.78542" lon="4.86627">
        <ele>218</ele>
        <time>2010-11-23T18:19:32Z</time>
      </trkpt>
      <trkpt lat="45.78542" lon="4.86628">
        <ele>218</ele>
        <time>2010-11-23T18:19:33Z</time>
      </trkpt>
      <trkpt lat="45.78542" lon="4.8663">
        <ele>217</ele>
        <time>2010-11-23T18:19:34Z</time>
      </trkpt>
      <trkpt lat="45.78542" lon="4.86632">
        <ele>218</ele>
        <time>2010-11-23T18:19:35Z</time>
      </trkpt>
      <trkpt lat="45.78543" lon="4.86633">
        <ele>218</ele>
        <time>2010-11-23T18:19:36Z</time>
      </trkpt>
      <trkpt lat="45.78543" lon="4.86635">
        <ele>219</ele>
        <time>2010-11-23T18:19:37Z</time>
      </trkpt>
      <trkpt lat="45.78544" lon="4.86637">
        <ele>218</ele>
        <time>2010-11-23T18:19:38Z</time>
      </trkpt>
      <trkpt lat="45.78544" lon="4.86639">
        <ele>218</ele>
        <time>2010-11-23T18:19:39Z</time>
      </trkpt>
      <trkpt lat="45.78544" lon="4.86641">
        <ele>218</ele>
        <time>2010-11-23T18:19:40Z</time>
      </trkpt>
      <trkpt lat="45.78544" lon="4.86643">
        <ele>219</ele>
        <time>2010-11-23T18:19:41Z</time>
      </trkpt>
      <trkpt lat="45.78544" lon="4.86646">
        <ele>220</ele>
        <time>2010-11-23T18:19:42Z</time>
      </trkpt>
      <trkpt lat="45.78544" lon="4.86648">
        <ele>220</ele>
        <time>2010-11-23T18:19:43Z</time>
      </trkpt>
      <trkpt lat="45.78544" lon="4.86649">
        <ele>220</ele>
        <time>2010-11-23T18:19:44Z</time>
      </trkpt>
      <trkpt lat="45.78545" lon="4.86651">
        <ele>219</ele>
        <time>2010-11-23T18:19:45Z</time>
      </trkpt>
      <trkpt lat="45.78545" lon="4.86654">
        <ele>221</ele>
        <time>2010-11-23T18:19:46Z</time>
      </trkpt>
      <trkpt lat="45.78545" lon="4.86656">
        <ele>221</ele>
        <time>2010-11-23T18:19:47Z</time>
      </trkpt>
      <trkpt lat="45.78545" lon="4.86658">
        <ele>221</ele>
        <time>2010-11-23T18:19:48Z</time>
      </trkpt>
      <trkpt lat="45.78545" lon="4.86659">
        <ele>222</ele>
        <time>2010-11-23T18:19:49Z</time>
      </trkpt>
      <trkpt lat="45.78546" lon="4.86662">
        <ele>222</ele>
        <time>2010-11-23T18:19:50Z</time>
      </trkpt>
      <trkpt lat="45.78546" lon="4.86663">
        <ele>222</ele>
        <time>2010-11-23T18:19:51Z</time>
      </trkpt>
      <trkpt lat="45.78546" lon="4.86665">
        <ele>222</ele>
        <time>2010-11-23T18:19:52Z</time>
      </trkpt>
      <trkpt lat="45.78547" lon="4.86666">
        <ele>221</ele>
        <time>2010-11-23T18:19:53Z</time>
      </trkpt>
      <trkpt lat="45.78547" lon="4.86667">
        <ele>221</ele>
        <time>2010-11-23T18:19:54Z</time>
      </trkpt>
      <trkpt lat="45.78548" lon="4.86668">
        <ele>220</ele>
        <time>2010-11-23T18:19:55Z</time>
      </trkpt>
      <trkpt lat="45.78548" lon="4.86668">
        <ele>220</ele>
        <time>2010-11-23T18:19:56Z</time>
      </trkpt>
      <trkpt lat="45.78548" lon="4.86669">
        <ele>219</ele>
        <time>2010-11-23T18:19:57Z</time>
      </trkpt>
      <trkpt lat="45.78549" lon="4.86671">
        <ele>219</ele>
        <time>2010-11-23T18:19:58Z</time>
      </trkpt>
      <trkpt lat="45.7855" lon="4.86671">
        <ele>218</ele>
        <time>2010-11-23T18:19:59Z</time>
      </trkpt>
      <trkpt lat="45.7855" lon="4.86672">
        <ele>217</ele>
        <time>2010-11-23T18:20:00Z</time>
      </trkpt>
      <trkpt lat="45.7855" lon="4.86674">
        <ele>217</ele>
        <time>2010-11-23T18:20:01Z</time>
      </trkpt>
      <trkpt lat="45.78551" lon="4.86677">
        <ele>217</ele>
        <time>2010-11-23T18:20:02Z</time>
      </trkpt>
      <trkpt lat="45.78551" lon="4.8668">
        <ele>216</ele>
        <time>2010-11-23T18:20:03Z</time>
      </trkpt>
      <trkpt lat="45.78552" lon="4.86683">
        <ele>215</ele>
        <time>2010-11-23T18:20:04Z</time>
      </trkpt>
      <trkpt lat="45.78553" lon="4.86687">
        <ele>215</ele>
        <time>2010-11-23T18:20:05Z</time>
      </trkpt>
      <trkpt lat="45.78554" lon="4.8669">
        <ele>215</ele>
        <time>2010-11-23T18:20:06Z</time>
      </trkpt>
      <trkpt lat="45.78555" lon="4.86693">
        <ele>214</ele>
        <time>2010-11-23T18:20:07Z</time>
      </trkpt>
      <trkpt lat="45.78555" lon="4.86696">
        <ele>214</ele>
        <time>2010-11-23T18:20:08Z</time>
      </trkpt>
      <trkpt lat="45.78556" lon="4.86699">
        <ele>214</ele>
        <time>2010-11-23T18:20:09Z</time>
      </trkpt>
      <trkpt lat="45.78555" lon="4.86703">
        <ele>214</ele>
        <time>2010-11-23T18:20:10Z</time>
      </trkpt>
      <trkpt lat="45.78555" lon="4.86707">
        <ele>214</ele>
        <time>2010-11-23T18:20:11Z</time>
      </trkpt>
      <trkpt lat="45.78556" lon="4.8671">
        <ele>214</ele>
        <time>2010-11-23T18:20:12Z</time>
      </trkpt>
      <trkpt lat="45.78557" lon="4.86714">
        <ele>215</ele>
        <time>2010-11-23T18:20:13Z</time>
      </trkpt>
      <trkpt lat="45.78557" lon="4.86718">
        <ele>215</ele>
        <time>2010-11-23T18:20:14Z</time>
      </trkpt>
      <trkpt lat="45.78558" lon="4.86722">
        <ele>214</ele>
        <time>2010-11-23T18:20:15Z</time>
      </trkpt>
      <trkpt lat="45.78558" lon="4.86726">
        <ele>215</ele>
        <time>2010-11-23T18:20:16Z</time>
      </trkpt>
      <trkpt lat="45.78559" lon="4.8673">
        <ele>215</ele>
        <time>2010-11-23T18:20:17Z</time>
      </trkpt>
      <trkpt lat="45.7856" lon="4.86733">
        <ele>215</ele>
        <time>2010-11-23T18:20:18Z</time>
      </trkpt>
      <trkpt lat="45.7856" lon="4.86737">
        <ele>215</ele>
        <time>2010-11-23T18:20:19Z</time>
      </trkpt>
      <trkpt lat="45.7856" lon="4.8674">
        <ele>215</ele>
        <time>2010-11-23T18:20:20Z</time>
      </trkpt>
      <trkpt lat="45.7856" lon="4.86744">
        <ele>215</ele>
        <time>2010-11-23T18:20:21Z</time>
      </trkpt>
      <trkpt lat="45.78561" lon="4.86748">
        <ele>216</ele>
        <time>2010-11-23T18:20:22Z</time>
      </trkpt>
      <trkpt lat="45.78562" lon="4.86752">
        <ele>216</ele>
        <time>2010-11-23T18:20:23Z</time>
      </trkpt>
      <trkpt lat="45.78563" lon="4.86756">
        <ele>216</ele>
        <time>2010-11-23T18:20:24Z</time>
      </trkpt>
      <trkpt lat="45.78564" lon="4.86759">
        <ele>216</ele>
        <time>2010-11-23T18:20:25Z</time>
      </trkpt>
      <trkpt lat="45.78565" lon="4.86762">
        <ele>216</ele>
        <time>2010-11-23T18:20:26Z</time>
      </trkpt>
      <trkpt lat="45.78566" lon="4.86767">
        <ele>216</ele>
        <time>2010-11-23T18:20:27Z</time>
      </trkpt>
      <trkpt lat="45.78566" lon="4.86773">
        <ele>216</ele>
        <time>2010-11-23T18:20:28Z</time>
      </trkpt>
      <trkpt lat="45.78567" lon="4.86776">
        <ele>216</ele>
        <time>2010-11-23T18:20:29Z</time>
      </trkpt>
      <trkpt lat="45.78568" lon="4.86781">
        <ele>217</ele>
        <time>2010-11-23T18:20:30Z</time>
      </trkpt>
      <trkpt lat="45.78568" lon="4.86784">
        <ele>217</ele>
        <time>2010-11-23T18:20:31Z</time>
      </trkpt>
      <trkpt lat="45.78569" lon="4.86788">
        <ele>216</ele>
        <time>2010-11-23T18:20:32Z</time>
      </trkpt>
      <trkpt lat="45.78568" lon="4.86792">
        <ele>216</ele>
        <time>2010-11-23T18:20:33Z</time>
      </trkpt>
      <trkpt lat="45.78569" lon="4.86796">
        <ele>215</ele>
        <time>2010-11-23T18:20:34Z</time>
      </trkpt>
      <trkpt lat="45.7857" lon="4.86801">
        <ele>216</ele>
        <time>2010-11-23T18:20:35Z</time>
      </trkpt>
      <trkpt lat="45.78571" lon="4.86805">
        <ele>216</ele>
        <time>2010-11-23T18:20:36Z</time>
      </trkpt>
      <trkpt lat="45.78571" lon="4.8681">
        <ele>216</ele>
        <time>2010-11-23T18:20:37Z</time>
      </trkpt>
      <trkpt lat="45.78572" lon="4.86813">
        <ele>217</ele>
        <time>2010-11-23T18:20:38Z</time>
      </trkpt>
      <trkpt lat="45.78572" lon="4.86818">
        <ele>217</ele>
        <time>2010-11-23T18:20:39Z</time>
      </trkpt>
      <trkpt lat="45.78573" lon="4.86823">
        <ele>217</ele>
        <time>2010-11-23T18:20:40Z</time>
      </trkpt>
      <trkpt lat="45.78573" lon="4.86827">
        <ele>217</ele>
        <time>2010-11-23T18:20:41Z</time>
      </trkpt>
      <trkpt lat="45.78574" lon="4.86831">
        <ele>217</ele>
        <time>2010-11-23T18:20:42Z</time>
      </trkpt>
      <trkpt lat="45.78575" lon="4.86835">
        <ele>217</ele>
        <time>2010-11-23T18:20:43Z</time>
      </trkpt>
      <trkpt lat="45.78576" lon="4.86838">
        <ele>218</ele>
        <time>2010-11-23T18:20:44Z</time>
      </trkpt>
      <trkpt lat="45.78575" lon="4.86842">
        <ele>217</ele>
        <time>2010-11-23T18:20:45Z</time>
      </trkpt>
      <trkpt lat="45.78577" lon="4.86846">
        <ele>217</ele>
        <time>2010-11-23T18:20:46Z</time>
      </trkpt>
      <trkpt lat="45.78577" lon="4.86849">
        <ele>218</ele>
        <time>2010-11-23T18:20:47Z</time>
      </trkpt>
      <trkpt lat="45.78577" lon="4.86855">
        <ele>219</ele>
        <time>2010-11-23T18:20:48Z</time>
      </trkpt>
      <trkpt lat="45.78578" lon="4.86858">
        <ele>219</ele>
        <time>2010-11-23T18:20:49Z</time>
      </trkpt>
      <trkpt lat="45.7858" lon="4.86862">
        <ele>218</ele>
        <time>2010-11-23T18:20:50Z</time>
      </trkpt>
      <trkpt lat="45.78581" lon="4.86865">
        <ele>218</ele>
        <time>2010-11-23T18:20:51Z</time>
      </trkpt>
      <trkpt lat="45.78582" lon="4.86868">
        <ele>218</ele>
        <time>2010-11-23T18:20:52Z</time>
      </trkpt>
      <trkpt lat="45.78583" lon="4.86871">
        <ele>218</ele>
        <time>2010-11-23T18:20:53Z</time>
      </trkpt>
      <trkpt lat="45.78584" lon="4.86875">
        <ele>218</ele>
        <time>2010-11-23T18:20:54Z</time>
      </trkpt>
      <trkpt lat="45.78585" lon="4.86878">
        <ele>219</ele>
        <time>2010-11-23T18:20:55Z</time>
      </trkpt>
      <trkpt lat="45.78586" lon="4.86882">
        <ele>219</ele>
        <time>2010-11-23T18:20:56Z</time>
      </trkpt>
      <trkpt lat="45.78586" lon="4.86886">
        <ele>220</ele>
        <time>2010-11-23T18:20:57Z</time>
      </trkpt>
      <trkpt lat="45.78587" lon="4.86891">
        <ele>220</ele>
        <time>2010-11-23T18:20:58Z</time>
      </trkpt>
      <trkpt lat="45.78586" lon="4.86897">
        <ele>221</ele>
        <time>2010-11-23T18:20:59Z</time>
      </trkpt>
      <trkpt lat="45.78586" lon="4.86901">
        <ele>221</ele>
        <time>2010-11-23T18:21:00Z</time>
      </trkpt>
      <trkpt lat="45.78586" lon="4.86906">
        <ele>221</ele>
        <time>2010-11-23T18:21:01Z</time>
      </trkpt>
      <trkpt lat="45.78585" lon="4.8691">
        <ele>221</ele>
        <time>2010-11-23T18:21:02Z</time>
      </trkpt>
      <trkpt lat="45.78585" lon="4.86914">
        <ele>222</ele>
        <time>2010-11-23T18:21:03Z</time>
      </trkpt>
      <trkpt lat="45.78586" lon="4.86918">
        <ele>222</ele>
        <time>2010-11-23T18:21:04Z</time>
      </trkpt>
      <trkpt lat="45.78588" lon="4.86921">
        <ele>222</ele>
        <time>2010-11-23T18:21:05Z</time>
      </trkpt>
      <trkpt lat="45.78589" lon="4.86926">
        <ele>223</ele>
        <time>2010-11-23T18:21:06Z</time>
      </trkpt>
      <trkpt lat="45.7859" lon="4.86928">
        <ele>223</ele>
        <time>2010-11-23T18:21:07Z</time>
      </trkpt>
      <trkpt lat="45.7859" lon="4.86931">
        <ele>223</ele>
        <time>2010-11-23T18:21:09Z</time>
      </trkpt>
      <trkpt lat="45.7859" lon="4.86934">
        <ele>223</ele>
        <time>2010-11-23T18:21:10Z</time>
      </trkpt>
      <trkpt lat="45.78591" lon="4.86938">
        <ele>223</ele>
        <time>2010-11-23T18:21:10Z</time>
      </trkpt>
      <trkpt lat="45.78592" lon="4.86939">
        <ele>223</ele>
        <time>2010-11-23T18:21:11Z</time>
      </trkpt>
      <trkpt lat="45.78592" lon="4.86945">
        <ele>224</ele>
        <time>2010-11-23T18:21:12Z</time>
      </trkpt>
      <trkpt lat="45.78594" lon="4.86949">
        <ele>223</ele>
        <time>2010-11-23T18:21:13Z</time>
      </trkpt>
      <trkpt lat="45.78593" lon="4.86955">
        <ele>223</ele>
        <time>2010-11-23T18:21:14Z</time>
      </trkpt>
      <trkpt lat="45.78594" lon="4.86959">
        <ele>222</ele>
        <time>2010-11-23T18:21:15Z</time>
      </trkpt>
      <trkpt lat="45.78594" lon="4.86964">
        <ele>222</ele>
        <time>2010-11-23T18:21:16Z</time>
      </trkpt>
      <trkpt lat="45.78595" lon="4.86967">
        <ele>222</ele>
        <time>2010-11-23T18:21:17Z</time>
      </trkpt>
      <trkpt lat="45.78595" lon="4.86971">
        <ele>221</ele>
        <time>2010-11-23T18:21:18Z</time>
      </trkpt>
      <trkpt lat="45.78597" lon="4.86974">
        <ele>220</ele>
        <time>2010-11-23T18:21:19Z</time>
      </trkpt>
      <trkpt lat="45.78598" lon="4.86979">
        <ele>221</ele>
        <time>2010-11-23T18:21:20Z</time>
      </trkpt>
      <trkpt lat="45.78597" lon="4.86984">
        <ele>221</ele>
        <time>2010-11-23T18:21:21Z</time>
      </trkpt>
      <trkpt lat="45.78598" lon="4.86988">
        <ele>222</ele>
        <time>2010-11-23T18:21:22Z</time>
      </trkpt>
      <trkpt lat="45.78598" lon="4.86992">
        <ele>222</ele>
        <time>2010-11-23T18:21:23Z</time>
      </trkpt>
      <trkpt lat="45.78599" lon="4.86995">
        <ele>222</ele>
        <time>2010-11-23T18:21:24Z</time>
      </trkpt>
      <trkpt lat="45.78599" lon="4.86998">
        <ele>222</ele>
        <time>2010-11-23T18:21:25Z</time>
      </trkpt>
      <trkpt lat="45.78601" lon="4.87002">
        <ele>223</ele>
        <time>2010-11-23T18:21:26Z</time>
      </trkpt>
      <trkpt lat="45.78602" lon="4.87007">
        <ele>223</ele>
        <time>2010-11-23T18:21:27Z</time>
      </trkpt>
      <trkpt lat="45.78603" lon="4.87011">
        <ele>223</ele>
        <time>2010-11-23T18:21:28Z</time>
      </trkpt>
      <trkpt lat="45.78603" lon="4.87015">
        <ele>223</ele>
        <time>2010-11-23T18:21:29Z</time>
      </trkpt>
      <trkpt lat="45.78603" lon="4.87017">
        <ele>223</ele>
        <time>2010-11-23T18:21:30Z</time>
      </trkpt>
      <trkpt lat="45.78604" lon="4.87022">
        <ele>223</ele>
        <time>2010-11-23T18:21:31Z</time>
      </trkpt>
      <trkpt lat="45.78605" lon="4.87025">
        <ele>223</ele>
        <time>2010-11-23T18:21:32Z</time>
      </trkpt>
      <trkpt lat="45.78605" lon="4.87029">
        <ele>223</ele>
        <time>2010-11-23T18:21:33Z</time>
      </trkpt>
      <trkpt lat="45.78606" lon="4.87033">
        <ele>223</ele>
        <time>2010-11-23T18:21:34Z</time>
      </trkpt>
      <trkpt lat="45.78607" lon="4.87038">
        <ele>222</ele>
        <time>2010-11-23T18:21:35Z</time>
      </trkpt>
      <trkpt lat="45.78607" lon="4.87044">
        <ele>222</ele>
        <time>2010-11-23T18:21:36Z</time>
      </trkpt>
      <trkpt lat="45.78607" lon="4.87048">
        <ele>222</ele>
        <time>2010-11-23T18:21:37Z</time>
      </trkpt>
      <trkpt lat="45.78607" lon="4.87052">
        <ele>224</ele>
        <time>2010-11-23T18:21:38Z</time>
      </trkpt>
      <trkpt lat="45.78609" lon="4.87055">
        <ele>224</ele>
        <time>2010-11-23T18:21:39Z</time>
      </trkpt>
      <trkpt lat="45.78609" lon="4.87061">
        <ele>226</ele>
        <time>2010-11-23T18:21:40Z</time>
      </trkpt>
      <trkpt lat="45.78609" lon="4.87066">
        <ele>227</ele>
        <time>2010-11-23T18:21:41Z</time>
      </trkpt>
      <trkpt lat="45.78609" lon="4.87071">
        <ele>227</ele>
        <time>2010-11-23T18:21:42Z</time>
      </trkpt>
      <trkpt lat="45.7861" lon="4.87075">
        <ele>227</ele>
        <time>2010-11-23T18:21:43Z</time>
      </trkpt>
      <trkpt lat="45.78611" lon="4.87079">
        <ele>227</ele>
        <time>2010-11-23T18:21:44Z</time>
      </trkpt>
      <trkpt lat="45.78612" lon="4.87081">
        <ele>227</ele>
        <time>2010-11-23T18:21:45Z</time>
      </trkpt>
      <trkpt lat="45.78613" lon="4.87084">
        <ele>227</ele>
        <time>2010-11-23T18:21:46Z</time>
      </trkpt>
      <trkpt lat="45.78614" lon="4.87089">
        <ele>226</ele>
        <time>2010-11-23T18:21:47Z</time>
      </trkpt>
      <trkpt lat="45.78614" lon="4.87092">
        <ele>226</ele>
        <time>2010-11-23T18:21:48Z</time>
      </trkpt>
      <trkpt lat="45.78614" lon="4.87097">
        <ele>226</ele>
        <time>2010-11-23T18:21:49Z</time>
      </trkpt>
      <trkpt lat="45.78615" lon="4.871">
        <ele>227</ele>
        <time>2010-11-23T18:21:50Z</time>
      </trkpt>
      <trkpt lat="45.78615" lon="4.87106">
        <ele>227</ele>
        <time>2010-11-23T18:21:51Z</time>
      </trkpt>
      <trkpt lat="45.78616" lon="4.87109">
        <ele>227</ele>
        <time>2010-11-23T18:21:52Z</time>
      </trkpt>
      <trkpt lat="45.78617" lon="4.87113">
        <ele>226</ele>
        <time>2010-11-23T18:21:53Z</time>
      </trkpt>
      <trkpt lat="45.78618" lon="4.87118">
        <ele>226</ele>
        <time>2010-11-23T18:21:54Z</time>
      </trkpt>
      <trkpt lat="45.78618" lon="4.87122">
        <ele>225</ele>
        <time>2010-11-23T18:21:55Z</time>
      </trkpt>
      <trkpt lat="45.78619" lon="4.87126">
        <ele>225</ele>
        <time>2010-11-23T18:21:56Z</time>
      </trkpt>
      <trkpt lat="45.7862" lon="4.8713">
        <ele>225</ele>
        <time>2010-11-23T18:21:57Z</time>
      </trkpt>
      <trkpt lat="45.78621" lon="4.87133">
        <ele>225</ele>
        <time>2010-11-23T18:21:58Z</time>
      </trkpt>
      <trkpt lat="45.78622" lon="4.87136">
        <ele>225</ele>
        <time>2010-11-23T18:21:59Z</time>
      </trkpt>
      <trkpt lat="45.78623" lon="4.87139">
        <ele>224</ele>
        <time>2010-11-23T18:22:00Z</time>
      </trkpt>
      <trkpt lat="45.78624" lon="4.87142">
        <ele>224</ele>
        <time>2010-11-23T18:22:01Z</time>
      </trkpt>
      <trkpt lat="45.78625" lon="4.87145">
        <ele>224</ele>
        <time>2010-11-23T18:22:02Z</time>
      </trkpt>
      <trkpt lat="45.78626" lon="4.87148">
        <ele>223</ele>
        <time>2010-11-23T18:22:03Z</time>
      </trkpt>
      <trkpt lat="45.78626" lon="4.87152">
        <ele>223</ele>
        <time>2010-11-23T18:22:04Z</time>
      </trkpt>
      <trkpt lat="45.78628" lon="4.87156">
        <ele>223</ele>
        <time>2010-11-23T18:22:05Z</time>
      </trkpt>
      <trkpt lat="45.78628" lon="4.87162">
        <ele>223</ele>
        <time>2010-11-23T18:22:06Z</time>
      </trkpt>
      <trkpt lat="45.78629" lon="4.87165">
        <ele>223</ele>
        <time>2010-11-23T18:22:07Z</time>
      </trkpt>
      <trkpt lat="45.78631" lon="4.87169">
        <ele>221</ele>
        <time>2010-11-23T18:22:08Z</time>
      </trkpt>
      <trkpt lat="45.78631" lon="4.87173">
        <ele>220</ele>
        <time>2010-11-23T18:22:09Z</time>
      </trkpt>
      <trkpt lat="45.78633" lon="4.87176">
        <ele>219</ele>
        <time>2010-11-23T18:22:10Z</time>
      </trkpt>
      <trkpt lat="45.78634" lon="4.87179">
        <ele>219</ele>
        <time>2010-11-23T18:22:11Z</time>
      </trkpt>
      <trkpt lat="45.78635" lon="4.87182">
        <ele>218</ele>
        <time>2010-11-23T18:22:12Z</time>
      </trkpt>
      <trkpt lat="45.78636" lon="4.87186">
        <ele>218</ele>
        <time>2010-11-23T18:22:13Z</time>
      </trkpt>
      <trkpt lat="45.78637" lon="4.8719">
        <ele>219</ele>
        <time>2010-11-23T18:22:14Z</time>
      </trkpt>
      <trkpt lat="45.78638" lon="4.87195">
        <ele>220</ele>
        <time>2010-11-23T18:22:15Z</time>
      </trkpt>
      <trkpt lat="45.78638" lon="4.87198">
        <ele>219</ele>
        <time>2010-11-23T18:22:16Z</time>
      </trkpt>
      <trkpt lat="45.78639" lon="4.87201">
        <ele>219</ele>
        <time>2010-11-23T18:22:17Z</time>
      </trkpt>
      <trkpt lat="45.7864" lon="4.87206">
        <ele>219</ele>
        <time>2010-11-23T18:22:18Z</time>
      </trkpt>
      <trkpt lat="45.78642" lon="4.8721">
        <ele>219</ele>
        <time>2010-11-23T18:22:19Z</time>
      </trkpt>
      <trkpt lat="45.78642" lon="4.87214">
        <ele>218</ele>
        <time>2010-11-23T18:22:20Z</time>
      </trkpt>
      <trkpt lat="45.78643" lon="4.87217">
        <ele>219</ele>
        <time>2010-11-23T18:22:21Z</time>
      </trkpt>
      <trkpt lat="45.78643" lon="4.87222">
        <ele>219</ele>
        <time>2010-11-23T18:22:22Z</time>
      </trkpt>
      <trkpt lat="45.78644" lon="4.87225">
        <ele>219</ele>
        <time>2010-11-23T18:22:23Z</time>
      </trkpt>
      <trkpt lat="45.78645" lon="4.87229">
        <ele>219</ele>
        <time>2010-11-23T18:22:24Z</time>
      </trkpt>
      <trkpt lat="45.78646" lon="4.87232">
        <ele>218</ele>
        <time>2010-11-23T18:22:25Z</time>
      </trkpt>
      <trkpt lat="45.78647" lon="4.87236">
        <ele>219</ele>
        <time>2010-11-23T18:22:26Z</time>
      </trkpt>
      <trkpt lat="45.78648" lon="4.87238">
        <ele>217</ele>
        <time>2010-11-23T18:22:27Z</time>
      </trkpt>
      <trkpt lat="45.78649" lon="4.87242">
        <ele>218</ele>
        <time>2010-11-23T18:22:28Z</time>
      </trkpt>
      <trkpt lat="45.78649" lon="4.87246">
        <ele>217</ele>
        <time>2010-11-23T18:22:29Z</time>
      </trkpt>
      <trkpt lat="45.78649" lon="4.87251">
        <ele>219</ele>
        <time>2010-11-23T18:22:30Z</time>
      </trkpt>
      <trkpt lat="45.78651" lon="4.87254">
        <ele>218</ele>
        <time>2010-11-23T18:22:31Z</time>
      </trkpt>
      <trkpt lat="45.78653" lon="4.87257">
        <ele>217</ele>
        <time>2010-11-23T18:22:32Z</time>
      </trkpt>
      <trkpt lat="45.78654" lon="4.87261">
        <ele>217</ele>
        <time>2010-11-23T18:22:33Z</time>
      </trkpt>
      <trkpt lat="45.78654" lon="4.87265">
        <ele>218</ele>
        <time>2010-11-23T18:22:34Z</time>
      </trkpt>
      <trkpt lat="45.78655" lon="4.87269">
        <ele>218</ele>
        <time>2010-11-23T18:22:35Z</time>
      </trkpt>
      <trkpt lat="45.78656" lon="4.87272">
        <ele>216</ele>
        <time>2010-11-23T18:22:36Z</time>
      </trkpt>
      <trkpt lat="45.78657" lon="4.87276">
        <ele>216</ele>
        <time>2010-11-23T18:22:37Z</time>
      </trkpt>
      <trkpt lat="45.78658" lon="4.8728">
        <ele>216</ele>
        <time>2010-11-23T18:22:38Z</time>
      </trkpt>
      <trkpt lat="45.78659" lon="4.87282">
        <ele>215</ele>
        <time>2010-11-23T18:22:39Z</time>
      </trkpt>
      <trkpt lat="45.78661" lon="4.87285">
        <ele>214</ele>
        <time>2010-11-23T18:22:40Z</time>
      </trkpt>
      <trkpt lat="45.78662" lon="4.87288">
        <ele>214</ele>
        <time>2010-11-23T18:22:41Z</time>
      </trkpt>
      <trkpt lat="45.78664" lon="4.87291">
        <ele>214</ele>
        <time>2010-11-23T18:22:42Z</time>
      </trkpt>
      <trkpt lat="45.78666" lon="4.87293">
        <ele>214</ele>
        <time>2010-11-23T18:22:43Z</time>
      </trkpt>
      <trkpt lat="45.78668" lon="4.87296">
        <ele>214</ele>
        <time>2010-11-23T18:22:44Z</time>
      </trkpt>
      <trkpt lat="45.78669" lon="4.87299">
        <ele>214</ele>
        <time>2010-11-23T18:22:45Z</time>
      </trkpt>
      <trkpt lat="45.7867" lon="4.87304">
        <ele>214</ele>
        <time>2010-11-23T18:22:46Z</time>
      </trkpt>
      <trkpt lat="45.78671" lon="4.87311">
        <ele>214</ele>
        <time>2010-11-23T18:22:47Z</time>
      </trkpt>
      <trkpt lat="45.78672" lon="4.87317">
        <ele>214</ele>
        <time>2010-11-23T18:22:48Z</time>
      </trkpt>
      <trkpt lat="45.78673" lon="4.87323">
        <ele>215</ele>
        <time>2010-11-23T18:22:49Z</time>
      </trkpt>
      <trkpt lat="45.78673" lon="4.87326">
        <ele>217</ele>
        <time>2010-11-23T18:22:50Z</time>
      </trkpt>
      <trkpt lat="45.78674" lon="4.87332">
        <ele>217</ele>
        <time>2010-11-23T18:22:51Z</time>
      </trkpt>
      <trkpt lat="45.78675" lon="4.87335">
        <ele>218</ele>
        <time>2010-11-23T18:22:52Z</time>
      </trkpt>
      <trkpt lat="45.78677" lon="4.87338">
        <ele>218</ele>
        <time>2010-11-23T18:22:53Z</time>
      </trkpt>
      <trkpt lat="45.78678" lon="4.87342">
        <ele>219</ele>
        <time>2010-11-23T18:22:54Z</time>
      </trkpt>
      <trkpt lat="45.78679" lon="4.87345">
        <ele>219</ele>
        <time>2010-11-23T18:22:55Z</time>
      </trkpt>
      <trkpt lat="45.7868" lon="4.87348">
        <ele>219</ele>
        <time>2010-11-23T18:22:56Z</time>
      </trkpt>
      <trkpt lat="45.78682" lon="4.87352">
        <ele>219</ele>
        <time>2010-11-23T18:22:57Z</time>
      </trkpt>
      <trkpt lat="45.78683" lon="4.87356">
        <ele>219</ele>
        <time>2010-11-23T18:22:58Z</time>
      </trkpt>
      <trkpt lat="45.78683" lon="4.8736">
        <ele>219</ele>
        <time>2010-11-23T18:22:59Z</time>
      </trkpt>
      <trkpt lat="45.78684" lon="4.87363">
        <ele>219</ele>
        <time>2010-11-23T18:23:00Z</time>
      </trkpt>
      <trkpt lat="45.78686" lon="4.87367">
        <ele>219</ele>
        <time>2010-11-23T18:23:01Z</time>
      </trkpt>
      <trkpt lat="45.78686" lon="4.8737">
        <ele>218</ele>
        <time>2010-11-23T18:23:02Z</time>
      </trkpt>
      <trkpt lat="45.78686" lon="4.87373">
        <ele>218</ele>
        <time>2010-11-23T18:23:03Z</time>
      </trkpt>
      <trkpt lat="45.78687" lon="4.87377">
        <ele>218</ele>
        <time>2010-11-23T18:23:04Z</time>
      </trkpt>
      <trkpt lat="45.78687" lon="4.8738">
        <ele>218</ele>
        <time>2010-11-23T18:23:05Z</time>
      </trkpt>
      <trkpt lat="45.78688" lon="4.87385">
        <ele>218</ele>
        <time>2010-11-23T18:23:06Z</time>
      </trkpt>
      <trkpt lat="45.7869" lon="4.87389">
        <ele>218</ele>
        <time>2010-11-23T18:23:07Z</time>
      </trkpt>
      <trkpt lat="45.78692" lon="4.87392">
        <ele>218</ele>
        <time>2010-11-23T18:23:08Z</time>
      </trkpt>
      <trkpt lat="45.78692" lon="4.87396">
        <ele>218</ele>
        <time>2010-11-23T18:23:09Z</time>
      </trkpt>
      <trkpt lat="45.78693" lon="4.874">
        <ele>218</ele>
        <time>2010-11-23T18:23:10Z</time>
      </trkpt>
      <trkpt lat="45.78694" lon="4.87403">
        <ele>218</ele>
        <time>2010-11-23T18:23:11Z</time>
      </trkpt>
      <trkpt lat="45.78693" lon="4.87407">
        <ele>218</ele>
        <time>2010-11-23T18:23:12Z</time>
      </trkpt>
      <trkpt lat="45.78694" lon="4.87411">
        <ele>217</ele>
        <time>2010-11-23T18:23:13Z</time>
      </trkpt>
      <trkpt lat="45.78694" lon="4.87415">
        <ele>217</ele>
        <time>2010-11-23T18:23:14Z</time>
      </trkpt>
      <trkpt lat="45.78695" lon="4.87419">
        <ele>217</ele>
        <time>2010-11-23T18:23:15Z</time>
      </trkpt>
      <trkpt lat="45.78695" lon="4.87423">
        <ele>216</ele>
        <time>2010-11-23T18:23:16Z</time>
      </trkpt>
      <trkpt lat="45.78695" lon="4.87427">
        <ele>216</ele>
        <time>2010-11-23T18:23:17Z</time>
      </trkpt>
      <trkpt lat="45.78694" lon="4.8743">
        <ele>216</ele>
        <time>2010-11-23T18:23:18Z</time>
      </trkpt>
      <trkpt lat="45.78693" lon="4.87435">
        <ele>216</ele>
        <time>2010-11-23T18:23:19Z</time>
      </trkpt>
      <trkpt lat="45.78695" lon="4.87438">
        <ele>216</ele>
        <time>2010-11-23T18:23:20Z</time>
      </trkpt>
      <trkpt lat="45.78695" lon="4.87444">
        <ele>216</ele>
        <time>2010-11-23T18:23:21Z</time>
      </trkpt>
      <trkpt lat="45.78695" lon="4.87448">
        <ele>217</ele>
        <time>2010-11-23T18:23:22Z</time>
      </trkpt>
      <trkpt lat="45.78695" lon="4.87452">
        <ele>217</ele>
        <time>2010-11-23T18:23:23Z</time>
      </trkpt>
      <trkpt lat="45.78696" lon="4.87456">
        <ele>217</ele>
        <time>2010-11-23T18:23:24Z</time>
      </trkpt>
      <trkpt lat="45.78697" lon="4.87459">
        <ele>217</ele>
        <time>2010-11-23T18:23:25Z</time>
      </trkpt>
      <trkpt lat="45.78697" lon="4.87462">
        <ele>217</ele>
        <time>2010-11-23T18:23:26Z</time>
      </trkpt>
      <trkpt lat="45.78698" lon="4.87466">
        <ele>216</ele>
        <time>2010-11-23T18:23:27Z</time>
      </trkpt>
      <trkpt lat="45.78699" lon="4.87469">
        <ele>217</ele>
        <time>2010-11-23T18:23:28Z</time>
      </trkpt>
      <trkpt lat="45.78699" lon="4.87473">
        <ele>218</ele>
        <time>2010-11-23T18:23:29Z</time>
      </trkpt>
      <trkpt lat="45.787" lon="4.87478">
        <ele>217</ele>
        <time>2010-11-23T18:23:30Z</time>
      </trkpt>
      <trkpt lat="45.78701" lon="4.87481">
        <ele>217</ele>
        <time>2010-11-23T18:23:31Z</time>
      </trkpt>
      <trkpt lat="45.78701" lon="4.87484">
        <ele>217</ele>
        <time>2010-11-23T18:23:32Z</time>
      </trkpt>
      <trkpt lat="45.78701" lon="4.87487">
        <ele>218</ele>
        <time>2010-11-23T18:23:33Z</time>
      </trkpt>
      <trkpt lat="45.787" lon="4.87491">
        <ele>219</ele>
        <time>2010-11-23T18:23:34Z</time>
      </trkpt>
      <trkpt lat="45.787" lon="4.87495">
        <ele>219</ele>
        <time>2010-11-23T18:23:35Z</time>
      </trkpt>
      <trkpt lat="45.787" lon="4.875">
        <ele>219</ele>
        <time>2010-11-23T18:23:36Z</time>
      </trkpt>
      <trkpt lat="45.787" lon="4.87504">
        <ele>219</ele>
        <time>2010-11-23T18:23:37Z</time>
      </trkpt>
      <trkpt lat="45.787" lon="4.87508">
        <ele>218</ele>
        <time>2010-11-23T18:23:38Z</time>
      </trkpt>
      <trkpt lat="45.78701" lon="4.87513">
        <ele>218</ele>
        <time>2010-11-23T18:23:39Z</time>
      </trkpt>
      <trkpt lat="45.78702" lon="4.87516">
        <ele>217</ele>
        <time>2010-11-23T18:23:40Z</time>
      </trkpt>
      <trkpt lat="45.78702" lon="4.8752">
        <ele>217</ele>
        <time>2010-11-23T18:23:41Z</time>
      </trkpt>
      <trkpt lat="45.78704" lon="4.87523">
        <ele>217</ele>
        <time>2010-11-23T18:23:42Z</time>
      </trkpt>
      <trkpt lat="45.78705" lon="4.87526">
        <ele>217</ele>
        <time>2010-11-23T18:23:43Z</time>
      </trkpt>
      <trkpt lat="45.78706" lon="4.8753">
        <ele>217</ele>
        <time>2010-11-23T18:23:44Z</time>
      </trkpt>
      <trkpt lat="45.78707" lon="4.87534">
        <ele>217</ele>
        <time>2010-11-23T18:23:45Z</time>
      </trkpt>
      <trkpt lat="45.78709" lon="4.87538">
        <ele>217</ele>
        <time>2010-11-23T18:23:46Z</time>
      </trkpt>
      <trkpt lat="45.78709" lon="4.87542">
        <ele>218</ele>
        <time>2010-11-23T18:23:47Z</time>
      </trkpt>
      <trkpt lat="45.78709" lon="4.87547">
        <ele>218</ele>
        <time>2010-11-23T18:23:48Z</time>
      </trkpt>
      <trkpt lat="45.78708" lon="4.87551">
        <ele>218</ele>
        <time>2010-11-23T18:23:49Z</time>
      </trkpt>
      <trkpt lat="45.78709" lon="4.87554">
        <ele>219</ele>
        <time>2010-11-23T18:23:50Z</time>
      </trkpt>
      <trkpt lat="45.78709" lon="4.87559">
        <ele>219</ele>
        <time>2010-11-23T18:23:51Z</time>
      </trkpt>
      <trkpt lat="45.78709" lon="4.87563">
        <ele>220</ele>
        <time>2010-11-23T18:23:52Z</time>
      </trkpt>
      <trkpt lat="45.7871" lon="4.87567">
        <ele>222</ele>
        <time>2010-11-23T18:23:53Z</time>
      </trkpt>
      <trkpt lat="45.78711" lon="4.8757">
        <ele>222</ele>
        <time>2010-11-23T18:23:54Z</time>
      </trkpt>
      <trkpt lat="45.78712" lon="4.87574">
        <ele>222</ele>
        <time>2010-11-23T18:23:56Z</time>
      </trkpt>
      <trkpt lat="45.78712" lon="4.87576">
        <ele>221.62467956543</ele>
        <time>2010-11-23T18:23:56Z</time>
      </trkpt>
      <trkpt lat="45.78715" lon="4.87582">
        <ele>220</ele>
        <time>2010-11-23T18:23:57Z</time>
      </trkpt>
      <trkpt lat="45.78717" lon="4.87585">
        <ele>219</ele>
        <time>2010-11-23T18:23:58Z</time>
      </trkpt>
      <trkpt lat="45.78719" lon="4.87589">
        <ele>218</ele>
        <time>2010-11-23T18:23:59Z</time>
      </trkpt>
      <trkpt lat="45.78721" lon="4.87592">
        <ele>218</ele>
        <time>2010-11-23T18:24:00Z</time>
      </trkpt>
      <trkpt lat="45.78722" lon="4.87595">
        <ele>217</ele>
        <time>2010-11-23T18:24:01Z</time>
      </trkpt>
      <trkpt lat="45.78724" lon="4.87598">
        <ele>216</ele>
        <time>2010-11-23T18:24:02Z</time>
      </trkpt>
      <trkpt lat="45.78726" lon="4.87601">
        <ele>217</ele>
        <time>2010-11-23T18:24:03Z</time>
      </trkpt>
      <trkpt lat="45.78728" lon="4.87605">
        <ele>216</ele>
        <time>2010-11-23T18:24:04Z</time>
      </trkpt>
      <trkpt lat="45.7873" lon="4.87608">
        <ele>215</ele>
        <time>2010-11-23T18:24:05Z</time>
      </trkpt>
      <trkpt lat="45.78732" lon="4.8761">
        <ele>215</ele>
        <time>2010-11-23T18:24:06Z</time>
      </trkpt>
      <trkpt lat="45.78735" lon="4.87612">
        <ele>215</ele>
        <time>2010-11-23T18:24:07Z</time>
      </trkpt>
      <trkpt lat="45.78737" lon="4.87614">
        <ele>215</ele>
        <time>2010-11-23T18:24:08Z</time>
      </trkpt>
      <trkpt lat="45.78739" lon="4.87616">
        <ele>215</ele>
        <time>2010-11-23T18:24:09Z</time>
      </trkpt>
      <trkpt lat="45.78742" lon="4.87619">
        <ele>215</ele>
        <time>2010-11-23T18:24:10Z</time>
      </trkpt>
      <trkpt lat="45.78744" lon="4.8762">
        <ele>214</ele>
        <time>2010-11-23T18:24:11Z</time>
      </trkpt>
      <trkpt lat="45.78746" lon="4.87622">
        <ele>214</ele>
        <time>2010-11-23T18:24:12Z</time>
      </trkpt>
      <trkpt lat="45.78749" lon="4.87625">
        <ele>214</ele>
        <time>2010-11-23T18:24:13Z</time>
      </trkpt>
      <trkpt lat="45.78751" lon="4.87627">
        <ele>214</ele>
        <time>2010-11-23T18:24:14Z</time>
      </trkpt>
      <trkpt lat="45.78754" lon="4.87629">
        <ele>214</ele>
        <time>2010-11-23T18:24:15Z</time>
      </trkpt>
      <trkpt lat="45.78756" lon="4.87631">
        <ele>214</ele>
        <time>2010-11-23T18:24:16Z</time>
      </trkpt>
      <trkpt lat="45.78759" lon="4.87633">
        <ele>214</ele>
        <time>2010-11-23T18:24:17Z</time>
      </trkpt>
      <trkpt lat="45.78761" lon="4.87635">
        <ele>214</ele>
        <time>2010-11-23T18:24:18Z</time>
      </trkpt>
      <trkpt lat="45.78764" lon="4.87638">
        <ele>214</ele>
        <time>2010-11-23T18:24:19Z</time>
      </trkpt>
      <trkpt lat="45.78766" lon="4.8764">
        <ele>214</ele>
        <time>2010-11-23T18:24:20Z</time>
      </trkpt>
      <trkpt lat="45.78768" lon="4.87642">
        <ele>214</ele>
        <time>2010-11-23T18:24:21Z</time>
      </trkpt>
      <trkpt lat="45.78771" lon="4.87644">
        <ele>214</ele>
        <time>2010-11-23T18:24:22Z</time>
      </trkpt>
      <trkpt lat="45.78773" lon="4.87646">
        <ele>214</ele>
        <time>2010-11-23T18:24:23Z</time>
      </trkpt>
      <trkpt lat="45.78775" lon="4.87648">
        <ele>214</ele>
        <time>2010-11-23T18:24:24Z</time>
      </trkpt>
      <trkpt lat="45.78778" lon="4.8765">
        <ele>214</ele>
        <time>2010-11-23T18:24:25Z</time>
      </trkpt>
      <trkpt lat="45.7878" lon="4.87653">
        <ele>214</ele>
        <time>2010-11-23T18:24:26Z</time>
      </trkpt>
      <trkpt lat="45.78782" lon="4.87655">
        <ele>214</ele>
        <time>2010-11-23T18:24:27Z</time>
      </trkpt>
      <trkpt lat="45.78785" lon="4.87657">
        <ele>213</ele>
        <time>2010-11-23T18:24:28Z</time>
      </trkpt>
      <trkpt lat="45.78787" lon="4.87659">
        <ele>213</ele>
        <time>2010-11-23T18:24:29Z</time>
      </trkpt>
      <trkpt lat="45.78789" lon="4.87661">
        <ele>213</ele>
        <time>2010-11-23T18:24:30Z</time>
      </trkpt>
      <trkpt lat="45.78791" lon="4.87663">
        <ele>213</ele>
        <time>2010-11-23T18:24:31Z</time>
      </trkpt>
      <trkpt lat="45.78794" lon="4.87665">
        <ele>213</ele>
        <time>2010-11-23T18:24:32Z</time>
      </trkpt>
      <trkpt lat="45.78796" lon="4.87667">
        <ele>214</ele>
        <time>2010-11-23T18:24:33Z</time>
      </trkpt>
      <trkpt lat="45.78799" lon="4.8767">
        <ele>214</ele>
        <time>2010-11-23T18:24:34Z</time>
      </trkpt>
      <trkpt lat="45.78801" lon="4.87672">
        <ele>213</ele>
        <time>2010-11-23T18:24:35Z</time>
      </trkpt>
      <trkpt lat="45.78804" lon="4.87674">
        <ele>213</ele>
        <time>2010-11-23T18:24:36Z</time>
      </trkpt>
      <trkpt lat="45.78806" lon="4.87676">
        <ele>213</ele>
        <time>2010-11-23T18:24:37Z</time>
      </trkpt>
      <trkpt lat="45.78808" lon="4.87678">
        <ele>213</ele>
        <time>2010-11-23T18:24:38Z</time>
      </trkpt>
      <trkpt lat="45.78811" lon="4.8768">
        <ele>213</ele>
        <time>2010-11-23T18:24:39Z</time>
      </trkpt>
      <trkpt lat="45.78813" lon="4.87682">
        <ele>213</ele>
        <time>2010-11-23T18:24:40Z</time>
      </trkpt>
      <trkpt lat="45.78815" lon="4.87684">
        <ele>213</ele>
        <time>2010-11-23T18:24:41Z</time>
      </trkpt>
      <trkpt lat="45.78818" lon="4.87686">
        <ele>213</ele>
        <time>2010-11-23T18:24:42Z</time>
      </trkpt>
      <trkpt lat="45.7882" lon="4.87688">
        <ele>213</ele>
        <time>2010-11-23T18:24:43Z</time>
      </trkpt>
      <trkpt lat="45.78822" lon="4.87691">
        <ele>213</ele>
        <time>2010-11-23T18:24:44Z</time>
      </trkpt>
      <trkpt lat="45.78824" lon="4.87694">
        <ele>213</ele>
        <time>2010-11-23T18:24:45Z</time>
      </trkpt>
      <trkpt lat="45.78826" lon="4.87696">
        <ele>214</ele>
        <time>2010-11-23T18:24:46Z</time>
      </trkpt>
      <trkpt lat="45.78829" lon="4.87698">
        <ele>213</ele>
        <time>2010-11-23T18:24:47Z</time>
      </trkpt>
      <trkpt lat="45.78831" lon="4.877">
        <ele>213</ele>
        <time>2010-11-23T18:24:48Z</time>
      </trkpt>
      <trkpt lat="45.78833" lon="4.87701">
        <ele>213</ele>
        <time>2010-11-23T18:24:49Z</time>
      </trkpt>
      <trkpt lat="45.78835" lon="4.87703">
        <ele>213</ele>
        <time>2010-11-23T18:24:50Z</time>
      </trkpt>
      <trkpt lat="45.78838" lon="4.87705">
        <ele>213</ele>
        <time>2010-11-23T18:24:51Z</time>
      </trkpt>
      <trkpt lat="45.7884" lon="4.87706">
        <ele>213</ele>
        <time>2010-11-23T18:24:52Z</time>
      </trkpt>
      <trkpt lat="45.78842" lon="4.87708">
        <ele>213</ele>
        <time>2010-11-23T18:24:53Z</time>
      </trkpt>
      <trkpt lat="45.78844" lon="4.8771">
        <ele>213</ele>
        <time>2010-11-23T18:24:54Z</time>
      </trkpt>
      <trkpt lat="45.78847" lon="4.87711">
        <ele>213</ele>
        <time>2010-11-23T18:24:55Z</time>
      </trkpt>
      <trkpt lat="45.78849" lon="4.87713">
        <ele>214</ele>
        <time>2010-11-23T18:24:56Z</time>
      </trkpt>
      <trkpt lat="45.78851" lon="4.87715">
        <ele>214</ele>
        <time>2010-11-23T18:24:57Z</time>
      </trkpt>
      <trkpt lat="45.78854" lon="4.87718">
        <ele>213</ele>
        <time>2010-11-23T18:24:58Z</time>
      </trkpt>
      <trkpt lat="45.78856" lon="4.8772">
        <ele>213</ele>
        <time>2010-11-23T18:24:59Z</time>
      </trkpt>
      <trkpt lat="45.78859" lon="4.87723">
        <ele>213</ele>
        <time>2010-11-23T18:25:00Z</time>
      </trkpt>
      <trkpt lat="45.78861" lon="4.87725">
        <ele>213</ele>
        <time>2010-11-23T18:25:01Z</time>
      </trkpt>
      <trkpt lat="45.78863" lon="4.87728">
        <ele>213</ele>
        <time>2010-11-23T18:25:02Z</time>
      </trkpt>
      <trkpt lat="45.78865" lon="4.8773">
        <ele>213</ele>
        <time>2010-11-23T18:25:03Z</time>
      </trkpt>
      <trkpt lat="45.78867" lon="4.87731">
        <ele>213</ele>
        <time>2010-11-23T18:25:04Z</time>
      </trkpt>
      <trkpt lat="45.7887" lon="4.87733">
        <ele>213</ele>
        <time>2010-11-23T18:25:05Z</time>
      </trkpt>
      <trkpt lat="45.78872" lon="4.87736">
        <ele>213</ele>
        <time>2010-11-23T18:25:06Z</time>
      </trkpt>
      <trkpt lat="45.78875" lon="4.87739">
        <ele>213</ele>
        <time>2010-11-23T18:25:07Z</time>
      </trkpt>
      <trkpt lat="45.78877" lon="4.87741">
        <ele>213</ele>
        <time>2010-11-23T18:25:08Z</time>
      </trkpt>
      <trkpt lat="45.78879" lon="4.87743">
        <ele>213</ele>
        <time>2010-11-23T18:25:09Z</time>
      </trkpt>
      <trkpt lat="45.78882" lon="4.87745">
        <ele>213</ele>
        <time>2010-11-23T18:25:10Z</time>
      </trkpt>
      <trkpt lat="45.78884" lon="4.87746">
        <ele>213</ele>
        <time>2010-11-23T18:25:11Z</time>
      </trkpt>
      <trkpt lat="45.78886" lon="4.87748">
        <ele>213</ele>
        <time>2010-11-23T18:25:12Z</time>
      </trkpt>
      <trkpt lat="45.78889" lon="4.8775">
        <ele>213</ele>
        <time>2010-11-23T18:25:13Z</time>
      </trkpt>
      <trkpt lat="45.78891" lon="4.87752">
        <ele>213</ele>
        <time>2010-11-23T18:25:14Z</time>
      </trkpt>
      <trkpt lat="45.78893" lon="4.87755">
        <ele>213</ele>
        <time>2010-11-23T18:25:15Z</time>
      </trkpt>
      <trkpt lat="45.78896" lon="4.87758">
        <ele>213</ele>
        <time>2010-11-23T18:25:16Z</time>
      </trkpt>
      <trkpt lat="45.78897" lon="4.8776">
        <ele>213</ele>
        <time>2010-11-23T18:25:17Z</time>
      </trkpt>
      <trkpt lat="45.789" lon="4.87762">
        <ele>212</ele>
        <time>2010-11-23T18:25:18Z</time>
      </trkpt>
      <trkpt lat="45.78902" lon="4.87765">
        <ele>212</ele>
        <time>2010-11-23T18:25:19Z</time>
      </trkpt>
      <trkpt lat="45.78904" lon="4.87767">
        <ele>212</ele>
        <time>2010-11-23T18:25:20Z</time>
      </trkpt>
      <trkpt lat="45.78906" lon="4.87769">
        <ele>213</ele>
        <time>2010-11-23T18:25:21Z</time>
      </trkpt>
      <trkpt lat="45.78909" lon="4.87772">
        <ele>212</ele>
        <time>2010-11-23T18:25:22Z</time>
      </trkpt>
      <trkpt lat="45.78911" lon="4.87774">
        <ele>213</ele>
        <time>2010-11-23T18:25:23Z</time>
      </trkpt>
      <trkpt lat="45.78913" lon="4.87776">
        <ele>213</ele>
        <time>2010-11-23T18:25:24Z</time>
      </trkpt>
      <trkpt lat="45.78916" lon="4.87777">
        <ele>212</ele>
        <time>2010-11-23T18:25:25Z</time>
      </trkpt>
      <trkpt lat="45.78918" lon="4.8778">
        <ele>212</ele>
        <time>2010-11-23T18:25:26Z</time>
      </trkpt>
      <trkpt lat="45.7892" lon="4.87782">
        <ele>212</ele>
        <time>2010-11-23T18:25:27Z</time>
      </trkpt>
      <trkpt lat="45.78922" lon="4.87783">
        <ele>212</ele>
        <time>2010-11-23T18:25:28Z</time>
      </trkpt>
      <trkpt lat="45.78925" lon="4.87785">
        <ele>212</ele>
        <time>2010-11-23T18:25:29Z</time>
      </trkpt>
      <trkpt lat="45.78927" lon="4.87788">
        <ele>212</ele>
        <time>2010-11-23T18:25:30Z</time>
      </trkpt>
      <trkpt lat="45.7893" lon="4.8779">
        <ele>213</ele>
        <time>2010-11-23T18:25:31Z</time>
      </trkpt>
      <trkpt lat="45.78932" lon="4.87792">
        <ele>213</ele>
        <time>2010-11-23T18:25:32Z</time>
      </trkpt>
      <trkpt lat="45.78934" lon="4.87794">
        <ele>213</ele>
        <time>2010-11-23T18:25:33Z</time>
      </trkpt>
      <trkpt lat="45.78937" lon="4.87796">
        <ele>213</ele>
        <time>2010-11-23T18:25:34Z</time>
      </trkpt>
      <trkpt lat="45.78939" lon="4.87798">
        <ele>213</ele>
        <time>2010-11-23T18:25:35Z</time>
      </trkpt>
      <trkpt lat="45.78941" lon="4.878">
        <ele>213</ele>
        <time>2010-11-23T18:25:36Z</time>
      </trkpt>
      <trkpt lat="45.78944" lon="4.87802">
        <ele>213</ele>
        <time>2010-11-23T18:25:37Z</time>
      </trkpt>
      <trkpt lat="45.78946" lon="4.87804">
        <ele>213</ele>
        <time>2010-11-23T18:25:38Z</time>
      </trkpt>
      <trkpt lat="45.78948" lon="4.87806">
        <ele>213</ele>
        <time>2010-11-23T18:25:39Z</time>
      </trkpt>
      <trkpt lat="45.78951" lon="4.87808">
        <ele>213</ele>
        <time>2010-11-23T18:25:40Z</time>
      </trkpt>
      <trkpt lat="45.78953" lon="4.8781">
        <ele>213</ele>
        <time>2010-11-23T18:25:41Z</time>
      </trkpt>
      <trkpt lat="45.78955" lon="4.87812">
        <ele>213</ele>
        <time>2010-11-23T18:25:42Z</time>
      </trkpt>
      <trkpt lat="45.78958" lon="4.87814">
        <ele>213</ele>
        <time>2010-11-23T18:25:43Z</time>
      </trkpt>
      <trkpt lat="45.7896" lon="4.87817">
        <ele>213</ele>
        <time>2010-11-23T18:25:44Z</time>
      </trkpt>
      <trkpt lat="45.78963" lon="4.87818">
        <ele>213</ele>
        <time>2010-11-23T18:25:45Z</time>
      </trkpt>
      <trkpt lat="45.78965" lon="4.8782">
        <ele>213</ele>
        <time>2010-11-23T18:25:46Z</time>
      </trkpt>
      <trkpt lat="45.78967" lon="4.87822">
        <ele>213</ele>
        <time>2010-11-23T18:25:47Z</time>
      </trkpt>
      <trkpt lat="45.78969" lon="4.87825">
        <ele>214</ele>
        <time>2010-11-23T18:25:48Z</time>
      </trkpt>
      <trkpt lat="45.78972" lon="4.87827">
        <ele>214</ele>
        <time>2010-11-23T18:25:49Z</time>
      </trkpt>
      <trkpt lat="45.78974" lon="4.87829">
        <ele>213</ele>
        <time>2010-11-23T18:25:50Z</time>
      </trkpt>
      <trkpt lat="45.78977" lon="4.87832">
        <ele>213</ele>
        <time>2010-11-23T18:25:51Z</time>
      </trkpt>
      <trkpt lat="45.78979" lon="4.87834">
        <ele>213</ele>
        <time>2010-11-23T18:25:52Z</time>
      </trkpt>
      <trkpt lat="45.78981" lon="4.87836">
        <ele>213</ele>
        <time>2010-11-23T18:25:53Z</time>
      </trkpt>
      <trkpt lat="45.78984" lon="4.87838">
        <ele>213</ele>
        <time>2010-11-23T18:25:54Z</time>
      </trkpt>
      <trkpt lat="45.78986" lon="4.8784">
        <ele>213</ele>
        <time>2010-11-23T18:25:55Z</time>
      </trkpt>
      <trkpt lat="45.78988" lon="4.87842">
        <ele>213</ele>
        <time>2010-11-23T18:25:56Z</time>
      </trkpt>
      <trkpt lat="45.78991" lon="4.87844">
        <ele>213</ele>
        <time>2010-11-23T18:25:57Z</time>
      </trkpt>
      <trkpt lat="45.78993" lon="4.87846">
        <ele>213</ele>
        <time>2010-11-23T18:25:58Z</time>
      </trkpt>
      <trkpt lat="45.78995" lon="4.87848">
        <ele>213</ele>
        <time>2010-11-23T18:25:59Z</time>
      </trkpt>
      <trkpt lat="45.78997" lon="4.8785">
        <ele>213</ele>
        <time>2010-11-23T18:26:00Z</time>
      </trkpt>
      <trkpt lat="45.79" lon="4.87852">
        <ele>213</ele>
        <time>2010-11-23T18:26:01Z</time>
      </trkpt>
      <trkpt lat="45.79002" lon="4.87854">
        <ele>213</ele>
        <time>2010-11-23T18:26:02Z</time>
      </trkpt>
      <trkpt lat="45.79004" lon="4.87856">
        <ele>213</ele>
        <time>2010-11-23T18:26:03Z</time>
      </trkpt>
      <trkpt lat="45.79007" lon="4.87858">
        <ele>213</ele>
        <time>2010-11-23T18:26:04Z</time>
      </trkpt>
      <trkpt lat="45.79009" lon="4.87861">
        <ele>213</ele>
        <time>2010-11-23T18:26:05Z</time>
      </trkpt>
      <trkpt lat="45.79011" lon="4.87863">
        <ele>213</ele>
        <time>2010-11-23T18:26:06Z</time>
      </trkpt>
      <trkpt lat="45.79014" lon="4.87864">
        <ele>213</ele>
        <time>2010-11-23T18:26:07Z</time>
      </trkpt>
      <trkpt lat="45.79016" lon="4.87866">
        <ele>213</ele>
        <time>2010-11-23T18:26:08Z</time>
      </trkpt>
      <trkpt lat="45.79018" lon="4.87869">
        <ele>213</ele>
        <time>2010-11-23T18:26:09Z</time>
      </trkpt>
      <trkpt lat="45.79021" lon="4.87871">
        <ele>213</ele>
        <time>2010-11-23T18:26:10Z</time>
      </trkpt>
      <trkpt lat="45.79023" lon="4.87872">
        <ele>213</ele>
        <time>2010-11-23T18:26:11Z</time>
      </trkpt>
      <trkpt lat="45.79025" lon="4.87875">
        <ele>213</ele>
        <time>2010-11-23T18:26:12Z</time>
      </trkpt>
      <trkpt lat="45.79028" lon="4.87877">
        <ele>213</ele>
        <time>2010-11-23T18:26:13Z</time>
      </trkpt>
      <trkpt lat="45.7903" lon="4.87879">
        <ele>213</ele>
        <time>2010-11-23T18:26:14Z</time>
      </trkpt>
      <trkpt lat="45.79033" lon="4.8788">
        <ele>213</ele>
        <time>2010-11-23T18:26:15Z</time>
      </trkpt>
      <trkpt lat="45.79035" lon="4.87883">
        <ele>213</ele>
        <time>2010-11-23T18:26:16Z</time>
      </trkpt>
      <trkpt lat="45.79038" lon="4.87885">
        <ele>213</ele>
        <time>2010-11-23T18:26:17Z</time>
      </trkpt>
      <trkpt lat="45.7904" lon="4.87887">
        <ele>213</ele>
        <time>2010-11-23T18:26:18Z</time>
      </trkpt>
      <trkpt lat="45.79042" lon="4.87889">
        <ele>213</ele>
        <time>2010-11-23T18:26:19Z</time>
      </trkpt>
      <trkpt lat="45.79044" lon="4.87891">
        <ele>213</ele>
        <time>2010-11-23T18:26:20Z</time>
      </trkpt>
      <trkpt lat="45.79047" lon="4.87893">
        <ele>213</ele>
        <time>2010-11-23T18:26:21Z</time>
      </trkpt>
      <trkpt lat="45.79049" lon="4.87895">
        <ele>213</ele>
        <time>2010-11-23T18:26:22Z</time>
      </trkpt>
      <trkpt lat="45.79051" lon="4.87898">
        <ele>213</ele>
        <time>2010-11-23T18:26:23Z</time>
      </trkpt>
      <trkpt lat="45.79054" lon="4.879">
        <ele>213</ele>
        <time>2010-11-23T18:26:24Z</time>
      </trkpt>
      <trkpt lat="45.79056" lon="4.87902">
        <ele>213</ele>
        <time>2010-11-23T18:26:25Z</time>
      </trkpt>
      <trkpt lat="45.79058" lon="4.87905">
        <ele>213</ele>
        <time>2010-11-23T18:26:26Z</time>
      </trkpt>
      <trkpt lat="45.79061" lon="4.87907">
        <ele>213</ele>
        <time>2010-11-23T18:26:27Z</time>
      </trkpt>
      <trkpt lat="45.79063" lon="4.87908">
        <ele>213</ele>
        <time>2010-11-23T18:26:28Z</time>
      </trkpt>
      <trkpt lat="45.79065" lon="4.8791">
        <ele>213</ele>
        <time>2010-11-23T18:26:29Z</time>
      </trkpt>
      <trkpt lat="45.79067" lon="4.87913">
        <ele>213</ele>
        <time>2010-11-23T18:26:30Z</time>
      </trkpt>
      <trkpt lat="45.79069" lon="4.87915">
        <ele>213</ele>
        <time>2010-11-23T18:26:31Z</time>
      </trkpt>
      <trkpt lat="45.79072" lon="4.87917">
        <ele>213</ele>
        <time>2010-11-23T18:26:32Z</time>
      </trkpt>
      <trkpt lat="45.79074" lon="4.87919">
        <ele>213</ele>
        <time>2010-11-23T18:26:33Z</time>
      </trkpt>
      <trkpt lat="45.79076" lon="4.87921">
        <ele>213</ele>
        <time>2010-11-23T18:26:34Z</time>
      </trkpt>
      <trkpt lat="45.79079" lon="4.87924">
        <ele>213</ele>
        <time>2010-11-23T18:26:35Z</time>
      </trkpt>
      <trkpt lat="45.79081" lon="4.87926">
        <ele>213</ele>
        <time>2010-11-23T18:26:36Z</time>
      </trkpt>
      <trkpt lat="45.79083" lon="4.87928">
        <ele>213</ele>
        <time>2010-11-23T18:26:37Z</time>
      </trkpt>
      <trkpt lat="45.79086" lon="4.8793">
        <ele>213</ele>
        <time>2010-11-23T18:26:38Z</time>
      </trkpt>
      <trkpt lat="45.79088" lon="4.87932">
        <ele>213</ele>
        <time>2010-11-23T18:26:39Z</time>
      </trkpt>
      <trkpt lat="45.7909" lon="4.87935">
        <ele>213</ele>
        <time>2010-11-23T18:26:40Z</time>
      </trkpt>
      <trkpt lat="45.79093" lon="4.87936">
        <ele>213</ele>
        <time>2010-11-23T18:26:41Z</time>
      </trkpt>
      <trkpt lat="45.79095" lon="4.87938">
        <ele>213</ele>
        <time>2010-11-23T18:26:42Z</time>
      </trkpt>
      <trkpt lat="45.79098" lon="4.8794">
        <ele>213</ele>
        <time>2010-11-23T18:26:43Z</time>
      </trkpt>
      <trkpt lat="45.791" lon="4.87943">
        <ele>213</ele>
        <time>2010-11-23T18:26:44Z</time>
      </trkpt>
      <trkpt lat="45.79102" lon="4.87945">
        <ele>213</ele>
        <time>2010-11-23T18:26:45Z</time>
      </trkpt>
      <trkpt lat="45.79104" lon="4.87947">
        <ele>213</ele>
        <time>2010-11-23T18:26:46Z</time>
      </trkpt>
      <trkpt lat="45.79107" lon="4.87949">
        <ele>213</ele>
        <time>2010-11-23T18:26:47Z</time>
      </trkpt>
      <trkpt lat="45.7911" lon="4.87951">
        <ele>213</ele>
        <time>2010-11-23T18:26:48Z</time>
      </trkpt>
      <trkpt lat="45.79112" lon="4.87953">
        <ele>213</ele>
        <time>2010-11-23T18:26:49Z</time>
      </trkpt>
      <trkpt lat="45.79114" lon="4.87955">
        <ele>213</ele>
        <time>2010-11-23T18:26:50Z</time>
      </trkpt>
      <trkpt lat="45.79117" lon="4.87957">
        <ele>213</ele>
        <time>2010-11-23T18:26:51Z</time>
      </trkpt>
      <trkpt lat="45.79119" lon="4.87959">
        <ele>213</ele>
        <time>2010-11-23T18:26:52Z</time>
      </trkpt>
      <trkpt lat="45.79121" lon="4.87961">
        <ele>213</ele>
        <time>2010-11-23T18:26:53Z</time>
      </trkpt>
      <trkpt lat="45.79123" lon="4.87964">
        <ele>213</ele>
        <time>2010-11-23T18:26:54Z</time>
      </trkpt>
      <trkpt lat="45.79126" lon="4.87966">
        <ele>213</ele>
        <time>2010-11-23T18:26:55Z</time>
      </trkpt>
      <trkpt lat="45.79128" lon="4.87968">
        <ele>213</ele>
        <time>2010-11-23T18:26:56Z</time>
      </trkpt>
      <trkpt lat="45.7913" lon="4.8797">
        <ele>213</ele>
        <time>2010-11-23T18:26:57Z</time>
      </trkpt>
      <trkpt lat="45.79133" lon="4.87972">
        <ele>213</ele>
        <time>2010-11-23T18:26:58Z</time>
      </trkpt>
      <trkpt lat="45.79135" lon="4.87974">
        <ele>213</ele>
        <time>2010-11-23T18:26:59Z</time>
      </trkpt>
      <trkpt lat="45.79137" lon="4.87976">
        <ele>213</ele>
        <time>2010-11-23T18:27:00Z</time>
      </trkpt>
      <trkpt lat="45.7914" lon="4.87978">
        <ele>213</ele>
        <time>2010-11-23T18:27:01Z</time>
      </trkpt>
      <trkpt lat="45.79142" lon="4.8798">
        <ele>213</ele>
        <time>2010-11-23T18:27:02Z</time>
      </trkpt>
      <trkpt lat="45.79144" lon="4.87982">
        <ele>212</ele>
        <time>2010-11-23T18:27:03Z</time>
      </trkpt>
      <trkpt lat="45.79147" lon="4.87985">
        <ele>212</ele>
        <time>2010-11-23T18:27:04Z</time>
      </trkpt>
      <trkpt lat="45.79149" lon="4.87987">
        <ele>212</ele>
        <time>2010-11-23T18:27:05Z</time>
      </trkpt>
      <trkpt lat="45.79151" lon="4.87989">
        <ele>212</ele>
        <time>2010-11-23T18:27:06Z</time>
      </trkpt>
      <trkpt lat="45.79154" lon="4.87991">
        <ele>213</ele>
        <time>2010-11-23T18:27:07Z</time>
      </trkpt>
      <trkpt lat="45.79156" lon="4.87994">
        <ele>212</ele>
        <time>2010-11-23T18:27:08Z</time>
      </trkpt>
      <trkpt lat="45.79158" lon="4.87996">
        <ele>212</ele>
        <time>2010-11-23T18:27:09Z</time>
      </trkpt>
      <trkpt lat="45.79161" lon="4.87998">
        <ele>212</ele>
        <time>2010-11-23T18:27:10Z</time>
      </trkpt>
      <trkpt lat="45.79163" lon="4.88">
        <ele>212</ele>
        <time>2010-11-23T18:27:11Z</time>
      </trkpt>
      <trkpt lat="45.79165" lon="4.88003">
        <ele>212</ele>
        <time>2010-11-23T18:27:12Z</time>
      </trkpt>
      <trkpt lat="45.79167" lon="4.88005">
        <ele>212</ele>
        <time>2010-11-23T18:27:13Z</time>
      </trkpt>
      <trkpt lat="45.79169" lon="4.88007">
        <ele>213</ele>
        <time>2010-11-23T18:27:14Z</time>
      </trkpt>
      <trkpt lat="45.79171" lon="4.88009">
        <ele>213</ele>
        <time>2010-11-23T18:27:15Z</time>
      </trkpt>
      <trkpt lat="45.79174" lon="4.88011">
        <ele>212</ele>
        <time>2010-11-23T18:27:16Z</time>
      </trkpt>
      <trkpt lat="45.79176" lon="4.88012">
        <ele>212</ele>
        <time>2010-11-23T18:27:17Z</time>
      </trkpt>
      <trkpt lat="45.79178" lon="4.88015">
        <ele>212</ele>
        <time>2010-11-23T18:27:18Z</time>
      </trkpt>
      <trkpt lat="45.7918" lon="4.88017">
        <ele>212</ele>
        <time>2010-11-23T18:27:19Z</time>
      </trkpt>
      <trkpt lat="45.79183" lon="4.8802">
        <ele>212</ele>
        <time>2010-11-23T18:27:20Z</time>
      </trkpt>
      <trkpt lat="45.79186" lon="4.88022">
        <ele>212</ele>
        <time>2010-11-23T18:27:21Z</time>
      </trkpt>
      <trkpt lat="45.79188" lon="4.88024">
        <ele>212</ele>
        <time>2010-11-23T18:27:22Z</time>
      </trkpt>
      <trkpt lat="45.79191" lon="4.88026">
        <ele>212</ele>
        <time>2010-11-23T18:27:23Z</time>
      </trkpt>
      <trkpt lat="45.79193" lon="4.88028">
        <ele>212</ele>
        <time>2010-11-23T18:27:24Z</time>
      </trkpt>
      <trkpt lat="45.79195" lon="4.8803">
        <ele>212</ele>
        <time>2010-11-23T18:27:25Z</time>
      </trkpt>
      <trkpt lat="45.79198" lon="4.88032">
        <ele>212</ele>
        <time>2010-11-23T18:27:26Z</time>
      </trkpt>
      <trkpt lat="45.792" lon="4.88034">
        <ele>212</ele>
        <time>2010-11-23T18:27:27Z</time>
      </trkpt>
      <trkpt lat="45.79202" lon="4.88035">
        <ele>212</ele>
        <time>2010-11-23T18:27:28Z</time>
      </trkpt>
      <trkpt lat="45.79205" lon="4.88038">
        <ele>212</ele>
        <time>2010-11-23T18:27:29Z</time>
      </trkpt>
      <trkpt lat="45.79207" lon="4.88039">
        <ele>212</ele>
        <time>2010-11-23T18:27:30Z</time>
      </trkpt>
      <trkpt lat="45.79209" lon="4.88041">
        <ele>213</ele>
        <time>2010-11-23T18:27:31Z</time>
      </trkpt>
      <trkpt lat="45.79212" lon="4.88043">
        <ele>213</ele>
        <time>2010-11-23T18:27:32Z</time>
      </trkpt>
      <trkpt lat="45.79215" lon="4.88045">
        <ele>213</ele>
        <time>2010-11-23T18:27:33Z</time>
      </trkpt>
      <trkpt lat="45.79217" lon="4.88047">
        <ele>213</ele>
        <time>2010-11-23T18:27:34Z</time>
      </trkpt>
      <trkpt lat="45.7922" lon="4.88048">
        <ele>213</ele>
        <time>2010-11-23T18:27:35Z</time>
      </trkpt>
      <trkpt lat="45.79222" lon="4.8805">
        <ele>212</ele>
        <time>2010-11-23T18:27:36Z</time>
      </trkpt>
      <trkpt lat="45.79224" lon="4.88052">
        <ele>212</ele>
        <time>2010-11-23T18:27:37Z</time>
      </trkpt>
      <trkpt lat="45.79227" lon="4.88053">
        <ele>212</ele>
        <time>2010-11-23T18:27:38Z</time>
      </trkpt>
      <trkpt lat="45.79229" lon="4.88055">
        <ele>212</ele>
        <time>2010-11-23T18:27:39Z</time>
      </trkpt>
      <trkpt lat="45.79232" lon="4.88056">
        <ele>213</ele>
        <time>2010-11-23T18:27:40Z</time>
      </trkpt>
      <trkpt lat="45.79234" lon="4.88057">
        <ele>213</ele>
        <time>2010-11-23T18:27:41Z</time>
      </trkpt>
      <trkpt lat="45.79237" lon="4.88059">
        <ele>213</ele>
        <time>2010-11-23T18:27:42Z</time>
      </trkpt>
      <trkpt lat="45.79239" lon="4.8806">
        <ele>213</ele>
        <time>2010-11-23T18:27:43Z</time>
      </trkpt>
      <trkpt lat="45.79242" lon="4.88062">
        <ele>213</ele>
        <time>2010-11-23T18:27:44Z</time>
      </trkpt>
      <trkpt lat="45.79244" lon="4.88063">
        <ele>213</ele>
        <time>2010-11-23T18:27:45Z</time>
      </trkpt>
      <trkpt lat="45.79246" lon="4.88064">
        <ele>212</ele>
        <time>2010-11-23T18:27:46Z</time>
      </trkpt>
      <trkpt lat="45.79249" lon="4.88066">
        <ele>212</ele>
        <time>2010-11-23T18:27:47Z</time>
      </trkpt>
      <trkpt lat="45.79251" lon="4.88068">
        <ele>212</ele>
        <time>2010-11-23T18:27:48Z</time>
      </trkpt>
      <trkpt lat="45.79253" lon="4.8807">
        <ele>213</ele>
        <time>2010-11-23T18:27:49Z</time>
      </trkpt>
      <trkpt lat="45.79255" lon="4.88072">
        <ele>212</ele>
        <time>2010-11-23T18:27:50Z</time>
      </trkpt>
      <trkpt lat="45.79256" lon="4.88076">
        <ele>213</ele>
        <time>2010-11-23T18:27:51Z</time>
      </trkpt>
      <trkpt lat="45.79257" lon="4.88079">
        <ele>213</ele>
        <time>2010-11-23T18:27:52Z</time>
      </trkpt>
      <trkpt lat="45.79257" lon="4.88084">
        <ele>213</ele>
        <time>2010-11-23T18:27:53Z</time>
      </trkpt>
      <trkpt lat="45.79254" lon="4.88088">
        <ele>214</ele>
        <time>2010-11-23T18:27:54Z</time>
      </trkpt>
      <trkpt lat="45.79251" lon="4.88089">
        <ele>212</ele>
        <time>2010-11-23T18:27:55Z</time>
      </trkpt>
      <trkpt lat="45.79247" lon="4.88091">
        <ele>213</ele>
        <time>2010-11-23T18:27:56Z</time>
      </trkpt>
      <trkpt lat="45.79244" lon="4.88093">
        <ele>214</ele>
        <time>2010-11-23T18:27:57Z</time>
      </trkpt>
      <trkpt lat="45.79241" lon="4.88095">
        <ele>214</ele>
        <time>2010-11-23T18:27:58Z</time>
      </trkpt>
      <trkpt lat="45.79238" lon="4.88097">
        <ele>214</ele>
        <time>2010-11-23T18:27:59Z</time>
      </trkpt>
      <trkpt lat="45.79236" lon="4.88098">
        <ele>213</ele>
        <time>2010-11-23T18:28:00Z</time>
      </trkpt>
      <trkpt lat="45.79234" lon="4.88099">
        <ele>213</ele>
        <time>2010-11-23T18:28:01Z</time>
      </trkpt>
      <trkpt lat="45.7923" lon="4.88099">
        <ele>214</ele>
        <time>2010-11-23T18:28:02Z</time>
      </trkpt>
      <trkpt lat="45.79228" lon="4.881">
        <ele>214</ele>
        <time>2010-11-23T18:28:03Z</time>
      </trkpt>
      <trkpt lat="45.79225" lon="4.88101">
        <ele>214</ele>
        <time>2010-11-23T18:28:04Z</time>
      </trkpt>
      <trkpt lat="45.79223" lon="4.88103">
        <ele>214</ele>
        <time>2010-11-23T18:28:05Z</time>
      </trkpt>
      <trkpt lat="45.7922" lon="4.88105">
        <ele>214</ele>
        <time>2010-11-23T18:28:06Z</time>
      </trkpt>
      <trkpt lat="45.79217" lon="4.88107">
        <ele>214</ele>
        <time>2010-11-23T18:28:07Z</time>
      </trkpt>
      <trkpt lat="45.79215" lon="4.88108">
        <ele>214</ele>
        <time>2010-11-23T18:28:08Z</time>
      </trkpt>
      <trkpt lat="45.79212" lon="4.88111">
        <ele>214</ele>
        <time>2010-11-23T18:28:09Z</time>
      </trkpt>
      <trkpt lat="45.7921" lon="4.88113">
        <ele>214</ele>
        <time>2010-11-23T18:28:10Z</time>
      </trkpt>
      <trkpt lat="45.79208" lon="4.88115">
        <ele>214</ele>
        <time>2010-11-23T18:28:11Z</time>
      </trkpt>
      <trkpt lat="45.79206" lon="4.88116">
        <ele>214</ele>
        <time>2010-11-23T18:28:12Z</time>
      </trkpt>
      <trkpt lat="45.79203" lon="4.88118">
        <ele>215</ele>
        <time>2010-11-23T18:28:13Z</time>
      </trkpt>
      <trkpt lat="45.79201" lon="4.8812">
        <ele>214</ele>
        <time>2010-11-23T18:28:14Z</time>
      </trkpt>
      <trkpt lat="45.792" lon="4.88122">
        <ele>214</ele>
        <time>2010-11-23T18:28:15Z</time>
      </trkpt>
      <trkpt lat="45.79197" lon="4.88123">
        <ele>215</ele>
        <time>2010-11-23T18:28:16Z</time>
      </trkpt>
      <trkpt lat="45.79195" lon="4.88124">
        <ele>216</ele>
        <time>2010-11-23T18:28:17Z</time>
      </trkpt>
      <trkpt lat="45.79193" lon="4.88126">
        <ele>216</ele>
        <time>2010-11-23T18:28:18Z</time>
      </trkpt>
      <trkpt lat="45.7919" lon="4.88127">
        <ele>216</ele>
        <time>2010-11-23T18:28:19Z</time>
      </trkpt>
      <trkpt lat="45.79187" lon="4.88128">
        <ele>215</ele>
        <time>2010-11-23T18:28:20Z</time>
      </trkpt>
      <trkpt lat="45.79185" lon="4.8813">
        <ele>215</ele>
        <time>2010-11-23T18:28:21Z</time>
      </trkpt>
      <trkpt lat="45.79182" lon="4.88131">
        <ele>215</ele>
        <time>2010-11-23T18:28:22Z</time>
      </trkpt>
      <trkpt lat="45.79179" lon="4.88133">
        <ele>215</ele>
        <time>2010-11-23T18:28:23Z</time>
      </trkpt>
      <trkpt lat="45.79176" lon="4.88134">
        <ele>216</ele>
        <time>2010-11-23T18:28:24Z</time>
      </trkpt>
      <trkpt lat="45.79173" lon="4.88135">
        <ele>216</ele>
        <time>2010-11-23T18:28:25Z</time>
      </trkpt>
      <trkpt lat="45.7917" lon="4.88136">
        <ele>216</ele>
        <time>2010-11-23T18:28:26Z</time>
      </trkpt>
      <trkpt lat="45.79166" lon="4.88138">
        <ele>216</ele>
        <time>2010-11-23T18:28:27Z</time>
      </trkpt>
      <trkpt lat="45.79163" lon="4.88139">
        <ele>216</ele>
        <time>2010-11-23T18:28:28Z</time>
      </trkpt>
      <trkpt lat="45.79161" lon="4.8814">
        <ele>216</ele>
        <time>2010-11-23T18:28:29Z</time>
      </trkpt>
      <trkpt lat="45.79158" lon="4.8814">
        <ele>216</ele>
        <time>2010-11-23T18:28:30Z</time>
      </trkpt>
      <trkpt lat="45.79155" lon="4.8814">
        <ele>215</ele>
        <time>2010-11-23T18:28:31Z</time>
      </trkpt>
      <trkpt lat="45.79151" lon="4.88141">
        <ele>215</ele>
        <time>2010-11-23T18:28:32Z</time>
      </trkpt>
      <trkpt lat="45.79148" lon="4.8814">
        <ele>216</ele>
        <time>2010-11-23T18:28:33Z</time>
      </trkpt>
      <trkpt lat="45.79146" lon="4.88142">
        <ele>216</ele>
        <time>2010-11-23T18:28:34Z</time>
      </trkpt>
      <trkpt lat="45.79143" lon="4.88141">
        <ele>217</ele>
        <time>2010-11-23T18:28:35Z</time>
      </trkpt>
      <trkpt lat="45.79141" lon="4.88143">
        <ele>218</ele>
        <time>2010-11-23T18:28:36Z</time>
      </trkpt>
      <trkpt lat="45.79139" lon="4.88145">
        <ele>218</ele>
        <time>2010-11-23T18:28:37Z</time>
      </trkpt>
      <trkpt lat="45.79136" lon="4.88148">
        <ele>218</ele>
        <time>2010-11-23T18:28:38Z</time>
      </trkpt>
      <trkpt lat="45.79134" lon="4.8815">
        <ele>219</ele>
        <time>2010-11-23T18:28:39Z</time>
      </trkpt>
      <trkpt lat="45.79132" lon="4.88153">
        <ele>219</ele>
        <time>2010-11-23T18:28:40Z</time>
      </trkpt>
      <trkpt lat="45.79129" lon="4.88156">
        <ele>219</ele>
        <time>2010-11-23T18:28:41Z</time>
      </trkpt>
      <trkpt lat="45.79127" lon="4.88158">
        <ele>219</ele>
        <time>2010-11-23T18:28:42Z</time>
      </trkpt>
      <trkpt lat="45.79125" lon="4.88162">
        <ele>219</ele>
        <time>2010-11-23T18:28:43Z</time>
      </trkpt>
      <trkpt lat="45.79124" lon="4.88165">
        <ele>220</ele>
        <time>2010-11-23T18:28:44Z</time>
      </trkpt>
      <trkpt lat="45.79122" lon="4.88169">
        <ele>221</ele>
        <time>2010-11-23T18:28:45Z</time>
      </trkpt>
      <trkpt lat="45.79121" lon="4.88173">
        <ele>221</ele>
        <time>2010-11-23T18:28:46Z</time>
      </trkpt>
      <trkpt lat="45.79119" lon="4.88177">
        <ele>221</ele>
        <time>2010-11-23T18:28:47Z</time>
      </trkpt>
      <trkpt lat="45.79118" lon="4.8818">
        <ele>221</ele>
        <time>2010-11-23T18:28:48Z</time>
      </trkpt>
      <trkpt lat="45.79116" lon="4.88184">
        <ele>220</ele>
        <time>2010-11-23T18:28:49Z</time>
      </trkpt>
      <trkpt lat="45.79115" lon="4.88188">
        <ele>220</ele>
        <time>2010-11-23T18:28:50Z</time>
      </trkpt>
      <trkpt lat="45.79113" lon="4.88191">
        <ele>220</ele>
        <time>2010-11-23T18:28:51Z</time>
      </trkpt>
      <trkpt lat="45.79113" lon="4.88196">
        <ele>220</ele>
        <time>2010-11-23T18:28:52Z</time>
      </trkpt>
      <trkpt lat="45.79113" lon="4.882">
        <ele>220</ele>
        <time>2010-11-23T18:28:53Z</time>
      </trkpt>
      <trkpt lat="45.79113" lon="4.88205">
        <ele>220</ele>
        <time>2010-11-23T18:28:54Z</time>
      </trkpt>
      <trkpt lat="45.79112" lon="4.88209">
        <ele>220</ele>
        <time>2010-11-23T18:28:55Z</time>
      </trkpt>
      <trkpt lat="45.79113" lon="4.88214">
        <ele>220</ele>
        <time>2010-11-23T18:28:56Z</time>
      </trkpt>
      <trkpt lat="45.79113" lon="4.88217">
        <ele>220</ele>
        <time>2010-11-23T18:28:57Z</time>
      </trkpt>
      <trkpt lat="45.79114" lon="4.88221">
        <ele>219</ele>
        <time>2010-11-23T18:28:58Z</time>
      </trkpt>
      <trkpt lat="45.79116" lon="4.88225">
        <ele>220</ele>
        <time>2010-11-23T18:28:59Z</time>
      </trkpt>
      <trkpt lat="45.79117" lon="4.88229">
        <ele>220</ele>
        <time>2010-11-23T18:29:00Z</time>
      </trkpt>
      <trkpt lat="45.79118" lon="4.88233">
        <ele>220</ele>
        <time>2010-11-23T18:29:01Z</time>
      </trkpt>
      <trkpt lat="45.7912" lon="4.88236">
        <ele>220</ele>
        <time>2010-11-23T18:29:02Z</time>
      </trkpt>
      <trkpt lat="45.79122" lon="4.88239">
        <ele>220</ele>
        <time>2010-11-23T18:29:03Z</time>
      </trkpt>
      <trkpt lat="45.79124" lon="4.88243">
        <ele>220</ele>
        <time>2010-11-23T18:29:04Z</time>
      </trkpt>
      <trkpt lat="45.79125" lon="4.88246">
        <ele>219</ele>
        <time>2010-11-23T18:29:05Z</time>
      </trkpt>
      <trkpt lat="45.79126" lon="4.88249">
        <ele>220</ele>
        <time>2010-11-23T18:29:06Z</time>
      </trkpt>
      <trkpt lat="45.79126" lon="4.88253">
        <ele>220</ele>
        <time>2010-11-23T18:29:07Z</time>
      </trkpt>
      <trkpt lat="45.79126" lon="4.88257">
        <ele>220</ele>
        <time>2010-11-23T18:29:08Z</time>
      </trkpt>
      <trkpt lat="45.79126" lon="4.88261">
        <ele>220</ele>
        <time>2010-11-23T18:29:09Z</time>
      </trkpt>
      <trkpt lat="45.79126" lon="4.88266">
        <ele>220</ele>
        <time>2010-11-23T18:29:10Z</time>
      </trkpt>
      <trkpt lat="45.79126" lon="4.8827">
        <ele>220</ele>
        <time>2010-11-23T18:29:11Z</time>
      </trkpt>
      <trkpt lat="45.79125" lon="4.88274">
        <ele>220</ele>
        <time>2010-11-23T18:29:12Z</time>
      </trkpt>
      <trkpt lat="45.79123" lon="4.88277">
        <ele>220</ele>
        <time>2010-11-23T18:29:13Z</time>
      </trkpt>
      <trkpt lat="45.79121" lon="4.88281">
        <ele>220</ele>
        <time>2010-11-23T18:29:14Z</time>
      </trkpt>
      <trkpt lat="45.7912" lon="4.88284">
        <ele>220</ele>
        <time>2010-11-23T18:29:15Z</time>
      </trkpt>
      <trkpt lat="45.79119" lon="4.88288">
        <ele>220</ele>
        <time>2010-11-23T18:29:16Z</time>
      </trkpt>
      <trkpt lat="45.79118" lon="4.8829">
        <ele>220</ele>
        <time>2010-11-23T18:29:17Z</time>
      </trkpt>
      <trkpt lat="45.79117" lon="4.88293">
        <ele>219</ele>
        <time>2010-11-23T18:29:18Z</time>
      </trkpt>
      <trkpt lat="45.79117" lon="4.88298">
        <ele>219</ele>
        <time>2010-11-23T18:29:19Z</time>
      </trkpt>
      <trkpt lat="45.79116" lon="4.88302">
        <ele>219</ele>
        <time>2010-11-23T18:29:20Z</time>
      </trkpt>
      <trkpt lat="45.79116" lon="4.88306">
        <ele>218</ele>
        <time>2010-11-23T18:29:21Z</time>
      </trkpt>
      <trkpt lat="45.79114" lon="4.8831">
        <ele>218</ele>
        <time>2010-11-23T18:29:22Z</time>
      </trkpt>
      <trkpt lat="45.79113" lon="4.88313">
        <ele>218</ele>
        <time>2010-11-23T18:29:23Z</time>
      </trkpt>
      <trkpt lat="45.79111" lon="4.88317">
        <ele>218</ele>
        <time>2010-11-23T18:29:24Z</time>
      </trkpt>
      <trkpt lat="45.79109" lon="4.88319">
        <ele>218</ele>
        <time>2010-11-23T18:29:25Z</time>
      </trkpt>
      <trkpt lat="45.79105" lon="4.8832">
        <ele>218</ele>
        <time>2010-11-23T18:29:26Z</time>
      </trkpt>
      <trkpt lat="45.79103" lon="4.88323">
        <ele>218</ele>
        <time>2010-11-23T18:29:27Z</time>
      </trkpt>
      <trkpt lat="45.791" lon="4.88326">
        <ele>218</ele>
        <time>2010-11-23T18:29:28Z</time>
      </trkpt>
      <trkpt lat="45.79097" lon="4.88329">
        <ele>219</ele>
        <time>2010-11-23T18:29:29Z</time>
      </trkpt>
      <trkpt lat="45.79095" lon="4.88332">
        <ele>219</ele>
        <time>2010-11-23T18:29:30Z</time>
      </trkpt>
      <trkpt lat="45.79093" lon="4.88335">
        <ele>218</ele>
        <time>2010-11-23T18:29:31Z</time>
      </trkpt>
      <trkpt lat="45.79091" lon="4.88338">
        <ele>218</ele>
        <time>2010-11-23T18:29:32Z</time>
      </trkpt>
      <trkpt lat="45.79089" lon="4.88341">
        <ele>218</ele>
        <time>2010-11-23T18:29:33Z</time>
      </trkpt>
      <trkpt lat="45.79087" lon="4.88344">
        <ele>218</ele>
        <time>2010-11-23T18:29:34Z</time>
      </trkpt>
      <trkpt lat="45.79084" lon="4.88347">
        <ele>218</ele>
        <time>2010-11-23T18:29:35Z</time>
      </trkpt>
      <trkpt lat="45.79083" lon="4.8835">
        <ele>218</ele>
        <time>2010-11-23T18:29:36Z</time>
      </trkpt>
      <trkpt lat="45.79081" lon="4.88352">
        <ele>218</ele>
        <time>2010-11-23T18:29:37Z</time>
      </trkpt>
      <trkpt lat="45.79077" lon="4.88356">
        <ele>219</ele>
        <time>2010-11-23T18:29:38Z</time>
      </trkpt>
      <trkpt lat="45.79075" lon="4.88357">
        <ele>218</ele>
        <time>2010-11-23T18:29:39Z</time>
      </trkpt>
      <trkpt lat="45.79073" lon="4.8836">
        <ele>219</ele>
        <time>2010-11-23T18:29:40Z</time>
      </trkpt>
      <trkpt lat="45.79069" lon="4.88362">
        <ele>218</ele>
        <time>2010-11-23T18:29:41Z</time>
      </trkpt>
      <trkpt lat="45.79067" lon="4.88365">
        <ele>218</ele>
        <time>2010-11-23T18:29:42Z</time>
      </trkpt>
      <trkpt lat="45.79064" lon="4.88368">
        <ele>218</ele>
        <time>2010-11-23T18:29:43Z</time>
      </trkpt>
      <trkpt lat="45.79061" lon="4.8837">
        <ele>218</ele>
        <time>2010-11-23T18:29:44Z</time>
      </trkpt>
      <trkpt lat="45.79058" lon="4.88371">
        <ele>218</ele>
        <time>2010-11-23T18:29:45Z</time>
      </trkpt>
      <trkpt lat="45.79054" lon="4.8837">
        <ele>218</ele>
        <time>2010-11-23T18:29:46Z</time>
      </trkpt>
      <trkpt lat="45.79051" lon="4.8837">
        <ele>218</ele>
        <time>2010-11-23T18:29:47Z</time>
      </trkpt>
      <trkpt lat="45.79047" lon="4.8837">
        <ele>218</ele>
        <time>2010-11-23T18:29:48Z</time>
      </trkpt>
      <trkpt lat="45.79045" lon="4.8837">
        <ele>217</ele>
        <time>2010-11-23T18:29:49Z</time>
      </trkpt>
      <trkpt lat="45.79041" lon="4.8837">
        <ele>217</ele>
        <time>2010-11-23T18:29:50Z</time>
      </trkpt>
      <trkpt lat="45.79038" lon="4.88365">
        <ele>217</ele>
        <time>2010-11-23T18:29:51Z</time>
      </trkpt>
      <trkpt lat="45.79036" lon="4.88361">
        <ele>218</ele>
        <time>2010-11-23T18:29:52Z</time>
      </trkpt>
      <trkpt lat="45.79034" lon="4.88358">
        <ele>218</ele>
        <time>2010-11-23T18:29:53Z</time>
      </trkpt>
      <trkpt lat="45.79032" lon="4.88356">
        <ele>218</ele>
        <time>2010-11-23T18:29:54Z</time>
      </trkpt>
      <trkpt lat="45.79029" lon="4.88356">
        <ele>218</ele>
        <time>2010-11-23T18:29:55Z</time>
      </trkpt>
      <trkpt lat="45.79027" lon="4.88353">
        <ele>218</ele>
        <time>2010-11-23T18:29:56Z</time>
      </trkpt>
      <trkpt lat="45.79024" lon="4.88352">
        <ele>218</ele>
        <time>2010-11-23T18:29:57Z</time>
      </trkpt>
      <trkpt lat="45.79022" lon="4.88351">
        <ele>218</ele>
        <time>2010-11-23T18:29:58Z</time>
      </trkpt>
      <trkpt lat="45.79019" lon="4.88352">
        <ele>218</ele>
        <time>2010-11-23T18:29:59Z</time>
      </trkpt>
      <trkpt lat="45.79017" lon="4.88351">
        <ele>218</ele>
        <time>2010-11-23T18:30:00Z</time>
      </trkpt>
      <trkpt lat="45.79014" lon="4.88351">
        <ele>218</ele>
        <time>2010-11-23T18:30:01Z</time>
      </trkpt>
      <trkpt lat="45.7901" lon="4.8835">
        <ele>217</ele>
        <time>2010-11-23T18:30:02Z</time>
      </trkpt>
      <trkpt lat="45.79008" lon="4.88351">
        <ele>217</ele>
        <time>2010-11-23T18:30:03Z</time>
      </trkpt>
      <trkpt lat="45.79004" lon="4.88352">
        <ele>217</ele>
        <time>2010-11-23T18:30:04Z</time>
      </trkpt>
      <trkpt lat="45.79" lon="4.8835">
        <ele>217</ele>
        <time>2010-11-23T18:30:05Z</time>
      </trkpt>
      <trkpt lat="45.78997" lon="4.88349">
        <ele>218</ele>
        <time>2010-11-23T18:30:06Z</time>
      </trkpt>
      <trkpt lat="45.78995" lon="4.88352">
        <ele>219</ele>
        <time>2010-11-23T18:30:07Z</time>
      </trkpt>
      <trkpt lat="45.78992" lon="4.88352">
        <ele>219</ele>
        <time>2010-11-23T18:30:08Z</time>
      </trkpt>
      <trkpt lat="45.78989" lon="4.88354">
        <ele>219</ele>
        <time>2010-11-23T18:30:09Z</time>
      </trkpt>
      <trkpt lat="45.78986" lon="4.88355">
        <ele>219</ele>
        <time>2010-11-23T18:30:10Z</time>
      </trkpt>
      <trkpt lat="45.78984" lon="4.88356">
        <ele>219</ele>
        <time>2010-11-23T18:30:11Z</time>
      </trkpt>
      <trkpt lat="45.78981" lon="4.88358">
        <ele>219</ele>
        <time>2010-11-23T18:30:12Z</time>
      </trkpt>
      <trkpt lat="45.7898" lon="4.88358">
        <ele>220</ele>
        <time>2010-11-23T18:30:13Z</time>
      </trkpt>
      <trkpt lat="45.78977" lon="4.88358">
        <ele>220</ele>
        <time>2010-11-23T18:30:14Z</time>
      </trkpt>
      <trkpt lat="45.78974" lon="4.88358">
        <ele>220</ele>
        <time>2010-11-23T18:30:15Z</time>
      </trkpt>
      <trkpt lat="45.7897" lon="4.88357">
        <ele>220</ele>
        <time>2010-11-23T18:30:16Z</time>
      </trkpt>
      <trkpt lat="45.78967" lon="4.8836">
        <ele>220</ele>
        <time>2010-11-23T18:30:17Z</time>
      </trkpt>
      <trkpt lat="45.78964" lon="4.88362">
        <ele>219</ele>
        <time>2010-11-23T18:30:18Z</time>
      </trkpt>
      <trkpt lat="45.78962" lon="4.88364">
        <ele>219</ele>
        <time>2010-11-23T18:30:19Z</time>
      </trkpt>
      <trkpt lat="45.7896" lon="4.88366">
        <ele>219</ele>
        <time>2010-11-23T18:30:20Z</time>
      </trkpt>
      <trkpt lat="45.78959" lon="4.88369">
        <ele>219</ele>
        <time>2010-11-23T18:30:21Z</time>
      </trkpt>
      <trkpt lat="45.78958" lon="4.88372">
        <ele>219</ele>
        <time>2010-11-23T18:30:22Z</time>
      </trkpt>
      <trkpt lat="45.78956" lon="4.88374">
        <ele>219</ele>
        <time>2010-11-23T18:30:23Z</time>
      </trkpt>
      <trkpt lat="45.78955" lon="4.88378">
        <ele>219</ele>
        <time>2010-11-23T18:30:24Z</time>
      </trkpt>
      <trkpt lat="45.78955" lon="4.88381">
        <ele>219</ele>
        <time>2010-11-23T18:30:25Z</time>
      </trkpt>
      <trkpt lat="45.78954" lon="4.88385">
        <ele>219</ele>
        <time>2010-11-23T18:30:26Z</time>
      </trkpt>
      <trkpt lat="45.78952" lon="4.88388">
        <ele>218</ele>
        <time>2010-11-23T18:30:27Z</time>
      </trkpt>
      <trkpt lat="45.7895" lon="4.8839">
        <ele>218</ele>
        <time>2010-11-23T18:30:28Z</time>
      </trkpt>
      <trkpt lat="45.78949" lon="4.88393">
        <ele>218</ele>
        <time>2010-11-23T18:30:29Z</time>
      </trkpt>
      <trkpt lat="45.78947" lon="4.88394">
        <ele>218</ele>
        <time>2010-11-23T18:30:30Z</time>
      </trkpt>
      <trkpt lat="45.78944" lon="4.88396">
        <ele>219</ele>
        <time>2010-11-23T18:30:31Z</time>
      </trkpt>
      <trkpt lat="45.78942" lon="4.88398">
        <ele>219</ele>
        <time>2010-11-23T18:30:32Z</time>
      </trkpt>
      <trkpt lat="45.7894" lon="4.88399">
        <ele>219</ele>
        <time>2010-11-23T18:30:33Z</time>
      </trkpt>
      <trkpt lat="45.78938" lon="4.88399">
        <ele>219</ele>
        <time>2010-11-23T18:30:34Z</time>
      </trkpt>
      <trkpt lat="45.78935" lon="4.884">
        <ele>219</ele>
        <time>2010-11-23T18:30:35Z</time>
      </trkpt>
      <trkpt lat="45.78933" lon="4.88398">
        <ele>218</ele>
        <time>2010-11-23T18:30:36Z</time>
      </trkpt>
      <trkpt lat="45.7893" lon="4.88399">
        <ele>219</ele>
        <time>2010-11-23T18:30:37Z</time>
      </trkpt>
      <trkpt lat="45.78927" lon="4.88396">
        <ele>219</ele>
        <time>2010-11-23T18:30:38Z</time>
      </trkpt>
      <trkpt lat="45.78925" lon="4.88396">
        <ele>219</ele>
        <time>2010-11-23T18:30:39Z</time>
      </trkpt>
      <trkpt lat="45.78921" lon="4.88397">
        <ele>219</ele>
        <time>2010-11-23T18:30:40Z</time>
      </trkpt>
      <trkpt lat="45.78918" lon="4.88395">
        <ele>221</ele>
        <time>2010-11-23T18:30:41Z</time>
      </trkpt>
      <trkpt lat="45.78915" lon="4.88393">
        <ele>221</ele>
        <time>2010-11-23T18:30:42Z</time>
      </trkpt>
      <trkpt lat="45.78913" lon="4.88394">
        <ele>220</ele>
        <time>2010-11-23T18:30:43Z</time>
      </trkpt>
      <trkpt lat="45.7891" lon="4.88395">
        <ele>221</ele>
        <time>2010-11-23T18:30:44Z</time>
      </trkpt>
      <trkpt lat="45.78907" lon="4.88393">
        <ele>221</ele>
        <time>2010-11-23T18:30:45Z</time>
      </trkpt>
      <trkpt lat="45.78904" lon="4.88393">
        <ele>220</ele>
        <time>2010-11-23T18:30:46Z</time>
      </trkpt>
      <trkpt lat="45.78901" lon="4.88392">
        <ele>220</ele>
        <time>2010-11-23T18:30:47Z</time>
      </trkpt>
      <trkpt lat="45.789" lon="4.88392">
        <ele>220</ele>
        <time>2010-11-23T18:30:48Z</time>
      </trkpt>
      <trkpt lat="45.78898" lon="4.88393">
        <ele>221</ele>
        <time>2010-11-23T18:30:49Z</time>
      </trkpt>
      <trkpt lat="45.78895" lon="4.88394">
        <ele>221</ele>
        <time>2010-11-23T18:30:50Z</time>
      </trkpt>
      <trkpt lat="45.78893" lon="4.88393">
        <ele>221</ele>
        <time>2010-11-23T18:30:51Z</time>
      </trkpt>
      <trkpt lat="45.78891" lon="4.88394">
        <ele>220</ele>
        <time>2010-11-23T18:30:52Z</time>
      </trkpt>
      <trkpt lat="45.78888" lon="4.88394">
        <ele>220</ele>
        <time>2010-11-23T18:30:53Z</time>
      </trkpt>
      <trkpt lat="45.78885" lon="4.88393">
        <ele>220</ele>
        <time>2010-11-23T18:30:54Z</time>
      </trkpt>
      <trkpt lat="45.78882" lon="4.88391">
        <ele>219</ele>
        <time>2010-11-23T18:30:55Z</time>
      </trkpt>
      <trkpt lat="45.78879" lon="4.88391">
        <ele>219</ele>
        <time>2010-11-23T18:30:56Z</time>
      </trkpt>
      <trkpt lat="45.78877" lon="4.88388">
        <ele>220</ele>
        <time>2010-11-23T18:30:57Z</time>
      </trkpt>
      <trkpt lat="45.78874" lon="4.88388">
        <ele>220</ele>
        <time>2010-11-23T18:30:58Z</time>
      </trkpt>
      <trkpt lat="45.78873" lon="4.88388">
        <ele>220</ele>
        <time>2010-11-23T18:30:59Z</time>
      </trkpt>
      <trkpt lat="45.7887" lon="4.88388">
        <ele>220</ele>
        <time>2010-11-23T18:31:00Z</time>
      </trkpt>
      <trkpt lat="45.78868" lon="4.88388">
        <ele>221</ele>
        <time>2010-11-23T18:31:01Z</time>
      </trkpt>
      <trkpt lat="45.78865" lon="4.88387">
        <ele>221</ele>
        <time>2010-11-23T18:31:02Z</time>
      </trkpt>
      <trkpt lat="45.78862" lon="4.88388">
        <ele>220</ele>
        <time>2010-11-23T18:31:03Z</time>
      </trkpt>
      <trkpt lat="45.7886" lon="4.8839">
        <ele>219</ele>
        <time>2010-11-23T18:31:04Z</time>
      </trkpt>
      <trkpt lat="45.78857" lon="4.88392">
        <ele>220</ele>
        <time>2010-11-23T18:31:05Z</time>
      </trkpt>
      <trkpt lat="45.78854" lon="4.88393">
        <ele>220</ele>
        <time>2010-11-23T18:31:06Z</time>
      </trkpt>
      <trkpt lat="45.78851" lon="4.88394">
        <ele>219</ele>
        <time>2010-11-23T18:31:07Z</time>
      </trkpt>
      <trkpt lat="45.78852" lon="4.88398">
        <ele>218</ele>
        <time>2010-11-23T18:31:08Z</time>
      </trkpt>
      <trkpt lat="45.78853" lon="4.88401">
        <ele>219</ele>
        <time>2010-11-23T18:31:09Z</time>
      </trkpt>
      <trkpt lat="45.78852" lon="4.88405">
        <ele>220</ele>
        <time>2010-11-23T18:31:10Z</time>
      </trkpt>
      <trkpt lat="45.78854" lon="4.88408">
        <ele>220</ele>
        <time>2010-11-23T18:31:11Z</time>
      </trkpt>
      <trkpt lat="45.78854" lon="4.88412">
        <ele>220</ele>
        <time>2010-11-23T18:31:12Z</time>
      </trkpt>
      <trkpt lat="45.78854" lon="4.88416">
        <ele>221</ele>
        <time>2010-11-23T18:31:13Z</time>
      </trkpt>
      <trkpt lat="45.78854" lon="4.88419">
        <ele>220</ele>
        <time>2010-11-23T18:31:14Z</time>
      </trkpt>
      <trkpt lat="45.78855" lon="4.88423">
        <ele>220</ele>
        <time>2010-11-23T18:31:15Z</time>
      </trkpt>
      <trkpt lat="45.78855" lon="4.88428">
        <ele>220</ele>
        <time>2010-11-23T18:31:16Z</time>
      </trkpt>
      <trkpt lat="45.78855" lon="4.88432">
        <ele>221</ele>
        <time>2010-11-23T18:31:17Z</time>
      </trkpt>
      <trkpt lat="45.78856" lon="4.88436">
        <ele>221</ele>
        <time>2010-11-23T18:31:18Z</time>
      </trkpt>
      <trkpt lat="45.78855" lon="4.8844">
        <ele>221</ele>
        <time>2010-11-23T18:31:19Z</time>
      </trkpt>
      <trkpt lat="45.78856" lon="4.88444">
        <ele>221</ele>
        <time>2010-11-23T18:31:20Z</time>
      </trkpt>
      <trkpt lat="45.78856" lon="4.88449">
        <ele>222</ele>
        <time>2010-11-23T18:31:21Z</time>
      </trkpt>
      <trkpt lat="45.78857" lon="4.88452">
        <ele>222</ele>
        <time>2010-11-23T18:31:22Z</time>
      </trkpt>
      <trkpt lat="45.78857" lon="4.88455">
        <ele>223</ele>
        <time>2010-11-23T18:31:23Z</time>
      </trkpt>
      <trkpt lat="45.78857" lon="4.8846">
        <ele>223</ele>
        <time>2010-11-23T18:31:24Z</time>
      </trkpt>
      <trkpt lat="45.78857" lon="4.88463">
        <ele>222</ele>
        <time>2010-11-23T18:31:25Z</time>
      </trkpt>
      <trkpt lat="45.78857" lon="4.88467">
        <ele>223</ele>
        <time>2010-11-23T18:31:26Z</time>
      </trkpt>
      <trkpt lat="45.78857" lon="4.88471">
        <ele>223</ele>
        <time>2010-11-23T18:31:27Z</time>
      </trkpt>
      <trkpt lat="45.78857" lon="4.88475">
        <ele>222</ele>
        <time>2010-11-23T18:31:28Z</time>
      </trkpt>
      <trkpt lat="45.78858" lon="4.88479">
        <ele>222</ele>
        <time>2010-11-23T18:31:29Z</time>
      </trkpt>
      <trkpt lat="45.78859" lon="4.88483">
        <ele>222</ele>
        <time>2010-11-23T18:31:30Z</time>
      </trkpt>
      <trkpt lat="45.78859" lon="4.88487">
        <ele>222</ele>
        <time>2010-11-23T18:31:31Z</time>
      </trkpt>
      <trkpt lat="45.78859" lon="4.88491">
        <ele>222</ele>
        <time>2010-11-23T18:31:32Z</time>
      </trkpt>
      <trkpt lat="45.78859" lon="4.88495">
        <ele>222</ele>
        <time>2010-11-23T18:31:33Z</time>
      </trkpt>
      <trkpt lat="45.78859" lon="4.88498">
        <ele>221</ele>
        <time>2010-11-23T18:31:34Z</time>
      </trkpt>
      <trkpt lat="45.78859" lon="4.88502">
        <ele>221</ele>
        <time>2010-11-23T18:31:35Z</time>
      </trkpt>
      <trkpt lat="45.7886" lon="4.88506">
        <ele>221</ele>
        <time>2010-11-23T18:31:36Z</time>
      </trkpt>
      <trkpt lat="45.7886" lon="4.88509">
        <ele>221</ele>
        <time>2010-11-23T18:31:37Z</time>
      </trkpt>
      <trkpt lat="45.78861" lon="4.88512">
        <ele>221</ele>
        <time>2010-11-23T18:31:38Z</time>
      </trkpt>
      <trkpt lat="45.78861" lon="4.88516">
        <ele>221</ele>
        <time>2010-11-23T18:31:39Z</time>
      </trkpt>
      <trkpt lat="45.78861" lon="4.8852">
        <ele>221</ele>
        <time>2010-11-23T18:31:40Z</time>
      </trkpt>
      <trkpt lat="45.78861" lon="4.88524">
        <ele>220</ele>
        <time>2010-11-23T18:31:41Z</time>
      </trkpt>
      <trkpt lat="45.78861" lon="4.88527">
        <ele>220</ele>
        <time>2010-11-23T18:31:42Z</time>
      </trkpt>
      <trkpt lat="45.78862" lon="4.88531">
        <ele>220</ele>
        <time>2010-11-23T18:31:43Z</time>
      </trkpt>
      <trkpt lat="45.78862" lon="4.88535">
        <ele>220</ele>
        <time>2010-11-23T18:31:44Z</time>
      </trkpt>
      <trkpt lat="45.78862" lon="4.88539">
        <ele>220</ele>
        <time>2010-11-23T18:31:45Z</time>
      </trkpt>
      <trkpt lat="45.78862" lon="4.88542">
        <ele>220</ele>
        <time>2010-11-23T18:31:46Z</time>
      </trkpt>
      <trkpt lat="45.78861" lon="4.88546">
        <ele>220</ele>
        <time>2010-11-23T18:31:47Z</time>
      </trkpt>
      <trkpt lat="45.78861" lon="4.88548">
        <ele>221</ele>
        <time>2010-11-23T18:31:48Z</time>
      </trkpt>
      <trkpt lat="45.78861" lon="4.88551">
        <ele>221</ele>
        <time>2010-11-23T18:31:49Z</time>
      </trkpt>
      <trkpt lat="45.78857" lon="4.88553">
        <ele>221</ele>
        <time>2010-11-23T18:31:50Z</time>
      </trkpt>
      <trkpt lat="45.78853" lon="4.88554">
        <ele>221</ele>
        <time>2010-11-23T18:31:51Z</time>
      </trkpt>
      <trkpt lat="45.78851" lon="4.88554">
        <ele>222</ele>
        <time>2010-11-23T18:31:52Z</time>
      </trkpt>
      <trkpt lat="45.78847" lon="4.88554">
        <ele>222</ele>
        <time>2010-11-23T18:31:53Z</time>
      </trkpt>
      <trkpt lat="45.78845" lon="4.88555">
        <ele>222</ele>
        <time>2010-11-23T18:31:54Z</time>
      </trkpt>
      <trkpt lat="45.78842" lon="4.88555">
        <ele>222</ele>
        <time>2010-11-23T18:31:55Z</time>
      </trkpt>
      <trkpt lat="45.78839" lon="4.88554">
        <ele>222</ele>
        <time>2010-11-23T18:31:56Z</time>
      </trkpt>
      <trkpt lat="45.78835" lon="4.88552">
        <ele>221</ele>
        <time>2010-11-23T18:31:57Z</time>
      </trkpt>
      <trkpt lat="45.78833" lon="4.88551">
        <ele>221</ele>
        <time>2010-11-23T18:31:58Z</time>
      </trkpt>
      <trkpt lat="45.78831" lon="4.88552">
        <ele>221</ele>
        <time>2010-11-23T18:31:59Z</time>
      </trkpt>
      <trkpt lat="45.78828" lon="4.88552">
        <ele>222</ele>
        <time>2010-11-23T18:32:00Z</time>
      </trkpt>
      <trkpt lat="45.78825" lon="4.88553">
        <ele>222</ele>
        <time>2010-11-23T18:32:01Z</time>
      </trkpt>
      <trkpt lat="45.78823" lon="4.88553">
        <ele>222</ele>
        <time>2010-11-23T18:32:02Z</time>
      </trkpt>
      <trkpt lat="45.7882" lon="4.88553">
        <ele>221</ele>
        <time>2010-11-23T18:32:03Z</time>
      </trkpt>
      <trkpt lat="45.78817" lon="4.88555">
        <ele>221</ele>
        <time>2010-11-23T18:32:04Z</time>
      </trkpt>
      <trkpt lat="45.78815" lon="4.88556">
        <ele>221</ele>
        <time>2010-11-23T18:32:05Z</time>
      </trkpt>
      <trkpt lat="45.78812" lon="4.88556">
        <ele>221</ele>
        <time>2010-11-23T18:32:06Z</time>
      </trkpt>
      <trkpt lat="45.7881" lon="4.88556">
        <ele>221</ele>
        <time>2010-11-23T18:32:07Z</time>
      </trkpt>
      <trkpt lat="45.78807" lon="4.88556">
        <ele>220</ele>
        <time>2010-11-23T18:32:08Z</time>
      </trkpt>
      <trkpt lat="45.78804" lon="4.88555">
        <ele>220</ele>
        <time>2010-11-23T18:32:09Z</time>
      </trkpt>
      <trkpt lat="45.78801" lon="4.88555">
        <ele>221</ele>
        <time>2010-11-23T18:32:10Z</time>
      </trkpt>
      <trkpt lat="45.78798" lon="4.88556">
        <ele>221</ele>
        <time>2010-11-23T18:32:11Z</time>
      </trkpt>
      <trkpt lat="45.78796" lon="4.88556">
        <ele>221</ele>
        <time>2010-11-23T18:32:12Z</time>
      </trkpt>
      <trkpt lat="45.78793" lon="4.88556">
        <ele>221</ele>
        <time>2010-11-23T18:32:13Z</time>
      </trkpt>
      <trkpt lat="45.7879" lon="4.88555">
        <ele>221</ele>
        <time>2010-11-23T18:32:14Z</time>
      </trkpt>
      <trkpt lat="45.78787" lon="4.88554">
        <ele>220</ele>
        <time>2010-11-23T18:32:15Z</time>
      </trkpt>
      <trkpt lat="45.78785" lon="4.88554">
        <ele>220</ele>
        <time>2010-11-23T18:32:16Z</time>
      </trkpt>
      <trkpt lat="45.78782" lon="4.88553">
        <ele>220</ele>
        <time>2010-11-23T18:32:17Z</time>
      </trkpt>
      <trkpt lat="45.78779" lon="4.88554">
        <ele>219</ele>
        <time>2010-11-23T18:32:18Z</time>
      </trkpt>
      <trkpt lat="45.78776" lon="4.88553">
        <ele>219</ele>
        <time>2010-11-23T18:32:19Z</time>
      </trkpt>
      <trkpt lat="45.78773" lon="4.88551">
        <ele>219</ele>
        <time>2010-11-23T18:32:20Z</time>
      </trkpt>
      <trkpt lat="45.7877" lon="4.88553">
        <ele>219</ele>
        <time>2010-11-23T18:32:21Z</time>
      </trkpt>
      <trkpt lat="45.78767" lon="4.88552">
        <ele>219</ele>
        <time>2010-11-23T18:32:22Z</time>
      </trkpt>
      <trkpt lat="45.78764" lon="4.88551">
        <ele>218</ele>
        <time>2010-11-23T18:32:23Z</time>
      </trkpt>
      <trkpt lat="45.78762" lon="4.88552">
        <ele>218</ele>
        <time>2010-11-23T18:32:24Z</time>
      </trkpt>
      <trkpt lat="45.78761" lon="4.88553">
        <ele>218</ele>
        <time>2010-11-23T18:32:25Z</time>
      </trkpt>
      <trkpt lat="45.7876" lon="4.88551">
        <ele>218</ele>
        <time>2010-11-23T18:32:26Z</time>
      </trkpt>
      <trkpt lat="45.78758" lon="4.88551">
        <ele>218</ele>
        <time>2010-11-23T18:32:27Z</time>
      </trkpt>
      <trkpt lat="45.7876" lon="4.88554">
        <ele>218</ele>
        <time>2010-11-23T18:32:28Z</time>
      </trkpt>
      <trkpt lat="45.7876" lon="4.88555">
        <ele>217</ele>
        <time>2010-11-23T18:32:29Z</time>
      </trkpt>
      <trkpt lat="45.7876" lon="4.88556">
        <ele>218</ele>
        <time>2010-11-23T18:32:30Z</time>
      </trkpt>
      <trkpt lat="45.78759" lon="4.88558">
        <ele>218</ele>
        <time>2010-11-23T18:32:31Z</time>
      </trkpt>
      <trkpt lat="45.78759" lon="4.88561">
        <ele>219</ele>
        <time>2010-11-23T18:32:32Z</time>
      </trkpt>
      <trkpt lat="45.78758" lon="4.88564">
        <ele>220</ele>
        <time>2010-11-23T18:32:33Z</time>
      </trkpt>
      <trkpt lat="45.78758" lon="4.88568">
        <ele>220</ele>
        <time>2010-11-23T18:32:34Z</time>
      </trkpt>
      <trkpt lat="45.78758" lon="4.88572">
        <ele>220</ele>
        <time>2010-11-23T18:32:35Z</time>
      </trkpt>
      <trkpt lat="45.78758" lon="4.88576">
        <ele>220</ele>
        <time>2010-11-23T18:32:36Z</time>
      </trkpt>
      <trkpt lat="45.78758" lon="4.8858">
        <ele>219</ele>
        <time>2010-11-23T18:32:37Z</time>
      </trkpt>
      <trkpt lat="45.78758" lon="4.88583">
        <ele>220</ele>
        <time>2010-11-23T18:32:38Z</time>
      </trkpt>
      <trkpt lat="45.78757" lon="4.88587">
        <ele>220</ele>
        <time>2010-11-23T18:32:39Z</time>
      </trkpt>
      <trkpt lat="45.78757" lon="4.8859">
        <ele>220</ele>
        <time>2010-11-23T18:32:40Z</time>
      </trkpt>
      <trkpt lat="45.78756" lon="4.88594">
        <ele>220</ele>
        <time>2010-11-23T18:32:41Z</time>
      </trkpt>
      <trkpt lat="45.78756" lon="4.88597">
        <ele>220</ele>
        <time>2010-11-23T18:32:42Z</time>
      </trkpt>
      <trkpt lat="45.78755" lon="4.88601">
        <ele>220</ele>
        <time>2010-11-23T18:32:43Z</time>
      </trkpt>
      <trkpt lat="45.78754" lon="4.88604">
        <ele>221</ele>
        <time>2010-11-23T18:32:44Z</time>
      </trkpt>
      <trkpt lat="45.78753" lon="4.88607">
        <ele>221</ele>
        <time>2010-11-23T18:32:45Z</time>
      </trkpt>
      <trkpt lat="45.78751" lon="4.88624">
        <ele>221</ele>
        <time>2010-11-23T18:32:50Z</time>
      </trkpt>
      <trkpt lat="45.78751" lon="4.88626">
        <ele>221</ele>
        <time>2010-11-23T18:32:51Z</time>
      </trkpt>
      <trkpt lat="45.78751" lon="4.88629">
        <ele>221</ele>
        <time>2010-11-23T18:32:52Z</time>
      </trkpt>
      <trkpt lat="45.7875" lon="4.88631">
        <ele>221</ele>
        <time>2010-11-23T18:32:53Z</time>
      </trkpt>
      <trkpt lat="45.78748" lon="4.88644">
        <ele>220</ele>
        <time>2010-11-23T18:32:59Z</time>
      </trkpt>
      <trkpt lat="45.78745" lon="4.8865">
        <ele>219.60313415527</ele>
        <time>2010-11-23T18:33:00Z</time>
      </trkpt>
      <trkpt lat="45.7874" lon="4.88659">
        <ele>219.21292114258</ele>
        <time>2010-11-23T18:33:01Z</time>
      </trkpt>
      <trkpt lat="45.78737" lon="4.88668">
        <ele>220</ele>
        <time>2010-11-23T18:33:02Z</time>
      </trkpt>
      <trkpt lat="45.78736" lon="4.8867">
        <ele>220</ele>
        <time>2010-11-23T18:33:03Z</time>
      </trkpt>
      <trkpt lat="45.78733" lon="4.88672">
        <ele>220</ele>
        <time>2010-11-23T18:33:04Z</time>
      </trkpt>
      <trkpt lat="45.78732" lon="4.88673">
        <ele>220</ele>
        <time>2010-11-23T18:33:05Z</time>
      </trkpt>
      <trkpt lat="45.78729" lon="4.88673">
        <ele>220</ele>
        <time>2010-11-23T18:33:06Z</time>
      </trkpt>
      <trkpt lat="45.78727" lon="4.88672">
        <ele>220</ele>
        <time>2010-11-23T18:33:07Z</time>
      </trkpt>
      <trkpt lat="45.78725" lon="4.88671">
        <ele>221</ele>
        <time>2010-11-23T18:33:08Z</time>
      </trkpt>
      <trkpt lat="45.78723" lon="4.88671">
        <ele>221</ele>
        <time>2010-11-23T18:33:09Z</time>
      </trkpt>
      <trkpt lat="45.78722" lon="4.88672">
        <ele>221</ele>
        <time>2010-11-23T18:33:10Z</time>
      </trkpt>
      <trkpt lat="45.78721" lon="4.8867">
        <ele>221</ele>
        <time>2010-11-23T18:33:11Z</time>
      </trkpt>
      <trkpt lat="45.78719" lon="4.88669">
        <ele>222</ele>
        <time>2010-11-23T18:33:12Z</time>
      </trkpt>
      <trkpt lat="45.78718" lon="4.88668">
        <ele>221</ele>
        <time>2010-11-23T18:33:13Z</time>
      </trkpt>
      <trkpt lat="45.78717" lon="4.88667">
        <ele>221</ele>
        <time>2010-11-23T18:33:14Z</time>
      </trkpt>
      <trkpt lat="45.78715" lon="4.88667">
        <ele>221</ele>
        <time>2010-11-23T18:33:15Z</time>
      </trkpt>
      <trkpt lat="45.78713" lon="4.88667">
        <ele>221</ele>
        <time>2010-11-23T18:33:16Z</time>
      </trkpt>
      <trkpt lat="45.78712" lon="4.88665">
        <ele>221</ele>
        <time>2010-11-23T18:33:17Z</time>
      </trkpt>
      <trkpt lat="45.78712" lon="4.88663">
        <ele>221</ele>
        <time>2010-11-23T18:33:18Z</time>
      </trkpt>
      <trkpt lat="45.78709" lon="4.88661">
        <ele>221</ele>
        <time>2010-11-23T18:33:19Z</time>
      </trkpt>
      <trkpt lat="45.78708" lon="4.8866">
        <ele>221</ele>
        <time>2010-11-23T18:33:20Z</time>
      </trkpt>
      <trkpt lat="45.78707" lon="4.88654">
        <ele>222</ele>
        <time>2010-11-23T18:33:21Z</time>
      </trkpt>
      <trkpt lat="45.78706" lon="4.88653">
        <ele>222</ele>
        <time>2010-11-23T18:33:22Z</time>
      </trkpt>
      <trkpt lat="45.78705" lon="4.88652">
        <ele>222</ele>
        <time>2010-11-23T18:33:23Z</time>
      </trkpt>
      <trkpt lat="45.78703" lon="4.88652">
        <ele>222</ele>
        <time>2010-11-23T18:33:24Z</time>
      </trkpt>
      <trkpt lat="45.78701" lon="4.8865">
        <ele>222</ele>
        <time>2010-11-23T18:33:25Z</time>
      </trkpt>
      <trkpt lat="45.78698" lon="4.88649">
        <ele>221</ele>
        <time>2010-11-23T18:33:26Z</time>
      </trkpt>
      <trkpt lat="45.78694" lon="4.88652">
        <ele>222</ele>
        <time>2010-11-23T18:33:27Z</time>
      </trkpt>
      <trkpt lat="45.78693" lon="4.88655">
        <ele>223</ele>
        <time>2010-11-23T18:33:28Z</time>
      </trkpt>
      <trkpt lat="45.78691" lon="4.88657">
        <ele>222</ele>
        <time>2010-11-23T18:33:29Z</time>
      </trkpt>
      <trkpt lat="45.7869" lon="4.8866">
        <ele>222</ele>
        <time>2010-11-23T18:33:30Z</time>
      </trkpt>
      <trkpt lat="45.7869" lon="4.88665">
        <ele>222</ele>
        <time>2010-11-23T18:33:31Z</time>
      </trkpt>
      <trkpt lat="45.78689" lon="4.88669">
        <ele>223</ele>
        <time>2010-11-23T18:33:32Z</time>
      </trkpt>
      <trkpt lat="45.78688" lon="4.88672">
        <ele>223</ele>
        <time>2010-11-23T18:33:33Z</time>
      </trkpt>
      <trkpt lat="45.78687" lon="4.88676">
        <ele>224</ele>
        <time>2010-11-23T18:33:34Z</time>
      </trkpt>
      <trkpt lat="45.78686" lon="4.8868">
        <ele>224</ele>
        <time>2010-11-23T18:33:35Z</time>
      </trkpt>
      <trkpt lat="45.78685" lon="4.88684">
        <ele>224</ele>
        <time>2010-11-23T18:33:36Z</time>
      </trkpt>
      <trkpt lat="45.78684" lon="4.88688">
        <ele>224</ele>
        <time>2010-11-23T18:33:37Z</time>
      </trkpt>
      <trkpt lat="45.78683" lon="4.88692">
        <ele>224</ele>
        <time>2010-11-23T18:33:38Z</time>
      </trkpt>
      <trkpt lat="45.78682" lon="4.88695">
        <ele>225</ele>
        <time>2010-11-23T18:33:39Z</time>
      </trkpt>
      <trkpt lat="45.7868" lon="4.88698">
        <ele>224</ele>
        <time>2010-11-23T18:33:40Z</time>
      </trkpt>
      <trkpt lat="45.78679" lon="4.88702">
        <ele>225</ele>
        <time>2010-11-23T18:33:41Z</time>
      </trkpt>
      <trkpt lat="45.78677" lon="4.88704">
        <ele>224</ele>
        <time>2010-11-23T18:33:42Z</time>
      </trkpt>
      <trkpt lat="45.78676" lon="4.88708">
        <ele>224</ele>
        <time>2010-11-23T18:33:43Z</time>
      </trkpt>
      <trkpt lat="45.78674" lon="4.88711">
        <ele>224</ele>
        <time>2010-11-23T18:33:44Z</time>
      </trkpt>
      <trkpt lat="45.78672" lon="4.88714">
        <ele>223</ele>
        <time>2010-11-23T18:33:45Z</time>
      </trkpt>
      <trkpt lat="45.7867" lon="4.88717">
        <ele>223</ele>
        <time>2010-11-23T18:33:46Z</time>
      </trkpt>
      <trkpt lat="45.78669" lon="4.8872">
        <ele>223.90811157227</ele>
        <time>2010-11-23T18:33:47Z</time>
      </trkpt>
      <trkpt lat="45.78668" lon="4.88725">
        <ele>225</ele>
        <time>2010-11-23T18:33:48Z</time>
      </trkpt>
      <trkpt lat="45.78667" lon="4.88728">
        <ele>225</ele>
        <time>2010-11-23T18:33:49Z</time>
      </trkpt>
      <trkpt lat="45.78665" lon="4.88732">
        <ele>225</ele>
        <time>2010-11-23T18:33:50Z</time>
      </trkpt>
      <trkpt lat="45.78664" lon="4.88735">
        <ele>226</ele>
        <time>2010-11-23T18:33:51Z</time>
      </trkpt>
      <trkpt lat="45.78663" lon="4.88738">
        <ele>226</ele>
        <time>2010-11-23T18:33:52Z</time>
      </trkpt>
      <trkpt lat="45.7866" lon="4.88741">
        <ele>226</ele>
        <time>2010-11-23T18:33:53Z</time>
      </trkpt>
      <trkpt lat="45.78658" lon="4.88744">
        <ele>226</ele>
        <time>2010-11-23T18:33:54Z</time>
      </trkpt>
      <trkpt lat="45.78656" lon="4.88747">
        <ele>226</ele>
        <time>2010-11-23T18:33:55Z</time>
      </trkpt>
      <trkpt lat="45.78655" lon="4.8875">
        <ele>226</ele>
        <time>2010-11-23T18:33:56Z</time>
      </trkpt>
      <trkpt lat="45.78653" lon="4.88753">
        <ele>226</ele>
        <time>2010-11-23T18:33:57Z</time>
      </trkpt>
      <trkpt lat="45.78651" lon="4.88755">
        <ele>225</ele>
        <time>2010-11-23T18:33:58Z</time>
      </trkpt>
      <trkpt lat="45.78649" lon="4.88759">
        <ele>225</ele>
        <time>2010-11-23T18:33:59Z</time>
      </trkpt>
      <trkpt lat="45.78647" lon="4.88762">
        <ele>226</ele>
        <time>2010-11-23T18:34:00Z</time>
      </trkpt>
      <trkpt lat="45.78645" lon="4.88764">
        <ele>226</ele>
        <time>2010-11-23T18:34:01Z</time>
      </trkpt>
      <trkpt lat="45.78642" lon="4.88767">
        <ele>226</ele>
        <time>2010-11-23T18:34:02Z</time>
      </trkpt>
      <trkpt lat="45.7864" lon="4.88769">
        <ele>226</ele>
        <time>2010-11-23T18:34:03Z</time>
      </trkpt>
      <trkpt lat="45.78638" lon="4.88771">
        <ele>226</ele>
        <time>2010-11-23T18:34:04Z</time>
      </trkpt>
      <trkpt lat="45.78635" lon="4.88774">
        <ele>226</ele>
        <time>2010-11-23T18:34:05Z</time>
      </trkpt>
      <trkpt lat="45.78633" lon="4.88776">
        <ele>225</ele>
        <time>2010-11-23T18:34:06Z</time>
      </trkpt>
      <trkpt lat="45.78631" lon="4.88778">
        <ele>225</ele>
        <time>2010-11-23T18:34:07Z</time>
      </trkpt>
      <trkpt lat="45.78629" lon="4.88781">
        <ele>225</ele>
        <time>2010-11-23T18:34:08Z</time>
      </trkpt>
      <trkpt lat="45.78627" lon="4.88783">
        <ele>225</ele>
        <time>2010-11-23T18:34:09Z</time>
      </trkpt>
      <trkpt lat="45.78625" lon="4.88786">
        <ele>224</ele>
        <time>2010-11-23T18:34:10Z</time>
      </trkpt>
      <trkpt lat="45.78623" lon="4.88788">
        <ele>224</ele>
        <time>2010-11-23T18:34:11Z</time>
      </trkpt>
      <trkpt lat="45.78621" lon="4.88791">
        <ele>224</ele>
        <time>2010-11-23T18:34:12Z</time>
      </trkpt>
      <trkpt lat="45.78619" lon="4.88793">
        <ele>224</ele>
        <time>2010-11-23T18:34:13Z</time>
      </trkpt>
      <trkpt lat="45.78617" lon="4.88797">
        <ele>224</ele>
        <time>2010-11-23T18:34:14Z</time>
      </trkpt>
      <trkpt lat="45.78615" lon="4.88798">
        <ele>225</ele>
        <time>2010-11-23T18:34:15Z</time>
      </trkpt>
      <trkpt lat="45.78613" lon="4.888">
        <ele>225</ele>
        <time>2010-11-23T18:34:16Z</time>
      </trkpt>
      <trkpt lat="45.78611" lon="4.88803">
        <ele>225</ele>
        <time>2010-11-23T18:34:17Z</time>
      </trkpt>
      <trkpt lat="45.78608" lon="4.88804">
        <ele>224</ele>
        <time>2010-11-23T18:34:18Z</time>
      </trkpt>
      <trkpt lat="45.78606" lon="4.88806">
        <ele>224</ele>
        <time>2010-11-23T18:34:19Z</time>
      </trkpt>
      <trkpt lat="45.78603" lon="4.88808">
        <ele>224</ele>
        <time>2010-11-23T18:34:20Z</time>
      </trkpt>
      <trkpt lat="45.78601" lon="4.8881">
        <ele>224</ele>
        <time>2010-11-23T18:34:21Z</time>
      </trkpt>
      <trkpt lat="45.78598" lon="4.88811">
        <ele>224</ele>
        <time>2010-11-23T18:34:22Z</time>
      </trkpt>
      <trkpt lat="45.78596" lon="4.88813">
        <ele>224</ele>
        <time>2010-11-23T18:34:23Z</time>
      </trkpt>
      <trkpt lat="45.78593" lon="4.88815">
        <ele>224</ele>
        <time>2010-11-23T18:34:24Z</time>
      </trkpt>
      <trkpt lat="45.7859" lon="4.88816">
        <ele>224</ele>
        <time>2010-11-23T18:34:25Z</time>
      </trkpt>
      <trkpt lat="45.78588" lon="4.88818">
        <ele>224</ele>
        <time>2010-11-23T18:34:26Z</time>
      </trkpt>
      <trkpt lat="45.78584" lon="4.8882">
        <ele>224</ele>
        <time>2010-11-23T18:34:27Z</time>
      </trkpt>
      <trkpt lat="45.78581" lon="4.88821">
        <ele>224</ele>
        <time>2010-11-23T18:34:28Z</time>
      </trkpt>
      <trkpt lat="45.78579" lon="4.88822">
        <ele>224</ele>
        <time>2010-11-23T18:34:29Z</time>
      </trkpt>
      <trkpt lat="45.78576" lon="4.88823">
        <ele>224</ele>
        <time>2010-11-23T18:34:31Z</time>
      </trkpt>
      <trkpt lat="45.78575" lon="4.88824">
        <ele>224</ele>
        <time>2010-11-23T18:34:31Z</time>
      </trkpt>
      <trkpt lat="45.7857" lon="4.88827">
        <ele>224</ele>
        <time>2010-11-23T18:34:32Z</time>
      </trkpt>
      <trkpt lat="45.78567" lon="4.88829">
        <ele>224</ele>
        <time>2010-11-23T18:34:33Z</time>
      </trkpt>
      <trkpt lat="45.78565" lon="4.8883">
        <ele>224</ele>
        <time>2010-11-23T18:34:34Z</time>
      </trkpt>
      <trkpt lat="45.78562" lon="4.88832">
        <ele>224</ele>
        <time>2010-11-23T18:34:35Z</time>
      </trkpt>
      <trkpt lat="45.7856" lon="4.88834">
        <ele>224</ele>
        <time>2010-11-23T18:34:36Z</time>
      </trkpt>
      <trkpt lat="45.78558" lon="4.88835">
        <ele>223</ele>
        <time>2010-11-23T18:34:37Z</time>
      </trkpt>
      <trkpt lat="45.78555" lon="4.88837">
        <ele>223</ele>
        <time>2010-11-23T18:34:38Z</time>
      </trkpt>
      <trkpt lat="45.78552" lon="4.88838">
        <ele>223</ele>
        <time>2010-11-23T18:34:39Z</time>
      </trkpt>
      <trkpt lat="45.78549" lon="4.8884">
        <ele>223</ele>
        <time>2010-11-23T18:34:40Z</time>
      </trkpt>
      <trkpt lat="45.78546" lon="4.88842">
        <ele>223</ele>
        <time>2010-11-23T18:34:41Z</time>
      </trkpt>
      <trkpt lat="45.78543" lon="4.88843">
        <ele>224</ele>
        <time>2010-11-23T18:34:42Z</time>
      </trkpt>
      <trkpt lat="45.7854" lon="4.88844">
        <ele>224</ele>
        <time>2010-11-23T18:34:43Z</time>
      </trkpt>
      <trkpt lat="45.78537" lon="4.88847">
        <ele>224</ele>
        <time>2010-11-23T18:34:44Z</time>
      </trkpt>
      <trkpt lat="45.78535" lon="4.88849">
        <ele>224</ele>
        <time>2010-11-23T18:34:45Z</time>
      </trkpt>
      <trkpt lat="45.78531" lon="4.88851">
        <ele>224</ele>
        <time>2010-11-23T18:34:46Z</time>
      </trkpt>
      <trkpt lat="45.78529" lon="4.88851">
        <ele>224</ele>
        <time>2010-11-23T18:34:47Z</time>
      </trkpt>
      <trkpt lat="45.78528" lon="4.88854">
        <ele>223</ele>
        <time>2010-11-23T18:34:48Z</time>
      </trkpt>
      <trkpt lat="45.78525" lon="4.88856">
        <ele>223</ele>
        <time>2010-11-23T18:34:49Z</time>
      </trkpt>
      <trkpt lat="45.78523" lon="4.88858">
        <ele>223</ele>
        <time>2010-11-23T18:34:50Z</time>
      </trkpt>
      <trkpt lat="45.7852" lon="4.8886">
        <ele>222</ele>
        <time>2010-11-23T18:34:51Z</time>
      </trkpt>
      <trkpt lat="45.78518" lon="4.88862">
        <ele>221</ele>
        <time>2010-11-23T18:34:52Z</time>
      </trkpt>
      <trkpt lat="45.78516" lon="4.88863">
        <ele>221</ele>
        <time>2010-11-23T18:34:53Z</time>
      </trkpt>
      <trkpt lat="45.78513" lon="4.88866">
        <ele>221</ele>
        <time>2010-11-23T18:34:54Z</time>
      </trkpt>
      <trkpt lat="45.78511" lon="4.88869">
        <ele>221</ele>
        <time>2010-11-23T18:34:55Z</time>
      </trkpt>
      <trkpt lat="45.78509" lon="4.88872">
        <ele>221</ele>
        <time>2010-11-23T18:34:56Z</time>
      </trkpt>
      <trkpt lat="45.78506" lon="4.88874">
        <ele>220</ele>
        <time>2010-11-23T18:34:57Z</time>
      </trkpt>
      <trkpt lat="45.78506" lon="4.88878">
        <ele>220</ele>
        <time>2010-11-23T18:34:58Z</time>
      </trkpt>
      <trkpt lat="45.78506" lon="4.88882">
        <ele>220</ele>
        <time>2010-11-23T18:34:59Z</time>
      </trkpt>
      <trkpt lat="45.78508" lon="4.88886">
        <ele>220</ele>
        <time>2010-11-23T18:35:00Z</time>
      </trkpt>
      <trkpt lat="45.7851" lon="4.8889">
        <ele>221</ele>
        <time>2010-11-23T18:35:01Z</time>
      </trkpt>
      <trkpt lat="45.78511" lon="4.88894">
        <ele>222</ele>
        <time>2010-11-23T18:35:02Z</time>
      </trkpt>
      <trkpt lat="45.78512" lon="4.88898">
        <ele>222</ele>
        <time>2010-11-23T18:35:03Z</time>
      </trkpt>
      <trkpt lat="45.78513" lon="4.88902">
        <ele>222</ele>
        <time>2010-11-23T18:35:04Z</time>
      </trkpt>
      <trkpt lat="45.78513" lon="4.88906">
        <ele>222</ele>
        <time>2010-11-23T18:35:05Z</time>
      </trkpt>
      <trkpt lat="45.78513" lon="4.8891">
        <ele>222</ele>
        <time>2010-11-23T18:35:06Z</time>
      </trkpt>
      <trkpt lat="45.78513" lon="4.88914">
        <ele>222</ele>
        <time>2010-11-23T18:35:07Z</time>
      </trkpt>
      <trkpt lat="45.78513" lon="4.88918">
        <ele>222</ele>
        <time>2010-11-23T18:35:08Z</time>
      </trkpt>
      <trkpt lat="45.78513" lon="4.88922">
        <ele>222</ele>
        <time>2010-11-23T18:35:09Z</time>
      </trkpt>
      <trkpt lat="45.78513" lon="4.88925">
        <ele>222</ele>
        <time>2010-11-23T18:35:10Z</time>
      </trkpt>
      <trkpt lat="45.78513" lon="4.88929">
        <ele>222</ele>
        <time>2010-11-23T18:35:11Z</time>
      </trkpt>
      <trkpt lat="45.78513" lon="4.88932">
        <ele>222</ele>
        <time>2010-11-23T18:35:12Z</time>
      </trkpt>
      <trkpt lat="45.78514" lon="4.88936">
        <ele>222</ele>
        <time>2010-11-23T18:35:13Z</time>
      </trkpt>
      <trkpt lat="45.78515" lon="4.8894">
        <ele>222</ele>
        <time>2010-11-23T18:35:15Z</time>
      </trkpt>
      <trkpt lat="45.78515" lon="4.88942">
        <ele>222</ele>
        <time>2010-11-23T18:35:15Z</time>
      </trkpt>
      <trkpt lat="45.78515" lon="4.88948">
        <ele>223</ele>
        <time>2010-11-23T18:35:16Z</time>
      </trkpt>
      <trkpt lat="45.78516" lon="4.88953">
        <ele>222</ele>
        <time>2010-11-23T18:35:17Z</time>
      </trkpt>
      <trkpt lat="45.78516" lon="4.88958">
        <ele>223</ele>
        <time>2010-11-23T18:35:18Z</time>
      </trkpt>
      <trkpt lat="45.78515" lon="4.88962">
        <ele>223</ele>
        <time>2010-11-23T18:35:19Z</time>
      </trkpt>
      <trkpt lat="45.78515" lon="4.88967">
        <ele>223</ele>
        <time>2010-11-23T18:35:20Z</time>
      </trkpt>
      <trkpt lat="45.78515" lon="4.88971">
        <ele>223</ele>
        <time>2010-11-23T18:35:21Z</time>
      </trkpt>
      <trkpt lat="45.78515" lon="4.88976">
        <ele>223</ele>
        <time>2010-11-23T18:35:22Z</time>
      </trkpt>
      <trkpt lat="45.78515" lon="4.8898">
        <ele>223</ele>
        <time>2010-11-23T18:35:23Z</time>
      </trkpt>
      <trkpt lat="45.78515" lon="4.88984">
        <ele>223</ele>
        <time>2010-11-23T18:35:24Z</time>
      </trkpt>
      <trkpt lat="45.78514" lon="4.88988">
        <ele>223</ele>
        <time>2010-11-23T18:35:25Z</time>
      </trkpt>
      <trkpt lat="45.78508" lon="4.88988">
        <ele>222.27905273438</ele>
        <time>2010-11-23T18:35:26Z</time>
      </trkpt>
      <trkpt lat="45.78503" lon="4.88991">
        <ele>222</ele>
        <time>2010-11-23T18:35:27Z</time>
      </trkpt>
      <trkpt lat="45.78501" lon="4.88994">
        <ele>223</ele>
        <time>2010-11-23T18:35:28Z</time>
      </trkpt>
      <trkpt lat="45.78499" lon="4.88997">
        <ele>223</ele>
        <time>2010-11-23T18:35:29Z</time>
      </trkpt>
      <trkpt lat="45.78495" lon="4.89">
        <ele>223</ele>
        <time>2010-11-23T18:35:30Z</time>
      </trkpt>
      <trkpt lat="45.78493" lon="4.89003">
        <ele>223</ele>
        <time>2010-11-23T18:35:31Z</time>
      </trkpt>
      <trkpt lat="45.78491" lon="4.89005">
        <ele>223</ele>
        <time>2010-11-23T18:35:32Z</time>
      </trkpt>
      <trkpt lat="45.78489" lon="4.89008">
        <ele>223</ele>
        <time>2010-11-23T18:35:33Z</time>
      </trkpt>
      <trkpt lat="45.78487" lon="4.8901">
        <ele>223</ele>
        <time>2010-11-23T18:35:34Z</time>
      </trkpt>
      <trkpt lat="45.78484" lon="4.89013">
        <ele>223</ele>
        <time>2010-11-23T18:35:35Z</time>
      </trkpt>
      <trkpt lat="45.78482" lon="4.89014">
        <ele>223</ele>
        <time>2010-11-23T18:35:36Z</time>
      </trkpt>
      <trkpt lat="45.7848" lon="4.89017">
        <ele>223</ele>
        <time>2010-11-23T18:35:37Z</time>
      </trkpt>
      <trkpt lat="45.78478" lon="4.89019">
        <ele>223</ele>
        <time>2010-11-23T18:35:38Z</time>
      </trkpt>
      <trkpt lat="45.78476" lon="4.89021">
        <ele>224</ele>
        <time>2010-11-23T18:35:39Z</time>
      </trkpt>
      <trkpt lat="45.78473" lon="4.89022">
        <ele>224</ele>
        <time>2010-11-23T18:35:40Z</time>
      </trkpt>
      <trkpt lat="45.78471" lon="4.89025">
        <ele>224</ele>
        <time>2010-11-23T18:35:41Z</time>
      </trkpt>
      <trkpt lat="45.7847" lon="4.89028">
        <ele>224</ele>
        <time>2010-11-23T18:35:42Z</time>
      </trkpt>
      <trkpt lat="45.78467" lon="4.8903">
        <ele>224</ele>
        <time>2010-11-23T18:35:43Z</time>
      </trkpt>
      <trkpt lat="45.78464" lon="4.89032">
        <ele>225</ele>
        <time>2010-11-23T18:35:44Z</time>
      </trkpt>
      <trkpt lat="45.78462" lon="4.89034">
        <ele>225</ele>
        <time>2010-11-23T18:35:45Z</time>
      </trkpt>
      <trkpt lat="45.78459" lon="4.89037">
        <ele>224</ele>
        <time>2010-11-23T18:35:46Z</time>
      </trkpt>
      <trkpt lat="45.78458" lon="4.89039">
        <ele>224</ele>
        <time>2010-11-23T18:35:47Z</time>
      </trkpt>
      <trkpt lat="45.78457" lon="4.89042">
        <ele>224</ele>
        <time>2010-11-23T18:35:48Z</time>
      </trkpt>
      <trkpt lat="45.78455" lon="4.89045">
        <ele>224</ele>
        <time>2010-11-23T18:35:49Z</time>
      </trkpt>
      <trkpt lat="45.78452" lon="4.89048">
        <ele>224</ele>
        <time>2010-11-23T18:35:50Z</time>
      </trkpt>
      <trkpt lat="45.7845" lon="4.8905">
        <ele>224</ele>
        <time>2010-11-23T18:35:51Z</time>
      </trkpt>
      <trkpt lat="45.78448" lon="4.89052">
        <ele>224</ele>
        <time>2010-11-23T18:35:52Z</time>
      </trkpt>
      <trkpt lat="45.78445" lon="4.89055">
        <ele>225</ele>
        <time>2010-11-23T18:35:53Z</time>
      </trkpt>
      <trkpt lat="45.78443" lon="4.89057">
        <ele>225</ele>
        <time>2010-11-23T18:35:54Z</time>
      </trkpt>
      <trkpt lat="45.78439" lon="4.89058">
        <ele>225</ele>
        <time>2010-11-23T18:35:55Z</time>
      </trkpt>
      <trkpt lat="45.78436" lon="4.8906">
        <ele>225</ele>
        <time>2010-11-23T18:35:56Z</time>
      </trkpt>
      <trkpt lat="45.78434" lon="4.89063">
        <ele>225</ele>
        <time>2010-11-23T18:35:57Z</time>
      </trkpt>
      <trkpt lat="45.78432" lon="4.89065">
        <ele>225</ele>
        <time>2010-11-23T18:35:59Z</time>
      </trkpt>
      <trkpt lat="45.7843" lon="4.89066">
        <ele>225</ele>
        <time>2010-11-23T18:35:59Z</time>
      </trkpt>
      <trkpt lat="45.78426" lon="4.8907">
        <ele>225</ele>
        <time>2010-11-23T18:36:00Z</time>
      </trkpt>
      <trkpt lat="45.78424" lon="4.89071">
        <ele>225</ele>
        <time>2010-11-23T18:36:01Z</time>
      </trkpt>
      <trkpt lat="45.78421" lon="4.89073">
        <ele>225</ele>
        <time>2010-11-23T18:36:02Z</time>
      </trkpt>
      <trkpt lat="45.78419" lon="4.89075">
        <ele>224</ele>
        <time>2010-11-23T18:36:03Z</time>
      </trkpt>
      <trkpt lat="45.78416" lon="4.89077">
        <ele>224</ele>
        <time>2010-11-23T18:36:04Z</time>
      </trkpt>
      <trkpt lat="45.78414" lon="4.89079">
        <ele>224</ele>
        <time>2010-11-23T18:36:05Z</time>
      </trkpt>
      <trkpt lat="45.78412" lon="4.8908">
        <ele>224</ele>
        <time>2010-11-23T18:36:06Z</time>
      </trkpt>
      <trkpt lat="45.78409" lon="4.89083">
        <ele>224</ele>
        <time>2010-11-23T18:36:07Z</time>
      </trkpt>
      <trkpt lat="45.78406" lon="4.89084">
        <ele>224</ele>
        <time>2010-11-23T18:36:08Z</time>
      </trkpt>
      <trkpt lat="45.78404" lon="4.89086">
        <ele>224</ele>
        <time>2010-11-23T18:36:09Z</time>
      </trkpt>
      <trkpt lat="45.78402" lon="4.89088">
        <ele>224</ele>
        <time>2010-11-23T18:36:10Z</time>
      </trkpt>
      <trkpt lat="45.78399" lon="4.89091">
        <ele>224</ele>
        <time>2010-11-23T18:36:11Z</time>
      </trkpt>
      <trkpt lat="45.78397" lon="4.89093">
        <ele>224</ele>
        <time>2010-11-23T18:36:12Z</time>
      </trkpt>
      <trkpt lat="45.78393" lon="4.89093">
        <ele>224</ele>
        <time>2010-11-23T18:36:13Z</time>
      </trkpt>
      <trkpt lat="45.78391" lon="4.89094">
        <ele>224</ele>
        <time>2010-11-23T18:36:14Z</time>
      </trkpt>
      <trkpt lat="45.78389" lon="4.89097">
        <ele>224</ele>
        <time>2010-11-23T18:36:15Z</time>
      </trkpt>
      <trkpt lat="45.78387" lon="4.89098">
        <ele>224</ele>
        <time>2010-11-23T18:36:16Z</time>
      </trkpt>
      <trkpt lat="45.78385" lon="4.89101">
        <ele>224</ele>
        <time>2010-11-23T18:36:17Z</time>
      </trkpt>
      <trkpt lat="45.78383" lon="4.89104">
        <ele>224</ele>
        <time>2010-11-23T18:36:18Z</time>
      </trkpt>
      <trkpt lat="45.7838" lon="4.89107">
        <ele>224</ele>
        <time>2010-11-23T18:36:19Z</time>
      </trkpt>
      <trkpt lat="45.78375" lon="4.89107">
        <ele>224</ele>
        <time>2010-11-23T18:36:20Z</time>
      </trkpt>
      <trkpt lat="45.78373" lon="4.89109">
        <ele>224</ele>
        <time>2010-11-23T18:36:21Z</time>
      </trkpt>
      <trkpt lat="45.78371" lon="4.89112">
        <ele>224</ele>
        <time>2010-11-23T18:36:22Z</time>
      </trkpt>
      <trkpt lat="45.78367" lon="4.89113">
        <ele>224</ele>
        <time>2010-11-23T18:36:23Z</time>
      </trkpt>
      <trkpt lat="45.78363" lon="4.89114">
        <ele>224</ele>
        <time>2010-11-23T18:36:24Z</time>
      </trkpt>
      <trkpt lat="45.7836" lon="4.89116">
        <ele>225</ele>
        <time>2010-11-23T18:36:25Z</time>
      </trkpt>
      <trkpt lat="45.78357" lon="4.89116">
        <ele>225</ele>
        <time>2010-11-23T18:36:26Z</time>
      </trkpt>
      <trkpt lat="45.78354" lon="4.89119">
        <ele>225</ele>
        <time>2010-11-23T18:36:27Z</time>
      </trkpt>
      <trkpt lat="45.78352" lon="4.89121">
        <ele>225</ele>
        <time>2010-11-23T18:36:28Z</time>
      </trkpt>
      <trkpt lat="45.7835" lon="4.89123">
        <ele>225</ele>
        <time>2010-11-23T18:36:29Z</time>
      </trkpt>
      <trkpt lat="45.78347" lon="4.89125">
        <ele>226</ele>
        <time>2010-11-23T18:36:30Z</time>
      </trkpt>
      <trkpt lat="45.78346" lon="4.89127">
        <ele>225</ele>
        <time>2010-11-23T18:36:31Z</time>
      </trkpt>
      <trkpt lat="45.78344" lon="4.89128">
        <ele>225</ele>
        <time>2010-11-23T18:36:32Z</time>
      </trkpt>
      <trkpt lat="45.78342" lon="4.89129">
        <ele>226</ele>
        <time>2010-11-23T18:36:33Z</time>
      </trkpt>
      <trkpt lat="45.78339" lon="4.89129">
        <ele>226</ele>
        <time>2010-11-23T18:36:34Z</time>
      </trkpt>
      <trkpt lat="45.78335" lon="4.8913">
        <ele>225</ele>
        <time>2010-11-23T18:36:35Z</time>
      </trkpt>
      <trkpt lat="45.78332" lon="4.89132">
        <ele>224</ele>
        <time>2010-11-23T18:36:36Z</time>
      </trkpt>
      <trkpt lat="45.78331" lon="4.89135">
        <ele>223</ele>
        <time>2010-11-23T18:36:37Z</time>
      </trkpt>
      <trkpt lat="45.78332" lon="4.89137">
        <ele>223</ele>
        <time>2010-11-23T18:36:38Z</time>
      </trkpt>
      <trkpt lat="45.78332" lon="4.8914">
        <ele>223</ele>
        <time>2010-11-23T18:36:39Z</time>
      </trkpt>
      <trkpt lat="45.78333" lon="4.89142">
        <ele>224</ele>
        <time>2010-11-23T18:36:40Z</time>
      </trkpt>
      <trkpt lat="45.78334" lon="4.89143">
        <ele>224</ele>
        <time>2010-11-23T18:36:41Z</time>
      </trkpt>
      <trkpt lat="45.78336" lon="4.89145">
        <ele>224</ele>
        <time>2010-11-23T18:36:42Z</time>
      </trkpt>
      <trkpt lat="45.78337" lon="4.89147">
        <ele>224</ele>
        <time>2010-11-23T18:36:43Z</time>
      </trkpt>
      <trkpt lat="45.78337" lon="4.89149">
        <ele>224</ele>
        <time>2010-11-23T18:36:44Z</time>
      </trkpt>
      <trkpt lat="45.78338" lon="4.89151">
        <ele>224</ele>
        <time>2010-11-23T18:36:45Z</time>
      </trkpt>
      <trkpt lat="45.7834" lon="4.89154">
        <ele>224</ele>
        <time>2010-11-23T18:36:46Z</time>
      </trkpt>
      <trkpt lat="45.78345" lon="4.8916">
        <ele>223.21453857422</ele>
        <time>2010-11-23T18:36:47Z</time>
      </trkpt>
      <trkpt lat="45.78348" lon="4.89165">
        <ele>223</ele>
        <time>2010-11-23T18:36:48Z</time>
      </trkpt>
      <trkpt lat="45.78351" lon="4.89169">
        <ele>222</ele>
        <time>2010-11-23T18:36:49Z</time>
      </trkpt>
      <trkpt lat="45.78353" lon="4.89173">
        <ele>222</ele>
        <time>2010-11-23T18:36:50Z</time>
      </trkpt>
      <trkpt lat="45.78355" lon="4.89172">
        <ele>222</ele>
        <time>2010-11-23T18:36:51Z</time>
      </trkpt>
      <trkpt lat="45.7836" lon="4.89167">
        <ele>221.35369873047</ele>
        <time>2010-11-23T18:36:52Z</time>
      </trkpt>
      <trkpt lat="45.78361" lon="4.89167">
        <ele>221</ele>
        <time>2010-11-23T18:36:53Z</time>
      </trkpt>
      <trkpt lat="45.78364" lon="4.89169">
        <ele>220</ele>
        <time>2010-11-23T18:36:54Z</time>
      </trkpt>
      <trkpt lat="45.78367" lon="4.8917">
        <ele>220</ele>
        <time>2010-11-23T18:36:55Z</time>
      </trkpt>
      <trkpt lat="45.7837" lon="4.89168">
        <ele>220</ele>
        <time>2010-11-23T18:36:56Z</time>
      </trkpt>
      <trkpt lat="45.78372" lon="4.89169">
        <ele>220</ele>
        <time>2010-11-23T18:36:57Z</time>
      </trkpt>
      <trkpt lat="45.78376" lon="4.89172">
        <ele>220</ele>
        <time>2010-11-23T18:36:58Z</time>
      </trkpt>
      <trkpt lat="45.7838" lon="4.89174">
        <ele>220</ele>
        <time>2010-11-23T18:36:59Z</time>
      </trkpt>
      <trkpt lat="45.78386" lon="4.89179">
        <ele>221</ele>
        <time>2010-11-23T18:37:00Z</time>
      </trkpt>
      <trkpt lat="45.78386" lon="4.89184">
        <ele>221</ele>
        <time>2010-11-23T18:37:01Z</time>
      </trkpt>
      <trkpt lat="45.78389" lon="4.8919">
        <ele>220</ele>
        <time>2010-11-23T18:37:02Z</time>
      </trkpt>
      <trkpt lat="45.78392" lon="4.89192">
        <ele>220</ele>
        <time>2010-11-23T18:37:03Z</time>
      </trkpt>
      <trkpt lat="45.78393" lon="4.89196">
        <ele>220</ele>
        <time>2010-11-23T18:37:05Z</time>
      </trkpt>
      <trkpt lat="45.78394" lon="4.89197">
        <ele>220.46109008789</ele>
        <time>2010-11-23T18:37:05Z</time>
      </trkpt>
      <trkpt lat="45.78397" lon="4.89206">
        <ele>221</ele>
        <time>2010-11-23T18:37:06Z</time>
      </trkpt>
      <trkpt lat="45.78399" lon="4.89209">
        <ele>221</ele>
        <time>2010-11-23T18:37:07Z</time>
      </trkpt>
      <trkpt lat="45.78403" lon="4.89211">
        <ele>221</ele>
        <time>2010-11-23T18:37:08Z</time>
      </trkpt>
      <trkpt lat="45.78405" lon="4.89212">
        <ele>220</ele>
        <time>2010-11-23T18:37:09Z</time>
      </trkpt>
      <trkpt lat="45.78407" lon="4.89215">
        <ele>220</ele>
        <time>2010-11-23T18:37:10Z</time>
      </trkpt>
      <trkpt lat="45.78408" lon="4.89218">
        <ele>220</ele>
        <time>2010-11-23T18:37:11Z</time>
      </trkpt>
      <trkpt lat="45.7841" lon="4.8922">
        <ele>220</ele>
        <time>2010-11-23T18:37:12Z</time>
      </trkpt>
      <trkpt lat="45.78413" lon="4.89223">
        <ele>221</ele>
        <time>2010-11-23T18:37:13Z</time>
      </trkpt>
      <trkpt lat="45.78414" lon="4.89224">
        <ele>221</ele>
        <time>2010-11-23T18:37:14Z</time>
      </trkpt>
      <trkpt lat="45.78417" lon="4.89226">
        <ele>221</ele>
        <time>2010-11-23T18:37:15Z</time>
      </trkpt>
      <trkpt lat="45.78419" lon="4.89227">
        <ele>222</ele>
        <time>2010-11-23T18:37:16Z</time>
      </trkpt>
      <trkpt lat="45.78421" lon="4.89227">
        <ele>222</ele>
        <time>2010-11-23T18:37:17Z</time>
      </trkpt>
      <trkpt lat="45.78425" lon="4.89223">
        <ele>222</ele>
        <time>2010-11-23T18:37:18Z</time>
      </trkpt>
      <trkpt lat="45.78427" lon="4.89222">
        <ele>222</ele>
        <time>2010-11-23T18:37:19Z</time>
      </trkpt>
      <trkpt lat="45.78429" lon="4.8922">
        <ele>222</ele>
        <time>2010-11-23T18:37:20Z</time>
      </trkpt>
      <trkpt lat="45.78432" lon="4.89218">
        <ele>222</ele>
        <time>2010-11-23T18:37:21Z</time>
      </trkpt>
      <trkpt lat="45.78434" lon="4.89217">
        <ele>222</ele>
        <time>2010-11-23T18:37:22Z</time>
      </trkpt>
      <trkpt lat="45.78437" lon="4.89216">
        <ele>223</ele>
        <time>2010-11-23T18:37:23Z</time>
      </trkpt>
      <trkpt lat="45.7844" lon="4.89214">
        <ele>223</ele>
        <time>2010-11-23T18:37:24Z</time>
      </trkpt>
      <trkpt lat="45.78443" lon="4.89211">
        <ele>222</ele>
        <time>2010-11-23T18:37:25Z</time>
      </trkpt>
      <trkpt lat="45.78445" lon="4.8921">
        <ele>222</ele>
        <time>2010-11-23T18:37:26Z</time>
      </trkpt>
      <trkpt lat="45.78448" lon="4.8921">
        <ele>222</ele>
        <time>2010-11-23T18:37:27Z</time>
      </trkpt>
      <trkpt lat="45.78449" lon="4.89212">
        <ele>222</ele>
        <time>2010-11-23T18:37:28Z</time>
      </trkpt>
      <trkpt lat="45.7845" lon="4.89218">
        <ele>221</ele>
        <time>2010-11-23T18:37:29Z</time>
      </trkpt>
      <trkpt lat="45.7845" lon="4.89225">
        <ele>222</ele>
        <time>2010-11-23T18:37:30Z</time>
      </trkpt>
      <trkpt lat="45.78449" lon="4.89229">
        <ele>221</ele>
        <time>2010-11-23T18:37:31Z</time>
      </trkpt>
      <trkpt lat="45.78448" lon="4.89233">
        <ele>222</ele>
        <time>2010-11-23T18:37:32Z</time>
      </trkpt>
      <trkpt lat="45.78446" lon="4.89238">
        <ele>222</ele>
        <time>2010-11-23T18:37:33Z</time>
      </trkpt>
      <trkpt lat="45.78444" lon="4.89242">
        <ele>222</ele>
        <time>2010-11-23T18:37:34Z</time>
      </trkpt>
      <trkpt lat="45.78442" lon="4.89246">
        <ele>222</ele>
        <time>2010-11-23T18:37:35Z</time>
      </trkpt>
      <trkpt lat="45.78441" lon="4.89249">
        <ele>222</ele>
        <time>2010-11-23T18:37:36Z</time>
      </trkpt>
      <trkpt lat="45.78439" lon="4.89252">
        <ele>222</ele>
        <time>2010-11-23T18:37:37Z</time>
      </trkpt>
      <trkpt lat="45.78436" lon="4.89253">
        <ele>222</ele>
        <time>2010-11-23T18:37:38Z</time>
      </trkpt>
      <trkpt lat="45.78434" lon="4.89255">
        <ele>222</ele>
        <time>2010-11-23T18:37:39Z</time>
      </trkpt>
      <trkpt lat="45.78432" lon="4.89257">
        <ele>223</ele>
        <time>2010-11-23T18:37:40Z</time>
      </trkpt>
      <trkpt lat="45.78429" lon="4.89259">
        <ele>224</ele>
        <time>2010-11-23T18:37:41Z</time>
      </trkpt>
      <trkpt lat="45.78427" lon="4.89261">
        <ele>225</ele>
        <time>2010-11-23T18:37:42Z</time>
      </trkpt>
      <trkpt lat="45.78425" lon="4.89263">
        <ele>225</ele>
        <time>2010-11-23T18:37:43Z</time>
      </trkpt>
      <trkpt lat="45.78421" lon="4.89264">
        <ele>225</ele>
        <time>2010-11-23T18:37:44Z</time>
      </trkpt>
      <trkpt lat="45.78419" lon="4.89263">
        <ele>227</ele>
        <time>2010-11-23T18:37:45Z</time>
      </trkpt>
      <trkpt lat="45.78416" lon="4.89264">
        <ele>228</ele>
        <time>2010-11-23T18:37:46Z</time>
      </trkpt>
      <trkpt lat="45.78413" lon="4.89265">
        <ele>228</ele>
        <time>2010-11-23T18:37:47Z</time>
      </trkpt>
      <trkpt lat="45.7841" lon="4.89266">
        <ele>228</ele>
        <time>2010-11-23T18:37:48Z</time>
      </trkpt>
      <trkpt lat="45.78408" lon="4.89267">
        <ele>228</ele>
        <time>2010-11-23T18:37:49Z</time>
      </trkpt>
      <trkpt lat="45.78405" lon="4.89268">
        <ele>228</ele>
        <time>2010-11-23T18:37:50Z</time>
      </trkpt>
      <trkpt lat="45.78403" lon="4.8927">
        <ele>228</ele>
        <time>2010-11-23T18:37:51Z</time>
      </trkpt>
      <trkpt lat="45.784" lon="4.89271">
        <ele>228</ele>
        <time>2010-11-23T18:37:52Z</time>
      </trkpt>
      <trkpt lat="45.78397" lon="4.89272">
        <ele>227</ele>
        <time>2010-11-23T18:37:53Z</time>
      </trkpt>
      <trkpt lat="45.78395" lon="4.89274">
        <ele>226</ele>
        <time>2010-11-23T18:37:54Z</time>
      </trkpt>
      <trkpt lat="45.78391" lon="4.89276">
        <ele>225</ele>
        <time>2010-11-23T18:37:55Z</time>
      </trkpt>
      <trkpt lat="45.78389" lon="4.89277">
        <ele>226</ele>
        <time>2010-11-23T18:37:56Z</time>
      </trkpt>
      <trkpt lat="45.78385" lon="4.89278">
        <ele>225</ele>
        <time>2010-11-23T18:37:57Z</time>
      </trkpt>
      <trkpt lat="45.78383" lon="4.89279">
        <ele>225</ele>
        <time>2010-11-23T18:37:58Z</time>
      </trkpt>
      <trkpt lat="45.78381" lon="4.89281">
        <ele>225</ele>
        <time>2010-11-23T18:37:59Z</time>
      </trkpt>
      <trkpt lat="45.78378" lon="4.89282">
        <ele>225</ele>
        <time>2010-11-23T18:38:00Z</time>
      </trkpt>
      <trkpt lat="45.78376" lon="4.89284">
        <ele>225</ele>
        <time>2010-11-23T18:38:01Z</time>
      </trkpt>
      <trkpt lat="45.78374" lon="4.89285">
        <ele>225</ele>
        <time>2010-11-23T18:38:02Z</time>
      </trkpt>
      <trkpt lat="45.78371" lon="4.89287">
        <ele>225</ele>
        <time>2010-11-23T18:38:03Z</time>
      </trkpt>
      <trkpt lat="45.7837" lon="4.89289">
        <ele>225</ele>
        <time>2010-11-23T18:38:04Z</time>
      </trkpt>
      <trkpt lat="45.78367" lon="4.89291">
        <ele>225</ele>
        <time>2010-11-23T18:38:05Z</time>
      </trkpt>
      <trkpt lat="45.78364" lon="4.89292">
        <ele>225</ele>
        <time>2010-11-23T18:38:06Z</time>
      </trkpt>
      <trkpt lat="45.78362" lon="4.89294">
        <ele>225</ele>
        <time>2010-11-23T18:38:07Z</time>
      </trkpt>
      <trkpt lat="45.7836" lon="4.89296">
        <ele>225</ele>
        <time>2010-11-23T18:38:08Z</time>
      </trkpt>
      <trkpt lat="45.78358" lon="4.89298">
        <ele>225</ele>
        <time>2010-11-23T18:38:09Z</time>
      </trkpt>
      <trkpt lat="45.78355" lon="4.893">
        <ele>225</ele>
        <time>2010-11-23T18:38:11Z</time>
      </trkpt>
      <trkpt lat="45.78354" lon="4.89302">
        <ele>225</ele>
        <time>2010-11-23T18:38:11Z</time>
      </trkpt>
      <trkpt lat="45.78351" lon="4.89302">
        <ele>225</ele>
        <time>2010-11-23T18:38:12Z</time>
      </trkpt>
      <trkpt lat="45.78349" lon="4.89303">
        <ele>225</ele>
        <time>2010-11-23T18:38:13Z</time>
      </trkpt>
      <trkpt lat="45.78347" lon="4.89306">
        <ele>225</ele>
        <time>2010-11-23T18:38:14Z</time>
      </trkpt>
      <trkpt lat="45.78345" lon="4.89308">
        <ele>226</ele>
        <time>2010-11-23T18:38:15Z</time>
      </trkpt>
      <trkpt lat="45.78339" lon="4.89311">
        <ele>226</ele>
        <time>2010-11-23T18:38:16Z</time>
      </trkpt>
      <trkpt lat="45.78337" lon="4.89313">
        <ele>226</ele>
        <time>2010-11-23T18:38:17Z</time>
      </trkpt>
      <trkpt lat="45.78333" lon="4.89313">
        <ele>225</ele>
        <time>2010-11-23T18:38:18Z</time>
      </trkpt>
      <trkpt lat="45.7833" lon="4.89314">
        <ele>225</ele>
        <time>2010-11-23T18:38:19Z</time>
      </trkpt>
      <trkpt lat="45.78323" lon="4.89314">
        <ele>225</ele>
        <time>2010-11-23T18:38:20Z</time>
      </trkpt>
      <trkpt lat="45.78318" lon="4.89314">
        <ele>225</ele>
        <time>2010-11-23T18:38:21Z</time>
      </trkpt>
      <trkpt lat="45.78316" lon="4.89315">
        <ele>225</ele>
        <time>2010-11-23T18:38:22Z</time>
      </trkpt>
      <trkpt lat="45.78311" lon="4.89316">
        <ele>225</ele>
        <time>2010-11-23T18:38:23Z</time>
      </trkpt>
      <trkpt lat="45.78307" lon="4.89315">
        <ele>225</ele>
        <time>2010-11-23T18:38:24Z</time>
      </trkpt>
      <trkpt lat="45.78306" lon="4.89316">
        <ele>225</ele>
        <time>2010-11-23T18:38:25Z</time>
      </trkpt>
      <trkpt lat="45.78302" lon="4.89316">
        <ele>225</ele>
        <time>2010-11-23T18:38:26Z</time>
      </trkpt>
      <trkpt lat="45.78301" lon="4.89318">
        <ele>225</ele>
        <time>2010-11-23T18:38:27Z</time>
      </trkpt>
      <trkpt lat="45.78299" lon="4.89319">
        <ele>225</ele>
        <time>2010-11-23T18:38:28Z</time>
      </trkpt>
      <trkpt lat="45.78296" lon="4.8932">
        <ele>225</ele>
        <time>2010-11-23T18:38:29Z</time>
      </trkpt>
      <trkpt lat="45.78294" lon="4.89322">
        <ele>224</ele>
        <time>2010-11-23T18:38:30Z</time>
      </trkpt>
      <trkpt lat="45.78292" lon="4.89323">
        <ele>224</ele>
        <time>2010-11-23T18:38:31Z</time>
      </trkpt>
      <trkpt lat="45.78289" lon="4.89325">
        <ele>224</ele>
        <time>2010-11-23T18:38:32Z</time>
      </trkpt>
      <trkpt lat="45.78287" lon="4.89324">
        <ele>223.36973571777</ele>
        <time>2010-11-23T18:38:33Z</time>
      </trkpt>
      <trkpt lat="45.78283" lon="4.89322">
        <ele>223</ele>
        <time>2010-11-23T18:38:34Z</time>
      </trkpt>
      <trkpt lat="45.78282" lon="4.89323">
        <ele>222</ele>
        <time>2010-11-23T18:38:35Z</time>
      </trkpt>
      <trkpt lat="45.7828" lon="4.89325">
        <ele>222</ele>
        <time>2010-11-23T18:38:36Z</time>
      </trkpt>
      <trkpt lat="45.78276" lon="4.89329">
        <ele>223</ele>
        <time>2010-11-23T18:38:37Z</time>
      </trkpt>
      <trkpt lat="45.78272" lon="4.89331">
        <ele>223</ele>
        <time>2010-11-23T18:38:38Z</time>
      </trkpt>
      <trkpt lat="45.7827" lon="4.89333">
        <ele>222</ele>
        <time>2010-11-23T18:38:39Z</time>
      </trkpt>
      <trkpt lat="45.78267" lon="4.89335">
        <ele>222</ele>
        <time>2010-11-23T18:38:40Z</time>
      </trkpt>
      <trkpt lat="45.78264" lon="4.89337">
        <ele>221</ele>
        <time>2010-11-23T18:38:41Z</time>
      </trkpt>
      <trkpt lat="45.78261" lon="4.89338">
        <ele>221</ele>
        <time>2010-11-23T18:38:42Z</time>
      </trkpt>
      <trkpt lat="45.78258" lon="4.89341">
        <ele>221</ele>
        <time>2010-11-23T18:38:43Z</time>
      </trkpt>
      <trkpt lat="45.78256" lon="4.89343">
        <ele>221</ele>
        <time>2010-11-23T18:38:44Z</time>
      </trkpt>
      <trkpt lat="45.78253" lon="4.89344">
        <ele>221</ele>
        <time>2010-11-23T18:38:45Z</time>
      </trkpt>
      <trkpt lat="45.7825" lon="4.89346">
        <ele>220</ele>
        <time>2010-11-23T18:38:46Z</time>
      </trkpt>
      <trkpt lat="45.78248" lon="4.89348">
        <ele>220</ele>
        <time>2010-11-23T18:38:47Z</time>
      </trkpt>
      <trkpt lat="45.78244" lon="4.89349">
        <ele>221</ele>
        <time>2010-11-23T18:38:48Z</time>
      </trkpt>
      <trkpt lat="45.78242" lon="4.8935">
        <ele>221</ele>
        <time>2010-11-23T18:38:49Z</time>
      </trkpt>
      <trkpt lat="45.7824" lon="4.89352">
        <ele>222</ele>
        <time>2010-11-23T18:38:50Z</time>
      </trkpt>
      <trkpt lat="45.78237" lon="4.89353">
        <ele>222</ele>
        <time>2010-11-23T18:38:51Z</time>
      </trkpt>
      <trkpt lat="45.78233" lon="4.89355">
        <ele>222</ele>
        <time>2010-11-23T18:38:52Z</time>
      </trkpt>
      <trkpt lat="45.7823" lon="4.89356">
        <ele>222</ele>
        <time>2010-11-23T18:38:53Z</time>
      </trkpt>
      <trkpt lat="45.78227" lon="4.89357">
        <ele>222</ele>
        <time>2010-11-23T18:38:54Z</time>
      </trkpt>
      <trkpt lat="45.78224" lon="4.89359">
        <ele>222</ele>
        <time>2010-11-23T18:38:55Z</time>
      </trkpt>
      <trkpt lat="45.78221" lon="4.8936">
        <ele>222</ele>
        <time>2010-11-23T18:38:56Z</time>
      </trkpt>
      <trkpt lat="45.7822" lon="4.89361">
        <ele>221</ele>
        <time>2010-11-23T18:38:57Z</time>
      </trkpt>
      <trkpt lat="45.78218" lon="4.89363">
        <ele>221</ele>
        <time>2010-11-23T18:38:58Z</time>
      </trkpt>
      <trkpt lat="45.78215" lon="4.89365">
        <ele>221</ele>
        <time>2010-11-23T18:38:59Z</time>
      </trkpt>
      <trkpt lat="45.78212" lon="4.89367">
        <ele>222</ele>
        <time>2010-11-23T18:39:00Z</time>
      </trkpt>
      <trkpt lat="45.78211" lon="4.89367">
        <ele>221</ele>
        <time>2010-11-23T18:39:01Z</time>
      </trkpt>
      <trkpt lat="45.78208" lon="4.89368">
        <ele>221</ele>
        <time>2010-11-23T18:39:02Z</time>
      </trkpt>
      <trkpt lat="45.78205" lon="4.89371">
        <ele>221</ele>
        <time>2010-11-23T18:39:03Z</time>
      </trkpt>
      <trkpt lat="45.78201" lon="4.89372">
        <ele>221</ele>
        <time>2010-11-23T18:39:04Z</time>
      </trkpt>
      <trkpt lat="45.78199" lon="4.89375">
        <ele>221</ele>
        <time>2010-11-23T18:39:05Z</time>
      </trkpt>
      <trkpt lat="45.78195" lon="4.89377">
        <ele>222</ele>
        <time>2010-11-23T18:39:06Z</time>
      </trkpt>
      <trkpt lat="45.78193" lon="4.89378">
        <ele>221</ele>
        <time>2010-11-23T18:39:07Z</time>
      </trkpt>
      <trkpt lat="45.78191" lon="4.8938">
        <ele>222</ele>
        <time>2010-11-23T18:39:08Z</time>
      </trkpt>
      <trkpt lat="45.78187" lon="4.89381">
        <ele>222</ele>
        <time>2010-11-23T18:39:09Z</time>
      </trkpt>
      <trkpt lat="45.78186" lon="4.89385">
        <ele>222</ele>
        <time>2010-11-23T18:39:11Z</time>
      </trkpt>
      <trkpt lat="45.78185" lon="4.89385">
        <ele>222</ele>
        <time>2010-11-23T18:39:11Z</time>
      </trkpt>
      <trkpt lat="45.7818" lon="4.89386">
        <ele>222</ele>
        <time>2010-11-23T18:39:12Z</time>
      </trkpt>
      <trkpt lat="45.78176" lon="4.89387">
        <ele>223</ele>
        <time>2010-11-23T18:39:13Z</time>
      </trkpt>
      <trkpt lat="45.78174" lon="4.89389">
        <ele>223</ele>
        <time>2010-11-23T18:39:14Z</time>
      </trkpt>
      <trkpt lat="45.78171" lon="4.89389">
        <ele>224</ele>
        <time>2010-11-23T18:39:15Z</time>
      </trkpt>
      <trkpt lat="45.78168" lon="4.8939">
        <ele>224</ele>
        <time>2010-11-23T18:39:17Z</time>
      </trkpt>
      <trkpt lat="45.78167" lon="4.8939">
        <ele>223.71681213379</ele>
        <time>2010-11-23T18:39:17Z</time>
      </trkpt>
      <trkpt lat="45.78161" lon="4.89392">
        <ele>222</ele>
        <time>2010-11-23T18:39:18Z</time>
      </trkpt>
      <trkpt lat="45.78157" lon="4.89393">
        <ele>223</ele>
        <time>2010-11-23T18:39:19Z</time>
      </trkpt>
      <trkpt lat="45.78155" lon="4.89395">
        <ele>223</ele>
        <time>2010-11-23T18:39:20Z</time>
      </trkpt>
      <trkpt lat="45.78152" lon="4.89397">
        <ele>223</ele>
        <time>2010-11-23T18:39:21Z</time>
      </trkpt>
      <trkpt lat="45.7815" lon="4.89401">
        <ele>223</ele>
        <time>2010-11-23T18:39:22Z</time>
      </trkpt>
      <trkpt lat="45.78148" lon="4.89402">
        <ele>222</ele>
        <time>2010-11-23T18:39:23Z</time>
      </trkpt>
      <trkpt lat="45.78145" lon="4.89404">
        <ele>222</ele>
        <time>2010-11-23T18:39:24Z</time>
      </trkpt>
      <trkpt lat="45.78143" lon="4.89406">
        <ele>222</ele>
        <time>2010-11-23T18:39:25Z</time>
      </trkpt>
      <trkpt lat="45.7814" lon="4.89408">
        <ele>222</ele>
        <time>2010-11-23T18:39:26Z</time>
      </trkpt>
      <trkpt lat="45.78137" lon="4.89409">
        <ele>222</ele>
        <time>2010-11-23T18:39:27Z</time>
      </trkpt>
      <trkpt lat="45.78134" lon="4.8941">
        <ele>222</ele>
        <time>2010-11-23T18:39:28Z</time>
      </trkpt>
      <trkpt lat="45.78132" lon="4.89411">
        <ele>222</ele>
        <time>2010-11-23T18:39:29Z</time>
      </trkpt>
      <trkpt lat="45.78128" lon="4.89412">
        <ele>222</ele>
        <time>2010-11-23T18:39:30Z</time>
      </trkpt>
      <trkpt lat="45.78125" lon="4.89414">
        <ele>222</ele>
        <time>2010-11-23T18:39:31Z</time>
      </trkpt>
      <trkpt lat="45.78123" lon="4.89415">
        <ele>222</ele>
        <time>2010-11-23T18:39:32Z</time>
      </trkpt>
      <trkpt lat="45.7812" lon="4.89417">
        <ele>222</ele>
        <time>2010-11-23T18:39:33Z</time>
      </trkpt>
      <trkpt lat="45.78118" lon="4.89419">
        <ele>222</ele>
        <time>2010-11-23T18:39:34Z</time>
      </trkpt>
      <trkpt lat="45.78116" lon="4.89421">
        <ele>222</ele>
        <time>2010-11-23T18:39:35Z</time>
      </trkpt>
      <trkpt lat="45.78112" lon="4.89423">
        <ele>222</ele>
        <time>2010-11-23T18:39:36Z</time>
      </trkpt>
      <trkpt lat="45.7811" lon="4.89425">
        <ele>222</ele>
        <time>2010-11-23T18:39:37Z</time>
      </trkpt>
      <trkpt lat="45.78107" lon="4.89426">
        <ele>223</ele>
        <time>2010-11-23T18:39:38Z</time>
      </trkpt>
      <trkpt lat="45.78105" lon="4.89428">
        <ele>223</ele>
        <time>2010-11-23T18:39:39Z</time>
      </trkpt>
      <trkpt lat="45.78102" lon="4.8943">
        <ele>223</ele>
        <time>2010-11-23T18:39:40Z</time>
      </trkpt>
      <trkpt lat="45.78099" lon="4.89431">
        <ele>224</ele>
        <time>2010-11-23T18:39:41Z</time>
      </trkpt>
      <trkpt lat="45.78097" lon="4.89433">
        <ele>223</ele>
        <time>2010-11-23T18:39:42Z</time>
      </trkpt>
      <trkpt lat="45.78095" lon="4.89434">
        <ele>224</ele>
        <time>2010-11-23T18:39:43Z</time>
      </trkpt>
      <trkpt lat="45.78091" lon="4.89436">
        <ele>223</ele>
        <time>2010-11-23T18:39:44Z</time>
      </trkpt>
      <trkpt lat="45.78088" lon="4.89437">
        <ele>223</ele>
        <time>2010-11-23T18:39:45Z</time>
      </trkpt>
      <trkpt lat="45.78086" lon="4.89439">
        <ele>223</ele>
        <time>2010-11-23T18:39:46Z</time>
      </trkpt>
      <trkpt lat="45.78083" lon="4.8944">
        <ele>223</ele>
        <time>2010-11-23T18:39:47Z</time>
      </trkpt>
      <trkpt lat="45.7808" lon="4.89442">
        <ele>223</ele>
        <time>2010-11-23T18:39:48Z</time>
      </trkpt>
      <trkpt lat="45.78078" lon="4.89443">
        <ele>222</ele>
        <time>2010-11-23T18:39:49Z</time>
      </trkpt>
      <trkpt lat="45.78075" lon="4.89445">
        <ele>222</ele>
        <time>2010-11-23T18:39:50Z</time>
      </trkpt>
      <trkpt lat="45.78073" lon="4.89448">
        <ele>223</ele>
        <time>2010-11-23T18:39:51Z</time>
      </trkpt>
      <trkpt lat="45.78069" lon="4.89449">
        <ele>223</ele>
        <time>2010-11-23T18:39:52Z</time>
      </trkpt>
      <trkpt lat="45.78066" lon="4.89451">
        <ele>222</ele>
        <time>2010-11-23T18:39:53Z</time>
      </trkpt>
      <trkpt lat="45.78064" lon="4.89453">
        <ele>222</ele>
        <time>2010-11-23T18:39:54Z</time>
      </trkpt>
      <trkpt lat="45.78061" lon="4.89455">
        <ele>222</ele>
        <time>2010-11-23T18:39:55Z</time>
      </trkpt>
      <trkpt lat="45.78059" lon="4.89457">
        <ele>222</ele>
        <time>2010-11-23T18:39:56Z</time>
      </trkpt>
      <trkpt lat="45.78057" lon="4.89459">
        <ele>223</ele>
        <time>2010-11-23T18:39:57Z</time>
      </trkpt>
      <trkpt lat="45.78054" lon="4.8946">
        <ele>223</ele>
        <time>2010-11-23T18:39:58Z</time>
      </trkpt>
      <trkpt lat="45.78051" lon="4.89462">
        <ele>223</ele>
        <time>2010-11-23T18:39:59Z</time>
      </trkpt>
      <trkpt lat="45.78048" lon="4.89464">
        <ele>224</ele>
        <time>2010-11-23T18:40:01Z</time>
      </trkpt>
      <trkpt lat="45.78048" lon="4.89464">
        <ele>224</ele>
        <time>2010-11-23T18:40:01Z</time>
      </trkpt>
      <trkpt lat="45.78044" lon="4.89467">
        <ele>224</ele>
        <time>2010-11-23T18:40:02Z</time>
      </trkpt>
      <trkpt lat="45.7804" lon="4.8947">
        <ele>224</ele>
        <time>2010-11-23T18:40:03Z</time>
      </trkpt>
      <trkpt lat="45.78039" lon="4.89472">
        <ele>224</ele>
        <time>2010-11-23T18:40:04Z</time>
      </trkpt>
      <trkpt lat="45.78036" lon="4.89474">
        <ele>224</ele>
        <time>2010-11-23T18:40:05Z</time>
      </trkpt>
      <trkpt lat="45.78034" lon="4.89477">
        <ele>224</ele>
        <time>2010-11-23T18:40:06Z</time>
      </trkpt>
      <trkpt lat="45.78031" lon="4.89478">
        <ele>223</ele>
        <time>2010-11-23T18:40:07Z</time>
      </trkpt>
      <trkpt lat="45.78028" lon="4.89481">
        <ele>223</ele>
        <time>2010-11-23T18:40:08Z</time>
      </trkpt>
      <trkpt lat="45.78025" lon="4.89483">
        <ele>222</ele>
        <time>2010-11-23T18:40:09Z</time>
      </trkpt>
      <trkpt lat="45.78023" lon="4.89485">
        <ele>222</ele>
        <time>2010-11-23T18:40:10Z</time>
      </trkpt>
      <trkpt lat="45.7802" lon="4.89488">
        <ele>222</ele>
        <time>2010-11-23T18:40:11Z</time>
      </trkpt>
      <trkpt lat="45.78017" lon="4.8949">
        <ele>222</ele>
        <time>2010-11-23T18:40:12Z</time>
      </trkpt>
      <trkpt lat="45.78015" lon="4.89491">
        <ele>222</ele>
        <time>2010-11-23T18:40:13Z</time>
      </trkpt>
      <trkpt lat="45.78013" lon="4.89492">
        <ele>222</ele>
        <time>2010-11-23T18:40:14Z</time>
      </trkpt>
      <trkpt lat="45.78011" lon="4.89494">
        <ele>222</ele>
        <time>2010-11-23T18:40:15Z</time>
      </trkpt>
      <trkpt lat="45.78008" lon="4.89496">
        <ele>222</ele>
        <time>2010-11-23T18:40:16Z</time>
      </trkpt>
      <trkpt lat="45.78006" lon="4.89498">
        <ele>222</ele>
        <time>2010-11-23T18:40:17Z</time>
      </trkpt>
      <trkpt lat="45.78003" lon="4.895">
        <ele>222</ele>
        <time>2010-11-23T18:40:18Z</time>
      </trkpt>
      <trkpt lat="45.78001" lon="4.89502">
        <ele>222</ele>
        <time>2010-11-23T18:40:19Z</time>
      </trkpt>
      <trkpt lat="45.77999" lon="4.89504">
        <ele>222</ele>
        <time>2010-11-23T18:40:20Z</time>
      </trkpt>
      <trkpt lat="45.77996" lon="4.89505">
        <ele>223</ele>
        <time>2010-11-23T18:40:21Z</time>
      </trkpt>
      <trkpt lat="45.77994" lon="4.89507">
        <ele>223</ele>
        <time>2010-11-23T18:40:22Z</time>
      </trkpt>
      <trkpt lat="45.77991" lon="4.89509">
        <ele>223</ele>
        <time>2010-11-23T18:40:23Z</time>
      </trkpt>
      <trkpt lat="45.77989" lon="4.89511">
        <ele>222</ele>
        <time>2010-11-23T18:40:24Z</time>
      </trkpt>
      <trkpt lat="45.77986" lon="4.89513">
        <ele>222</ele>
        <time>2010-11-23T18:40:25Z</time>
      </trkpt>
      <trkpt lat="45.77984" lon="4.89515">
        <ele>222</ele>
        <time>2010-11-23T18:40:26Z</time>
      </trkpt>
      <trkpt lat="45.77981" lon="4.89518">
        <ele>222</ele>
        <time>2010-11-23T18:40:27Z</time>
      </trkpt>
      <trkpt lat="45.77979" lon="4.8952">
        <ele>223</ele>
        <time>2010-11-23T18:40:28Z</time>
      </trkpt>
      <trkpt lat="45.77976" lon="4.89522">
        <ele>222</ele>
        <time>2010-11-23T18:40:29Z</time>
      </trkpt>
      <trkpt lat="45.77974" lon="4.89524">
        <ele>222</ele>
        <time>2010-11-23T18:40:30Z</time>
      </trkpt>
      <trkpt lat="45.77971" lon="4.89526">
        <ele>222</ele>
        <time>2010-11-23T18:40:31Z</time>
      </trkpt>
      <trkpt lat="45.77969" lon="4.89527">
        <ele>222</ele>
        <time>2010-11-23T18:40:32Z</time>
      </trkpt>
      <trkpt lat="45.77966" lon="4.89529">
        <ele>222</ele>
        <time>2010-11-23T18:40:33Z</time>
      </trkpt>
      <trkpt lat="45.77963" lon="4.89532">
        <ele>223</ele>
        <time>2010-11-23T18:40:34Z</time>
      </trkpt>
      <trkpt lat="45.77961" lon="4.89533">
        <ele>223</ele>
        <time>2010-11-23T18:40:35Z</time>
      </trkpt>
      <trkpt lat="45.77958" lon="4.89535">
        <ele>223</ele>
        <time>2010-11-23T18:40:36Z</time>
      </trkpt>
      <trkpt lat="45.77955" lon="4.89537">
        <ele>223</ele>
        <time>2010-11-23T18:40:37Z</time>
      </trkpt>
      <trkpt lat="45.77953" lon="4.89539">
        <ele>223</ele>
        <time>2010-11-23T18:40:38Z</time>
      </trkpt>
      <trkpt lat="45.7795" lon="4.89541">
        <ele>223</ele>
        <time>2010-11-23T18:40:39Z</time>
      </trkpt>
      <trkpt lat="45.77948" lon="4.89543">
        <ele>223</ele>
        <time>2010-11-23T18:40:40Z</time>
      </trkpt>
      <trkpt lat="45.77946" lon="4.89544">
        <ele>223</ele>
        <time>2010-11-23T18:40:41Z</time>
      </trkpt>
      <trkpt lat="45.77943" lon="4.89546">
        <ele>224</ele>
        <time>2010-11-23T18:40:42Z</time>
      </trkpt>
      <trkpt lat="45.77941" lon="4.89548">
        <ele>224</ele>
        <time>2010-11-23T18:40:43Z</time>
      </trkpt>
      <trkpt lat="45.77939" lon="4.8955">
        <ele>224</ele>
        <time>2010-11-23T18:40:44Z</time>
      </trkpt>
      <trkpt lat="45.77937" lon="4.89551">
        <ele>224</ele>
        <time>2010-11-23T18:40:45Z</time>
      </trkpt>
      <trkpt lat="45.77934" lon="4.89554">
        <ele>224</ele>
        <time>2010-11-23T18:40:46Z</time>
      </trkpt>
      <trkpt lat="45.77932" lon="4.89555">
        <ele>225</ele>
        <time>2010-11-23T18:40:47Z</time>
      </trkpt>
      <trkpt lat="45.77929" lon="4.89557">
        <ele>225</ele>
        <time>2010-11-23T18:40:48Z</time>
      </trkpt>
      <trkpt lat="45.77927" lon="4.89559">
        <ele>225</ele>
        <time>2010-11-23T18:40:49Z</time>
      </trkpt>
      <trkpt lat="45.77925" lon="4.89562">
        <ele>225</ele>
        <time>2010-11-23T18:40:50Z</time>
      </trkpt>
      <trkpt lat="45.77922" lon="4.89564">
        <ele>225</ele>
        <time>2010-11-23T18:40:51Z</time>
      </trkpt>
      <trkpt lat="45.77919" lon="4.89565">
        <ele>225</ele>
        <time>2010-11-23T18:40:52Z</time>
      </trkpt>
      <trkpt lat="45.77917" lon="4.89568">
        <ele>225</ele>
        <time>2010-11-23T18:40:53Z</time>
      </trkpt>
      <trkpt lat="45.77914" lon="4.8957">
        <ele>224</ele>
        <time>2010-11-23T18:40:54Z</time>
      </trkpt>
      <trkpt lat="45.77912" lon="4.89572">
        <ele>224</ele>
        <time>2010-11-23T18:40:55Z</time>
      </trkpt>
      <trkpt lat="45.7791" lon="4.89574">
        <ele>224</ele>
        <time>2010-11-23T18:40:56Z</time>
      </trkpt>
      <trkpt lat="45.77907" lon="4.89576">
        <ele>224</ele>
        <time>2010-11-23T18:40:57Z</time>
      </trkpt>
      <trkpt lat="45.77904" lon="4.89578">
        <ele>224</ele>
        <time>2010-11-23T18:40:58Z</time>
      </trkpt>
      <trkpt lat="45.77902" lon="4.8958">
        <ele>224</ele>
        <time>2010-11-23T18:40:59Z</time>
      </trkpt>
      <trkpt lat="45.77899" lon="4.89583">
        <ele>223</ele>
        <time>2010-11-23T18:41:00Z</time>
      </trkpt>
      <trkpt lat="45.77896" lon="4.89584">
        <ele>223</ele>
        <time>2010-11-23T18:41:01Z</time>
      </trkpt>
      <trkpt lat="45.77894" lon="4.89586">
        <ele>223</ele>
        <time>2010-11-23T18:41:02Z</time>
      </trkpt>
      <trkpt lat="45.77891" lon="4.89588">
        <ele>224</ele>
        <time>2010-11-23T18:41:03Z</time>
      </trkpt>
      <trkpt lat="45.77889" lon="4.8959">
        <ele>224</ele>
        <time>2010-11-23T18:41:04Z</time>
      </trkpt>
      <trkpt lat="45.77887" lon="4.89592">
        <ele>224</ele>
        <time>2010-11-23T18:41:05Z</time>
      </trkpt>
      <trkpt lat="45.77884" lon="4.89593">
        <ele>224</ele>
        <time>2010-11-23T18:41:07Z</time>
      </trkpt>
      <trkpt lat="45.77883" lon="4.89594">
        <ele>224</ele>
        <time>2010-11-23T18:41:07Z</time>
      </trkpt>
      <trkpt lat="45.7788" lon="4.89598">
        <ele>224</ele>
        <time>2010-11-23T18:41:08Z</time>
      </trkpt>
      <trkpt lat="45.77878" lon="4.89601">
        <ele>224</ele>
        <time>2010-11-23T18:41:09Z</time>
      </trkpt>
      <trkpt lat="45.77876" lon="4.89603">
        <ele>224</ele>
        <time>2010-11-23T18:41:10Z</time>
      </trkpt>
      <trkpt lat="45.77874" lon="4.89605">
        <ele>224</ele>
        <time>2010-11-23T18:41:11Z</time>
      </trkpt>
      <trkpt lat="45.77871" lon="4.89607">
        <ele>224</ele>
        <time>2010-11-23T18:41:12Z</time>
      </trkpt>
      <trkpt lat="45.77868" lon="4.89608">
        <ele>224</ele>
        <time>2010-11-23T18:41:13Z</time>
      </trkpt>
      <trkpt lat="45.77866" lon="4.8961">
        <ele>224</ele>
        <time>2010-11-23T18:41:14Z</time>
      </trkpt>
      <trkpt lat="45.77863" lon="4.89612">
        <ele>225</ele>
        <time>2010-11-23T18:41:15Z</time>
      </trkpt>
      <trkpt lat="45.77861" lon="4.89614">
        <ele>225</ele>
        <time>2010-11-23T18:41:16Z</time>
      </trkpt>
      <trkpt lat="45.77859" lon="4.89616">
        <ele>224</ele>
        <time>2010-11-23T18:41:17Z</time>
      </trkpt>
      <trkpt lat="45.77856" lon="4.89617">
        <ele>224</ele>
        <time>2010-11-23T18:41:18Z</time>
      </trkpt>
      <trkpt lat="45.77854" lon="4.89619">
        <ele>224</ele>
        <time>2010-11-23T18:41:19Z</time>
      </trkpt>
      <trkpt lat="45.77852" lon="4.89621">
        <ele>224</ele>
        <time>2010-11-23T18:41:20Z</time>
      </trkpt>
      <trkpt lat="45.7785" lon="4.89623">
        <ele>224</ele>
        <time>2010-11-23T18:41:21Z</time>
      </trkpt>
      <trkpt lat="45.77847" lon="4.89625">
        <ele>224</ele>
        <time>2010-11-23T18:41:22Z</time>
      </trkpt>
      <trkpt lat="45.77845" lon="4.89628">
        <ele>225</ele>
        <time>2010-11-23T18:41:23Z</time>
      </trkpt>
      <trkpt lat="45.77842" lon="4.8963">
        <ele>225</ele>
        <time>2010-11-23T18:41:24Z</time>
      </trkpt>
      <trkpt lat="45.7784" lon="4.89632">
        <ele>225</ele>
        <time>2010-11-23T18:41:25Z</time>
      </trkpt>
      <trkpt lat="45.77838" lon="4.89634">
        <ele>225</ele>
        <time>2010-11-23T18:41:26Z</time>
      </trkpt>
      <trkpt lat="45.77836" lon="4.89636">
        <ele>225</ele>
        <time>2010-11-23T18:41:27Z</time>
      </trkpt>
      <trkpt lat="45.77833" lon="4.89638">
        <ele>225</ele>
        <time>2010-11-23T18:41:28Z</time>
      </trkpt>
      <trkpt lat="45.77832" lon="4.89639">
        <ele>225</ele>
        <time>2010-11-23T18:41:29Z</time>
      </trkpt>
      <trkpt lat="45.77828" lon="4.89642">
        <ele>224</ele>
        <time>2010-11-23T18:41:30Z</time>
      </trkpt>
      <trkpt lat="45.77825" lon="4.89644">
        <ele>224</ele>
        <time>2010-11-23T18:41:31Z</time>
      </trkpt>
      <trkpt lat="45.77822" lon="4.89646">
        <ele>223</ele>
        <time>2010-11-23T18:41:32Z</time>
      </trkpt>
      <trkpt lat="45.77819" lon="4.89647">
        <ele>223</ele>
        <time>2010-11-23T18:41:33Z</time>
      </trkpt>
      <trkpt lat="45.77817" lon="4.8965">
        <ele>224</ele>
        <time>2010-11-23T18:41:34Z</time>
      </trkpt>
      <trkpt lat="45.77814" lon="4.89651">
        <ele>223</ele>
        <time>2010-11-23T18:41:35Z</time>
      </trkpt>
      <trkpt lat="45.77811" lon="4.89653">
        <ele>223</ele>
        <time>2010-11-23T18:41:36Z</time>
      </trkpt>
      <trkpt lat="45.77809" lon="4.89655">
        <ele>223</ele>
        <time>2010-11-23T18:41:37Z</time>
      </trkpt>
      <trkpt lat="45.77807" lon="4.89657">
        <ele>222</ele>
        <time>2010-11-23T18:41:38Z</time>
      </trkpt>
      <trkpt lat="45.77804" lon="4.89659">
        <ele>222</ele>
        <time>2010-11-23T18:41:39Z</time>
      </trkpt>
      <trkpt lat="45.77802" lon="4.89661">
        <ele>222</ele>
        <time>2010-11-23T18:41:40Z</time>
      </trkpt>
      <trkpt lat="45.778" lon="4.89663">
        <ele>222</ele>
        <time>2010-11-23T18:41:41Z</time>
      </trkpt>
      <trkpt lat="45.77797" lon="4.89665">
        <ele>222</ele>
        <time>2010-11-23T18:41:42Z</time>
      </trkpt>
      <trkpt lat="45.77795" lon="4.89667">
        <ele>223</ele>
        <time>2010-11-23T18:41:43Z</time>
      </trkpt>
      <trkpt lat="45.77793" lon="4.89669">
        <ele>224</ele>
        <time>2010-11-23T18:41:44Z</time>
      </trkpt>
      <trkpt lat="45.7779" lon="4.89671">
        <ele>224</ele>
        <time>2010-11-23T18:41:45Z</time>
      </trkpt>
      <trkpt lat="45.77788" lon="4.89673">
        <ele>224</ele>
        <time>2010-11-23T18:41:46Z</time>
      </trkpt>
      <trkpt lat="45.77785" lon="4.89675">
        <ele>223</ele>
        <time>2010-11-23T18:41:47Z</time>
      </trkpt>
      <trkpt lat="45.77782" lon="4.89676">
        <ele>223</ele>
        <time>2010-11-23T18:41:48Z</time>
      </trkpt>
      <trkpt lat="45.7778" lon="4.89678">
        <ele>223</ele>
        <time>2010-11-23T18:41:49Z</time>
      </trkpt>
      <trkpt lat="45.77778" lon="4.8968">
        <ele>223</ele>
        <time>2010-11-23T18:41:50Z</time>
      </trkpt>
      <trkpt lat="45.77776" lon="4.89681">
        <ele>222.32002258301</ele>
        <time>2010-11-23T18:41:51Z</time>
      </trkpt>
      <trkpt lat="45.77773" lon="4.89684">
        <ele>222</ele>
        <time>2010-11-23T18:41:52Z</time>
      </trkpt>
      <trkpt lat="45.77771" lon="4.89687">
        <ele>223</ele>
        <time>2010-11-23T18:41:53Z</time>
      </trkpt>
      <trkpt lat="45.77768" lon="4.89688">
        <ele>223</ele>
        <time>2010-11-23T18:41:54Z</time>
      </trkpt>
      <trkpt lat="45.77765" lon="4.8969">
        <ele>223</ele>
        <time>2010-11-23T18:41:55Z</time>
      </trkpt>
      <trkpt lat="45.77763" lon="4.89691">
        <ele>223</ele>
        <time>2010-11-23T18:41:56Z</time>
      </trkpt>
      <trkpt lat="45.7776" lon="4.89693">
        <ele>224</ele>
        <time>2010-11-23T18:41:57Z</time>
      </trkpt>
      <trkpt lat="45.77757" lon="4.89695">
        <ele>224</ele>
        <time>2010-11-23T18:41:58Z</time>
      </trkpt>
      <trkpt lat="45.77753" lon="4.89698">
        <ele>223</ele>
        <time>2010-11-23T18:41:59Z</time>
      </trkpt>
      <trkpt lat="45.77751" lon="4.897">
        <ele>223</ele>
        <time>2010-11-23T18:42:00Z</time>
      </trkpt>
      <trkpt lat="45.7775" lon="4.89702">
        <ele>222</ele>
        <time>2010-11-23T18:42:01Z</time>
      </trkpt>
      <trkpt lat="45.77748" lon="4.89704">
        <ele>222</ele>
        <time>2010-11-23T18:42:02Z</time>
      </trkpt>
      <trkpt lat="45.77746" lon="4.89706">
        <ele>222</ele>
        <time>2010-11-23T18:42:03Z</time>
      </trkpt>
      <trkpt lat="45.77743" lon="4.89708">
        <ele>223</ele>
        <time>2010-11-23T18:42:04Z</time>
      </trkpt>
      <trkpt lat="45.77741" lon="4.89711">
        <ele>223</ele>
        <time>2010-11-23T18:42:05Z</time>
      </trkpt>
      <trkpt lat="45.77738" lon="4.89713">
        <ele>223</ele>
        <time>2010-11-23T18:42:06Z</time>
      </trkpt>
      <trkpt lat="45.77736" lon="4.89716">
        <ele>223</ele>
        <time>2010-11-23T18:42:07Z</time>
      </trkpt>
      <trkpt lat="45.77734" lon="4.89717">
        <ele>223</ele>
        <time>2010-11-23T18:42:08Z</time>
      </trkpt>
      <trkpt lat="45.77731" lon="4.89719">
        <ele>223</ele>
        <time>2010-11-23T18:42:09Z</time>
      </trkpt>
      <trkpt lat="45.77729" lon="4.89721">
        <ele>223</ele>
        <time>2010-11-23T18:42:10Z</time>
      </trkpt>
      <trkpt lat="45.77727" lon="4.89724">
        <ele>223</ele>
        <time>2010-11-23T18:42:11Z</time>
      </trkpt>
      <trkpt lat="45.77725" lon="4.89725">
        <ele>223</ele>
        <time>2010-11-23T18:42:13Z</time>
      </trkpt>
      <trkpt lat="45.77724" lon="4.89725">
        <ele>223</ele>
        <time>2010-11-23T18:42:13Z</time>
      </trkpt>
      <trkpt lat="45.77719" lon="4.89728">
        <ele>223</ele>
        <time>2010-11-23T18:42:14Z</time>
      </trkpt>
      <trkpt lat="45.77717" lon="4.89731">
        <ele>223</ele>
        <time>2010-11-23T18:42:15Z</time>
      </trkpt>
      <trkpt lat="45.77714" lon="4.89733">
        <ele>224</ele>
        <time>2010-11-23T18:42:16Z</time>
      </trkpt>
      <trkpt lat="45.77712" lon="4.89735">
        <ele>224</ele>
        <time>2010-11-23T18:42:17Z</time>
      </trkpt>
      <trkpt lat="45.77709" lon="4.89737">
        <ele>223</ele>
        <time>2010-11-23T18:42:18Z</time>
      </trkpt>
      <trkpt lat="45.77707" lon="4.89739">
        <ele>223</ele>
        <time>2010-11-23T18:42:19Z</time>
      </trkpt>
      <trkpt lat="45.77705" lon="4.89741">
        <ele>223</ele>
        <time>2010-11-23T18:42:20Z</time>
      </trkpt>
      <trkpt lat="45.77702" lon="4.89743">
        <ele>222</ele>
        <time>2010-11-23T18:42:21Z</time>
      </trkpt>
      <trkpt lat="45.77699" lon="4.89745">
        <ele>222</ele>
        <time>2010-11-23T18:42:22Z</time>
      </trkpt>
      <trkpt lat="45.77697" lon="4.89747">
        <ele>222</ele>
        <time>2010-11-23T18:42:23Z</time>
      </trkpt>
      <trkpt lat="45.77693" lon="4.89749">
        <ele>222</ele>
        <time>2010-11-23T18:42:24Z</time>
      </trkpt>
      <trkpt lat="45.7769" lon="4.8975">
        <ele>222</ele>
        <time>2010-11-23T18:42:25Z</time>
      </trkpt>
      <trkpt lat="45.77688" lon="4.89753">
        <ele>222</ele>
        <time>2010-11-23T18:42:26Z</time>
      </trkpt>
      <trkpt lat="45.77685" lon="4.89755">
        <ele>222</ele>
        <time>2010-11-23T18:42:27Z</time>
      </trkpt>
      <trkpt lat="45.77683" lon="4.89756">
        <ele>222</ele>
        <time>2010-11-23T18:42:28Z</time>
      </trkpt>
      <trkpt lat="45.77681" lon="4.89758">
        <ele>221</ele>
        <time>2010-11-23T18:42:29Z</time>
      </trkpt>
      <trkpt lat="45.77678" lon="4.8976">
        <ele>221</ele>
        <time>2010-11-23T18:42:30Z</time>
      </trkpt>
      <trkpt lat="45.77675" lon="4.89763">
        <ele>221</ele>
        <time>2010-11-23T18:42:31Z</time>
      </trkpt>
      <trkpt lat="45.77672" lon="4.89764">
        <ele>221</ele>
        <time>2010-11-23T18:42:32Z</time>
      </trkpt>
      <trkpt lat="45.7767" lon="4.89766">
        <ele>221</ele>
        <time>2010-11-23T18:42:33Z</time>
      </trkpt>
      <trkpt lat="45.77667" lon="4.89768">
        <ele>221</ele>
        <time>2010-11-23T18:42:34Z</time>
      </trkpt>
      <trkpt lat="45.77664" lon="4.89769">
        <ele>222</ele>
        <time>2010-11-23T18:42:35Z</time>
      </trkpt>
      <trkpt lat="45.77662" lon="4.89772">
        <ele>222</ele>
        <time>2010-11-23T18:42:36Z</time>
      </trkpt>
      <trkpt lat="45.7766" lon="4.89775">
        <ele>221</ele>
        <time>2010-11-23T18:42:37Z</time>
      </trkpt>
      <trkpt lat="45.77655" lon="4.89777">
        <ele>221</ele>
        <time>2010-11-23T18:42:38Z</time>
      </trkpt>
      <trkpt lat="45.77652" lon="4.89779">
        <ele>222</ele>
        <time>2010-11-23T18:42:39Z</time>
      </trkpt>
      <trkpt lat="45.7765" lon="4.89782">
        <ele>222</ele>
        <time>2010-11-23T18:42:40Z</time>
      </trkpt>
      <trkpt lat="45.77647" lon="4.89784">
        <ele>222</ele>
        <time>2010-11-23T18:42:41Z</time>
      </trkpt>
      <trkpt lat="45.77646" lon="4.89786">
        <ele>222</ele>
        <time>2010-11-23T18:42:42Z</time>
      </trkpt>
      <trkpt lat="45.77644" lon="4.89789">
        <ele>222</ele>
        <time>2010-11-23T18:42:43Z</time>
      </trkpt>
      <trkpt lat="45.77641" lon="4.89791">
        <ele>223</ele>
        <time>2010-11-23T18:42:44Z</time>
      </trkpt>
      <trkpt lat="45.77639" lon="4.89793">
        <ele>223</ele>
        <time>2010-11-23T18:42:45Z</time>
      </trkpt>
      <trkpt lat="45.77637" lon="4.89795">
        <ele>223</ele>
        <time>2010-11-23T18:42:46Z</time>
      </trkpt>
      <trkpt lat="45.77634" lon="4.89798">
        <ele>224</ele>
        <time>2010-11-23T18:42:47Z</time>
      </trkpt>
      <trkpt lat="45.77632" lon="4.898">
        <ele>225</ele>
        <time>2010-11-23T18:42:48Z</time>
      </trkpt>
      <trkpt lat="45.7763" lon="4.89802">
        <ele>225</ele>
        <time>2010-11-23T18:42:49Z</time>
      </trkpt>
      <trkpt lat="45.77628" lon="4.89805">
        <ele>225</ele>
        <time>2010-11-23T18:42:50Z</time>
      </trkpt>
      <trkpt lat="45.77626" lon="4.89807">
        <ele>225</ele>
        <time>2010-11-23T18:42:51Z</time>
      </trkpt>
      <trkpt lat="45.77624" lon="4.89809">
        <ele>225</ele>
        <time>2010-11-23T18:42:52Z</time>
      </trkpt>
      <trkpt lat="45.77621" lon="4.89811">
        <ele>224</ele>
        <time>2010-11-23T18:42:53Z</time>
      </trkpt>
      <trkpt lat="45.77619" lon="4.89812">
        <ele>225</ele>
        <time>2010-11-23T18:42:54Z</time>
      </trkpt>
      <trkpt lat="45.77617" lon="4.89813">
        <ele>224</ele>
        <time>2010-11-23T18:42:55Z</time>
      </trkpt>
      <trkpt lat="45.77616" lon="4.89815">
        <ele>224</ele>
        <time>2010-11-23T18:42:57Z</time>
      </trkpt>
      <trkpt lat="45.77615" lon="4.89815">
        <ele>223.71755981445</ele>
        <time>2010-11-23T18:42:57Z</time>
      </trkpt>
      <trkpt lat="45.77611" lon="4.8982">
        <ele>224</ele>
        <time>2010-11-23T18:42:58Z</time>
      </trkpt>
      <trkpt lat="45.77608" lon="4.89822">
        <ele>224</ele>
        <time>2010-11-23T18:42:59Z</time>
      </trkpt>
      <trkpt lat="45.77605" lon="4.89823">
        <ele>224</ele>
        <time>2010-11-23T18:43:00Z</time>
      </trkpt>
      <trkpt lat="45.77604" lon="4.89825">
        <ele>224</ele>
        <time>2010-11-23T18:43:01Z</time>
      </trkpt>
      <trkpt lat="45.776" lon="4.89824">
        <ele>224</ele>
        <time>2010-11-23T18:43:02Z</time>
      </trkpt>
      <trkpt lat="45.77596" lon="4.89827">
        <ele>224</ele>
        <time>2010-11-23T18:43:03Z</time>
      </trkpt>
      <trkpt lat="45.77594" lon="4.89829">
        <ele>224</ele>
        <time>2010-11-23T18:43:04Z</time>
      </trkpt>
      <trkpt lat="45.77592" lon="4.89832">
        <ele>224</ele>
        <time>2010-11-23T18:43:05Z</time>
      </trkpt>
      <trkpt lat="45.77589" lon="4.89835">
        <ele>225</ele>
        <time>2010-11-23T18:43:06Z</time>
      </trkpt>
      <trkpt lat="45.77587" lon="4.89836">
        <ele>225</ele>
        <time>2010-11-23T18:43:07Z</time>
      </trkpt>
      <trkpt lat="45.77583" lon="4.89838">
        <ele>224</ele>
        <time>2010-11-23T18:43:08Z</time>
      </trkpt>
      <trkpt lat="45.7758" lon="4.89841">
        <ele>225</ele>
        <time>2010-11-23T18:43:09Z</time>
      </trkpt>
      <trkpt lat="45.77578" lon="4.89844">
        <ele>224</ele>
        <time>2010-11-23T18:43:10Z</time>
      </trkpt>
      <trkpt lat="45.77575" lon="4.89846">
        <ele>223</ele>
        <time>2010-11-23T18:43:11Z</time>
      </trkpt>
      <trkpt lat="45.77573" lon="4.8985">
        <ele>223</ele>
        <time>2010-11-23T18:43:12Z</time>
      </trkpt>
      <trkpt lat="45.77571" lon="4.89851">
        <ele>223</ele>
        <time>2010-11-23T18:43:13Z</time>
      </trkpt>
      <trkpt lat="45.77569" lon="4.89853">
        <ele>223</ele>
        <time>2010-11-23T18:43:14Z</time>
      </trkpt>
      <trkpt lat="45.77567" lon="4.89856">
        <ele>223</ele>
        <time>2010-11-23T18:43:15Z</time>
      </trkpt>
      <trkpt lat="45.77565" lon="4.89858">
        <ele>223</ele>
        <time>2010-11-23T18:43:16Z</time>
      </trkpt>
      <trkpt lat="45.77563" lon="4.8986">
        <ele>223</ele>
        <time>2010-11-23T18:43:17Z</time>
      </trkpt>
      <trkpt lat="45.7756" lon="4.8986">
        <ele>223</ele>
        <time>2010-11-23T18:43:19Z</time>
      </trkpt>
      <trkpt lat="45.77559" lon="4.89861">
        <ele>223</ele>
        <time>2010-11-23T18:43:19Z</time>
      </trkpt>
      <trkpt lat="45.77555" lon="4.89864">
        <ele>222</ele>
        <time>2010-11-23T18:43:20Z</time>
      </trkpt>
      <trkpt lat="45.77552" lon="4.89867">
        <ele>222</ele>
        <time>2010-11-23T18:43:21Z</time>
      </trkpt>
      <trkpt lat="45.77549" lon="4.89868">
        <ele>221</ele>
        <time>2010-11-23T18:43:22Z</time>
      </trkpt>
      <trkpt lat="45.77545" lon="4.8987">
        <ele>220</ele>
        <time>2010-11-23T18:43:23Z</time>
      </trkpt>
      <trkpt lat="45.77542" lon="4.89871">
        <ele>221</ele>
        <time>2010-11-23T18:43:24Z</time>
      </trkpt>
      <trkpt lat="45.77539" lon="4.89873">
        <ele>220</ele>
        <time>2010-11-23T18:43:25Z</time>
      </trkpt>
      <trkpt lat="45.77536" lon="4.89875">
        <ele>220</ele>
        <time>2010-11-23T18:43:26Z</time>
      </trkpt>
      <trkpt lat="45.77534" lon="4.89877">
        <ele>220</ele>
        <time>2010-11-23T18:43:27Z</time>
      </trkpt>
      <trkpt lat="45.77531" lon="4.89879">
        <ele>221</ele>
        <time>2010-11-23T18:43:28Z</time>
      </trkpt>
      <trkpt lat="45.77529" lon="4.89882">
        <ele>221</ele>
        <time>2010-11-23T18:43:29Z</time>
      </trkpt>
      <trkpt lat="45.77527" lon="4.89883">
        <ele>221</ele>
        <time>2010-11-23T18:43:30Z</time>
      </trkpt>
      <trkpt lat="45.77524" lon="4.89887">
        <ele>221</ele>
        <time>2010-11-23T18:43:31Z</time>
      </trkpt>
      <trkpt lat="45.7752" lon="4.89889">
        <ele>221</ele>
        <time>2010-11-23T18:43:32Z</time>
      </trkpt>
      <trkpt lat="45.77517" lon="4.89891">
        <ele>222</ele>
        <time>2010-11-23T18:43:33Z</time>
      </trkpt>
      <trkpt lat="45.77517" lon="4.89893">
        <ele>221</ele>
        <time>2010-11-23T18:43:34Z</time>
      </trkpt>
      <trkpt lat="45.77515" lon="4.89894">
        <ele>221</ele>
        <time>2010-11-23T18:43:35Z</time>
      </trkpt>
      <trkpt lat="45.77514" lon="4.89896">
        <ele>221</ele>
        <time>2010-11-23T18:43:36Z</time>
      </trkpt>
      <trkpt lat="45.77511" lon="4.89899">
        <ele>220</ele>
        <time>2010-11-23T18:43:37Z</time>
      </trkpt>
      <trkpt lat="45.77509" lon="4.899">
        <ele>221</ele>
        <time>2010-11-23T18:43:38Z</time>
      </trkpt>
      <trkpt lat="45.77506" lon="4.89902">
        <ele>222</ele>
        <time>2010-11-23T18:43:39Z</time>
      </trkpt>
      <trkpt lat="45.77503" lon="4.89904">
        <ele>222</ele>
        <time>2010-11-23T18:43:40Z</time>
      </trkpt>
      <trkpt lat="45.77501" lon="4.89905">
        <ele>222</ele>
        <time>2010-11-23T18:43:41Z</time>
      </trkpt>
      <trkpt lat="45.77497" lon="4.89908">
        <ele>221</ele>
        <time>2010-11-23T18:43:42Z</time>
      </trkpt>
      <trkpt lat="45.77494" lon="4.8991">
        <ele>221</ele>
        <time>2010-11-23T18:43:43Z</time>
      </trkpt>
      <trkpt lat="45.77492" lon="4.89914">
        <ele>221</ele>
        <time>2010-11-23T18:43:44Z</time>
      </trkpt>
      <trkpt lat="45.7749" lon="4.89916">
        <ele>221</ele>
        <time>2010-11-23T18:43:45Z</time>
      </trkpt>
      <trkpt lat="45.77487" lon="4.89918">
        <ele>221</ele>
        <time>2010-11-23T18:43:46Z</time>
      </trkpt>
      <trkpt lat="45.77485" lon="4.8992">
        <ele>222</ele>
        <time>2010-11-23T18:43:47Z</time>
      </trkpt>
      <trkpt lat="45.77482" lon="4.89924">
        <ele>222</ele>
        <time>2010-11-23T18:43:48Z</time>
      </trkpt>
      <trkpt lat="45.7748" lon="4.89925">
        <ele>222</ele>
        <time>2010-11-23T18:43:49Z</time>
      </trkpt>
      <trkpt lat="45.77476" lon="4.89926">
        <ele>223</ele>
        <time>2010-11-23T18:43:50Z</time>
      </trkpt>
      <trkpt lat="45.77473" lon="4.89929">
        <ele>223</ele>
        <time>2010-11-23T18:43:51Z</time>
      </trkpt>
      <trkpt lat="45.77469" lon="4.8993">
        <ele>223</ele>
        <time>2010-11-23T18:43:52Z</time>
      </trkpt>
      <trkpt lat="45.77469" lon="4.89932">
        <ele>223</ele>
        <time>2010-11-23T18:43:53Z</time>
      </trkpt>
      <trkpt lat="45.77465" lon="4.89934">
        <ele>224</ele>
        <time>2010-11-23T18:43:54Z</time>
      </trkpt>
      <trkpt lat="45.77462" lon="4.89936">
        <ele>224</ele>
        <time>2010-11-23T18:43:55Z</time>
      </trkpt>
      <trkpt lat="45.77458" lon="4.89938">
        <ele>224</ele>
        <time>2010-11-23T18:43:56Z</time>
      </trkpt>
      <trkpt lat="45.77457" lon="4.89941">
        <ele>224</ele>
        <time>2010-11-23T18:43:57Z</time>
      </trkpt>
      <trkpt lat="45.77453" lon="4.89941">
        <ele>223</ele>
        <time>2010-11-23T18:43:58Z</time>
      </trkpt>
      <trkpt lat="45.7745" lon="4.89944">
        <ele>223</ele>
        <time>2010-11-23T18:43:59Z</time>
      </trkpt>
      <trkpt lat="45.77448" lon="4.89945">
        <ele>223</ele>
        <time>2010-11-23T18:44:00Z</time>
      </trkpt>
      <trkpt lat="45.77446" lon="4.89948">
        <ele>223</ele>
        <time>2010-11-23T18:44:01Z</time>
      </trkpt>
      <trkpt lat="45.77442" lon="4.89949">
        <ele>223</ele>
        <time>2010-11-23T18:44:03Z</time>
      </trkpt>
      <trkpt lat="45.77442" lon="4.89949">
        <ele>223</ele>
        <time>2010-11-23T18:44:03Z</time>
      </trkpt>
      <trkpt lat="45.77438" lon="4.89954">
        <ele>222</ele>
        <time>2010-11-23T18:44:04Z</time>
      </trkpt>
      <trkpt lat="45.77434" lon="4.89956">
        <ele>223</ele>
        <time>2010-11-23T18:44:05Z</time>
      </trkpt>
      <trkpt lat="45.77433" lon="4.89959">
        <ele>223</ele>
        <time>2010-11-23T18:44:06Z</time>
      </trkpt>
      <trkpt lat="45.77429" lon="4.89961">
        <ele>223</ele>
        <time>2010-11-23T18:44:07Z</time>
      </trkpt>
      <trkpt lat="45.77428" lon="4.89963">
        <ele>223</ele>
        <time>2010-11-23T18:44:08Z</time>
      </trkpt>
      <trkpt lat="45.77426" lon="4.89966">
        <ele>223</ele>
        <time>2010-11-23T18:44:09Z</time>
      </trkpt>
      <trkpt lat="45.77423" lon="4.89968">
        <ele>223</ele>
        <time>2010-11-23T18:44:10Z</time>
      </trkpt>
      <trkpt lat="45.77421" lon="4.8997">
        <ele>222</ele>
        <time>2010-11-23T18:44:11Z</time>
      </trkpt>
      <trkpt lat="45.77418" lon="4.89973">
        <ele>222</ele>
        <time>2010-11-23T18:44:12Z</time>
      </trkpt>
      <trkpt lat="45.77416" lon="4.89975">
        <ele>223</ele>
        <time>2010-11-23T18:44:13Z</time>
      </trkpt>
      <trkpt lat="45.77413" lon="4.89976">
        <ele>223</ele>
        <time>2010-11-23T18:44:14Z</time>
      </trkpt>
      <trkpt lat="45.7741" lon="4.89978">
        <ele>223</ele>
        <time>2010-11-23T18:44:15Z</time>
      </trkpt>
      <trkpt lat="45.77407" lon="4.8998">
        <ele>222</ele>
        <time>2010-11-23T18:44:16Z</time>
      </trkpt>
      <trkpt lat="45.77404" lon="4.89982">
        <ele>223</ele>
        <time>2010-11-23T18:44:17Z</time>
      </trkpt>
      <trkpt lat="45.77401" lon="4.89984">
        <ele>223</ele>
        <time>2010-11-23T18:44:18Z</time>
      </trkpt>
      <trkpt lat="45.77397" lon="4.89985">
        <ele>223</ele>
        <time>2010-11-23T18:44:19Z</time>
      </trkpt>
      <trkpt lat="45.77394" lon="4.89986">
        <ele>223</ele>
        <time>2010-11-23T18:44:20Z</time>
      </trkpt>
      <trkpt lat="45.77392" lon="4.89989">
        <ele>223</ele>
        <time>2010-11-23T18:44:21Z</time>
      </trkpt>
      <trkpt lat="45.7739" lon="4.8999">
        <ele>224</ele>
        <time>2010-11-23T18:44:22Z</time>
      </trkpt>
      <trkpt lat="45.77388" lon="4.89992">
        <ele>225</ele>
        <time>2010-11-23T18:44:23Z</time>
      </trkpt>
      <trkpt lat="45.77385" lon="4.89995">
        <ele>225</ele>
        <time>2010-11-23T18:44:25Z</time>
      </trkpt>
      <trkpt lat="45.77384" lon="4.89996">
        <ele>225</ele>
        <time>2010-11-23T18:44:25Z</time>
      </trkpt>
      <trkpt lat="45.7738" lon="4.9">
        <ele>225</ele>
        <time>2010-11-23T18:44:26Z</time>
      </trkpt>
      <trkpt lat="45.77378" lon="4.90002">
        <ele>225</ele>
        <time>2010-11-23T18:44:27Z</time>
      </trkpt>
      <trkpt lat="45.77376" lon="4.90004">
        <ele>226</ele>
        <time>2010-11-23T18:44:28Z</time>
      </trkpt>
      <trkpt lat="45.77373" lon="4.90005">
        <ele>226</ele>
        <time>2010-11-23T18:44:29Z</time>
      </trkpt>
      <trkpt lat="45.7737" lon="4.90007">
        <ele>225</ele>
        <time>2010-11-23T18:44:30Z</time>
      </trkpt>
      <trkpt lat="45.77367" lon="4.9001">
        <ele>224</ele>
        <time>2010-11-23T18:44:31Z</time>
      </trkpt>
      <trkpt lat="45.77365" lon="4.90011">
        <ele>224</ele>
        <time>2010-11-23T18:44:32Z</time>
      </trkpt>
      <trkpt lat="45.77362" lon="4.90014">
        <ele>224</ele>
        <time>2010-11-23T18:44:33Z</time>
      </trkpt>
      <trkpt lat="45.7736" lon="4.90016">
        <ele>224</ele>
        <time>2010-11-23T18:44:34Z</time>
      </trkpt>
      <trkpt lat="45.77357" lon="4.90018">
        <ele>224</ele>
        <time>2010-11-23T18:44:35Z</time>
      </trkpt>
      <trkpt lat="45.77353" lon="4.90021">
        <ele>224</ele>
        <time>2010-11-23T18:44:36Z</time>
      </trkpt>
      <trkpt lat="45.77348" lon="4.90022">
        <ele>224</ele>
        <time>2010-11-23T18:44:37Z</time>
      </trkpt>
      <trkpt lat="45.77347" lon="4.90026">
        <ele>225</ele>
        <time>2010-11-23T18:44:38Z</time>
      </trkpt>
      <trkpt lat="45.77345" lon="4.90028">
        <ele>225</ele>
        <time>2010-11-23T18:44:39Z</time>
      </trkpt>
      <trkpt lat="45.77342" lon="4.9003">
        <ele>224</ele>
        <time>2010-11-23T18:44:40Z</time>
      </trkpt>
      <trkpt lat="45.77338" lon="4.90034">
        <ele>224</ele>
        <time>2010-11-23T18:44:41Z</time>
      </trkpt>
      <trkpt lat="45.77336" lon="4.90035">
        <ele>225</ele>
        <time>2010-11-23T18:44:42Z</time>
      </trkpt>
      <trkpt lat="45.77331" lon="4.90036">
        <ele>225</ele>
        <time>2010-11-23T18:44:43Z</time>
      </trkpt>
      <trkpt lat="45.7733" lon="4.90039">
        <ele>224</ele>
        <time>2010-11-23T18:44:44Z</time>
      </trkpt>
      <trkpt lat="45.77328" lon="4.9004">
        <ele>223</ele>
        <time>2010-11-23T18:44:45Z</time>
      </trkpt>
      <trkpt lat="45.77324" lon="4.90042">
        <ele>223</ele>
        <time>2010-11-23T18:44:46Z</time>
      </trkpt>
      <trkpt lat="45.77323" lon="4.90044">
        <ele>223</ele>
        <time>2010-11-23T18:44:47Z</time>
      </trkpt>
      <trkpt lat="45.77323" lon="4.90048">
        <ele>222</ele>
        <time>2010-11-23T18:44:48Z</time>
      </trkpt>
      <trkpt lat="45.7732" lon="4.9005">
        <ele>222</ele>
        <time>2010-11-23T18:44:49Z</time>
      </trkpt>
      <trkpt lat="45.77318" lon="4.90052">
        <ele>222</ele>
        <time>2010-11-23T18:44:50Z</time>
      </trkpt>
      <trkpt lat="45.77316" lon="4.90053">
        <ele>223</ele>
        <time>2010-11-23T18:44:51Z</time>
      </trkpt>
      <trkpt lat="45.77314" lon="4.90056">
        <ele>222</ele>
        <time>2010-11-23T18:44:52Z</time>
      </trkpt>
      <trkpt lat="45.77312" lon="4.90058">
        <ele>222</ele>
        <time>2010-11-23T18:44:53Z</time>
      </trkpt>
      <trkpt lat="45.7731" lon="4.90059">
        <ele>221</ele>
        <time>2010-11-23T18:44:54Z</time>
      </trkpt>
      <trkpt lat="45.77309" lon="4.90062">
        <ele>222</ele>
        <time>2010-11-23T18:44:55Z</time>
      </trkpt>
      <trkpt lat="45.77306" lon="4.90065">
        <ele>221</ele>
        <time>2010-11-23T18:44:56Z</time>
      </trkpt>
      <trkpt lat="45.77302" lon="4.90065">
        <ele>221</ele>
        <time>2010-11-23T18:44:57Z</time>
      </trkpt>
      <trkpt lat="45.77298" lon="4.90066">
        <ele>222</ele>
        <time>2010-11-23T18:44:58Z</time>
      </trkpt>
      <trkpt lat="45.77294" lon="4.90068">
        <ele>221</ele>
        <time>2010-11-23T18:44:59Z</time>
      </trkpt>
      <trkpt lat="45.77292" lon="4.90071">
        <ele>221</ele>
        <time>2010-11-23T18:45:00Z</time>
      </trkpt>
      <trkpt lat="45.77292" lon="4.90074">
        <ele>222</ele>
        <time>2010-11-23T18:45:01Z</time>
      </trkpt>
      <trkpt lat="45.77288" lon="4.90076">
        <ele>222</ele>
        <time>2010-11-23T18:45:02Z</time>
      </trkpt>
      <trkpt lat="45.77287" lon="4.90078">
        <ele>222</ele>
        <time>2010-11-23T18:45:03Z</time>
      </trkpt>
      <trkpt lat="45.77285" lon="4.90081">
        <ele>222</ele>
        <time>2010-11-23T18:45:04Z</time>
      </trkpt>
      <trkpt lat="45.77284" lon="4.90084">
        <ele>222</ele>
        <time>2010-11-23T18:45:05Z</time>
      </trkpt>
      <trkpt lat="45.7728" lon="4.90085">
        <ele>222</ele>
        <time>2010-11-23T18:45:06Z</time>
      </trkpt>
      <trkpt lat="45.77278" lon="4.90087">
        <ele>223</ele>
        <time>2010-11-23T18:45:07Z</time>
      </trkpt>
      <trkpt lat="45.77276" lon="4.90089">
        <ele>223</ele>
        <time>2010-11-23T18:45:09Z</time>
      </trkpt>
      <trkpt lat="45.77276" lon="4.9009">
        <ele>223</ele>
        <time>2010-11-23T18:45:09Z</time>
      </trkpt>
      <trkpt lat="45.77271" lon="4.90093">
        <ele>222</ele>
        <time>2010-11-23T18:45:10Z</time>
      </trkpt>
      <trkpt lat="45.77268" lon="4.90095">
        <ele>221</ele>
        <time>2010-11-23T18:45:11Z</time>
      </trkpt>
      <trkpt lat="45.77266" lon="4.90097">
        <ele>222</ele>
        <time>2010-11-23T18:45:12Z</time>
      </trkpt>
      <trkpt lat="45.77264" lon="4.90099">
        <ele>223</ele>
        <time>2010-11-23T18:45:13Z</time>
      </trkpt>
      <trkpt lat="45.77261" lon="4.901">
        <ele>223</ele>
        <time>2010-11-23T18:45:14Z</time>
      </trkpt>
      <trkpt lat="45.77258" lon="4.90102">
        <ele>224</ele>
        <time>2010-11-23T18:45:15Z</time>
      </trkpt>
      <trkpt lat="45.77257" lon="4.90104">
        <ele>224</ele>
        <time>2010-11-23T18:45:16Z</time>
      </trkpt>
      <trkpt lat="45.77254" lon="4.90107">
        <ele>224</ele>
        <time>2010-11-23T18:45:17Z</time>
      </trkpt>
      <trkpt lat="45.77251" lon="4.90109">
        <ele>224</ele>
        <time>2010-11-23T18:45:18Z</time>
      </trkpt>
      <trkpt lat="45.77249" lon="4.9011">
        <ele>224</ele>
        <time>2010-11-23T18:45:19Z</time>
      </trkpt>
      <trkpt lat="45.77245" lon="4.90112">
        <ele>224</ele>
        <time>2010-11-23T18:45:20Z</time>
      </trkpt>
      <trkpt lat="45.77243" lon="4.90114">
        <ele>224</ele>
        <time>2010-11-23T18:45:21Z</time>
      </trkpt>
      <trkpt lat="45.77241" lon="4.90116">
        <ele>224</ele>
        <time>2010-11-23T18:45:22Z</time>
      </trkpt>
      <trkpt lat="45.77238" lon="4.90117">
        <ele>224</ele>
        <time>2010-11-23T18:45:23Z</time>
      </trkpt>
      <trkpt lat="45.77236" lon="4.9012">
        <ele>224</ele>
        <time>2010-11-23T18:45:24Z</time>
      </trkpt>
      <trkpt lat="45.77233" lon="4.90122">
        <ele>224</ele>
        <time>2010-11-23T18:45:25Z</time>
      </trkpt>
      <trkpt lat="45.7723" lon="4.90123">
        <ele>224</ele>
        <time>2010-11-23T18:45:26Z</time>
      </trkpt>
      <trkpt lat="45.77228" lon="4.90126">
        <ele>224</ele>
        <time>2010-11-23T18:45:27Z</time>
      </trkpt>
      <trkpt lat="45.77226" lon="4.90128">
        <ele>224</ele>
        <time>2010-11-23T18:45:28Z</time>
      </trkpt>
      <trkpt lat="45.77223" lon="4.9013">
        <ele>224</ele>
        <time>2010-11-23T18:45:29Z</time>
      </trkpt>
      <trkpt lat="45.77221" lon="4.90132">
        <ele>224</ele>
        <time>2010-11-23T18:45:31Z</time>
      </trkpt>
      <trkpt lat="45.7722" lon="4.90134">
        <ele>224.49884033203</ele>
        <time>2010-11-23T18:45:31Z</time>
      </trkpt>
      <trkpt lat="45.77217" lon="4.90137">
        <ele>225</ele>
        <time>2010-11-23T18:45:32Z</time>
      </trkpt>
      <trkpt lat="45.77214" lon="4.90139">
        <ele>225</ele>
        <time>2010-11-23T18:45:33Z</time>
      </trkpt>
      <trkpt lat="45.77212" lon="4.90141">
        <ele>225</ele>
        <time>2010-11-23T18:45:34Z</time>
      </trkpt>
      <trkpt lat="45.77209" lon="4.90143">
        <ele>225</ele>
        <time>2010-11-23T18:45:35Z</time>
      </trkpt>
      <trkpt lat="45.77207" lon="4.90145">
        <ele>225</ele>
        <time>2010-11-23T18:45:36Z</time>
      </trkpt>
      <trkpt lat="45.77204" lon="4.90147">
        <ele>225</ele>
        <time>2010-11-23T18:45:37Z</time>
      </trkpt>
      <trkpt lat="45.77202" lon="4.90149">
        <ele>225</ele>
        <time>2010-11-23T18:45:38Z</time>
      </trkpt>
      <trkpt lat="45.77199" lon="4.90152">
        <ele>225</ele>
        <time>2010-11-23T18:45:39Z</time>
      </trkpt>
      <trkpt lat="45.77197" lon="4.90153">
        <ele>225</ele>
        <time>2010-11-23T18:45:40Z</time>
      </trkpt>
      <trkpt lat="45.77195" lon="4.90155">
        <ele>226</ele>
        <time>2010-11-23T18:45:41Z</time>
      </trkpt>
      <trkpt lat="45.77192" lon="4.90158">
        <ele>226</ele>
        <time>2010-11-23T18:45:42Z</time>
      </trkpt>
      <trkpt lat="45.77189" lon="4.9016">
        <ele>227</ele>
        <time>2010-11-23T18:45:43Z</time>
      </trkpt>
      <trkpt lat="45.77186" lon="4.90162">
        <ele>227</ele>
        <time>2010-11-23T18:45:44Z</time>
      </trkpt>
      <trkpt lat="45.77184" lon="4.90165">
        <ele>227</ele>
        <time>2010-11-23T18:45:45Z</time>
      </trkpt>
      <trkpt lat="45.77182" lon="4.90166">
        <ele>226</ele>
        <time>2010-11-23T18:45:46Z</time>
      </trkpt>
      <trkpt lat="45.77179" lon="4.90169">
        <ele>226</ele>
        <time>2010-11-23T18:45:47Z</time>
      </trkpt>
      <trkpt lat="45.77177" lon="4.90171">
        <ele>226</ele>
        <time>2010-11-23T18:45:48Z</time>
      </trkpt>
      <trkpt lat="45.77174" lon="4.90173">
        <ele>225</ele>
        <time>2010-11-23T18:45:49Z</time>
      </trkpt>
      <trkpt lat="45.77175" lon="4.90176">
        <ele>225</ele>
        <time>2010-11-23T18:45:50Z</time>
      </trkpt>
      <trkpt lat="45.77171" lon="4.90178">
        <ele>224</ele>
        <time>2010-11-23T18:45:51Z</time>
      </trkpt>
      <trkpt lat="45.77169" lon="4.90181">
        <ele>224</ele>
        <time>2010-11-23T18:45:53Z</time>
      </trkpt>
      <trkpt lat="45.77168" lon="4.90182">
        <ele>224</ele>
        <time>2010-11-23T18:45:53Z</time>
      </trkpt>
      <trkpt lat="45.77165" lon="4.90185">
        <ele>224</ele>
        <time>2010-11-23T18:45:54Z</time>
      </trkpt>
      <trkpt lat="45.77163" lon="4.90187">
        <ele>224</ele>
        <time>2010-11-23T18:45:55Z</time>
      </trkpt>
      <trkpt lat="45.7716" lon="4.90188">
        <ele>224</ele>
        <time>2010-11-23T18:45:56Z</time>
      </trkpt>
      <trkpt lat="45.77157" lon="4.9019">
        <ele>223</ele>
        <time>2010-11-23T18:45:57Z</time>
      </trkpt>
      <trkpt lat="45.77155" lon="4.90192">
        <ele>223</ele>
        <time>2010-11-23T18:45:58Z</time>
      </trkpt>
      <trkpt lat="45.77152" lon="4.90194">
        <ele>223</ele>
        <time>2010-11-23T18:45:59Z</time>
      </trkpt>
      <trkpt lat="45.77149" lon="4.90196">
        <ele>223</ele>
        <time>2010-11-23T18:46:00Z</time>
      </trkpt>
      <trkpt lat="45.77147" lon="4.90198">
        <ele>223</ele>
        <time>2010-11-23T18:46:01Z</time>
      </trkpt>
      <trkpt lat="45.77144" lon="4.90201">
        <ele>223</ele>
        <time>2010-11-23T18:46:02Z</time>
      </trkpt>
      <trkpt lat="45.7714" lon="4.90201">
        <ele>223</ele>
        <time>2010-11-23T18:46:03Z</time>
      </trkpt>
      <trkpt lat="45.77138" lon="4.90203">
        <ele>223</ele>
        <time>2010-11-23T18:46:04Z</time>
      </trkpt>
      <trkpt lat="45.77134" lon="4.90205">
        <ele>222</ele>
        <time>2010-11-23T18:46:05Z</time>
      </trkpt>
      <trkpt lat="45.77132" lon="4.90207">
        <ele>222</ele>
        <time>2010-11-23T18:46:06Z</time>
      </trkpt>
      <trkpt lat="45.77129" lon="4.90209">
        <ele>222</ele>
        <time>2010-11-23T18:46:07Z</time>
      </trkpt>
      <trkpt lat="45.77127" lon="4.90212">
        <ele>221</ele>
        <time>2010-11-23T18:46:08Z</time>
      </trkpt>
      <trkpt lat="45.77125" lon="4.90214">
        <ele>221</ele>
        <time>2010-11-23T18:46:09Z</time>
      </trkpt>
      <trkpt lat="45.77123" lon="4.90216">
        <ele>221</ele>
        <time>2010-11-23T18:46:10Z</time>
      </trkpt>
      <trkpt lat="45.7712" lon="4.90218">
        <ele>221</ele>
        <time>2010-11-23T18:46:11Z</time>
      </trkpt>
      <trkpt lat="45.77118" lon="4.90221">
        <ele>222</ele>
        <time>2010-11-23T18:46:12Z</time>
      </trkpt>
      <trkpt lat="45.77116" lon="4.90224">
        <ele>221</ele>
        <time>2010-11-23T18:46:13Z</time>
      </trkpt>
      <trkpt lat="45.77113" lon="4.90226">
        <ele>222</ele>
        <time>2010-11-23T18:46:15Z</time>
      </trkpt>
      <trkpt lat="45.77113" lon="4.90226">
        <ele>221.68200683594</ele>
        <time>2010-11-23T18:46:15Z</time>
      </trkpt>
      <trkpt lat="45.77111" lon="4.90229">
        <ele>221</ele>
        <time>2010-11-23T18:46:16Z</time>
      </trkpt>
      <trkpt lat="45.77109" lon="4.90232">
        <ele>220</ele>
        <time>2010-11-23T18:46:17Z</time>
      </trkpt>
      <trkpt lat="45.77107" lon="4.90234">
        <ele>220</ele>
        <time>2010-11-23T18:46:18Z</time>
      </trkpt>
      <trkpt lat="45.77104" lon="4.90236">
        <ele>220</ele>
        <time>2010-11-23T18:46:19Z</time>
      </trkpt>
      <trkpt lat="45.77102" lon="4.90236">
        <ele>221</ele>
        <time>2010-11-23T18:46:20Z</time>
      </trkpt>
      <trkpt lat="45.77099" lon="4.90238">
        <ele>221</ele>
        <time>2010-11-23T18:46:21Z</time>
      </trkpt>
      <trkpt lat="45.77095" lon="4.90239">
        <ele>221</ele>
        <time>2010-11-23T18:46:22Z</time>
      </trkpt>
      <trkpt lat="45.77092" lon="4.90241">
        <ele>221</ele>
        <time>2010-11-23T18:46:23Z</time>
      </trkpt>
      <trkpt lat="45.7709" lon="4.90242">
        <ele>221</ele>
        <time>2010-11-23T18:46:24Z</time>
      </trkpt>
      <trkpt lat="45.77087" lon="4.90244">
        <ele>221</ele>
        <time>2010-11-23T18:46:25Z</time>
      </trkpt>
      <trkpt lat="45.77084" lon="4.90246">
        <ele>221</ele>
        <time>2010-11-23T18:46:26Z</time>
      </trkpt>
      <trkpt lat="45.77081" lon="4.90248">
        <ele>220</ele>
        <time>2010-11-23T18:46:27Z</time>
      </trkpt>
      <trkpt lat="45.77078" lon="4.9025">
        <ele>220</ele>
        <time>2010-11-23T18:46:28Z</time>
      </trkpt>
      <trkpt lat="45.77074" lon="4.9025">
        <ele>220</ele>
        <time>2010-11-23T18:46:29Z</time>
      </trkpt>
      <trkpt lat="45.77071" lon="4.9025">
        <ele>220</ele>
        <time>2010-11-23T18:46:30Z</time>
      </trkpt>
      <trkpt lat="45.77068" lon="4.90253">
        <ele>220</ele>
        <time>2010-11-23T18:46:31Z</time>
      </trkpt>
      <trkpt lat="45.77067" lon="4.90257">
        <ele>220</ele>
        <time>2010-11-23T18:46:32Z</time>
      </trkpt>
      <trkpt lat="45.77066" lon="4.9026">
        <ele>220</ele>
        <time>2010-11-23T18:46:33Z</time>
      </trkpt>
      <trkpt lat="45.77063" lon="4.90262">
        <ele>220</ele>
        <time>2010-11-23T18:46:34Z</time>
      </trkpt>
      <trkpt lat="45.7706" lon="4.90264">
        <ele>220</ele>
        <time>2010-11-23T18:46:35Z</time>
      </trkpt>
      <trkpt lat="45.77058" lon="4.90267">
        <ele>220</ele>
        <time>2010-11-23T18:46:36Z</time>
      </trkpt>
      <trkpt lat="45.77057" lon="4.9027">
        <ele>220.57513427734</ele>
        <time>2010-11-23T18:46:37Z</time>
      </trkpt>
      <trkpt lat="45.77055" lon="4.90273">
        <ele>221</ele>
        <time>2010-11-23T18:46:38Z</time>
      </trkpt>
      <trkpt lat="45.77051" lon="4.90273">
        <ele>221</ele>
        <time>2010-11-23T18:46:39Z</time>
      </trkpt>
      <trkpt lat="45.7705" lon="4.90276">
        <ele>220</ele>
        <time>2010-11-23T18:46:40Z</time>
      </trkpt>
      <trkpt lat="45.77046" lon="4.90278">
        <ele>220</ele>
        <time>2010-11-23T18:46:41Z</time>
      </trkpt>
      <trkpt lat="45.77043" lon="4.90281">
        <ele>221</ele>
        <time>2010-11-23T18:46:42Z</time>
      </trkpt>
      <trkpt lat="45.77041" lon="4.90283">
        <ele>222</ele>
        <time>2010-11-23T18:46:43Z</time>
      </trkpt>
      <trkpt lat="45.77038" lon="4.90285">
        <ele>223</ele>
        <time>2010-11-23T18:46:44Z</time>
      </trkpt>
      <trkpt lat="45.77036" lon="4.90286">
        <ele>223</ele>
        <time>2010-11-23T18:46:45Z</time>
      </trkpt>
      <trkpt lat="45.77034" lon="4.90288">
        <ele>224</ele>
        <time>2010-11-23T18:46:46Z</time>
      </trkpt>
      <trkpt lat="45.7703" lon="4.9029">
        <ele>224</ele>
        <time>2010-11-23T18:46:47Z</time>
      </trkpt>
      <trkpt lat="45.77028" lon="4.90292">
        <ele>223</ele>
        <time>2010-11-23T18:46:48Z</time>
      </trkpt>
      <trkpt lat="45.77026" lon="4.90294">
        <ele>224</ele>
        <time>2010-11-23T18:46:49Z</time>
      </trkpt>
      <trkpt lat="45.77022" lon="4.90297">
        <ele>223</ele>
        <time>2010-11-23T18:46:50Z</time>
      </trkpt>
      <trkpt lat="45.7702" lon="4.903">
        <ele>224</ele>
        <time>2010-11-23T18:46:51Z</time>
      </trkpt>
      <trkpt lat="45.77017" lon="4.90303">
        <ele>223</ele>
        <time>2010-11-23T18:46:52Z</time>
      </trkpt>
      <trkpt lat="45.77015" lon="4.90306">
        <ele>224</ele>
        <time>2010-11-23T18:46:53Z</time>
      </trkpt>
      <trkpt lat="45.77013" lon="4.9031">
        <ele>224</ele>
        <time>2010-11-23T18:46:54Z</time>
      </trkpt>
      <trkpt lat="45.77011" lon="4.90312">
        <ele>225</ele>
        <time>2010-11-23T18:46:55Z</time>
      </trkpt>
      <trkpt lat="45.77008" lon="4.90315">
        <ele>225</ele>
        <time>2010-11-23T18:46:56Z</time>
      </trkpt>
      <trkpt lat="45.77005" lon="4.90316">
        <ele>225</ele>
        <time>2010-11-23T18:46:57Z</time>
      </trkpt>
      <trkpt lat="45.77003" lon="4.90319">
        <ele>225</ele>
        <time>2010-11-23T18:46:59Z</time>
      </trkpt>
      <trkpt lat="45.77003" lon="4.90319">
        <ele>225</ele>
        <time>2010-11-23T18:46:59Z</time>
      </trkpt>
      <trkpt lat="45.76998" lon="4.90323">
        <ele>225</ele>
        <time>2010-11-23T18:47:00Z</time>
      </trkpt>
      <trkpt lat="45.76995" lon="4.90324">
        <ele>225</ele>
        <time>2010-11-23T18:47:01Z</time>
      </trkpt>
      <trkpt lat="45.76993" lon="4.90327">
        <ele>225</ele>
        <time>2010-11-23T18:47:02Z</time>
      </trkpt>
      <trkpt lat="45.7699" lon="4.90329">
        <ele>224</ele>
        <time>2010-11-23T18:47:03Z</time>
      </trkpt>
      <trkpt lat="45.76987" lon="4.90332">
        <ele>224</ele>
        <time>2010-11-23T18:47:04Z</time>
      </trkpt>
      <trkpt lat="45.76985" lon="4.90336">
        <ele>224</ele>
        <time>2010-11-23T18:47:05Z</time>
      </trkpt>
      <trkpt lat="45.76983" lon="4.90337">
        <ele>224</ele>
        <time>2010-11-23T18:47:06Z</time>
      </trkpt>
      <trkpt lat="45.7698" lon="4.90338">
        <ele>224</ele>
        <time>2010-11-23T18:47:07Z</time>
      </trkpt>
      <trkpt lat="45.76977" lon="4.9034">
        <ele>224</ele>
        <time>2010-11-23T18:47:08Z</time>
      </trkpt>
      <trkpt lat="45.76975" lon="4.90343">
        <ele>224</ele>
        <time>2010-11-23T18:47:09Z</time>
      </trkpt>
      <trkpt lat="45.76973" lon="4.90345">
        <ele>224</ele>
        <time>2010-11-23T18:47:10Z</time>
      </trkpt>
      <trkpt lat="45.7697" lon="4.90346">
        <ele>223</ele>
        <time>2010-11-23T18:47:11Z</time>
      </trkpt>
      <trkpt lat="45.7697" lon="4.90352">
        <ele>223</ele>
        <time>2010-11-23T18:47:12Z</time>
      </trkpt>
      <trkpt lat="45.76968" lon="4.90355">
        <ele>224</ele>
        <time>2010-11-23T18:47:13Z</time>
      </trkpt>
      <trkpt lat="45.76965" lon="4.90358">
        <ele>224</ele>
        <time>2010-11-23T18:47:14Z</time>
      </trkpt>
      <trkpt lat="45.76963" lon="4.90361">
        <ele>224</ele>
        <time>2010-11-23T18:47:15Z</time>
      </trkpt>
      <trkpt lat="45.76961" lon="4.90364">
        <ele>224</ele>
        <time>2010-11-23T18:47:16Z</time>
      </trkpt>
      <trkpt lat="45.76958" lon="4.90366">
        <ele>223</ele>
        <time>2010-11-23T18:47:17Z</time>
      </trkpt>
      <trkpt lat="45.76955" lon="4.9037">
        <ele>223</ele>
        <time>2010-11-23T18:47:18Z</time>
      </trkpt>
      <trkpt lat="45.76953" lon="4.90373">
        <ele>224</ele>
        <time>2010-11-23T18:47:19Z</time>
      </trkpt>
      <trkpt lat="45.76951" lon="4.90375">
        <ele>223</ele>
        <time>2010-11-23T18:47:21Z</time>
      </trkpt>
      <trkpt lat="45.7695" lon="4.90375">
        <ele>223</ele>
        <time>2010-11-23T18:47:21Z</time>
      </trkpt>
      <trkpt lat="45.76944" lon="4.90376">
        <ele>223</ele>
        <time>2010-11-23T18:47:22Z</time>
      </trkpt>
      <trkpt lat="45.7694" lon="4.90378">
        <ele>224</ele>
        <time>2010-11-23T18:47:23Z</time>
      </trkpt>
      <trkpt lat="45.76938" lon="4.9038">
        <ele>225</ele>
        <time>2010-11-23T18:47:24Z</time>
      </trkpt>
      <trkpt lat="45.76935" lon="4.90383">
        <ele>225</ele>
        <time>2010-11-23T18:47:25Z</time>
      </trkpt>
      <trkpt lat="45.76934" lon="4.90385">
        <ele>225</ele>
        <time>2010-11-23T18:47:26Z</time>
      </trkpt>
      <trkpt lat="45.76932" lon="4.90388">
        <ele>225</ele>
        <time>2010-11-23T18:47:27Z</time>
      </trkpt>
      <trkpt lat="45.7693" lon="4.90391">
        <ele>225</ele>
        <time>2010-11-23T18:47:28Z</time>
      </trkpt>
      <trkpt lat="45.76927" lon="4.90394">
        <ele>225</ele>
        <time>2010-11-23T18:47:29Z</time>
      </trkpt>
      <trkpt lat="45.76925" lon="4.90398">
        <ele>225</ele>
        <time>2010-11-23T18:47:30Z</time>
      </trkpt>
      <trkpt lat="45.76924" lon="4.904">
        <ele>225</ele>
        <time>2010-11-23T18:47:31Z</time>
      </trkpt>
      <trkpt lat="45.76921" lon="4.90402">
        <ele>225</ele>
        <time>2010-11-23T18:47:32Z</time>
      </trkpt>
      <trkpt lat="45.76918" lon="4.90406">
        <ele>225</ele>
        <time>2010-11-23T18:47:33Z</time>
      </trkpt>
      <trkpt lat="45.76916" lon="4.9041">
        <ele>225</ele>
        <time>2010-11-23T18:47:34Z</time>
      </trkpt>
      <trkpt lat="45.76913" lon="4.90414">
        <ele>225</ele>
        <time>2010-11-23T18:47:35Z</time>
      </trkpt>
      <trkpt lat="45.76911" lon="4.90417">
        <ele>224</ele>
        <time>2010-11-23T18:47:36Z</time>
      </trkpt>
      <trkpt lat="45.76909" lon="4.90419">
        <ele>224</ele>
        <time>2010-11-23T18:47:37Z</time>
      </trkpt>
      <trkpt lat="45.76906" lon="4.90423">
        <ele>224</ele>
        <time>2010-11-23T18:47:38Z</time>
      </trkpt>
      <trkpt lat="45.76904" lon="4.90425">
        <ele>224</ele>
        <time>2010-11-23T18:47:39Z</time>
      </trkpt>
      <trkpt lat="45.76903" lon="4.90428">
        <ele>224</ele>
        <time>2010-11-23T18:47:40Z</time>
      </trkpt>
      <trkpt lat="45.76901" lon="4.90431">
        <ele>224</ele>
        <time>2010-11-23T18:47:41Z</time>
      </trkpt>
      <trkpt lat="45.76899" lon="4.90434">
        <ele>224</ele>
        <time>2010-11-23T18:47:43Z</time>
      </trkpt>
      <trkpt lat="45.76898" lon="4.90435">
        <ele>224</ele>
        <time>2010-11-23T18:47:43Z</time>
      </trkpt>
      <trkpt lat="45.76895" lon="4.90439">
        <ele>224</ele>
        <time>2010-11-23T18:47:44Z</time>
      </trkpt>
      <trkpt lat="45.76892" lon="4.90441">
        <ele>224</ele>
        <time>2010-11-23T18:47:45Z</time>
      </trkpt>
      <trkpt lat="45.7689" lon="4.90445">
        <ele>224</ele>
        <time>2010-11-23T18:47:46Z</time>
      </trkpt>
      <trkpt lat="45.76888" lon="4.90448">
        <ele>224</ele>
        <time>2010-11-23T18:47:47Z</time>
      </trkpt>
      <trkpt lat="45.76886" lon="4.90454">
        <ele>225</ele>
        <time>2010-11-23T18:47:48Z</time>
      </trkpt>
      <trkpt lat="45.76885" lon="4.90457">
        <ele>225</ele>
        <time>2010-11-23T18:47:49Z</time>
      </trkpt>
      <trkpt lat="45.76883" lon="4.9046">
        <ele>225</ele>
        <time>2010-11-23T18:47:50Z</time>
      </trkpt>
      <trkpt lat="45.76882" lon="4.90462">
        <ele>226</ele>
        <time>2010-11-23T18:47:51Z</time>
      </trkpt>
      <trkpt lat="45.76881" lon="4.90466">
        <ele>226</ele>
        <time>2010-11-23T18:47:52Z</time>
      </trkpt>
      <trkpt lat="45.76878" lon="4.9047">
        <ele>226</ele>
        <time>2010-11-23T18:47:53Z</time>
      </trkpt>
      <trkpt lat="45.76876" lon="4.90472">
        <ele>225</ele>
        <time>2010-11-23T18:47:54Z</time>
      </trkpt>
      <trkpt lat="45.76875" lon="4.90476">
        <ele>226</ele>
        <time>2010-11-23T18:47:55Z</time>
      </trkpt>
      <trkpt lat="45.76873" lon="4.9048">
        <ele>226</ele>
        <time>2010-11-23T18:47:56Z</time>
      </trkpt>
      <trkpt lat="45.76873" lon="4.90483">
        <ele>226</ele>
        <time>2010-11-23T18:47:57Z</time>
      </trkpt>
      <trkpt lat="45.76871" lon="4.90486">
        <ele>226</ele>
        <time>2010-11-23T18:47:58Z</time>
      </trkpt>
      <trkpt lat="45.7687" lon="4.9049">
        <ele>226</ele>
        <time>2010-11-23T18:47:59Z</time>
      </trkpt>
      <trkpt lat="45.76869" lon="4.90493">
        <ele>225</ele>
        <time>2010-11-23T18:48:00Z</time>
      </trkpt>
      <trkpt lat="45.76868" lon="4.90497">
        <ele>224</ele>
        <time>2010-11-23T18:48:01Z</time>
      </trkpt>
      <trkpt lat="45.76867" lon="4.90501">
        <ele>223</ele>
        <time>2010-11-23T18:48:02Z</time>
      </trkpt>
      <trkpt lat="45.76865" lon="4.90505">
        <ele>223</ele>
        <time>2010-11-23T18:48:03Z</time>
      </trkpt>
      <trkpt lat="45.76864" lon="4.90508">
        <ele>223</ele>
        <time>2010-11-23T18:48:05Z</time>
      </trkpt>
      <trkpt lat="45.76864" lon="4.90508">
        <ele>223</ele>
        <time>2010-11-23T18:48:05Z</time>
      </trkpt>
      <trkpt lat="45.76861" lon="4.90514">
        <ele>223.92176818848</ele>
        <time>2010-11-23T18:48:06Z</time>
      </trkpt>
      <trkpt lat="45.76858" lon="4.90516">
        <ele>223</ele>
        <time>2010-11-23T18:48:07Z</time>
      </trkpt>
      <trkpt lat="45.76857" lon="4.90521">
        <ele>223</ele>
        <time>2010-11-23T18:48:08Z</time>
      </trkpt>
      <trkpt lat="45.76855" lon="4.90524">
        <ele>223</ele>
        <time>2010-11-23T18:48:09Z</time>
      </trkpt>
      <trkpt lat="45.76853" lon="4.90527">
        <ele>223</ele>
        <time>2010-11-23T18:48:10Z</time>
      </trkpt>
      <trkpt lat="45.7685" lon="4.9053">
        <ele>224</ele>
        <time>2010-11-23T18:48:11Z</time>
      </trkpt>
      <trkpt lat="45.76846" lon="4.90533">
        <ele>224</ele>
        <time>2010-11-23T18:48:12Z</time>
      </trkpt>
      <trkpt lat="45.76844" lon="4.90536">
        <ele>224</ele>
        <time>2010-11-23T18:48:13Z</time>
      </trkpt>
      <trkpt lat="45.76843" lon="4.90538">
        <ele>224</ele>
        <time>2010-11-23T18:48:14Z</time>
      </trkpt>
      <trkpt lat="45.76842" lon="4.90542">
        <ele>223</ele>
        <time>2010-11-23T18:48:15Z</time>
      </trkpt>
      <trkpt lat="45.76841" lon="4.90547">
        <ele>223</ele>
        <time>2010-11-23T18:48:16Z</time>
      </trkpt>
      <trkpt lat="45.76837" lon="4.90551">
        <ele>224</ele>
        <time>2010-11-23T18:48:17Z</time>
      </trkpt>
      <trkpt lat="45.76833" lon="4.90554">
        <ele>224</ele>
        <time>2010-11-23T18:48:18Z</time>
      </trkpt>
      <trkpt lat="45.76829" lon="4.90557">
        <ele>225</ele>
        <time>2010-11-23T18:48:19Z</time>
      </trkpt>
      <trkpt lat="45.76827" lon="4.90561">
        <ele>225</ele>
        <time>2010-11-23T18:48:20Z</time>
      </trkpt>
      <trkpt lat="45.76825" lon="4.90565">
        <ele>225</ele>
        <time>2010-11-23T18:48:21Z</time>
      </trkpt>
      <trkpt lat="45.76824" lon="4.90569">
        <ele>226</ele>
        <time>2010-11-23T18:48:22Z</time>
      </trkpt>
      <trkpt lat="45.76822" lon="4.90572">
        <ele>226</ele>
        <time>2010-11-23T18:48:23Z</time>
      </trkpt>
      <trkpt lat="45.76821" lon="4.90575">
        <ele>226</ele>
        <time>2010-11-23T18:48:24Z</time>
      </trkpt>
      <trkpt lat="45.7682" lon="4.90578">
        <ele>227</ele>
        <time>2010-11-23T18:48:25Z</time>
      </trkpt>
      <trkpt lat="45.76818" lon="4.90582">
        <ele>227</ele>
        <time>2010-11-23T18:48:27Z</time>
      </trkpt>
      <trkpt lat="45.76818" lon="4.90584">
        <ele>227.58926391602</ele>
        <time>2010-11-23T18:48:27Z</time>
      </trkpt>
      <trkpt lat="45.76816" lon="4.90589">
        <ele>228</ele>
        <time>2010-11-23T18:48:28Z</time>
      </trkpt>
      <trkpt lat="45.76815" lon="4.90594">
        <ele>229</ele>
        <time>2010-11-23T18:48:29Z</time>
      </trkpt>
      <trkpt lat="45.76813" lon="4.90597">
        <ele>229</ele>
        <time>2010-11-23T18:48:30Z</time>
      </trkpt>
      <trkpt lat="45.76812" lon="4.90601">
        <ele>229</ele>
        <time>2010-11-23T18:48:31Z</time>
      </trkpt>
      <trkpt lat="45.7681" lon="4.90604">
        <ele>229</ele>
        <time>2010-11-23T18:48:32Z</time>
      </trkpt>
      <trkpt lat="45.76813" lon="4.90609">
        <ele>229</ele>
        <time>2010-11-23T18:48:33Z</time>
      </trkpt>
      <trkpt lat="45.76813" lon="4.90613">
        <ele>228</ele>
        <time>2010-11-23T18:48:34Z</time>
      </trkpt>
      <trkpt lat="45.76813" lon="4.90616">
        <ele>228</ele>
        <time>2010-11-23T18:48:35Z</time>
      </trkpt>
      <trkpt lat="45.76813" lon="4.9062">
        <ele>228</ele>
        <time>2010-11-23T18:48:36Z</time>
      </trkpt>
      <trkpt lat="45.76813" lon="4.90623">
        <ele>228</ele>
        <time>2010-11-23T18:48:37Z</time>
      </trkpt>
      <trkpt lat="45.76813" lon="4.90626">
        <ele>228</ele>
        <time>2010-11-23T18:48:38Z</time>
      </trkpt>
      <trkpt lat="45.76813" lon="4.9063">
        <ele>228</ele>
        <time>2010-11-23T18:48:39Z</time>
      </trkpt>
      <trkpt lat="45.76813" lon="4.90634">
        <ele>228</ele>
        <time>2010-11-23T18:48:40Z</time>
      </trkpt>
      <trkpt lat="45.76813" lon="4.90638">
        <ele>228</ele>
        <time>2010-11-23T18:48:41Z</time>
      </trkpt>
      <trkpt lat="45.76811" lon="4.90642">
        <ele>228</ele>
        <time>2010-11-23T18:48:42Z</time>
      </trkpt>
      <trkpt lat="45.76811" lon="4.90647">
        <ele>227</ele>
        <time>2010-11-23T18:48:43Z</time>
      </trkpt>
      <trkpt lat="45.7681" lon="4.90653">
        <ele>227</ele>
        <time>2010-11-23T18:48:44Z</time>
      </trkpt>
      <trkpt lat="45.76809" lon="4.90658">
        <ele>226</ele>
        <time>2010-11-23T18:48:45Z</time>
      </trkpt>
      <trkpt lat="45.76809" lon="4.90663">
        <ele>227</ele>
        <time>2010-11-23T18:48:46Z</time>
      </trkpt>
      <trkpt lat="45.76808" lon="4.90668">
        <ele>227</ele>
        <time>2010-11-23T18:48:47Z</time>
      </trkpt>
      <trkpt lat="45.76808" lon="4.90673">
        <ele>227</ele>
        <time>2010-11-23T18:48:49Z</time>
      </trkpt>
      <trkpt lat="45.76808" lon="4.90673">
        <ele>227</ele>
        <time>2010-11-23T18:48:49Z</time>
      </trkpt>
      <trkpt lat="45.76807" lon="4.90681">
        <ele>228</ele>
        <time>2010-11-23T18:48:50Z</time>
      </trkpt>
      <trkpt lat="45.76807" lon="4.90686">
        <ele>228</ele>
        <time>2010-11-23T18:48:51Z</time>
      </trkpt>
      <trkpt lat="45.76806" lon="4.90691">
        <ele>228</ele>
        <time>2010-11-23T18:48:52Z</time>
      </trkpt>
      <trkpt lat="45.76806" lon="4.90696">
        <ele>228</ele>
        <time>2010-11-23T18:48:53Z</time>
      </trkpt>
      <trkpt lat="45.76805" lon="4.90701">
        <ele>228</ele>
        <time>2010-11-23T18:48:54Z</time>
      </trkpt>
      <trkpt lat="45.76805" lon="4.90705">
        <ele>229</ele>
        <time>2010-11-23T18:48:55Z</time>
      </trkpt>
      <trkpt lat="45.76803" lon="4.9071">
        <ele>229</ele>
        <time>2010-11-23T18:48:56Z</time>
      </trkpt>
      <trkpt lat="45.76803" lon="4.90714">
        <ele>229</ele>
        <time>2010-11-23T18:48:57Z</time>
      </trkpt>
      <trkpt lat="45.76801" lon="4.90719">
        <ele>228</ele>
        <time>2010-11-23T18:48:58Z</time>
      </trkpt>
      <trkpt lat="45.768" lon="4.90722">
        <ele>228</ele>
        <time>2010-11-23T18:48:59Z</time>
      </trkpt>
      <trkpt lat="45.76799" lon="4.90726">
        <ele>228</ele>
        <time>2010-11-23T18:49:00Z</time>
      </trkpt>
      <trkpt lat="45.76798" lon="4.90729">
        <ele>228</ele>
        <time>2010-11-23T18:49:01Z</time>
      </trkpt>
      <trkpt lat="45.76797" lon="4.90733">
        <ele>228</ele>
        <time>2010-11-23T18:49:02Z</time>
      </trkpt>
      <trkpt lat="45.76796" lon="4.90737">
        <ele>228</ele>
        <time>2010-11-23T18:49:03Z</time>
      </trkpt>
      <trkpt lat="45.76796" lon="4.90742">
        <ele>228</ele>
        <time>2010-11-23T18:49:04Z</time>
      </trkpt>
      <trkpt lat="45.76795" lon="4.90746">
        <ele>228</ele>
        <time>2010-11-23T18:49:05Z</time>
      </trkpt>
      <trkpt lat="45.76795" lon="4.9075">
        <ele>228</ele>
        <time>2010-11-23T18:49:06Z</time>
      </trkpt>
      <trkpt lat="45.76794" lon="4.90755">
        <ele>228</ele>
        <time>2010-11-23T18:49:07Z</time>
      </trkpt>
      <trkpt lat="45.76794" lon="4.90759">
        <ele>228</ele>
        <time>2010-11-23T18:49:08Z</time>
      </trkpt>
      <trkpt lat="45.76793" lon="4.90763">
        <ele>228</ele>
        <time>2010-11-23T18:49:09Z</time>
      </trkpt>
      <trkpt lat="45.76792" lon="4.90767">
        <ele>228</ele>
        <time>2010-11-23T18:49:11Z</time>
      </trkpt>
      <trkpt lat="45.76792" lon="4.90769">
        <ele>228</ele>
        <time>2010-11-23T18:49:11Z</time>
      </trkpt>
      <trkpt lat="45.76791" lon="4.90776">
        <ele>228</ele>
        <time>2010-11-23T18:49:12Z</time>
      </trkpt>
      <trkpt lat="45.7679" lon="4.9078">
        <ele>228</ele>
        <time>2010-11-23T18:49:13Z</time>
      </trkpt>
      <trkpt lat="45.76789" lon="4.90784">
        <ele>228</ele>
        <time>2010-11-23T18:49:14Z</time>
      </trkpt>
      <trkpt lat="45.76789" lon="4.90789">
        <ele>227</ele>
        <time>2010-11-23T18:49:15Z</time>
      </trkpt>
      <trkpt lat="45.76788" lon="4.90793">
        <ele>227</ele>
        <time>2010-11-23T18:49:16Z</time>
      </trkpt>
      <trkpt lat="45.76787" lon="4.90797">
        <ele>227</ele>
        <time>2010-11-23T18:49:17Z</time>
      </trkpt>
      <trkpt lat="45.76787" lon="4.908">
        <ele>227</ele>
        <time>2010-11-23T18:49:18Z</time>
      </trkpt>
      <trkpt lat="45.76786" lon="4.90804">
        <ele>227</ele>
        <time>2010-11-23T18:49:19Z</time>
      </trkpt>
      <trkpt lat="45.76785" lon="4.90808">
        <ele>226</ele>
        <time>2010-11-23T18:49:20Z</time>
      </trkpt>
      <trkpt lat="45.76783" lon="4.90813">
        <ele>227</ele>
        <time>2010-11-23T18:49:21Z</time>
      </trkpt>
      <trkpt lat="45.76781" lon="4.90818">
        <ele>228</ele>
        <time>2010-11-23T18:49:22Z</time>
      </trkpt>
      <trkpt lat="45.7678" lon="4.90822">
        <ele>228</ele>
        <time>2010-11-23T18:49:23Z</time>
      </trkpt>
      <trkpt lat="45.76779" lon="4.90826">
        <ele>228</ele>
        <time>2010-11-23T18:49:24Z</time>
      </trkpt>
      <trkpt lat="45.76778" lon="4.9083">
        <ele>228</ele>
        <time>2010-11-23T18:49:25Z</time>
      </trkpt>
      <trkpt lat="45.76777" lon="4.90832">
        <ele>228</ele>
        <time>2010-11-23T18:49:26Z</time>
      </trkpt>
      <trkpt lat="45.76775" lon="4.90837">
        <ele>228</ele>
        <time>2010-11-23T18:49:27Z</time>
      </trkpt>
      <trkpt lat="45.76773" lon="4.90842">
        <ele>228</ele>
        <time>2010-11-23T18:49:28Z</time>
      </trkpt>
      <trkpt lat="45.76773" lon="4.90845">
        <ele>228</ele>
        <time>2010-11-23T18:49:29Z</time>
      </trkpt>
      <trkpt lat="45.76771" lon="4.90848">
        <ele>228</ele>
        <time>2010-11-23T18:49:30Z</time>
      </trkpt>
      <trkpt lat="45.76769" lon="4.90852">
        <ele>228</ele>
        <time>2010-11-23T18:49:31Z</time>
      </trkpt>
      <trkpt lat="45.76768" lon="4.90855">
        <ele>228</ele>
        <time>2010-11-23T18:49:33Z</time>
      </trkpt>
      <trkpt lat="45.76767" lon="4.90857">
        <ele>228</ele>
        <time>2010-11-23T18:49:33Z</time>
      </trkpt>
      <trkpt lat="45.76763" lon="4.90861">
        <ele>228</ele>
        <time>2010-11-23T18:49:34Z</time>
      </trkpt>
      <trkpt lat="45.76764" lon="4.90866">
        <ele>227</ele>
        <time>2010-11-23T18:49:35Z</time>
      </trkpt>
      <trkpt lat="45.76762" lon="4.90869">
        <ele>228</ele>
        <time>2010-11-23T18:49:36Z</time>
      </trkpt>
      <trkpt lat="45.76762" lon="4.90873">
        <ele>228</ele>
        <time>2010-11-23T18:49:37Z</time>
      </trkpt>
      <trkpt lat="45.76761" lon="4.90876">
        <ele>229</ele>
        <time>2010-11-23T18:49:38Z</time>
      </trkpt>
      <trkpt lat="45.76759" lon="4.90881">
        <ele>229</ele>
        <time>2010-11-23T18:49:39Z</time>
      </trkpt>
      <trkpt lat="45.76758" lon="4.90884">
        <ele>229</ele>
        <time>2010-11-23T18:49:40Z</time>
      </trkpt>
      <trkpt lat="45.76757" lon="4.90888">
        <ele>228</ele>
        <time>2010-11-23T18:49:41Z</time>
      </trkpt>
      <trkpt lat="45.76755" lon="4.90892">
        <ele>228</ele>
        <time>2010-11-23T18:49:42Z</time>
      </trkpt>
      <trkpt lat="45.76754" lon="4.90895">
        <ele>228</ele>
        <time>2010-11-23T18:49:43Z</time>
      </trkpt>
      <trkpt lat="45.76752" lon="4.90899">
        <ele>228</ele>
        <time>2010-11-23T18:49:44Z</time>
      </trkpt>
      <trkpt lat="45.76751" lon="4.90902">
        <ele>228</ele>
        <time>2010-11-23T18:49:45Z</time>
      </trkpt>
      <trkpt lat="45.7675" lon="4.90906">
        <ele>228</ele>
        <time>2010-11-23T18:49:46Z</time>
      </trkpt>
      <trkpt lat="45.76748" lon="4.9091">
        <ele>228</ele>
        <time>2010-11-23T18:49:47Z</time>
      </trkpt>
      <trkpt lat="45.76746" lon="4.90914">
        <ele>228</ele>
        <time>2010-11-23T18:49:48Z</time>
      </trkpt>
      <trkpt lat="45.76744" lon="4.90918">
        <ele>228</ele>
        <time>2010-11-23T18:49:49Z</time>
      </trkpt>
      <trkpt lat="45.76742" lon="4.90921">
        <ele>227</ele>
        <time>2010-11-23T18:49:50Z</time>
      </trkpt>
      <trkpt lat="45.76741" lon="4.90924">
        <ele>227</ele>
        <time>2010-11-23T18:49:51Z</time>
      </trkpt>
      <trkpt lat="45.76739" lon="4.90928">
        <ele>227</ele>
        <time>2010-11-23T18:49:52Z</time>
      </trkpt>
      <trkpt lat="45.76737" lon="4.90932">
        <ele>227</ele>
        <time>2010-11-23T18:49:53Z</time>
      </trkpt>
      <trkpt lat="45.76736" lon="4.90936">
        <ele>227</ele>
        <time>2010-11-23T18:49:55Z</time>
      </trkpt>
      <trkpt lat="45.76736" lon="4.90938">
        <ele>227</ele>
        <time>2010-11-23T18:49:55Z</time>
      </trkpt>
      <trkpt lat="45.76733" lon="4.90943">
        <ele>228</ele>
        <time>2010-11-23T18:49:56Z</time>
      </trkpt>
      <trkpt lat="45.76732" lon="4.90946">
        <ele>228</ele>
        <time>2010-11-23T18:49:57Z</time>
      </trkpt>
      <trkpt lat="45.76729" lon="4.9095">
        <ele>228</ele>
        <time>2010-11-23T18:49:58Z</time>
      </trkpt>
      <trkpt lat="45.76727" lon="4.90953">
        <ele>227</ele>
        <time>2010-11-23T18:49:59Z</time>
      </trkpt>
      <trkpt lat="45.76725" lon="4.90956">
        <ele>227</ele>
        <time>2010-11-23T18:50:00Z</time>
      </trkpt>
      <trkpt lat="45.76724" lon="4.9096">
        <ele>227</ele>
        <time>2010-11-23T18:50:01Z</time>
      </trkpt>
      <trkpt lat="45.76722" lon="4.90963">
        <ele>227</ele>
        <time>2010-11-23T18:50:02Z</time>
      </trkpt>
      <trkpt lat="45.76721" lon="4.90966">
        <ele>227</ele>
        <time>2010-11-23T18:50:03Z</time>
      </trkpt>
      <trkpt lat="45.7672" lon="4.9097">
        <ele>228</ele>
        <time>2010-11-23T18:50:04Z</time>
      </trkpt>
      <trkpt lat="45.76719" lon="4.90975">
        <ele>229</ele>
        <time>2010-11-23T18:50:05Z</time>
      </trkpt>
      <trkpt lat="45.76717" lon="4.90979">
        <ele>229</ele>
        <time>2010-11-23T18:50:06Z</time>
      </trkpt>
      <trkpt lat="45.76715" lon="4.90984">
        <ele>229</ele>
        <time>2010-11-23T18:50:07Z</time>
      </trkpt>
      <trkpt lat="45.76711" lon="4.90987">
        <ele>229</ele>
        <time>2010-11-23T18:50:08Z</time>
      </trkpt>
      <trkpt lat="45.7671" lon="4.90991">
        <ele>229</ele>
        <time>2010-11-23T18:50:09Z</time>
      </trkpt>
      <trkpt lat="45.76707" lon="4.90993">
        <ele>229</ele>
        <time>2010-11-23T18:50:10Z</time>
      </trkpt>
      <trkpt lat="45.76706" lon="4.90996">
        <ele>229</ele>
        <time>2010-11-23T18:50:11Z</time>
      </trkpt>
      <trkpt lat="45.76704" lon="4.90999">
        <ele>228</ele>
        <time>2010-11-23T18:50:12Z</time>
      </trkpt>
      <trkpt lat="45.76702" lon="4.91003">
        <ele>229</ele>
        <time>2010-11-23T18:50:13Z</time>
      </trkpt>
      <trkpt lat="45.767" lon="4.91007">
        <ele>229</ele>
        <time>2010-11-23T18:50:14Z</time>
      </trkpt>
      <trkpt lat="45.76699" lon="4.91011">
        <ele>229</ele>
        <time>2010-11-23T18:50:15Z</time>
      </trkpt>
      <trkpt lat="45.76698" lon="4.91014">
        <ele>229</ele>
        <time>2010-11-23T18:50:17Z</time>
      </trkpt>
      <trkpt lat="45.76698" lon="4.91014">
        <ele>229</ele>
        <time>2010-11-23T18:50:17Z</time>
      </trkpt>
      <trkpt lat="45.76695" lon="4.91021">
        <ele>229</ele>
        <time>2010-11-23T18:50:18Z</time>
      </trkpt>
      <trkpt lat="45.76693" lon="4.91026">
        <ele>229</ele>
        <time>2010-11-23T18:50:19Z</time>
      </trkpt>
      <trkpt lat="45.76693" lon="4.9103">
        <ele>229</ele>
        <time>2010-11-23T18:50:20Z</time>
      </trkpt>
      <trkpt lat="45.76692" lon="4.91035">
        <ele>228</ele>
        <time>2010-11-23T18:50:21Z</time>
      </trkpt>
      <trkpt lat="45.76692" lon="4.9104">
        <ele>229</ele>
        <time>2010-11-23T18:50:22Z</time>
      </trkpt>
      <trkpt lat="45.76691" lon="4.91044">
        <ele>229</ele>
        <time>2010-11-23T18:50:23Z</time>
      </trkpt>
      <trkpt lat="45.76691" lon="4.91048">
        <ele>229</ele>
        <time>2010-11-23T18:50:24Z</time>
      </trkpt>
      <trkpt lat="45.7669" lon="4.91052">
        <ele>228</ele>
        <time>2010-11-23T18:50:25Z</time>
      </trkpt>
      <trkpt lat="45.7669" lon="4.91056">
        <ele>228</ele>
        <time>2010-11-23T18:50:26Z</time>
      </trkpt>
      <trkpt lat="45.76689" lon="4.9106">
        <ele>228</ele>
        <time>2010-11-23T18:50:27Z</time>
      </trkpt>
      <trkpt lat="45.76687" lon="4.91063">
        <ele>228</ele>
        <time>2010-11-23T18:50:28Z</time>
      </trkpt>
      <trkpt lat="45.76688" lon="4.91068">
        <ele>228</ele>
        <time>2010-11-23T18:50:29Z</time>
      </trkpt>
      <trkpt lat="45.76686" lon="4.91072">
        <ele>228</ele>
        <time>2010-11-23T18:50:30Z</time>
      </trkpt>
      <trkpt lat="45.76687" lon="4.91077">
        <ele>228</ele>
        <time>2010-11-23T18:50:31Z</time>
      </trkpt>
      <trkpt lat="45.76685" lon="4.91081">
        <ele>228</ele>
        <time>2010-11-23T18:50:32Z</time>
      </trkpt>
      <trkpt lat="45.76683" lon="4.91083">
        <ele>229</ele>
        <time>2010-11-23T18:50:33Z</time>
      </trkpt>
      <trkpt lat="45.76684" lon="4.91088">
        <ele>229</ele>
        <time>2010-11-23T18:50:34Z</time>
      </trkpt>
      <trkpt lat="45.76682" lon="4.91093">
        <ele>230</ele>
        <time>2010-11-23T18:50:35Z</time>
      </trkpt>
      <trkpt lat="45.76681" lon="4.91097">
        <ele>230</ele>
        <time>2010-11-23T18:50:36Z</time>
      </trkpt>
      <trkpt lat="45.7668" lon="4.91101">
        <ele>230</ele>
        <time>2010-11-23T18:50:37Z</time>
      </trkpt>
      <trkpt lat="45.76679" lon="4.91105">
        <ele>229</ele>
        <time>2010-11-23T18:50:39Z</time>
      </trkpt>
      <trkpt lat="45.76679" lon="4.91105">
        <ele>229</ele>
        <time>2010-11-23T18:50:39Z</time>
      </trkpt>
      <trkpt lat="45.76677" lon="4.91111">
        <ele>229</ele>
        <time>2010-11-23T18:50:40Z</time>
      </trkpt>
      <trkpt lat="45.76676" lon="4.91115">
        <ele>229</ele>
        <time>2010-11-23T18:50:41Z</time>
      </trkpt>
      <trkpt lat="45.76675" lon="4.91119">
        <ele>230</ele>
        <time>2010-11-23T18:50:42Z</time>
      </trkpt>
      <trkpt lat="45.76673" lon="4.91123">
        <ele>230</ele>
        <time>2010-11-23T18:50:43Z</time>
      </trkpt>
      <trkpt lat="45.76673" lon="4.91126">
        <ele>230</ele>
        <time>2010-11-23T18:50:44Z</time>
      </trkpt>
      <trkpt lat="45.76673" lon="4.91131">
        <ele>230</ele>
        <time>2010-11-23T18:50:45Z</time>
      </trkpt>
      <trkpt lat="45.76673" lon="4.91134">
        <ele>230</ele>
        <time>2010-11-23T18:50:46Z</time>
      </trkpt>
      <trkpt lat="45.76673" lon="4.91137">
        <ele>230</ele>
        <time>2010-11-23T18:50:47Z</time>
      </trkpt>
      <trkpt lat="45.76674" lon="4.9114">
        <ele>230</ele>
        <time>2010-11-23T18:50:48Z</time>
      </trkpt>
      <trkpt lat="45.76674" lon="4.91143">
        <ele>230</ele>
        <time>2010-11-23T18:50:49Z</time>
      </trkpt>
      <trkpt lat="45.76674" lon="4.91146">
        <ele>230</ele>
        <time>2010-11-23T18:50:50Z</time>
      </trkpt>
      <trkpt lat="45.76674" lon="4.91148">
        <ele>230</ele>
        <time>2010-11-23T18:50:51Z</time>
      </trkpt>
      <trkpt lat="45.76674" lon="4.91152">
        <ele>231</ele>
        <time>2010-11-23T18:50:52Z</time>
      </trkpt>
      <trkpt lat="45.76674" lon="4.91156">
        <ele>231</ele>
        <time>2010-11-23T18:50:53Z</time>
      </trkpt>
      <trkpt lat="45.76675" lon="4.91161">
        <ele>231</ele>
        <time>2010-11-23T18:50:54Z</time>
      </trkpt>
      <trkpt lat="45.76676" lon="4.91164">
        <ele>231</ele>
        <time>2010-11-23T18:50:55Z</time>
      </trkpt>
      <trkpt lat="45.76677" lon="4.91167">
        <ele>231</ele>
        <time>2010-11-23T18:50:56Z</time>
      </trkpt>
      <trkpt lat="45.76676" lon="4.9117">
        <ele>232</ele>
        <time>2010-11-23T18:50:57Z</time>
      </trkpt>
      <trkpt lat="45.76676" lon="4.91174">
        <ele>232</ele>
        <time>2010-11-23T18:50:58Z</time>
      </trkpt>
      <trkpt lat="45.76677" lon="4.91178">
        <ele>233</ele>
        <time>2010-11-23T18:50:59Z</time>
      </trkpt>
      <trkpt lat="45.76677" lon="4.91183">
        <ele>234</ele>
        <time>2010-11-23T18:51:01Z</time>
      </trkpt>
      <trkpt lat="45.76677" lon="4.91183">
        <ele>234</ele>
        <time>2010-11-23T18:51:01Z</time>
      </trkpt>
      <trkpt lat="45.76676" lon="4.91191">
        <ele>233.07600402832</ele>
        <time>2010-11-23T18:51:02Z</time>
      </trkpt>
      <trkpt lat="45.76675" lon="4.91198">
        <ele>232</ele>
        <time>2010-11-23T18:51:03Z</time>
      </trkpt>
      <trkpt lat="45.76674" lon="4.91203">
        <ele>231</ele>
        <time>2010-11-23T18:51:04Z</time>
      </trkpt>
      <trkpt lat="45.76675" lon="4.91206">
        <ele>230</ele>
        <time>2010-11-23T18:51:05Z</time>
      </trkpt>
      <trkpt lat="45.76675" lon="4.91208">
        <ele>230</ele>
        <time>2010-11-23T18:51:06Z</time>
      </trkpt>
      <trkpt lat="45.76675" lon="4.91211">
        <ele>231</ele>
        <time>2010-11-23T18:51:07Z</time>
      </trkpt>
      <trkpt lat="45.76675" lon="4.91212">
        <ele>231</ele>
        <time>2010-11-23T18:51:08Z</time>
      </trkpt>
      <trkpt lat="45.76675" lon="4.91215">
        <ele>231</ele>
        <time>2010-11-23T18:51:09Z</time>
      </trkpt>
      <trkpt lat="45.76674" lon="4.91217">
        <ele>230</ele>
        <time>2010-11-23T18:51:10Z</time>
      </trkpt>
      <trkpt lat="45.76674" lon="4.91218">
        <ele>229</ele>
        <time>2010-11-23T18:51:11Z</time>
      </trkpt>
      <trkpt lat="45.76674" lon="4.9122">
        <ele>229</ele>
        <time>2010-11-23T18:51:12Z</time>
      </trkpt>
      <trkpt lat="45.76675" lon="4.91221">
        <ele>229</ele>
        <time>2010-11-23T18:51:13Z</time>
      </trkpt>
      <trkpt lat="45.76675" lon="4.91222">
        <ele>228</ele>
        <time>2010-11-23T18:51:14Z</time>
      </trkpt>
      <trkpt lat="45.76675" lon="4.91223">
        <ele>228</ele>
        <time>2010-11-23T18:51:15Z</time>
      </trkpt>
      <trkpt lat="45.76675" lon="4.91224">
        <ele>228</ele>
        <time>2010-11-23T18:51:16Z</time>
      </trkpt>
      <trkpt lat="45.76676" lon="4.91225">
        <ele>228</ele>
        <time>2010-11-23T18:51:17Z</time>
      </trkpt>
      <trkpt lat="45.76675" lon="4.91228">
        <ele>229</ele>
        <time>2010-11-23T18:51:18Z</time>
      </trkpt>
      <trkpt lat="45.76675" lon="4.91228">
        <ele>229</ele>
        <time>2010-11-23T18:51:19Z</time>
      </trkpt>
      <trkpt lat="45.76675" lon="4.91229">
        <ele>229</ele>
        <time>2010-11-23T18:51:20Z</time>
      </trkpt>
      <trkpt lat="45.76674" lon="4.91231">
        <ele>229</ele>
        <time>2010-11-23T18:51:21Z</time>
      </trkpt>
      <trkpt lat="45.76674" lon="4.91233">
        <ele>229</ele>
        <time>2010-11-23T18:51:23Z</time>
      </trkpt>
      <trkpt lat="45.76674" lon="4.91233">
        <ele>229.00532531738</ele>
        <time>2010-11-23T18:51:23Z</time>
      </trkpt>
      <trkpt lat="45.76672" lon="4.91234">
        <ele>230</ele>
        <time>2010-11-23T18:51:25Z</time>
      </trkpt>
      <trkpt lat="45.76672" lon="4.91235">
        <ele>230</ele>
        <time>2010-11-23T18:51:25Z</time>
      </trkpt>
      <trkpt lat="45.76671" lon="4.91235">
        <ele>229</ele>
        <time>2010-11-23T18:51:26Z</time>
      </trkpt>
      <trkpt lat="45.76669" lon="4.91236">
        <ele>228</ele>
        <time>2010-11-23T18:51:27Z</time>
      </trkpt>
      <trkpt lat="45.76668" lon="4.91237">
        <ele>228</ele>
        <time>2010-11-23T18:51:28Z</time>
      </trkpt>
      <trkpt lat="45.76668" lon="4.91239">
        <ele>227</ele>
        <time>2010-11-23T18:51:29Z</time>
      </trkpt>
      <trkpt lat="45.76669" lon="4.91241">
        <ele>227</ele>
        <time>2010-11-23T18:51:30Z</time>
      </trkpt>
      <trkpt lat="45.7667" lon="4.91242">
        <ele>228</ele>
        <time>2010-11-23T18:51:31Z</time>
      </trkpt>
      <trkpt lat="45.76671" lon="4.91241">
        <ele>229</ele>
        <time>2010-11-23T18:51:32Z</time>
      </trkpt>
      <trkpt lat="45.76672" lon="4.9124">
        <ele>229</ele>
        <time>2010-11-23T18:51:33Z</time>
      </trkpt>
      <trkpt lat="45.76676" lon="4.91217">
        <ele>232</ele>
        <time>2010-11-23T18:53:06Z</time>
      </trkpt>
      <trkpt lat="45.76676" lon="4.91217">
        <ele>231.99629211426</ele>
        <time>2010-11-23T18:53:06Z</time>
      </trkpt>
      <trkpt lat="45.76676" lon="4.91213">
        <ele>231.42915344238</ele>
        <time>2010-11-23T18:53:07Z</time>
      </trkpt>
      <trkpt lat="45.76676" lon="4.91206">
        <ele>230</ele>
        <time>2010-11-23T18:53:08Z</time>
      </trkpt>
      <trkpt lat="45.76675" lon="4.912">
        <ele>230</ele>
        <time>2010-11-23T18:53:09Z</time>
      </trkpt>
      <trkpt lat="45.76675" lon="4.91196">
        <ele>230</ele>
        <time>2010-11-23T18:53:10Z</time>
      </trkpt>
      <trkpt lat="45.76675" lon="4.91192">
        <ele>229</ele>
        <time>2010-11-23T18:53:11Z</time>
      </trkpt>
      <trkpt lat="45.76674" lon="4.91188">
        <ele>227</ele>
        <time>2010-11-23T18:53:12Z</time>
      </trkpt>
      <trkpt lat="45.76673" lon="4.91183">
        <ele>226</ele>
        <time>2010-11-23T18:53:13Z</time>
      </trkpt>
      <trkpt lat="45.76674" lon="4.9118">
        <ele>224</ele>
        <time>2010-11-23T18:53:14Z</time>
      </trkpt>
      <trkpt lat="45.76674" lon="4.91176">
        <ele>224</ele>
        <time>2010-11-23T18:53:15Z</time>
      </trkpt>
      <trkpt lat="45.76674" lon="4.91173">
        <ele>223</ele>
        <time>2010-11-23T18:53:16Z</time>
      </trkpt>
      <trkpt lat="45.76674" lon="4.91169">
        <ele>223</ele>
        <time>2010-11-23T18:53:17Z</time>
      </trkpt>
      <trkpt lat="45.76674" lon="4.91165">
        <ele>223</ele>
        <time>2010-11-23T18:53:18Z</time>
      </trkpt>
      <trkpt lat="45.76674" lon="4.91161">
        <ele>222</ele>
        <time>2010-11-23T18:53:19Z</time>
      </trkpt>
      <trkpt lat="45.76673" lon="4.91158">
        <ele>222</ele>
        <time>2010-11-23T18:53:20Z</time>
      </trkpt>
      <trkpt lat="45.76673" lon="4.91153">
        <ele>223</ele>
        <time>2010-11-23T18:53:21Z</time>
      </trkpt>
      <trkpt lat="45.76675" lon="4.91148">
        <ele>223</ele>
        <time>2010-11-23T18:53:22Z</time>
      </trkpt>
      <trkpt lat="45.76675" lon="4.91144">
        <ele>222</ele>
        <time>2010-11-23T18:53:23Z</time>
      </trkpt>
      <trkpt lat="45.76676" lon="4.91139">
        <ele>222</ele>
        <time>2010-11-23T18:53:24Z</time>
      </trkpt>
      <trkpt lat="45.76676" lon="4.91135">
        <ele>222</ele>
        <time>2010-11-23T18:53:25Z</time>
      </trkpt>
      <trkpt lat="45.76677" lon="4.91131">
        <ele>222</ele>
        <time>2010-11-23T18:53:26Z</time>
      </trkpt>
      <trkpt lat="45.76678" lon="4.91127">
        <ele>221</ele>
        <time>2010-11-23T18:53:27Z</time>
      </trkpt>
      <trkpt lat="45.76679" lon="4.91123">
        <ele>221</ele>
        <time>2010-11-23T18:53:29Z</time>
      </trkpt>
      <trkpt lat="45.76679" lon="4.91122">
        <ele>221</ele>
        <time>2010-11-23T18:53:29Z</time>
      </trkpt>
      <trkpt lat="45.7668" lon="4.91114">
        <ele>222</ele>
        <time>2010-11-23T18:53:30Z</time>
      </trkpt>
      <trkpt lat="45.7668" lon="4.91109">
        <ele>223</ele>
        <time>2010-11-23T18:53:31Z</time>
      </trkpt>
      <trkpt lat="45.76681" lon="4.91105">
        <ele>223</ele>
        <time>2010-11-23T18:53:32Z</time>
      </trkpt>
      <trkpt lat="45.76682" lon="4.91101">
        <ele>223</ele>
        <time>2010-11-23T18:53:33Z</time>
      </trkpt>
      <trkpt lat="45.76682" lon="4.91096">
        <ele>224</ele>
        <time>2010-11-23T18:53:34Z</time>
      </trkpt>
      <trkpt lat="45.76684" lon="4.91092">
        <ele>224</ele>
        <time>2010-11-23T18:53:35Z</time>
      </trkpt>
      <trkpt lat="45.76686" lon="4.91089">
        <ele>224</ele>
        <time>2010-11-23T18:53:36Z</time>
      </trkpt>
      <trkpt lat="45.76687" lon="4.91085">
        <ele>224</ele>
        <time>2010-11-23T18:53:37Z</time>
      </trkpt>
      <trkpt lat="45.76687" lon="4.91081">
        <ele>224</ele>
        <time>2010-11-23T18:53:38Z</time>
      </trkpt>
      <trkpt lat="45.76689" lon="4.91077">
        <ele>225</ele>
        <time>2010-11-23T18:53:39Z</time>
      </trkpt>
      <trkpt lat="45.76689" lon="4.91073">
        <ele>225</ele>
        <time>2010-11-23T18:53:40Z</time>
      </trkpt>
      <trkpt lat="45.76689" lon="4.91069">
        <ele>225</ele>
        <time>2010-11-23T18:53:41Z</time>
      </trkpt>
      <trkpt lat="45.7669" lon="4.91066">
        <ele>225</ele>
        <time>2010-11-23T18:53:42Z</time>
      </trkpt>
      <trkpt lat="45.76691" lon="4.91063">
        <ele>225</ele>
        <time>2010-11-23T18:53:43Z</time>
      </trkpt>
      <trkpt lat="45.76693" lon="4.91059">
        <ele>225</ele>
        <time>2010-11-23T18:53:44Z</time>
      </trkpt>
      <trkpt lat="45.76694" lon="4.91055">
        <ele>224</ele>
        <time>2010-11-23T18:53:45Z</time>
      </trkpt>
      <trkpt lat="45.76696" lon="4.91051">
        <ele>225</ele>
        <time>2010-11-23T18:53:46Z</time>
      </trkpt>
      <trkpt lat="45.76697" lon="4.91048">
        <ele>225</ele>
        <time>2010-11-23T18:53:47Z</time>
      </trkpt>
      <trkpt lat="45.76697" lon="4.91044">
        <ele>224</ele>
        <time>2010-11-23T18:53:48Z</time>
      </trkpt>
      <trkpt lat="45.76698" lon="4.91041">
        <ele>224</ele>
        <time>2010-11-23T18:53:49Z</time>
      </trkpt>
      <trkpt lat="45.76699" lon="4.91037">
        <ele>224</ele>
        <time>2010-11-23T18:53:51Z</time>
      </trkpt>
      <trkpt lat="45.76699" lon="4.91037">
        <ele>224.06265258789</ele>
        <time>2010-11-23T18:53:51Z</time>
      </trkpt>
      <trkpt lat="45.76699" lon="4.9103">
        <ele>225</ele>
        <time>2010-11-23T18:53:52Z</time>
      </trkpt>
      <trkpt lat="45.767" lon="4.91026">
        <ele>226</ele>
        <time>2010-11-23T18:53:53Z</time>
      </trkpt>
      <trkpt lat="45.76701" lon="4.91022">
        <ele>225</ele>
        <time>2010-11-23T18:53:54Z</time>
      </trkpt>
      <trkpt lat="45.76704" lon="4.91018">
        <ele>225</ele>
        <time>2010-11-23T18:53:55Z</time>
      </trkpt>
      <trkpt lat="45.76705" lon="4.91014">
        <ele>224</ele>
        <time>2010-11-23T18:53:56Z</time>
      </trkpt>
      <trkpt lat="45.76706" lon="4.9101">
        <ele>224</ele>
        <time>2010-11-23T18:53:57Z</time>
      </trkpt>
      <trkpt lat="45.76707" lon="4.91006">
        <ele>224</ele>
        <time>2010-11-23T18:53:58Z</time>
      </trkpt>
      <trkpt lat="45.76709" lon="4.91003">
        <ele>224</ele>
        <time>2010-11-23T18:53:59Z</time>
      </trkpt>
      <trkpt lat="45.7671" lon="4.90999">
        <ele>223</ele>
        <time>2010-11-23T18:54:00Z</time>
      </trkpt>
      <trkpt lat="45.76712" lon="4.90996">
        <ele>222</ele>
        <time>2010-11-23T18:54:01Z</time>
      </trkpt>
      <trkpt lat="45.76713" lon="4.90993">
        <ele>222</ele>
        <time>2010-11-23T18:54:02Z</time>
      </trkpt>
      <trkpt lat="45.76715" lon="4.90989">
        <ele>222</ele>
        <time>2010-11-23T18:54:03Z</time>
      </trkpt>
      <trkpt lat="45.76719" lon="4.90985">
        <ele>222</ele>
        <time>2010-11-23T18:54:04Z</time>
      </trkpt>
      <trkpt lat="45.76722" lon="4.90982">
        <ele>222</ele>
        <time>2010-11-23T18:54:05Z</time>
      </trkpt>
      <trkpt lat="45.76722" lon="4.90978">
        <ele>222</ele>
        <time>2010-11-23T18:54:06Z</time>
      </trkpt>
      <trkpt lat="45.76725" lon="4.90975">
        <ele>222</ele>
        <time>2010-11-23T18:54:07Z</time>
      </trkpt>
      <trkpt lat="45.76726" lon="4.90971">
        <ele>221</ele>
        <time>2010-11-23T18:54:08Z</time>
      </trkpt>
      <trkpt lat="45.76727" lon="4.90968">
        <ele>221</ele>
        <time>2010-11-23T18:54:09Z</time>
      </trkpt>
      <trkpt lat="45.76729" lon="4.90965">
        <ele>221</ele>
        <time>2010-11-23T18:54:10Z</time>
      </trkpt>
      <trkpt lat="45.7673" lon="4.90962">
        <ele>221</ele>
        <time>2010-11-23T18:54:11Z</time>
      </trkpt>
      <trkpt lat="45.76732" lon="4.9096">
        <ele>221</ele>
        <time>2010-11-23T18:54:13Z</time>
      </trkpt>
      <trkpt lat="45.76732" lon="4.90959">
        <ele>221</ele>
        <time>2010-11-23T18:54:13Z</time>
      </trkpt>
      <trkpt lat="45.76734" lon="4.90954">
        <ele>221</ele>
        <time>2010-11-23T18:54:14Z</time>
      </trkpt>
      <trkpt lat="45.76735" lon="4.90951">
        <ele>221</ele>
        <time>2010-11-23T18:54:15Z</time>
      </trkpt>
      <trkpt lat="45.76736" lon="4.90948">
        <ele>221</ele>
        <time>2010-11-23T18:54:16Z</time>
      </trkpt>
      <trkpt lat="45.76738" lon="4.90945">
        <ele>221</ele>
        <time>2010-11-23T18:54:17Z</time>
      </trkpt>
      <trkpt lat="45.76741" lon="4.90942">
        <ele>222</ele>
        <time>2010-11-23T18:54:18Z</time>
      </trkpt>
      <trkpt lat="45.76742" lon="4.90939">
        <ele>222</ele>
        <time>2010-11-23T18:54:19Z</time>
      </trkpt>
      <trkpt lat="45.76743" lon="4.90935">
        <ele>221</ele>
        <time>2010-11-23T18:54:20Z</time>
      </trkpt>
      <trkpt lat="45.76746" lon="4.90932">
        <ele>222</ele>
        <time>2010-11-23T18:54:21Z</time>
      </trkpt>
      <trkpt lat="45.76747" lon="4.90929">
        <ele>222</ele>
        <time>2010-11-23T18:54:22Z</time>
      </trkpt>
      <trkpt lat="45.76748" lon="4.90925">
        <ele>222</ele>
        <time>2010-11-23T18:54:23Z</time>
      </trkpt>
      <trkpt lat="45.7675" lon="4.90921">
        <ele>222</ele>
        <time>2010-11-23T18:54:24Z</time>
      </trkpt>
      <trkpt lat="45.76752" lon="4.90918">
        <ele>222</ele>
        <time>2010-11-23T18:54:25Z</time>
      </trkpt>
      <trkpt lat="45.76753" lon="4.90915">
        <ele>222</ele>
        <time>2010-11-23T18:54:26Z</time>
      </trkpt>
      <trkpt lat="45.76755" lon="4.90911">
        <ele>222</ele>
        <time>2010-11-23T18:54:27Z</time>
      </trkpt>
      <trkpt lat="45.76756" lon="4.90908">
        <ele>222</ele>
        <time>2010-11-23T18:54:28Z</time>
      </trkpt>
      <trkpt lat="45.76758" lon="4.90904">
        <ele>222</ele>
        <time>2010-11-23T18:54:29Z</time>
      </trkpt>
      <trkpt lat="45.76759" lon="4.90901">
        <ele>222</ele>
        <time>2010-11-23T18:54:30Z</time>
      </trkpt>
      <trkpt lat="45.76761" lon="4.90898">
        <ele>222</ele>
        <time>2010-11-23T18:54:31Z</time>
      </trkpt>
      <trkpt lat="45.76762" lon="4.90895">
        <ele>222</ele>
        <time>2010-11-23T18:54:32Z</time>
      </trkpt>
      <trkpt lat="45.76763" lon="4.90891">
        <ele>222</ele>
        <time>2010-11-23T18:54:33Z</time>
      </trkpt>
      <trkpt lat="45.76764" lon="4.90888">
        <ele>222</ele>
        <time>2010-11-23T18:54:35Z</time>
      </trkpt>
      <trkpt lat="45.76764" lon="4.90888">
        <ele>222.00408935547</ele>
        <time>2010-11-23T18:54:35Z</time>
      </trkpt>
      <trkpt lat="45.76765" lon="4.90884">
        <ele>222.64028930664</ele>
        <time>2010-11-23T18:54:36Z</time>
      </trkpt>
      <trkpt lat="45.76766" lon="4.90878">
        <ele>223</ele>
        <time>2010-11-23T18:54:37Z</time>
      </trkpt>
      <trkpt lat="45.76768" lon="4.90874">
        <ele>223</ele>
        <time>2010-11-23T18:54:38Z</time>
      </trkpt>
      <trkpt lat="45.7677" lon="4.90872">
        <ele>222</ele>
        <time>2010-11-23T18:54:39Z</time>
      </trkpt>
      <trkpt lat="45.76771" lon="4.90868">
        <ele>223</ele>
        <time>2010-11-23T18:54:40Z</time>
      </trkpt>
      <trkpt lat="45.76772" lon="4.90864">
        <ele>223</ele>
        <time>2010-11-23T18:54:41Z</time>
      </trkpt>
      <trkpt lat="45.76772" lon="4.90861">
        <ele>222</ele>
        <time>2010-11-23T18:54:42Z</time>
      </trkpt>
      <trkpt lat="45.76774" lon="4.90859">
        <ele>222</ele>
        <time>2010-11-23T18:54:43Z</time>
      </trkpt>
      <trkpt lat="45.76775" lon="4.90855">
        <ele>222</ele>
        <time>2010-11-23T18:54:44Z</time>
      </trkpt>
      <trkpt lat="45.76776" lon="4.90852">
        <ele>221</ele>
        <time>2010-11-23T18:54:45Z</time>
      </trkpt>
      <trkpt lat="45.76778" lon="4.90848">
        <ele>221</ele>
        <time>2010-11-23T18:54:46Z</time>
      </trkpt>
      <trkpt lat="45.76779" lon="4.90844">
        <ele>220</ele>
        <time>2010-11-23T18:54:47Z</time>
      </trkpt>
      <trkpt lat="45.76779" lon="4.9084">
        <ele>220</ele>
        <time>2010-11-23T18:54:48Z</time>
      </trkpt>
      <trkpt lat="45.76781" lon="4.90835">
        <ele>220</ele>
        <time>2010-11-23T18:54:49Z</time>
      </trkpt>
      <trkpt lat="45.76783" lon="4.90832">
        <ele>221</ele>
        <time>2010-11-23T18:54:50Z</time>
      </trkpt>
      <trkpt lat="45.76783" lon="4.90828">
        <ele>220</ele>
        <time>2010-11-23T18:54:51Z</time>
      </trkpt>
      <trkpt lat="45.76784" lon="4.90824">
        <ele>220</ele>
        <time>2010-11-23T18:54:52Z</time>
      </trkpt>
      <trkpt lat="45.76785" lon="4.90821">
        <ele>220</ele>
        <time>2010-11-23T18:54:53Z</time>
      </trkpt>
      <trkpt lat="45.76786" lon="4.90818">
        <ele>220</ele>
        <time>2010-11-23T18:54:54Z</time>
      </trkpt>
      <trkpt lat="45.76787" lon="4.90814">
        <ele>221</ele>
        <time>2010-11-23T18:54:55Z</time>
      </trkpt>
      <trkpt lat="45.76788" lon="4.90811">
        <ele>221</ele>
        <time>2010-11-23T18:54:56Z</time>
      </trkpt>
      <trkpt lat="45.76789" lon="4.90807">
        <ele>221</ele>
        <time>2010-11-23T18:54:58Z</time>
      </trkpt>
      <trkpt lat="45.7679" lon="4.90805">
        <ele>221</ele>
        <time>2010-11-23T18:54:58Z</time>
      </trkpt>
      <trkpt lat="45.76791" lon="4.908">
        <ele>221</ele>
        <time>2010-11-23T18:54:59Z</time>
      </trkpt>
      <trkpt lat="45.76792" lon="4.90797">
        <ele>221</ele>
        <time>2010-11-23T18:55:00Z</time>
      </trkpt>
      <trkpt lat="45.76794" lon="4.90793">
        <ele>222</ele>
        <time>2010-11-23T18:55:01Z</time>
      </trkpt>
      <trkpt lat="45.76795" lon="4.90789">
        <ele>222</ele>
        <time>2010-11-23T18:55:02Z</time>
      </trkpt>
      <trkpt lat="45.76796" lon="4.90785">
        <ele>222</ele>
        <time>2010-11-23T18:55:03Z</time>
      </trkpt>
      <trkpt lat="45.76796" lon="4.9078">
        <ele>221</ele>
        <time>2010-11-23T18:55:04Z</time>
      </trkpt>
      <trkpt lat="45.76796" lon="4.90778">
        <ele>222</ele>
        <time>2010-11-23T18:55:05Z</time>
      </trkpt>
      <trkpt lat="45.76798" lon="4.90775">
        <ele>222</ele>
        <time>2010-11-23T18:55:06Z</time>
      </trkpt>
      <trkpt lat="45.76799" lon="4.90772">
        <ele>222</ele>
        <time>2010-11-23T18:55:07Z</time>
      </trkpt>
      <trkpt lat="45.76801" lon="4.90767">
        <ele>223</ele>
        <time>2010-11-23T18:55:08Z</time>
      </trkpt>
      <trkpt lat="45.768" lon="4.90764">
        <ele>223</ele>
        <time>2010-11-23T18:55:09Z</time>
      </trkpt>
      <trkpt lat="45.76802" lon="4.90759">
        <ele>222</ele>
        <time>2010-11-23T18:55:10Z</time>
      </trkpt>
      <trkpt lat="45.76805" lon="4.90756">
        <ele>222</ele>
        <time>2010-11-23T18:55:11Z</time>
      </trkpt>
      <trkpt lat="45.76805" lon="4.90753">
        <ele>222</ele>
        <time>2010-11-23T18:55:12Z</time>
      </trkpt>
      <trkpt lat="45.76806" lon="4.90749">
        <ele>222</ele>
        <time>2010-11-23T18:55:13Z</time>
      </trkpt>
      <trkpt lat="45.76806" lon="4.90745">
        <ele>221</ele>
        <time>2010-11-23T18:55:14Z</time>
      </trkpt>
      <trkpt lat="45.76807" lon="4.90741">
        <ele>222</ele>
        <time>2010-11-23T18:55:15Z</time>
      </trkpt>
      <trkpt lat="45.76807" lon="4.90737">
        <ele>221</ele>
        <time>2010-11-23T18:55:16Z</time>
      </trkpt>
      <trkpt lat="45.76808" lon="4.90734">
        <ele>221</ele>
        <time>2010-11-23T18:55:17Z</time>
      </trkpt>
      <trkpt lat="45.76809" lon="4.90729">
        <ele>221</ele>
        <time>2010-11-23T18:55:18Z</time>
      </trkpt>
      <trkpt lat="45.76809" lon="4.90726">
        <ele>221</ele>
        <time>2010-11-23T18:55:20Z</time>
      </trkpt>
      <trkpt lat="45.76809" lon="4.90725">
        <ele>221</ele>
        <time>2010-11-23T18:55:20Z</time>
      </trkpt>
      <trkpt lat="45.76811" lon="4.90718">
        <ele>221</ele>
        <time>2010-11-23T18:55:21Z</time>
      </trkpt>
      <trkpt lat="45.76811" lon="4.90715">
        <ele>221</ele>
        <time>2010-11-23T18:55:22Z</time>
      </trkpt>
      <trkpt lat="45.76813" lon="4.9071">
        <ele>222</ele>
        <time>2010-11-23T18:55:23Z</time>
      </trkpt>
      <trkpt lat="45.76813" lon="4.90706">
        <ele>222</ele>
        <time>2010-11-23T18:55:24Z</time>
      </trkpt>
      <trkpt lat="45.76814" lon="4.90702">
        <ele>222</ele>
        <time>2010-11-23T18:55:25Z</time>
      </trkpt>
      <trkpt lat="45.76814" lon="4.90698">
        <ele>223</ele>
        <time>2010-11-23T18:55:26Z</time>
      </trkpt>
      <trkpt lat="45.76815" lon="4.90695">
        <ele>223</ele>
        <time>2010-11-23T18:55:27Z</time>
      </trkpt>
      <trkpt lat="45.76814" lon="4.9069">
        <ele>223</ele>
        <time>2010-11-23T18:55:28Z</time>
      </trkpt>
      <trkpt lat="45.76814" lon="4.90687">
        <ele>223</ele>
        <time>2010-11-23T18:55:29Z</time>
      </trkpt>
      <trkpt lat="45.76813" lon="4.90684">
        <ele>222</ele>
        <time>2010-11-23T18:55:30Z</time>
      </trkpt>
      <trkpt lat="45.76814" lon="4.90679">
        <ele>222</ele>
        <time>2010-11-23T18:55:31Z</time>
      </trkpt>
      <trkpt lat="45.76815" lon="4.90675">
        <ele>223</ele>
        <time>2010-11-23T18:55:32Z</time>
      </trkpt>
      <trkpt lat="45.76815" lon="4.90671">
        <ele>223</ele>
        <time>2010-11-23T18:55:33Z</time>
      </trkpt>
      <trkpt lat="45.76815" lon="4.90667">
        <ele>223</ele>
        <time>2010-11-23T18:55:34Z</time>
      </trkpt>
      <trkpt lat="45.76815" lon="4.90663">
        <ele>223</ele>
        <time>2010-11-23T18:55:35Z</time>
      </trkpt>
      <trkpt lat="45.76815" lon="4.90659">
        <ele>223</ele>
        <time>2010-11-23T18:55:36Z</time>
      </trkpt>
      <trkpt lat="45.76816" lon="4.90655">
        <ele>222</ele>
        <time>2010-11-23T18:55:37Z</time>
      </trkpt>
      <trkpt lat="45.76816" lon="4.90652">
        <ele>222</ele>
        <time>2010-11-23T18:55:38Z</time>
      </trkpt>
      <trkpt lat="45.76817" lon="4.90648">
        <ele>222</ele>
        <time>2010-11-23T18:55:39Z</time>
      </trkpt>
      <trkpt lat="45.76817" lon="4.90645">
        <ele>222</ele>
        <time>2010-11-23T18:55:40Z</time>
      </trkpt>
      <trkpt lat="45.76818" lon="4.90641">
        <ele>222</ele>
        <time>2010-11-23T18:55:42Z</time>
      </trkpt>
      <trkpt lat="45.76818" lon="4.90641">
        <ele>222</ele>
        <time>2010-11-23T18:55:42Z</time>
      </trkpt>
      <trkpt lat="45.7682" lon="4.90635">
        <ele>222</ele>
        <time>2010-11-23T18:55:43Z</time>
      </trkpt>
      <trkpt lat="45.76821" lon="4.90629">
        <ele>222</ele>
        <time>2010-11-23T18:55:44Z</time>
      </trkpt>
      <trkpt lat="45.76821" lon="4.90625">
        <ele>223</ele>
        <time>2010-11-23T18:55:45Z</time>
      </trkpt>
      <trkpt lat="45.76822" lon="4.90621">
        <ele>222</ele>
        <time>2010-11-23T18:55:46Z</time>
      </trkpt>
      <trkpt lat="45.76823" lon="4.90617">
        <ele>222</ele>
        <time>2010-11-23T18:55:47Z</time>
      </trkpt>
      <trkpt lat="45.76824" lon="4.90613">
        <ele>222</ele>
        <time>2010-11-23T18:55:48Z</time>
      </trkpt>
      <trkpt lat="45.76824" lon="4.9061">
        <ele>222</ele>
        <time>2010-11-23T18:55:49Z</time>
      </trkpt>
      <trkpt lat="45.76825" lon="4.90607">
        <ele>222</ele>
        <time>2010-11-23T18:55:50Z</time>
      </trkpt>
      <trkpt lat="45.76827" lon="4.90603">
        <ele>222</ele>
        <time>2010-11-23T18:55:51Z</time>
      </trkpt>
      <trkpt lat="45.76829" lon="4.90599">
        <ele>222</ele>
        <time>2010-11-23T18:55:52Z</time>
      </trkpt>
      <trkpt lat="45.76829" lon="4.90595">
        <ele>221</ele>
        <time>2010-11-23T18:55:53Z</time>
      </trkpt>
      <trkpt lat="45.76831" lon="4.90591">
        <ele>222</ele>
        <time>2010-11-23T18:55:54Z</time>
      </trkpt>
      <trkpt lat="45.76833" lon="4.90588">
        <ele>222</ele>
        <time>2010-11-23T18:55:55Z</time>
      </trkpt>
      <trkpt lat="45.76835" lon="4.90585">
        <ele>222</ele>
        <time>2010-11-23T18:55:56Z</time>
      </trkpt>
      <trkpt lat="45.76837" lon="4.90582">
        <ele>223</ele>
        <time>2010-11-23T18:55:57Z</time>
      </trkpt>
      <trkpt lat="45.76839" lon="4.90579">
        <ele>224</ele>
        <time>2010-11-23T18:55:58Z</time>
      </trkpt>
      <trkpt lat="45.7684" lon="4.90577">
        <ele>224</ele>
        <time>2010-11-23T18:55:59Z</time>
      </trkpt>
      <trkpt lat="45.76842" lon="4.90574">
        <ele>224</ele>
        <time>2010-11-23T18:56:00Z</time>
      </trkpt>
      <trkpt lat="45.76843" lon="4.90571">
        <ele>224</ele>
        <time>2010-11-23T18:56:01Z</time>
      </trkpt>
      <trkpt lat="45.76844" lon="4.90567">
        <ele>224</ele>
        <time>2010-11-23T18:56:02Z</time>
      </trkpt>
      <trkpt lat="45.76845" lon="4.90564">
        <ele>224</ele>
        <time>2010-11-23T18:56:04Z</time>
      </trkpt>
      <trkpt lat="45.76846" lon="4.90563">
        <ele>224</ele>
        <time>2010-11-23T18:56:04Z</time>
      </trkpt>
      <trkpt lat="45.76849" lon="4.90558">
        <ele>224</ele>
        <time>2010-11-23T18:56:05Z</time>
      </trkpt>
      <trkpt lat="45.76851" lon="4.90555">
        <ele>224</ele>
        <time>2010-11-23T18:56:06Z</time>
      </trkpt>
      <trkpt lat="45.76852" lon="4.90551">
        <ele>224</ele>
        <time>2010-11-23T18:56:07Z</time>
      </trkpt>
      <trkpt lat="45.76854" lon="4.90549">
        <ele>225</ele>
        <time>2010-11-23T18:56:08Z</time>
      </trkpt>
      <trkpt lat="45.76855" lon="4.90547">
        <ele>225</ele>
        <time>2010-11-23T18:56:10Z</time>
      </trkpt>
      <trkpt lat="45.76855" lon="4.90546">
        <ele>225</ele>
        <time>2010-11-23T18:56:10Z</time>
      </trkpt>
      <trkpt lat="45.76858" lon="4.90541">
        <ele>224</ele>
        <time>2010-11-23T18:56:11Z</time>
      </trkpt>
      <trkpt lat="45.76858" lon="4.90538">
        <ele>224</ele>
        <time>2010-11-23T18:56:12Z</time>
      </trkpt>
      <trkpt lat="45.76859" lon="4.90535">
        <ele>224</ele>
        <time>2010-11-23T18:56:13Z</time>
      </trkpt>
      <trkpt lat="45.76861" lon="4.90532">
        <ele>225</ele>
        <time>2010-11-23T18:56:14Z</time>
      </trkpt>
      <trkpt lat="45.76864" lon="4.90528">
        <ele>225</ele>
        <time>2010-11-23T18:56:15Z</time>
      </trkpt>
      <trkpt lat="45.76866" lon="4.90525">
        <ele>225</ele>
        <time>2010-11-23T18:56:16Z</time>
      </trkpt>
      <trkpt lat="45.76866" lon="4.90521">
        <ele>226</ele>
        <time>2010-11-23T18:56:17Z</time>
      </trkpt>
      <trkpt lat="45.76867" lon="4.90516">
        <ele>226</ele>
        <time>2010-11-23T18:56:18Z</time>
      </trkpt>
      <trkpt lat="45.76868" lon="4.90512">
        <ele>226</ele>
        <time>2010-11-23T18:56:19Z</time>
      </trkpt>
      <trkpt lat="45.7687" lon="4.9051">
        <ele>225</ele>
        <time>2010-11-23T18:56:20Z</time>
      </trkpt>
      <trkpt lat="45.76872" lon="4.90506">
        <ele>225</ele>
        <time>2010-11-23T18:56:21Z</time>
      </trkpt>
      <trkpt lat="45.76873" lon="4.90503">
        <ele>225</ele>
        <time>2010-11-23T18:56:22Z</time>
      </trkpt>
      <trkpt lat="45.76874" lon="4.905">
        <ele>226</ele>
        <time>2010-11-23T18:56:23Z</time>
      </trkpt>
      <trkpt lat="45.76874" lon="4.90496">
        <ele>226</ele>
        <time>2010-11-23T18:56:24Z</time>
      </trkpt>
      <trkpt lat="45.76875" lon="4.90492">
        <ele>226</ele>
        <time>2010-11-23T18:56:26Z</time>
      </trkpt>
      <trkpt lat="45.76875" lon="4.90492">
        <ele>226</ele>
        <time>2010-11-23T18:56:26Z</time>
      </trkpt>
      <trkpt lat="45.76877" lon="4.9049">
        <ele>226.46209716797</ele>
        <time>2010-11-23T18:56:27Z</time>
      </trkpt>
      <trkpt lat="45.7688" lon="4.90484">
        <ele>227</ele>
        <time>2010-11-23T18:56:28Z</time>
      </trkpt>
      <trkpt lat="45.76881" lon="4.90482">
        <ele>227</ele>
        <time>2010-11-23T18:56:29Z</time>
      </trkpt>
      <trkpt lat="45.76883" lon="4.90478">
        <ele>226</ele>
        <time>2010-11-23T18:56:30Z</time>
      </trkpt>
      <trkpt lat="45.76884" lon="4.90474">
        <ele>226</ele>
        <time>2010-11-23T18:56:31Z</time>
      </trkpt>
      <trkpt lat="45.76886" lon="4.90469">
        <ele>227</ele>
        <time>2010-11-23T18:56:32Z</time>
      </trkpt>
      <trkpt lat="45.76886" lon="4.90466">
        <ele>226</ele>
        <time>2010-11-23T18:56:33Z</time>
      </trkpt>
      <trkpt lat="45.76887" lon="4.90462">
        <ele>225</ele>
        <time>2010-11-23T18:56:34Z</time>
      </trkpt>
      <trkpt lat="45.76888" lon="4.90459">
        <ele>225</ele>
        <time>2010-11-23T18:56:35Z</time>
      </trkpt>
      <trkpt lat="45.76889" lon="4.90454">
        <ele>224</ele>
        <time>2010-11-23T18:56:36Z</time>
      </trkpt>
      <trkpt lat="45.7689" lon="4.90451">
        <ele>223</ele>
        <time>2010-11-23T18:56:37Z</time>
      </trkpt>
      <trkpt lat="45.76891" lon="4.90446">
        <ele>222</ele>
        <time>2010-11-23T18:56:38Z</time>
      </trkpt>
      <trkpt lat="45.76892" lon="4.90443">
        <ele>222</ele>
        <time>2010-11-23T18:56:39Z</time>
      </trkpt>
      <trkpt lat="45.76896" lon="4.9044">
        <ele>221</ele>
        <time>2010-11-23T18:56:40Z</time>
      </trkpt>
      <trkpt lat="45.76898" lon="4.90437">
        <ele>221</ele>
        <time>2010-11-23T18:56:41Z</time>
      </trkpt>
      <trkpt lat="45.76902" lon="4.90437">
        <ele>222</ele>
        <time>2010-11-23T18:56:42Z</time>
      </trkpt>
      <trkpt lat="45.76904" lon="4.90435">
        <ele>222</ele>
        <time>2010-11-23T18:56:43Z</time>
      </trkpt>
      <trkpt lat="45.76905" lon="4.90434">
        <ele>222</ele>
        <time>2010-11-23T18:56:44Z</time>
      </trkpt>
      <trkpt lat="45.76908" lon="4.90431">
        <ele>222</ele>
        <time>2010-11-23T18:56:45Z</time>
      </trkpt>
      <trkpt lat="45.76909" lon="4.90429">
        <ele>223</ele>
        <time>2010-11-23T18:56:46Z</time>
      </trkpt>
      <trkpt lat="45.76911" lon="4.90427">
        <ele>222</ele>
        <time>2010-11-23T18:56:47Z</time>
      </trkpt>
      <trkpt lat="45.76912" lon="4.90424">
        <ele>223</ele>
        <time>2010-11-23T18:56:49Z</time>
      </trkpt>
      <trkpt lat="45.76913" lon="4.90423">
        <ele>223</ele>
        <time>2010-11-23T18:56:49Z</time>
      </trkpt>
      <trkpt lat="45.76916" lon="4.90418">
        <ele>223</ele>
        <time>2010-11-23T18:56:50Z</time>
      </trkpt>
      <trkpt lat="45.76917" lon="4.90415">
        <ele>223</ele>
        <time>2010-11-23T18:56:51Z</time>
      </trkpt>
      <trkpt lat="45.76919" lon="4.9041">
        <ele>222</ele>
        <time>2010-11-23T18:56:52Z</time>
      </trkpt>
      <trkpt lat="45.76921" lon="4.90407">
        <ele>222</ele>
        <time>2010-11-23T18:56:53Z</time>
      </trkpt>
      <trkpt lat="45.76924" lon="4.90403">
        <ele>222</ele>
        <time>2010-11-23T18:56:54Z</time>
      </trkpt>
      <trkpt lat="45.76925" lon="4.904">
        <ele>221</ele>
        <time>2010-11-23T18:56:55Z</time>
      </trkpt>
      <trkpt lat="45.76928" lon="4.90397">
        <ele>221</ele>
        <time>2010-11-23T18:56:56Z</time>
      </trkpt>
      <trkpt lat="45.7693" lon="4.90394">
        <ele>221</ele>
        <time>2010-11-23T18:56:57Z</time>
      </trkpt>
      <trkpt lat="45.76932" lon="4.90391">
        <ele>221</ele>
        <time>2010-11-23T18:56:58Z</time>
      </trkpt>
      <trkpt lat="45.76933" lon="4.90388">
        <ele>221</ele>
        <time>2010-11-23T18:56:59Z</time>
      </trkpt>
      <trkpt lat="45.76935" lon="4.90386">
        <ele>220</ele>
        <time>2010-11-23T18:57:00Z</time>
      </trkpt>
      <trkpt lat="45.76938" lon="4.90384">
        <ele>221</ele>
        <time>2010-11-23T18:57:01Z</time>
      </trkpt>
      <trkpt lat="45.7694" lon="4.90381">
        <ele>220</ele>
        <time>2010-11-23T18:57:02Z</time>
      </trkpt>
      <trkpt lat="45.76941" lon="4.90379">
        <ele>220</ele>
        <time>2010-11-23T18:57:03Z</time>
      </trkpt>
      <trkpt lat="45.76943" lon="4.90376">
        <ele>219</ele>
        <time>2010-11-23T18:57:04Z</time>
      </trkpt>
      <trkpt lat="45.76945" lon="4.90374">
        <ele>219</ele>
        <time>2010-11-23T18:57:05Z</time>
      </trkpt>
      <trkpt lat="45.76947" lon="4.90371">
        <ele>219</ele>
        <time>2010-11-23T18:57:06Z</time>
      </trkpt>
      <trkpt lat="45.76948" lon="4.90369">
        <ele>218</ele>
        <time>2010-11-23T18:57:07Z</time>
      </trkpt>
      <trkpt lat="45.7695" lon="4.90366">
        <ele>218</ele>
        <time>2010-11-23T18:57:08Z</time>
      </trkpt>
      <trkpt lat="45.76952" lon="4.90364">
        <ele>218</ele>
        <time>2010-11-23T18:57:09Z</time>
      </trkpt>
      <trkpt lat="45.76954" lon="4.90361">
        <ele>218</ele>
        <time>2010-11-23T18:57:11Z</time>
      </trkpt>
      <trkpt lat="45.76954" lon="4.90361">
        <ele>218</ele>
        <time>2010-11-23T18:57:11Z</time>
      </trkpt>
      <trkpt lat="45.76958" lon="4.90361">
        <ele>218</ele>
        <time>2010-11-23T18:57:12Z</time>
      </trkpt>
      <trkpt lat="45.76963" lon="4.90358">
        <ele>219</ele>
        <time>2010-11-23T18:57:13Z</time>
      </trkpt>
      <trkpt lat="45.76966" lon="4.90356">
        <ele>220</ele>
        <time>2010-11-23T18:57:14Z</time>
      </trkpt>
      <trkpt lat="45.76969" lon="4.90353">
        <ele>220</ele>
        <time>2010-11-23T18:57:15Z</time>
      </trkpt>
      <trkpt lat="45.76971" lon="4.9035">
        <ele>221</ele>
        <time>2010-11-23T18:57:16Z</time>
      </trkpt>
      <trkpt lat="45.76973" lon="4.90348">
        <ele>222</ele>
        <time>2010-11-23T18:57:17Z</time>
      </trkpt>
      <trkpt lat="45.76975" lon="4.90345">
        <ele>222</ele>
        <time>2010-11-23T18:57:18Z</time>
      </trkpt>
      <trkpt lat="45.76977" lon="4.90343">
        <ele>222</ele>
        <time>2010-11-23T18:57:19Z</time>
      </trkpt>
      <trkpt lat="45.76978" lon="4.90341">
        <ele>222</ele>
        <time>2010-11-23T18:57:20Z</time>
      </trkpt>
      <trkpt lat="45.7698" lon="4.90338">
        <ele>222</ele>
        <time>2010-11-23T18:57:21Z</time>
      </trkpt>
      <trkpt lat="45.76983" lon="4.90337">
        <ele>222</ele>
        <time>2010-11-23T18:57:22Z</time>
      </trkpt>
      <trkpt lat="45.76985" lon="4.90334">
        <ele>222</ele>
        <time>2010-11-23T18:57:23Z</time>
      </trkpt>
      <trkpt lat="45.76987" lon="4.90332">
        <ele>222</ele>
        <time>2010-11-23T18:57:24Z</time>
      </trkpt>
      <trkpt lat="45.76989" lon="4.9033">
        <ele>221</ele>
        <time>2010-11-23T18:57:25Z</time>
      </trkpt>
      <trkpt lat="45.76991" lon="4.90328">
        <ele>221</ele>
        <time>2010-11-23T18:57:26Z</time>
      </trkpt>
      <trkpt lat="45.76993" lon="4.90326">
        <ele>221</ele>
        <time>2010-11-23T18:57:27Z</time>
      </trkpt>
      <trkpt lat="45.76995" lon="4.90324">
        <ele>222</ele>
        <time>2010-11-23T18:57:28Z</time>
      </trkpt>
      <trkpt lat="45.76998" lon="4.90322">
        <ele>222</ele>
        <time>2010-11-23T18:57:29Z</time>
      </trkpt>
      <trkpt lat="45.77" lon="4.90321">
        <ele>222</ele>
        <time>2010-11-23T18:57:30Z</time>
      </trkpt>
      <trkpt lat="45.77002" lon="4.90319">
        <ele>222</ele>
        <time>2010-11-23T18:57:31Z</time>
      </trkpt>
      <trkpt lat="45.77005" lon="4.90317">
        <ele>222</ele>
        <time>2010-11-23T18:57:32Z</time>
      </trkpt>
      <trkpt lat="45.77007" lon="4.90314">
        <ele>223</ele>
        <time>2010-11-23T18:57:34Z</time>
      </trkpt>
      <trkpt lat="45.77007" lon="4.90314">
        <ele>222.80995178223</ele>
        <time>2010-11-23T18:57:34Z</time>
      </trkpt>
      <trkpt lat="45.77011" lon="4.9031">
        <ele>223</ele>
        <time>2010-11-23T18:57:35Z</time>
      </trkpt>
      <trkpt lat="45.77013" lon="4.90308">
        <ele>222</ele>
        <time>2010-11-23T18:57:36Z</time>
      </trkpt>
      <trkpt lat="45.77016" lon="4.90306">
        <ele>222</ele>
        <time>2010-11-23T18:57:37Z</time>
      </trkpt>
      <trkpt lat="45.77019" lon="4.90303">
        <ele>222</ele>
        <time>2010-11-23T18:57:38Z</time>
      </trkpt>
      <trkpt lat="45.77021" lon="4.903">
        <ele>223</ele>
        <time>2010-11-23T18:57:39Z</time>
      </trkpt>
      <trkpt lat="45.77023" lon="4.90298">
        <ele>223</ele>
        <time>2010-11-23T18:57:40Z</time>
      </trkpt>
      <trkpt lat="45.77026" lon="4.90296">
        <ele>223</ele>
        <time>2010-11-23T18:57:41Z</time>
      </trkpt>
      <trkpt lat="45.77029" lon="4.90294">
        <ele>223</ele>
        <time>2010-11-23T18:57:42Z</time>
      </trkpt>
      <trkpt lat="45.77031" lon="4.90292">
        <ele>223</ele>
        <time>2010-11-23T18:57:43Z</time>
      </trkpt>
      <trkpt lat="45.77034" lon="4.9029">
        <ele>224</ele>
        <time>2010-11-23T18:57:44Z</time>
      </trkpt>
      <trkpt lat="45.77036" lon="4.90288">
        <ele>224</ele>
        <time>2010-11-23T18:57:45Z</time>
      </trkpt>
      <trkpt lat="45.77038" lon="4.90286">
        <ele>224</ele>
        <time>2010-11-23T18:57:46Z</time>
      </trkpt>
      <trkpt lat="45.7704" lon="4.90285">
        <ele>225</ele>
        <time>2010-11-23T18:57:47Z</time>
      </trkpt>
      <trkpt lat="45.77042" lon="4.90284">
        <ele>225</ele>
        <time>2010-11-23T18:57:48Z</time>
      </trkpt>
      <trkpt lat="45.77044" lon="4.90284">
        <ele>224</ele>
        <time>2010-11-23T18:57:49Z</time>
      </trkpt>
      <trkpt lat="45.77046" lon="4.90282">
        <ele>224</ele>
        <time>2010-11-23T18:57:50Z</time>
      </trkpt>
      <trkpt lat="45.77049" lon="4.9028">
        <ele>224</ele>
        <time>2010-11-23T18:57:51Z</time>
      </trkpt>
      <trkpt lat="45.77051" lon="4.90278">
        <ele>224</ele>
        <time>2010-11-23T18:57:52Z</time>
      </trkpt>
      <trkpt lat="45.77054" lon="4.90276">
        <ele>224</ele>
        <time>2010-11-23T18:57:53Z</time>
      </trkpt>
      <trkpt lat="45.77056" lon="4.90274">
        <ele>224</ele>
        <time>2010-11-23T18:57:54Z</time>
      </trkpt>
      <trkpt lat="45.77058" lon="4.90272">
        <ele>224</ele>
        <time>2010-11-23T18:57:56Z</time>
      </trkpt>
      <trkpt lat="45.77058" lon="4.90272">
        <ele>224</ele>
        <time>2010-11-23T18:57:56Z</time>
      </trkpt>
      <trkpt lat="45.77061" lon="4.9027">
        <ele>224.63360595703</ele>
        <time>2010-11-23T18:57:57Z</time>
      </trkpt>
      <trkpt lat="45.77066" lon="4.90267">
        <ele>225</ele>
        <time>2010-11-23T18:57:58Z</time>
      </trkpt>
      <trkpt lat="45.77068" lon="4.90265">
        <ele>226</ele>
        <time>2010-11-23T18:57:59Z</time>
      </trkpt>
      <trkpt lat="45.77072" lon="4.90264">
        <ele>227</ele>
        <time>2010-11-23T18:58:00Z</time>
      </trkpt>
      <trkpt lat="45.77074" lon="4.90262">
        <ele>227</ele>
        <time>2010-11-23T18:58:01Z</time>
      </trkpt>
      <trkpt lat="45.77076" lon="4.90261">
        <ele>227</ele>
        <time>2010-11-23T18:58:02Z</time>
      </trkpt>
      <trkpt lat="45.77078" lon="4.9026">
        <ele>227</ele>
        <time>2010-11-23T18:58:03Z</time>
      </trkpt>
      <trkpt lat="45.77081" lon="4.90258">
        <ele>227</ele>
        <time>2010-11-23T18:58:04Z</time>
      </trkpt>
      <trkpt lat="45.77083" lon="4.90257">
        <ele>227</ele>
        <time>2010-11-23T18:58:05Z</time>
      </trkpt>
      <trkpt lat="45.77085" lon="4.90254">
        <ele>225</ele>
        <time>2010-11-23T18:58:06Z</time>
      </trkpt>
      <trkpt lat="45.77088" lon="4.9025">
        <ele>225</ele>
        <time>2010-11-23T18:58:07Z</time>
      </trkpt>
      <trkpt lat="45.7709" lon="4.90248">
        <ele>224</ele>
        <time>2010-11-23T18:58:08Z</time>
      </trkpt>
      <trkpt lat="45.77093" lon="4.90246">
        <ele>225</ele>
        <time>2010-11-23T18:58:09Z</time>
      </trkpt>
      <trkpt lat="45.77095" lon="4.90243">
        <ele>225</ele>
        <time>2010-11-23T18:58:10Z</time>
      </trkpt>
      <trkpt lat="45.77097" lon="4.90242">
        <ele>225</ele>
        <time>2010-11-23T18:58:11Z</time>
      </trkpt>
      <trkpt lat="45.77099" lon="4.9024">
        <ele>225</ele>
        <time>2010-11-23T18:58:12Z</time>
      </trkpt>
      <trkpt lat="45.77101" lon="4.90239">
        <ele>225</ele>
        <time>2010-11-23T18:58:13Z</time>
      </trkpt>
      <trkpt lat="45.77103" lon="4.90238">
        <ele>225</ele>
        <time>2010-11-23T18:58:14Z</time>
      </trkpt>
      <trkpt lat="45.77105" lon="4.90236">
        <ele>226</ele>
        <time>2010-11-23T18:58:15Z</time>
      </trkpt>
      <trkpt lat="45.77108" lon="4.90234">
        <ele>226</ele>
        <time>2010-11-23T18:58:16Z</time>
      </trkpt>
      <trkpt lat="45.7711" lon="4.90233">
        <ele>226</ele>
        <time>2010-11-23T18:58:18Z</time>
      </trkpt>
      <trkpt lat="45.77111" lon="4.90233">
        <ele>226</ele>
        <time>2010-11-23T18:58:18Z</time>
      </trkpt>
      <trkpt lat="45.77115" lon="4.90231">
        <ele>226</ele>
        <time>2010-11-23T18:58:19Z</time>
      </trkpt>
      <trkpt lat="45.77117" lon="4.90229">
        <ele>226</ele>
        <time>2010-11-23T18:58:20Z</time>
      </trkpt>
      <trkpt lat="45.77119" lon="4.90228">
        <ele>226</ele>
        <time>2010-11-23T18:58:21Z</time>
      </trkpt>
      <trkpt lat="45.77122" lon="4.90226">
        <ele>226</ele>
        <time>2010-11-23T18:58:22Z</time>
      </trkpt>
      <trkpt lat="45.77124" lon="4.90224">
        <ele>225</ele>
        <time>2010-11-23T18:58:23Z</time>
      </trkpt>
      <trkpt lat="45.77128" lon="4.90221">
        <ele>225</ele>
        <time>2010-11-23T18:58:24Z</time>
      </trkpt>
      <trkpt lat="45.77131" lon="4.90219">
        <ele>226</ele>
        <time>2010-11-23T18:58:25Z</time>
      </trkpt>
      <trkpt lat="45.77133" lon="4.90218">
        <ele>226</ele>
        <time>2010-11-23T18:58:26Z</time>
      </trkpt>
      <trkpt lat="45.77137" lon="4.90216">
        <ele>226</ele>
        <time>2010-11-23T18:58:27Z</time>
      </trkpt>
      <trkpt lat="45.7714" lon="4.90213">
        <ele>226</ele>
        <time>2010-11-23T18:58:28Z</time>
      </trkpt>
      <trkpt lat="45.77142" lon="4.90211">
        <ele>225</ele>
        <time>2010-11-23T18:58:29Z</time>
      </trkpt>
      <trkpt lat="45.77145" lon="4.90209">
        <ele>225</ele>
        <time>2010-11-23T18:58:30Z</time>
      </trkpt>
      <trkpt lat="45.77147" lon="4.90206">
        <ele>225</ele>
        <time>2010-11-23T18:58:31Z</time>
      </trkpt>
      <trkpt lat="45.77149" lon="4.90205">
        <ele>225</ele>
        <time>2010-11-23T18:58:32Z</time>
      </trkpt>
      <trkpt lat="45.77151" lon="4.90203">
        <ele>225</ele>
        <time>2010-11-23T18:58:33Z</time>
      </trkpt>
      <trkpt lat="45.77153" lon="4.90202">
        <ele>225</ele>
        <time>2010-11-23T18:58:34Z</time>
      </trkpt>
      <trkpt lat="45.77156" lon="4.90202">
        <ele>226</ele>
        <time>2010-11-23T18:58:35Z</time>
      </trkpt>
      <trkpt lat="45.77159" lon="4.90199">
        <ele>226</ele>
        <time>2010-11-23T18:58:36Z</time>
      </trkpt>
      <trkpt lat="45.77161" lon="4.90196">
        <ele>225</ele>
        <time>2010-11-23T18:58:37Z</time>
      </trkpt>
      <trkpt lat="45.77164" lon="4.90195">
        <ele>226</ele>
        <time>2010-11-23T18:58:38Z</time>
      </trkpt>
      <trkpt lat="45.77167" lon="4.90193">
        <ele>226</ele>
        <time>2010-11-23T18:58:40Z</time>
      </trkpt>
      <trkpt lat="45.77168" lon="4.90193">
        <ele>226</ele>
        <time>2010-11-23T18:58:40Z</time>
      </trkpt>
      <trkpt lat="45.77171" lon="4.9019">
        <ele>226</ele>
        <time>2010-11-23T18:58:41Z</time>
      </trkpt>
      <trkpt lat="45.77174" lon="4.90189">
        <ele>226</ele>
        <time>2010-11-23T18:58:42Z</time>
      </trkpt>
      <trkpt lat="45.77176" lon="4.90187">
        <ele>226</ele>
        <time>2010-11-23T18:58:43Z</time>
      </trkpt>
      <trkpt lat="45.77179" lon="4.90184">
        <ele>226</ele>
        <time>2010-11-23T18:58:44Z</time>
      </trkpt>
      <trkpt lat="45.77182" lon="4.9018">
        <ele>225</ele>
        <time>2010-11-23T18:58:45Z</time>
      </trkpt>
      <trkpt lat="45.77184" lon="4.90176">
        <ele>225</ele>
        <time>2010-11-23T18:58:46Z</time>
      </trkpt>
      <trkpt lat="45.77186" lon="4.90174">
        <ele>225</ele>
        <time>2010-11-23T18:58:47Z</time>
      </trkpt>
      <trkpt lat="45.77189" lon="4.9017">
        <ele>224</ele>
        <time>2010-11-23T18:58:48Z</time>
      </trkpt>
      <trkpt lat="45.7719" lon="4.90169">
        <ele>224</ele>
        <time>2010-11-23T18:58:49Z</time>
      </trkpt>
      <trkpt lat="45.77192" lon="4.90166">
        <ele>224</ele>
        <time>2010-11-23T18:58:50Z</time>
      </trkpt>
      <trkpt lat="45.77195" lon="4.90165">
        <ele>223</ele>
        <time>2010-11-23T18:58:51Z</time>
      </trkpt>
      <trkpt lat="45.77197" lon="4.90164">
        <ele>222</ele>
        <time>2010-11-23T18:58:52Z</time>
      </trkpt>
      <trkpt lat="45.772" lon="4.90162">
        <ele>222</ele>
        <time>2010-11-23T18:58:53Z</time>
      </trkpt>
      <trkpt lat="45.77201" lon="4.90161">
        <ele>222</ele>
        <time>2010-11-23T18:58:54Z</time>
      </trkpt>
      <trkpt lat="45.77203" lon="4.90159">
        <ele>222</ele>
        <time>2010-11-23T18:58:55Z</time>
      </trkpt>
      <trkpt lat="45.77205" lon="4.90154">
        <ele>222</ele>
        <time>2010-11-23T18:58:56Z</time>
      </trkpt>
      <trkpt lat="45.77207" lon="4.90152">
        <ele>222</ele>
        <time>2010-11-23T18:58:57Z</time>
      </trkpt>
      <trkpt lat="45.7721" lon="4.9015">
        <ele>222</ele>
        <time>2010-11-23T18:58:58Z</time>
      </trkpt>
      <trkpt lat="45.77212" lon="4.90148">
        <ele>223</ele>
        <time>2010-11-23T18:58:59Z</time>
      </trkpt>
      <trkpt lat="45.77214" lon="4.90146">
        <ele>223</ele>
        <time>2010-11-23T18:59:00Z</time>
      </trkpt>
      <trkpt lat="45.77216" lon="4.90144">
        <ele>223</ele>
        <time>2010-11-23T18:59:02Z</time>
      </trkpt>
      <trkpt lat="45.77216" lon="4.90143">
        <ele>223.16906738281</ele>
        <time>2010-11-23T18:59:02Z</time>
      </trkpt>
      <trkpt lat="45.7722" lon="4.90141">
        <ele>224</ele>
        <time>2010-11-23T18:59:03Z</time>
      </trkpt>
      <trkpt lat="45.77222" lon="4.9014">
        <ele>225</ele>
        <time>2010-11-23T18:59:04Z</time>
      </trkpt>
      <trkpt lat="45.77226" lon="4.90139">
        <ele>226</ele>
        <time>2010-11-23T18:59:05Z</time>
      </trkpt>
      <trkpt lat="45.77228" lon="4.90139">
        <ele>226</ele>
        <time>2010-11-23T18:59:06Z</time>
      </trkpt>
      <trkpt lat="45.77231" lon="4.90138">
        <ele>226</ele>
        <time>2010-11-23T18:59:07Z</time>
      </trkpt>
      <trkpt lat="45.77234" lon="4.90136">
        <ele>226</ele>
        <time>2010-11-23T18:59:08Z</time>
      </trkpt>
      <trkpt lat="45.77236" lon="4.90135">
        <ele>225</ele>
        <time>2010-11-23T18:59:09Z</time>
      </trkpt>
      <trkpt lat="45.77239" lon="4.90133">
        <ele>226</ele>
        <time>2010-11-23T18:59:10Z</time>
      </trkpt>
      <trkpt lat="45.77242" lon="4.9013">
        <ele>226</ele>
        <time>2010-11-23T18:59:11Z</time>
      </trkpt>
      <trkpt lat="45.77243" lon="4.90129">
        <ele>226</ele>
        <time>2010-11-23T18:59:12Z</time>
      </trkpt>
      <trkpt lat="45.77245" lon="4.90127">
        <ele>226</ele>
        <time>2010-11-23T18:59:13Z</time>
      </trkpt>
      <trkpt lat="45.77248" lon="4.90125">
        <ele>227</ele>
        <time>2010-11-23T18:59:14Z</time>
      </trkpt>
      <trkpt lat="45.7725" lon="4.90123">
        <ele>228</ele>
        <time>2010-11-23T18:59:15Z</time>
      </trkpt>
      <trkpt lat="45.77251" lon="4.90121">
        <ele>227</ele>
        <time>2010-11-23T18:59:16Z</time>
      </trkpt>
      <trkpt lat="45.77254" lon="4.9012">
        <ele>227</ele>
        <time>2010-11-23T18:59:17Z</time>
      </trkpt>
      <trkpt lat="45.77256" lon="4.90117">
        <ele>228</ele>
        <time>2010-11-23T18:59:18Z</time>
      </trkpt>
      <trkpt lat="45.77258" lon="4.90113">
        <ele>227</ele>
        <time>2010-11-23T18:59:19Z</time>
      </trkpt>
      <trkpt lat="45.7726" lon="4.90111">
        <ele>227</ele>
        <time>2010-11-23T18:59:20Z</time>
      </trkpt>
      <trkpt lat="45.77263" lon="4.90109">
        <ele>227</ele>
        <time>2010-11-23T18:59:21Z</time>
      </trkpt>
      <trkpt lat="45.77265" lon="4.90107">
        <ele>227</ele>
        <time>2010-11-23T18:59:22Z</time>
      </trkpt>
      <trkpt lat="45.77267" lon="4.90106">
        <ele>227</ele>
        <time>2010-11-23T18:59:24Z</time>
      </trkpt>
      <trkpt lat="45.77267" lon="4.90106">
        <ele>227</ele>
        <time>2010-11-23T18:59:24Z</time>
      </trkpt>
      <trkpt lat="45.77272" lon="4.90102">
        <ele>227.96597290039</ele>
        <time>2010-11-23T18:59:25Z</time>
      </trkpt>
      <trkpt lat="45.77274" lon="4.90101">
        <ele>228</ele>
        <time>2010-11-23T18:59:26Z</time>
      </trkpt>
      <trkpt lat="45.77277" lon="4.90099">
        <ele>227</ele>
        <time>2010-11-23T18:59:27Z</time>
      </trkpt>
      <trkpt lat="45.77279" lon="4.90098">
        <ele>227</ele>
        <time>2010-11-23T18:59:28Z</time>
      </trkpt>
      <trkpt lat="45.77282" lon="4.90095">
        <ele>226</ele>
        <time>2010-11-23T18:59:29Z</time>
      </trkpt>
      <trkpt lat="45.77285" lon="4.90093">
        <ele>227</ele>
        <time>2010-11-23T18:59:30Z</time>
      </trkpt>
      <trkpt lat="45.77289" lon="4.90093">
        <ele>227</ele>
        <time>2010-11-23T18:59:31Z</time>
      </trkpt>
      <trkpt lat="45.77291" lon="4.90092">
        <ele>226</ele>
        <time>2010-11-23T18:59:32Z</time>
      </trkpt>
      <trkpt lat="45.77294" lon="4.90089">
        <ele>226</ele>
        <time>2010-11-23T18:59:33Z</time>
      </trkpt>
      <trkpt lat="45.77296" lon="4.90088">
        <ele>227</ele>
        <time>2010-11-23T18:59:34Z</time>
      </trkpt>
      <trkpt lat="45.77298" lon="4.90086">
        <ele>227</ele>
        <time>2010-11-23T18:59:35Z</time>
      </trkpt>
      <trkpt lat="45.773" lon="4.90085">
        <ele>227</ele>
        <time>2010-11-23T18:59:36Z</time>
      </trkpt>
      <trkpt lat="45.77302" lon="4.90083">
        <ele>228</ele>
        <time>2010-11-23T18:59:37Z</time>
      </trkpt>
      <trkpt lat="45.77304" lon="4.90081">
        <ele>228</ele>
        <time>2010-11-23T18:59:38Z</time>
      </trkpt>
      <trkpt lat="45.77306" lon="4.90079">
        <ele>228</ele>
        <time>2010-11-23T18:59:39Z</time>
      </trkpt>
      <trkpt lat="45.77309" lon="4.90077">
        <ele>229</ele>
        <time>2010-11-23T18:59:40Z</time>
      </trkpt>
      <trkpt lat="45.7731" lon="4.90076">
        <ele>229</ele>
        <time>2010-11-23T18:59:41Z</time>
      </trkpt>
      <trkpt lat="45.77314" lon="4.90073">
        <ele>228</ele>
        <time>2010-11-23T18:59:42Z</time>
      </trkpt>
      <trkpt lat="45.77316" lon="4.90071">
        <ele>228</ele>
        <time>2010-11-23T18:59:43Z</time>
      </trkpt>
      <trkpt lat="45.77318" lon="4.90069">
        <ele>227</ele>
        <time>2010-11-23T18:59:44Z</time>
      </trkpt>
      <trkpt lat="45.77322" lon="4.90067">
        <ele>228</ele>
        <time>2010-11-23T18:59:46Z</time>
      </trkpt>
      <trkpt lat="45.77322" lon="4.90067">
        <ele>227.99510192871</ele>
        <time>2010-11-23T18:59:46Z</time>
      </trkpt>
      <trkpt lat="45.77324" lon="4.90065">
        <ele>227.50503540039</ele>
        <time>2010-11-23T18:59:47Z</time>
      </trkpt>
      <trkpt lat="45.77329" lon="4.90062">
        <ele>227</ele>
        <time>2010-11-23T18:59:48Z</time>
      </trkpt>
      <trkpt lat="45.77331" lon="4.90061">
        <ele>227</ele>
        <time>2010-11-23T18:59:49Z</time>
      </trkpt>
      <trkpt lat="45.77332" lon="4.90059">
        <ele>226</ele>
        <time>2010-11-23T18:59:50Z</time>
      </trkpt>
      <trkpt lat="45.77335" lon="4.90057">
        <ele>226</ele>
        <time>2010-11-23T18:59:51Z</time>
      </trkpt>
      <trkpt lat="45.77336" lon="4.90055">
        <ele>226</ele>
        <time>2010-11-23T18:59:52Z</time>
      </trkpt>
      <trkpt lat="45.77339" lon="4.90051">
        <ele>226</ele>
        <time>2010-11-23T18:59:53Z</time>
      </trkpt>
      <trkpt lat="45.7734" lon="4.9005">
        <ele>225</ele>
        <time>2010-11-23T18:59:54Z</time>
      </trkpt>
      <trkpt lat="45.77342" lon="4.90047">
        <ele>225</ele>
        <time>2010-11-23T18:59:55Z</time>
      </trkpt>
      <trkpt lat="45.77345" lon="4.90045">
        <ele>225</ele>
        <time>2010-11-23T18:59:56Z</time>
      </trkpt>
      <trkpt lat="45.77347" lon="4.90044">
        <ele>224</ele>
        <time>2010-11-23T18:59:57Z</time>
      </trkpt>
      <trkpt lat="45.77349" lon="4.90043">
        <ele>224</ele>
        <time>2010-11-23T18:59:58Z</time>
      </trkpt>
      <trkpt lat="45.77351" lon="4.90041">
        <ele>224</ele>
        <time>2010-11-23T18:59:59Z</time>
      </trkpt>
      <trkpt lat="45.77353" lon="4.90039">
        <ele>225</ele>
        <time>2010-11-23T19:00:00Z</time>
      </trkpt>
      <trkpt lat="45.77354" lon="4.90037">
        <ele>225</ele>
        <time>2010-11-23T19:00:01Z</time>
      </trkpt>
      <trkpt lat="45.77356" lon="4.90035">
        <ele>225</ele>
        <time>2010-11-23T19:00:02Z</time>
      </trkpt>
      <trkpt lat="45.77359" lon="4.90033">
        <ele>225</ele>
        <time>2010-11-23T19:00:03Z</time>
      </trkpt>
      <trkpt lat="45.7736" lon="4.90032">
        <ele>225</ele>
        <time>2010-11-23T19:00:04Z</time>
      </trkpt>
      <trkpt lat="45.77362" lon="4.90031">
        <ele>225</ele>
        <time>2010-11-23T19:00:05Z</time>
      </trkpt>
      <trkpt lat="45.77365" lon="4.90028">
        <ele>225</ele>
        <time>2010-11-23T19:00:06Z</time>
      </trkpt>
      <trkpt lat="45.77368" lon="4.90025">
        <ele>225</ele>
        <time>2010-11-23T19:00:07Z</time>
      </trkpt>
      <trkpt lat="45.77369" lon="4.90022">
        <ele>224</ele>
        <time>2010-11-23T19:00:09Z</time>
      </trkpt>
      <trkpt lat="45.7737" lon="4.90021">
        <ele>223.8966217041</ele>
        <time>2010-11-23T19:00:09Z</time>
      </trkpt>
      <trkpt lat="45.77374" lon="4.90017">
        <ele>223.21481323242</ele>
        <time>2010-11-23T19:00:10Z</time>
      </trkpt>
      <trkpt lat="45.77377" lon="4.90013">
        <ele>223</ele>
        <time>2010-11-23T19:00:11Z</time>
      </trkpt>
      <trkpt lat="45.7738" lon="4.90012">
        <ele>223</ele>
        <time>2010-11-23T19:00:12Z</time>
      </trkpt>
      <trkpt lat="45.77382" lon="4.90009">
        <ele>223</ele>
        <time>2010-11-23T19:00:13Z</time>
      </trkpt>
      <trkpt lat="45.77383" lon="4.90007">
        <ele>224</ele>
        <time>2010-11-23T19:00:14Z</time>
      </trkpt>
      <trkpt lat="45.77385" lon="4.90005">
        <ele>224</ele>
        <time>2010-11-23T19:00:15Z</time>
      </trkpt>
      <trkpt lat="45.77388" lon="4.90003">
        <ele>224</ele>
        <time>2010-11-23T19:00:16Z</time>
      </trkpt>
      <trkpt lat="45.7739" lon="4.9">
        <ele>224</ele>
        <time>2010-11-23T19:00:17Z</time>
      </trkpt>
      <trkpt lat="45.77392" lon="4.89999">
        <ele>224</ele>
        <time>2010-11-23T19:00:18Z</time>
      </trkpt>
      <trkpt lat="45.77395" lon="4.89999">
        <ele>224</ele>
        <time>2010-11-23T19:00:19Z</time>
      </trkpt>
      <trkpt lat="45.77397" lon="4.89997">
        <ele>223</ele>
        <time>2010-11-23T19:00:20Z</time>
      </trkpt>
      <trkpt lat="45.77399" lon="4.89996">
        <ele>223</ele>
        <time>2010-11-23T19:00:21Z</time>
      </trkpt>
      <trkpt lat="45.77401" lon="4.89993">
        <ele>223</ele>
        <time>2010-11-23T19:00:22Z</time>
      </trkpt>
      <trkpt lat="45.77403" lon="4.89991">
        <ele>222</ele>
        <time>2010-11-23T19:00:23Z</time>
      </trkpt>
      <trkpt lat="45.77406" lon="4.89988">
        <ele>221</ele>
        <time>2010-11-23T19:00:24Z</time>
      </trkpt>
      <trkpt lat="45.77408" lon="4.89985">
        <ele>221</ele>
        <time>2010-11-23T19:00:25Z</time>
      </trkpt>
      <trkpt lat="45.7741" lon="4.89983">
        <ele>221</ele>
        <time>2010-11-23T19:00:26Z</time>
      </trkpt>
      <trkpt lat="45.77412" lon="4.89982">
        <ele>221</ele>
        <time>2010-11-23T19:00:27Z</time>
      </trkpt>
      <trkpt lat="45.77415" lon="4.8998">
        <ele>220</ele>
        <time>2010-11-23T19:00:28Z</time>
      </trkpt>
      <trkpt lat="45.77417" lon="4.89977">
        <ele>221</ele>
        <time>2010-11-23T19:00:29Z</time>
      </trkpt>
      <trkpt lat="45.7742" lon="4.89975">
        <ele>221</ele>
        <time>2010-11-23T19:00:31Z</time>
      </trkpt>
      <trkpt lat="45.7742" lon="4.89975">
        <ele>221</ele>
        <time>2010-11-23T19:00:31Z</time>
      </trkpt>
      <trkpt lat="45.77422" lon="4.89974">
        <ele>221</ele>
        <time>2010-11-23T19:00:32Z</time>
      </trkpt>
      <trkpt lat="45.77428" lon="4.8997">
        <ele>220</ele>
        <time>2010-11-23T19:00:33Z</time>
      </trkpt>
      <trkpt lat="45.7743" lon="4.89968">
        <ele>220</ele>
        <time>2010-11-23T19:00:34Z</time>
      </trkpt>
      <trkpt lat="45.77433" lon="4.89967">
        <ele>221</ele>
        <time>2010-11-23T19:00:35Z</time>
      </trkpt>
      <trkpt lat="45.77434" lon="4.89965">
        <ele>221</ele>
        <time>2010-11-23T19:00:36Z</time>
      </trkpt>
      <trkpt lat="45.77436" lon="4.89963">
        <ele>221</ele>
        <time>2010-11-23T19:00:37Z</time>
      </trkpt>
      <trkpt lat="45.77438" lon="4.89961">
        <ele>220</ele>
        <time>2010-11-23T19:00:38Z</time>
      </trkpt>
      <trkpt lat="45.7744" lon="4.8996">
        <ele>220</ele>
        <time>2010-11-23T19:00:39Z</time>
      </trkpt>
      <trkpt lat="45.77443" lon="4.89959">
        <ele>220</ele>
        <time>2010-11-23T19:00:40Z</time>
      </trkpt>
      <trkpt lat="45.77447" lon="4.89958">
        <ele>221</ele>
        <time>2010-11-23T19:00:41Z</time>
      </trkpt>
      <trkpt lat="45.77448" lon="4.89955">
        <ele>221</ele>
        <time>2010-11-23T19:00:42Z</time>
      </trkpt>
      <trkpt lat="45.7745" lon="4.89954">
        <ele>220</ele>
        <time>2010-11-23T19:00:43Z</time>
      </trkpt>
      <trkpt lat="45.77452" lon="4.89951">
        <ele>220</ele>
        <time>2010-11-23T19:00:44Z</time>
      </trkpt>
      <trkpt lat="45.77456" lon="4.89949">
        <ele>220</ele>
        <time>2010-11-23T19:00:45Z</time>
      </trkpt>
      <trkpt lat="45.77457" lon="4.89948">
        <ele>220</ele>
        <time>2010-11-23T19:00:46Z</time>
      </trkpt>
      <trkpt lat="45.7746" lon="4.89946">
        <ele>221</ele>
        <time>2010-11-23T19:00:47Z</time>
      </trkpt>
      <trkpt lat="45.77462" lon="4.89944">
        <ele>221</ele>
        <time>2010-11-23T19:00:48Z</time>
      </trkpt>
      <trkpt lat="45.77465" lon="4.89944">
        <ele>221</ele>
        <time>2010-11-23T19:00:49Z</time>
      </trkpt>
      <trkpt lat="45.77466" lon="4.89941">
        <ele>222</ele>
        <time>2010-11-23T19:00:50Z</time>
      </trkpt>
      <trkpt lat="45.77468" lon="4.89941">
        <ele>222</ele>
        <time>2010-11-23T19:00:51Z</time>
      </trkpt>
      <trkpt lat="45.7747" lon="4.89939">
        <ele>222</ele>
        <time>2010-11-23T19:00:52Z</time>
      </trkpt>
      <trkpt lat="45.77473" lon="4.89937">
        <ele>222</ele>
        <time>2010-11-23T19:00:54Z</time>
      </trkpt>
      <trkpt lat="45.77474" lon="4.89937">
        <ele>222.09704589844</ele>
        <time>2010-11-23T19:00:54Z</time>
      </trkpt>
      <trkpt lat="45.77479" lon="4.89933">
        <ele>224.39559936523</ele>
        <time>2010-11-23T19:00:55Z</time>
      </trkpt>
      <trkpt lat="45.77483" lon="4.8993">
        <ele>225</ele>
        <time>2010-11-23T19:00:56Z</time>
      </trkpt>
      <trkpt lat="45.77485" lon="4.8993">
        <ele>227</ele>
        <time>2010-11-23T19:00:57Z</time>
      </trkpt>
      <trkpt lat="45.77487" lon="4.89929">
        <ele>229</ele>
        <time>2010-11-23T19:00:58Z</time>
      </trkpt>
      <trkpt lat="45.7749" lon="4.89927">
        <ele>229</ele>
        <time>2010-11-23T19:00:59Z</time>
      </trkpt>
      <trkpt lat="45.77491" lon="4.89926">
        <ele>230</ele>
        <time>2010-11-23T19:01:00Z</time>
      </trkpt>
      <trkpt lat="45.77494" lon="4.89924">
        <ele>230</ele>
        <time>2010-11-23T19:01:01Z</time>
      </trkpt>
      <trkpt lat="45.77496" lon="4.89923">
        <ele>229</ele>
        <time>2010-11-23T19:01:02Z</time>
      </trkpt>
      <trkpt lat="45.77499" lon="4.89922">
        <ele>230</ele>
        <time>2010-11-23T19:01:03Z</time>
      </trkpt>
      <trkpt lat="45.77501" lon="4.89921">
        <ele>230</ele>
        <time>2010-11-23T19:01:04Z</time>
      </trkpt>
      <trkpt lat="45.77504" lon="4.89919">
        <ele>230</ele>
        <time>2010-11-23T19:01:05Z</time>
      </trkpt>
      <trkpt lat="45.77506" lon="4.89918">
        <ele>230</ele>
        <time>2010-11-23T19:01:06Z</time>
      </trkpt>
      <trkpt lat="45.77508" lon="4.89916">
        <ele>230</ele>
        <time>2010-11-23T19:01:07Z</time>
      </trkpt>
      <trkpt lat="45.7751" lon="4.89914">
        <ele>229</ele>
        <time>2010-11-23T19:01:08Z</time>
      </trkpt>
      <trkpt lat="45.77513" lon="4.89912">
        <ele>229</ele>
        <time>2010-11-23T19:01:09Z</time>
      </trkpt>
      <trkpt lat="45.77515" lon="4.8991">
        <ele>229</ele>
        <time>2010-11-23T19:01:10Z</time>
      </trkpt>
      <trkpt lat="45.77517" lon="4.89909">
        <ele>230</ele>
        <time>2010-11-23T19:01:11Z</time>
      </trkpt>
      <trkpt lat="45.77519" lon="4.89907">
        <ele>230</ele>
        <time>2010-11-23T19:01:12Z</time>
      </trkpt>
      <trkpt lat="45.77521" lon="4.89905">
        <ele>230</ele>
        <time>2010-11-23T19:01:13Z</time>
      </trkpt>
      <trkpt lat="45.77523" lon="4.89903">
        <ele>229</ele>
        <time>2010-11-23T19:01:14Z</time>
      </trkpt>
      <trkpt lat="45.77525" lon="4.89901">
        <ele>229</ele>
        <time>2010-11-23T19:01:16Z</time>
      </trkpt>
      <trkpt lat="45.77525" lon="4.89901">
        <ele>229</ele>
        <time>2010-11-23T19:01:16Z</time>
      </trkpt>
      <trkpt lat="45.77528" lon="4.89899">
        <ele>228.25526428223</ele>
        <time>2010-11-23T19:01:17Z</time>
      </trkpt>
      <trkpt lat="45.7753" lon="4.89897">
        <ele>228</ele>
        <time>2010-11-23T19:01:18Z</time>
      </trkpt>
      <trkpt lat="45.77533" lon="4.89895">
        <ele>227</ele>
        <time>2010-11-23T19:01:19Z</time>
      </trkpt>
      <trkpt lat="45.77535" lon="4.89892">
        <ele>227</ele>
        <time>2010-11-23T19:01:20Z</time>
      </trkpt>
      <trkpt lat="45.77537" lon="4.8989">
        <ele>228</ele>
        <time>2010-11-23T19:01:21Z</time>
      </trkpt>
      <trkpt lat="45.77538" lon="4.89889">
        <ele>228</ele>
        <time>2010-11-23T19:01:22Z</time>
      </trkpt>
      <trkpt lat="45.77541" lon="4.89888">
        <ele>228</ele>
        <time>2010-11-23T19:01:23Z</time>
      </trkpt>
      <trkpt lat="45.77543" lon="4.89887">
        <ele>228</ele>
        <time>2010-11-23T19:01:24Z</time>
      </trkpt>
      <trkpt lat="45.77545" lon="4.89886">
        <ele>228</ele>
        <time>2010-11-23T19:01:25Z</time>
      </trkpt>
      <trkpt lat="45.77546" lon="4.89885">
        <ele>228</ele>
        <time>2010-11-23T19:01:26Z</time>
      </trkpt>
      <trkpt lat="45.77549" lon="4.89882">
        <ele>228</ele>
        <time>2010-11-23T19:01:27Z</time>
      </trkpt>
      <trkpt lat="45.77551" lon="4.8988">
        <ele>229</ele>
        <time>2010-11-23T19:01:28Z</time>
      </trkpt>
      <trkpt lat="45.77553" lon="4.89878">
        <ele>228</ele>
        <time>2010-11-23T19:01:29Z</time>
      </trkpt>
      <trkpt lat="45.77556" lon="4.89875">
        <ele>228</ele>
        <time>2010-11-23T19:01:30Z</time>
      </trkpt>
      <trkpt lat="45.77558" lon="4.89873">
        <ele>228</ele>
        <time>2010-11-23T19:01:31Z</time>
      </trkpt>
      <trkpt lat="45.7756" lon="4.89871">
        <ele>228</ele>
        <time>2010-11-23T19:01:32Z</time>
      </trkpt>
      <trkpt lat="45.77564" lon="4.89868">
        <ele>228</ele>
        <time>2010-11-23T19:01:33Z</time>
      </trkpt>
      <trkpt lat="45.77567" lon="4.89867">
        <ele>228</ele>
        <time>2010-11-23T19:01:34Z</time>
      </trkpt>
      <trkpt lat="45.7757" lon="4.89865">
        <ele>228</ele>
        <time>2010-11-23T19:01:35Z</time>
      </trkpt>
      <trkpt lat="45.77573" lon="4.89863">
        <ele>229</ele>
        <time>2010-11-23T19:01:36Z</time>
      </trkpt>
      <trkpt lat="45.77574" lon="4.89861">
        <ele>229</ele>
        <time>2010-11-23T19:01:37Z</time>
      </trkpt>
      <trkpt lat="45.77576" lon="4.8986">
        <ele>229</ele>
        <time>2010-11-23T19:01:39Z</time>
      </trkpt>
      <trkpt lat="45.77576" lon="4.8986">
        <ele>229</ele>
        <time>2010-11-23T19:01:39Z</time>
      </trkpt>
      <trkpt lat="45.77581" lon="4.89858">
        <ele>229</ele>
        <time>2010-11-23T19:01:40Z</time>
      </trkpt>
      <trkpt lat="45.77583" lon="4.89855">
        <ele>229</ele>
        <time>2010-11-23T19:01:41Z</time>
      </trkpt>
      <trkpt lat="45.77585" lon="4.89853">
        <ele>229</ele>
        <time>2010-11-23T19:01:42Z</time>
      </trkpt>
      <trkpt lat="45.77586" lon="4.89851">
        <ele>229</ele>
        <time>2010-11-23T19:01:43Z</time>
      </trkpt>
      <trkpt lat="45.77588" lon="4.89849">
        <ele>228</ele>
        <time>2010-11-23T19:01:44Z</time>
      </trkpt>
      <trkpt lat="45.7759" lon="4.89847">
        <ele>227</ele>
        <time>2010-11-23T19:01:45Z</time>
      </trkpt>
      <trkpt lat="45.77592" lon="4.89845">
        <ele>226</ele>
        <time>2010-11-23T19:01:46Z</time>
      </trkpt>
      <trkpt lat="45.77594" lon="4.89843">
        <ele>227</ele>
        <time>2010-11-23T19:01:47Z</time>
      </trkpt>
      <trkpt lat="45.77597" lon="4.89841">
        <ele>227</ele>
        <time>2010-11-23T19:01:48Z</time>
      </trkpt>
      <trkpt lat="45.776" lon="4.89838">
        <ele>227</ele>
        <time>2010-11-23T19:01:49Z</time>
      </trkpt>
      <trkpt lat="45.77601" lon="4.89836">
        <ele>226</ele>
        <time>2010-11-23T19:01:50Z</time>
      </trkpt>
      <trkpt lat="45.77603" lon="4.89834">
        <ele>227</ele>
        <time>2010-11-23T19:01:51Z</time>
      </trkpt>
      <trkpt lat="45.77606" lon="4.89833">
        <ele>227</ele>
        <time>2010-11-23T19:01:52Z</time>
      </trkpt>
      <trkpt lat="45.77609" lon="4.8983">
        <ele>228</ele>
        <time>2010-11-23T19:01:53Z</time>
      </trkpt>
      <trkpt lat="45.7761" lon="4.89829">
        <ele>229</ele>
        <time>2010-11-23T19:01:54Z</time>
      </trkpt>
      <trkpt lat="45.77612" lon="4.89828">
        <ele>229</ele>
        <time>2010-11-23T19:01:55Z</time>
      </trkpt>
      <trkpt lat="45.77613" lon="4.89826">
        <ele>228</ele>
        <time>2010-11-23T19:01:56Z</time>
      </trkpt>
      <trkpt lat="45.77615" lon="4.89824">
        <ele>228</ele>
        <time>2010-11-23T19:01:57Z</time>
      </trkpt>
      <trkpt lat="45.77618" lon="4.89822">
        <ele>228</ele>
        <time>2010-11-23T19:01:58Z</time>
      </trkpt>
      <trkpt lat="45.7762" lon="4.89819">
        <ele>228</ele>
        <time>2010-11-23T19:01:59Z</time>
      </trkpt>
      <trkpt lat="45.77623" lon="4.89817">
        <ele>228</ele>
        <time>2010-11-23T19:02:02Z</time>
      </trkpt>
      <trkpt lat="45.77623" lon="4.89817">
        <ele>228</ele>
        <time>2010-11-23T19:02:02Z</time>
      </trkpt>
      <trkpt lat="45.77624" lon="4.89816">
        <ele>228.13381958008</ele>
        <time>2010-11-23T19:02:02Z</time>
      </trkpt>
      <trkpt lat="45.77629" lon="4.89812">
        <ele>228.06640625</ele>
        <time>2010-11-23T19:02:03Z</time>
      </trkpt>
      <trkpt lat="45.77635" lon="4.89806">
        <ele>228.00903320312</ele>
        <time>2010-11-23T19:02:04Z</time>
      </trkpt>
      <trkpt lat="45.77638" lon="4.89804">
        <ele>228</ele>
        <time>2010-11-23T19:02:05Z</time>
      </trkpt>
      <trkpt lat="45.7764" lon="4.89802">
        <ele>228</ele>
        <time>2010-11-23T19:02:06Z</time>
      </trkpt>
      <trkpt lat="45.77641" lon="4.898">
        <ele>228</ele>
        <time>2010-11-23T19:02:07Z</time>
      </trkpt>
      <trkpt lat="45.77644" lon="4.89798">
        <ele>227</ele>
        <time>2010-11-23T19:02:08Z</time>
      </trkpt>
      <trkpt lat="45.77646" lon="4.89797">
        <ele>227</ele>
        <time>2010-11-23T19:02:09Z</time>
      </trkpt>
      <trkpt lat="45.77649" lon="4.89794">
        <ele>227</ele>
        <time>2010-11-23T19:02:10Z</time>
      </trkpt>
      <trkpt lat="45.7765" lon="4.89793">
        <ele>226</ele>
        <time>2010-11-23T19:02:11Z</time>
      </trkpt>
      <trkpt lat="45.77652" lon="4.89791">
        <ele>226</ele>
        <time>2010-11-23T19:02:12Z</time>
      </trkpt>
      <trkpt lat="45.77654" lon="4.8979">
        <ele>226</ele>
        <time>2010-11-23T19:02:13Z</time>
      </trkpt>
      <trkpt lat="45.77656" lon="4.89787">
        <ele>225</ele>
        <time>2010-11-23T19:02:14Z</time>
      </trkpt>
      <trkpt lat="45.77659" lon="4.89785">
        <ele>225</ele>
        <time>2010-11-23T19:02:15Z</time>
      </trkpt>
      <trkpt lat="45.7766" lon="4.89782">
        <ele>225</ele>
        <time>2010-11-23T19:02:16Z</time>
      </trkpt>
      <trkpt lat="45.77662" lon="4.8978">
        <ele>225</ele>
        <time>2010-11-23T19:02:17Z</time>
      </trkpt>
      <trkpt lat="45.77664" lon="4.89779">
        <ele>224</ele>
        <time>2010-11-23T19:02:18Z</time>
      </trkpt>
      <trkpt lat="45.77667" lon="4.89778">
        <ele>224</ele>
        <time>2010-11-23T19:02:19Z</time>
      </trkpt>
      <trkpt lat="45.77669" lon="4.89778">
        <ele>224</ele>
        <time>2010-11-23T19:02:20Z</time>
      </trkpt>
      <trkpt lat="45.77671" lon="4.89776">
        <ele>225</ele>
        <time>2010-11-23T19:02:21Z</time>
      </trkpt>
      <trkpt lat="45.77672" lon="4.89774">
        <ele>225</ele>
        <time>2010-11-23T19:02:22Z</time>
      </trkpt>
      <trkpt lat="45.77675" lon="4.89772">
        <ele>226</ele>
        <time>2010-11-23T19:02:24Z</time>
      </trkpt>
      <trkpt lat="45.77675" lon="4.89772">
        <ele>225.9330291748</ele>
        <time>2010-11-23T19:02:24Z</time>
      </trkpt>
      <trkpt lat="45.77678" lon="4.89768">
        <ele>225.0279083252</ele>
        <time>2010-11-23T19:02:25Z</time>
      </trkpt>
      <trkpt lat="45.77681" lon="4.89764">
        <ele>225</ele>
        <time>2010-11-23T19:02:26Z</time>
      </trkpt>
      <trkpt lat="45.77684" lon="4.89763">
        <ele>225</ele>
        <time>2010-11-23T19:02:27Z</time>
      </trkpt>
      <trkpt lat="45.77688" lon="4.89761">
        <ele>224</ele>
        <time>2010-11-23T19:02:28Z</time>
      </trkpt>
      <trkpt lat="45.7769" lon="4.89759">
        <ele>225</ele>
        <time>2010-11-23T19:02:29Z</time>
      </trkpt>
      <trkpt lat="45.77692" lon="4.89756">
        <ele>224</ele>
        <time>2010-11-23T19:02:30Z</time>
      </trkpt>
      <trkpt lat="45.77694" lon="4.89754">
        <ele>223</ele>
        <time>2010-11-23T19:02:31Z</time>
      </trkpt>
      <trkpt lat="45.77697" lon="4.89752">
        <ele>223</ele>
        <time>2010-11-23T19:02:32Z</time>
      </trkpt>
      <trkpt lat="45.77699" lon="4.8975">
        <ele>223</ele>
        <time>2010-11-23T19:02:33Z</time>
      </trkpt>
      <trkpt lat="45.77701" lon="4.89748">
        <ele>223</ele>
        <time>2010-11-23T19:02:34Z</time>
      </trkpt>
      <trkpt lat="45.77703" lon="4.89746">
        <ele>223</ele>
        <time>2010-11-23T19:02:35Z</time>
      </trkpt>
      <trkpt lat="45.77705" lon="4.89744">
        <ele>223</ele>
        <time>2010-11-23T19:02:36Z</time>
      </trkpt>
      <trkpt lat="45.77706" lon="4.89742">
        <ele>223</ele>
        <time>2010-11-23T19:02:37Z</time>
      </trkpt>
      <trkpt lat="45.77708" lon="4.8974">
        <ele>223</ele>
        <time>2010-11-23T19:02:38Z</time>
      </trkpt>
      <trkpt lat="45.77711" lon="4.89738">
        <ele>223</ele>
        <time>2010-11-23T19:02:39Z</time>
      </trkpt>
      <trkpt lat="45.77713" lon="4.89736">
        <ele>223</ele>
        <time>2010-11-23T19:02:40Z</time>
      </trkpt>
      <trkpt lat="45.77714" lon="4.89734">
        <ele>223</ele>
        <time>2010-11-23T19:02:41Z</time>
      </trkpt>
      <trkpt lat="45.77716" lon="4.89733">
        <ele>222</ele>
        <time>2010-11-23T19:02:42Z</time>
      </trkpt>
      <trkpt lat="45.77719" lon="4.89732">
        <ele>221</ele>
        <time>2010-11-23T19:02:43Z</time>
      </trkpt>
      <trkpt lat="45.77722" lon="4.89732">
        <ele>221</ele>
        <time>2010-11-23T19:02:44Z</time>
      </trkpt>
      <trkpt lat="45.77726" lon="4.89731">
        <ele>221</ele>
        <time>2010-11-23T19:02:46Z</time>
      </trkpt>
      <trkpt lat="45.77726" lon="4.89731">
        <ele>221</ele>
        <time>2010-11-23T19:02:46Z</time>
      </trkpt>
      <trkpt lat="45.77729" lon="4.89728">
        <ele>221</ele>
        <time>2010-11-23T19:02:47Z</time>
      </trkpt>
      <trkpt lat="45.77733" lon="4.89725">
        <ele>221</ele>
        <time>2010-11-23T19:02:48Z</time>
      </trkpt>
      <trkpt lat="45.77735" lon="4.89724">
        <ele>222</ele>
        <time>2010-11-23T19:02:49Z</time>
      </trkpt>
      <trkpt lat="45.77737" lon="4.89722">
        <ele>222</ele>
        <time>2010-11-23T19:02:50Z</time>
      </trkpt>
      <trkpt lat="45.7774" lon="4.89721">
        <ele>224</ele>
        <time>2010-11-23T19:02:51Z</time>
      </trkpt>
      <trkpt lat="45.77743" lon="4.8972">
        <ele>224</ele>
        <time>2010-11-23T19:02:52Z</time>
      </trkpt>
      <trkpt lat="45.77744" lon="4.89718">
        <ele>224</ele>
        <time>2010-11-23T19:02:53Z</time>
      </trkpt>
      <trkpt lat="45.77747" lon="4.89716">
        <ele>223</ele>
        <time>2010-11-23T19:02:54Z</time>
      </trkpt>
      <trkpt lat="45.77749" lon="4.89715">
        <ele>224</ele>
        <time>2010-11-23T19:02:55Z</time>
      </trkpt>
      <trkpt lat="45.7775" lon="4.89713">
        <ele>224</ele>
        <time>2010-11-23T19:02:56Z</time>
      </trkpt>
      <trkpt lat="45.77755" lon="4.89711">
        <ele>224</ele>
        <time>2010-11-23T19:02:57Z</time>
      </trkpt>
      <trkpt lat="45.77758" lon="4.89709">
        <ele>224</ele>
        <time>2010-11-23T19:02:58Z</time>
      </trkpt>
      <trkpt lat="45.7776" lon="4.89707">
        <ele>225</ele>
        <time>2010-11-23T19:02:59Z</time>
      </trkpt>
      <trkpt lat="45.77762" lon="4.89704">
        <ele>225</ele>
        <time>2010-11-23T19:03:00Z</time>
      </trkpt>
      <trkpt lat="45.77764" lon="4.89702">
        <ele>225</ele>
        <time>2010-11-23T19:03:01Z</time>
      </trkpt>
      <trkpt lat="45.77765" lon="4.89701">
        <ele>225</ele>
        <time>2010-11-23T19:03:02Z</time>
      </trkpt>
      <trkpt lat="45.77767" lon="4.89698">
        <ele>225</ele>
        <time>2010-11-23T19:03:03Z</time>
      </trkpt>
      <trkpt lat="45.77769" lon="4.89696">
        <ele>225</ele>
        <time>2010-11-23T19:03:04Z</time>
      </trkpt>
      <trkpt lat="45.77771" lon="4.89693">
        <ele>225</ele>
        <time>2010-11-23T19:03:05Z</time>
      </trkpt>
      <trkpt lat="45.77772" lon="4.8969">
        <ele>225</ele>
        <time>2010-11-23T19:03:06Z</time>
      </trkpt>
      <trkpt lat="45.77774" lon="4.89687">
        <ele>225</ele>
        <time>2010-11-23T19:03:07Z</time>
      </trkpt>
      <trkpt lat="45.77777" lon="4.89684">
        <ele>225</ele>
        <time>2010-11-23T19:03:09Z</time>
      </trkpt>
      <trkpt lat="45.77777" lon="4.89684">
        <ele>224.89088439941</ele>
        <time>2010-11-23T19:03:09Z</time>
      </trkpt>
      <trkpt lat="45.7778" lon="4.89681">
        <ele>224</ele>
        <time>2010-11-23T19:03:10Z</time>
      </trkpt>
      <trkpt lat="45.77782" lon="4.89679">
        <ele>224</ele>
        <time>2010-11-23T19:03:11Z</time>
      </trkpt>
      <trkpt lat="45.77784" lon="4.89676">
        <ele>224</ele>
        <time>2010-11-23T19:03:12Z</time>
      </trkpt>
      <trkpt lat="45.77786" lon="4.89674">
        <ele>223</ele>
        <time>2010-11-23T19:03:13Z</time>
      </trkpt>
      <trkpt lat="45.77789" lon="4.89672">
        <ele>223</ele>
        <time>2010-11-23T19:03:14Z</time>
      </trkpt>
      <trkpt lat="45.77793" lon="4.89671">
        <ele>224</ele>
        <time>2010-11-23T19:03:15Z</time>
      </trkpt>
      <trkpt lat="45.77795" lon="4.89668">
        <ele>224</ele>
        <time>2010-11-23T19:03:16Z</time>
      </trkpt>
      <trkpt lat="45.77798" lon="4.89666">
        <ele>225</ele>
        <time>2010-11-23T19:03:17Z</time>
      </trkpt>
      <trkpt lat="45.77801" lon="4.89665">
        <ele>224</ele>
        <time>2010-11-23T19:03:18Z</time>
      </trkpt>
      <trkpt lat="45.77802" lon="4.89662">
        <ele>224</ele>
        <time>2010-11-23T19:03:19Z</time>
      </trkpt>
      <trkpt lat="45.77804" lon="4.89661">
        <ele>224</ele>
        <time>2010-11-23T19:03:20Z</time>
      </trkpt>
      <trkpt lat="45.77807" lon="4.89659">
        <ele>224</ele>
        <time>2010-11-23T19:03:21Z</time>
      </trkpt>
      <trkpt lat="45.77809" lon="4.89657">
        <ele>224</ele>
        <time>2010-11-23T19:03:22Z</time>
      </trkpt>
      <trkpt lat="45.77811" lon="4.89655">
        <ele>224</ele>
        <time>2010-11-23T19:03:23Z</time>
      </trkpt>
      <trkpt lat="45.77814" lon="4.89654">
        <ele>224</ele>
        <time>2010-11-23T19:03:24Z</time>
      </trkpt>
      <trkpt lat="45.77814" lon="4.89651">
        <ele>223</ele>
        <time>2010-11-23T19:03:25Z</time>
      </trkpt>
      <trkpt lat="45.77817" lon="4.89649">
        <ele>223</ele>
        <time>2010-11-23T19:03:26Z</time>
      </trkpt>
      <trkpt lat="45.77818" lon="4.89647">
        <ele>222</ele>
        <time>2010-11-23T19:03:27Z</time>
      </trkpt>
      <trkpt lat="45.7782" lon="4.89645">
        <ele>222</ele>
        <time>2010-11-23T19:03:28Z</time>
      </trkpt>
      <trkpt lat="45.77823" lon="4.89644">
        <ele>223</ele>
        <time>2010-11-23T19:03:29Z</time>
      </trkpt>
      <trkpt lat="45.77827" lon="4.89643">
        <ele>223</ele>
        <time>2010-11-23T19:03:31Z</time>
      </trkpt>
      <trkpt lat="45.77827" lon="4.89643">
        <ele>223</ele>
        <time>2010-11-23T19:03:31Z</time>
      </trkpt>
      <trkpt lat="45.77829" lon="4.89641">
        <ele>223</ele>
        <time>2010-11-23T19:03:32Z</time>
      </trkpt>
      <trkpt lat="45.77833" lon="4.89637">
        <ele>223</ele>
        <time>2010-11-23T19:03:33Z</time>
      </trkpt>
      <trkpt lat="45.77837" lon="4.89635">
        <ele>223</ele>
        <time>2010-11-23T19:03:34Z</time>
      </trkpt>
      <trkpt lat="45.77838" lon="4.89633">
        <ele>223</ele>
        <time>2010-11-23T19:03:35Z</time>
      </trkpt>
      <trkpt lat="45.7784" lon="4.89631">
        <ele>222</ele>
        <time>2010-11-23T19:03:36Z</time>
      </trkpt>
      <trkpt lat="45.77843" lon="4.89629">
        <ele>222</ele>
        <time>2010-11-23T19:03:37Z</time>
      </trkpt>
      <trkpt lat="45.77845" lon="4.89627">
        <ele>222</ele>
        <time>2010-11-23T19:03:38Z</time>
      </trkpt>
      <trkpt lat="45.77847" lon="4.89625">
        <ele>223</ele>
        <time>2010-11-23T19:03:39Z</time>
      </trkpt>
      <trkpt lat="45.77849" lon="4.89622">
        <ele>223</ele>
        <time>2010-11-23T19:03:40Z</time>
      </trkpt>
      <trkpt lat="45.77851" lon="4.89621">
        <ele>222</ele>
        <time>2010-11-23T19:03:41Z</time>
      </trkpt>
      <trkpt lat="45.77854" lon="4.89619">
        <ele>221</ele>
        <time>2010-11-23T19:03:42Z</time>
      </trkpt>
      <trkpt lat="45.77856" lon="4.89618">
        <ele>220</ele>
        <time>2010-11-23T19:03:43Z</time>
      </trkpt>
      <trkpt lat="45.77858" lon="4.89616">
        <ele>220</ele>
        <time>2010-11-23T19:03:44Z</time>
      </trkpt>
      <trkpt lat="45.7786" lon="4.89614">
        <ele>220</ele>
        <time>2010-11-23T19:03:45Z</time>
      </trkpt>
      <trkpt lat="45.77862" lon="4.89612">
        <ele>220</ele>
        <time>2010-11-23T19:03:46Z</time>
      </trkpt>
      <trkpt lat="45.77866" lon="4.8961">
        <ele>220</ele>
        <time>2010-11-23T19:03:47Z</time>
      </trkpt>
      <trkpt lat="45.77868" lon="4.89608">
        <ele>219</ele>
        <time>2010-11-23T19:03:48Z</time>
      </trkpt>
      <trkpt lat="45.7787" lon="4.89606">
        <ele>220</ele>
        <time>2010-11-23T19:03:49Z</time>
      </trkpt>
      <trkpt lat="45.77873" lon="4.89605">
        <ele>220</ele>
        <time>2010-11-23T19:03:50Z</time>
      </trkpt>
      <trkpt lat="45.77875" lon="4.89603">
        <ele>219</ele>
        <time>2010-11-23T19:03:51Z</time>
      </trkpt>
      <trkpt lat="45.77878" lon="4.89601">
        <ele>220</ele>
        <time>2010-11-23T19:03:52Z</time>
      </trkpt>
      <trkpt lat="45.7788" lon="4.89599">
        <ele>220</ele>
        <time>2010-11-23T19:03:54Z</time>
      </trkpt>
      <trkpt lat="45.7788" lon="4.89599">
        <ele>220</ele>
        <time>2010-11-23T19:03:54Z</time>
      </trkpt>
      <trkpt lat="45.77884" lon="4.89595">
        <ele>220</ele>
        <time>2010-11-23T19:03:55Z</time>
      </trkpt>
      <trkpt lat="45.77887" lon="4.89592">
        <ele>220</ele>
        <time>2010-11-23T19:03:56Z</time>
      </trkpt>
      <trkpt lat="45.77889" lon="4.8959">
        <ele>220</ele>
        <time>2010-11-23T19:03:57Z</time>
      </trkpt>
      <trkpt lat="45.77892" lon="4.89588">
        <ele>220</ele>
        <time>2010-11-23T19:03:58Z</time>
      </trkpt>
      <trkpt lat="45.77896" lon="4.89587">
        <ele>221</ele>
        <time>2010-11-23T19:03:59Z</time>
      </trkpt>
      <trkpt lat="45.77898" lon="4.89585">
        <ele>221</ele>
        <time>2010-11-23T19:04:00Z</time>
      </trkpt>
      <trkpt lat="45.77901" lon="4.89584">
        <ele>221</ele>
        <time>2010-11-23T19:04:01Z</time>
      </trkpt>
      <trkpt lat="45.77903" lon="4.89582">
        <ele>221</ele>
        <time>2010-11-23T19:04:02Z</time>
      </trkpt>
      <trkpt lat="45.77905" lon="4.89581">
        <ele>222</ele>
        <time>2010-11-23T19:04:03Z</time>
      </trkpt>
      <trkpt lat="45.77907" lon="4.89579">
        <ele>222</ele>
        <time>2010-11-23T19:04:04Z</time>
      </trkpt>
      <trkpt lat="45.7791" lon="4.89578">
        <ele>222</ele>
        <time>2010-11-23T19:04:05Z</time>
      </trkpt>
      <trkpt lat="45.77913" lon="4.89577">
        <ele>222</ele>
        <time>2010-11-23T19:04:06Z</time>
      </trkpt>
      <trkpt lat="45.77915" lon="4.89576">
        <ele>222</ele>
        <time>2010-11-23T19:04:07Z</time>
      </trkpt>
      <trkpt lat="45.77918" lon="4.89573">
        <ele>223</ele>
        <time>2010-11-23T19:04:08Z</time>
      </trkpt>
      <trkpt lat="45.77921" lon="4.89571">
        <ele>223</ele>
        <time>2010-11-23T19:04:09Z</time>
      </trkpt>
      <trkpt lat="45.77924" lon="4.89569">
        <ele>224</ele>
        <time>2010-11-23T19:04:10Z</time>
      </trkpt>
      <trkpt lat="45.77926" lon="4.89566">
        <ele>224</ele>
        <time>2010-11-23T19:04:11Z</time>
      </trkpt>
      <trkpt lat="45.77928" lon="4.89564">
        <ele>224</ele>
        <time>2010-11-23T19:04:12Z</time>
      </trkpt>
      <trkpt lat="45.77931" lon="4.89562">
        <ele>224</ele>
        <time>2010-11-23T19:04:13Z</time>
      </trkpt>
      <trkpt lat="45.77933" lon="4.89559">
        <ele>225</ele>
        <time>2010-11-23T19:04:14Z</time>
      </trkpt>
      <trkpt lat="45.77935" lon="4.89557">
        <ele>224</ele>
        <time>2010-11-23T19:04:16Z</time>
      </trkpt>
      <trkpt lat="45.77935" lon="4.89557">
        <ele>224</ele>
        <time>2010-11-23T19:04:16Z</time>
      </trkpt>
      <trkpt lat="45.77937" lon="4.89555">
        <ele>224</ele>
        <time>2010-11-23T19:04:17Z</time>
      </trkpt>
      <trkpt lat="45.77942" lon="4.89551">
        <ele>224</ele>
        <time>2010-11-23T19:04:18Z</time>
      </trkpt>
      <trkpt lat="45.77945" lon="4.89549">
        <ele>225</ele>
        <time>2010-11-23T19:04:19Z</time>
      </trkpt>
      <trkpt lat="45.77948" lon="4.89548">
        <ele>225</ele>
        <time>2010-11-23T19:04:20Z</time>
      </trkpt>
      <trkpt lat="45.7795" lon="4.89546">
        <ele>225</ele>
        <time>2010-11-23T19:04:21Z</time>
      </trkpt>
      <trkpt lat="45.77953" lon="4.89544">
        <ele>225</ele>
        <time>2010-11-23T19:04:22Z</time>
      </trkpt>
      <trkpt lat="45.77955" lon="4.89541">
        <ele>225</ele>
        <time>2010-11-23T19:04:23Z</time>
      </trkpt>
      <trkpt lat="45.77957" lon="4.89539">
        <ele>224</ele>
        <time>2010-11-23T19:04:24Z</time>
      </trkpt>
      <trkpt lat="45.77959" lon="4.89537">
        <ele>224</ele>
        <time>2010-11-23T19:04:25Z</time>
      </trkpt>
      <trkpt lat="45.77961" lon="4.89535">
        <ele>225</ele>
        <time>2010-11-23T19:04:26Z</time>
      </trkpt>
      <trkpt lat="45.77963" lon="4.89533">
        <ele>225</ele>
        <time>2010-11-23T19:04:27Z</time>
      </trkpt>
      <trkpt lat="45.77966" lon="4.89532">
        <ele>225</ele>
        <time>2010-11-23T19:04:28Z</time>
      </trkpt>
      <trkpt lat="45.77968" lon="4.8953">
        <ele>225</ele>
        <time>2010-11-23T19:04:29Z</time>
      </trkpt>
      <trkpt lat="45.7797" lon="4.89527">
        <ele>225</ele>
        <time>2010-11-23T19:04:30Z</time>
      </trkpt>
      <trkpt lat="45.77972" lon="4.89526">
        <ele>224</ele>
        <time>2010-11-23T19:04:31Z</time>
      </trkpt>
      <trkpt lat="45.77974" lon="4.89524">
        <ele>224</ele>
        <time>2010-11-23T19:04:32Z</time>
      </trkpt>
      <trkpt lat="45.77977" lon="4.89521">
        <ele>224</ele>
        <time>2010-11-23T19:04:33Z</time>
      </trkpt>
      <trkpt lat="45.77979" lon="4.8952">
        <ele>224</ele>
        <time>2010-11-23T19:04:34Z</time>
      </trkpt>
      <trkpt lat="45.77981" lon="4.89517">
        <ele>224</ele>
        <time>2010-11-23T19:04:35Z</time>
      </trkpt>
      <trkpt lat="45.77983" lon="4.89515">
        <ele>223</ele>
        <time>2010-11-23T19:04:36Z</time>
      </trkpt>
      <trkpt lat="45.77985" lon="4.89514">
        <ele>223</ele>
        <time>2010-11-23T19:04:37Z</time>
      </trkpt>
      <trkpt lat="45.77988" lon="4.89512">
        <ele>223</ele>
        <time>2010-11-23T19:04:39Z</time>
      </trkpt>
      <trkpt lat="45.77988" lon="4.89512">
        <ele>223</ele>
        <time>2010-11-23T19:04:39Z</time>
      </trkpt>
      <trkpt lat="45.77992" lon="4.89509">
        <ele>223</ele>
        <time>2010-11-23T19:04:40Z</time>
      </trkpt>
      <trkpt lat="45.77995" lon="4.89507">
        <ele>222</ele>
        <time>2010-11-23T19:04:41Z</time>
      </trkpt>
      <trkpt lat="45.77998" lon="4.89505">
        <ele>222</ele>
        <time>2010-11-23T19:04:42Z</time>
      </trkpt>
      <trkpt lat="45.78" lon="4.89504">
        <ele>222</ele>
        <time>2010-11-23T19:04:43Z</time>
      </trkpt>
      <trkpt lat="45.78002" lon="4.89502">
        <ele>222</ele>
        <time>2010-11-23T19:04:44Z</time>
      </trkpt>
      <trkpt lat="45.78005" lon="4.89499">
        <ele>222</ele>
        <time>2010-11-23T19:04:45Z</time>
      </trkpt>
      <trkpt lat="45.78007" lon="4.89498">
        <ele>222</ele>
        <time>2010-11-23T19:04:46Z</time>
      </trkpt>
      <trkpt lat="45.78009" lon="4.89496">
        <ele>222</ele>
        <time>2010-11-23T19:04:47Z</time>
      </trkpt>
      <trkpt lat="45.78012" lon="4.89493">
        <ele>222</ele>
        <time>2010-11-23T19:04:48Z</time>
      </trkpt>
      <trkpt lat="45.78013" lon="4.8949">
        <ele>222</ele>
        <time>2010-11-23T19:04:49Z</time>
      </trkpt>
      <trkpt lat="45.78016" lon="4.89489">
        <ele>222</ele>
        <time>2010-11-23T19:04:50Z</time>
      </trkpt>
      <trkpt lat="45.78018" lon="4.89487">
        <ele>221</ele>
        <time>2010-11-23T19:04:51Z</time>
      </trkpt>
      <trkpt lat="45.78022" lon="4.89485">
        <ele>221</ele>
        <time>2010-11-23T19:04:52Z</time>
      </trkpt>
      <trkpt lat="45.78024" lon="4.89484">
        <ele>220</ele>
        <time>2010-11-23T19:04:53Z</time>
      </trkpt>
      <trkpt lat="45.78027" lon="4.89482">
        <ele>220</ele>
        <time>2010-11-23T19:04:54Z</time>
      </trkpt>
      <trkpt lat="45.78029" lon="4.89481">
        <ele>220</ele>
        <time>2010-11-23T19:04:55Z</time>
      </trkpt>
      <trkpt lat="45.78031" lon="4.89478">
        <ele>220</ele>
        <time>2010-11-23T19:04:56Z</time>
      </trkpt>
      <trkpt lat="45.78034" lon="4.89477">
        <ele>220</ele>
        <time>2010-11-23T19:04:57Z</time>
      </trkpt>
      <trkpt lat="45.78037" lon="4.89475">
        <ele>220</ele>
        <time>2010-11-23T19:04:58Z</time>
      </trkpt>
      <trkpt lat="45.78039" lon="4.89473">
        <ele>220</ele>
        <time>2010-11-23T19:04:59Z</time>
      </trkpt>
      <trkpt lat="45.78042" lon="4.89471">
        <ele>220</ele>
        <time>2010-11-23T19:05:02Z</time>
      </trkpt>
      <trkpt lat="45.78042" lon="4.89471">
        <ele>220</ele>
        <time>2010-11-23T19:05:02Z</time>
      </trkpt>
      <trkpt lat="45.78042" lon="4.89471">
        <ele>220.08317565918</ele>
        <time>2010-11-23T19:05:02Z</time>
      </trkpt>
      <trkpt lat="45.78047" lon="4.89468">
        <ele>220.53118896484</ele>
        <time>2010-11-23T19:05:03Z</time>
      </trkpt>
      <trkpt lat="45.78054" lon="4.89464">
        <ele>220.98237609863</ele>
        <time>2010-11-23T19:05:04Z</time>
      </trkpt>
      <trkpt lat="45.78057" lon="4.89461">
        <ele>220</ele>
        <time>2010-11-23T19:05:05Z</time>
      </trkpt>
      <trkpt lat="45.78058" lon="4.8946">
        <ele>220</ele>
        <time>2010-11-23T19:05:06Z</time>
      </trkpt>
      <trkpt lat="45.78059" lon="4.89458">
        <ele>219</ele>
        <time>2010-11-23T19:05:07Z</time>
      </trkpt>
      <trkpt lat="45.78061" lon="4.89456">
        <ele>220</ele>
        <time>2010-11-23T19:05:08Z</time>
      </trkpt>
      <trkpt lat="45.78065" lon="4.89454">
        <ele>219</ele>
        <time>2010-11-23T19:05:09Z</time>
      </trkpt>
      <trkpt lat="45.78067" lon="4.89453">
        <ele>220</ele>
        <time>2010-11-23T19:05:10Z</time>
      </trkpt>
      <trkpt lat="45.78069" lon="4.89451">
        <ele>219</ele>
        <time>2010-11-23T19:05:11Z</time>
      </trkpt>
      <trkpt lat="45.78072" lon="4.89449">
        <ele>220</ele>
        <time>2010-11-23T19:05:12Z</time>
      </trkpt>
      <trkpt lat="45.78077" lon="4.89448">
        <ele>221</ele>
        <time>2010-11-23T19:05:13Z</time>
      </trkpt>
      <trkpt lat="45.78079" lon="4.89446">
        <ele>221</ele>
        <time>2010-11-23T19:05:14Z</time>
      </trkpt>
      <trkpt lat="45.78081" lon="4.89445">
        <ele>221</ele>
        <time>2010-11-23T19:05:15Z</time>
      </trkpt>
      <trkpt lat="45.78083" lon="4.89443">
        <ele>222</ele>
        <time>2010-11-23T19:05:16Z</time>
      </trkpt>
      <trkpt lat="45.78087" lon="4.89441">
        <ele>222</ele>
        <time>2010-11-23T19:05:17Z</time>
      </trkpt>
      <trkpt lat="45.78089" lon="4.8944">
        <ele>222</ele>
        <time>2010-11-23T19:05:18Z</time>
      </trkpt>
      <trkpt lat="45.78093" lon="4.89438">
        <ele>223</ele>
        <time>2010-11-23T19:05:19Z</time>
      </trkpt>
      <trkpt lat="45.78097" lon="4.89437">
        <ele>223</ele>
        <time>2010-11-23T19:05:20Z</time>
      </trkpt>
      <trkpt lat="45.78099" lon="4.89436">
        <ele>223</ele>
        <time>2010-11-23T19:05:21Z</time>
      </trkpt>
      <trkpt lat="45.78102" lon="4.89434">
        <ele>223</ele>
        <time>2010-11-23T19:05:22Z</time>
      </trkpt>
      <trkpt lat="45.78105" lon="4.89433">
        <ele>222</ele>
        <time>2010-11-23T19:05:24Z</time>
      </trkpt>
      <trkpt lat="45.78105" lon="4.89433">
        <ele>222</ele>
        <time>2010-11-23T19:05:24Z</time>
      </trkpt>
      <trkpt lat="45.78109" lon="4.8943">
        <ele>221</ele>
        <time>2010-11-23T19:05:25Z</time>
      </trkpt>
      <trkpt lat="45.78111" lon="4.89429">
        <ele>221</ele>
        <time>2010-11-23T19:05:26Z</time>
      </trkpt>
      <trkpt lat="45.78114" lon="4.89426">
        <ele>221</ele>
        <time>2010-11-23T19:05:27Z</time>
      </trkpt>
      <trkpt lat="45.78116" lon="4.89425">
        <ele>221</ele>
        <time>2010-11-23T19:05:28Z</time>
      </trkpt>
      <trkpt lat="45.78118" lon="4.89422">
        <ele>221</ele>
        <time>2010-11-23T19:05:29Z</time>
      </trkpt>
      <trkpt lat="45.7812" lon="4.8942">
        <ele>221</ele>
        <time>2010-11-23T19:05:30Z</time>
      </trkpt>
      <trkpt lat="45.78123" lon="4.89419">
        <ele>220</ele>
        <time>2010-11-23T19:05:31Z</time>
      </trkpt>
      <trkpt lat="45.78126" lon="4.89417">
        <ele>220</ele>
        <time>2010-11-23T19:05:32Z</time>
      </trkpt>
      <trkpt lat="45.78128" lon="4.89415">
        <ele>220</ele>
        <time>2010-11-23T19:05:33Z</time>
      </trkpt>
      <trkpt lat="45.7813" lon="4.89413">
        <ele>219</ele>
        <time>2010-11-23T19:05:34Z</time>
      </trkpt>
      <trkpt lat="45.78132" lon="4.89411">
        <ele>219</ele>
        <time>2010-11-23T19:05:35Z</time>
      </trkpt>
      <trkpt lat="45.78134" lon="4.89409">
        <ele>218</ele>
        <time>2010-11-23T19:05:36Z</time>
      </trkpt>
      <trkpt lat="45.78137" lon="4.89408">
        <ele>219</ele>
        <time>2010-11-23T19:05:37Z</time>
      </trkpt>
      <trkpt lat="45.78139" lon="4.89406">
        <ele>219</ele>
        <time>2010-11-23T19:05:38Z</time>
      </trkpt>
      <trkpt lat="45.78142" lon="4.89404">
        <ele>219</ele>
        <time>2010-11-23T19:05:39Z</time>
      </trkpt>
      <trkpt lat="45.78144" lon="4.89402">
        <ele>219</ele>
        <time>2010-11-23T19:05:40Z</time>
      </trkpt>
      <trkpt lat="45.78148" lon="4.89401">
        <ele>220</ele>
        <time>2010-11-23T19:05:41Z</time>
      </trkpt>
      <trkpt lat="45.78152" lon="4.894">
        <ele>221</ele>
        <time>2010-11-23T19:05:42Z</time>
      </trkpt>
      <trkpt lat="45.78154" lon="4.89399">
        <ele>221</ele>
        <time>2010-11-23T19:05:43Z</time>
      </trkpt>
      <trkpt lat="45.78157" lon="4.89397">
        <ele>221</ele>
        <time>2010-11-23T19:05:44Z</time>
      </trkpt>
      <trkpt lat="45.78159" lon="4.89396">
        <ele>221</ele>
        <time>2010-11-23T19:05:46Z</time>
      </trkpt>
      <trkpt lat="45.78159" lon="4.89396">
        <ele>221.00361633301</ele>
        <time>2010-11-23T19:05:46Z</time>
      </trkpt>
      <trkpt lat="45.78162" lon="4.89395">
        <ele>221.58624267578</ele>
        <time>2010-11-23T19:05:47Z</time>
      </trkpt>
      <trkpt lat="45.78167" lon="4.89394">
        <ele>222</ele>
        <time>2010-11-23T19:05:48Z</time>
      </trkpt>
      <trkpt lat="45.7817" lon="4.89393">
        <ele>224</ele>
        <time>2010-11-23T19:05:49Z</time>
      </trkpt>
      <trkpt lat="45.78173" lon="4.89392">
        <ele>224</ele>
        <time>2010-11-23T19:05:50Z</time>
      </trkpt>
      <trkpt lat="45.78176" lon="4.8939">
        <ele>224</ele>
        <time>2010-11-23T19:05:51Z</time>
      </trkpt>
      <trkpt lat="45.78178" lon="4.89389">
        <ele>225</ele>
        <time>2010-11-23T19:05:52Z</time>
      </trkpt>
      <trkpt lat="45.78181" lon="4.89388">
        <ele>224</ele>
        <time>2010-11-23T19:05:53Z</time>
      </trkpt>
      <trkpt lat="45.78184" lon="4.89386">
        <ele>225</ele>
        <time>2010-11-23T19:05:54Z</time>
      </trkpt>
      <trkpt lat="45.78186" lon="4.89386">
        <ele>225</ele>
        <time>2010-11-23T19:05:55Z</time>
      </trkpt>
      <trkpt lat="45.78187" lon="4.89384">
        <ele>224</ele>
        <time>2010-11-23T19:05:56Z</time>
      </trkpt>
      <trkpt lat="45.78189" lon="4.89383">
        <ele>223</ele>
        <time>2010-11-23T19:05:57Z</time>
      </trkpt>
      <trkpt lat="45.78192" lon="4.89381">
        <ele>223</ele>
        <time>2010-11-23T19:05:58Z</time>
      </trkpt>
      <trkpt lat="45.78195" lon="4.8938">
        <ele>223</ele>
        <time>2010-11-23T19:05:59Z</time>
      </trkpt>
      <trkpt lat="45.78198" lon="4.8938">
        <ele>223</ele>
        <time>2010-11-23T19:06:00Z</time>
      </trkpt>
      <trkpt lat="45.782" lon="4.89379">
        <ele>223</ele>
        <time>2010-11-23T19:06:01Z</time>
      </trkpt>
      <trkpt lat="45.78203" lon="4.89377">
        <ele>223</ele>
        <time>2010-11-23T19:06:02Z</time>
      </trkpt>
      <trkpt lat="45.78206" lon="4.89375">
        <ele>223</ele>
        <time>2010-11-23T19:06:03Z</time>
      </trkpt>
      <trkpt lat="45.78208" lon="4.89373">
        <ele>222</ele>
        <time>2010-11-23T19:06:04Z</time>
      </trkpt>
      <trkpt lat="45.78213" lon="4.89371">
        <ele>224</ele>
        <time>2010-11-23T19:06:05Z</time>
      </trkpt>
      <trkpt lat="45.78216" lon="4.8937">
        <ele>225</ele>
        <time>2010-11-23T19:06:06Z</time>
      </trkpt>
      <trkpt lat="45.7822" lon="4.89368">
        <ele>226</ele>
        <time>2010-11-23T19:06:07Z</time>
      </trkpt>
      <trkpt lat="45.78223" lon="4.89367">
        <ele>226</ele>
        <time>2010-11-23T19:06:09Z</time>
      </trkpt>
      <trkpt lat="45.78223" lon="4.89367">
        <ele>226</ele>
        <time>2010-11-23T19:06:09Z</time>
      </trkpt>
      <trkpt lat="45.78228" lon="4.89364">
        <ele>227</ele>
        <time>2010-11-23T19:06:10Z</time>
      </trkpt>
      <trkpt lat="45.78231" lon="4.89362">
        <ele>227</ele>
        <time>2010-11-23T19:06:11Z</time>
      </trkpt>
      <trkpt lat="45.78233" lon="4.8936">
        <ele>227</ele>
        <time>2010-11-23T19:06:12Z</time>
      </trkpt>
      <trkpt lat="45.78236" lon="4.89358">
        <ele>226</ele>
        <time>2010-11-23T19:06:13Z</time>
      </trkpt>
      <trkpt lat="45.78238" lon="4.89356">
        <ele>226</ele>
        <time>2010-11-23T19:06:14Z</time>
      </trkpt>
      <trkpt lat="45.7824" lon="4.89354">
        <ele>226</ele>
        <time>2010-11-23T19:06:15Z</time>
      </trkpt>
      <trkpt lat="45.78243" lon="4.89352">
        <ele>226</ele>
        <time>2010-11-23T19:06:16Z</time>
      </trkpt>
      <trkpt lat="45.78245" lon="4.89351">
        <ele>225</ele>
        <time>2010-11-23T19:06:17Z</time>
      </trkpt>
      <trkpt lat="45.78249" lon="4.89349">
        <ele>225</ele>
        <time>2010-11-23T19:06:18Z</time>
      </trkpt>
      <trkpt lat="45.78251" lon="4.89347">
        <ele>224</ele>
        <time>2010-11-23T19:06:19Z</time>
      </trkpt>
      <trkpt lat="45.78253" lon="4.89345">
        <ele>224</ele>
        <time>2010-11-23T19:06:20Z</time>
      </trkpt>
      <trkpt lat="45.78256" lon="4.89344">
        <ele>223</ele>
        <time>2010-11-23T19:06:21Z</time>
      </trkpt>
      <trkpt lat="45.78259" lon="4.89343">
        <ele>223</ele>
        <time>2010-11-23T19:06:22Z</time>
      </trkpt>
      <trkpt lat="45.78261" lon="4.89342">
        <ele>223</ele>
        <time>2010-11-23T19:06:23Z</time>
      </trkpt>
      <trkpt lat="45.78264" lon="4.8934">
        <ele>223</ele>
        <time>2010-11-23T19:06:24Z</time>
      </trkpt>
      <trkpt lat="45.78266" lon="4.89338">
        <ele>224</ele>
        <time>2010-11-23T19:06:25Z</time>
      </trkpt>
      <trkpt lat="45.78268" lon="4.89337">
        <ele>223</ele>
        <time>2010-11-23T19:06:26Z</time>
      </trkpt>
      <trkpt lat="45.78271" lon="4.89335">
        <ele>223</ele>
        <time>2010-11-23T19:06:27Z</time>
      </trkpt>
      <trkpt lat="45.78274" lon="4.89335">
        <ele>224</ele>
        <time>2010-11-23T19:06:28Z</time>
      </trkpt>
      <trkpt lat="45.78276" lon="4.89333">
        <ele>224</ele>
        <time>2010-11-23T19:06:29Z</time>
      </trkpt>
      <trkpt lat="45.78279" lon="4.89332">
        <ele>223</ele>
        <time>2010-11-23T19:06:31Z</time>
      </trkpt>
      <trkpt lat="45.78279" lon="4.89332">
        <ele>223</ele>
        <time>2010-11-23T19:06:31Z</time>
      </trkpt>
      <trkpt lat="45.78281" lon="4.89331">
        <ele>223</ele>
        <time>2010-11-23T19:06:32Z</time>
      </trkpt>
      <trkpt lat="45.78286" lon="4.89327">
        <ele>223</ele>
        <time>2010-11-23T19:06:33Z</time>
      </trkpt>
      <trkpt lat="45.78288" lon="4.89326">
        <ele>223</ele>
        <time>2010-11-23T19:06:34Z</time>
      </trkpt>
      <trkpt lat="45.7829" lon="4.89325">
        <ele>223</ele>
        <time>2010-11-23T19:06:35Z</time>
      </trkpt>
      <trkpt lat="45.78294" lon="4.89323">
        <ele>223</ele>
        <time>2010-11-23T19:06:36Z</time>
      </trkpt>
      <trkpt lat="45.78296" lon="4.89322">
        <ele>223</ele>
        <time>2010-11-23T19:06:37Z</time>
      </trkpt>
      <trkpt lat="45.78299" lon="4.89322">
        <ele>223</ele>
        <time>2010-11-23T19:06:38Z</time>
      </trkpt>
      <trkpt lat="45.78301" lon="4.89322">
        <ele>223</ele>
        <time>2010-11-23T19:06:39Z</time>
      </trkpt>
      <trkpt lat="45.78304" lon="4.89321">
        <ele>223</ele>
        <time>2010-11-23T19:06:40Z</time>
      </trkpt>
      <trkpt lat="45.78307" lon="4.8932">
        <ele>223</ele>
        <time>2010-11-23T19:06:41Z</time>
      </trkpt>
      <trkpt lat="45.78309" lon="4.89319">
        <ele>223</ele>
        <time>2010-11-23T19:06:42Z</time>
      </trkpt>
      <trkpt lat="45.78311" lon="4.89319">
        <ele>224</ele>
        <time>2010-11-23T19:06:43Z</time>
      </trkpt>
      <trkpt lat="45.78314" lon="4.89318">
        <ele>224</ele>
        <time>2010-11-23T19:06:44Z</time>
      </trkpt>
      <trkpt lat="45.78316" lon="4.89316">
        <ele>224</ele>
        <time>2010-11-23T19:06:45Z</time>
      </trkpt>
      <trkpt lat="45.78319" lon="4.89315">
        <ele>224</ele>
        <time>2010-11-23T19:06:46Z</time>
      </trkpt>
      <trkpt lat="45.78322" lon="4.89314">
        <ele>224</ele>
        <time>2010-11-23T19:06:47Z</time>
      </trkpt>
      <trkpt lat="45.78325" lon="4.89316">
        <ele>226</ele>
        <time>2010-11-23T19:06:48Z</time>
      </trkpt>
      <trkpt lat="45.78327" lon="4.89315">
        <ele>225</ele>
        <time>2010-11-23T19:06:49Z</time>
      </trkpt>
      <trkpt lat="45.7833" lon="4.89314">
        <ele>226</ele>
        <time>2010-11-23T19:06:50Z</time>
      </trkpt>
      <trkpt lat="45.78332" lon="4.89315">
        <ele>226</ele>
        <time>2010-11-23T19:06:51Z</time>
      </trkpt>
      <trkpt lat="45.78334" lon="4.89313">
        <ele>226</ele>
        <time>2010-11-23T19:06:52Z</time>
      </trkpt>
      <trkpt lat="45.78337" lon="4.89313">
        <ele>227</ele>
        <time>2010-11-23T19:06:54Z</time>
      </trkpt>
      <trkpt lat="45.78337" lon="4.89313">
        <ele>227</ele>
        <time>2010-11-23T19:06:54Z</time>
      </trkpt>
      <trkpt lat="45.7834" lon="4.89312">
        <ele>227</ele>
        <time>2010-11-23T19:06:55Z</time>
      </trkpt>
      <trkpt lat="45.78344" lon="4.89309">
        <ele>226</ele>
        <time>2010-11-23T19:06:56Z</time>
      </trkpt>
      <trkpt lat="45.78346" lon="4.89308">
        <ele>226</ele>
        <time>2010-11-23T19:06:57Z</time>
      </trkpt>
      <trkpt lat="45.78351" lon="4.89305">
        <ele>226</ele>
        <time>2010-11-23T19:06:58Z</time>
      </trkpt>
      <trkpt lat="45.78354" lon="4.89303">
        <ele>225</ele>
        <time>2010-11-23T19:06:59Z</time>
      </trkpt>
      <trkpt lat="45.78356" lon="4.89301">
        <ele>225</ele>
        <time>2010-11-23T19:07:00Z</time>
      </trkpt>
      <trkpt lat="45.78358" lon="4.893">
        <ele>225</ele>
        <time>2010-11-23T19:07:01Z</time>
      </trkpt>
      <trkpt lat="45.7836" lon="4.89299">
        <ele>225</ele>
        <time>2010-11-23T19:07:02Z</time>
      </trkpt>
      <trkpt lat="45.78362" lon="4.89297">
        <ele>225</ele>
        <time>2010-11-23T19:07:03Z</time>
      </trkpt>
      <trkpt lat="45.78366" lon="4.89296">
        <ele>224</ele>
        <time>2010-11-23T19:07:04Z</time>
      </trkpt>
      <trkpt lat="45.78371" lon="4.89293">
        <ele>224</ele>
        <time>2010-11-23T19:07:05Z</time>
      </trkpt>
      <trkpt lat="45.78374" lon="4.89292">
        <ele>224</ele>
        <time>2010-11-23T19:07:06Z</time>
      </trkpt>
      <trkpt lat="45.78376" lon="4.89291">
        <ele>224</ele>
        <time>2010-11-23T19:07:07Z</time>
      </trkpt>
      <trkpt lat="45.78378" lon="4.89288">
        <ele>222</ele>
        <time>2010-11-23T19:07:08Z</time>
      </trkpt>
      <trkpt lat="45.7838" lon="4.89285">
        <ele>221</ele>
        <time>2010-11-23T19:07:10Z</time>
      </trkpt>
      <trkpt lat="45.78382" lon="4.89285">
        <ele>221.77592468262</ele>
        <time>2010-11-23T19:07:10Z</time>
      </trkpt>
      <trkpt lat="45.78384" lon="4.89283">
        <ele>222</ele>
        <time>2010-11-23T19:07:11Z</time>
      </trkpt>
      <trkpt lat="45.78387" lon="4.89282">
        <ele>222</ele>
        <time>2010-11-23T19:07:12Z</time>
      </trkpt>
      <trkpt lat="45.78389" lon="4.89281">
        <ele>222</ele>
        <time>2010-11-23T19:07:13Z</time>
      </trkpt>
      <trkpt lat="45.78391" lon="4.89281">
        <ele>221</ele>
        <time>2010-11-23T19:07:14Z</time>
      </trkpt>
      <trkpt lat="45.78394" lon="4.89278">
        <ele>222</ele>
        <time>2010-11-23T19:07:15Z</time>
      </trkpt>
      <trkpt lat="45.78396" lon="4.89277">
        <ele>221</ele>
        <time>2010-11-23T19:07:17Z</time>
      </trkpt>
      <trkpt lat="45.78396" lon="4.89277">
        <ele>221</ele>
        <time>2010-11-23T19:07:17Z</time>
      </trkpt>
      <trkpt lat="45.78398" lon="4.89276">
        <ele>221</ele>
        <time>2010-11-23T19:07:18Z</time>
      </trkpt>
      <trkpt lat="45.78404" lon="4.89275">
        <ele>221</ele>
        <time>2010-11-23T19:07:19Z</time>
      </trkpt>
      <trkpt lat="45.78405" lon="4.89275">
        <ele>219</ele>
        <time>2010-11-23T19:07:20Z</time>
      </trkpt>
      <trkpt lat="45.78408" lon="4.89272">
        <ele>219</ele>
        <time>2010-11-23T19:07:21Z</time>
      </trkpt>
      <trkpt lat="45.78411" lon="4.89271">
        <ele>219</ele>
        <time>2010-11-23T19:07:22Z</time>
      </trkpt>
      <trkpt lat="45.78413" lon="4.8927">
        <ele>219</ele>
        <time>2010-11-23T19:07:23Z</time>
      </trkpt>
      <trkpt lat="45.78417" lon="4.89269">
        <ele>219</ele>
        <time>2010-11-23T19:07:24Z</time>
      </trkpt>
      <trkpt lat="45.78419" lon="4.89268">
        <ele>220</ele>
        <time>2010-11-23T19:07:25Z</time>
      </trkpt>
      <trkpt lat="45.78422" lon="4.89267">
        <ele>221</ele>
        <time>2010-11-23T19:07:26Z</time>
      </trkpt>
      <trkpt lat="45.78425" lon="4.89266">
        <ele>221</ele>
        <time>2010-11-23T19:07:27Z</time>
      </trkpt>
      <trkpt lat="45.78428" lon="4.89264">
        <ele>221</ele>
        <time>2010-11-23T19:07:28Z</time>
      </trkpt>
      <trkpt lat="45.78429" lon="4.89263">
        <ele>221</ele>
        <time>2010-11-23T19:07:29Z</time>
      </trkpt>
      <trkpt lat="45.78432" lon="4.89262">
        <ele>221</ele>
        <time>2010-11-23T19:07:30Z</time>
      </trkpt>
      <trkpt lat="45.78434" lon="4.89261">
        <ele>222</ele>
        <time>2010-11-23T19:07:31Z</time>
      </trkpt>
      <trkpt lat="45.78436" lon="4.89259">
        <ele>221</ele>
        <time>2010-11-23T19:07:32Z</time>
      </trkpt>
      <trkpt lat="45.78437" lon="4.89257">
        <ele>221</ele>
        <time>2010-11-23T19:07:33Z</time>
      </trkpt>
      <trkpt lat="45.78439" lon="4.89255">
        <ele>221</ele>
        <time>2010-11-23T19:07:34Z</time>
      </trkpt>
      <trkpt lat="45.7844" lon="4.89253">
        <ele>221</ele>
        <time>2010-11-23T19:07:35Z</time>
      </trkpt>
      <trkpt lat="45.78443" lon="4.8925">
        <ele>222</ele>
        <time>2010-11-23T19:07:36Z</time>
      </trkpt>
      <trkpt lat="45.78445" lon="4.89247">
        <ele>222</ele>
        <time>2010-11-23T19:07:37Z</time>
      </trkpt>
      <trkpt lat="45.78445" lon="4.89244">
        <ele>223</ele>
        <time>2010-11-23T19:07:38Z</time>
      </trkpt>
      <trkpt lat="45.78446" lon="4.8924">
        <ele>222</ele>
        <time>2010-11-23T19:07:40Z</time>
      </trkpt>
      <trkpt lat="45.78446" lon="4.8924">
        <ele>222</ele>
        <time>2010-11-23T19:07:40Z</time>
      </trkpt>
      <trkpt lat="45.78448" lon="4.89234">
        <ele>221.21664428711</ele>
        <time>2010-11-23T19:07:41Z</time>
      </trkpt>
      <trkpt lat="45.78449" lon="4.8923">
        <ele>221</ele>
        <time>2010-11-23T19:07:42Z</time>
      </trkpt>
      <trkpt lat="45.78449" lon="4.89226">
        <ele>221</ele>
        <time>2010-11-23T19:07:43Z</time>
      </trkpt>
      <trkpt lat="45.7845" lon="4.89223">
        <ele>221</ele>
        <time>2010-11-23T19:07:44Z</time>
      </trkpt>
      <trkpt lat="45.7845" lon="4.8922">
        <ele>221</ele>
        <time>2010-11-23T19:07:45Z</time>
      </trkpt>
      <trkpt lat="45.78448" lon="4.89217">
        <ele>221</ele>
        <time>2010-11-23T19:07:46Z</time>
      </trkpt>
      <trkpt lat="45.78444" lon="4.89214">
        <ele>223</ele>
        <time>2010-11-23T19:07:47Z</time>
      </trkpt>
      <trkpt lat="45.78441" lon="4.89218">
        <ele>222</ele>
        <time>2010-11-23T19:07:48Z</time>
      </trkpt>
      <trkpt lat="45.78439" lon="4.89218">
        <ele>222</ele>
        <time>2010-11-23T19:07:49Z</time>
      </trkpt>
      <trkpt lat="45.78436" lon="4.89219">
        <ele>222</ele>
        <time>2010-11-23T19:07:50Z</time>
      </trkpt>
      <trkpt lat="45.78434" lon="4.89219">
        <ele>222</ele>
        <time>2010-11-23T19:07:51Z</time>
      </trkpt>
      <trkpt lat="45.78432" lon="4.8922">
        <ele>223</ele>
        <time>2010-11-23T19:07:52Z</time>
      </trkpt>
      <trkpt lat="45.78429" lon="4.89222">
        <ele>223</ele>
        <time>2010-11-23T19:07:53Z</time>
      </trkpt>
      <trkpt lat="45.78426" lon="4.89223">
        <ele>223</ele>
        <time>2010-11-23T19:07:54Z</time>
      </trkpt>
      <trkpt lat="45.78424" lon="4.89224">
        <ele>223</ele>
        <time>2010-11-23T19:07:55Z</time>
      </trkpt>
      <trkpt lat="45.78421" lon="4.89225">
        <ele>223</ele>
        <time>2010-11-23T19:07:56Z</time>
      </trkpt>
      <trkpt lat="45.78419" lon="4.89227">
        <ele>223</ele>
        <time>2010-11-23T19:07:57Z</time>
      </trkpt>
      <trkpt lat="45.78417" lon="4.89228">
        <ele>223</ele>
        <time>2010-11-23T19:07:58Z</time>
      </trkpt>
      <trkpt lat="45.78414" lon="4.89229">
        <ele>223</ele>
        <time>2010-11-23T19:07:59Z</time>
      </trkpt>
      <trkpt lat="45.78412" lon="4.8923">
        <ele>223</ele>
        <time>2010-11-23T19:08:00Z</time>
      </trkpt>
      <trkpt lat="45.7841" lon="4.89228">
        <ele>222</ele>
        <time>2010-11-23T19:08:03Z</time>
      </trkpt>
      <trkpt lat="45.7841" lon="4.89228">
        <ele>222</ele>
        <time>2010-11-23T19:08:03Z</time>
      </trkpt>
      <trkpt lat="45.78409" lon="4.89227">
        <ele>222</ele>
        <time>2010-11-23T19:08:03Z</time>
      </trkpt>
      <trkpt lat="45.78405" lon="4.8922">
        <ele>221.37673950195</ele>
        <time>2010-11-23T19:08:04Z</time>
      </trkpt>
      <trkpt lat="45.784" lon="4.89213">
        <ele>221.01232910156</ele>
        <time>2010-11-23T19:08:05Z</time>
      </trkpt>
      <trkpt lat="45.78397" lon="4.8921">
        <ele>221</ele>
        <time>2010-11-23T19:08:06Z</time>
      </trkpt>
      <trkpt lat="45.78396" lon="4.89206">
        <ele>221</ele>
        <time>2010-11-23T19:08:07Z</time>
      </trkpt>
      <trkpt lat="45.78393" lon="4.89203">
        <ele>221</ele>
        <time>2010-11-23T19:08:08Z</time>
      </trkpt>
      <trkpt lat="45.78391" lon="4.892">
        <ele>221</ele>
        <time>2010-11-23T19:08:09Z</time>
      </trkpt>
      <trkpt lat="45.7839" lon="4.89198">
        <ele>221</ele>
        <time>2010-11-23T19:08:10Z</time>
      </trkpt>
      <trkpt lat="45.78388" lon="4.89195">
        <ele>222</ele>
        <time>2010-11-23T19:08:11Z</time>
      </trkpt>
      <trkpt lat="45.78386" lon="4.89194">
        <ele>222</ele>
        <time>2010-11-23T19:08:12Z</time>
      </trkpt>
      <trkpt lat="45.78384" lon="4.89191">
        <ele>222</ele>
        <time>2010-11-23T19:08:13Z</time>
      </trkpt>
      <trkpt lat="45.78383" lon="4.89189">
        <ele>222</ele>
        <time>2010-11-23T19:08:14Z</time>
      </trkpt>
      <trkpt lat="45.78381" lon="4.89187">
        <ele>222</ele>
        <time>2010-11-23T19:08:15Z</time>
      </trkpt>
      <trkpt lat="45.78379" lon="4.89186">
        <ele>222</ele>
        <time>2010-11-23T19:08:16Z</time>
      </trkpt>
      <trkpt lat="45.78377" lon="4.89184">
        <ele>222</ele>
        <time>2010-11-23T19:08:17Z</time>
      </trkpt>
      <trkpt lat="45.78375" lon="4.89182">
        <ele>222</ele>
        <time>2010-11-23T19:08:18Z</time>
      </trkpt>
      <trkpt lat="45.78374" lon="4.8918">
        <ele>222</ele>
        <time>2010-11-23T19:08:19Z</time>
      </trkpt>
      <trkpt lat="45.78372" lon="4.89178">
        <ele>222</ele>
        <time>2010-11-23T19:08:20Z</time>
      </trkpt>
      <trkpt lat="45.7837" lon="4.89176">
        <ele>222</ele>
        <time>2010-11-23T19:08:21Z</time>
      </trkpt>
      <trkpt lat="45.78368" lon="4.89175">
        <ele>222</ele>
        <time>2010-11-23T19:08:22Z</time>
      </trkpt>
      <trkpt lat="45.78365" lon="4.89172">
        <ele>222</ele>
        <time>2010-11-23T19:08:23Z</time>
      </trkpt>
      <trkpt lat="45.78361" lon="4.89171">
        <ele>222</ele>
        <time>2010-11-23T19:08:25Z</time>
      </trkpt>
      <trkpt lat="45.78361" lon="4.89171">
        <ele>222</ele>
        <time>2010-11-23T19:08:25Z</time>
      </trkpt>
      <trkpt lat="45.78357" lon="4.89171">
        <ele>222</ele>
        <time>2010-11-23T19:08:26Z</time>
      </trkpt>
      <trkpt lat="45.7835" lon="4.89171">
        <ele>222</ele>
        <time>2010-11-23T19:08:27Z</time>
      </trkpt>
      <trkpt lat="45.78348" lon="4.89171">
        <ele>222</ele>
        <time>2010-11-23T19:08:28Z</time>
      </trkpt>
      <trkpt lat="45.78347" lon="4.89164">
        <ele>222</ele>
        <time>2010-11-23T19:08:29Z</time>
      </trkpt>
      <trkpt lat="45.78343" lon="4.89155">
        <ele>222</ele>
        <time>2010-11-23T19:08:30Z</time>
      </trkpt>
      <trkpt lat="45.7834" lon="4.8915">
        <ele>223</ele>
        <time>2010-11-23T19:08:31Z</time>
      </trkpt>
      <trkpt lat="45.78339" lon="4.89145">
        <ele>222</ele>
        <time>2010-11-23T19:08:32Z</time>
      </trkpt>
      <trkpt lat="45.78337" lon="4.89141">
        <ele>222</ele>
        <time>2010-11-23T19:08:33Z</time>
      </trkpt>
      <trkpt lat="45.78336" lon="4.89138">
        <ele>223</ele>
        <time>2010-11-23T19:08:34Z</time>
      </trkpt>
      <trkpt lat="45.78337" lon="4.89136">
        <ele>223</ele>
        <time>2010-11-23T19:08:35Z</time>
      </trkpt>
      <trkpt lat="45.78338" lon="4.89133">
        <ele>223</ele>
        <time>2010-11-23T19:08:36Z</time>
      </trkpt>
      <trkpt lat="45.78339" lon="4.89132">
        <ele>223</ele>
        <time>2010-11-23T19:08:37Z</time>
      </trkpt>
      <trkpt lat="45.7834" lon="4.89133">
        <ele>223</ele>
        <time>2010-11-23T19:08:38Z</time>
      </trkpt>
      <trkpt lat="45.78341" lon="4.89134">
        <ele>223</ele>
        <time>2010-11-23T19:08:39Z</time>
      </trkpt>
      <trkpt lat="45.78344" lon="4.89133">
        <ele>223</ele>
        <time>2010-11-23T19:08:40Z</time>
      </trkpt>
      <trkpt lat="45.78346" lon="4.89132">
        <ele>223</ele>
        <time>2010-11-23T19:08:41Z</time>
      </trkpt>
      <trkpt lat="45.78346" lon="4.89132">
        <ele>223</ele>
        <time>2010-11-23T19:08:42Z</time>
      </trkpt>
      <trkpt lat="45.78347" lon="4.89132">
        <ele>224</ele>
        <time>2010-11-23T19:08:43Z</time>
      </trkpt>
      <trkpt lat="45.78347" lon="4.89132">
        <ele>224</ele>
        <time>2010-11-23T19:08:44Z</time>
      </trkpt>
      <trkpt lat="45.78349" lon="4.89129">
        <ele>226</ele>
        <time>2010-11-23T19:08:45Z</time>
      </trkpt>
      <trkpt lat="45.78353" lon="4.89127">
        <ele>227</ele>
        <time>2010-11-23T19:08:46Z</time>
      </trkpt>
      <trkpt lat="45.78355" lon="4.89124">
        <ele>228</ele>
        <time>2010-11-23T19:08:48Z</time>
      </trkpt>
      <trkpt lat="45.78355" lon="4.89124">
        <ele>228.00285339355</ele>
        <time>2010-11-23T19:08:48Z</time>
      </trkpt>
      <trkpt lat="45.78357" lon="4.89123">
        <ele>228.60137939453</ele>
        <time>2010-11-23T19:08:49Z</time>
      </trkpt>
      <trkpt lat="45.78363" lon="4.89117">
        <ele>228.87657165527</ele>
        <time>2010-11-23T19:08:50Z</time>
      </trkpt>
      <trkpt lat="45.78368" lon="4.89109">
        <ele>227</ele>
        <time>2010-11-23T19:08:51Z</time>
      </trkpt>
      <trkpt lat="45.78371" lon="4.89107">
        <ele>227</ele>
        <time>2010-11-23T19:08:52Z</time>
      </trkpt>
      <trkpt lat="45.78374" lon="4.89104">
        <ele>227</ele>
        <time>2010-11-23T19:08:53Z</time>
      </trkpt>
      <trkpt lat="45.78377" lon="4.89101">
        <ele>227</ele>
        <time>2010-11-23T19:08:54Z</time>
      </trkpt>
      <trkpt lat="45.78378" lon="4.891">
        <ele>227</ele>
        <time>2010-11-23T19:08:55Z</time>
      </trkpt>
      <trkpt lat="45.78381" lon="4.89098">
        <ele>228</ele>
        <time>2010-11-23T19:08:56Z</time>
      </trkpt>
      <trkpt lat="45.78383" lon="4.89095">
        <ele>228</ele>
        <time>2010-11-23T19:08:57Z</time>
      </trkpt>
      <trkpt lat="45.78385" lon="4.89093">
        <ele>229</ele>
        <time>2010-11-23T19:08:58Z</time>
      </trkpt>
      <trkpt lat="45.78388" lon="4.8909">
        <ele>228</ele>
        <time>2010-11-23T19:08:59Z</time>
      </trkpt>
      <trkpt lat="45.7839" lon="4.89088">
        <ele>228</ele>
        <time>2010-11-23T19:09:00Z</time>
      </trkpt>
      <trkpt lat="45.78392" lon="4.89085">
        <ele>228</ele>
        <time>2010-11-23T19:09:01Z</time>
      </trkpt>
      <trkpt lat="45.78394" lon="4.89083">
        <ele>228</ele>
        <time>2010-11-23T19:09:02Z</time>
      </trkpt>
      <trkpt lat="45.78397" lon="4.89082">
        <ele>228</ele>
        <time>2010-11-23T19:09:03Z</time>
      </trkpt>
      <trkpt lat="45.78399" lon="4.8908">
        <ele>227</ele>
        <time>2010-11-23T19:09:04Z</time>
      </trkpt>
      <trkpt lat="45.78403" lon="4.89079">
        <ele>227</ele>
        <time>2010-11-23T19:09:05Z</time>
      </trkpt>
      <trkpt lat="45.78406" lon="4.89078">
        <ele>227</ele>
        <time>2010-11-23T19:09:06Z</time>
      </trkpt>
      <trkpt lat="45.78409" lon="4.89078">
        <ele>226</ele>
        <time>2010-11-23T19:09:07Z</time>
      </trkpt>
      <trkpt lat="45.78412" lon="4.89078">
        <ele>226</ele>
        <time>2010-11-23T19:09:08Z</time>
      </trkpt>
      <trkpt lat="45.78415" lon="4.89078">
        <ele>226</ele>
        <time>2010-11-23T19:09:09Z</time>
      </trkpt>
      <trkpt lat="45.78417" lon="4.89076">
        <ele>226</ele>
        <time>2010-11-23T19:09:11Z</time>
      </trkpt>
      <trkpt lat="45.78417" lon="4.89076">
        <ele>226.0023651123</ele>
        <time>2010-11-23T19:09:11Z</time>
      </trkpt>
      <trkpt lat="45.78419" lon="4.89075">
        <ele>226.60684204102</ele>
        <time>2010-11-23T19:09:12Z</time>
      </trkpt>
      <trkpt lat="45.78424" lon="4.8907">
        <ele>227.70687866211</ele>
        <time>2010-11-23T19:09:13Z</time>
      </trkpt>
      <trkpt lat="45.78428" lon="4.89066">
        <ele>228</ele>
        <time>2010-11-23T19:09:14Z</time>
      </trkpt>
      <trkpt lat="45.7843" lon="4.89065">
        <ele>229</ele>
        <time>2010-11-23T19:09:15Z</time>
      </trkpt>
      <trkpt lat="45.78433" lon="4.89063">
        <ele>229</ele>
        <time>2010-11-23T19:09:16Z</time>
      </trkpt>
      <trkpt lat="45.78437" lon="4.89062">
        <ele>230</ele>
        <time>2010-11-23T19:09:17Z</time>
      </trkpt>
      <trkpt lat="45.78441" lon="4.8906">
        <ele>231</ele>
        <time>2010-11-23T19:09:18Z</time>
      </trkpt>
      <trkpt lat="45.78443" lon="4.89058">
        <ele>231</ele>
        <time>2010-11-23T19:09:19Z</time>
      </trkpt>
      <trkpt lat="45.78445" lon="4.89055">
        <ele>231</ele>
        <time>2010-11-23T19:09:20Z</time>
      </trkpt>
      <trkpt lat="45.78448" lon="4.89053">
        <ele>230</ele>
        <time>2010-11-23T19:09:21Z</time>
      </trkpt>
      <trkpt lat="45.78452" lon="4.8905">
        <ele>230</ele>
        <time>2010-11-23T19:09:22Z</time>
      </trkpt>
      <trkpt lat="45.78455" lon="4.89048">
        <ele>231</ele>
        <time>2010-11-23T19:09:23Z</time>
      </trkpt>
      <trkpt lat="45.78457" lon="4.89046">
        <ele>231</ele>
        <time>2010-11-23T19:09:24Z</time>
      </trkpt>
      <trkpt lat="45.78458" lon="4.89043">
        <ele>230</ele>
        <time>2010-11-23T19:09:25Z</time>
      </trkpt>
      <trkpt lat="45.7846" lon="4.89042">
        <ele>230</ele>
        <time>2010-11-23T19:09:26Z</time>
      </trkpt>
      <trkpt lat="45.78462" lon="4.89039">
        <ele>230</ele>
        <time>2010-11-23T19:09:27Z</time>
      </trkpt>
      <trkpt lat="45.78463" lon="4.89036">
        <ele>230</ele>
        <time>2010-11-23T19:09:28Z</time>
      </trkpt>
      <trkpt lat="45.78465" lon="4.89034">
        <ele>230</ele>
        <time>2010-11-23T19:09:29Z</time>
      </trkpt>
      <trkpt lat="45.78468" lon="4.89032">
        <ele>230</ele>
        <time>2010-11-23T19:09:30Z</time>
      </trkpt>
      <trkpt lat="45.7847" lon="4.89031">
        <ele>230</ele>
        <time>2010-11-23T19:09:31Z</time>
      </trkpt>
      <trkpt lat="45.78472" lon="4.89028">
        <ele>230</ele>
        <time>2010-11-23T19:09:32Z</time>
      </trkpt>
      <trkpt lat="45.78474" lon="4.89025">
        <ele>230</ele>
        <time>2010-11-23T19:09:34Z</time>
      </trkpt>
      <trkpt lat="45.78474" lon="4.89025">
        <ele>229.99652099609</ele>
        <time>2010-11-23T19:09:34Z</time>
      </trkpt>
      <trkpt lat="45.78479" lon="4.89023">
        <ele>229.99896240234</ele>
        <time>2010-11-23T19:09:35Z</time>
      </trkpt>
      <trkpt lat="45.78482" lon="4.8902">
        <ele>230</ele>
        <time>2010-11-23T19:09:36Z</time>
      </trkpt>
      <trkpt lat="45.78485" lon="4.89017">
        <ele>229</ele>
        <time>2010-11-23T19:09:37Z</time>
      </trkpt>
      <trkpt lat="45.78487" lon="4.89013">
        <ele>228</ele>
        <time>2010-11-23T19:09:38Z</time>
      </trkpt>
      <trkpt lat="45.78489" lon="4.8901">
        <ele>227</ele>
        <time>2010-11-23T19:09:39Z</time>
      </trkpt>
      <trkpt lat="45.78492" lon="4.89008">
        <ele>228</ele>
        <time>2010-11-23T19:09:40Z</time>
      </trkpt>
      <trkpt lat="45.78494" lon="4.89005">
        <ele>227</ele>
        <time>2010-11-23T19:09:41Z</time>
      </trkpt>
      <trkpt lat="45.78496" lon="4.89002">
        <ele>227</ele>
        <time>2010-11-23T19:09:42Z</time>
      </trkpt>
      <trkpt lat="45.78499" lon="4.88999">
        <ele>227</ele>
        <time>2010-11-23T19:09:43Z</time>
      </trkpt>
      <trkpt lat="45.785" lon="4.88997">
        <ele>226</ele>
        <time>2010-11-23T19:09:44Z</time>
      </trkpt>
      <trkpt lat="45.78502" lon="4.88994">
        <ele>225</ele>
        <time>2010-11-23T19:09:45Z</time>
      </trkpt>
      <trkpt lat="45.78505" lon="4.88992">
        <ele>225</ele>
        <time>2010-11-23T19:09:46Z</time>
      </trkpt>
      <trkpt lat="45.78507" lon="4.88989">
        <ele>225</ele>
        <time>2010-11-23T19:09:47Z</time>
      </trkpt>
      <trkpt lat="45.78509" lon="4.88985">
        <ele>224</ele>
        <time>2010-11-23T19:09:48Z</time>
      </trkpt>
      <trkpt lat="45.78511" lon="4.88982">
        <ele>224</ele>
        <time>2010-11-23T19:09:49Z</time>
      </trkpt>
      <trkpt lat="45.78513" lon="4.88979">
        <ele>224</ele>
        <time>2010-11-23T19:09:50Z</time>
      </trkpt>
      <trkpt lat="45.78515" lon="4.88976">
        <ele>223</ele>
        <time>2010-11-23T19:09:51Z</time>
      </trkpt>
      <trkpt lat="45.78517" lon="4.88972">
        <ele>224</ele>
        <time>2010-11-23T19:09:52Z</time>
      </trkpt>
      <trkpt lat="45.78519" lon="4.88968">
        <ele>224</ele>
        <time>2010-11-23T19:09:53Z</time>
      </trkpt>
      <trkpt lat="45.78521" lon="4.88965">
        <ele>224</ele>
        <time>2010-11-23T19:09:54Z</time>
      </trkpt>
      <trkpt lat="45.78522" lon="4.8896">
        <ele>224</ele>
        <time>2010-11-23T19:09:56Z</time>
      </trkpt>
      <trkpt lat="45.78522" lon="4.88959">
        <ele>224.19236755371</ele>
        <time>2010-11-23T19:09:56Z</time>
      </trkpt>
      <trkpt lat="45.78523" lon="4.88955">
        <ele>224.56964111328</ele>
        <time>2010-11-23T19:09:57Z</time>
      </trkpt>
      <trkpt lat="45.78525" lon="4.88946">
        <ele>225</ele>
        <time>2010-11-23T19:09:58Z</time>
      </trkpt>
      <trkpt lat="45.78525" lon="4.88941">
        <ele>225</ele>
        <time>2010-11-23T19:09:59Z</time>
      </trkpt>
      <trkpt lat="45.78525" lon="4.88938">
        <ele>225</ele>
        <time>2010-11-23T19:10:00Z</time>
      </trkpt>
      <trkpt lat="45.78524" lon="4.88933">
        <ele>225</ele>
        <time>2010-11-23T19:10:01Z</time>
      </trkpt>
      <trkpt lat="45.78523" lon="4.8893">
        <ele>225</ele>
        <time>2010-11-23T19:10:02Z</time>
      </trkpt>
      <trkpt lat="45.78521" lon="4.88926">
        <ele>226</ele>
        <time>2010-11-23T19:10:03Z</time>
      </trkpt>
      <trkpt lat="45.78519" lon="4.88921">
        <ele>226</ele>
        <time>2010-11-23T19:10:04Z</time>
      </trkpt>
      <trkpt lat="45.78518" lon="4.88916">
        <ele>226</ele>
        <time>2010-11-23T19:10:05Z</time>
      </trkpt>
      <trkpt lat="45.78517" lon="4.88912">
        <ele>225</ele>
        <time>2010-11-23T19:10:06Z</time>
      </trkpt>
      <trkpt lat="45.78517" lon="4.88908">
        <ele>225</ele>
        <time>2010-11-23T19:10:07Z</time>
      </trkpt>
      <trkpt lat="45.78517" lon="4.88904">
        <ele>225</ele>
        <time>2010-11-23T19:10:08Z</time>
      </trkpt>
      <trkpt lat="45.78518" lon="4.889">
        <ele>225</ele>
        <time>2010-11-23T19:10:09Z</time>
      </trkpt>
      <trkpt lat="45.78517" lon="4.88896">
        <ele>225</ele>
        <time>2010-11-23T19:10:10Z</time>
      </trkpt>
      <trkpt lat="45.78516" lon="4.88893">
        <ele>225</ele>
        <time>2010-11-23T19:10:11Z</time>
      </trkpt>
      <trkpt lat="45.78516" lon="4.88889">
        <ele>225</ele>
        <time>2010-11-23T19:10:12Z</time>
      </trkpt>
      <trkpt lat="45.78514" lon="4.88886">
        <ele>225</ele>
        <time>2010-11-23T19:10:13Z</time>
      </trkpt>
      <trkpt lat="45.78513" lon="4.88881">
        <ele>225</ele>
        <time>2010-11-23T19:10:14Z</time>
      </trkpt>
      <trkpt lat="45.78513" lon="4.88878">
        <ele>225</ele>
        <time>2010-11-23T19:10:15Z</time>
      </trkpt>
      <trkpt lat="45.78512" lon="4.88874">
        <ele>224</ele>
        <time>2010-11-23T19:10:16Z</time>
      </trkpt>
      <trkpt lat="45.78514" lon="4.8887">
        <ele>224</ele>
        <time>2010-11-23T19:10:18Z</time>
      </trkpt>
      <trkpt lat="45.78514" lon="4.8887">
        <ele>224</ele>
        <time>2010-11-23T19:10:18Z</time>
      </trkpt>
      <trkpt lat="45.78516" lon="4.88866">
        <ele>223.54811096191</ele>
        <time>2010-11-23T19:10:19Z</time>
      </trkpt>
      <trkpt lat="45.78522" lon="4.88861">
        <ele>224</ele>
        <time>2010-11-23T19:10:20Z</time>
      </trkpt>
      <trkpt lat="45.78525" lon="4.8886">
        <ele>225</ele>
        <time>2010-11-23T19:10:21Z</time>
      </trkpt>
      <trkpt lat="45.78528" lon="4.88859">
        <ele>226</ele>
        <time>2010-11-23T19:10:22Z</time>
      </trkpt>
      <trkpt lat="45.78531" lon="4.88858">
        <ele>226</ele>
        <time>2010-11-23T19:10:23Z</time>
      </trkpt>
      <trkpt lat="45.78533" lon="4.88857">
        <ele>225</ele>
        <time>2010-11-23T19:10:24Z</time>
      </trkpt>
      <trkpt lat="45.78536" lon="4.88855">
        <ele>226</ele>
        <time>2010-11-23T19:10:25Z</time>
      </trkpt>
      <trkpt lat="45.78538" lon="4.88854">
        <ele>226</ele>
        <time>2010-11-23T19:10:26Z</time>
      </trkpt>
      <trkpt lat="45.7854" lon="4.88853">
        <ele>226</ele>
        <time>2010-11-23T19:10:27Z</time>
      </trkpt>
      <trkpt lat="45.78542" lon="4.88851">
        <ele>225</ele>
        <time>2010-11-23T19:10:28Z</time>
      </trkpt>
      <trkpt lat="45.78544" lon="4.88848">
        <ele>224</ele>
        <time>2010-11-23T19:10:29Z</time>
      </trkpt>
      <trkpt lat="45.78546" lon="4.88847">
        <ele>224</ele>
        <time>2010-11-23T19:10:30Z</time>
      </trkpt>
      <trkpt lat="45.78548" lon="4.88845">
        <ele>224</ele>
        <time>2010-11-23T19:10:31Z</time>
      </trkpt>
      <trkpt lat="45.78551" lon="4.88843">
        <ele>224</ele>
        <time>2010-11-23T19:10:32Z</time>
      </trkpt>
      <trkpt lat="45.78553" lon="4.88842">
        <ele>224</ele>
        <time>2010-11-23T19:10:33Z</time>
      </trkpt>
      <trkpt lat="45.78555" lon="4.8884">
        <ele>224</ele>
        <time>2010-11-23T19:10:34Z</time>
      </trkpt>
      <trkpt lat="45.78558" lon="4.88837">
        <ele>224</ele>
        <time>2010-11-23T19:10:35Z</time>
      </trkpt>
      <trkpt lat="45.78561" lon="4.88835">
        <ele>225</ele>
        <time>2010-11-23T19:10:36Z</time>
      </trkpt>
      <trkpt lat="45.78564" lon="4.88834">
        <ele>225</ele>
        <time>2010-11-23T19:10:37Z</time>
      </trkpt>
      <trkpt lat="45.78566" lon="4.88833">
        <ele>225</ele>
        <time>2010-11-23T19:10:38Z</time>
      </trkpt>
      <trkpt lat="45.78569" lon="4.88832">
        <ele>225</ele>
        <time>2010-11-23T19:10:39Z</time>
      </trkpt>
      <trkpt lat="45.78572" lon="4.88829">
        <ele>225</ele>
        <time>2010-11-23T19:10:41Z</time>
      </trkpt>
      <trkpt lat="45.78572" lon="4.88829">
        <ele>225</ele>
        <time>2010-11-23T19:10:41Z</time>
      </trkpt>
      <trkpt lat="45.78573" lon="4.88829">
        <ele>225</ele>
        <time>2010-11-23T19:10:42Z</time>
      </trkpt>
      <trkpt lat="45.78579" lon="4.88825">
        <ele>225</ele>
        <time>2010-11-23T19:10:43Z</time>
      </trkpt>
      <trkpt lat="45.78582" lon="4.88823">
        <ele>225</ele>
        <time>2010-11-23T19:10:44Z</time>
      </trkpt>
      <trkpt lat="45.78584" lon="4.88822">
        <ele>224</ele>
        <time>2010-11-23T19:10:45Z</time>
      </trkpt>
      <trkpt lat="45.78587" lon="4.8882">
        <ele>224</ele>
        <time>2010-11-23T19:10:46Z</time>
      </trkpt>
      <trkpt lat="45.78589" lon="4.88818">
        <ele>224</ele>
        <time>2010-11-23T19:10:47Z</time>
      </trkpt>
      <trkpt lat="45.78592" lon="4.88816">
        <ele>224</ele>
        <time>2010-11-23T19:10:48Z</time>
      </trkpt>
      <trkpt lat="45.78594" lon="4.88814">
        <ele>225</ele>
        <time>2010-11-23T19:10:49Z</time>
      </trkpt>
      <trkpt lat="45.78596" lon="4.88812">
        <ele>224</ele>
        <time>2010-11-23T19:10:50Z</time>
      </trkpt>
      <trkpt lat="45.78598" lon="4.88811">
        <ele>224</ele>
        <time>2010-11-23T19:10:51Z</time>
      </trkpt>
      <trkpt lat="45.78601" lon="4.88808">
        <ele>225</ele>
        <time>2010-11-23T19:10:52Z</time>
      </trkpt>
      <trkpt lat="45.78603" lon="4.88807">
        <ele>224</ele>
        <time>2010-11-23T19:10:53Z</time>
      </trkpt>
      <trkpt lat="45.78605" lon="4.88805">
        <ele>224</ele>
        <time>2010-11-23T19:10:54Z</time>
      </trkpt>
      <trkpt lat="45.78608" lon="4.88802">
        <ele>224</ele>
        <time>2010-11-23T19:10:55Z</time>
      </trkpt>
      <trkpt lat="45.7861" lon="4.888">
        <ele>224</ele>
        <time>2010-11-23T19:10:56Z</time>
      </trkpt>
      <trkpt lat="45.78612" lon="4.88797">
        <ele>225</ele>
        <time>2010-11-23T19:10:57Z</time>
      </trkpt>
      <trkpt lat="45.78615" lon="4.88795">
        <ele>225</ele>
        <time>2010-11-23T19:10:58Z</time>
      </trkpt>
      <trkpt lat="45.78618" lon="4.88792">
        <ele>226</ele>
        <time>2010-11-23T19:10:59Z</time>
      </trkpt>
      <trkpt lat="45.7862" lon="4.8879">
        <ele>226</ele>
        <time>2010-11-23T19:11:00Z</time>
      </trkpt>
      <trkpt lat="45.78623" lon="4.88788">
        <ele>226</ele>
        <time>2010-11-23T19:11:01Z</time>
      </trkpt>
      <trkpt lat="45.78624" lon="4.88785">
        <ele>225</ele>
        <time>2010-11-23T19:11:02Z</time>
      </trkpt>
      <trkpt lat="45.78627" lon="4.88783">
        <ele>225</ele>
        <time>2010-11-23T19:11:04Z</time>
      </trkpt>
      <trkpt lat="45.78627" lon="4.88783">
        <ele>225</ele>
        <time>2010-11-23T19:11:04Z</time>
      </trkpt>
      <trkpt lat="45.78629" lon="4.88779">
        <ele>225</ele>
        <time>2010-11-23T19:11:05Z</time>
      </trkpt>
      <trkpt lat="45.78634" lon="4.88774">
        <ele>225</ele>
        <time>2010-11-23T19:11:06Z</time>
      </trkpt>
      <trkpt lat="45.78636" lon="4.88771">
        <ele>225</ele>
        <time>2010-11-23T19:11:07Z</time>
      </trkpt>
      <trkpt lat="45.7864" lon="4.8877">
        <ele>225</ele>
        <time>2010-11-23T19:11:08Z</time>
      </trkpt>
      <trkpt lat="45.78642" lon="4.88768">
        <ele>225</ele>
        <time>2010-11-23T19:11:09Z</time>
      </trkpt>
      <trkpt lat="45.78645" lon="4.88765">
        <ele>225</ele>
        <time>2010-11-23T19:11:10Z</time>
      </trkpt>
      <trkpt lat="45.78647" lon="4.88763">
        <ele>225</ele>
        <time>2010-11-23T19:11:11Z</time>
      </trkpt>
      <trkpt lat="45.78649" lon="4.8876">
        <ele>226</ele>
        <time>2010-11-23T19:11:12Z</time>
      </trkpt>
      <trkpt lat="45.78652" lon="4.88757">
        <ele>227</ele>
        <time>2010-11-23T19:11:13Z</time>
      </trkpt>
      <trkpt lat="45.78654" lon="4.88754">
        <ele>227</ele>
        <time>2010-11-23T19:11:14Z</time>
      </trkpt>
      <trkpt lat="45.78656" lon="4.88751">
        <ele>227</ele>
        <time>2010-11-23T19:11:15Z</time>
      </trkpt>
      <trkpt lat="45.78658" lon="4.88747">
        <ele>227</ele>
        <time>2010-11-23T19:11:16Z</time>
      </trkpt>
      <trkpt lat="45.78661" lon="4.88744">
        <ele>227</ele>
        <time>2010-11-23T19:11:17Z</time>
      </trkpt>
      <trkpt lat="45.78663" lon="4.88741">
        <ele>228</ele>
        <time>2010-11-23T19:11:18Z</time>
      </trkpt>
      <trkpt lat="45.78665" lon="4.88738">
        <ele>228</ele>
        <time>2010-11-23T19:11:19Z</time>
      </trkpt>
      <trkpt lat="45.78668" lon="4.88734">
        <ele>228</ele>
        <time>2010-11-23T19:11:20Z</time>
      </trkpt>
      <trkpt lat="45.7867" lon="4.88731">
        <ele>228</ele>
        <time>2010-11-23T19:11:21Z</time>
      </trkpt>
      <trkpt lat="45.78671" lon="4.88727">
        <ele>228</ele>
        <time>2010-11-23T19:11:22Z</time>
      </trkpt>
      <trkpt lat="45.78672" lon="4.88724">
        <ele>228</ele>
        <time>2010-11-23T19:11:23Z</time>
      </trkpt>
      <trkpt lat="45.78674" lon="4.8872">
        <ele>228</ele>
        <time>2010-11-23T19:11:24Z</time>
      </trkpt>
      <trkpt lat="45.78675" lon="4.88717">
        <ele>228</ele>
        <time>2010-11-23T19:11:25Z</time>
      </trkpt>
      <trkpt lat="45.78677" lon="4.88713">
        <ele>228</ele>
        <time>2010-11-23T19:11:27Z</time>
      </trkpt>
      <trkpt lat="45.78677" lon="4.88713">
        <ele>228</ele>
        <time>2010-11-23T19:11:27Z</time>
      </trkpt>
      <trkpt lat="45.78677" lon="4.8871">
        <ele>228</ele>
        <time>2010-11-23T19:11:28Z</time>
      </trkpt>
      <trkpt lat="45.78679" lon="4.88702">
        <ele>228</ele>
        <time>2010-11-23T19:11:29Z</time>
      </trkpt>
      <trkpt lat="45.78682" lon="4.88698">
        <ele>228</ele>
        <time>2010-11-23T19:11:30Z</time>
      </trkpt>
      <trkpt lat="45.78683" lon="4.88695">
        <ele>228</ele>
        <time>2010-11-23T19:11:31Z</time>
      </trkpt>
      <trkpt lat="45.78684" lon="4.88691">
        <ele>228</ele>
        <time>2010-11-23T19:11:32Z</time>
      </trkpt>
      <trkpt lat="45.78686" lon="4.88688">
        <ele>228</ele>
        <time>2010-11-23T19:11:33Z</time>
      </trkpt>
      <trkpt lat="45.78686" lon="4.88684">
        <ele>228</ele>
        <time>2010-11-23T19:11:34Z</time>
      </trkpt>
      <trkpt lat="45.78687" lon="4.8868">
        <ele>228</ele>
        <time>2010-11-23T19:11:35Z</time>
      </trkpt>
      <trkpt lat="45.78688" lon="4.88676">
        <ele>228</ele>
        <time>2010-11-23T19:11:36Z</time>
      </trkpt>
      <trkpt lat="45.78688" lon="4.88672">
        <ele>227</ele>
        <time>2010-11-23T19:11:37Z</time>
      </trkpt>
      <trkpt lat="45.78688" lon="4.88667">
        <ele>227</ele>
        <time>2010-11-23T19:11:38Z</time>
      </trkpt>
      <trkpt lat="45.7869" lon="4.88665">
        <ele>227</ele>
        <time>2010-11-23T19:11:39Z</time>
      </trkpt>
      <trkpt lat="45.7869" lon="4.88661">
        <ele>227</ele>
        <time>2010-11-23T19:11:40Z</time>
      </trkpt>
      <trkpt lat="45.78691" lon="4.88658">
        <ele>227</ele>
        <time>2010-11-23T19:11:41Z</time>
      </trkpt>
      <trkpt lat="45.78693" lon="4.88654">
        <ele>226</ele>
        <time>2010-11-23T19:11:42Z</time>
      </trkpt>
      <trkpt lat="45.78694" lon="4.88651">
        <ele>226</ele>
        <time>2010-11-23T19:11:43Z</time>
      </trkpt>
      <trkpt lat="45.78695" lon="4.88649">
        <ele>226</ele>
        <time>2010-11-23T19:11:44Z</time>
      </trkpt>
      <trkpt lat="45.78696" lon="4.88648">
        <ele>225</ele>
        <time>2010-11-23T19:11:45Z</time>
      </trkpt>
      <trkpt lat="45.78698" lon="4.88646">
        <ele>226</ele>
        <time>2010-11-23T19:11:46Z</time>
      </trkpt>
      <trkpt lat="45.787" lon="4.88646">
        <ele>225</ele>
        <time>2010-11-23T19:11:47Z</time>
      </trkpt>
      <trkpt lat="45.78703" lon="4.88648">
        <ele>225</ele>
        <time>2010-11-23T19:11:48Z</time>
      </trkpt>
      <trkpt lat="45.78706" lon="4.8865">
        <ele>225</ele>
        <time>2010-11-23T19:11:50Z</time>
      </trkpt>
      <trkpt lat="45.78706" lon="4.8865">
        <ele>225</ele>
        <time>2010-11-23T19:11:50Z</time>
      </trkpt>
      <trkpt lat="45.78708" lon="4.88655">
        <ele>225</ele>
        <time>2010-11-23T19:11:51Z</time>
      </trkpt>
      <trkpt lat="45.78713" lon="4.88663">
        <ele>225</ele>
        <time>2010-11-23T19:11:52Z</time>
      </trkpt>
      <trkpt lat="45.78716" lon="4.88667">
        <ele>224</ele>
        <time>2010-11-23T19:11:53Z</time>
      </trkpt>
      <trkpt lat="45.7872" lon="4.88669">
        <ele>224</ele>
        <time>2010-11-23T19:11:54Z</time>
      </trkpt>
      <trkpt lat="45.78722" lon="4.88671">
        <ele>224</ele>
        <time>2010-11-23T19:11:55Z</time>
      </trkpt>
      <trkpt lat="45.78726" lon="4.88673">
        <ele>224</ele>
        <time>2010-11-23T19:11:56Z</time>
      </trkpt>
      <trkpt lat="45.78729" lon="4.88674">
        <ele>224</ele>
        <time>2010-11-23T19:11:57Z</time>
      </trkpt>
      <trkpt lat="45.78732" lon="4.88675">
        <ele>224</ele>
        <time>2010-11-23T19:11:58Z</time>
      </trkpt>
      <trkpt lat="45.78732" lon="4.88672">
        <ele>223</ele>
        <time>2010-11-23T19:11:59Z</time>
      </trkpt>
      <trkpt lat="45.78734" lon="4.8867">
        <ele>224</ele>
        <time>2010-11-23T19:12:00Z</time>
      </trkpt>
      <trkpt lat="45.78735" lon="4.88668">
        <ele>224</ele>
        <time>2010-11-23T19:12:01Z</time>
      </trkpt>
      <trkpt lat="45.78736" lon="4.88667">
        <ele>224</ele>
        <time>2010-11-23T19:12:02Z</time>
      </trkpt>
      <trkpt lat="45.78738" lon="4.88664">
        <ele>224</ele>
        <time>2010-11-23T19:12:03Z</time>
      </trkpt>
      <trkpt lat="45.78739" lon="4.88661">
        <ele>224</ele>
        <time>2010-11-23T19:12:04Z</time>
      </trkpt>
      <trkpt lat="45.78747" lon="4.88643">
        <ele>223</ele>
        <time>2010-11-23T19:12:10Z</time>
      </trkpt>
      <trkpt lat="45.78748" lon="4.88635">
        <ele>223</ele>
        <time>2010-11-23T19:12:11Z</time>
      </trkpt>
      <trkpt lat="45.7875" lon="4.8863">
        <ele>222</ele>
        <time>2010-11-23T19:12:14Z</time>
      </trkpt>
      <trkpt lat="45.7875" lon="4.8863">
        <ele>222</ele>
        <time>2010-11-23T19:12:14Z</time>
      </trkpt>
      <trkpt lat="45.7875" lon="4.88629">
        <ele>222</ele>
        <time>2010-11-23T19:12:14Z</time>
      </trkpt>
      <trkpt lat="45.78753" lon="4.88621">
        <ele>222</ele>
        <time>2010-11-23T19:12:15Z</time>
      </trkpt>
      <trkpt lat="45.78754" lon="4.88616">
        <ele>222</ele>
        <time>2010-11-23T19:12:16Z</time>
      </trkpt>
      <trkpt lat="45.78755" lon="4.88609">
        <ele>221</ele>
        <time>2010-11-23T19:12:17Z</time>
      </trkpt>
      <trkpt lat="45.78756" lon="4.88604">
        <ele>221</ele>
        <time>2010-11-23T19:12:18Z</time>
      </trkpt>
      <trkpt lat="45.78756" lon="4.88599">
        <ele>222</ele>
        <time>2010-11-23T19:12:19Z</time>
      </trkpt>
      <trkpt lat="45.78757" lon="4.88595">
        <ele>222</ele>
        <time>2010-11-23T19:12:20Z</time>
      </trkpt>
      <trkpt lat="45.78758" lon="4.88589">
        <ele>222</ele>
        <time>2010-11-23T19:12:21Z</time>
      </trkpt>
      <trkpt lat="45.7876" lon="4.88584">
        <ele>222</ele>
        <time>2010-11-23T19:12:22Z</time>
      </trkpt>
      <trkpt lat="45.7876" lon="4.8858">
        <ele>222</ele>
        <time>2010-11-23T19:12:23Z</time>
      </trkpt>
      <trkpt lat="45.78762" lon="4.88576">
        <ele>222</ele>
        <time>2010-11-23T19:12:24Z</time>
      </trkpt>
      <trkpt lat="45.78762" lon="4.88572">
        <ele>222</ele>
        <time>2010-11-23T19:12:25Z</time>
      </trkpt>
      <trkpt lat="45.78762" lon="4.88568">
        <ele>222</ele>
        <time>2010-11-23T19:12:26Z</time>
      </trkpt>
      <trkpt lat="45.78761" lon="4.88566">
        <ele>221</ele>
        <time>2010-11-23T19:12:27Z</time>
      </trkpt>
      <trkpt lat="45.78761" lon="4.88563">
        <ele>221</ele>
        <time>2010-11-23T19:12:28Z</time>
      </trkpt>
      <trkpt lat="45.78763" lon="4.88561">
        <ele>222</ele>
        <time>2010-11-23T19:12:29Z</time>
      </trkpt>
      <trkpt lat="45.78764" lon="4.88559">
        <ele>222</ele>
        <time>2010-11-23T19:12:30Z</time>
      </trkpt>
      <trkpt lat="45.78765" lon="4.88557">
        <ele>222</ele>
        <time>2010-11-23T19:12:31Z</time>
      </trkpt>
      <trkpt lat="45.78768" lon="4.88558">
        <ele>223</ele>
        <time>2010-11-23T19:12:32Z</time>
      </trkpt>
      <trkpt lat="45.78772" lon="4.88558">
        <ele>223</ele>
        <time>2010-11-23T19:12:33Z</time>
      </trkpt>
      <trkpt lat="45.78775" lon="4.88558">
        <ele>223</ele>
        <time>2010-11-23T19:12:34Z</time>
      </trkpt>
      <trkpt lat="45.78779" lon="4.8856">
        <ele>222</ele>
        <time>2010-11-23T19:12:36Z</time>
      </trkpt>
      <trkpt lat="45.78779" lon="4.8856">
        <ele>222</ele>
        <time>2010-11-23T19:12:36Z</time>
      </trkpt>
      <trkpt lat="45.78782" lon="4.88559">
        <ele>222</ele>
        <time>2010-11-23T19:12:37Z</time>
      </trkpt>
      <trkpt lat="45.78788" lon="4.88559">
        <ele>222</ele>
        <time>2010-11-23T19:12:38Z</time>
      </trkpt>
      <trkpt lat="45.78791" lon="4.88558">
        <ele>221</ele>
        <time>2010-11-23T19:12:39Z</time>
      </trkpt>
      <trkpt lat="45.78795" lon="4.88558">
        <ele>220</ele>
        <time>2010-11-23T19:12:40Z</time>
      </trkpt>
      <trkpt lat="45.78797" lon="4.88557">
        <ele>220</ele>
        <time>2010-11-23T19:12:41Z</time>
      </trkpt>
      <trkpt lat="45.78802" lon="4.88557">
        <ele>221</ele>
        <time>2010-11-23T19:12:42Z</time>
      </trkpt>
      <trkpt lat="45.78804" lon="4.88557">
        <ele>220</ele>
        <time>2010-11-23T19:12:43Z</time>
      </trkpt>
      <trkpt lat="45.78807" lon="4.88557">
        <ele>220</ele>
        <time>2010-11-23T19:12:44Z</time>
      </trkpt>
      <trkpt lat="45.7881" lon="4.88556">
        <ele>221</ele>
        <time>2010-11-23T19:12:45Z</time>
      </trkpt>
      <trkpt lat="45.78813" lon="4.88556">
        <ele>221</ele>
        <time>2010-11-23T19:12:46Z</time>
      </trkpt>
      <trkpt lat="45.78817" lon="4.88556">
        <ele>221</ele>
        <time>2010-11-23T19:12:47Z</time>
      </trkpt>
      <trkpt lat="45.7882" lon="4.88555">
        <ele>221</ele>
        <time>2010-11-23T19:12:48Z</time>
      </trkpt>
      <trkpt lat="45.78823" lon="4.88555">
        <ele>221</ele>
        <time>2010-11-23T19:12:49Z</time>
      </trkpt>
      <trkpt lat="45.78825" lon="4.88555">
        <ele>221</ele>
        <time>2010-11-23T19:12:50Z</time>
      </trkpt>
      <trkpt lat="45.78827" lon="4.88554">
        <ele>221</ele>
        <time>2010-11-23T19:12:51Z</time>
      </trkpt>
      <trkpt lat="45.7883" lon="4.88554">
        <ele>221</ele>
        <time>2010-11-23T19:12:52Z</time>
      </trkpt>
      <trkpt lat="45.78833" lon="4.88553">
        <ele>221</ele>
        <time>2010-11-23T19:12:53Z</time>
      </trkpt>
      <trkpt lat="45.78835" lon="4.88551">
        <ele>221</ele>
        <time>2010-11-23T19:12:54Z</time>
      </trkpt>
      <trkpt lat="45.78839" lon="4.88551">
        <ele>221</ele>
        <time>2010-11-23T19:12:55Z</time>
      </trkpt>
      <trkpt lat="45.78842" lon="4.8855">
        <ele>221</ele>
        <time>2010-11-23T19:12:56Z</time>
      </trkpt>
      <trkpt lat="45.78845" lon="4.88549">
        <ele>221</ele>
        <time>2010-11-23T19:12:57Z</time>
      </trkpt>
      <trkpt lat="45.78847" lon="4.88549">
        <ele>221</ele>
        <time>2010-11-23T19:12:59Z</time>
      </trkpt>
      <trkpt lat="45.78847" lon="4.88549">
        <ele>221</ele>
        <time>2010-11-23T19:12:59Z</time>
      </trkpt>
      <trkpt lat="45.78851" lon="4.88549">
        <ele>221</ele>
        <time>2010-11-23T19:13:00Z</time>
      </trkpt>
      <trkpt lat="45.78854" lon="4.88548">
        <ele>221</ele>
        <time>2010-11-23T19:13:01Z</time>
      </trkpt>
      <trkpt lat="45.78856" lon="4.88546">
        <ele>222</ele>
        <time>2010-11-23T19:13:02Z</time>
      </trkpt>
      <trkpt lat="45.78859" lon="4.88543">
        <ele>222</ele>
        <time>2010-11-23T19:13:03Z</time>
      </trkpt>
      <trkpt lat="45.7886" lon="4.8854">
        <ele>221</ele>
        <time>2010-11-23T19:13:04Z</time>
      </trkpt>
      <trkpt lat="45.78861" lon="4.88539">
        <ele>222</ele>
        <time>2010-11-23T19:13:05Z</time>
      </trkpt>
      <trkpt lat="45.78861" lon="4.88534">
        <ele>222</ele>
        <time>2010-11-23T19:13:06Z</time>
      </trkpt>
      <trkpt lat="45.78863" lon="4.88531">
        <ele>222</ele>
        <time>2010-11-23T19:13:07Z</time>
      </trkpt>
      <trkpt lat="45.78865" lon="4.88527">
        <ele>222</ele>
        <time>2010-11-23T19:13:08Z</time>
      </trkpt>
      <trkpt lat="45.78867" lon="4.88524">
        <ele>223</ele>
        <time>2010-11-23T19:13:09Z</time>
      </trkpt>
      <trkpt lat="45.78868" lon="4.8852">
        <ele>223</ele>
        <time>2010-11-23T19:13:10Z</time>
      </trkpt>
      <trkpt lat="45.78869" lon="4.88516">
        <ele>223</ele>
        <time>2010-11-23T19:13:11Z</time>
      </trkpt>
      <trkpt lat="45.7887" lon="4.8851">
        <ele>223</ele>
        <time>2010-11-23T19:13:12Z</time>
      </trkpt>
      <trkpt lat="45.78868" lon="4.88506">
        <ele>223</ele>
        <time>2010-11-23T19:13:13Z</time>
      </trkpt>
      <trkpt lat="45.78868" lon="4.88502">
        <ele>223</ele>
        <time>2010-11-23T19:13:14Z</time>
      </trkpt>
      <trkpt lat="45.78868" lon="4.88498">
        <ele>223</ele>
        <time>2010-11-23T19:13:15Z</time>
      </trkpt>
      <trkpt lat="45.78868" lon="4.88494">
        <ele>223</ele>
        <time>2010-11-23T19:13:16Z</time>
      </trkpt>
      <trkpt lat="45.78868" lon="4.88489">
        <ele>223</ele>
        <time>2010-11-23T19:13:17Z</time>
      </trkpt>
      <trkpt lat="45.78869" lon="4.88485">
        <ele>224</ele>
        <time>2010-11-23T19:13:18Z</time>
      </trkpt>
      <trkpt lat="45.78868" lon="4.88481">
        <ele>224</ele>
        <time>2010-11-23T19:13:19Z</time>
      </trkpt>
      <trkpt lat="45.78867" lon="4.88477">
        <ele>224</ele>
        <time>2010-11-23T19:13:20Z</time>
      </trkpt>
      <trkpt lat="45.78867" lon="4.88472">
        <ele>224</ele>
        <time>2010-11-23T19:13:22Z</time>
      </trkpt>
      <trkpt lat="45.78867" lon="4.88472">
        <ele>224</ele>
        <time>2010-11-23T19:13:22Z</time>
      </trkpt>
      <trkpt lat="45.78866" lon="4.88466">
        <ele>223.22554016113</ele>
        <time>2010-11-23T19:13:23Z</time>
      </trkpt>
      <trkpt lat="45.78865" lon="4.88462">
        <ele>223</ele>
        <time>2010-11-23T19:13:24Z</time>
      </trkpt>
      <trkpt lat="45.78866" lon="4.88456">
        <ele>223</ele>
        <time>2010-11-23T19:13:25Z</time>
      </trkpt>
      <trkpt lat="45.78866" lon="4.88453">
        <ele>223</ele>
        <time>2010-11-23T19:13:26Z</time>
      </trkpt>
      <trkpt lat="45.78866" lon="4.8845">
        <ele>223</ele>
        <time>2010-11-23T19:13:27Z</time>
      </trkpt>
      <trkpt lat="45.78864" lon="4.88446">
        <ele>222</ele>
        <time>2010-11-23T19:13:28Z</time>
      </trkpt>
      <trkpt lat="45.78864" lon="4.88443">
        <ele>222</ele>
        <time>2010-11-23T19:13:29Z</time>
      </trkpt>
      <trkpt lat="45.78864" lon="4.88439">
        <ele>223</ele>
        <time>2010-11-23T19:13:30Z</time>
      </trkpt>
      <trkpt lat="45.78864" lon="4.88435">
        <ele>223</ele>
        <time>2010-11-23T19:13:31Z</time>
      </trkpt>
      <trkpt lat="45.78863" lon="4.88431">
        <ele>223</ele>
        <time>2010-11-23T19:13:32Z</time>
      </trkpt>
      <trkpt lat="45.78863" lon="4.88429">
        <ele>222</ele>
        <time>2010-11-23T19:13:33Z</time>
      </trkpt>
      <trkpt lat="45.78863" lon="4.88425">
        <ele>223</ele>
        <time>2010-11-23T19:13:34Z</time>
      </trkpt>
      <trkpt lat="45.78863" lon="4.88421">
        <ele>223</ele>
        <time>2010-11-23T19:13:35Z</time>
      </trkpt>
      <trkpt lat="45.78863" lon="4.88417">
        <ele>223</ele>
        <time>2010-11-23T19:13:36Z</time>
      </trkpt>
      <trkpt lat="45.78863" lon="4.88411">
        <ele>223</ele>
        <time>2010-11-23T19:13:37Z</time>
      </trkpt>
      <trkpt lat="45.78864" lon="4.88408">
        <ele>224</ele>
        <time>2010-11-23T19:13:38Z</time>
      </trkpt>
      <trkpt lat="45.78865" lon="4.88406">
        <ele>224</ele>
        <time>2010-11-23T19:13:39Z</time>
      </trkpt>
      <trkpt lat="45.78866" lon="4.88403">
        <ele>224</ele>
        <time>2010-11-23T19:13:40Z</time>
      </trkpt>
      <trkpt lat="45.78866" lon="4.884">
        <ele>224</ele>
        <time>2010-11-23T19:13:41Z</time>
      </trkpt>
      <trkpt lat="45.78867" lon="4.88396">
        <ele>223</ele>
        <time>2010-11-23T19:13:42Z</time>
      </trkpt>
      <trkpt lat="45.78868" lon="4.88394">
        <ele>223</ele>
        <time>2010-11-23T19:13:43Z</time>
      </trkpt>
      <trkpt lat="45.78871" lon="4.88393">
        <ele>223</ele>
        <time>2010-11-23T19:13:45Z</time>
      </trkpt>
      <trkpt lat="45.78871" lon="4.88393">
        <ele>222.99432373047</ele>
        <time>2010-11-23T19:13:45Z</time>
      </trkpt>
      <trkpt lat="45.78873" lon="4.88393">
        <ele>222.99583435059</ele>
        <time>2010-11-23T19:13:46Z</time>
      </trkpt>
      <trkpt lat="45.7888" lon="4.88394">
        <ele>222.99992370605</ele>
        <time>2010-11-23T19:13:47Z</time>
      </trkpt>
      <trkpt lat="45.78883" lon="4.88394">
        <ele>223</ele>
        <time>2010-11-23T19:13:48Z</time>
      </trkpt>
      <trkpt lat="45.78886" lon="4.88395">
        <ele>223</ele>
        <time>2010-11-23T19:13:49Z</time>
      </trkpt>
      <trkpt lat="45.78889" lon="4.88395">
        <ele>224</ele>
        <time>2010-11-23T19:13:50Z</time>
      </trkpt>
      <trkpt lat="45.78892" lon="4.88396">
        <ele>223</ele>
        <time>2010-11-23T19:13:51Z</time>
      </trkpt>
      <trkpt lat="45.78895" lon="4.88397">
        <ele>223</ele>
        <time>2010-11-23T19:13:52Z</time>
      </trkpt>
      <trkpt lat="45.78898" lon="4.88398">
        <ele>224</ele>
        <time>2010-11-23T19:13:53Z</time>
      </trkpt>
      <trkpt lat="45.789" lon="4.88399">
        <ele>224</ele>
        <time>2010-11-23T19:13:54Z</time>
      </trkpt>
      <trkpt lat="45.78903" lon="4.884">
        <ele>224</ele>
        <time>2010-11-23T19:13:55Z</time>
      </trkpt>
      <trkpt lat="45.78905" lon="4.884">
        <ele>224</ele>
        <time>2010-11-23T19:13:56Z</time>
      </trkpt>
      <trkpt lat="45.78907" lon="4.88401">
        <ele>225</ele>
        <time>2010-11-23T19:13:57Z</time>
      </trkpt>
      <trkpt lat="45.78909" lon="4.88401">
        <ele>224</ele>
        <time>2010-11-23T19:13:58Z</time>
      </trkpt>
      <trkpt lat="45.78912" lon="4.88401">
        <ele>223</ele>
        <time>2010-11-23T19:13:59Z</time>
      </trkpt>
      <trkpt lat="45.78913" lon="4.88401">
        <ele>223</ele>
        <time>2010-11-23T19:14:00Z</time>
      </trkpt>
      <trkpt lat="45.78916" lon="4.884">
        <ele>221</ele>
        <time>2010-11-23T19:14:01Z</time>
      </trkpt>
      <trkpt lat="45.78918" lon="4.88399">
        <ele>221</ele>
        <time>2010-11-23T19:14:02Z</time>
      </trkpt>
      <trkpt lat="45.78921" lon="4.88398">
        <ele>221</ele>
        <time>2010-11-23T19:14:03Z</time>
      </trkpt>
      <trkpt lat="45.78924" lon="4.88398">
        <ele>220</ele>
        <time>2010-11-23T19:14:04Z</time>
      </trkpt>
      <trkpt lat="45.78927" lon="4.88397">
        <ele>220</ele>
        <time>2010-11-23T19:14:05Z</time>
      </trkpt>
      <trkpt lat="45.78929" lon="4.88397">
        <ele>219</ele>
        <time>2010-11-23T19:14:06Z</time>
      </trkpt>
      <trkpt lat="45.78932" lon="4.88398">
        <ele>219</ele>
        <time>2010-11-23T19:14:08Z</time>
      </trkpt>
      <trkpt lat="45.78932" lon="4.88398">
        <ele>219</ele>
        <time>2010-11-23T19:14:08Z</time>
      </trkpt>
      <trkpt lat="45.78935" lon="4.88399">
        <ele>219.45658874512</ele>
        <time>2010-11-23T19:14:09Z</time>
      </trkpt>
      <trkpt lat="45.78942" lon="4.88402">
        <ele>221</ele>
        <time>2010-11-23T19:14:10Z</time>
      </trkpt>
      <trkpt lat="45.78944" lon="4.88401">
        <ele>221</ele>
        <time>2010-11-23T19:14:11Z</time>
      </trkpt>
      <trkpt lat="45.78948" lon="4.88402">
        <ele>222</ele>
        <time>2010-11-23T19:14:12Z</time>
      </trkpt>
      <trkpt lat="45.7895" lon="4.884">
        <ele>221</ele>
        <time>2010-11-23T19:14:13Z</time>
      </trkpt>
      <trkpt lat="45.78952" lon="4.88396">
        <ele>220</ele>
        <time>2010-11-23T19:14:14Z</time>
      </trkpt>
      <trkpt lat="45.78954" lon="4.88393">
        <ele>219</ele>
        <time>2010-11-23T19:14:15Z</time>
      </trkpt>
      <trkpt lat="45.78956" lon="4.8839">
        <ele>219</ele>
        <time>2010-11-23T19:14:16Z</time>
      </trkpt>
      <trkpt lat="45.78958" lon="4.88386">
        <ele>219</ele>
        <time>2010-11-23T19:14:17Z</time>
      </trkpt>
      <trkpt lat="45.7896" lon="4.88383">
        <ele>219</ele>
        <time>2010-11-23T19:14:18Z</time>
      </trkpt>
      <trkpt lat="45.78961" lon="4.88379">
        <ele>219</ele>
        <time>2010-11-23T19:14:19Z</time>
      </trkpt>
      <trkpt lat="45.78962" lon="4.88373">
        <ele>219</ele>
        <time>2010-11-23T19:14:20Z</time>
      </trkpt>
      <trkpt lat="45.78963" lon="4.88369">
        <ele>220</ele>
        <time>2010-11-23T19:14:21Z</time>
      </trkpt>
      <trkpt lat="45.78965" lon="4.88364">
        <ele>220</ele>
        <time>2010-11-23T19:14:22Z</time>
      </trkpt>
      <trkpt lat="45.78966" lon="4.88361">
        <ele>220</ele>
        <time>2010-11-23T19:14:23Z</time>
      </trkpt>
      <trkpt lat="45.78967" lon="4.88358">
        <ele>220</ele>
        <time>2010-11-23T19:14:24Z</time>
      </trkpt>
      <trkpt lat="45.7897" lon="4.88356">
        <ele>220</ele>
        <time>2010-11-23T19:14:25Z</time>
      </trkpt>
      <trkpt lat="45.78972" lon="4.88354">
        <ele>220</ele>
        <time>2010-11-23T19:14:26Z</time>
      </trkpt>
      <trkpt lat="45.78972" lon="4.88353">
        <ele>220</ele>
        <time>2010-11-23T19:14:27Z</time>
      </trkpt>
      <trkpt lat="45.78974" lon="4.88351">
        <ele>220</ele>
        <time>2010-11-23T19:14:28Z</time>
      </trkpt>
      <trkpt lat="45.78977" lon="4.8835">
        <ele>220</ele>
        <time>2010-11-23T19:14:29Z</time>
      </trkpt>
      <trkpt lat="45.78981" lon="4.88349">
        <ele>220</ele>
        <time>2010-11-23T19:14:31Z</time>
      </trkpt>
      <trkpt lat="45.78981" lon="4.88349">
        <ele>220</ele>
        <time>2010-11-23T19:14:31Z</time>
      </trkpt>
      <trkpt lat="45.78983" lon="4.88349">
        <ele>220</ele>
        <time>2010-11-23T19:14:32Z</time>
      </trkpt>
      <trkpt lat="45.7899" lon="4.88349">
        <ele>220</ele>
        <time>2010-11-23T19:14:33Z</time>
      </trkpt>
      <trkpt lat="45.78993" lon="4.88349">
        <ele>220</ele>
        <time>2010-11-23T19:14:34Z</time>
      </trkpt>
      <trkpt lat="45.78995" lon="4.88349">
        <ele>220</ele>
        <time>2010-11-23T19:14:35Z</time>
      </trkpt>
      <trkpt lat="45.78996" lon="4.88349">
        <ele>221</ele>
        <time>2010-11-23T19:14:36Z</time>
      </trkpt>
      <trkpt lat="45.78999" lon="4.8835">
        <ele>221</ele>
        <time>2010-11-23T19:14:37Z</time>
      </trkpt>
      <trkpt lat="45.79002" lon="4.8835">
        <ele>221</ele>
        <time>2010-11-23T19:14:38Z</time>
      </trkpt>
      <trkpt lat="45.79004" lon="4.8835">
        <ele>221</ele>
        <time>2010-11-23T19:14:39Z</time>
      </trkpt>
      <trkpt lat="45.79007" lon="4.8835">
        <ele>221</ele>
        <time>2010-11-23T19:14:40Z</time>
      </trkpt>
      <trkpt lat="45.79009" lon="4.8835">
        <ele>220</ele>
        <time>2010-11-23T19:14:41Z</time>
      </trkpt>
      <trkpt lat="45.79013" lon="4.8835">
        <ele>220</ele>
        <time>2010-11-23T19:14:42Z</time>
      </trkpt>
      <trkpt lat="45.79015" lon="4.8835">
        <ele>220</ele>
        <time>2010-11-23T19:14:43Z</time>
      </trkpt>
      <trkpt lat="45.79017" lon="4.88352">
        <ele>220</ele>
        <time>2010-11-23T19:14:44Z</time>
      </trkpt>
      <trkpt lat="45.79021" lon="4.88353">
        <ele>220</ele>
        <time>2010-11-23T19:14:45Z</time>
      </trkpt>
      <trkpt lat="45.79023" lon="4.88354">
        <ele>220</ele>
        <time>2010-11-23T19:14:46Z</time>
      </trkpt>
      <trkpt lat="45.79025" lon="4.88356">
        <ele>220</ele>
        <time>2010-11-23T19:14:47Z</time>
      </trkpt>
      <trkpt lat="45.79028" lon="4.88357">
        <ele>220</ele>
        <time>2010-11-23T19:14:48Z</time>
      </trkpt>
      <trkpt lat="45.79029" lon="4.88359">
        <ele>220</ele>
        <time>2010-11-23T19:14:49Z</time>
      </trkpt>
      <trkpt lat="45.79032" lon="4.88359">
        <ele>220</ele>
        <time>2010-11-23T19:14:50Z</time>
      </trkpt>
      <trkpt lat="45.79035" lon="4.88362">
        <ele>219</ele>
        <time>2010-11-23T19:14:51Z</time>
      </trkpt>
      <trkpt lat="45.79039" lon="4.88362">
        <ele>218</ele>
        <time>2010-11-23T19:14:52Z</time>
      </trkpt>
      <trkpt lat="45.79042" lon="4.88362">
        <ele>218</ele>
        <time>2010-11-23T19:14:54Z</time>
      </trkpt>
      <trkpt lat="45.79042" lon="4.88362">
        <ele>218</ele>
        <time>2010-11-23T19:14:54Z</time>
      </trkpt>
      <trkpt lat="45.79044" lon="4.88363">
        <ele>218</ele>
        <time>2010-11-23T19:14:55Z</time>
      </trkpt>
      <trkpt lat="45.79051" lon="4.88362">
        <ele>218.99096679688</ele>
        <time>2010-11-23T19:14:56Z</time>
      </trkpt>
      <trkpt lat="45.79053" lon="4.88361">
        <ele>219</ele>
        <time>2010-11-23T19:14:57Z</time>
      </trkpt>
      <trkpt lat="45.79057" lon="4.88361">
        <ele>219</ele>
        <time>2010-11-23T19:14:58Z</time>
      </trkpt>
      <trkpt lat="45.79059" lon="4.88359">
        <ele>219</ele>
        <time>2010-11-23T19:14:59Z</time>
      </trkpt>
      <trkpt lat="45.79061" lon="4.88357">
        <ele>218</ele>
        <time>2010-11-23T19:15:00Z</time>
      </trkpt>
      <trkpt lat="45.79065" lon="4.88356">
        <ele>218</ele>
        <time>2010-11-23T19:15:01Z</time>
      </trkpt>
      <trkpt lat="45.79067" lon="4.88354">
        <ele>218</ele>
        <time>2010-11-23T19:15:02Z</time>
      </trkpt>
      <trkpt lat="45.79069" lon="4.88352">
        <ele>218</ele>
        <time>2010-11-23T19:15:03Z</time>
      </trkpt>
      <trkpt lat="45.79072" lon="4.88349">
        <ele>219</ele>
        <time>2010-11-23T19:15:04Z</time>
      </trkpt>
      <trkpt lat="45.79075" lon="4.88348">
        <ele>219</ele>
        <time>2010-11-23T19:15:05Z</time>
      </trkpt>
      <trkpt lat="45.79075" lon="4.88348">
        <ele>219</ele>
        <time>2010-11-23T19:15:06Z</time>
      </trkpt>
      <trkpt lat="45.79081" lon="4.88343">
        <ele>219</ele>
        <time>2010-11-23T19:15:07Z</time>
      </trkpt>
      <trkpt lat="45.79082" lon="4.88339">
        <ele>220</ele>
        <time>2010-11-23T19:15:08Z</time>
      </trkpt>
      <trkpt lat="45.79085" lon="4.88337">
        <ele>221</ele>
        <time>2010-11-23T19:15:09Z</time>
      </trkpt>
      <trkpt lat="45.79087" lon="4.88334">
        <ele>221</ele>
        <time>2010-11-23T19:15:10Z</time>
      </trkpt>
      <trkpt lat="45.79089" lon="4.88332">
        <ele>221</ele>
        <time>2010-11-23T19:15:11Z</time>
      </trkpt>
      <trkpt lat="45.7909" lon="4.8833">
        <ele>221</ele>
        <time>2010-11-23T19:15:12Z</time>
      </trkpt>
      <trkpt lat="45.79091" lon="4.88327">
        <ele>220</ele>
        <time>2010-11-23T19:15:13Z</time>
      </trkpt>
      <trkpt lat="45.79093" lon="4.88324">
        <ele>220</ele>
        <time>2010-11-23T19:15:14Z</time>
      </trkpt>
      <trkpt lat="45.79095" lon="4.88321">
        <ele>220</ele>
        <time>2010-11-23T19:15:15Z</time>
      </trkpt>
      <trkpt lat="45.79096" lon="4.88318">
        <ele>221</ele>
        <time>2010-11-23T19:15:18Z</time>
      </trkpt>
      <trkpt lat="45.79096" lon="4.88318">
        <ele>221</ele>
        <time>2010-11-23T19:15:18Z</time>
      </trkpt>
      <trkpt lat="45.79098" lon="4.88315">
        <ele>221</ele>
        <time>2010-11-23T19:15:19Z</time>
      </trkpt>
      <trkpt lat="45.79099" lon="4.88313">
        <ele>221</ele>
        <time>2010-11-23T19:15:19Z</time>
      </trkpt>
      <trkpt lat="45.79102" lon="4.88308">
        <ele>221</ele>
        <time>2010-11-23T19:15:20Z</time>
      </trkpt>
      <trkpt lat="45.79104" lon="4.88304">
        <ele>221</ele>
        <time>2010-11-23T19:15:21Z</time>
      </trkpt>
      <trkpt lat="45.79109" lon="4.88304">
        <ele>220</ele>
        <time>2010-11-23T19:15:22Z</time>
      </trkpt>
      <trkpt lat="45.79111" lon="4.883">
        <ele>220</ele>
        <time>2010-11-23T19:15:24Z</time>
      </trkpt>
      <trkpt lat="45.79112" lon="4.88299">
        <ele>219.34719848633</ele>
        <time>2010-11-23T19:15:24Z</time>
      </trkpt>
      <trkpt lat="45.79116" lon="4.88296">
        <ele>219</ele>
        <time>2010-11-23T19:15:25Z</time>
      </trkpt>
      <trkpt lat="45.79117" lon="4.88292">
        <ele>219</ele>
        <time>2010-11-23T19:15:26Z</time>
      </trkpt>
      <trkpt lat="45.7912" lon="4.8829">
        <ele>219</ele>
        <time>2010-11-23T19:15:27Z</time>
      </trkpt>
      <trkpt lat="45.79124" lon="4.88287">
        <ele>221</ele>
        <time>2010-11-23T19:15:28Z</time>
      </trkpt>
      <trkpt lat="45.79125" lon="4.88284">
        <ele>221</ele>
        <time>2010-11-23T19:15:29Z</time>
      </trkpt>
      <trkpt lat="45.79127" lon="4.88281">
        <ele>220</ele>
        <time>2010-11-23T19:15:30Z</time>
      </trkpt>
      <trkpt lat="45.79128" lon="4.88277">
        <ele>219</ele>
        <time>2010-11-23T19:15:31Z</time>
      </trkpt>
      <trkpt lat="45.79131" lon="4.88274">
        <ele>219</ele>
        <time>2010-11-23T19:15:32Z</time>
      </trkpt>
      <trkpt lat="45.79132" lon="4.8827">
        <ele>219</ele>
        <time>2010-11-23T19:15:33Z</time>
      </trkpt>
      <trkpt lat="45.79132" lon="4.88266">
        <ele>219</ele>
        <time>2010-11-23T19:15:34Z</time>
      </trkpt>
      <trkpt lat="45.79129" lon="4.88261">
        <ele>219</ele>
        <time>2010-11-23T19:15:35Z</time>
      </trkpt>
      <trkpt lat="45.79129" lon="4.88257">
        <ele>218</ele>
        <time>2010-11-23T19:15:36Z</time>
      </trkpt>
      <trkpt lat="45.79129" lon="4.88251">
        <ele>219</ele>
        <time>2010-11-23T19:15:37Z</time>
      </trkpt>
      <trkpt lat="45.79128" lon="4.88247">
        <ele>219</ele>
        <time>2010-11-23T19:15:38Z</time>
      </trkpt>
      <trkpt lat="45.79127" lon="4.88242">
        <ele>219</ele>
        <time>2010-11-23T19:15:41Z</time>
      </trkpt>
      <trkpt lat="45.79127" lon="4.88242">
        <ele>219</ele>
        <time>2010-11-23T19:15:41Z</time>
      </trkpt>
      <trkpt lat="45.79127" lon="4.88242">
        <ele>219.00225830078</ele>
        <time>2010-11-23T19:15:41Z</time>
      </trkpt>
      <trkpt lat="45.79125" lon="4.88235">
        <ele>219.5779876709</ele>
        <time>2010-11-23T19:15:42Z</time>
      </trkpt>
      <trkpt lat="45.79123" lon="4.88226">
        <ele>220</ele>
        <time>2010-11-23T19:15:43Z</time>
      </trkpt>
      <trkpt lat="45.79121" lon="4.88223">
        <ele>220</ele>
        <time>2010-11-23T19:15:44Z</time>
      </trkpt>
      <trkpt lat="45.79121" lon="4.88219">
        <ele>220</ele>
        <time>2010-11-23T19:15:45Z</time>
      </trkpt>
      <trkpt lat="45.79119" lon="4.88216">
        <ele>220</ele>
        <time>2010-11-23T19:15:46Z</time>
      </trkpt>
      <trkpt lat="45.79118" lon="4.88212">
        <ele>220</ele>
        <time>2010-11-23T19:15:47Z</time>
      </trkpt>
      <trkpt lat="45.79117" lon="4.88208">
        <ele>220</ele>
        <time>2010-11-23T19:15:48Z</time>
      </trkpt>
      <trkpt lat="45.79116" lon="4.88204">
        <ele>220</ele>
        <time>2010-11-23T19:15:49Z</time>
      </trkpt>
      <trkpt lat="45.79116" lon="4.882">
        <ele>221</ele>
        <time>2010-11-23T19:15:50Z</time>
      </trkpt>
      <trkpt lat="45.79116" lon="4.88196">
        <ele>221</ele>
        <time>2010-11-23T19:15:51Z</time>
      </trkpt>
      <trkpt lat="45.79116" lon="4.88193">
        <ele>221</ele>
        <time>2010-11-23T19:15:52Z</time>
      </trkpt>
      <trkpt lat="45.79116" lon="4.8819">
        <ele>221</ele>
        <time>2010-11-23T19:15:53Z</time>
      </trkpt>
      <trkpt lat="45.79117" lon="4.88186">
        <ele>221</ele>
        <time>2010-11-23T19:15:54Z</time>
      </trkpt>
      <trkpt lat="45.79119" lon="4.88182">
        <ele>221</ele>
        <time>2010-11-23T19:15:55Z</time>
      </trkpt>
      <trkpt lat="45.79121" lon="4.88179">
        <ele>222</ele>
        <time>2010-11-23T19:15:56Z</time>
      </trkpt>
      <trkpt lat="45.79122" lon="4.88177">
        <ele>222</ele>
        <time>2010-11-23T19:15:57Z</time>
      </trkpt>
      <trkpt lat="45.79124" lon="4.88173">
        <ele>222</ele>
        <time>2010-11-23T19:15:58Z</time>
      </trkpt>
      <trkpt lat="45.79126" lon="4.88171">
        <ele>222</ele>
        <time>2010-11-23T19:15:59Z</time>
      </trkpt>
      <trkpt lat="45.79127" lon="4.88167">
        <ele>222</ele>
        <time>2010-11-23T19:16:00Z</time>
      </trkpt>
      <trkpt lat="45.79129" lon="4.88164">
        <ele>221</ele>
        <time>2010-11-23T19:16:01Z</time>
      </trkpt>
      <trkpt lat="45.79131" lon="4.8816">
        <ele>221</ele>
        <time>2010-11-23T19:16:04Z</time>
      </trkpt>
      <trkpt lat="45.79131" lon="4.8816">
        <ele>221</ele>
        <time>2010-11-23T19:16:04Z</time>
      </trkpt>
      <trkpt lat="45.79131" lon="4.88159">
        <ele>221.16493225098</ele>
        <time>2010-11-23T19:16:04Z</time>
      </trkpt>
      <trkpt lat="45.79135" lon="4.88152">
        <ele>221.78788757324</ele>
        <time>2010-11-23T19:16:05Z</time>
      </trkpt>
      <trkpt lat="45.79138" lon="4.88147">
        <ele>222</ele>
        <time>2010-11-23T19:16:06Z</time>
      </trkpt>
      <trkpt lat="45.7914" lon="4.88145">
        <ele>222</ele>
        <time>2010-11-23T19:16:07Z</time>
      </trkpt>
      <trkpt lat="45.79142" lon="4.88142">
        <ele>223</ele>
        <time>2010-11-23T19:16:08Z</time>
      </trkpt>
      <trkpt lat="45.79144" lon="4.88141">
        <ele>223</ele>
        <time>2010-11-23T19:16:09Z</time>
      </trkpt>
      <trkpt lat="45.79146" lon="4.88139">
        <ele>222</ele>
        <time>2010-11-23T19:16:10Z</time>
      </trkpt>
      <trkpt lat="45.79148" lon="4.88138">
        <ele>223</ele>
        <time>2010-11-23T19:16:11Z</time>
      </trkpt>
      <trkpt lat="45.79151" lon="4.88137">
        <ele>223</ele>
        <time>2010-11-23T19:16:12Z</time>
      </trkpt>
      <trkpt lat="45.79154" lon="4.88136">
        <ele>223</ele>
        <time>2010-11-23T19:16:13Z</time>
      </trkpt>
      <trkpt lat="45.79156" lon="4.88135">
        <ele>223</ele>
        <time>2010-11-23T19:16:14Z</time>
      </trkpt>
      <trkpt lat="45.7916" lon="4.88134">
        <ele>223</ele>
        <time>2010-11-23T19:16:15Z</time>
      </trkpt>
      <trkpt lat="45.79163" lon="4.88136">
        <ele>223</ele>
        <time>2010-11-23T19:16:16Z</time>
      </trkpt>
      <trkpt lat="45.79165" lon="4.88136">
        <ele>224</ele>
        <time>2010-11-23T19:16:17Z</time>
      </trkpt>
      <trkpt lat="45.79169" lon="4.88136">
        <ele>224</ele>
        <time>2010-11-23T19:16:18Z</time>
      </trkpt>
      <trkpt lat="45.79171" lon="4.88135">
        <ele>224</ele>
        <time>2010-11-23T19:16:19Z</time>
      </trkpt>
      <trkpt lat="45.79174" lon="4.88134">
        <ele>224</ele>
        <time>2010-11-23T19:16:20Z</time>
      </trkpt>
      <trkpt lat="45.79177" lon="4.88133">
        <ele>224</ele>
        <time>2010-11-23T19:16:21Z</time>
      </trkpt>
      <trkpt lat="45.79179" lon="4.88133">
        <ele>224</ele>
        <time>2010-11-23T19:16:22Z</time>
      </trkpt>
      <trkpt lat="45.79182" lon="4.88131">
        <ele>224</ele>
        <time>2010-11-23T19:16:23Z</time>
      </trkpt>
      <trkpt lat="45.79185" lon="4.8813">
        <ele>224</ele>
        <time>2010-11-23T19:16:24Z</time>
      </trkpt>
      <trkpt lat="45.79188" lon="4.88129">
        <ele>224</ele>
        <time>2010-11-23T19:16:26Z</time>
      </trkpt>
      <trkpt lat="45.79188" lon="4.88129">
        <ele>224</ele>
        <time>2010-11-23T19:16:26Z</time>
      </trkpt>
      <trkpt lat="45.7919" lon="4.88128">
        <ele>224</ele>
        <time>2010-11-23T19:16:27Z</time>
      </trkpt>
      <trkpt lat="45.79195" lon="4.88125">
        <ele>224</ele>
        <time>2010-11-23T19:16:28Z</time>
      </trkpt>
      <trkpt lat="45.79198" lon="4.88123">
        <ele>224</ele>
        <time>2010-11-23T19:16:29Z</time>
      </trkpt>
      <trkpt lat="45.792" lon="4.88122">
        <ele>223</ele>
        <time>2010-11-23T19:16:30Z</time>
      </trkpt>
      <trkpt lat="45.79203" lon="4.88121">
        <ele>222</ele>
        <time>2010-11-23T19:16:31Z</time>
      </trkpt>
      <trkpt lat="45.79205" lon="4.88118">
        <ele>222</ele>
        <time>2010-11-23T19:16:32Z</time>
      </trkpt>
      <trkpt lat="45.79207" lon="4.88115">
        <ele>222</ele>
        <time>2010-11-23T19:16:33Z</time>
      </trkpt>
      <trkpt lat="45.79209" lon="4.88112">
        <ele>222</ele>
        <time>2010-11-23T19:16:34Z</time>
      </trkpt>
      <trkpt lat="45.79212" lon="4.8811">
        <ele>222</ele>
        <time>2010-11-23T19:16:35Z</time>
      </trkpt>
      <trkpt lat="45.79214" lon="4.88109">
        <ele>223</ele>
        <time>2010-11-23T19:16:36Z</time>
      </trkpt>
      <trkpt lat="45.79217" lon="4.88108">
        <ele>223</ele>
        <time>2010-11-23T19:16:37Z</time>
      </trkpt>
      <trkpt lat="45.7922" lon="4.88107">
        <ele>223</ele>
        <time>2010-11-23T19:16:38Z</time>
      </trkpt>
      <trkpt lat="45.79222" lon="4.88106">
        <ele>223</ele>
        <time>2010-11-23T19:16:39Z</time>
      </trkpt>
      <trkpt lat="45.79224" lon="4.88104">
        <ele>224</ele>
        <time>2010-11-23T19:16:40Z</time>
      </trkpt>
      <trkpt lat="45.79227" lon="4.88101">
        <ele>224</ele>
        <time>2010-11-23T19:16:41Z</time>
      </trkpt>
      <trkpt lat="45.7923" lon="4.88099">
        <ele>224</ele>
        <time>2010-11-23T19:16:42Z</time>
      </trkpt>
      <trkpt lat="45.79231" lon="4.88096">
        <ele>223</ele>
        <time>2010-11-23T19:16:43Z</time>
      </trkpt>
      <trkpt lat="45.79233" lon="4.88094">
        <ele>223</ele>
        <time>2010-11-23T19:16:44Z</time>
      </trkpt>
      <trkpt lat="45.79234" lon="4.88093">
        <ele>223</ele>
        <time>2010-11-23T19:16:45Z</time>
      </trkpt>
      <trkpt lat="45.79236" lon="4.88092">
        <ele>223</ele>
        <time>2010-11-23T19:16:46Z</time>
      </trkpt>
      <trkpt lat="45.79237" lon="4.88089">
        <ele>223</ele>
        <time>2010-11-23T19:16:47Z</time>
      </trkpt>
      <trkpt lat="45.79242" lon="4.8809">
        <ele>223</ele>
        <time>2010-11-23T19:16:50Z</time>
      </trkpt>
      <trkpt lat="45.79242" lon="4.8809">
        <ele>222.99580383301</ele>
        <time>2010-11-23T19:16:50Z</time>
      </trkpt>
      <trkpt lat="45.79243" lon="4.88089">
        <ele>222.99655151367</ele>
        <time>2010-11-23T19:16:50Z</time>
      </trkpt>
      <trkpt lat="45.7925" lon="4.88088">
        <ele>223.69010925293</ele>
        <time>2010-11-23T19:16:51Z</time>
      </trkpt>
      <trkpt lat="45.79256" lon="4.88085">
        <ele>223</ele>
        <time>2010-11-23T19:16:52Z</time>
      </trkpt>
      <trkpt lat="45.79258" lon="4.88082">
        <ele>223</ele>
        <time>2010-11-23T19:16:53Z</time>
      </trkpt>
      <trkpt lat="45.79258" lon="4.88078">
        <ele>222</ele>
        <time>2010-11-23T19:16:54Z</time>
      </trkpt>
      <trkpt lat="45.79255" lon="4.88075">
        <ele>221</ele>
        <time>2010-11-23T19:16:55Z</time>
      </trkpt>
      <trkpt lat="45.79254" lon="4.88072">
        <ele>220</ele>
        <time>2010-11-23T19:16:56Z</time>
      </trkpt>
      <trkpt lat="45.79253" lon="4.88071">
        <ele>219</ele>
        <time>2010-11-23T19:16:57Z</time>
      </trkpt>
      <trkpt lat="45.79249" lon="4.88071">
        <ele>219</ele>
        <time>2010-11-23T19:16:58Z</time>
      </trkpt>
      <trkpt lat="45.79246" lon="4.88069">
        <ele>218</ele>
        <time>2010-11-23T19:16:59Z</time>
      </trkpt>
      <trkpt lat="45.79244" lon="4.88067">
        <ele>218</ele>
        <time>2010-11-23T19:17:00Z</time>
      </trkpt>
      <trkpt lat="45.79241" lon="4.88064">
        <ele>218</ele>
        <time>2010-11-23T19:17:01Z</time>
      </trkpt>
      <trkpt lat="45.79238" lon="4.88063">
        <ele>218</ele>
        <time>2010-11-23T19:17:02Z</time>
      </trkpt>
      <trkpt lat="45.79236" lon="4.88062">
        <ele>218</ele>
        <time>2010-11-23T19:17:03Z</time>
      </trkpt>
      <trkpt lat="45.79234" lon="4.8806">
        <ele>217</ele>
        <time>2010-11-23T19:17:04Z</time>
      </trkpt>
      <trkpt lat="45.79231" lon="4.88059">
        <ele>217</ele>
        <time>2010-11-23T19:17:05Z</time>
      </trkpt>
      <trkpt lat="45.79228" lon="4.88056">
        <ele>217</ele>
        <time>2010-11-23T19:17:06Z</time>
      </trkpt>
      <trkpt lat="45.79226" lon="4.88055">
        <ele>217</ele>
        <time>2010-11-23T19:17:07Z</time>
      </trkpt>
      <trkpt lat="45.79223" lon="4.88053">
        <ele>217</ele>
        <time>2010-11-23T19:17:08Z</time>
      </trkpt>
      <trkpt lat="45.79221" lon="4.88052">
        <ele>216</ele>
        <time>2010-11-23T19:17:09Z</time>
      </trkpt>
      <trkpt lat="45.79219" lon="4.8805">
        <ele>216</ele>
        <time>2010-11-23T19:17:10Z</time>
      </trkpt>
      <trkpt lat="45.79216" lon="4.88048">
        <ele>216</ele>
        <time>2010-11-23T19:17:12Z</time>
      </trkpt>
      <trkpt lat="45.79216" lon="4.88048">
        <ele>216</ele>
        <time>2010-11-23T19:17:12Z</time>
      </trkpt>
      <trkpt lat="45.79215" lon="4.88046">
        <ele>216</ele>
        <time>2010-11-23T19:17:13Z</time>
      </trkpt>
      <trkpt lat="45.79209" lon="4.88042">
        <ele>216</ele>
        <time>2010-11-23T19:17:14Z</time>
      </trkpt>
      <trkpt lat="45.79207" lon="4.8804">
        <ele>216</ele>
        <time>2010-11-23T19:17:15Z</time>
      </trkpt>
      <trkpt lat="45.79204" lon="4.88039">
        <ele>215</ele>
        <time>2010-11-23T19:17:16Z</time>
      </trkpt>
      <trkpt lat="45.79202" lon="4.88037">
        <ele>215</ele>
        <time>2010-11-23T19:17:17Z</time>
      </trkpt>
      <trkpt lat="45.792" lon="4.88035">
        <ele>215</ele>
        <time>2010-11-23T19:17:18Z</time>
      </trkpt>
      <trkpt lat="45.79197" lon="4.88033">
        <ele>215</ele>
        <time>2010-11-23T19:17:19Z</time>
      </trkpt>
      <trkpt lat="45.79195" lon="4.88031">
        <ele>215</ele>
        <time>2010-11-23T19:17:20Z</time>
      </trkpt>
      <trkpt lat="45.79192" lon="4.88029">
        <ele>216</ele>
        <time>2010-11-23T19:17:21Z</time>
      </trkpt>
      <trkpt lat="45.7919" lon="4.88027">
        <ele>215</ele>
        <time>2010-11-23T19:17:22Z</time>
      </trkpt>
      <trkpt lat="45.79188" lon="4.88026">
        <ele>215</ele>
        <time>2010-11-23T19:17:23Z</time>
      </trkpt>
      <trkpt lat="45.79186" lon="4.88024">
        <ele>215</ele>
        <time>2010-11-23T19:17:24Z</time>
      </trkpt>
      <trkpt lat="45.79183" lon="4.88021">
        <ele>216</ele>
        <time>2010-11-23T19:17:25Z</time>
      </trkpt>
      <trkpt lat="45.79181" lon="4.8802">
        <ele>216</ele>
        <time>2010-11-23T19:17:26Z</time>
      </trkpt>
      <trkpt lat="45.79179" lon="4.88018">
        <ele>216</ele>
        <time>2010-11-23T19:17:27Z</time>
      </trkpt>
      <trkpt lat="45.79177" lon="4.88016">
        <ele>216</ele>
        <time>2010-11-23T19:17:28Z</time>
      </trkpt>
      <trkpt lat="45.79175" lon="4.88013">
        <ele>215</ele>
        <time>2010-11-23T19:17:29Z</time>
      </trkpt>
      <trkpt lat="45.79172" lon="4.88011">
        <ele>216</ele>
        <time>2010-11-23T19:17:30Z</time>
      </trkpt>
      <trkpt lat="45.7917" lon="4.88009">
        <ele>216</ele>
        <time>2010-11-23T19:17:31Z</time>
      </trkpt>
      <trkpt lat="45.79167" lon="4.88007">
        <ele>216</ele>
        <time>2010-11-23T19:17:32Z</time>
      </trkpt>
      <trkpt lat="45.79165" lon="4.88005">
        <ele>216</ele>
        <time>2010-11-23T19:17:33Z</time>
      </trkpt>
      <trkpt lat="45.79163" lon="4.88003">
        <ele>216</ele>
        <time>2010-11-23T19:17:36Z</time>
      </trkpt>
      <trkpt lat="45.79163" lon="4.88003">
        <ele>216</ele>
        <time>2010-11-23T19:17:36Z</time>
      </trkpt>
      <trkpt lat="45.79162" lon="4.88002">
        <ele>215.8931427002</ele>
        <time>2010-11-23T19:17:36Z</time>
      </trkpt>
      <trkpt lat="45.79157" lon="4.87998">
        <ele>215.21240234375</ele>
        <time>2010-11-23T19:17:37Z</time>
      </trkpt>
      <trkpt lat="45.79154" lon="4.87995">
        <ele>215</ele>
        <time>2010-11-23T19:17:38Z</time>
      </trkpt>
      <trkpt lat="45.79151" lon="4.87993">
        <ele>215</ele>
        <time>2010-11-23T19:17:39Z</time>
      </trkpt>
      <trkpt lat="45.79149" lon="4.8799">
        <ele>216</ele>
        <time>2010-11-23T19:17:40Z</time>
      </trkpt>
      <trkpt lat="45.79147" lon="4.87988">
        <ele>216</ele>
        <time>2010-11-23T19:17:41Z</time>
      </trkpt>
      <trkpt lat="45.79144" lon="4.87986">
        <ele>216</ele>
        <time>2010-11-23T19:17:42Z</time>
      </trkpt>
      <trkpt lat="45.79142" lon="4.87984">
        <ele>215</ele>
        <time>2010-11-23T19:17:43Z</time>
      </trkpt>
      <trkpt lat="45.7914" lon="4.87982">
        <ele>215</ele>
        <time>2010-11-23T19:17:44Z</time>
      </trkpt>
      <trkpt lat="45.79137" lon="4.8798">
        <ele>216</ele>
        <time>2010-11-23T19:17:45Z</time>
      </trkpt>
      <trkpt lat="45.79135" lon="4.87978">
        <ele>216</ele>
        <time>2010-11-23T19:17:46Z</time>
      </trkpt>
      <trkpt lat="45.79133" lon="4.87975">
        <ele>216</ele>
        <time>2010-11-23T19:17:47Z</time>
      </trkpt>
      <trkpt lat="45.7913" lon="4.87973">
        <ele>215</ele>
        <time>2010-11-23T19:17:48Z</time>
      </trkpt>
      <trkpt lat="45.79128" lon="4.87971">
        <ele>215</ele>
        <time>2010-11-23T19:17:49Z</time>
      </trkpt>
      <trkpt lat="45.79125" lon="4.87968">
        <ele>215</ele>
        <time>2010-11-23T19:17:50Z</time>
      </trkpt>
      <trkpt lat="45.79123" lon="4.87966">
        <ele>215</ele>
        <time>2010-11-23T19:17:51Z</time>
      </trkpt>
      <trkpt lat="45.7912" lon="4.87964">
        <ele>215</ele>
        <time>2010-11-23T19:17:52Z</time>
      </trkpt>
      <trkpt lat="45.79118" lon="4.87961">
        <ele>216</ele>
        <time>2010-11-23T19:17:53Z</time>
      </trkpt>
      <trkpt lat="45.79116" lon="4.87959">
        <ele>216</ele>
        <time>2010-11-23T19:17:54Z</time>
      </trkpt>
      <trkpt lat="45.79113" lon="4.87957">
        <ele>216</ele>
        <time>2010-11-23T19:17:55Z</time>
      </trkpt>
      <trkpt lat="45.79111" lon="4.87954">
        <ele>216</ele>
        <time>2010-11-23T19:17:56Z</time>
      </trkpt>
      <trkpt lat="45.79109" lon="4.87953">
        <ele>216</ele>
        <time>2010-11-23T19:17:58Z</time>
      </trkpt>
      <trkpt lat="45.79109" lon="4.87953">
        <ele>216</ele>
        <time>2010-11-23T19:17:58Z</time>
      </trkpt>
      <trkpt lat="45.79107" lon="4.87951">
        <ele>216</ele>
        <time>2010-11-23T19:17:59Z</time>
      </trkpt>
      <trkpt lat="45.79102" lon="4.87946">
        <ele>216</ele>
        <time>2010-11-23T19:18:00Z</time>
      </trkpt>
      <trkpt lat="45.791" lon="4.87943">
        <ele>216</ele>
        <time>2010-11-23T19:18:01Z</time>
      </trkpt>
      <trkpt lat="45.79098" lon="4.87941">
        <ele>216</ele>
        <time>2010-11-23T19:18:02Z</time>
      </trkpt>
      <trkpt lat="45.79096" lon="4.87938">
        <ele>216</ele>
        <time>2010-11-23T19:18:03Z</time>
      </trkpt>
      <trkpt lat="45.79093" lon="4.87936">
        <ele>216</ele>
        <time>2010-11-23T19:18:04Z</time>
      </trkpt>
      <trkpt lat="45.79091" lon="4.87934">
        <ele>216</ele>
        <time>2010-11-23T19:18:05Z</time>
      </trkpt>
      <trkpt lat="45.79089" lon="4.87932">
        <ele>216</ele>
        <time>2010-11-23T19:18:06Z</time>
      </trkpt>
      <trkpt lat="45.79087" lon="4.8793">
        <ele>216</ele>
        <time>2010-11-23T19:18:07Z</time>
      </trkpt>
      <trkpt lat="45.79084" lon="4.87928">
        <ele>216</ele>
        <time>2010-11-23T19:18:08Z</time>
      </trkpt>
      <trkpt lat="45.79082" lon="4.87925">
        <ele>216</ele>
        <time>2010-11-23T19:18:09Z</time>
      </trkpt>
      <trkpt lat="45.7908" lon="4.87923">
        <ele>216</ele>
        <time>2010-11-23T19:18:10Z</time>
      </trkpt>
      <trkpt lat="45.79077" lon="4.87921">
        <ele>216</ele>
        <time>2010-11-23T19:18:11Z</time>
      </trkpt>
      <trkpt lat="45.79075" lon="4.87919">
        <ele>216</ele>
        <time>2010-11-23T19:18:12Z</time>
      </trkpt>
      <trkpt lat="45.79073" lon="4.87917">
        <ele>216</ele>
        <time>2010-11-23T19:18:13Z</time>
      </trkpt>
      <trkpt lat="45.7907" lon="4.87916">
        <ele>216</ele>
        <time>2010-11-23T19:18:14Z</time>
      </trkpt>
      <trkpt lat="45.79068" lon="4.87914">
        <ele>216</ele>
        <time>2010-11-23T19:18:15Z</time>
      </trkpt>
      <trkpt lat="45.79066" lon="4.87913">
        <ele>216</ele>
        <time>2010-11-23T19:18:16Z</time>
      </trkpt>
      <trkpt lat="45.79063" lon="4.8791">
        <ele>216</ele>
        <time>2010-11-23T19:18:17Z</time>
      </trkpt>
      <trkpt lat="45.79061" lon="4.87909">
        <ele>216</ele>
        <time>2010-11-23T19:18:18Z</time>
      </trkpt>
      <trkpt lat="45.79058" lon="4.87907">
        <ele>217</ele>
        <time>2010-11-23T19:18:19Z</time>
      </trkpt>
      <trkpt lat="45.79056" lon="4.87905">
        <ele>217</ele>
        <time>2010-11-23T19:18:21Z</time>
      </trkpt>
      <trkpt lat="45.79056" lon="4.87905">
        <ele>216.99649047852</ele>
        <time>2010-11-23T19:18:21Z</time>
      </trkpt>
      <trkpt lat="45.79054" lon="4.87903">
        <ele>216.47967529297</ele>
        <time>2010-11-23T19:18:22Z</time>
      </trkpt>
      <trkpt lat="45.7905" lon="4.87899">
        <ele>216</ele>
        <time>2010-11-23T19:18:23Z</time>
      </trkpt>
      <trkpt lat="45.79047" lon="4.87897">
        <ele>216</ele>
        <time>2010-11-23T19:18:24Z</time>
      </trkpt>
      <trkpt lat="45.79045" lon="4.87894">
        <ele>216</ele>
        <time>2010-11-23T19:18:25Z</time>
      </trkpt>
      <trkpt lat="45.79043" lon="4.87893">
        <ele>216</ele>
        <time>2010-11-23T19:18:26Z</time>
      </trkpt>
      <trkpt lat="45.7904" lon="4.87891">
        <ele>216</ele>
        <time>2010-11-23T19:18:27Z</time>
      </trkpt>
      <trkpt lat="45.79038" lon="4.87888">
        <ele>216</ele>
        <time>2010-11-23T19:18:28Z</time>
      </trkpt>
      <trkpt lat="45.79035" lon="4.87886">
        <ele>216</ele>
        <time>2010-11-23T19:18:29Z</time>
      </trkpt>
      <trkpt lat="45.79033" lon="4.87884">
        <ele>216</ele>
        <time>2010-11-23T19:18:30Z</time>
      </trkpt>
      <trkpt lat="45.79031" lon="4.87881">
        <ele>216</ele>
        <time>2010-11-23T19:18:31Z</time>
      </trkpt>
      <trkpt lat="45.79029" lon="4.87879">
        <ele>217</ele>
        <time>2010-11-23T19:18:32Z</time>
      </trkpt>
      <trkpt lat="45.79026" lon="4.87877">
        <ele>217</ele>
        <time>2010-11-23T19:18:33Z</time>
      </trkpt>
      <trkpt lat="45.79024" lon="4.87875">
        <ele>217</ele>
        <time>2010-11-23T19:18:34Z</time>
      </trkpt>
      <trkpt lat="45.79021" lon="4.87872">
        <ele>217</ele>
        <time>2010-11-23T19:18:35Z</time>
      </trkpt>
      <trkpt lat="45.79019" lon="4.8787">
        <ele>217</ele>
        <time>2010-11-23T19:18:36Z</time>
      </trkpt>
      <trkpt lat="45.79016" lon="4.87869">
        <ele>217</ele>
        <time>2010-11-23T19:18:37Z</time>
      </trkpt>
      <trkpt lat="45.79014" lon="4.87866">
        <ele>217</ele>
        <time>2010-11-23T19:18:38Z</time>
      </trkpt>
      <trkpt lat="45.79011" lon="4.87864">
        <ele>216</ele>
        <time>2010-11-23T19:18:39Z</time>
      </trkpt>
      <trkpt lat="45.79009" lon="4.87863">
        <ele>217</ele>
        <time>2010-11-23T19:18:40Z</time>
      </trkpt>
      <trkpt lat="45.79007" lon="4.87861">
        <ele>217</ele>
        <time>2010-11-23T19:18:41Z</time>
      </trkpt>
      <trkpt lat="45.79004" lon="4.87858">
        <ele>217</ele>
        <time>2010-11-23T19:18:42Z</time>
      </trkpt>
      <trkpt lat="45.79002" lon="4.87857">
        <ele>217</ele>
        <time>2010-11-23T19:18:45Z</time>
      </trkpt>
      <trkpt lat="45.79002" lon="4.87857">
        <ele>217</ele>
        <time>2010-11-23T19:18:45Z</time>
      </trkpt>
      <trkpt lat="45.79001" lon="4.87856">
        <ele>217</ele>
        <time>2010-11-23T19:18:45Z</time>
      </trkpt>
      <trkpt lat="45.78995" lon="4.87851">
        <ele>217</ele>
        <time>2010-11-23T19:18:46Z</time>
      </trkpt>
      <trkpt lat="45.78992" lon="4.87848">
        <ele>217</ele>
        <time>2010-11-23T19:18:47Z</time>
      </trkpt>
      <trkpt lat="45.78989" lon="4.87846">
        <ele>217</ele>
        <time>2010-11-23T19:18:48Z</time>
      </trkpt>
      <trkpt lat="45.78987" lon="4.87844">
        <ele>216</ele>
        <time>2010-11-23T19:18:49Z</time>
      </trkpt>
      <trkpt lat="45.78985" lon="4.87842">
        <ele>216</ele>
        <time>2010-11-23T19:18:50Z</time>
      </trkpt>
      <trkpt lat="45.78982" lon="4.8784">
        <ele>216</ele>
        <time>2010-11-23T19:18:51Z</time>
      </trkpt>
      <trkpt lat="45.7898" lon="4.87838">
        <ele>216</ele>
        <time>2010-11-23T19:18:52Z</time>
      </trkpt>
      <trkpt lat="45.78978" lon="4.87836">
        <ele>215</ele>
        <time>2010-11-23T19:18:53Z</time>
      </trkpt>
      <trkpt lat="45.78975" lon="4.87834">
        <ele>215</ele>
        <time>2010-11-23T19:18:54Z</time>
      </trkpt>
      <trkpt lat="45.78973" lon="4.87832">
        <ele>215</ele>
        <time>2010-11-23T19:18:55Z</time>
      </trkpt>
      <trkpt lat="45.78971" lon="4.87829">
        <ele>215</ele>
        <time>2010-11-23T19:18:56Z</time>
      </trkpt>
      <trkpt lat="45.78968" lon="4.87828">
        <ele>216</ele>
        <time>2010-11-23T19:18:57Z</time>
      </trkpt>
      <trkpt lat="45.78966" lon="4.87826">
        <ele>216</ele>
        <time>2010-11-23T19:18:58Z</time>
      </trkpt>
      <trkpt lat="45.78964" lon="4.87824">
        <ele>216</ele>
        <time>2010-11-23T19:18:59Z</time>
      </trkpt>
      <trkpt lat="45.78961" lon="4.87822">
        <ele>216</ele>
        <time>2010-11-23T19:19:00Z</time>
      </trkpt>
      <trkpt lat="45.78959" lon="4.8782">
        <ele>215</ele>
        <time>2010-11-23T19:19:01Z</time>
      </trkpt>
      <trkpt lat="45.78957" lon="4.87818">
        <ele>215</ele>
        <time>2010-11-23T19:19:02Z</time>
      </trkpt>
      <trkpt lat="45.78954" lon="4.87816">
        <ele>215</ele>
        <time>2010-11-23T19:19:03Z</time>
      </trkpt>
      <trkpt lat="45.78952" lon="4.87814">
        <ele>215</ele>
        <time>2010-11-23T19:19:04Z</time>
      </trkpt>
      <trkpt lat="45.7895" lon="4.87812">
        <ele>215</ele>
        <time>2010-11-23T19:19:05Z</time>
      </trkpt>
      <trkpt lat="45.78947" lon="4.8781">
        <ele>215</ele>
        <time>2010-11-23T19:19:07Z</time>
      </trkpt>
      <trkpt lat="45.78947" lon="4.8781">
        <ele>215</ele>
        <time>2010-11-23T19:19:07Z</time>
      </trkpt>
      <trkpt lat="45.78946" lon="4.87809">
        <ele>215.30462646484</ele>
        <time>2010-11-23T19:19:08Z</time>
      </trkpt>
      <trkpt lat="45.7894" lon="4.87804">
        <ele>216</ele>
        <time>2010-11-23T19:19:09Z</time>
      </trkpt>
      <trkpt lat="45.78938" lon="4.87802">
        <ele>216</ele>
        <time>2010-11-23T19:19:10Z</time>
      </trkpt>
      <trkpt lat="45.78936" lon="4.87799">
        <ele>216</ele>
        <time>2010-11-23T19:19:11Z</time>
      </trkpt>
      <trkpt lat="45.78933" lon="4.87798">
        <ele>216</ele>
        <time>2010-11-23T19:19:12Z</time>
      </trkpt>
      <trkpt lat="45.78931" lon="4.87796">
        <ele>216</ele>
        <time>2010-11-23T19:19:13Z</time>
      </trkpt>
      <trkpt lat="45.78929" lon="4.87794">
        <ele>216</ele>
        <time>2010-11-23T19:19:14Z</time>
      </trkpt>
      <trkpt lat="45.78926" lon="4.87791">
        <ele>216</ele>
        <time>2010-11-23T19:19:15Z</time>
      </trkpt>
      <trkpt lat="45.78924" lon="4.8779">
        <ele>216</ele>
        <time>2010-11-23T19:19:16Z</time>
      </trkpt>
      <trkpt lat="45.78921" lon="4.87788">
        <ele>216</ele>
        <time>2010-11-23T19:19:17Z</time>
      </trkpt>
      <trkpt lat="45.78919" lon="4.87785">
        <ele>216</ele>
        <time>2010-11-23T19:19:18Z</time>
      </trkpt>
      <trkpt lat="45.78916" lon="4.87783">
        <ele>216</ele>
        <time>2010-11-23T19:19:19Z</time>
      </trkpt>
      <trkpt lat="45.78915" lon="4.8778">
        <ele>216</ele>
        <time>2010-11-23T19:19:20Z</time>
      </trkpt>
      <trkpt lat="45.78913" lon="4.87776">
        <ele>216</ele>
        <time>2010-11-23T19:19:21Z</time>
      </trkpt>
      <trkpt lat="45.7891" lon="4.87773">
        <ele>216</ele>
        <time>2010-11-23T19:19:22Z</time>
      </trkpt>
      <trkpt lat="45.78908" lon="4.87772">
        <ele>216</ele>
        <time>2010-11-23T19:19:23Z</time>
      </trkpt>
      <trkpt lat="45.78906" lon="4.87769">
        <ele>216</ele>
        <time>2010-11-23T19:19:24Z</time>
      </trkpt>
      <trkpt lat="45.78903" lon="4.87768">
        <ele>216</ele>
        <time>2010-11-23T19:19:25Z</time>
      </trkpt>
      <trkpt lat="45.789" lon="4.87764">
        <ele>216</ele>
        <time>2010-11-23T19:19:26Z</time>
      </trkpt>
      <trkpt lat="45.78898" lon="4.87761">
        <ele>217</ele>
        <time>2010-11-23T19:19:27Z</time>
      </trkpt>
      <trkpt lat="45.78896" lon="4.87759">
        <ele>216</ele>
        <time>2010-11-23T19:19:28Z</time>
      </trkpt>
      <trkpt lat="45.78894" lon="4.87758">
        <ele>216</ele>
        <time>2010-11-23T19:19:31Z</time>
      </trkpt>
      <trkpt lat="45.78894" lon="4.87758">
        <ele>216</ele>
        <time>2010-11-23T19:19:31Z</time>
      </trkpt>
      <trkpt lat="45.78894" lon="4.87758">
        <ele>216.08850097656</ele>
        <time>2010-11-23T19:19:31Z</time>
      </trkpt>
      <trkpt lat="45.7889" lon="4.87753">
        <ele>216.70318603516</ele>
        <time>2010-11-23T19:19:32Z</time>
      </trkpt>
      <trkpt lat="45.78885" lon="4.87748">
        <ele>217</ele>
        <time>2010-11-23T19:19:33Z</time>
      </trkpt>
      <trkpt lat="45.78883" lon="4.87745">
        <ele>218</ele>
        <time>2010-11-23T19:19:34Z</time>
      </trkpt>
      <trkpt lat="45.78881" lon="4.87743">
        <ele>218</ele>
        <time>2010-11-23T19:19:35Z</time>
      </trkpt>
      <trkpt lat="45.78877" lon="4.87741">
        <ele>218</ele>
        <time>2010-11-23T19:19:36Z</time>
      </trkpt>
      <trkpt lat="45.78875" lon="4.8774">
        <ele>220</ele>
        <time>2010-11-23T19:19:37Z</time>
      </trkpt>
      <trkpt lat="45.78873" lon="4.87737">
        <ele>219</ele>
        <time>2010-11-23T19:19:38Z</time>
      </trkpt>
      <trkpt lat="45.7887" lon="4.87735">
        <ele>219</ele>
        <time>2010-11-23T19:19:39Z</time>
      </trkpt>
      <trkpt lat="45.78867" lon="4.87734">
        <ele>219</ele>
        <time>2010-11-23T19:19:40Z</time>
      </trkpt>
      <trkpt lat="45.78865" lon="4.87732">
        <ele>219</ele>
        <time>2010-11-23T19:19:41Z</time>
      </trkpt>
      <trkpt lat="45.78862" lon="4.8773">
        <ele>220</ele>
        <time>2010-11-23T19:19:42Z</time>
      </trkpt>
      <trkpt lat="45.7886" lon="4.87728">
        <ele>219</ele>
        <time>2010-11-23T19:19:43Z</time>
      </trkpt>
      <trkpt lat="45.78857" lon="4.87726">
        <ele>219</ele>
        <time>2010-11-23T19:19:44Z</time>
      </trkpt>
      <trkpt lat="45.78855" lon="4.87723">
        <ele>220</ele>
        <time>2010-11-23T19:19:45Z</time>
      </trkpt>
      <trkpt lat="45.78852" lon="4.87721">
        <ele>220</ele>
        <time>2010-11-23T19:19:46Z</time>
      </trkpt>
      <trkpt lat="45.78849" lon="4.87719">
        <ele>219</ele>
        <time>2010-11-23T19:19:47Z</time>
      </trkpt>
      <trkpt lat="45.78847" lon="4.87718">
        <ele>219</ele>
        <time>2010-11-23T19:19:48Z</time>
      </trkpt>
      <trkpt lat="45.78845" lon="4.87716">
        <ele>220</ele>
        <time>2010-11-23T19:19:49Z</time>
      </trkpt>
      <trkpt lat="45.78842" lon="4.87714">
        <ele>219</ele>
        <time>2010-11-23T19:19:50Z</time>
      </trkpt>
      <trkpt lat="45.7884" lon="4.87711">
        <ele>219</ele>
        <time>2010-11-23T19:19:51Z</time>
      </trkpt>
      <trkpt lat="45.78838" lon="4.87709">
        <ele>220</ele>
        <time>2010-11-23T19:19:53Z</time>
      </trkpt>
      <trkpt lat="45.78838" lon="4.87709">
        <ele>219.9967956543</ele>
        <time>2010-11-23T19:19:53Z</time>
      </trkpt>
      <trkpt lat="45.78836" lon="4.87707">
        <ele>219.57327270508</ele>
        <time>2010-11-23T19:19:54Z</time>
      </trkpt>
      <trkpt lat="45.78831" lon="4.87701">
        <ele>219</ele>
        <time>2010-11-23T19:19:55Z</time>
      </trkpt>
      <trkpt lat="45.78829" lon="4.87699">
        <ele>218</ele>
        <time>2010-11-23T19:19:56Z</time>
      </trkpt>
      <trkpt lat="45.78826" lon="4.87697">
        <ele>218</ele>
        <time>2010-11-23T19:19:57Z</time>
      </trkpt>
      <trkpt lat="45.78824" lon="4.87695">
        <ele>218</ele>
        <time>2010-11-23T19:19:58Z</time>
      </trkpt>
      <trkpt lat="45.78822" lon="4.87693">
        <ele>218</ele>
        <time>2010-11-23T19:19:59Z</time>
      </trkpt>
      <trkpt lat="45.78819" lon="4.87691">
        <ele>218</ele>
        <time>2010-11-23T19:20:00Z</time>
      </trkpt>
      <trkpt lat="45.78817" lon="4.87688">
        <ele>217</ele>
        <time>2010-11-23T19:20:01Z</time>
      </trkpt>
      <trkpt lat="45.78815" lon="4.87686">
        <ele>217</ele>
        <time>2010-11-23T19:20:02Z</time>
      </trkpt>
      <trkpt lat="45.78813" lon="4.87683">
        <ele>217</ele>
        <time>2010-11-23T19:20:03Z</time>
      </trkpt>
      <trkpt lat="45.78811" lon="4.87681">
        <ele>217</ele>
        <time>2010-11-23T19:20:04Z</time>
      </trkpt>
      <trkpt lat="45.78808" lon="4.87678">
        <ele>217</ele>
        <time>2010-11-23T19:20:05Z</time>
      </trkpt>
      <trkpt lat="45.78806" lon="4.87677">
        <ele>217</ele>
        <time>2010-11-23T19:20:06Z</time>
      </trkpt>
      <trkpt lat="45.78803" lon="4.87675">
        <ele>216</ele>
        <time>2010-11-23T19:20:07Z</time>
      </trkpt>
      <trkpt lat="45.78802" lon="4.87673">
        <ele>217</ele>
        <time>2010-11-23T19:20:08Z</time>
      </trkpt>
      <trkpt lat="45.78798" lon="4.8767">
        <ele>217</ele>
        <time>2010-11-23T19:20:09Z</time>
      </trkpt>
      <trkpt lat="45.78796" lon="4.87667">
        <ele>217</ele>
        <time>2010-11-23T19:20:10Z</time>
      </trkpt>
      <trkpt lat="45.78794" lon="4.87659">
        <ele>219</ele>
        <time>2010-11-23T19:20:11Z</time>
      </trkpt>
      <trkpt lat="45.78791" lon="4.87653">
        <ele>219</ele>
        <time>2010-11-23T19:20:12Z</time>
      </trkpt>
      <trkpt lat="45.78789" lon="4.8765">
        <ele>219</ele>
        <time>2010-11-23T19:20:13Z</time>
      </trkpt>
      <trkpt lat="45.78786" lon="4.87648">
        <ele>219</ele>
        <time>2010-11-23T19:20:14Z</time>
      </trkpt>
      <trkpt lat="45.78784" lon="4.87646">
        <ele>218</ele>
        <time>2010-11-23T19:20:17Z</time>
      </trkpt>
      <trkpt lat="45.78784" lon="4.87646">
        <ele>218</ele>
        <time>2010-11-23T19:20:17Z</time>
      </trkpt>
      <trkpt lat="45.78783" lon="4.87646">
        <ele>218.10673522949</ele>
        <time>2010-11-23T19:20:17Z</time>
      </trkpt>
      <trkpt lat="45.78778" lon="4.87642">
        <ele>218.7774810791</ele>
        <time>2010-11-23T19:20:18Z</time>
      </trkpt>
      <trkpt lat="45.78774" lon="4.8764">
        <ele>219</ele>
        <time>2010-11-23T19:20:19Z</time>
      </trkpt>
      <trkpt lat="45.78772" lon="4.87638">
        <ele>219</ele>
        <time>2010-11-23T19:20:20Z</time>
      </trkpt>
      <trkpt lat="45.7877" lon="4.87637">
        <ele>220</ele>
        <time>2010-11-23T19:20:21Z</time>
      </trkpt>
      <trkpt lat="45.78768" lon="4.87636">
        <ele>218</ele>
        <time>2010-11-23T19:20:22Z</time>
      </trkpt>
      <trkpt lat="45.78766" lon="4.87634">
        <ele>218</ele>
        <time>2010-11-23T19:20:23Z</time>
      </trkpt>
      <trkpt lat="45.78763" lon="4.87632">
        <ele>218</ele>
        <time>2010-11-23T19:20:24Z</time>
      </trkpt>
      <trkpt lat="45.78761" lon="4.8763">
        <ele>218</ele>
        <time>2010-11-23T19:20:25Z</time>
      </trkpt>
      <trkpt lat="45.78758" lon="4.87629">
        <ele>219</ele>
        <time>2010-11-23T19:20:26Z</time>
      </trkpt>
      <trkpt lat="45.78756" lon="4.87627">
        <ele>218</ele>
        <time>2010-11-23T19:20:27Z</time>
      </trkpt>
      <trkpt lat="45.78754" lon="4.87622">
        <ele>220</ele>
        <time>2010-11-23T19:20:28Z</time>
      </trkpt>
      <trkpt lat="45.78751" lon="4.8762">
        <ele>220</ele>
        <time>2010-11-23T19:20:29Z</time>
      </trkpt>
      <trkpt lat="45.78749" lon="4.87619">
        <ele>220</ele>
        <time>2010-11-23T19:20:30Z</time>
      </trkpt>
      <trkpt lat="45.78747" lon="4.87616">
        <ele>221</ele>
        <time>2010-11-23T19:20:31Z</time>
      </trkpt>
      <trkpt lat="45.78745" lon="4.87613">
        <ele>222</ele>
        <time>2010-11-23T19:20:32Z</time>
      </trkpt>
      <trkpt lat="45.78743" lon="4.87611">
        <ele>223</ele>
        <time>2010-11-23T19:20:33Z</time>
      </trkpt>
      <trkpt lat="45.78741" lon="4.87609">
        <ele>223</ele>
        <time>2010-11-23T19:20:34Z</time>
      </trkpt>
      <trkpt lat="45.78739" lon="4.87606">
        <ele>223</ele>
        <time>2010-11-23T19:20:35Z</time>
      </trkpt>
      <trkpt lat="45.78737" lon="4.876">
        <ele>224</ele>
        <time>2010-11-23T19:20:36Z</time>
      </trkpt>
      <trkpt lat="45.78736" lon="4.87596">
        <ele>225.58073425293</ele>
        <time>2010-11-23T19:20:37Z</time>
      </trkpt>
      <trkpt lat="45.78734" lon="4.87589">
        <ele>226</ele>
        <time>2010-11-23T19:20:39Z</time>
      </trkpt>
      <trkpt lat="45.78734" lon="4.87589">
        <ele>226.00521850586</ele>
        <time>2010-11-23T19:20:39Z</time>
      </trkpt>
      <trkpt lat="45.78732" lon="4.87587">
        <ele>226.34043884277</ele>
        <time>2010-11-23T19:20:40Z</time>
      </trkpt>
      <trkpt lat="45.78728" lon="4.87583">
        <ele>226</ele>
        <time>2010-11-23T19:20:41Z</time>
      </trkpt>
      <trkpt lat="45.78726" lon="4.87581">
        <ele>226</ele>
        <time>2010-11-23T19:20:42Z</time>
      </trkpt>
      <trkpt lat="45.78724" lon="4.87579">
        <ele>227</ele>
        <time>2010-11-23T19:20:43Z</time>
      </trkpt>
      <trkpt lat="45.78722" lon="4.87577">
        <ele>226</ele>
        <time>2010-11-23T19:20:44Z</time>
      </trkpt>
      <trkpt lat="45.78721" lon="4.87575">
        <ele>226</ele>
        <time>2010-11-23T19:20:45Z</time>
      </trkpt>
      <trkpt lat="45.7872" lon="4.87572">
        <ele>225</ele>
        <time>2010-11-23T19:20:46Z</time>
      </trkpt>
      <trkpt lat="45.7872" lon="4.87567">
        <ele>225</ele>
        <time>2010-11-23T19:20:47Z</time>
      </trkpt>
      <trkpt lat="45.7872" lon="4.87559">
        <ele>226</ele>
        <time>2010-11-23T19:20:48Z</time>
      </trkpt>
      <trkpt lat="45.7872" lon="4.87556">
        <ele>225</ele>
        <time>2010-11-23T19:20:49Z</time>
      </trkpt>
      <trkpt lat="45.7872" lon="4.8755">
        <ele>225</ele>
        <time>2010-11-23T19:20:50Z</time>
      </trkpt>
      <trkpt lat="45.78719" lon="4.87546">
        <ele>225</ele>
        <time>2010-11-23T19:20:51Z</time>
      </trkpt>
      <trkpt lat="45.78718" lon="4.87542">
        <ele>225</ele>
        <time>2010-11-23T19:20:52Z</time>
      </trkpt>
      <trkpt lat="45.78717" lon="4.8754">
        <ele>225</ele>
        <time>2010-11-23T19:20:53Z</time>
      </trkpt>
      <trkpt lat="45.78717" lon="4.87537">
        <ele>224</ele>
        <time>2010-11-23T19:20:54Z</time>
      </trkpt>
      <trkpt lat="45.78716" lon="4.87533">
        <ele>224</ele>
        <time>2010-11-23T19:20:55Z</time>
      </trkpt>
      <trkpt lat="45.78716" lon="4.8753">
        <ele>225</ele>
        <time>2010-11-23T19:20:56Z</time>
      </trkpt>
      <trkpt lat="45.78717" lon="4.87523">
        <ele>226</ele>
        <time>2010-11-23T19:20:57Z</time>
      </trkpt>
      <trkpt lat="45.78716" lon="4.8752">
        <ele>226</ele>
        <time>2010-11-23T19:20:58Z</time>
      </trkpt>
      <trkpt lat="45.78716" lon="4.87517">
        <ele>226</ele>
        <time>2010-11-23T19:20:59Z</time>
      </trkpt>
      <trkpt lat="45.78715" lon="4.87513">
        <ele>227</ele>
        <time>2010-11-23T19:21:00Z</time>
      </trkpt>
      <trkpt lat="45.78715" lon="4.87509">
        <ele>227</ele>
        <time>2010-11-23T19:21:03Z</time>
      </trkpt>
      <trkpt lat="45.78715" lon="4.87509">
        <ele>227</ele>
        <time>2010-11-23T19:21:03Z</time>
      </trkpt>
      <trkpt lat="45.78715" lon="4.87508">
        <ele>227</ele>
        <time>2010-11-23T19:21:03Z</time>
      </trkpt>
      <trkpt lat="45.78715" lon="4.875">
        <ele>227</ele>
        <time>2010-11-23T19:21:04Z</time>
      </trkpt>
      <trkpt lat="45.78715" lon="4.87495">
        <ele>226</ele>
        <time>2010-11-23T19:21:05Z</time>
      </trkpt>
      <trkpt lat="45.78715" lon="4.87488">
        <ele>227</ele>
        <time>2010-11-23T19:21:06Z</time>
      </trkpt>
      <trkpt lat="45.78714" lon="4.87483">
        <ele>229</ele>
        <time>2010-11-23T19:21:07Z</time>
      </trkpt>
      <trkpt lat="45.78715" lon="4.87479">
        <ele>230</ele>
        <time>2010-11-23T19:21:08Z</time>
      </trkpt>
      <trkpt lat="45.78714" lon="4.87475">
        <ele>230</ele>
        <time>2010-11-23T19:21:09Z</time>
      </trkpt>
      <trkpt lat="45.78712" lon="4.87471">
        <ele>230</ele>
        <time>2010-11-23T19:21:10Z</time>
      </trkpt>
      <trkpt lat="45.78711" lon="4.87467">
        <ele>229</ele>
        <time>2010-11-23T19:21:11Z</time>
      </trkpt>
      <trkpt lat="45.7871" lon="4.87464">
        <ele>230</ele>
        <time>2010-11-23T19:21:12Z</time>
      </trkpt>
      <trkpt lat="45.7871" lon="4.87459">
        <ele>230</ele>
        <time>2010-11-23T19:21:13Z</time>
      </trkpt>
      <trkpt lat="45.78711" lon="4.87453">
        <ele>231</ele>
        <time>2010-11-23T19:21:14Z</time>
      </trkpt>
      <trkpt lat="45.78711" lon="4.8745">
        <ele>231</ele>
        <time>2010-11-23T19:21:15Z</time>
      </trkpt>
      <trkpt lat="45.7871" lon="4.87446">
        <ele>230</ele>
        <time>2010-11-23T19:21:16Z</time>
      </trkpt>
      <trkpt lat="45.7871" lon="4.87444">
        <ele>230</ele>
        <time>2010-11-23T19:21:17Z</time>
      </trkpt>
      <trkpt lat="45.7871" lon="4.87441">
        <ele>231</ele>
        <time>2010-11-23T19:21:18Z</time>
      </trkpt>
      <trkpt lat="45.7871" lon="4.87438">
        <ele>232</ele>
        <time>2010-11-23T19:21:19Z</time>
      </trkpt>
      <trkpt lat="45.7871" lon="4.87436">
        <ele>232</ele>
        <time>2010-11-23T19:21:20Z</time>
      </trkpt>
      <trkpt lat="45.7871" lon="4.87434">
        <ele>232</ele>
        <time>2010-11-23T19:21:21Z</time>
      </trkpt>
      <trkpt lat="45.78709" lon="4.87431">
        <ele>232</ele>
        <time>2010-11-23T19:21:22Z</time>
      </trkpt>
      <trkpt lat="45.78709" lon="4.87428">
        <ele>232</ele>
        <time>2010-11-23T19:21:23Z</time>
      </trkpt>
      <trkpt lat="45.78708" lon="4.87424">
        <ele>233</ele>
        <time>2010-11-23T19:21:26Z</time>
      </trkpt>
      <trkpt lat="45.78708" lon="4.87424">
        <ele>232.99282836914</ele>
        <time>2010-11-23T19:21:26Z</time>
      </trkpt>
      <trkpt lat="45.78708" lon="4.87424">
        <ele>232.98934936523</ele>
        <time>2010-11-23T19:21:26Z</time>
      </trkpt>
      <trkpt lat="45.78706" lon="4.87418">
        <ele>231.94218444824</ele>
        <time>2010-11-23T19:21:27Z</time>
      </trkpt>
      <trkpt lat="45.78704" lon="4.87408">
        <ele>230</ele>
        <time>2010-11-23T19:21:28Z</time>
      </trkpt>
      <trkpt lat="45.78702" lon="4.87404">
        <ele>230</ele>
        <time>2010-11-23T19:21:29Z</time>
      </trkpt>
      <trkpt lat="45.78702" lon="4.874">
        <ele>229</ele>
        <time>2010-11-23T19:21:30Z</time>
      </trkpt>
      <trkpt lat="45.78701" lon="4.87395">
        <ele>229</ele>
        <time>2010-11-23T19:21:31Z</time>
      </trkpt>
      <trkpt lat="45.78701" lon="4.87391">
        <ele>229</ele>
        <time>2010-11-23T19:21:32Z</time>
      </trkpt>
      <trkpt lat="45.78701" lon="4.87388">
        <ele>229</ele>
        <time>2010-11-23T19:21:33Z</time>
      </trkpt>
      <trkpt lat="45.78701" lon="4.87385">
        <ele>229</ele>
        <time>2010-11-23T19:21:34Z</time>
      </trkpt>
      <trkpt lat="45.787" lon="4.8738">
        <ele>228</ele>
        <time>2010-11-23T19:21:35Z</time>
      </trkpt>
      <trkpt lat="45.78699" lon="4.87376">
        <ele>228</ele>
        <time>2010-11-23T19:21:36Z</time>
      </trkpt>
      <trkpt lat="45.78699" lon="4.87371">
        <ele>228</ele>
        <time>2010-11-23T19:21:37Z</time>
      </trkpt>
      <trkpt lat="45.787" lon="4.87365">
        <ele>227</ele>
        <time>2010-11-23T19:21:38Z</time>
      </trkpt>
      <trkpt lat="45.787" lon="4.87362">
        <ele>227</ele>
        <time>2010-11-23T19:21:39Z</time>
      </trkpt>
      <trkpt lat="45.78698" lon="4.87355">
        <ele>227.9235534668</ele>
        <time>2010-11-23T19:21:40Z</time>
      </trkpt>
      <trkpt lat="45.78698" lon="4.87353">
        <ele>228</ele>
        <time>2010-11-23T19:21:41Z</time>
      </trkpt>
      <trkpt lat="45.78696" lon="4.8735">
        <ele>228</ele>
        <time>2010-11-23T19:21:42Z</time>
      </trkpt>
      <trkpt lat="45.78694" lon="4.87347">
        <ele>228</ele>
        <time>2010-11-23T19:21:43Z</time>
      </trkpt>
      <trkpt lat="45.78692" lon="4.87341">
        <ele>227</ele>
        <time>2010-11-23T19:21:44Z</time>
      </trkpt>
      <trkpt lat="45.78691" lon="4.87338">
        <ele>227</ele>
        <time>2010-11-23T19:21:45Z</time>
      </trkpt>
      <trkpt lat="45.78689" lon="4.87334">
        <ele>227</ele>
        <time>2010-11-23T19:21:46Z</time>
      </trkpt>
      <trkpt lat="45.78688" lon="4.87328">
        <ele>227</ele>
        <time>2010-11-23T19:21:48Z</time>
      </trkpt>
      <trkpt lat="45.78688" lon="4.87328">
        <ele>227.00373840332</ele>
        <time>2010-11-23T19:21:48Z</time>
      </trkpt>
      <trkpt lat="45.78687" lon="4.87325">
        <ele>227.33235168457</ele>
        <time>2010-11-23T19:21:49Z</time>
      </trkpt>
      <trkpt lat="45.78682" lon="4.87316">
        <ele>227.01605224609</ele>
        <time>2010-11-23T19:21:50Z</time>
      </trkpt>
      <trkpt lat="45.7868" lon="4.87312">
        <ele>226</ele>
        <time>2010-11-23T19:21:51Z</time>
      </trkpt>
      <trkpt lat="45.78677" lon="4.87309">
        <ele>226</ele>
        <time>2010-11-23T19:21:52Z</time>
      </trkpt>
      <trkpt lat="45.78676" lon="4.87305">
        <ele>225</ele>
        <time>2010-11-23T19:21:53Z</time>
      </trkpt>
      <trkpt lat="45.78673" lon="4.87303">
        <ele>226</ele>
        <time>2010-11-23T19:21:54Z</time>
      </trkpt>
      <trkpt lat="45.78672" lon="4.87302">
        <ele>226</ele>
        <time>2010-11-23T19:21:55Z</time>
      </trkpt>
      <trkpt lat="45.7867" lon="4.87298">
        <ele>226</ele>
        <time>2010-11-23T19:21:56Z</time>
      </trkpt>
      <trkpt lat="45.78667" lon="4.87297">
        <ele>225</ele>
        <time>2010-11-23T19:21:57Z</time>
      </trkpt>
      <trkpt lat="45.78666" lon="4.87291">
        <ele>224</ele>
        <time>2010-11-23T19:21:58Z</time>
      </trkpt>
      <trkpt lat="45.78664" lon="4.87287">
        <ele>224</ele>
        <time>2010-11-23T19:21:59Z</time>
      </trkpt>
      <trkpt lat="45.78663" lon="4.87284">
        <ele>224</ele>
        <time>2010-11-23T19:22:00Z</time>
      </trkpt>
      <trkpt lat="45.78662" lon="4.87276">
        <ele>225</ele>
        <time>2010-11-23T19:22:01Z</time>
      </trkpt>
      <trkpt lat="45.78661" lon="4.87273">
        <ele>225</ele>
        <time>2010-11-23T19:22:02Z</time>
      </trkpt>
      <trkpt lat="45.7866" lon="4.8727">
        <ele>225</ele>
        <time>2010-11-23T19:22:03Z</time>
      </trkpt>
      <trkpt lat="45.78658" lon="4.87266">
        <ele>226</ele>
        <time>2010-11-23T19:22:04Z</time>
      </trkpt>
      <trkpt lat="45.78657" lon="4.87261">
        <ele>226</ele>
        <time>2010-11-23T19:22:05Z</time>
      </trkpt>
      <trkpt lat="45.78657" lon="4.87257">
        <ele>226</ele>
        <time>2010-11-23T19:22:06Z</time>
      </trkpt>
      <trkpt lat="45.78656" lon="4.87254">
        <ele>225</ele>
        <time>2010-11-23T19:22:07Z</time>
      </trkpt>
      <trkpt lat="45.78656" lon="4.87251">
        <ele>225</ele>
        <time>2010-11-23T19:22:08Z</time>
      </trkpt>
      <trkpt lat="45.78655" lon="4.87247">
        <ele>225</ele>
        <time>2010-11-23T19:22:09Z</time>
      </trkpt>
      <trkpt lat="45.78654" lon="4.87243">
        <ele>225</ele>
        <time>2010-11-23T19:22:12Z</time>
      </trkpt>
      <trkpt lat="45.78654" lon="4.87243">
        <ele>225</ele>
        <time>2010-11-23T19:22:12Z</time>
      </trkpt>
      <trkpt lat="45.78654" lon="4.87242">
        <ele>225</ele>
        <time>2010-11-23T19:22:12Z</time>
      </trkpt>
      <trkpt lat="45.78653" lon="4.87233">
        <ele>225</ele>
        <time>2010-11-23T19:22:13Z</time>
      </trkpt>
      <trkpt lat="45.78653" lon="4.87225">
        <ele>225</ele>
        <time>2010-11-23T19:22:14Z</time>
      </trkpt>
      <trkpt lat="45.78653" lon="4.8722">
        <ele>226</ele>
        <time>2010-11-23T19:22:15Z</time>
      </trkpt>
      <trkpt lat="45.78653" lon="4.87217">
        <ele>227</ele>
        <time>2010-11-23T19:22:16Z</time>
      </trkpt>
      <trkpt lat="45.78654" lon="4.87214">
        <ele>228</ele>
        <time>2010-11-23T19:22:17Z</time>
      </trkpt>
      <trkpt lat="45.78653" lon="4.87209">
        <ele>229</ele>
        <time>2010-11-23T19:22:18Z</time>
      </trkpt>
      <trkpt lat="45.78653" lon="4.87206">
        <ele>229</ele>
        <time>2010-11-23T19:22:19Z</time>
      </trkpt>
      <trkpt lat="45.78651" lon="4.87201">
        <ele>230</ele>
        <time>2010-11-23T19:22:20Z</time>
      </trkpt>
      <trkpt lat="45.7865" lon="4.87199">
        <ele>230</ele>
        <time>2010-11-23T19:22:21Z</time>
      </trkpt>
      <trkpt lat="45.7865" lon="4.87193">
        <ele>231</ele>
        <time>2010-11-23T19:22:22Z</time>
      </trkpt>
      <trkpt lat="45.78649" lon="4.87189">
        <ele>231</ele>
        <time>2010-11-23T19:22:23Z</time>
      </trkpt>
      <trkpt lat="45.78649" lon="4.87185">
        <ele>231</ele>
        <time>2010-11-23T19:22:24Z</time>
      </trkpt>
      <trkpt lat="45.78648" lon="4.87182">
        <ele>231</ele>
        <time>2010-11-23T19:22:25Z</time>
      </trkpt>
      <trkpt lat="45.78648" lon="4.87179">
        <ele>230</ele>
        <time>2010-11-23T19:22:26Z</time>
      </trkpt>
      <trkpt lat="45.78648" lon="4.87177">
        <ele>230</ele>
        <time>2010-11-23T19:22:27Z</time>
      </trkpt>
      <trkpt lat="45.78647" lon="4.87173">
        <ele>230</ele>
        <time>2010-11-23T19:22:28Z</time>
      </trkpt>
      <trkpt lat="45.78646" lon="4.87169">
        <ele>229</ele>
        <time>2010-11-23T19:22:29Z</time>
      </trkpt>
      <trkpt lat="45.78645" lon="4.87166">
        <ele>229</ele>
        <time>2010-11-23T19:22:30Z</time>
      </trkpt>
      <trkpt lat="45.78645" lon="4.87163">
        <ele>230</ele>
        <time>2010-11-23T19:22:31Z</time>
      </trkpt>
      <trkpt lat="45.78643" lon="4.87158">
        <ele>230</ele>
        <time>2010-11-23T19:22:32Z</time>
      </trkpt>
      <trkpt lat="45.78643" lon="4.87155">
        <ele>229</ele>
        <time>2010-11-23T19:22:34Z</time>
      </trkpt>
      <trkpt lat="45.78643" lon="4.87155">
        <ele>229</ele>
        <time>2010-11-23T19:22:34Z</time>
      </trkpt>
      <trkpt lat="45.78643" lon="4.87153">
        <ele>229</ele>
        <time>2010-11-23T19:22:35Z</time>
      </trkpt>
      <trkpt lat="45.78643" lon="4.87143">
        <ele>229.74261474609</ele>
        <time>2010-11-23T19:22:36Z</time>
      </trkpt>
      <trkpt lat="45.78642" lon="4.87136">
        <ele>230</ele>
        <time>2010-11-23T19:22:37Z</time>
      </trkpt>
      <trkpt lat="45.78641" lon="4.87133">
        <ele>229</ele>
        <time>2010-11-23T19:22:38Z</time>
      </trkpt>
      <trkpt lat="45.7864" lon="4.8713">
        <ele>230</ele>
        <time>2010-11-23T19:22:39Z</time>
      </trkpt>
      <trkpt lat="45.7864" lon="4.87126">
        <ele>230</ele>
        <time>2010-11-23T19:22:40Z</time>
      </trkpt>
      <trkpt lat="45.78639" lon="4.87123">
        <ele>229</ele>
        <time>2010-11-23T19:22:41Z</time>
      </trkpt>
      <trkpt lat="45.78638" lon="4.87119">
        <ele>229</ele>
        <time>2010-11-23T19:22:42Z</time>
      </trkpt>
      <trkpt lat="45.78636" lon="4.87114">
        <ele>229</ele>
        <time>2010-11-23T19:22:43Z</time>
      </trkpt>
      <trkpt lat="45.78636" lon="4.87112">
        <ele>228</ele>
        <time>2010-11-23T19:22:44Z</time>
      </trkpt>
      <trkpt lat="45.78636" lon="4.8711">
        <ele>228</ele>
        <time>2010-11-23T19:22:45Z</time>
      </trkpt>
      <trkpt lat="45.78634" lon="4.87105">
        <ele>227</ele>
        <time>2010-11-23T19:22:46Z</time>
      </trkpt>
      <trkpt lat="45.78634" lon="4.87103">
        <ele>228</ele>
        <time>2010-11-23T19:22:47Z</time>
      </trkpt>
      <trkpt lat="45.78633" lon="4.87098">
        <ele>229</ele>
        <time>2010-11-23T19:22:48Z</time>
      </trkpt>
      <trkpt lat="45.78633" lon="4.87095">
        <ele>229</ele>
        <time>2010-11-23T19:22:49Z</time>
      </trkpt>
      <trkpt lat="45.78632" lon="4.87092">
        <ele>228</ele>
        <time>2010-11-23T19:22:50Z</time>
      </trkpt>
      <trkpt lat="45.78631" lon="4.87088">
        <ele>228</ele>
        <time>2010-11-23T19:22:51Z</time>
      </trkpt>
      <trkpt lat="45.78631" lon="4.87085">
        <ele>228</ele>
        <time>2010-11-23T19:22:52Z</time>
      </trkpt>
      <trkpt lat="45.7863" lon="4.87082">
        <ele>228</ele>
        <time>2010-11-23T19:22:53Z</time>
      </trkpt>
      <trkpt lat="45.78629" lon="4.8708">
        <ele>228</ele>
        <time>2010-11-23T19:22:54Z</time>
      </trkpt>
      <trkpt lat="45.78628" lon="4.87077">
        <ele>228</ele>
        <time>2010-11-23T19:22:55Z</time>
      </trkpt>
      <trkpt lat="45.78628" lon="4.87073">
        <ele>228</ele>
        <time>2010-11-23T19:22:58Z</time>
      </trkpt>
      <trkpt lat="45.78628" lon="4.87073">
        <ele>228</ele>
        <time>2010-11-23T19:22:58Z</time>
      </trkpt>
      <trkpt lat="45.78628" lon="4.87072">
        <ele>228.10514831543</ele>
        <time>2010-11-23T19:22:58Z</time>
      </trkpt>
      <trkpt lat="45.78627" lon="4.87065">
        <ele>228.64068603516</ele>
        <time>2010-11-23T19:22:59Z</time>
      </trkpt>
      <trkpt lat="45.78625" lon="4.87055">
        <ele>228.05697631836</ele>
        <time>2010-11-23T19:23:00Z</time>
      </trkpt>
      <trkpt lat="45.78624" lon="4.87049">
        <ele>229</ele>
        <time>2010-11-23T19:23:01Z</time>
      </trkpt>
      <trkpt lat="45.78623" lon="4.87045">
        <ele>228</ele>
        <time>2010-11-23T19:23:02Z</time>
      </trkpt>
      <trkpt lat="45.78623" lon="4.87042">
        <ele>229</ele>
        <time>2010-11-23T19:23:03Z</time>
      </trkpt>
      <trkpt lat="45.78621" lon="4.87039">
        <ele>229</ele>
        <time>2010-11-23T19:23:04Z</time>
      </trkpt>
      <trkpt lat="45.7862" lon="4.87036">
        <ele>229</ele>
        <time>2010-11-23T19:23:05Z</time>
      </trkpt>
      <trkpt lat="45.7862" lon="4.8703">
        <ele>229</ele>
        <time>2010-11-23T19:23:06Z</time>
      </trkpt>
      <trkpt lat="45.78619" lon="4.87025">
        <ele>228</ele>
        <time>2010-11-23T19:23:07Z</time>
      </trkpt>
      <trkpt lat="45.78618" lon="4.87021">
        <ele>228</ele>
        <time>2010-11-23T19:23:08Z</time>
      </trkpt>
      <trkpt lat="45.78618" lon="4.87018">
        <ele>228</ele>
        <time>2010-11-23T19:23:09Z</time>
      </trkpt>
      <trkpt lat="45.78618" lon="4.87015">
        <ele>228</ele>
        <time>2010-11-23T19:23:10Z</time>
      </trkpt>
      <trkpt lat="45.78617" lon="4.8701">
        <ele>227</ele>
        <time>2010-11-23T19:23:11Z</time>
      </trkpt>
      <trkpt lat="45.78615" lon="4.87005">
        <ele>227</ele>
        <time>2010-11-23T19:23:12Z</time>
      </trkpt>
      <trkpt lat="45.78614" lon="4.87001">
        <ele>227</ele>
        <time>2010-11-23T19:23:13Z</time>
      </trkpt>
      <trkpt lat="45.78615" lon="4.86995">
        <ele>227</ele>
        <time>2010-11-23T19:23:14Z</time>
      </trkpt>
      <trkpt lat="45.78614" lon="4.86992">
        <ele>227</ele>
        <time>2010-11-23T19:23:15Z</time>
      </trkpt>
      <trkpt lat="45.78614" lon="4.86989">
        <ele>227</ele>
        <time>2010-11-23T19:23:16Z</time>
      </trkpt>
      <trkpt lat="45.78613" lon="4.86985">
        <ele>228</ele>
        <time>2010-11-23T19:23:17Z</time>
      </trkpt>
      <trkpt lat="45.78613" lon="4.86979">
        <ele>228</ele>
        <time>2010-11-23T19:23:18Z</time>
      </trkpt>
      <trkpt lat="45.78614" lon="4.86974">
        <ele>228</ele>
        <time>2010-11-23T19:23:20Z</time>
      </trkpt>
      <trkpt lat="45.78614" lon="4.86974">
        <ele>228.00595092773</ele>
        <time>2010-11-23T19:23:20Z</time>
      </trkpt>
      <trkpt lat="45.78613" lon="4.86972">
        <ele>228.00419616699</ele>
        <time>2010-11-23T19:23:21Z</time>
      </trkpt>
      <trkpt lat="45.78612" lon="4.86963">
        <ele>227</ele>
        <time>2010-11-23T19:23:22Z</time>
      </trkpt>
      <trkpt lat="45.78611" lon="4.8696">
        <ele>227</ele>
        <time>2010-11-23T19:23:23Z</time>
      </trkpt>
      <trkpt lat="45.7861" lon="4.86956">
        <ele>226</ele>
        <time>2010-11-23T19:23:24Z</time>
      </trkpt>
      <trkpt lat="45.78609" lon="4.86951">
        <ele>227</ele>
        <time>2010-11-23T19:23:25Z</time>
      </trkpt>
      <trkpt lat="45.78609" lon="4.86946">
        <ele>228</ele>
        <time>2010-11-23T19:23:26Z</time>
      </trkpt>
      <trkpt lat="45.78608" lon="4.86943">
        <ele>228</ele>
        <time>2010-11-23T19:23:27Z</time>
      </trkpt>
      <trkpt lat="45.78607" lon="4.86939">
        <ele>228</ele>
        <time>2010-11-23T19:23:28Z</time>
      </trkpt>
      <trkpt lat="45.78607" lon="4.86934">
        <ele>229</ele>
        <time>2010-11-23T19:23:29Z</time>
      </trkpt>
      <trkpt lat="45.78607" lon="4.86931">
        <ele>229</ele>
        <time>2010-11-23T19:23:30Z</time>
      </trkpt>
      <trkpt lat="45.78606" lon="4.86927">
        <ele>229</ele>
        <time>2010-11-23T19:23:31Z</time>
      </trkpt>
      <trkpt lat="45.78606" lon="4.86924">
        <ele>228</ele>
        <time>2010-11-23T19:23:33Z</time>
      </trkpt>
      <trkpt lat="45.78606" lon="4.86922">
        <ele>228</ele>
        <time>2010-11-23T19:23:33Z</time>
      </trkpt>
      <trkpt lat="45.78605" lon="4.86917">
        <ele>228</ele>
        <time>2010-11-23T19:23:34Z</time>
      </trkpt>
      <trkpt lat="45.78604" lon="4.86914">
        <ele>228</ele>
        <time>2010-11-23T19:23:35Z</time>
      </trkpt>
      <trkpt lat="45.78602" lon="4.86908">
        <ele>228</ele>
        <time>2010-11-23T19:23:36Z</time>
      </trkpt>
      <trkpt lat="45.78602" lon="4.86905">
        <ele>228</ele>
        <time>2010-11-23T19:23:37Z</time>
      </trkpt>
      <trkpt lat="45.78599" lon="4.86901">
        <ele>228</ele>
        <time>2010-11-23T19:23:38Z</time>
      </trkpt>
      <trkpt lat="45.78599" lon="4.86898">
        <ele>228</ele>
        <time>2010-11-23T19:23:39Z</time>
      </trkpt>
      <trkpt lat="45.78597" lon="4.86893">
        <ele>228</ele>
        <time>2010-11-23T19:23:40Z</time>
      </trkpt>
      <trkpt lat="45.78596" lon="4.86887">
        <ele>229</ele>
        <time>2010-11-23T19:23:41Z</time>
      </trkpt>
      <trkpt lat="45.78599" lon="4.86885">
        <ele>230</ele>
        <time>2010-11-23T19:23:44Z</time>
      </trkpt>
      <trkpt lat="45.78599" lon="4.86885">
        <ele>230.00256347656</ele>
        <time>2010-11-23T19:23:44Z</time>
      </trkpt>
      <trkpt lat="45.786" lon="4.86884">
        <ele>230.12043762207</ele>
        <time>2010-11-23T19:23:44Z</time>
      </trkpt>
      <trkpt lat="45.78601" lon="4.86876">
        <ele>232.14747619629</ele>
        <time>2010-11-23T19:23:45Z</time>
      </trkpt>
      <trkpt lat="45.78599" lon="4.86867">
        <ele>233</ele>
        <time>2010-11-23T19:23:46Z</time>
      </trkpt>
      <trkpt lat="45.78599" lon="4.86863">
        <ele>233</ele>
        <time>2010-11-23T19:23:47Z</time>
      </trkpt>
      <trkpt lat="45.78598" lon="4.8686">
        <ele>232</ele>
        <time>2010-11-23T19:23:48Z</time>
      </trkpt>
      <trkpt lat="45.78596" lon="4.86852">
        <ele>233.99996948242</ele>
        <time>2010-11-23T19:23:49Z</time>
      </trkpt>
      <trkpt lat="45.78595" lon="4.86845">
        <ele>236</ele>
        <time>2010-11-23T19:23:50Z</time>
      </trkpt>
      <trkpt lat="45.78594" lon="4.86841">
        <ele>235</ele>
        <time>2010-11-23T19:23:51Z</time>
      </trkpt>
      <trkpt lat="45.78593" lon="4.86836">
        <ele>236</ele>
        <time>2010-11-23T19:23:52Z</time>
      </trkpt>
      <trkpt lat="45.78592" lon="4.86831">
        <ele>237</ele>
        <time>2010-11-23T19:23:53Z</time>
      </trkpt>
      <trkpt lat="45.78591" lon="4.86828">
        <ele>237</ele>
        <time>2010-11-23T19:23:54Z</time>
      </trkpt>
      <trkpt lat="45.7859" lon="4.86825">
        <ele>237</ele>
        <time>2010-11-23T19:23:55Z</time>
      </trkpt>
      <trkpt lat="45.7859" lon="4.86823">
        <ele>236</ele>
        <time>2010-11-23T19:23:56Z</time>
      </trkpt>
      <trkpt lat="45.7859" lon="4.86819">
        <ele>237</ele>
        <time>2010-11-23T19:23:57Z</time>
      </trkpt>
      <trkpt lat="45.78589" lon="4.86814">
        <ele>237</ele>
        <time>2010-11-23T19:23:58Z</time>
      </trkpt>
      <trkpt lat="45.78589" lon="4.86811">
        <ele>236</ele>
        <time>2010-11-23T19:23:59Z</time>
      </trkpt>
      <trkpt lat="45.78589" lon="4.86808">
        <ele>236</ele>
        <time>2010-11-23T19:24:00Z</time>
      </trkpt>
      <trkpt lat="45.78589" lon="4.86804">
        <ele>236</ele>
        <time>2010-11-23T19:24:01Z</time>
      </trkpt>
      <trkpt lat="45.78588" lon="4.86801">
        <ele>236</ele>
        <time>2010-11-23T19:24:02Z</time>
      </trkpt>
      <trkpt lat="45.78588" lon="4.86798">
        <ele>235</ele>
        <time>2010-11-23T19:24:03Z</time>
      </trkpt>
      <trkpt lat="45.78587" lon="4.86796">
        <ele>235</ele>
        <time>2010-11-23T19:24:04Z</time>
      </trkpt>
      <trkpt lat="45.78587" lon="4.86794">
        <ele>235</ele>
        <time>2010-11-23T19:24:07Z</time>
      </trkpt>
      <trkpt lat="45.78587" lon="4.86794">
        <ele>235</ele>
        <time>2010-11-23T19:24:07Z</time>
      </trkpt>
      <trkpt lat="45.78587" lon="4.86793">
        <ele>235</ele>
        <time>2010-11-23T19:24:07Z</time>
      </trkpt>
      <trkpt lat="45.78586" lon="4.86785">
        <ele>234.10687255859</ele>
        <time>2010-11-23T19:24:08Z</time>
      </trkpt>
      <trkpt lat="45.78586" lon="4.86781">
        <ele>234</ele>
        <time>2010-11-23T19:24:09Z</time>
      </trkpt>
      <trkpt lat="45.78586" lon="4.86777">
        <ele>234</ele>
        <time>2010-11-23T19:24:10Z</time>
      </trkpt>
      <trkpt lat="45.78584" lon="4.86774">
        <ele>234</ele>
        <time>2010-11-23T19:24:11Z</time>
      </trkpt>
      <trkpt lat="45.78584" lon="4.86772">
        <ele>233</ele>
        <time>2010-11-23T19:24:12Z</time>
      </trkpt>
      <trkpt lat="45.78584" lon="4.86769">
        <ele>232</ele>
        <time>2010-11-23T19:24:13Z</time>
      </trkpt>
      <trkpt lat="45.78583" lon="4.86765">
        <ele>232</ele>
        <time>2010-11-23T19:24:14Z</time>
      </trkpt>
      <trkpt lat="45.78581" lon="4.8676">
        <ele>231</ele>
        <time>2010-11-23T19:24:15Z</time>
      </trkpt>
      <trkpt lat="45.78578" lon="4.86753">
        <ele>230</ele>
        <time>2010-11-23T19:24:16Z</time>
      </trkpt>
      <trkpt lat="45.78576" lon="4.86748">
        <ele>230</ele>
        <time>2010-11-23T19:24:17Z</time>
      </trkpt>
      <trkpt lat="45.78573" lon="4.86743">
        <ele>229</ele>
        <time>2010-11-23T19:24:18Z</time>
      </trkpt>
      <trkpt lat="45.78572" lon="4.86736">
        <ele>229</ele>
        <time>2010-11-23T19:24:19Z</time>
      </trkpt>
      <trkpt lat="45.7857" lon="4.86731">
        <ele>229</ele>
        <time>2010-11-23T19:24:20Z</time>
      </trkpt>
      <trkpt lat="45.78569" lon="4.86725">
        <ele>229</ele>
        <time>2010-11-23T19:24:21Z</time>
      </trkpt>
      <trkpt lat="45.78567" lon="4.86722">
        <ele>229</ele>
        <time>2010-11-23T19:24:22Z</time>
      </trkpt>
      <trkpt lat="45.78566" lon="4.86717">
        <ele>229</ele>
        <time>2010-11-23T19:24:23Z</time>
      </trkpt>
      <trkpt lat="45.78567" lon="4.86713">
        <ele>228</ele>
        <time>2010-11-23T19:24:24Z</time>
      </trkpt>
      <trkpt lat="45.78567" lon="4.86708">
        <ele>228</ele>
        <time>2010-11-23T19:24:25Z</time>
      </trkpt>
      <trkpt lat="45.78567" lon="4.86704">
        <ele>228</ele>
        <time>2010-11-23T19:24:26Z</time>
      </trkpt>
      <trkpt lat="45.78566" lon="4.867">
        <ele>228</ele>
        <time>2010-11-23T19:24:27Z</time>
      </trkpt>
      <trkpt lat="45.78566" lon="4.86696">
        <ele>228</ele>
        <time>2010-11-23T19:24:30Z</time>
      </trkpt>
      <trkpt lat="45.78566" lon="4.86696">
        <ele>228</ele>
        <time>2010-11-23T19:24:30Z</time>
      </trkpt>
      <trkpt lat="45.78566" lon="4.86694">
        <ele>228</ele>
        <time>2010-11-23T19:24:30Z</time>
      </trkpt>
      <trkpt lat="45.78565" lon="4.86686">
        <ele>228</ele>
        <time>2010-11-23T19:24:31Z</time>
      </trkpt>
      <trkpt lat="45.78564" lon="4.8668">
        <ele>228</ele>
        <time>2010-11-23T19:24:32Z</time>
      </trkpt>
      <trkpt lat="45.78565" lon="4.86676">
        <ele>229</ele>
        <time>2010-11-23T19:24:33Z</time>
      </trkpt>
      <trkpt lat="45.7856" lon="4.86673">
        <ele>228</ele>
        <time>2010-11-23T19:24:34Z</time>
      </trkpt>
      <trkpt lat="45.78559" lon="4.8667">
        <ele>228</ele>
        <time>2010-11-23T19:24:35Z</time>
      </trkpt>
      <trkpt lat="45.7856" lon="4.86665">
        <ele>230</ele>
        <time>2010-11-23T19:24:36Z</time>
      </trkpt>
      <trkpt lat="45.7856" lon="4.86663">
        <ele>230</ele>
        <time>2010-11-23T19:24:37Z</time>
      </trkpt>
      <trkpt lat="45.7856" lon="4.8666">
        <ele>229</ele>
        <time>2010-11-23T19:24:38Z</time>
      </trkpt>
      <trkpt lat="45.78559" lon="4.86654">
        <ele>231</ele>
        <time>2010-11-23T19:24:39Z</time>
      </trkpt>
      <trkpt lat="45.7856" lon="4.86651">
        <ele>231</ele>
        <time>2010-11-23T19:24:40Z</time>
      </trkpt>
      <trkpt lat="45.78559" lon="4.86648">
        <ele>231</ele>
        <time>2010-11-23T19:24:41Z</time>
      </trkpt>
      <trkpt lat="45.78559" lon="4.86644">
        <ele>232</ele>
        <time>2010-11-23T19:24:42Z</time>
      </trkpt>
      <trkpt lat="45.78559" lon="4.86641">
        <ele>232</ele>
        <time>2010-11-23T19:24:43Z</time>
      </trkpt>
      <trkpt lat="45.78557" lon="4.86637">
        <ele>232</ele>
        <time>2010-11-23T19:24:44Z</time>
      </trkpt>
      <trkpt lat="45.78558" lon="4.86634">
        <ele>232</ele>
        <time>2010-11-23T19:24:45Z</time>
      </trkpt>
      <trkpt lat="45.78558" lon="4.8663">
        <ele>231</ele>
        <time>2010-11-23T19:24:46Z</time>
      </trkpt>
      <trkpt lat="45.78558" lon="4.86627">
        <ele>231</ele>
        <time>2010-11-23T19:24:47Z</time>
      </trkpt>
      <trkpt lat="45.78556" lon="4.86624">
        <ele>230</ele>
        <time>2010-11-23T19:24:48Z</time>
      </trkpt>
      <trkpt lat="45.78553" lon="4.86619">
        <ele>229</ele>
        <time>2010-11-23T19:24:49Z</time>
      </trkpt>
      <trkpt lat="45.78553" lon="4.86614">
        <ele>230</ele>
        <time>2010-11-23T19:24:50Z</time>
      </trkpt>
      <trkpt lat="45.78553" lon="4.86609">
        <ele>229</ele>
        <time>2010-11-23T19:24:53Z</time>
      </trkpt>
      <trkpt lat="45.78553" lon="4.86609">
        <ele>229</ele>
        <time>2010-11-23T19:24:53Z</time>
      </trkpt>
      <trkpt lat="45.78553" lon="4.86609">
        <ele>228.97941589355</ele>
        <time>2010-11-23T19:24:53Z</time>
      </trkpt>
      <trkpt lat="45.78551" lon="4.86603">
        <ele>228.51750183105</ele>
        <time>2010-11-23T19:24:54Z</time>
      </trkpt>
      <trkpt lat="45.78549" lon="4.86593">
        <ele>228.00424194336</ele>
        <time>2010-11-23T19:24:55Z</time>
      </trkpt>
      <trkpt lat="45.78547" lon="4.86589">
        <ele>228</ele>
        <time>2010-11-23T19:24:56Z</time>
      </trkpt>
      <trkpt lat="45.78547" lon="4.86586">
        <ele>228</ele>
        <time>2010-11-23T19:24:57Z</time>
      </trkpt>
      <trkpt lat="45.78545" lon="4.86583">
        <ele>228</ele>
        <time>2010-11-23T19:24:58Z</time>
      </trkpt>
      <trkpt lat="45.78545" lon="4.86576">
        <ele>228</ele>
        <time>2010-11-23T19:24:59Z</time>
      </trkpt>
      <trkpt lat="45.78544" lon="4.86572">
        <ele>228</ele>
        <time>2010-11-23T19:25:00Z</time>
      </trkpt>
      <trkpt lat="45.78543" lon="4.86568">
        <ele>228</ele>
        <time>2010-11-23T19:25:01Z</time>
      </trkpt>
      <trkpt lat="45.78543" lon="4.86564">
        <ele>227</ele>
        <time>2010-11-23T19:25:02Z</time>
      </trkpt>
      <trkpt lat="45.78544" lon="4.86561">
        <ele>228</ele>
        <time>2010-11-23T19:25:03Z</time>
      </trkpt>
      <trkpt lat="45.78543" lon="4.86556">
        <ele>228</ele>
        <time>2010-11-23T19:25:04Z</time>
      </trkpt>
      <trkpt lat="45.78542" lon="4.86555">
        <ele>226</ele>
        <time>2010-11-23T19:25:05Z</time>
      </trkpt>
      <trkpt lat="45.78543" lon="4.86549">
        <ele>227</ele>
        <time>2010-11-23T19:25:06Z</time>
      </trkpt>
      <trkpt lat="45.78543" lon="4.86547">
        <ele>226</ele>
        <time>2010-11-23T19:25:07Z</time>
      </trkpt>
      <trkpt lat="45.78543" lon="4.86542">
        <ele>227</ele>
        <time>2010-11-23T19:25:08Z</time>
      </trkpt>
      <trkpt lat="45.78541" lon="4.86538">
        <ele>227</ele>
        <time>2010-11-23T19:25:09Z</time>
      </trkpt>
      <trkpt lat="45.7854" lon="4.86534">
        <ele>226</ele>
        <time>2010-11-23T19:25:10Z</time>
      </trkpt>
      <trkpt lat="45.78539" lon="4.8653">
        <ele>226</ele>
        <time>2010-11-23T19:25:11Z</time>
      </trkpt>
      <trkpt lat="45.78538" lon="4.86528">
        <ele>225</ele>
        <time>2010-11-23T19:25:12Z</time>
      </trkpt>
      <trkpt lat="45.78537" lon="4.86524">
        <ele>224</ele>
        <time>2010-11-23T19:25:13Z</time>
      </trkpt>
      <trkpt lat="45.78536" lon="4.86521">
        <ele>224</ele>
        <time>2010-11-23T19:25:16Z</time>
      </trkpt>
      <trkpt lat="45.78536" lon="4.86521">
        <ele>224</ele>
        <time>2010-11-23T19:25:16Z</time>
      </trkpt>
      <trkpt lat="45.78536" lon="4.8652">
        <ele>223.79560852051</ele>
        <time>2010-11-23T19:25:16Z</time>
      </trkpt>
      <trkpt lat="45.78534" lon="4.86515">
        <ele>223</ele>
        <time>2010-11-23T19:25:17Z</time>
      </trkpt>
      <trkpt lat="45.78533" lon="4.8651">
        <ele>222</ele>
        <time>2010-11-23T19:25:18Z</time>
      </trkpt>
      <trkpt lat="45.78533" lon="4.86508">
        <ele>224</ele>
        <time>2010-11-23T19:25:19Z</time>
      </trkpt>
      <trkpt lat="45.78532" lon="4.86507">
        <ele>224</ele>
        <time>2010-11-23T19:25:20Z</time>
      </trkpt>
      <trkpt lat="45.78532" lon="4.86504">
        <ele>224</ele>
        <time>2010-11-23T19:25:21Z</time>
      </trkpt>
      <trkpt lat="45.78534" lon="4.86497">
        <ele>225.51403808594</ele>
        <time>2010-11-23T19:25:22Z</time>
      </trkpt>
      <trkpt lat="45.78533" lon="4.86489">
        <ele>227</ele>
        <time>2010-11-23T19:25:23Z</time>
      </trkpt>
      <trkpt lat="45.78533" lon="4.86484">
        <ele>227</ele>
        <time>2010-11-23T19:25:24Z</time>
      </trkpt>
      <trkpt lat="45.78534" lon="4.8648">
        <ele>228</ele>
        <time>2010-11-23T19:25:25Z</time>
      </trkpt>
      <trkpt lat="45.78535" lon="4.86477">
        <ele>227</ele>
        <time>2010-11-23T19:25:26Z</time>
      </trkpt>
      <trkpt lat="45.78536" lon="4.86474">
        <ele>226</ele>
        <time>2010-11-23T19:25:27Z</time>
      </trkpt>
      <trkpt lat="45.78537" lon="4.8647">
        <ele>226</ele>
        <time>2010-11-23T19:25:28Z</time>
      </trkpt>
      <trkpt lat="45.78539" lon="4.86465">
        <ele>226</ele>
        <time>2010-11-23T19:25:29Z</time>
      </trkpt>
      <trkpt lat="45.78541" lon="4.86462">
        <ele>225</ele>
        <time>2010-11-23T19:25:30Z</time>
      </trkpt>
      <trkpt lat="45.78542" lon="4.86459">
        <ele>225</ele>
        <time>2010-11-23T19:25:31Z</time>
      </trkpt>
      <trkpt lat="45.78544" lon="4.86456">
        <ele>225</ele>
        <time>2010-11-23T19:25:32Z</time>
      </trkpt>
      <trkpt lat="45.78548" lon="4.86452">
        <ele>226</ele>
        <time>2010-11-23T19:25:33Z</time>
      </trkpt>
      <trkpt lat="45.78549" lon="4.8645">
        <ele>225</ele>
        <time>2010-11-23T19:25:34Z</time>
      </trkpt>
      <trkpt lat="45.78551" lon="4.86446">
        <ele>226</ele>
        <time>2010-11-23T19:25:35Z</time>
      </trkpt>
      <trkpt lat="45.78552" lon="4.86444">
        <ele>226</ele>
        <time>2010-11-23T19:25:36Z</time>
      </trkpt>
      <trkpt lat="45.78554" lon="4.86442">
        <ele>226</ele>
        <time>2010-11-23T19:25:39Z</time>
      </trkpt>
      <trkpt lat="45.78554" lon="4.86442">
        <ele>226</ele>
        <time>2010-11-23T19:25:39Z</time>
      </trkpt>
      <trkpt lat="45.78554" lon="4.86441">
        <ele>226</ele>
        <time>2010-11-23T19:25:39Z</time>
      </trkpt>
      <trkpt lat="45.78558" lon="4.86437">
        <ele>225.28489685059</ele>
        <time>2010-11-23T19:25:40Z</time>
      </trkpt>
      <trkpt lat="45.78561" lon="4.86432">
        <ele>226</ele>
        <time>2010-11-23T19:25:41Z</time>
      </trkpt>
      <trkpt lat="45.78563" lon="4.8643">
        <ele>226</ele>
        <time>2010-11-23T19:25:42Z</time>
      </trkpt>
      <trkpt lat="45.78565" lon="4.86427">
        <ele>226</ele>
        <time>2010-11-23T19:25:43Z</time>
      </trkpt>
      <trkpt lat="45.78567" lon="4.86423">
        <ele>227</ele>
        <time>2010-11-23T19:25:44Z</time>
      </trkpt>
      <trkpt lat="45.78569" lon="4.8642">
        <ele>227</ele>
        <time>2010-11-23T19:25:45Z</time>
      </trkpt>
      <trkpt lat="45.78571" lon="4.86417">
        <ele>228</ele>
        <time>2010-11-23T19:25:46Z</time>
      </trkpt>
      <trkpt lat="45.78572" lon="4.86414">
        <ele>228</ele>
        <time>2010-11-23T19:25:47Z</time>
      </trkpt>
      <trkpt lat="45.78574" lon="4.86411">
        <ele>228</ele>
        <time>2010-11-23T19:25:48Z</time>
      </trkpt>
      <trkpt lat="45.78575" lon="4.86407">
        <ele>228</ele>
        <time>2010-11-23T19:25:49Z</time>
      </trkpt>
      <trkpt lat="45.78576" lon="4.86404">
        <ele>227</ele>
        <time>2010-11-23T19:25:50Z</time>
      </trkpt>
      <trkpt lat="45.78578" lon="4.86399">
        <ele>229</ele>
        <time>2010-11-23T19:25:51Z</time>
      </trkpt>
      <trkpt lat="45.78579" lon="4.86396">
        <ele>228</ele>
        <time>2010-11-23T19:25:52Z</time>
      </trkpt>
      <trkpt lat="45.7858" lon="4.86392">
        <ele>228</ele>
        <time>2010-11-23T19:25:53Z</time>
      </trkpt>
      <trkpt lat="45.7858" lon="4.86387">
        <ele>228</ele>
        <time>2010-11-23T19:25:54Z</time>
      </trkpt>
      <trkpt lat="45.7858" lon="4.86384">
        <ele>227</ele>
        <time>2010-11-23T19:25:55Z</time>
      </trkpt>
      <trkpt lat="45.78581" lon="4.86379">
        <ele>227</ele>
        <time>2010-11-23T19:25:56Z</time>
      </trkpt>
      <trkpt lat="45.78581" lon="4.86376">
        <ele>227</ele>
        <time>2010-11-23T19:25:57Z</time>
      </trkpt>
      <trkpt lat="45.78581" lon="4.86372">
        <ele>227</ele>
        <time>2010-11-23T19:25:58Z</time>
      </trkpt>
      <trkpt lat="45.78581" lon="4.86367">
        <ele>226</ele>
        <time>2010-11-23T19:25:59Z</time>
      </trkpt>
      <trkpt lat="45.78581" lon="4.86363">
        <ele>226</ele>
        <time>2010-11-23T19:26:02Z</time>
      </trkpt>
      <trkpt lat="45.78581" lon="4.86363">
        <ele>226</ele>
        <time>2010-11-23T19:26:02Z</time>
      </trkpt>
      <trkpt lat="45.78581" lon="4.86363">
        <ele>226</ele>
        <time>2010-11-23T19:26:02Z</time>
      </trkpt>
      <trkpt lat="45.78581" lon="4.86358">
        <ele>225.67118835449</ele>
        <time>2010-11-23T19:26:03Z</time>
      </trkpt>
      <trkpt lat="45.78582" lon="4.86347">
        <ele>225.16090393066</ele>
        <time>2010-11-23T19:26:04Z</time>
      </trkpt>
      <trkpt lat="45.78581" lon="4.86341">
        <ele>225</ele>
        <time>2010-11-23T19:26:05Z</time>
      </trkpt>
      <trkpt lat="45.78579" lon="4.86337">
        <ele>224</ele>
        <time>2010-11-23T19:26:06Z</time>
      </trkpt>
      <trkpt lat="45.7858" lon="4.86332">
        <ele>224</ele>
        <time>2010-11-23T19:26:07Z</time>
      </trkpt>
      <trkpt lat="45.7858" lon="4.86327">
        <ele>224</ele>
        <time>2010-11-23T19:26:08Z</time>
      </trkpt>
      <trkpt lat="45.7858" lon="4.86324">
        <ele>224</ele>
        <time>2010-11-23T19:26:09Z</time>
      </trkpt>
      <trkpt lat="45.78582" lon="4.86323">
        <ele>224</ele>
        <time>2010-11-23T19:26:10Z</time>
      </trkpt>
      <trkpt lat="45.78582" lon="4.86319">
        <ele>224</ele>
        <time>2010-11-23T19:26:11Z</time>
      </trkpt>
      <trkpt lat="45.78583" lon="4.86317">
        <ele>224</ele>
        <time>2010-11-23T19:26:12Z</time>
      </trkpt>
      <trkpt lat="45.78583" lon="4.86312">
        <ele>223</ele>
        <time>2010-11-23T19:26:13Z</time>
      </trkpt>
      <trkpt lat="45.78586" lon="4.86308">
        <ele>223</ele>
        <time>2010-11-23T19:26:14Z</time>
      </trkpt>
      <trkpt lat="45.78587" lon="4.86305">
        <ele>223</ele>
        <time>2010-11-23T19:26:15Z</time>
      </trkpt>
      <trkpt lat="45.78587" lon="4.86302">
        <ele>223</ele>
        <time>2010-11-23T19:26:16Z</time>
      </trkpt>
      <trkpt lat="45.78589" lon="4.86298">
        <ele>223</ele>
        <time>2010-11-23T19:26:17Z</time>
      </trkpt>
      <trkpt lat="45.7859" lon="4.86295">
        <ele>222</ele>
        <time>2010-11-23T19:26:18Z</time>
      </trkpt>
      <trkpt lat="45.78592" lon="4.8629">
        <ele>223</ele>
        <time>2010-11-23T19:26:19Z</time>
      </trkpt>
      <trkpt lat="45.78592" lon="4.86286">
        <ele>223</ele>
        <time>2010-11-23T19:26:20Z</time>
      </trkpt>
      <trkpt lat="45.78594" lon="4.86282">
        <ele>223</ele>
        <time>2010-11-23T19:26:21Z</time>
      </trkpt>
      <trkpt lat="45.78594" lon="4.86279">
        <ele>223</ele>
        <time>2010-11-23T19:26:22Z</time>
      </trkpt>
      <trkpt lat="45.78595" lon="4.86275">
        <ele>223</ele>
        <time>2010-11-23T19:26:26Z</time>
      </trkpt>
      <trkpt lat="45.78595" lon="4.86275">
        <ele>223</ele>
        <time>2010-11-23T19:26:26Z</time>
      </trkpt>
      <trkpt lat="45.78595" lon="4.86275">
        <ele>223</ele>
        <time>2010-11-23T19:26:26Z</time>
      </trkpt>
      <trkpt lat="45.78595" lon="4.86275">
        <ele>223</ele>
        <time>2010-11-23T19:26:26Z</time>
      </trkpt>
      <trkpt lat="45.78596" lon="4.8627">
        <ele>223</ele>
        <time>2010-11-23T19:26:27Z</time>
      </trkpt>
      <trkpt lat="45.78598" lon="4.86261">
        <ele>223</ele>
        <time>2010-11-23T19:26:28Z</time>
      </trkpt>
      <trkpt lat="45.786" lon="4.86251">
        <ele>223.8878326416</ele>
        <time>2010-11-23T19:26:29Z</time>
      </trkpt>
      <trkpt lat="45.78601" lon="4.86246">
        <ele>223</ele>
        <time>2010-11-23T19:26:30Z</time>
      </trkpt>
      <trkpt lat="45.78602" lon="4.86242">
        <ele>223</ele>
        <time>2010-11-23T19:26:31Z</time>
      </trkpt>
      <trkpt lat="45.78603" lon="4.86238">
        <ele>223</ele>
        <time>2010-11-23T19:26:32Z</time>
      </trkpt>
      <trkpt lat="45.78604" lon="4.86234">
        <ele>224</ele>
        <time>2010-11-23T19:26:33Z</time>
      </trkpt>
      <trkpt lat="45.78605" lon="4.8623">
        <ele>224</ele>
        <time>2010-11-23T19:26:34Z</time>
      </trkpt>
      <trkpt lat="45.78606" lon="4.86226">
        <ele>223</ele>
        <time>2010-11-23T19:26:35Z</time>
      </trkpt>
      <trkpt lat="45.78608" lon="4.86221">
        <ele>223</ele>
        <time>2010-11-23T19:26:36Z</time>
      </trkpt>
      <trkpt lat="45.78609" lon="4.86217">
        <ele>223</ele>
        <time>2010-11-23T19:26:37Z</time>
      </trkpt>
      <trkpt lat="45.78611" lon="4.86213">
        <ele>223</ele>
        <time>2010-11-23T19:26:38Z</time>
      </trkpt>
      <trkpt lat="45.78611" lon="4.86208">
        <ele>224</ele>
        <time>2010-11-23T19:26:39Z</time>
      </trkpt>
      <trkpt lat="45.78612" lon="4.86202">
        <ele>223</ele>
        <time>2010-11-23T19:26:40Z</time>
      </trkpt>
      <trkpt lat="45.78613" lon="4.86198">
        <ele>223</ele>
        <time>2010-11-23T19:26:41Z</time>
      </trkpt>
      <trkpt lat="45.78613" lon="4.86194">
        <ele>223</ele>
        <time>2010-11-23T19:26:42Z</time>
      </trkpt>
      <trkpt lat="45.78614" lon="4.8619">
        <ele>223</ele>
        <time>2010-11-23T19:26:43Z</time>
      </trkpt>
      <trkpt lat="45.78613" lon="4.86186">
        <ele>223</ele>
        <time>2010-11-23T19:26:44Z</time>
      </trkpt>
      <trkpt lat="45.78615" lon="4.86182">
        <ele>223</ele>
        <time>2010-11-23T19:26:45Z</time>
      </trkpt>
      <trkpt lat="45.78616" lon="4.86177">
        <ele>223</ele>
        <time>2010-11-23T19:26:46Z</time>
      </trkpt>
      <trkpt lat="45.78614" lon="4.86175">
        <ele>223</ele>
        <time>2010-11-23T19:26:50Z</time>
      </trkpt>
      <trkpt lat="45.78614" lon="4.86175">
        <ele>223</ele>
        <time>2010-11-23T19:26:50Z</time>
      </trkpt>
      <trkpt lat="45.78614" lon="4.86175">
        <ele>223</ele>
        <time>2010-11-23T19:26:50Z</time>
      </trkpt>
      <trkpt lat="45.78614" lon="4.86174">
        <ele>222.96090698242</ele>
        <time>2010-11-23T19:26:50Z</time>
      </trkpt>
      <trkpt lat="45.78613" lon="4.86166">
        <ele>222.98204040527</ele>
        <time>2010-11-23T19:26:51Z</time>
      </trkpt>
      <trkpt lat="45.78613" lon="4.86156">
        <ele>223</ele>
        <time>2010-11-23T19:26:52Z</time>
      </trkpt>
      <trkpt lat="45.78613" lon="4.86153">
        <ele>223</ele>
        <time>2010-11-23T19:26:53Z</time>
      </trkpt>
      <trkpt lat="45.78613" lon="4.86148">
        <ele>222</ele>
        <time>2010-11-23T19:26:54Z</time>
      </trkpt>
      <trkpt lat="45.78613" lon="4.86143">
        <ele>222</ele>
        <time>2010-11-23T19:26:55Z</time>
      </trkpt>
      <trkpt lat="45.78613" lon="4.86139">
        <ele>222</ele>
        <time>2010-11-23T19:26:56Z</time>
      </trkpt>
      <trkpt lat="45.78614" lon="4.86135">
        <ele>222</ele>
        <time>2010-11-23T19:26:57Z</time>
      </trkpt>
      <trkpt lat="45.78615" lon="4.86131">
        <ele>222</ele>
        <time>2010-11-23T19:26:58Z</time>
      </trkpt>
      <trkpt lat="45.78614" lon="4.86127">
        <ele>222</ele>
        <time>2010-11-23T19:26:59Z</time>
      </trkpt>
      <trkpt lat="45.78615" lon="4.86122">
        <ele>222</ele>
        <time>2010-11-23T19:27:00Z</time>
      </trkpt>
      <trkpt lat="45.78614" lon="4.8612">
        <ele>223</ele>
        <time>2010-11-23T19:27:01Z</time>
      </trkpt>
      <trkpt lat="45.78615" lon="4.86116">
        <ele>223</ele>
        <time>2010-11-23T19:27:02Z</time>
      </trkpt>
      <trkpt lat="45.78616" lon="4.86111">
        <ele>223</ele>
        <time>2010-11-23T19:27:03Z</time>
      </trkpt>
      <trkpt lat="45.78616" lon="4.86107">
        <ele>222</ele>
        <time>2010-11-23T19:27:04Z</time>
      </trkpt>
      <trkpt lat="45.78615" lon="4.86104">
        <ele>222</ele>
        <time>2010-11-23T19:27:05Z</time>
      </trkpt>
      <trkpt lat="45.78617" lon="4.86099">
        <ele>222</ele>
        <time>2010-11-23T19:27:06Z</time>
      </trkpt>
      <trkpt lat="45.78618" lon="4.86095">
        <ele>223</ele>
        <time>2010-11-23T19:27:07Z</time>
      </trkpt>
      <trkpt lat="45.78619" lon="4.86089">
        <ele>222</ele>
        <time>2010-11-23T19:27:08Z</time>
      </trkpt>
      <trkpt lat="45.7862" lon="4.86085">
        <ele>222</ele>
        <time>2010-11-23T19:27:09Z</time>
      </trkpt>
      <trkpt lat="45.78621" lon="4.86081">
        <ele>222</ele>
        <time>2010-11-23T19:27:10Z</time>
      </trkpt>
      <trkpt lat="45.78621" lon="4.86076">
        <ele>222</ele>
        <time>2010-11-23T19:27:13Z</time>
      </trkpt>
      <trkpt lat="45.78621" lon="4.86076">
        <ele>222</ele>
        <time>2010-11-23T19:27:13Z</time>
      </trkpt>
      <trkpt lat="45.78622" lon="4.86074">
        <ele>222</ele>
        <time>2010-11-23T19:27:13Z</time>
      </trkpt>
      <trkpt lat="45.78622" lon="4.86065">
        <ele>222</ele>
        <time>2010-11-23T19:27:14Z</time>
      </trkpt>
      <trkpt lat="45.78623" lon="4.86061">
        <ele>222</ele>
        <time>2010-11-23T19:27:15Z</time>
      </trkpt>
      <trkpt lat="45.78623" lon="4.86058">
        <ele>222</ele>
        <time>2010-11-23T19:27:16Z</time>
      </trkpt>
      <trkpt lat="45.78625" lon="4.86053">
        <ele>223</ele>
        <time>2010-11-23T19:27:17Z</time>
      </trkpt>
      <trkpt lat="45.78625" lon="4.86051">
        <ele>223</ele>
        <time>2010-11-23T19:27:18Z</time>
      </trkpt>
      <trkpt lat="45.78625" lon="4.86047">
        <ele>224</ele>
        <time>2010-11-23T19:27:19Z</time>
      </trkpt>
      <trkpt lat="45.78625" lon="4.86044">
        <ele>224</ele>
        <time>2010-11-23T19:27:20Z</time>
      </trkpt>
      <trkpt lat="45.78626" lon="4.86041">
        <ele>225</ele>
        <time>2010-11-23T19:27:21Z</time>
      </trkpt>
      <trkpt lat="45.78626" lon="4.86037">
        <ele>225</ele>
        <time>2010-11-23T19:27:22Z</time>
      </trkpt>
      <trkpt lat="45.78627" lon="4.86032">
        <ele>225</ele>
        <time>2010-11-23T19:27:23Z</time>
      </trkpt>
      <trkpt lat="45.78629" lon="4.86029">
        <ele>226</ele>
        <time>2010-11-23T19:27:24Z</time>
      </trkpt>
      <trkpt lat="45.78629" lon="4.86025">
        <ele>226</ele>
        <time>2010-11-23T19:27:25Z</time>
      </trkpt>
      <trkpt lat="45.78629" lon="4.86021">
        <ele>227</ele>
        <time>2010-11-23T19:27:26Z</time>
      </trkpt>
      <trkpt lat="45.78629" lon="4.86017">
        <ele>228</ele>
        <time>2010-11-23T19:27:27Z</time>
      </trkpt>
      <trkpt lat="45.78628" lon="4.86014">
        <ele>229</ele>
        <time>2010-11-23T19:27:28Z</time>
      </trkpt>
      <trkpt lat="45.78628" lon="4.8601">
        <ele>229</ele>
        <time>2010-11-23T19:27:29Z</time>
      </trkpt>
      <trkpt lat="45.78631" lon="4.86007">
        <ele>230</ele>
        <time>2010-11-23T19:27:30Z</time>
      </trkpt>
      <trkpt lat="45.78632" lon="4.86004">
        <ele>231</ele>
        <time>2010-11-23T19:27:31Z</time>
      </trkpt>
      <trkpt lat="45.78633" lon="4.85999">
        <ele>230</ele>
        <time>2010-11-23T19:27:32Z</time>
      </trkpt>
      <trkpt lat="45.78634" lon="4.85994">
        <ele>230</ele>
        <time>2010-11-23T19:27:33Z</time>
      </trkpt>
      <trkpt lat="45.78634" lon="4.85989">
        <ele>230</ele>
        <time>2010-11-23T19:27:36Z</time>
      </trkpt>
      <trkpt lat="45.78634" lon="4.85989">
        <ele>230</ele>
        <time>2010-11-23T19:27:36Z</time>
      </trkpt>
      <trkpt lat="45.78634" lon="4.85989">
        <ele>229.99848937988</ele>
        <time>2010-11-23T19:27:36Z</time>
      </trkpt>
      <trkpt lat="45.78633" lon="4.85982">
        <ele>228.62748718262</ele>
        <time>2010-11-23T19:27:37Z</time>
      </trkpt>
      <trkpt lat="45.7863" lon="4.85972">
        <ele>226.48580932617</ele>
        <time>2010-11-23T19:27:38Z</time>
      </trkpt>
      <trkpt lat="45.78629" lon="4.85965">
        <ele>225</ele>
        <time>2010-11-23T19:27:39Z</time>
      </trkpt>
      <trkpt lat="45.78628" lon="4.85961">
        <ele>224</ele>
        <time>2010-11-23T19:27:40Z</time>
      </trkpt>
      <trkpt lat="45.78628" lon="4.85955">
        <ele>223</ele>
        <time>2010-11-23T19:27:41Z</time>
      </trkpt>
      <trkpt lat="45.78627" lon="4.85951">
        <ele>222</ele>
        <time>2010-11-23T19:27:42Z</time>
      </trkpt>
      <trkpt lat="45.78628" lon="4.85945">
        <ele>222</ele>
        <time>2010-11-23T19:27:43Z</time>
      </trkpt>
      <trkpt lat="45.78628" lon="4.85941">
        <ele>223</ele>
        <time>2010-11-23T19:27:44Z</time>
      </trkpt>
      <trkpt lat="45.78628" lon="4.85937">
        <ele>223</ele>
        <time>2010-11-23T19:27:45Z</time>
      </trkpt>
      <trkpt lat="45.78628" lon="4.85934">
        <ele>222</ele>
        <time>2010-11-23T19:27:46Z</time>
      </trkpt>
      <trkpt lat="45.78629" lon="4.8593">
        <ele>222</ele>
        <time>2010-11-23T19:27:47Z</time>
      </trkpt>
      <trkpt lat="45.78629" lon="4.85926">
        <ele>222</ele>
        <time>2010-11-23T19:27:48Z</time>
      </trkpt>
      <trkpt lat="45.78629" lon="4.85922">
        <ele>222</ele>
        <time>2010-11-23T19:27:49Z</time>
      </trkpt>
      <trkpt lat="45.78629" lon="4.85918">
        <ele>222</ele>
        <time>2010-11-23T19:27:50Z</time>
      </trkpt>
      <trkpt lat="45.78629" lon="4.85915">
        <ele>222</ele>
        <time>2010-11-23T19:27:51Z</time>
      </trkpt>
      <trkpt lat="45.7863" lon="4.85912">
        <ele>222</ele>
        <time>2010-11-23T19:27:52Z</time>
      </trkpt>
      <trkpt lat="45.78631" lon="4.85906">
        <ele>222</ele>
        <time>2010-11-23T19:27:53Z</time>
      </trkpt>
      <trkpt lat="45.78631" lon="4.85903">
        <ele>222</ele>
        <time>2010-11-23T19:27:54Z</time>
      </trkpt>
      <trkpt lat="45.7863" lon="4.85899">
        <ele>222</ele>
        <time>2010-11-23T19:27:55Z</time>
      </trkpt>
      <trkpt lat="45.78631" lon="4.85895">
        <ele>222</ele>
        <time>2010-11-23T19:27:56Z</time>
      </trkpt>
      <trkpt lat="45.78631" lon="4.8589">
        <ele>222</ele>
        <time>2010-11-23T19:27:59Z</time>
      </trkpt>
      <trkpt lat="45.78631" lon="4.8589">
        <ele>222</ele>
        <time>2010-11-23T19:27:59Z</time>
      </trkpt>
      <trkpt lat="45.78631" lon="4.85889">
        <ele>221.93678283691</ele>
        <time>2010-11-23T19:27:59Z</time>
      </trkpt>
      <trkpt lat="45.78633" lon="4.85881">
        <ele>221.97354125977</ele>
        <time>2010-11-23T19:28:00Z</time>
      </trkpt>
      <trkpt lat="45.78633" lon="4.85872">
        <ele>223</ele>
        <time>2010-11-23T19:28:01Z</time>
      </trkpt>
      <trkpt lat="45.78632" lon="4.85869">
        <ele>223</ele>
        <time>2010-11-23T19:28:02Z</time>
      </trkpt>
      <trkpt lat="45.78632" lon="4.85864">
        <ele>223</ele>
        <time>2010-11-23T19:28:03Z</time>
      </trkpt>
      <trkpt lat="45.78633" lon="4.8586">
        <ele>222</ele>
        <time>2010-11-23T19:28:04Z</time>
      </trkpt>
      <trkpt lat="45.78633" lon="4.85855">
        <ele>222</ele>
        <time>2010-11-23T19:28:05Z</time>
      </trkpt>
      <trkpt lat="45.78634" lon="4.85851">
        <ele>222</ele>
        <time>2010-11-23T19:28:06Z</time>
      </trkpt>
      <trkpt lat="45.78633" lon="4.85847">
        <ele>222</ele>
        <time>2010-11-23T19:28:07Z</time>
      </trkpt>
      <trkpt lat="45.78634" lon="4.85843">
        <ele>222</ele>
        <time>2010-11-23T19:28:08Z</time>
      </trkpt>
      <trkpt lat="45.78633" lon="4.8584">
        <ele>222</ele>
        <time>2010-11-23T19:28:09Z</time>
      </trkpt>
      <trkpt lat="45.78634" lon="4.85835">
        <ele>222</ele>
        <time>2010-11-23T19:28:10Z</time>
      </trkpt>
      <trkpt lat="45.78635" lon="4.8583">
        <ele>222</ele>
        <time>2010-11-23T19:28:11Z</time>
      </trkpt>
      <trkpt lat="45.78635" lon="4.85826">
        <ele>222</ele>
        <time>2010-11-23T19:28:12Z</time>
      </trkpt>
      <trkpt lat="45.78635" lon="4.85822">
        <ele>222</ele>
        <time>2010-11-23T19:28:13Z</time>
      </trkpt>
      <trkpt lat="45.78635" lon="4.85819">
        <ele>222</ele>
        <time>2010-11-23T19:28:14Z</time>
      </trkpt>
      <trkpt lat="45.78634" lon="4.85815">
        <ele>222</ele>
        <time>2010-11-23T19:28:15Z</time>
      </trkpt>
      <trkpt lat="45.78634" lon="4.85811">
        <ele>222</ele>
        <time>2010-11-23T19:28:16Z</time>
      </trkpt>
      <trkpt lat="45.78634" lon="4.85807">
        <ele>221</ele>
        <time>2010-11-23T19:28:17Z</time>
      </trkpt>
      <trkpt lat="45.78633" lon="4.85803">
        <ele>221</ele>
        <time>2010-11-23T19:28:18Z</time>
      </trkpt>
      <trkpt lat="45.78633" lon="4.85798">
        <ele>220</ele>
        <time>2010-11-23T19:28:19Z</time>
      </trkpt>
      <trkpt lat="45.78633" lon="4.85794">
        <ele>220</ele>
        <time>2010-11-23T19:28:22Z</time>
      </trkpt>
      <trkpt lat="45.78633" lon="4.85794">
        <ele>220</ele>
        <time>2010-11-23T19:28:22Z</time>
      </trkpt>
      <trkpt lat="45.78633" lon="4.85793">
        <ele>220</ele>
        <time>2010-11-23T19:28:22Z</time>
      </trkpt>
      <trkpt lat="45.78633" lon="4.85787">
        <ele>220</ele>
        <time>2010-11-23T19:28:23Z</time>
      </trkpt>
      <trkpt lat="45.78634" lon="4.85776">
        <ele>220</ele>
        <time>2010-11-23T19:28:24Z</time>
      </trkpt>
      <trkpt lat="45.78635" lon="4.85772">
        <ele>220</ele>
        <time>2010-11-23T19:28:25Z</time>
      </trkpt>
      <trkpt lat="45.78637" lon="4.85767">
        <ele>219</ele>
        <time>2010-11-23T19:28:26Z</time>
      </trkpt>
      <trkpt lat="45.78637" lon="4.85763">
        <ele>219</ele>
        <time>2010-11-23T19:28:27Z</time>
      </trkpt>
      <trkpt lat="45.78636" lon="4.85758">
        <ele>218</ele>
        <time>2010-11-23T19:28:28Z</time>
      </trkpt>
      <trkpt lat="45.78636" lon="4.85753">
        <ele>218</ele>
        <time>2010-11-23T19:28:29Z</time>
      </trkpt>
      <trkpt lat="45.78636" lon="4.8575">
        <ele>218</ele>
        <time>2010-11-23T19:28:30Z</time>
      </trkpt>
      <trkpt lat="45.78635" lon="4.85746">
        <ele>219</ele>
        <time>2010-11-23T19:28:31Z</time>
      </trkpt>
      <trkpt lat="45.78634" lon="4.85742">
        <ele>219</ele>
        <time>2010-11-23T19:28:32Z</time>
      </trkpt>
      <trkpt lat="45.78636" lon="4.85737">
        <ele>219</ele>
        <time>2010-11-23T19:28:33Z</time>
      </trkpt>
      <trkpt lat="45.78635" lon="4.85732">
        <ele>219</ele>
        <time>2010-11-23T19:28:34Z</time>
      </trkpt>
      <trkpt lat="45.78633" lon="4.85729">
        <ele>220</ele>
        <time>2010-11-23T19:28:35Z</time>
      </trkpt>
      <trkpt lat="45.78635" lon="4.85723">
        <ele>220</ele>
        <time>2010-11-23T19:28:36Z</time>
      </trkpt>
      <trkpt lat="45.78635" lon="4.85719">
        <ele>220</ele>
        <time>2010-11-23T19:28:37Z</time>
      </trkpt>
      <trkpt lat="45.78636" lon="4.85714">
        <ele>221</ele>
        <time>2010-11-23T19:28:38Z</time>
      </trkpt>
      <trkpt lat="45.78635" lon="4.85711">
        <ele>220</ele>
        <time>2010-11-23T19:28:39Z</time>
      </trkpt>
      <trkpt lat="45.78635" lon="4.85706">
        <ele>220</ele>
        <time>2010-11-23T19:28:40Z</time>
      </trkpt>
      <trkpt lat="45.78635" lon="4.85701">
        <ele>220</ele>
        <time>2010-11-23T19:28:41Z</time>
      </trkpt>
      <trkpt lat="45.78636" lon="4.85697">
        <ele>221</ele>
        <time>2010-11-23T19:28:42Z</time>
      </trkpt>
      <trkpt lat="45.78636" lon="4.85692">
        <ele>221</ele>
        <time>2010-11-23T19:28:45Z</time>
      </trkpt>
      <trkpt lat="45.78636" lon="4.85692">
        <ele>221</ele>
        <time>2010-11-23T19:28:45Z</time>
      </trkpt>
      <trkpt lat="45.78636" lon="4.85691">
        <ele>221</ele>
        <time>2010-11-23T19:28:45Z</time>
      </trkpt>
      <trkpt lat="45.78634" lon="4.85682">
        <ele>221.89886474609</ele>
        <time>2010-11-23T19:28:46Z</time>
      </trkpt>
      <trkpt lat="45.78635" lon="4.85676">
        <ele>223</ele>
        <time>2010-11-23T19:28:47Z</time>
      </trkpt>
      <trkpt lat="45.78634" lon="4.85672">
        <ele>224</ele>
        <time>2010-11-23T19:28:48Z</time>
      </trkpt>
      <trkpt lat="45.78635" lon="4.85668">
        <ele>223</ele>
        <time>2010-11-23T19:28:49Z</time>
      </trkpt>
      <trkpt lat="45.78635" lon="4.85664">
        <ele>223</ele>
        <time>2010-11-23T19:28:50Z</time>
      </trkpt>
      <trkpt lat="45.78636" lon="4.8566">
        <ele>224</ele>
        <time>2010-11-23T19:28:51Z</time>
      </trkpt>
      <trkpt lat="45.78635" lon="4.85656">
        <ele>224</ele>
        <time>2010-11-23T19:28:52Z</time>
      </trkpt>
      <trkpt lat="45.78635" lon="4.85651">
        <ele>224</ele>
        <time>2010-11-23T19:28:53Z</time>
      </trkpt>
      <trkpt lat="45.78636" lon="4.85647">
        <ele>223</ele>
        <time>2010-11-23T19:28:54Z</time>
      </trkpt>
      <trkpt lat="45.78635" lon="4.85645">
        <ele>223</ele>
        <time>2010-11-23T19:28:55Z</time>
      </trkpt>
      <trkpt lat="45.78635" lon="4.85641">
        <ele>223</ele>
        <time>2010-11-23T19:28:56Z</time>
      </trkpt>
      <trkpt lat="45.78634" lon="4.85639">
        <ele>223</ele>
        <time>2010-11-23T19:28:57Z</time>
      </trkpt>
      <trkpt lat="45.78633" lon="4.85635">
        <ele>223</ele>
        <time>2010-11-23T19:28:58Z</time>
      </trkpt>
      <trkpt lat="45.78632" lon="4.85631">
        <ele>222</ele>
        <time>2010-11-23T19:28:59Z</time>
      </trkpt>
      <trkpt lat="45.78633" lon="4.85626">
        <ele>222</ele>
        <time>2010-11-23T19:29:00Z</time>
      </trkpt>
      <trkpt lat="45.78633" lon="4.85621">
        <ele>222</ele>
        <time>2010-11-23T19:29:01Z</time>
      </trkpt>
      <trkpt lat="45.78633" lon="4.85618">
        <ele>221</ele>
        <time>2010-11-23T19:29:02Z</time>
      </trkpt>
      <trkpt lat="45.78633" lon="4.85614">
        <ele>221</ele>
        <time>2010-11-23T19:29:03Z</time>
      </trkpt>
      <trkpt lat="45.78632" lon="4.8561">
        <ele>221</ele>
        <time>2010-11-23T19:29:04Z</time>
      </trkpt>
      <trkpt lat="45.78632" lon="4.85606">
        <ele>221</ele>
        <time>2010-11-23T19:29:05Z</time>
      </trkpt>
      <trkpt lat="45.78632" lon="4.85603">
        <ele>221</ele>
        <time>2010-11-23T19:29:08Z</time>
      </trkpt>
      <trkpt lat="45.78632" lon="4.85603">
        <ele>221.0018157959</ele>
        <time>2010-11-23T19:29:08Z</time>
      </trkpt>
      <trkpt lat="45.78632" lon="4.85603">
        <ele>221.00180053711</ele>
        <time>2010-11-23T19:29:08Z</time>
      </trkpt>
      <trkpt lat="45.78632" lon="4.856">
        <ele>221.00135803223</ele>
        <time>2010-11-23T19:29:09Z</time>
      </trkpt>
      <trkpt lat="45.7863" lon="4.8559">
        <ele>221.73573303223</ele>
        <time>2010-11-23T19:29:10Z</time>
      </trkpt>
      <trkpt lat="45.78629" lon="4.85582">
        <ele>222</ele>
        <time>2010-11-23T19:29:11Z</time>
      </trkpt>
      <trkpt lat="45.78628" lon="4.8558">
        <ele>221</ele>
        <time>2010-11-23T19:29:12Z</time>
      </trkpt>
      <trkpt lat="45.78627" lon="4.85575">
        <ele>221</ele>
        <time>2010-11-23T19:29:13Z</time>
      </trkpt>
      <trkpt lat="45.78627" lon="4.85572">
        <ele>221</ele>
        <time>2010-11-23T19:29:14Z</time>
      </trkpt>
      <trkpt lat="45.78626" lon="4.85568">
        <ele>221</ele>
        <time>2010-11-23T19:29:15Z</time>
      </trkpt>
      <trkpt lat="45.78626" lon="4.85565">
        <ele>221</ele>
        <time>2010-11-23T19:29:16Z</time>
      </trkpt>
      <trkpt lat="45.78625" lon="4.8556">
        <ele>221</ele>
        <time>2010-11-23T19:29:17Z</time>
      </trkpt>
      <trkpt lat="45.78625" lon="4.85556">
        <ele>222</ele>
        <time>2010-11-23T19:29:18Z</time>
      </trkpt>
      <trkpt lat="45.78624" lon="4.85552">
        <ele>222</ele>
        <time>2010-11-23T19:29:19Z</time>
      </trkpt>
      <trkpt lat="45.78625" lon="4.85547">
        <ele>222</ele>
        <time>2010-11-23T19:29:20Z</time>
      </trkpt>
      <trkpt lat="45.78625" lon="4.85543">
        <ele>222</ele>
        <time>2010-11-23T19:29:21Z</time>
      </trkpt>
      <trkpt lat="45.78624" lon="4.85539">
        <ele>222</ele>
        <time>2010-11-23T19:29:22Z</time>
      </trkpt>
      <trkpt lat="45.78624" lon="4.85535">
        <ele>222</ele>
        <time>2010-11-23T19:29:23Z</time>
      </trkpt>
      <trkpt lat="45.78625" lon="4.8553">
        <ele>222</ele>
        <time>2010-11-23T19:29:24Z</time>
      </trkpt>
      <trkpt lat="45.78625" lon="4.85525">
        <ele>222</ele>
        <time>2010-11-23T19:29:25Z</time>
      </trkpt>
      <trkpt lat="45.78625" lon="4.85522">
        <ele>222</ele>
        <time>2010-11-23T19:29:26Z</time>
      </trkpt>
      <trkpt lat="45.78624" lon="4.8552">
        <ele>221</ele>
        <time>2010-11-23T19:29:27Z</time>
      </trkpt>
      <trkpt lat="45.78623" lon="4.85515">
        <ele>221</ele>
        <time>2010-11-23T19:29:28Z</time>
      </trkpt>
      <trkpt lat="45.78623" lon="4.85511">
        <ele>221</ele>
        <time>2010-11-23T19:29:29Z</time>
      </trkpt>
      <trkpt lat="45.78623" lon="4.85509">
        <ele>222</ele>
        <time>2010-11-23T19:29:32Z</time>
      </trkpt>
      <trkpt lat="45.78623" lon="4.85509">
        <ele>221.99816894531</ele>
        <time>2010-11-23T19:29:32Z</time>
      </trkpt>
      <trkpt lat="45.78623" lon="4.85508">
        <ele>221.99824523926</ele>
        <time>2010-11-23T19:29:32Z</time>
      </trkpt>
      <trkpt lat="45.78623" lon="4.85502">
        <ele>221.99905395508</ele>
        <time>2010-11-23T19:29:33Z</time>
      </trkpt>
      <trkpt lat="45.78621" lon="4.85492">
        <ele>221.03587341309</ele>
        <time>2010-11-23T19:29:34Z</time>
      </trkpt>
      <trkpt lat="45.7862" lon="4.85488">
        <ele>221</ele>
        <time>2010-11-23T19:29:35Z</time>
      </trkpt>
      <trkpt lat="45.7862" lon="4.85484">
        <ele>221</ele>
        <time>2010-11-23T19:29:36Z</time>
      </trkpt>
      <trkpt lat="45.7862" lon="4.8548">
        <ele>221</ele>
        <time>2010-11-23T19:29:37Z</time>
      </trkpt>
      <trkpt lat="45.7862" lon="4.85476">
        <ele>221</ele>
        <time>2010-11-23T19:29:38Z</time>
      </trkpt>
      <trkpt lat="45.78618" lon="4.85471">
        <ele>219</ele>
        <time>2010-11-23T19:29:39Z</time>
      </trkpt>
      <trkpt lat="45.78618" lon="4.85467">
        <ele>218</ele>
        <time>2010-11-23T19:29:40Z</time>
      </trkpt>
      <trkpt lat="45.78617" lon="4.85463">
        <ele>219</ele>
        <time>2010-11-23T19:29:41Z</time>
      </trkpt>
      <trkpt lat="45.78616" lon="4.85458">
        <ele>218</ele>
        <time>2010-11-23T19:29:42Z</time>
      </trkpt>
      <trkpt lat="45.78616" lon="4.85454">
        <ele>218</ele>
        <time>2010-11-23T19:29:43Z</time>
      </trkpt>
      <trkpt lat="45.78614" lon="4.8545">
        <ele>219</ele>
        <time>2010-11-23T19:29:44Z</time>
      </trkpt>
      <trkpt lat="45.78613" lon="4.85447">
        <ele>219</ele>
        <time>2010-11-23T19:29:45Z</time>
      </trkpt>
      <trkpt lat="45.78613" lon="4.85443">
        <ele>220</ele>
        <time>2010-11-23T19:29:46Z</time>
      </trkpt>
      <trkpt lat="45.78612" lon="4.8544">
        <ele>219</ele>
        <time>2010-11-23T19:29:47Z</time>
      </trkpt>
      <trkpt lat="45.7861" lon="4.85436">
        <ele>220</ele>
        <time>2010-11-23T19:29:48Z</time>
      </trkpt>
      <trkpt lat="45.78609" lon="4.85433">
        <ele>219</ele>
        <time>2010-11-23T19:29:49Z</time>
      </trkpt>
      <trkpt lat="45.78609" lon="4.85428">
        <ele>219</ele>
        <time>2010-11-23T19:29:50Z</time>
      </trkpt>
      <trkpt lat="45.7861" lon="4.85424">
        <ele>219</ele>
        <time>2010-11-23T19:29:51Z</time>
      </trkpt>
      <trkpt lat="45.78609" lon="4.85419">
        <ele>219</ele>
        <time>2010-11-23T19:29:52Z</time>
      </trkpt>
      <trkpt lat="45.78609" lon="4.85415">
        <ele>219</ele>
        <time>2010-11-23T19:29:55Z</time>
      </trkpt>
      <trkpt lat="45.78609" lon="4.85415">
        <ele>219</ele>
        <time>2010-11-23T19:29:55Z</time>
      </trkpt>
      <trkpt lat="45.78608" lon="4.85414">
        <ele>219</ele>
        <time>2010-11-23T19:29:55Z</time>
      </trkpt>
      <trkpt lat="45.78606" lon="4.85408">
        <ele>219</ele>
        <time>2010-11-23T19:29:56Z</time>
      </trkpt>
      <trkpt lat="45.78603" lon="4.85401">
        <ele>219</ele>
        <time>2010-11-23T19:29:57Z</time>
      </trkpt>
      <trkpt lat="45.78602" lon="4.85397">
        <ele>219</ele>
        <time>2010-11-23T19:29:58Z</time>
      </trkpt>
      <trkpt lat="45.78601" lon="4.85392">
        <ele>219</ele>
        <time>2010-11-23T19:29:59Z</time>
      </trkpt>
      <trkpt lat="45.78601" lon="4.85388">
        <ele>219</ele>
        <time>2010-11-23T19:30:00Z</time>
      </trkpt>
      <trkpt lat="45.78601" lon="4.85383">
        <ele>219</ele>
        <time>2010-11-23T19:30:01Z</time>
      </trkpt>
      <trkpt lat="45.78602" lon="4.85378">
        <ele>219</ele>
        <time>2010-11-23T19:30:02Z</time>
      </trkpt>
      <trkpt lat="45.78599" lon="4.85375">
        <ele>219</ele>
        <time>2010-11-23T19:30:03Z</time>
      </trkpt>
      <trkpt lat="45.78599" lon="4.85372">
        <ele>219</ele>
        <time>2010-11-23T19:30:04Z</time>
      </trkpt>
      <trkpt lat="45.78596" lon="4.85369">
        <ele>218</ele>
        <time>2010-11-23T19:30:05Z</time>
      </trkpt>
      <trkpt lat="45.78596" lon="4.85366">
        <ele>219</ele>
        <time>2010-11-23T19:30:06Z</time>
      </trkpt>
      <trkpt lat="45.78594" lon="4.85362">
        <ele>218</ele>
        <time>2010-11-23T19:30:07Z</time>
      </trkpt>
      <trkpt lat="45.78594" lon="4.85358">
        <ele>218</ele>
        <time>2010-11-23T19:30:08Z</time>
      </trkpt>
      <trkpt lat="45.78592" lon="4.85353">
        <ele>218</ele>
        <time>2010-11-23T19:30:09Z</time>
      </trkpt>
      <trkpt lat="45.78592" lon="4.85348">
        <ele>218</ele>
        <time>2010-11-23T19:30:10Z</time>
      </trkpt>
      <trkpt lat="45.78591" lon="4.85346">
        <ele>218</ele>
        <time>2010-11-23T19:30:11Z</time>
      </trkpt>
      <trkpt lat="45.78589" lon="4.85343">
        <ele>219</ele>
        <time>2010-11-23T19:30:12Z</time>
      </trkpt>
      <trkpt lat="45.78589" lon="4.8534">
        <ele>218</ele>
        <time>2010-11-23T19:30:13Z</time>
      </trkpt>
      <trkpt lat="45.78588" lon="4.85333">
        <ele>219</ele>
        <time>2010-11-23T19:30:14Z</time>
      </trkpt>
      <trkpt lat="45.78587" lon="4.8533">
        <ele>219</ele>
        <time>2010-11-23T19:30:15Z</time>
      </trkpt>
      <trkpt lat="45.78586" lon="4.8533">
        <ele>219</ele>
        <time>2010-11-23T19:30:18Z</time>
      </trkpt>
      <trkpt lat="45.78586" lon="4.8533">
        <ele>219</ele>
        <time>2010-11-23T19:30:18Z</time>
      </trkpt>
      <trkpt lat="45.78586" lon="4.8533">
        <ele>219</ele>
        <time>2010-11-23T19:30:18Z</time>
      </trkpt>
      <trkpt lat="45.78585" lon="4.85325">
        <ele>219</ele>
        <time>2010-11-23T19:30:19Z</time>
      </trkpt>
      <trkpt lat="45.78582" lon="4.85315">
        <ele>219</ele>
        <time>2010-11-23T19:30:20Z</time>
      </trkpt>
      <trkpt lat="45.78582" lon="4.85312">
        <ele>219</ele>
        <time>2010-11-23T19:30:21Z</time>
      </trkpt>
      <trkpt lat="45.7858" lon="4.85309">
        <ele>219</ele>
        <time>2010-11-23T19:30:22Z</time>
      </trkpt>
      <trkpt lat="45.78579" lon="4.85305">
        <ele>218</ele>
        <time>2010-11-23T19:30:23Z</time>
      </trkpt>
      <trkpt lat="45.78578" lon="4.85303">
        <ele>218</ele>
        <time>2010-11-23T19:30:24Z</time>
      </trkpt>
      <trkpt lat="45.78576" lon="4.85302">
        <ele>218</ele>
        <time>2010-11-23T19:30:25Z</time>
      </trkpt>
      <trkpt lat="45.78575" lon="4.85298">
        <ele>218</ele>
        <time>2010-11-23T19:30:26Z</time>
      </trkpt>
      <trkpt lat="45.78574" lon="4.85295">
        <ele>218</ele>
        <time>2010-11-23T19:30:27Z</time>
      </trkpt>
      <trkpt lat="45.78574" lon="4.85289">
        <ele>217</ele>
        <time>2010-11-23T19:30:28Z</time>
      </trkpt>
      <trkpt lat="45.78573" lon="4.85286">
        <ele>217</ele>
        <time>2010-11-23T19:30:29Z</time>
      </trkpt>
      <trkpt lat="45.78571" lon="4.85283">
        <ele>217</ele>
        <time>2010-11-23T19:30:30Z</time>
      </trkpt>
      <trkpt lat="45.78571" lon="4.85278">
        <ele>217</ele>
        <time>2010-11-23T19:30:31Z</time>
      </trkpt>
      <trkpt lat="45.7857" lon="4.85271">
        <ele>217</ele>
        <time>2010-11-23T19:30:32Z</time>
      </trkpt>
      <trkpt lat="45.78569" lon="4.85268">
        <ele>218</ele>
        <time>2010-11-23T19:30:33Z</time>
      </trkpt>
      <trkpt lat="45.78567" lon="4.85266">
        <ele>218</ele>
        <time>2010-11-23T19:30:34Z</time>
      </trkpt>
      <trkpt lat="45.78565" lon="4.85261">
        <ele>217</ele>
        <time>2010-11-23T19:30:35Z</time>
      </trkpt>
      <trkpt lat="45.78565" lon="4.8526">
        <ele>218</ele>
        <time>2010-11-23T19:30:36Z</time>
      </trkpt>
      <trkpt lat="45.78564" lon="4.85257">
        <ele>218</ele>
        <time>2010-11-23T19:30:37Z</time>
      </trkpt>
      <trkpt lat="45.78562" lon="4.85251">
        <ele>217</ele>
        <time>2010-11-23T19:30:38Z</time>
      </trkpt>
      <trkpt lat="45.78562" lon="4.85247">
        <ele>217</ele>
        <time>2010-11-23T19:30:41Z</time>
      </trkpt>
      <trkpt lat="45.78562" lon="4.85247">
        <ele>217</ele>
        <time>2010-11-23T19:30:41Z</time>
      </trkpt>
      <trkpt lat="45.78562" lon="4.85247">
        <ele>217</ele>
        <time>2010-11-23T19:30:41Z</time>
      </trkpt>
      <trkpt lat="45.7856" lon="4.8524">
        <ele>216.19317626953</ele>
        <time>2010-11-23T19:30:42Z</time>
      </trkpt>
      <trkpt lat="45.78558" lon="4.85232">
        <ele>216</ele>
        <time>2010-11-23T19:30:43Z</time>
      </trkpt>
      <trkpt lat="45.78557" lon="4.8523">
        <ele>215</ele>
        <time>2010-11-23T19:30:44Z</time>
      </trkpt>
      <trkpt lat="45.78555" lon="4.85227">
        <ele>215</ele>
        <time>2010-11-23T19:30:45Z</time>
      </trkpt>
      <trkpt lat="45.78554" lon="4.85221">
        <ele>214</ele>
        <time>2010-11-23T19:30:46Z</time>
      </trkpt>
      <trkpt lat="45.78552" lon="4.85218">
        <ele>215</ele>
        <time>2010-11-23T19:30:47Z</time>
      </trkpt>
      <trkpt lat="45.78551" lon="4.85214">
        <ele>215</ele>
        <time>2010-11-23T19:30:48Z</time>
      </trkpt>
      <trkpt lat="45.7855" lon="4.85211">
        <ele>215</ele>
        <time>2010-11-23T19:30:49Z</time>
      </trkpt>
      <trkpt lat="45.78547" lon="4.85208">
        <ele>215</ele>
        <time>2010-11-23T19:30:50Z</time>
      </trkpt>
      <trkpt lat="45.78546" lon="4.85206">
        <ele>215</ele>
        <time>2010-11-23T19:30:51Z</time>
      </trkpt>
      <trkpt lat="45.78544" lon="4.85202">
        <ele>215</ele>
        <time>2010-11-23T19:30:52Z</time>
      </trkpt>
      <trkpt lat="45.78543" lon="4.852">
        <ele>214</ele>
        <time>2010-11-23T19:30:53Z</time>
      </trkpt>
      <trkpt lat="45.78543" lon="4.85198">
        <ele>215</ele>
        <time>2010-11-23T19:30:54Z</time>
      </trkpt>
      <trkpt lat="45.7854" lon="4.85196">
        <ele>215</ele>
        <time>2010-11-23T19:30:55Z</time>
      </trkpt>
      <trkpt lat="45.78539" lon="4.8519">
        <ele>215</ele>
        <time>2010-11-23T19:30:56Z</time>
      </trkpt>
      <trkpt lat="45.78538" lon="4.85187">
        <ele>216</ele>
        <time>2010-11-23T19:30:57Z</time>
      </trkpt>
      <trkpt lat="45.78536" lon="4.85185">
        <ele>216</ele>
        <time>2010-11-23T19:30:58Z</time>
      </trkpt>
      <trkpt lat="45.78535" lon="4.85184">
        <ele>216</ele>
        <time>2010-11-23T19:30:59Z</time>
      </trkpt>
      <trkpt lat="45.78533" lon="4.85183">
        <ele>217</ele>
        <time>2010-11-23T19:31:00Z</time>
      </trkpt>
      <trkpt lat="45.78531" lon="4.85179">
        <ele>216</ele>
        <time>2010-11-23T19:31:01Z</time>
      </trkpt>
      <trkpt lat="45.7853" lon="4.85178">
        <ele>216</ele>
        <time>2010-11-23T19:31:04Z</time>
      </trkpt>
      <trkpt lat="45.7853" lon="4.85178">
        <ele>216.00051879883</ele>
        <time>2010-11-23T19:31:04Z</time>
      </trkpt>
      <trkpt lat="45.7853" lon="4.85177">
        <ele>216.07113647461</ele>
        <time>2010-11-23T19:31:04Z</time>
      </trkpt>
      <trkpt lat="45.78529" lon="4.8517">
        <ele>216.39445495605</ele>
        <time>2010-11-23T19:31:05Z</time>
      </trkpt>
      <trkpt lat="45.78527" lon="4.85159">
        <ele>216.78134155273</ele>
        <time>2010-11-23T19:31:06Z</time>
      </trkpt>
      <trkpt lat="45.78525" lon="4.85148">
        <ele>217.67417907715</ele>
        <time>2010-11-23T19:31:07Z</time>
      </trkpt>
      <trkpt lat="45.78523" lon="4.85141">
        <ele>218</ele>
        <time>2010-11-23T19:31:08Z</time>
      </trkpt>
      <trkpt lat="45.78521" lon="4.85138">
        <ele>218</ele>
        <time>2010-11-23T19:31:09Z</time>
      </trkpt>
      <trkpt lat="45.7852" lon="4.85135">
        <ele>218</ele>
        <time>2010-11-23T19:31:10Z</time>
      </trkpt>
      <trkpt lat="45.78519" lon="4.85132">
        <ele>217.19290161133</ele>
        <time>2010-11-23T19:31:11Z</time>
      </trkpt>
      <trkpt lat="45.78517" lon="4.85127">
        <ele>217</ele>
        <time>2010-11-23T19:31:12Z</time>
      </trkpt>
      <trkpt lat="45.78516" lon="4.85124">
        <ele>216</ele>
        <time>2010-11-23T19:31:13Z</time>
      </trkpt>
      <trkpt lat="45.78515" lon="4.85122">
        <ele>215</ele>
        <time>2010-11-23T19:31:14Z</time>
      </trkpt>
      <trkpt lat="45.78513" lon="4.85119">
        <ele>214</ele>
        <time>2010-11-23T19:31:15Z</time>
      </trkpt>
      <trkpt lat="45.78511" lon="4.85112">
        <ele>215</ele>
        <time>2010-11-23T19:31:16Z</time>
      </trkpt>
      <trkpt lat="45.7851" lon="4.85109">
        <ele>215</ele>
        <time>2010-11-23T19:31:17Z</time>
      </trkpt>
      <trkpt lat="45.78509" lon="4.85105">
        <ele>215</ele>
        <time>2010-11-23T19:31:18Z</time>
      </trkpt>
      <trkpt lat="45.78507" lon="4.85102">
        <ele>215</ele>
        <time>2010-11-23T19:31:19Z</time>
      </trkpt>
      <trkpt lat="45.78506" lon="4.85099">
        <ele>215</ele>
        <time>2010-11-23T19:31:20Z</time>
      </trkpt>
      <trkpt lat="45.78504" lon="4.85095">
        <ele>215</ele>
        <time>2010-11-23T19:31:21Z</time>
      </trkpt>
      <trkpt lat="45.78502" lon="4.85092">
        <ele>216</ele>
        <time>2010-11-23T19:31:22Z</time>
      </trkpt>
      <trkpt lat="45.785" lon="4.85089">
        <ele>216</ele>
        <time>2010-11-23T19:31:23Z</time>
      </trkpt>
      <trkpt lat="45.78499" lon="4.85085">
        <ele>216</ele>
        <time>2010-11-23T19:31:24Z</time>
      </trkpt>
      <trkpt lat="45.78496" lon="4.85082">
        <ele>216</ele>
        <time>2010-11-23T19:31:27Z</time>
      </trkpt>
      <trkpt lat="45.78496" lon="4.85082">
        <ele>216</ele>
        <time>2010-11-23T19:31:27Z</time>
      </trkpt>
      <trkpt lat="45.78496" lon="4.85082">
        <ele>216</ele>
        <time>2010-11-23T19:31:27Z</time>
      </trkpt>
      <trkpt lat="45.78495" lon="4.8508">
        <ele>216</ele>
        <time>2010-11-23T19:31:28Z</time>
      </trkpt>
      <trkpt lat="45.78491" lon="4.85075">
        <ele>216</ele>
        <time>2010-11-23T19:31:29Z</time>
      </trkpt>
      <trkpt lat="45.78489" lon="4.85073">
        <ele>216</ele>
        <time>2010-11-23T19:31:30Z</time>
      </trkpt>
      <trkpt lat="45.78488" lon="4.85072">
        <ele>216</ele>
        <time>2010-11-23T19:31:31Z</time>
      </trkpt>
      <trkpt lat="45.78486" lon="4.85071">
        <ele>217</ele>
        <time>2010-11-23T19:31:32Z</time>
      </trkpt>
      <trkpt lat="45.78485" lon="4.85068">
        <ele>217</ele>
        <time>2010-11-23T19:31:33Z</time>
      </trkpt>
      <trkpt lat="45.78483" lon="4.85065">
        <ele>217</ele>
        <time>2010-11-23T19:31:34Z</time>
      </trkpt>
      <trkpt lat="45.78482" lon="4.85064">
        <ele>217</ele>
        <time>2010-11-23T19:31:35Z</time>
      </trkpt>
      <trkpt lat="45.7848" lon="4.85058">
        <ele>217.67152404785</ele>
        <time>2010-11-23T19:31:36Z</time>
      </trkpt>
      <trkpt lat="45.78478" lon="4.85052">
        <ele>218</ele>
        <time>2010-11-23T19:31:37Z</time>
      </trkpt>
      <trkpt lat="45.78476" lon="4.8505">
        <ele>218</ele>
        <time>2010-11-23T19:31:38Z</time>
      </trkpt>
      <trkpt lat="45.78474" lon="4.85045">
        <ele>219</ele>
        <time>2010-11-23T19:31:39Z</time>
      </trkpt>
      <trkpt lat="45.78472" lon="4.85042">
        <ele>218</ele>
        <time>2010-11-23T19:31:40Z</time>
      </trkpt>
      <trkpt lat="45.78471" lon="4.85035">
        <ele>219</ele>
        <time>2010-11-23T19:31:41Z</time>
      </trkpt>
      <trkpt lat="45.78469" lon="4.85029">
        <ele>219</ele>
        <time>2010-11-23T19:31:42Z</time>
      </trkpt>
      <trkpt lat="45.78467" lon="4.85025">
        <ele>218</ele>
        <time>2010-11-23T19:31:43Z</time>
      </trkpt>
      <trkpt lat="45.78466" lon="4.85022">
        <ele>218</ele>
        <time>2010-11-23T19:31:44Z</time>
      </trkpt>
      <trkpt lat="45.78464" lon="4.8502">
        <ele>218</ele>
        <time>2010-11-23T19:31:45Z</time>
      </trkpt>
      <trkpt lat="45.78462" lon="4.85018">
        <ele>219</ele>
        <time>2010-11-23T19:31:46Z</time>
      </trkpt>
      <trkpt lat="45.7846" lon="4.85015">
        <ele>218</ele>
        <time>2010-11-23T19:31:47Z</time>
      </trkpt>
      <trkpt lat="45.78458" lon="4.85013">
        <ele>218</ele>
        <time>2010-11-23T19:31:48Z</time>
      </trkpt>
      <trkpt lat="45.78457" lon="4.8501">
        <ele>218</ele>
        <time>2010-11-23T19:31:51Z</time>
      </trkpt>
      <trkpt lat="45.78457" lon="4.8501">
        <ele>218</ele>
        <time>2010-11-23T19:31:51Z</time>
      </trkpt>
      <trkpt lat="45.78457" lon="4.8501">
        <ele>218.04774475098</ele>
        <time>2010-11-23T19:31:51Z</time>
      </trkpt>
      <trkpt lat="45.78454" lon="4.85004">
        <ele>218.88359069824</ele>
        <time>2010-11-23T19:31:52Z</time>
      </trkpt>
      <trkpt lat="45.7845" lon="4.84994">
        <ele>220.30641174316</ele>
        <time>2010-11-23T19:31:53Z</time>
      </trkpt>
      <trkpt lat="45.78447" lon="4.84987">
        <ele>220</ele>
        <time>2010-11-23T19:31:54Z</time>
      </trkpt>
      <trkpt lat="45.78445" lon="4.84983">
        <ele>221</ele>
        <time>2010-11-23T19:31:55Z</time>
      </trkpt>
      <trkpt lat="45.78444" lon="4.8498">
        <ele>220</ele>
        <time>2010-11-23T19:31:56Z</time>
      </trkpt>
      <trkpt lat="45.78442" lon="4.84976">
        <ele>221</ele>
        <time>2010-11-23T19:31:57Z</time>
      </trkpt>
      <trkpt lat="45.78441" lon="4.84972">
        <ele>221</ele>
        <time>2010-11-23T19:31:58Z</time>
      </trkpt>
      <trkpt lat="45.7844" lon="4.84969">
        <ele>222</ele>
        <time>2010-11-23T19:31:59Z</time>
      </trkpt>
      <trkpt lat="45.78438" lon="4.84966">
        <ele>221</ele>
        <time>2010-11-23T19:32:00Z</time>
      </trkpt>
      <trkpt lat="45.78436" lon="4.84963">
        <ele>221</ele>
        <time>2010-11-23T19:32:01Z</time>
      </trkpt>
      <trkpt lat="45.78435" lon="4.84959">
        <ele>221</ele>
        <time>2010-11-23T19:32:02Z</time>
      </trkpt>
      <trkpt lat="45.78434" lon="4.84957">
        <ele>221</ele>
        <time>2010-11-23T19:32:03Z</time>
      </trkpt>
      <trkpt lat="45.78432" lon="4.84956">
        <ele>220</ele>
        <time>2010-11-23T19:32:04Z</time>
      </trkpt>
      <trkpt lat="45.7843" lon="4.84953">
        <ele>220</ele>
        <time>2010-11-23T19:32:05Z</time>
      </trkpt>
      <trkpt lat="45.78429" lon="4.84951">
        <ele>220</ele>
        <time>2010-11-23T19:32:06Z</time>
      </trkpt>
      <trkpt lat="45.78427" lon="4.84949">
        <ele>219</ele>
        <time>2010-11-23T19:32:07Z</time>
      </trkpt>
      <trkpt lat="45.78425" lon="4.84947">
        <ele>219</ele>
        <time>2010-11-23T19:32:08Z</time>
      </trkpt>
      <trkpt lat="45.78423" lon="4.84944">
        <ele>219</ele>
        <time>2010-11-23T19:32:09Z</time>
      </trkpt>
      <trkpt lat="45.78421" lon="4.84942">
        <ele>218</ele>
        <time>2010-11-23T19:32:10Z</time>
      </trkpt>
      <trkpt lat="45.7842" lon="4.8494">
        <ele>218</ele>
        <time>2010-11-23T19:32:11Z</time>
      </trkpt>
      <trkpt lat="45.78418" lon="4.84936">
        <ele>218</ele>
        <time>2010-11-23T19:32:14Z</time>
      </trkpt>
      <trkpt lat="45.78418" lon="4.84936">
        <ele>218</ele>
        <time>2010-11-23T19:32:14Z</time>
      </trkpt>
      <trkpt lat="45.78418" lon="4.84936">
        <ele>218</ele>
        <time>2010-11-23T19:32:14Z</time>
      </trkpt>
      <trkpt lat="45.78415" lon="4.84932">
        <ele>218</ele>
        <time>2010-11-23T19:32:15Z</time>
      </trkpt>
      <trkpt lat="45.78411" lon="4.84928">
        <ele>218</ele>
        <time>2010-11-23T19:32:16Z</time>
      </trkpt>
      <trkpt lat="45.7841" lon="4.84925">
        <ele>219</ele>
        <time>2010-11-23T19:32:17Z</time>
      </trkpt>
      <trkpt lat="45.78408" lon="4.84924">
        <ele>218</ele>
        <time>2010-11-23T19:32:18Z</time>
      </trkpt>
      <trkpt lat="45.78407" lon="4.84922">
        <ele>218</ele>
        <time>2010-11-23T19:32:19Z</time>
      </trkpt>
      <trkpt lat="45.78405" lon="4.8492">
        <ele>218</ele>
        <time>2010-11-23T19:32:20Z</time>
      </trkpt>
      <trkpt lat="45.78403" lon="4.84914">
        <ele>218</ele>
        <time>2010-11-23T19:32:21Z</time>
      </trkpt>
      <trkpt lat="45.78402" lon="4.84911">
        <ele>219</ele>
        <time>2010-11-23T19:32:22Z</time>
      </trkpt>
      <trkpt lat="45.784" lon="4.84909">
        <ele>219</ele>
        <time>2010-11-23T19:32:23Z</time>
      </trkpt>
      <trkpt lat="45.78398" lon="4.84906">
        <ele>219</ele>
        <time>2010-11-23T19:32:24Z</time>
      </trkpt>
      <trkpt lat="45.78397" lon="4.84903">
        <ele>219</ele>
        <time>2010-11-23T19:32:25Z</time>
      </trkpt>
      <trkpt lat="45.78395" lon="4.849">
        <ele>219</ele>
        <time>2010-11-23T19:32:26Z</time>
      </trkpt>
      <trkpt lat="45.78393" lon="4.84898">
        <ele>218</ele>
        <time>2010-11-23T19:32:27Z</time>
      </trkpt>
      <trkpt lat="45.78392" lon="4.84896">
        <ele>218</ele>
        <time>2010-11-23T19:32:28Z</time>
      </trkpt>
      <trkpt lat="45.7839" lon="4.84893">
        <ele>217</ele>
        <time>2010-11-23T19:32:29Z</time>
      </trkpt>
      <trkpt lat="45.78388" lon="4.8489">
        <ele>217</ele>
        <time>2010-11-23T19:32:30Z</time>
      </trkpt>
      <trkpt lat="45.78385" lon="4.84887">
        <ele>217</ele>
        <time>2010-11-23T19:32:31Z</time>
      </trkpt>
      <trkpt lat="45.78383" lon="4.84886">
        <ele>217</ele>
        <time>2010-11-23T19:32:32Z</time>
      </trkpt>
      <trkpt lat="45.78382" lon="4.84884">
        <ele>217</ele>
        <time>2010-11-23T19:32:33Z</time>
      </trkpt>
      <trkpt lat="45.7838" lon="4.84881">
        <ele>217</ele>
        <time>2010-11-23T19:32:34Z</time>
      </trkpt>
      <trkpt lat="45.78378" lon="4.84877">
        <ele>217</ele>
        <time>2010-11-23T19:32:37Z</time>
      </trkpt>
      <trkpt lat="45.78378" lon="4.84877">
        <ele>217</ele>
        <time>2010-11-23T19:32:37Z</time>
      </trkpt>
      <trkpt lat="45.78378" lon="4.84877">
        <ele>217</ele>
        <time>2010-11-23T19:32:37Z</time>
      </trkpt>
      <trkpt lat="45.78374" lon="4.84869">
        <ele>217</ele>
        <time>2010-11-23T19:32:38Z</time>
      </trkpt>
      <trkpt lat="45.78372" lon="4.84867">
        <ele>217</ele>
        <time>2010-11-23T19:32:39Z</time>
      </trkpt>
      <trkpt lat="45.78371" lon="4.84865">
        <ele>216</ele>
        <time>2010-11-23T19:32:40Z</time>
      </trkpt>
      <trkpt lat="45.78369" lon="4.84862">
        <ele>216</ele>
        <time>2010-11-23T19:32:41Z</time>
      </trkpt>
      <trkpt lat="45.78367" lon="4.84859">
        <ele>216</ele>
        <time>2010-11-23T19:32:42Z</time>
      </trkpt>
      <trkpt lat="45.78365" lon="4.84856">
        <ele>217</ele>
        <time>2010-11-23T19:32:43Z</time>
      </trkpt>
      <trkpt lat="45.78363" lon="4.8485">
        <ele>217</ele>
        <time>2010-11-23T19:32:44Z</time>
      </trkpt>
      <trkpt lat="45.78361" lon="4.84846">
        <ele>217</ele>
        <time>2010-11-23T19:32:45Z</time>
      </trkpt>
      <trkpt lat="45.78358" lon="4.84846">
        <ele>217</ele>
        <time>2010-11-23T19:32:46Z</time>
      </trkpt>
      <trkpt lat="45.78356" lon="4.84844">
        <ele>217</ele>
        <time>2010-11-23T19:32:47Z</time>
      </trkpt>
      <trkpt lat="45.78354" lon="4.84844">
        <ele>217</ele>
        <time>2010-11-23T19:32:48Z</time>
      </trkpt>
      <trkpt lat="45.78352" lon="4.84844">
        <ele>217</ele>
        <time>2010-11-23T19:32:49Z</time>
      </trkpt>
      <trkpt lat="45.78351" lon="4.84843">
        <ele>217</ele>
        <time>2010-11-23T19:32:50Z</time>
      </trkpt>
      <trkpt lat="45.78348" lon="4.84838">
        <ele>216</ele>
        <time>2010-11-23T19:32:51Z</time>
      </trkpt>
      <trkpt lat="45.78347" lon="4.84836">
        <ele>216</ele>
        <time>2010-11-23T19:32:52Z</time>
      </trkpt>
      <trkpt lat="45.78345" lon="4.84833">
        <ele>216</ele>
        <time>2010-11-23T19:32:53Z</time>
      </trkpt>
      <trkpt lat="45.78342" lon="4.84829">
        <ele>216</ele>
        <time>2010-11-23T19:32:54Z</time>
      </trkpt>
      <trkpt lat="45.78341" lon="4.84824">
        <ele>217</ele>
        <time>2010-11-23T19:32:55Z</time>
      </trkpt>
      <trkpt lat="45.78339" lon="4.84821">
        <ele>217</ele>
        <time>2010-11-23T19:32:56Z</time>
      </trkpt>
      <trkpt lat="45.78338" lon="4.84819">
        <ele>218</ele>
        <time>2010-11-23T19:32:57Z</time>
      </trkpt>
      <trkpt lat="45.78336" lon="4.84817">
        <ele>217</ele>
        <time>2010-11-23T19:33:00Z</time>
      </trkpt>
      <trkpt lat="45.78336" lon="4.84817">
        <ele>217</ele>
        <time>2010-11-23T19:33:00Z</time>
      </trkpt>
      <trkpt lat="45.78336" lon="4.84817">
        <ele>217.00164794922</ele>
        <time>2010-11-23T19:33:00Z</time>
      </trkpt>
      <trkpt lat="45.78334" lon="4.84815">
        <ele>217.26625061035</ele>
        <time>2010-11-23T19:33:01Z</time>
      </trkpt>
      <trkpt lat="45.78328" lon="4.8481">
        <ele>217.89019775391</ele>
        <time>2010-11-23T19:33:02Z</time>
      </trkpt>
      <trkpt lat="45.78325" lon="4.84805">
        <ele>217</ele>
        <time>2010-11-23T19:33:03Z</time>
      </trkpt>
      <trkpt lat="45.78323" lon="4.84802">
        <ele>217</ele>
        <time>2010-11-23T19:33:04Z</time>
      </trkpt>
      <trkpt lat="45.78322" lon="4.848">
        <ele>217</ele>
        <time>2010-11-23T19:33:05Z</time>
      </trkpt>
      <trkpt lat="45.7832" lon="4.84798">
        <ele>217</ele>
        <time>2010-11-23T19:33:06Z</time>
      </trkpt>
      <trkpt lat="45.78318" lon="4.84796">
        <ele>217</ele>
        <time>2010-11-23T19:33:07Z</time>
      </trkpt>
      <trkpt lat="45.78317" lon="4.84795">
        <ele>217</ele>
        <time>2010-11-23T19:33:08Z</time>
      </trkpt>
      <trkpt lat="45.78315" lon="4.8479">
        <ele>217</ele>
        <time>2010-11-23T19:33:09Z</time>
      </trkpt>
      <trkpt lat="45.78313" lon="4.84786">
        <ele>217</ele>
        <time>2010-11-23T19:33:10Z</time>
      </trkpt>
      <trkpt lat="45.78311" lon="4.84784">
        <ele>217</ele>
        <time>2010-11-23T19:33:11Z</time>
      </trkpt>
      <trkpt lat="45.78308" lon="4.84782">
        <ele>217</ele>
        <time>2010-11-23T19:33:12Z</time>
      </trkpt>
      <trkpt lat="45.78306" lon="4.8478">
        <ele>218</ele>
        <time>2010-11-23T19:33:13Z</time>
      </trkpt>
      <trkpt lat="45.78303" lon="4.84779">
        <ele>218</ele>
        <time>2010-11-23T19:33:14Z</time>
      </trkpt>
      <trkpt lat="45.78301" lon="4.84775">
        <ele>219</ele>
        <time>2010-11-23T19:33:15Z</time>
      </trkpt>
      <trkpt lat="45.783" lon="4.84773">
        <ele>218</ele>
        <time>2010-11-23T19:33:16Z</time>
      </trkpt>
      <trkpt lat="45.78297" lon="4.8477">
        <ele>218</ele>
        <time>2010-11-23T19:33:17Z</time>
      </trkpt>
      <trkpt lat="45.78295" lon="4.84767">
        <ele>219</ele>
        <time>2010-11-23T19:33:18Z</time>
      </trkpt>
      <trkpt lat="45.78293" lon="4.84765">
        <ele>219</ele>
        <time>2010-11-23T19:33:19Z</time>
      </trkpt>
      <trkpt lat="45.7829" lon="4.84764">
        <ele>220</ele>
        <time>2010-11-23T19:33:20Z</time>
      </trkpt>
      <trkpt lat="45.78288" lon="4.84763">
        <ele>219</ele>
        <time>2010-11-23T19:33:21Z</time>
      </trkpt>
      <trkpt lat="45.78287" lon="4.84762">
        <ele>219</ele>
        <time>2010-11-23T19:33:24Z</time>
      </trkpt>
      <trkpt lat="45.78287" lon="4.84762">
        <ele>219</ele>
        <time>2010-11-23T19:33:24Z</time>
      </trkpt>
      <trkpt lat="45.78287" lon="4.84762">
        <ele>219</ele>
        <time>2010-11-23T19:33:24Z</time>
      </trkpt>
      <trkpt lat="45.78284" lon="4.8476">
        <ele>219</ele>
        <time>2010-11-23T19:33:25Z</time>
      </trkpt>
      <trkpt lat="45.78278" lon="4.84755">
        <ele>219</ele>
        <time>2010-11-23T19:33:26Z</time>
      </trkpt>
      <trkpt lat="45.78275" lon="4.8475">
        <ele>219</ele>
        <time>2010-11-23T19:33:27Z</time>
      </trkpt>
      <trkpt lat="45.78273" lon="4.84747">
        <ele>220</ele>
        <time>2010-11-23T19:33:28Z</time>
      </trkpt>
      <trkpt lat="45.78271" lon="4.84746">
        <ele>219</ele>
        <time>2010-11-23T19:33:29Z</time>
      </trkpt>
      <trkpt lat="45.78268" lon="4.84743">
        <ele>220</ele>
        <time>2010-11-23T19:33:30Z</time>
      </trkpt>
      <trkpt lat="45.78266" lon="4.8474">
        <ele>220</ele>
        <time>2010-11-23T19:33:32Z</time>
      </trkpt>
      <trkpt lat="45.78265" lon="4.84738">
        <ele>220</ele>
        <time>2010-11-23T19:33:32Z</time>
      </trkpt>
      <trkpt lat="45.78261" lon="4.84734">
        <ele>219</ele>
        <time>2010-11-23T19:33:33Z</time>
      </trkpt>
      <trkpt lat="45.78259" lon="4.8473">
        <ele>220</ele>
        <time>2010-11-23T19:33:34Z</time>
      </trkpt>
      <trkpt lat="45.78257" lon="4.84727">
        <ele>221</ele>
        <time>2010-11-23T19:33:35Z</time>
      </trkpt>
      <trkpt lat="45.78255" lon="4.84726">
        <ele>221</ele>
        <time>2010-11-23T19:33:36Z</time>
      </trkpt>
      <trkpt lat="45.78252" lon="4.84723">
        <ele>222</ele>
        <time>2010-11-23T19:33:37Z</time>
      </trkpt>
      <trkpt lat="45.78251" lon="4.84721">
        <ele>221</ele>
        <time>2010-11-23T19:33:38Z</time>
      </trkpt>
      <trkpt lat="45.78249" lon="4.8472">
        <ele>221</ele>
        <time>2010-11-23T19:33:39Z</time>
      </trkpt>
      <trkpt lat="45.78246" lon="4.84718">
        <ele>222</ele>
        <time>2010-11-23T19:33:40Z</time>
      </trkpt>
      <trkpt lat="45.78244" lon="4.84716">
        <ele>221</ele>
        <time>2010-11-23T19:33:41Z</time>
      </trkpt>
      <trkpt lat="45.78242" lon="4.84715">
        <ele>220</ele>
        <time>2010-11-23T19:33:42Z</time>
      </trkpt>
      <trkpt lat="45.7824" lon="4.84712">
        <ele>220</ele>
        <time>2010-11-23T19:33:43Z</time>
      </trkpt>
      <trkpt lat="45.78237" lon="4.8471">
        <ele>220</ele>
        <time>2010-11-23T19:33:44Z</time>
      </trkpt>
      <trkpt lat="45.78235" lon="4.84707">
        <ele>219</ele>
        <time>2010-11-23T19:33:45Z</time>
      </trkpt>
      <trkpt lat="45.78233" lon="4.84705">
        <ele>219</ele>
        <time>2010-11-23T19:33:48Z</time>
      </trkpt>
      <trkpt lat="45.78233" lon="4.84705">
        <ele>219</ele>
        <time>2010-11-23T19:33:48Z</time>
      </trkpt>
      <trkpt lat="45.78233" lon="4.84705">
        <ele>219</ele>
        <time>2010-11-23T19:33:48Z</time>
      </trkpt>
      <trkpt lat="45.78231" lon="4.84704">
        <ele>219</ele>
        <time>2010-11-23T19:33:49Z</time>
      </trkpt>
      <trkpt lat="45.78224" lon="4.84698">
        <ele>218.00238037109</ele>
        <time>2010-11-23T19:33:50Z</time>
      </trkpt>
      <trkpt lat="45.78221" lon="4.84696">
        <ele>219</ele>
        <time>2010-11-23T19:33:51Z</time>
      </trkpt>
      <trkpt lat="45.78219" lon="4.84694">
        <ele>219</ele>
        <time>2010-11-23T19:33:52Z</time>
      </trkpt>
      <trkpt lat="45.78216" lon="4.84692">
        <ele>219</ele>
        <time>2010-11-23T19:33:53Z</time>
      </trkpt>
      <trkpt lat="45.78214" lon="4.84692">
        <ele>218</ele>
        <time>2010-11-23T19:33:54Z</time>
      </trkpt>
      <trkpt lat="45.78212" lon="4.8469">
        <ele>218</ele>
        <time>2010-11-23T19:33:55Z</time>
      </trkpt>
      <trkpt lat="45.78209" lon="4.84688">
        <ele>218</ele>
        <time>2010-11-23T19:33:56Z</time>
      </trkpt>
      <trkpt lat="45.78207" lon="4.84686">
        <ele>217</ele>
        <time>2010-11-23T19:33:57Z</time>
      </trkpt>
      <trkpt lat="45.78205" lon="4.84684">
        <ele>217</ele>
        <time>2010-11-23T19:33:58Z</time>
      </trkpt>
      <trkpt lat="45.78202" lon="4.84682">
        <ele>218</ele>
        <time>2010-11-23T19:33:59Z</time>
      </trkpt>
      <trkpt lat="45.782" lon="4.8468">
        <ele>218</ele>
        <time>2010-11-23T19:34:00Z</time>
      </trkpt>
      <trkpt lat="45.78198" lon="4.84678">
        <ele>218</ele>
        <time>2010-11-23T19:34:01Z</time>
      </trkpt>
      <trkpt lat="45.78195" lon="4.84675">
        <ele>218</ele>
        <time>2010-11-23T19:34:02Z</time>
      </trkpt>
      <trkpt lat="45.78193" lon="4.84674">
        <ele>218</ele>
        <time>2010-11-23T19:34:03Z</time>
      </trkpt>
      <trkpt lat="45.78191" lon="4.84671">
        <ele>218</ele>
        <time>2010-11-23T19:34:04Z</time>
      </trkpt>
      <trkpt lat="45.78188" lon="4.8467">
        <ele>217</ele>
        <time>2010-11-23T19:34:05Z</time>
      </trkpt>
      <trkpt lat="45.78186" lon="4.84669">
        <ele>217</ele>
        <time>2010-11-23T19:34:06Z</time>
      </trkpt>
      <trkpt lat="45.78183" lon="4.84668">
        <ele>216</ele>
        <time>2010-11-23T19:34:07Z</time>
      </trkpt>
      <trkpt lat="45.78181" lon="4.84668">
        <ele>216</ele>
        <time>2010-11-23T19:34:08Z</time>
      </trkpt>
      <trkpt lat="45.78179" lon="4.84667">
        <ele>216</ele>
        <time>2010-11-23T19:34:09Z</time>
      </trkpt>
      <trkpt lat="45.78177" lon="4.84666">
        <ele>216</ele>
        <time>2010-11-23T19:34:12Z</time>
      </trkpt>
      <trkpt lat="45.78177" lon="4.84666">
        <ele>216</ele>
        <time>2010-11-23T19:34:12Z</time>
      </trkpt>
      <trkpt lat="45.78177" lon="4.84666">
        <ele>216</ele>
        <time>2010-11-23T19:34:12Z</time>
      </trkpt>
      <trkpt lat="45.78175" lon="4.84665">
        <ele>216</ele>
        <time>2010-11-23T19:34:13Z</time>
      </trkpt>
      <trkpt lat="45.78169" lon="4.84661">
        <ele>216</ele>
        <time>2010-11-23T19:34:14Z</time>
      </trkpt>
      <trkpt lat="45.78164" lon="4.84657">
        <ele>216</ele>
        <time>2010-11-23T19:34:15Z</time>
      </trkpt>
      <trkpt lat="45.78161" lon="4.84656">
        <ele>216</ele>
        <time>2010-11-23T19:34:16Z</time>
      </trkpt>
      <trkpt lat="45.78158" lon="4.84654">
        <ele>216</ele>
        <time>2010-11-23T19:34:17Z</time>
      </trkpt>
      <trkpt lat="45.78156" lon="4.84653">
        <ele>216</ele>
        <time>2010-11-23T19:34:18Z</time>
      </trkpt>
      <trkpt lat="45.78153" lon="4.84651">
        <ele>216</ele>
        <time>2010-11-23T19:34:19Z</time>
      </trkpt>
      <trkpt lat="45.78151" lon="4.84649">
        <ele>217</ele>
        <time>2010-11-23T19:34:20Z</time>
      </trkpt>
      <trkpt lat="45.78149" lon="4.84646">
        <ele>217</ele>
        <time>2010-11-23T19:34:21Z</time>
      </trkpt>
      <trkpt lat="45.78146" lon="4.84644">
        <ele>217</ele>
        <time>2010-11-23T19:34:22Z</time>
      </trkpt>
      <trkpt lat="45.78144" lon="4.84642">
        <ele>217</ele>
        <time>2010-11-23T19:34:23Z</time>
      </trkpt>
      <trkpt lat="45.78141" lon="4.8464">
        <ele>216</ele>
        <time>2010-11-23T19:34:24Z</time>
      </trkpt>
      <trkpt lat="45.78139" lon="4.84638">
        <ele>217</ele>
        <time>2010-11-23T19:34:25Z</time>
      </trkpt>
      <trkpt lat="45.78137" lon="4.84635">
        <ele>216</ele>
        <time>2010-11-23T19:34:26Z</time>
      </trkpt>
      <trkpt lat="45.78135" lon="4.84633">
        <ele>216</ele>
        <time>2010-11-23T19:34:27Z</time>
      </trkpt>
      <trkpt lat="45.78132" lon="4.84631">
        <ele>216</ele>
        <time>2010-11-23T19:34:28Z</time>
      </trkpt>
      <trkpt lat="45.78131" lon="4.84627">
        <ele>216</ele>
        <time>2010-11-23T19:34:29Z</time>
      </trkpt>
      <trkpt lat="45.78128" lon="4.84625">
        <ele>217</ele>
        <time>2010-11-23T19:34:30Z</time>
      </trkpt>
      <trkpt lat="45.78126" lon="4.84623">
        <ele>217</ele>
        <time>2010-11-23T19:34:31Z</time>
      </trkpt>
      <trkpt lat="45.78124" lon="4.84621">
        <ele>218</ele>
        <time>2010-11-23T19:34:32Z</time>
      </trkpt>
      <trkpt lat="45.78121" lon="4.84618">
        <ele>217</ele>
        <time>2010-11-23T19:34:33Z</time>
      </trkpt>
      <trkpt lat="45.78119" lon="4.84616">
        <ele>217</ele>
        <time>2010-11-23T19:34:36Z</time>
      </trkpt>
      <trkpt lat="45.78119" lon="4.84616">
        <ele>217</ele>
        <time>2010-11-23T19:34:36Z</time>
      </trkpt>
      <trkpt lat="45.78119" lon="4.84616">
        <ele>217</ele>
        <time>2010-11-23T19:34:36Z</time>
      </trkpt>
      <trkpt lat="45.78117" lon="4.84614">
        <ele>217.29133605957</ele>
        <time>2010-11-23T19:34:37Z</time>
      </trkpt>
      <trkpt lat="45.78111" lon="4.84607">
        <ele>217.03108215332</ele>
        <time>2010-11-23T19:34:38Z</time>
      </trkpt>
      <trkpt lat="45.7811" lon="4.84603">
        <ele>218</ele>
        <time>2010-11-23T19:34:39Z</time>
      </trkpt>
      <trkpt lat="45.78107" lon="4.84602">
        <ele>217</ele>
        <time>2010-11-23T19:34:40Z</time>
      </trkpt>
      <trkpt lat="45.78103" lon="4.84598">
        <ele>218</ele>
        <time>2010-11-23T19:34:41Z</time>
      </trkpt>
      <trkpt lat="45.78101" lon="4.84597">
        <ele>218</ele>
        <time>2010-11-23T19:34:42Z</time>
      </trkpt>
      <trkpt lat="45.78099" lon="4.84596">
        <ele>217</ele>
        <time>2010-11-23T19:34:43Z</time>
      </trkpt>
      <trkpt lat="45.78096" lon="4.84594">
        <ele>218</ele>
        <time>2010-11-23T19:34:44Z</time>
      </trkpt>
      <trkpt lat="45.78094" lon="4.84593">
        <ele>217</ele>
        <time>2010-11-23T19:34:45Z</time>
      </trkpt>
      <trkpt lat="45.7809" lon="4.84587">
        <ele>217</ele>
        <time>2010-11-23T19:34:46Z</time>
      </trkpt>
      <trkpt lat="45.78088" lon="4.8458">
        <ele>218</ele>
        <time>2010-11-23T19:34:47Z</time>
      </trkpt>
      <trkpt lat="45.78087" lon="4.84578">
        <ele>217</ele>
        <time>2010-11-23T19:34:48Z</time>
      </trkpt>
      <trkpt lat="45.78084" lon="4.84576">
        <ele>218</ele>
        <time>2010-11-23T19:34:49Z</time>
      </trkpt>
      <trkpt lat="45.78083" lon="4.84575">
        <ele>217</ele>
        <time>2010-11-23T19:34:50Z</time>
      </trkpt>
      <trkpt lat="45.78081" lon="4.84575">
        <ele>216</ele>
        <time>2010-11-23T19:34:51Z</time>
      </trkpt>
      <trkpt lat="45.7808" lon="4.84574">
        <ele>217</ele>
        <time>2010-11-23T19:34:52Z</time>
      </trkpt>
      <trkpt lat="45.78078" lon="4.84573">
        <ele>217</ele>
        <time>2010-11-23T19:34:53Z</time>
      </trkpt>
      <trkpt lat="45.78076" lon="4.84573">
        <ele>216</ele>
        <time>2010-11-23T19:34:54Z</time>
      </trkpt>
      <trkpt lat="45.78074" lon="4.84569">
        <ele>217</ele>
        <time>2010-11-23T19:34:55Z</time>
      </trkpt>
      <trkpt lat="45.78072" lon="4.84567">
        <ele>218</ele>
        <time>2010-11-23T19:34:56Z</time>
      </trkpt>
      <trkpt lat="45.78071" lon="4.84565">
        <ele>218</ele>
        <time>2010-11-23T19:34:57Z</time>
      </trkpt>
      <trkpt lat="45.78068" lon="4.84562">
        <ele>218</ele>
        <time>2010-11-23T19:35:00Z</time>
      </trkpt>
      <trkpt lat="45.78068" lon="4.84562">
        <ele>218</ele>
        <time>2010-11-23T19:35:00Z</time>
      </trkpt>
      <trkpt lat="45.78068" lon="4.84562">
        <ele>218</ele>
        <time>2010-11-23T19:35:00Z</time>
      </trkpt>
      <trkpt lat="45.78067" lon="4.84561">
        <ele>218</ele>
        <time>2010-11-23T19:35:01Z</time>
      </trkpt>
      <trkpt lat="45.78062" lon="4.84557">
        <ele>218</ele>
        <time>2010-11-23T19:35:02Z</time>
      </trkpt>
      <trkpt lat="45.7806" lon="4.84556">
        <ele>218</ele>
        <time>2010-11-23T19:35:03Z</time>
      </trkpt>
      <trkpt lat="45.78057" lon="4.84554">
        <ele>217</ele>
        <time>2010-11-23T19:35:04Z</time>
      </trkpt>
      <trkpt lat="45.78054" lon="4.84552">
        <ele>217</ele>
        <time>2010-11-23T19:35:05Z</time>
      </trkpt>
      <trkpt lat="45.78053" lon="4.84551">
        <ele>217</ele>
        <time>2010-11-23T19:35:06Z</time>
      </trkpt>
      <trkpt lat="45.78051" lon="4.8455">
        <ele>216</ele>
        <time>2010-11-23T19:35:07Z</time>
      </trkpt>
      <trkpt lat="45.78047" lon="4.84545">
        <ele>215</ele>
        <time>2010-11-23T19:35:08Z</time>
      </trkpt>
      <trkpt lat="45.78044" lon="4.84543">
        <ele>215</ele>
        <time>2010-11-23T19:35:09Z</time>
      </trkpt>
      <trkpt lat="45.78042" lon="4.84541">
        <ele>215</ele>
        <time>2010-11-23T19:35:10Z</time>
      </trkpt>
      <trkpt lat="45.7804" lon="4.84539">
        <ele>215</ele>
        <time>2010-11-23T19:35:11Z</time>
      </trkpt>
      <trkpt lat="45.78037" lon="4.84537">
        <ele>215</ele>
        <time>2010-11-23T19:35:12Z</time>
      </trkpt>
      <trkpt lat="45.78035" lon="4.84535">
        <ele>215</ele>
        <time>2010-11-23T19:35:13Z</time>
      </trkpt>
      <trkpt lat="45.78032" lon="4.84531">
        <ele>215</ele>
        <time>2010-11-23T19:35:14Z</time>
      </trkpt>
      <trkpt lat="45.7803" lon="4.84531">
        <ele>215</ele>
        <time>2010-11-23T19:35:15Z</time>
      </trkpt>
      <trkpt lat="45.78028" lon="4.8453">
        <ele>216</ele>
        <time>2010-11-23T19:35:16Z</time>
      </trkpt>
      <trkpt lat="45.78026" lon="4.84528">
        <ele>216</ele>
        <time>2010-11-23T19:35:17Z</time>
      </trkpt>
      <trkpt lat="45.78022" lon="4.84527">
        <ele>216</ele>
        <time>2010-11-23T19:35:18Z</time>
      </trkpt>
      <trkpt lat="45.78019" lon="4.84523">
        <ele>216</ele>
        <time>2010-11-23T19:35:19Z</time>
      </trkpt>
      <trkpt lat="45.78017" lon="4.84521">
        <ele>217</ele>
        <time>2010-11-23T19:35:20Z</time>
      </trkpt>
      <trkpt lat="45.78016" lon="4.84519">
        <ele>217</ele>
        <time>2010-11-23T19:35:21Z</time>
      </trkpt>
      <trkpt lat="45.78014" lon="4.84519">
        <ele>217</ele>
        <time>2010-11-23T19:35:24Z</time>
      </trkpt>
      <trkpt lat="45.78014" lon="4.84519">
        <ele>217</ele>
        <time>2010-11-23T19:35:24Z</time>
      </trkpt>
      <trkpt lat="45.78014" lon="4.84519">
        <ele>217</ele>
        <time>2010-11-23T19:35:24Z</time>
      </trkpt>
      <trkpt lat="45.78013" lon="4.84516">
        <ele>216.81536865234</ele>
        <time>2010-11-23T19:35:25Z</time>
      </trkpt>
      <trkpt lat="45.78008" lon="4.8451">
        <ele>216.36123657227</ele>
        <time>2010-11-23T19:35:26Z</time>
      </trkpt>
      <trkpt lat="45.78002" lon="4.84504">
        <ele>215.11111450195</ele>
        <time>2010-11-23T19:35:27Z</time>
      </trkpt>
      <trkpt lat="45.77998" lon="4.84501">
        <ele>215</ele>
        <time>2010-11-23T19:35:28Z</time>
      </trkpt>
      <trkpt lat="45.77995" lon="4.84498">
        <ele>215</ele>
        <time>2010-11-23T19:35:29Z</time>
      </trkpt>
      <trkpt lat="45.77993" lon="4.84497">
        <ele>215</ele>
        <time>2010-11-23T19:35:30Z</time>
      </trkpt>
      <trkpt lat="45.77991" lon="4.84495">
        <ele>215</ele>
        <time>2010-11-23T19:35:31Z</time>
      </trkpt>
      <trkpt lat="45.77988" lon="4.84494">
        <ele>215</ele>
        <time>2010-11-23T19:35:32Z</time>
      </trkpt>
      <trkpt lat="45.77986" lon="4.84493">
        <ele>214</ele>
        <time>2010-11-23T19:35:33Z</time>
      </trkpt>
      <trkpt lat="45.77984" lon="4.84491">
        <ele>214</ele>
        <time>2010-11-23T19:35:34Z</time>
      </trkpt>
      <trkpt lat="45.77981" lon="4.8449">
        <ele>214</ele>
        <time>2010-11-23T19:35:35Z</time>
      </trkpt>
      <trkpt lat="45.77979" lon="4.84488">
        <ele>215</ele>
        <time>2010-11-23T19:35:36Z</time>
      </trkpt>
      <trkpt lat="45.77976" lon="4.84486">
        <ele>216</ele>
        <time>2010-11-23T19:35:37Z</time>
      </trkpt>
      <trkpt lat="45.77973" lon="4.84484">
        <ele>216</ele>
        <time>2010-11-23T19:35:38Z</time>
      </trkpt>
      <trkpt lat="45.7797" lon="4.84482">
        <ele>217</ele>
        <time>2010-11-23T19:35:39Z</time>
      </trkpt>
      <trkpt lat="45.77968" lon="4.84478">
        <ele>217</ele>
        <time>2010-11-23T19:35:40Z</time>
      </trkpt>
      <trkpt lat="45.77965" lon="4.84475">
        <ele>217</ele>
        <time>2010-11-23T19:35:41Z</time>
      </trkpt>
      <trkpt lat="45.77963" lon="4.84472">
        <ele>217</ele>
        <time>2010-11-23T19:35:42Z</time>
      </trkpt>
      <trkpt lat="45.77961" lon="4.8447">
        <ele>217</ele>
        <time>2010-11-23T19:35:43Z</time>
      </trkpt>
      <trkpt lat="45.77958" lon="4.84469">
        <ele>217</ele>
        <time>2010-11-23T19:35:44Z</time>
      </trkpt>
      <trkpt lat="45.77957" lon="4.84469">
        <ele>217</ele>
        <time>2010-11-23T19:35:45Z</time>
      </trkpt>
      <trkpt lat="45.77955" lon="4.84468">
        <ele>217</ele>
        <time>2010-11-23T19:35:48Z</time>
      </trkpt>
      <trkpt lat="45.77955" lon="4.84468">
        <ele>217</ele>
        <time>2010-11-23T19:35:48Z</time>
      </trkpt>
      <trkpt lat="45.77955" lon="4.84468">
        <ele>217</ele>
        <time>2010-11-23T19:35:48Z</time>
      </trkpt>
      <trkpt lat="45.77952" lon="4.84466">
        <ele>217.49348449707</ele>
        <time>2010-11-23T19:35:49Z</time>
      </trkpt>
      <trkpt lat="45.77945" lon="4.84461">
        <ele>218.98162841797</ele>
        <time>2010-11-23T19:35:50Z</time>
      </trkpt>
      <trkpt lat="45.77943" lon="4.8446">
        <ele>219</ele>
        <time>2010-11-23T19:35:51Z</time>
      </trkpt>
      <trkpt lat="45.77941" lon="4.8446">
        <ele>219</ele>
        <time>2010-11-23T19:35:52Z</time>
      </trkpt>
      <trkpt lat="45.77939" lon="4.84458">
        <ele>219</ele>
        <time>2010-11-23T19:35:53Z</time>
      </trkpt>
      <trkpt lat="45.77937" lon="4.84458">
        <ele>219</ele>
        <time>2010-11-23T19:35:54Z</time>
      </trkpt>
      <trkpt lat="45.77935" lon="4.84458">
        <ele>219</ele>
        <time>2010-11-23T19:35:55Z</time>
      </trkpt>
      <trkpt lat="45.77933" lon="4.84456">
        <ele>218</ele>
        <time>2010-11-23T19:35:56Z</time>
      </trkpt>
      <trkpt lat="45.77931" lon="4.84454">
        <ele>218</ele>
        <time>2010-11-23T19:35:57Z</time>
      </trkpt>
      <trkpt lat="45.77928" lon="4.84452">
        <ele>217</ele>
        <time>2010-11-23T19:35:58Z</time>
      </trkpt>
      <trkpt lat="45.77925" lon="4.8445">
        <ele>217</ele>
        <time>2010-11-23T19:35:59Z</time>
      </trkpt>
      <trkpt lat="45.77923" lon="4.84448">
        <ele>216</ele>
        <time>2010-11-23T19:36:00Z</time>
      </trkpt>
      <trkpt lat="45.77921" lon="4.84446">
        <ele>215</ele>
        <time>2010-11-23T19:36:01Z</time>
      </trkpt>
      <trkpt lat="45.77919" lon="4.84445">
        <ele>215</ele>
        <time>2010-11-23T19:36:02Z</time>
      </trkpt>
      <trkpt lat="45.77917" lon="4.84444">
        <ele>215</ele>
        <time>2010-11-23T19:36:03Z</time>
      </trkpt>
      <trkpt lat="45.77915" lon="4.84443">
        <ele>215</ele>
        <time>2010-11-23T19:36:04Z</time>
      </trkpt>
      <trkpt lat="45.77913" lon="4.84442">
        <ele>216</ele>
        <time>2010-11-23T19:36:05Z</time>
      </trkpt>
      <trkpt lat="45.77911" lon="4.8444">
        <ele>215</ele>
        <time>2010-11-23T19:36:06Z</time>
      </trkpt>
      <trkpt lat="45.77909" lon="4.84439">
        <ele>215</ele>
        <time>2010-11-23T19:36:07Z</time>
      </trkpt>
      <trkpt lat="45.77906" lon="4.84438">
        <ele>215</ele>
        <time>2010-11-23T19:36:08Z</time>
      </trkpt>
      <trkpt lat="45.77904" lon="4.84437">
        <ele>216</ele>
        <time>2010-11-23T19:36:11Z</time>
      </trkpt>
      <trkpt lat="45.77904" lon="4.84437">
        <ele>216</ele>
        <time>2010-11-23T19:36:11Z</time>
      </trkpt>
      <trkpt lat="45.77904" lon="4.84437">
        <ele>216</ele>
        <time>2010-11-23T19:36:11Z</time>
      </trkpt>
      <trkpt lat="45.77899" lon="4.84435">
        <ele>216</ele>
        <time>2010-11-23T19:36:12Z</time>
      </trkpt>
      <trkpt lat="45.77893" lon="4.84432">
        <ele>216</ele>
        <time>2010-11-23T19:36:13Z</time>
      </trkpt>
      <trkpt lat="45.77891" lon="4.84431">
        <ele>216</ele>
        <time>2010-11-23T19:36:14Z</time>
      </trkpt>
      <trkpt lat="45.77889" lon="4.84429">
        <ele>217</ele>
        <time>2010-11-23T19:36:15Z</time>
      </trkpt>
      <trkpt lat="45.77887" lon="4.84428">
        <ele>217</ele>
        <time>2010-11-23T19:36:16Z</time>
      </trkpt>
      <trkpt lat="45.77885" lon="4.84427">
        <ele>217</ele>
        <time>2010-11-23T19:36:17Z</time>
      </trkpt>
      <trkpt lat="45.77883" lon="4.84426">
        <ele>216</ele>
        <time>2010-11-23T19:36:18Z</time>
      </trkpt>
      <trkpt lat="45.7788" lon="4.84422">
        <ele>217</ele>
        <time>2010-11-23T19:36:19Z</time>
      </trkpt>
      <trkpt lat="45.77876" lon="4.84417">
        <ele>217</ele>
        <time>2010-11-23T19:36:20Z</time>
      </trkpt>
      <trkpt lat="45.77873" lon="4.84415">
        <ele>217</ele>
        <time>2010-11-23T19:36:21Z</time>
      </trkpt>
      <trkpt lat="45.77869" lon="4.84412">
        <ele>217</ele>
        <time>2010-11-23T19:36:22Z</time>
      </trkpt>
      <trkpt lat="45.77867" lon="4.8441">
        <ele>216</ele>
        <time>2010-11-23T19:36:23Z</time>
      </trkpt>
      <trkpt lat="45.77865" lon="4.84409">
        <ele>216</ele>
        <time>2010-11-23T19:36:24Z</time>
      </trkpt>
      <trkpt lat="45.77862" lon="4.84407">
        <ele>215</ele>
        <time>2010-11-23T19:36:25Z</time>
      </trkpt>
      <trkpt lat="45.7786" lon="4.84405">
        <ele>215</ele>
        <time>2010-11-23T19:36:26Z</time>
      </trkpt>
      <trkpt lat="45.77858" lon="4.84405">
        <ele>215</ele>
        <time>2010-11-23T19:36:27Z</time>
      </trkpt>
      <trkpt lat="45.77855" lon="4.84404">
        <ele>215</ele>
        <time>2010-11-23T19:36:28Z</time>
      </trkpt>
      <trkpt lat="45.77854" lon="4.84402">
        <ele>214</ele>
        <time>2010-11-23T19:36:29Z</time>
      </trkpt>
      <trkpt lat="45.77851" lon="4.84399">
        <ele>214</ele>
        <time>2010-11-23T19:36:30Z</time>
      </trkpt>
      <trkpt lat="45.77848" lon="4.84397">
        <ele>214</ele>
        <time>2010-11-23T19:36:31Z</time>
      </trkpt>
      <trkpt lat="45.77847" lon="4.84396">
        <ele>214</ele>
        <time>2010-11-23T19:36:34Z</time>
      </trkpt>
      <trkpt lat="45.77847" lon="4.84396">
        <ele>214</ele>
        <time>2010-11-23T19:36:34Z</time>
      </trkpt>
      <trkpt lat="45.77847" lon="4.84396">
        <ele>214</ele>
        <time>2010-11-23T19:36:34Z</time>
      </trkpt>
      <trkpt lat="45.77845" lon="4.84395">
        <ele>214</ele>
        <time>2010-11-23T19:36:35Z</time>
      </trkpt>
      <trkpt lat="45.7784" lon="4.8439">
        <ele>214</ele>
        <time>2010-11-23T19:36:36Z</time>
      </trkpt>
      <trkpt lat="45.77838" lon="4.8439">
        <ele>214</ele>
        <time>2010-11-23T19:36:37Z</time>
      </trkpt>
      <trkpt lat="45.77836" lon="4.84389">
        <ele>214</ele>
        <time>2010-11-23T19:36:38Z</time>
      </trkpt>
      <trkpt lat="45.77834" lon="4.84389">
        <ele>214</ele>
        <time>2010-11-23T19:36:39Z</time>
      </trkpt>
      <trkpt lat="45.77833" lon="4.84388">
        <ele>214</ele>
        <time>2010-11-23T19:36:40Z</time>
      </trkpt>
      <trkpt lat="45.77832" lon="4.84387">
        <ele>214</ele>
        <time>2010-11-23T19:36:41Z</time>
      </trkpt>
      <trkpt lat="45.7783" lon="4.84387">
        <ele>214</ele>
        <time>2010-11-23T19:36:42Z</time>
      </trkpt>
      <trkpt lat="45.7783" lon="4.84385">
        <ele>214</ele>
        <time>2010-11-23T19:36:43Z</time>
      </trkpt>
      <trkpt lat="45.77827" lon="4.84385">
        <ele>213</ele>
        <time>2010-11-23T19:36:44Z</time>
      </trkpt>
      <trkpt lat="45.77824" lon="4.84386">
        <ele>213</ele>
        <time>2010-11-23T19:36:45Z</time>
      </trkpt>
      <trkpt lat="45.77821" lon="4.84384">
        <ele>212</ele>
        <time>2010-11-23T19:36:46Z</time>
      </trkpt>
      <trkpt lat="45.77816" lon="4.84381">
        <ele>214</ele>
        <time>2010-11-23T19:36:47Z</time>
      </trkpt>
      <trkpt lat="45.77812" lon="4.84379">
        <ele>216</ele>
        <time>2010-11-23T19:36:48Z</time>
      </trkpt>
      <trkpt lat="45.77809" lon="4.84376">
        <ele>216</ele>
        <time>2010-11-23T19:36:49Z</time>
      </trkpt>
      <trkpt lat="45.77806" lon="4.84375">
        <ele>216</ele>
        <time>2010-11-23T19:36:50Z</time>
      </trkpt>
      <trkpt lat="45.77801" lon="4.84373">
        <ele>216</ele>
        <time>2010-11-23T19:36:51Z</time>
      </trkpt>
      <trkpt lat="45.77799" lon="4.84372">
        <ele>216</ele>
        <time>2010-11-23T19:36:52Z</time>
      </trkpt>
      <trkpt lat="45.77794" lon="4.8437">
        <ele>216</ele>
        <time>2010-11-23T19:36:53Z</time>
      </trkpt>
      <trkpt lat="45.7779" lon="4.84369">
        <ele>216</ele>
        <time>2010-11-23T19:36:54Z</time>
      </trkpt>
      <trkpt lat="45.77787" lon="4.84368">
        <ele>216</ele>
        <time>2010-11-23T19:36:55Z</time>
      </trkpt>
      <trkpt lat="45.77785" lon="4.84368">
        <ele>215</ele>
        <time>2010-11-23T19:36:58Z</time>
      </trkpt>
      <trkpt lat="45.77785" lon="4.84368">
        <ele>215</ele>
        <time>2010-11-23T19:36:58Z</time>
      </trkpt>
      <trkpt lat="45.77784" lon="4.84368">
        <ele>215</ele>
        <time>2010-11-23T19:36:58Z</time>
      </trkpt>
      <trkpt lat="45.77779" lon="4.84367">
        <ele>215</ele>
        <time>2010-11-23T19:36:59Z</time>
      </trkpt>
      <trkpt lat="45.77774" lon="4.84367">
        <ele>215</ele>
        <time>2010-11-23T19:37:00Z</time>
      </trkpt>
      <trkpt lat="45.77772" lon="4.84369">
        <ele>215</ele>
        <time>2010-11-23T19:37:01Z</time>
      </trkpt>
      <trkpt lat="45.77771" lon="4.8437">
        <ele>215</ele>
        <time>2010-11-23T19:37:02Z</time>
      </trkpt>
      <trkpt lat="45.77769" lon="4.84372">
        <ele>215</ele>
        <time>2010-11-23T19:37:03Z</time>
      </trkpt>
      <trkpt lat="45.77767" lon="4.84375">
        <ele>215</ele>
        <time>2010-11-23T19:37:04Z</time>
      </trkpt>
      <trkpt lat="45.77766" lon="4.84377">
        <ele>215</ele>
        <time>2010-11-23T19:37:05Z</time>
      </trkpt>
      <trkpt lat="45.77764" lon="4.84381">
        <ele>216</ele>
        <time>2010-11-23T19:37:06Z</time>
      </trkpt>
      <trkpt lat="45.77764" lon="4.84384">
        <ele>216</ele>
        <time>2010-11-23T19:37:07Z</time>
      </trkpt>
      <trkpt lat="45.77762" lon="4.84387">
        <ele>216</ele>
        <time>2010-11-23T19:37:08Z</time>
      </trkpt>
      <trkpt lat="45.77758" lon="4.84389">
        <ele>216</ele>
        <time>2010-11-23T19:37:09Z</time>
      </trkpt>
      <trkpt lat="45.77756" lon="4.84391">
        <ele>216</ele>
        <time>2010-11-23T19:37:10Z</time>
      </trkpt>
      <trkpt lat="45.77752" lon="4.84389">
        <ele>216</ele>
        <time>2010-11-23T19:37:11Z</time>
      </trkpt>
      <trkpt lat="45.77749" lon="4.84387">
        <ele>216</ele>
        <time>2010-11-23T19:37:12Z</time>
      </trkpt>
      <trkpt lat="45.77747" lon="4.84385">
        <ele>217</ele>
        <time>2010-11-23T19:37:13Z</time>
      </trkpt>
      <trkpt lat="45.77744" lon="4.84384">
        <ele>217</ele>
        <time>2010-11-23T19:37:14Z</time>
      </trkpt>
      <trkpt lat="45.77742" lon="4.84384">
        <ele>217</ele>
        <time>2010-11-23T19:37:15Z</time>
      </trkpt>
      <trkpt lat="45.7774" lon="4.84383">
        <ele>217</ele>
        <time>2010-11-23T19:37:16Z</time>
      </trkpt>
      <trkpt lat="45.77737" lon="4.84382">
        <ele>216</ele>
        <time>2010-11-23T19:37:17Z</time>
      </trkpt>
      <trkpt lat="45.77734" lon="4.8438">
        <ele>217</ele>
        <time>2010-11-23T19:37:18Z</time>
      </trkpt>
      <trkpt lat="45.77731" lon="4.84378">
        <ele>217</ele>
        <time>2010-11-23T19:37:21Z</time>
      </trkpt>
      <trkpt lat="45.77731" lon="4.84378">
        <ele>217.00314331055</ele>
        <time>2010-11-23T19:37:21Z</time>
      </trkpt>
      <trkpt lat="45.77731" lon="4.84378">
        <ele>217.0065612793</ele>
        <time>2010-11-23T19:37:21Z</time>
      </trkpt>
      <trkpt lat="45.77728" lon="4.84377">
        <ele>217.57536315918</ele>
        <time>2010-11-23T19:37:22Z</time>
      </trkpt>
      <trkpt lat="45.77721" lon="4.84373">
        <ele>219.66014099121</ele>
        <time>2010-11-23T19:37:23Z</time>
      </trkpt>
      <trkpt lat="45.77717" lon="4.84372">
        <ele>220</ele>
        <time>2010-11-23T19:37:24Z</time>
      </trkpt>
      <trkpt lat="45.77715" lon="4.8437">
        <ele>220</ele>
        <time>2010-11-23T19:37:25Z</time>
      </trkpt>
      <trkpt lat="45.77712" lon="4.84369">
        <ele>221</ele>
        <time>2010-11-23T19:37:26Z</time>
      </trkpt>
      <trkpt lat="45.77709" lon="4.84369">
        <ele>220</ele>
        <time>2010-11-23T19:37:27Z</time>
      </trkpt>
      <trkpt lat="45.77707" lon="4.84369">
        <ele>220</ele>
        <time>2010-11-23T19:37:28Z</time>
      </trkpt>
      <trkpt lat="45.77704" lon="4.84369">
        <ele>221</ele>
        <time>2010-11-23T19:37:29Z</time>
      </trkpt>
      <trkpt lat="45.77701" lon="4.84367">
        <ele>221</ele>
        <time>2010-11-23T19:37:30Z</time>
      </trkpt>
      <trkpt lat="45.77699" lon="4.84366">
        <ele>222</ele>
        <time>2010-11-23T19:37:31Z</time>
      </trkpt>
      <trkpt lat="45.77696" lon="4.84366">
        <ele>222</ele>
        <time>2010-11-23T19:37:32Z</time>
      </trkpt>
      <trkpt lat="45.77693" lon="4.84366">
        <ele>222</ele>
        <time>2010-11-23T19:37:33Z</time>
      </trkpt>
      <trkpt lat="45.7769" lon="4.84366">
        <ele>222</ele>
        <time>2010-11-23T19:37:34Z</time>
      </trkpt>
      <trkpt lat="45.77687" lon="4.84367">
        <ele>222</ele>
        <time>2010-11-23T19:37:35Z</time>
      </trkpt>
      <trkpt lat="45.77685" lon="4.84368">
        <ele>222</ele>
        <time>2010-11-23T19:37:36Z</time>
      </trkpt>
      <trkpt lat="45.77683" lon="4.84372">
        <ele>222</ele>
        <time>2010-11-23T19:37:37Z</time>
      </trkpt>
      <trkpt lat="45.77682" lon="4.84377">
        <ele>222</ele>
        <time>2010-11-23T19:37:38Z</time>
      </trkpt>
      <trkpt lat="45.77681" lon="4.84381">
        <ele>222</ele>
        <time>2010-11-23T19:37:39Z</time>
      </trkpt>
      <trkpt lat="45.7768" lon="4.84385">
        <ele>221</ele>
        <time>2010-11-23T19:37:40Z</time>
      </trkpt>
      <trkpt lat="45.77677" lon="4.84389">
        <ele>222</ele>
        <time>2010-11-23T19:37:41Z</time>
      </trkpt>
      <trkpt lat="45.77679" lon="4.84391">
        <ele>221</ele>
        <time>2010-11-23T19:37:42Z</time>
      </trkpt>
      <trkpt lat="45.77678" lon="4.84392">
        <ele>221</ele>
        <time>2010-11-23T19:37:45Z</time>
      </trkpt>
      <trkpt lat="45.77678" lon="4.84392">
        <ele>221</ele>
        <time>2010-11-23T19:37:45Z</time>
      </trkpt>
      <trkpt lat="45.77678" lon="4.84392">
        <ele>221.00358581543</ele>
        <time>2010-11-23T19:37:45Z</time>
      </trkpt>
      <trkpt lat="45.77681" lon="4.84395">
        <ele>221.9292755127</ele>
        <time>2010-11-23T19:37:46Z</time>
      </trkpt>
      <trkpt lat="45.77683" lon="4.84394">
        <ele>222</ele>
        <time>2010-11-23T19:37:47Z</time>
      </trkpt>
      <trkpt lat="45.77684" lon="4.84395">
        <ele>222</ele>
        <time>2010-11-23T19:37:48Z</time>
      </trkpt>
      <trkpt lat="45.77688" lon="4.84397">
        <ele>222.5595703125</ele>
        <time>2010-11-23T19:37:49Z</time>
      </trkpt>
      <trkpt lat="45.77694" lon="4.844">
        <ele>223</ele>
        <time>2010-11-23T19:37:50Z</time>
      </trkpt>
      <trkpt lat="45.77698" lon="4.84405">
        <ele>224</ele>
        <time>2010-11-23T19:37:51Z</time>
      </trkpt>
      <trkpt lat="45.777" lon="4.84407">
        <ele>224</ele>
        <time>2010-11-23T19:37:52Z</time>
      </trkpt>
      <trkpt lat="45.77703" lon="4.84409">
        <ele>224.35662841797</ele>
        <time>2010-11-23T19:37:53Z</time>
      </trkpt>
      <trkpt lat="45.77709" lon="4.84414">
        <ele>224.8117980957</ele>
        <time>2010-11-23T19:37:54Z</time>
      </trkpt>
      <trkpt lat="45.77715" lon="4.84416">
        <ele>225</ele>
        <time>2010-11-23T19:37:55Z</time>
      </trkpt>
      <trkpt lat="45.77716" lon="4.84417">
        <ele>225</ele>
        <time>2010-11-23T19:37:56Z</time>
      </trkpt>
      <trkpt lat="45.77719" lon="4.84419">
        <ele>225</ele>
        <time>2010-11-23T19:37:57Z</time>
      </trkpt>
      <trkpt lat="45.7772" lon="4.84419">
        <ele>225</ele>
        <time>2010-11-23T19:37:58Z</time>
      </trkpt>
      <trkpt lat="45.77724" lon="4.84422">
        <ele>225</ele>
        <time>2010-11-23T19:37:59Z</time>
      </trkpt>
      <trkpt lat="45.77726" lon="4.84423">
        <ele>226</ele>
        <time>2010-11-23T19:38:00Z</time>
      </trkpt>
      <trkpt lat="45.77729" lon="4.84424">
        <ele>226</ele>
        <time>2010-11-23T19:38:01Z</time>
      </trkpt>
      <trkpt lat="45.7773" lon="4.84426">
        <ele>226</ele>
        <time>2010-11-23T19:38:02Z</time>
      </trkpt>
      <trkpt lat="45.77732" lon="4.84427">
        <ele>227</ele>
        <time>2010-11-23T19:38:03Z</time>
      </trkpt>
      <trkpt lat="45.77735" lon="4.84428">
        <ele>227</ele>
        <time>2010-11-23T19:38:04Z</time>
      </trkpt>
      <trkpt lat="45.77741" lon="4.84433">
        <ele>227</ele>
        <time>2010-11-23T19:38:05Z</time>
      </trkpt>
      <trkpt lat="45.77743" lon="4.84434">
        <ele>226</ele>
        <time>2010-11-23T19:38:08Z</time>
      </trkpt>
      <trkpt lat="45.77743" lon="4.84434">
        <ele>226</ele>
        <time>2010-11-23T19:38:08Z</time>
      </trkpt>
      <trkpt lat="45.77743" lon="4.84434">
        <ele>226.00126647949</ele>
        <time>2010-11-23T19:38:08Z</time>
      </trkpt>
      <trkpt lat="45.77747" lon="4.84435">
        <ele>226.56477355957</ele>
        <time>2010-11-23T19:38:09Z</time>
      </trkpt>
      <trkpt lat="45.77753" lon="4.84439">
        <ele>227</ele>
        <time>2010-11-23T19:38:10Z</time>
      </trkpt>
      <trkpt lat="45.77757" lon="4.84438">
        <ele>227</ele>
        <time>2010-11-23T19:38:11Z</time>
      </trkpt>
      <trkpt lat="45.7776" lon="4.84438">
        <ele>228</ele>
        <time>2010-11-23T19:38:12Z</time>
      </trkpt>
      <trkpt lat="45.77764" lon="4.84435">
        <ele>227</ele>
        <time>2010-11-23T19:38:13Z</time>
      </trkpt>
      <trkpt lat="45.77767" lon="4.84435">
        <ele>227</ele>
        <time>2010-11-23T19:38:14Z</time>
      </trkpt>
      <trkpt lat="45.77772" lon="4.84437">
        <ele>226</ele>
        <time>2010-11-23T19:38:15Z</time>
      </trkpt>
      <trkpt lat="45.77775" lon="4.84437">
        <ele>226</ele>
        <time>2010-11-23T19:38:16Z</time>
      </trkpt>
      <trkpt lat="45.77778" lon="4.84436">
        <ele>226</ele>
        <time>2010-11-23T19:38:17Z</time>
      </trkpt>
      <trkpt lat="45.77781" lon="4.84436">
        <ele>227</ele>
        <time>2010-11-23T19:38:18Z</time>
      </trkpt>
      <trkpt lat="45.77786" lon="4.84433">
        <ele>225</ele>
        <time>2010-11-23T19:38:19Z</time>
      </trkpt>
      <trkpt lat="45.77788" lon="4.84428">
        <ele>224</ele>
        <time>2010-11-23T19:38:20Z</time>
      </trkpt>
      <trkpt lat="45.77786" lon="4.84421">
        <ele>223</ele>
        <time>2010-11-23T19:38:21Z</time>
      </trkpt>
      <trkpt lat="45.77788" lon="4.84417">
        <ele>222</ele>
        <time>2010-11-23T19:38:22Z</time>
      </trkpt>
      <trkpt lat="45.7779" lon="4.84413">
        <ele>222</ele>
        <time>2010-11-23T19:38:23Z</time>
      </trkpt>
      <trkpt lat="45.77793" lon="4.8441">
        <ele>222</ele>
        <time>2010-11-23T19:38:24Z</time>
      </trkpt>
      <trkpt lat="45.77795" lon="4.84407">
        <ele>222</ele>
        <time>2010-11-23T19:38:25Z</time>
      </trkpt>
      <trkpt lat="45.77796" lon="4.84403">
        <ele>222</ele>
        <time>2010-11-23T19:38:26Z</time>
      </trkpt>
      <trkpt lat="45.77798" lon="4.844">
        <ele>222</ele>
        <time>2010-11-23T19:38:27Z</time>
      </trkpt>
      <trkpt lat="45.778" lon="4.84397">
        <ele>223</ele>
        <time>2010-11-23T19:38:28Z</time>
      </trkpt>
      <trkpt lat="45.77802" lon="4.84395">
        <ele>223</ele>
        <time>2010-11-23T19:38:31Z</time>
      </trkpt>
      <trkpt lat="45.77802" lon="4.84395">
        <ele>223</ele>
        <time>2010-11-23T19:38:31Z</time>
      </trkpt>
      <trkpt lat="45.77802" lon="4.84395">
        <ele>223</ele>
        <time>2010-11-23T19:38:31Z</time>
      </trkpt>
      <trkpt lat="45.77804" lon="4.84391">
        <ele>223</ele>
        <time>2010-11-23T19:38:32Z</time>
      </trkpt>
      <trkpt lat="45.77808" lon="4.84382">
        <ele>222.14268493652</ele>
        <time>2010-11-23T19:38:33Z</time>
      </trkpt>
      <trkpt lat="45.77811" lon="4.84377">
        <ele>222</ele>
        <time>2010-11-23T19:38:34Z</time>
      </trkpt>
      <trkpt lat="45.77811" lon="4.84373">
        <ele>223</ele>
        <time>2010-11-23T19:38:35Z</time>
      </trkpt>
      <trkpt lat="45.77814" lon="4.84371">
        <ele>223</ele>
        <time>2010-11-23T19:38:36Z</time>
      </trkpt>
      <trkpt lat="45.77816" lon="4.84366">
        <ele>223</ele>
        <time>2010-11-23T19:38:37Z</time>
      </trkpt>
      <trkpt lat="45.77816" lon="4.84362">
        <ele>224</ele>
        <time>2010-11-23T19:38:38Z</time>
      </trkpt>
      <trkpt lat="45.77817" lon="4.84359">
        <ele>225</ele>
        <time>2010-11-23T19:38:39Z</time>
      </trkpt>
      <trkpt lat="45.77817" lon="4.84354">
        <ele>225</ele>
        <time>2010-11-23T19:38:40Z</time>
      </trkpt>
      <trkpt lat="45.77818" lon="4.8435">
        <ele>225</ele>
        <time>2010-11-23T19:38:41Z</time>
      </trkpt>
      <trkpt lat="45.77819" lon="4.84347">
        <ele>224</ele>
        <time>2010-11-23T19:38:42Z</time>
      </trkpt>
      <trkpt lat="45.77822" lon="4.84345">
        <ele>225</ele>
        <time>2010-11-23T19:38:43Z</time>
      </trkpt>
      <trkpt lat="45.77824" lon="4.8434">
        <ele>225</ele>
        <time>2010-11-23T19:38:44Z</time>
      </trkpt>
      <trkpt lat="45.77825" lon="4.84336">
        <ele>224</ele>
        <time>2010-11-23T19:38:45Z</time>
      </trkpt>
      <trkpt lat="45.77825" lon="4.84331">
        <ele>224</ele>
        <time>2010-11-23T19:38:46Z</time>
      </trkpt>
      <trkpt lat="45.77828" lon="4.84328">
        <ele>223</ele>
        <time>2010-11-23T19:38:47Z</time>
      </trkpt>
      <trkpt lat="45.77828" lon="4.84324">
        <ele>223</ele>
        <time>2010-11-23T19:38:48Z</time>
      </trkpt>
      <trkpt lat="45.77828" lon="4.8432">
        <ele>223</ele>
        <time>2010-11-23T19:38:49Z</time>
      </trkpt>
      <trkpt lat="45.77829" lon="4.84316">
        <ele>223</ele>
        <time>2010-11-23T19:38:50Z</time>
      </trkpt>
      <trkpt lat="45.7783" lon="4.84314">
        <ele>224</ele>
        <time>2010-11-23T19:38:51Z</time>
      </trkpt>
      <trkpt lat="45.77831" lon="4.84309">
        <ele>224</ele>
        <time>2010-11-23T19:38:52Z</time>
      </trkpt>
      <trkpt lat="45.77831" lon="4.84305">
        <ele>225</ele>
        <time>2010-11-23T19:38:55Z</time>
      </trkpt>
      <trkpt lat="45.77831" lon="4.84305">
        <ele>224.99728393555</ele>
        <time>2010-11-23T19:38:55Z</time>
      </trkpt>
      <trkpt lat="45.77831" lon="4.84305">
        <ele>224.99728393555</ele>
        <time>2010-11-23T19:38:55Z</time>
      </trkpt>
      <trkpt lat="45.77833" lon="4.84302">
        <ele>224.99821472168</ele>
        <time>2010-11-23T19:38:56Z</time>
      </trkpt>
      <trkpt lat="45.77837" lon="4.84292">
        <ele>224.99989318848</ele>
        <time>2010-11-23T19:38:57Z</time>
      </trkpt>
      <trkpt lat="45.77841" lon="4.8429">
        <ele>225</ele>
        <time>2010-11-23T19:38:58Z</time>
      </trkpt>
      <trkpt lat="45.77843" lon="4.84287">
        <ele>225</ele>
        <time>2010-11-23T19:38:59Z</time>
      </trkpt>
      <trkpt lat="45.77846" lon="4.84284">
        <ele>224</ele>
        <time>2010-11-23T19:39:00Z</time>
      </trkpt>
      <trkpt lat="45.77848" lon="4.8428">
        <ele>225</ele>
        <time>2010-11-23T19:39:01Z</time>
      </trkpt>
      <trkpt lat="45.7785" lon="4.84277">
        <ele>225</ele>
        <time>2010-11-23T19:39:02Z</time>
      </trkpt>
      <trkpt lat="45.77848" lon="4.84272">
        <ele>226</ele>
        <time>2010-11-23T19:39:03Z</time>
      </trkpt>
      <trkpt lat="45.7785" lon="4.84269">
        <ele>226</ele>
        <time>2010-11-23T19:39:04Z</time>
      </trkpt>
      <trkpt lat="45.77852" lon="4.84266">
        <ele>226</ele>
        <time>2010-11-23T19:39:05Z</time>
      </trkpt>
      <trkpt lat="45.77853" lon="4.84262">
        <ele>227</ele>
        <time>2010-11-23T19:39:06Z</time>
      </trkpt>
      <trkpt lat="45.77855" lon="4.84259">
        <ele>226</ele>
        <time>2010-11-23T19:39:07Z</time>
      </trkpt>
      <trkpt lat="45.77856" lon="4.84256">
        <ele>226</ele>
        <time>2010-11-23T19:39:08Z</time>
      </trkpt>
      <trkpt lat="45.77855" lon="4.84252">
        <ele>226</ele>
        <time>2010-11-23T19:39:09Z</time>
      </trkpt>
      <trkpt lat="45.77858" lon="4.84249">
        <ele>226</ele>
        <time>2010-11-23T19:39:10Z</time>
      </trkpt>
      <trkpt lat="45.77862" lon="4.84245">
        <ele>226</ele>
        <time>2010-11-23T19:39:11Z</time>
      </trkpt>
      <trkpt lat="45.77863" lon="4.8424">
        <ele>226</ele>
        <time>2010-11-23T19:39:12Z</time>
      </trkpt>
      <trkpt lat="45.77865" lon="4.84237">
        <ele>226</ele>
        <time>2010-11-23T19:39:13Z</time>
      </trkpt>
      <trkpt lat="45.77868" lon="4.84234">
        <ele>226</ele>
        <time>2010-11-23T19:39:14Z</time>
      </trkpt>
      <trkpt lat="45.77868" lon="4.84229">
        <ele>226</ele>
        <time>2010-11-23T19:39:15Z</time>
      </trkpt>
      <trkpt lat="45.77869" lon="4.84226">
        <ele>226</ele>
        <time>2010-11-23T19:39:16Z</time>
      </trkpt>
      <trkpt lat="45.77869" lon="4.84222">
        <ele>226</ele>
        <time>2010-11-23T19:39:19Z</time>
      </trkpt>
      <trkpt lat="45.77869" lon="4.84222">
        <ele>226</ele>
        <time>2010-11-23T19:39:19Z</time>
      </trkpt>
      <trkpt lat="45.77869" lon="4.84222">
        <ele>226</ele>
        <time>2010-11-23T19:39:19Z</time>
      </trkpt>
      <trkpt lat="45.77872" lon="4.84216">
        <ele>226</ele>
        <time>2010-11-23T19:39:20Z</time>
      </trkpt>
      <trkpt lat="45.77876" lon="4.84208">
        <ele>226.84660339355</ele>
        <time>2010-11-23T19:39:21Z</time>
      </trkpt>
      <trkpt lat="45.77877" lon="4.84203">
        <ele>226</ele>
        <time>2010-11-23T19:39:22Z</time>
      </trkpt>
      <trkpt lat="45.77878" lon="4.84199">
        <ele>226</ele>
        <time>2010-11-23T19:39:23Z</time>
      </trkpt>
      <trkpt lat="45.7788" lon="4.84197">
        <ele>225</ele>
        <time>2010-11-23T19:39:24Z</time>
      </trkpt>
      <trkpt lat="45.77881" lon="4.84193">
        <ele>225</ele>
        <time>2010-11-23T19:39:25Z</time>
      </trkpt>
      <trkpt lat="45.77883" lon="4.8419">
        <ele>224</ele>
        <time>2010-11-23T19:39:26Z</time>
      </trkpt>
      <trkpt lat="45.77884" lon="4.84186">
        <ele>224</ele>
        <time>2010-11-23T19:39:27Z</time>
      </trkpt>
      <trkpt lat="45.77886" lon="4.84183">
        <ele>224</ele>
        <time>2010-11-23T19:39:28Z</time>
      </trkpt>
      <trkpt lat="45.77887" lon="4.8418">
        <ele>224</ele>
        <time>2010-11-23T19:39:29Z</time>
      </trkpt>
      <trkpt lat="45.77888" lon="4.84176">
        <ele>223</ele>
        <time>2010-11-23T19:39:30Z</time>
      </trkpt>
      <trkpt lat="45.7789" lon="4.84173">
        <ele>223</ele>
        <time>2010-11-23T19:39:31Z</time>
      </trkpt>
      <trkpt lat="45.77891" lon="4.8417">
        <ele>223</ele>
        <time>2010-11-23T19:39:32Z</time>
      </trkpt>
      <trkpt lat="45.77893" lon="4.84167">
        <ele>223</ele>
        <time>2010-11-23T19:39:33Z</time>
      </trkpt>
      <trkpt lat="45.77893" lon="4.84163">
        <ele>223</ele>
        <time>2010-11-23T19:39:34Z</time>
      </trkpt>
      <trkpt lat="45.77894" lon="4.84159">
        <ele>223</ele>
        <time>2010-11-23T19:39:35Z</time>
      </trkpt>
      <trkpt lat="45.77896" lon="4.84155">
        <ele>223</ele>
        <time>2010-11-23T19:39:36Z</time>
      </trkpt>
      <trkpt lat="45.77897" lon="4.84152">
        <ele>223</ele>
        <time>2010-11-23T19:39:37Z</time>
      </trkpt>
      <trkpt lat="45.77898" lon="4.84148">
        <ele>223</ele>
        <time>2010-11-23T19:39:38Z</time>
      </trkpt>
      <trkpt lat="45.77899" lon="4.84145">
        <ele>223</ele>
        <time>2010-11-23T19:39:39Z</time>
      </trkpt>
      <trkpt lat="45.779" lon="4.84141">
        <ele>223</ele>
        <time>2010-11-23T19:39:42Z</time>
      </trkpt>
      <trkpt lat="45.779" lon="4.84141">
        <ele>223.00190734863</ele>
        <time>2010-11-23T19:39:42Z</time>
      </trkpt>
      <trkpt lat="45.779" lon="4.84141">
        <ele>223.00309753418</ele>
        <time>2010-11-23T19:39:42Z</time>
      </trkpt>
      <trkpt lat="45.779" lon="4.84138">
        <ele>223.24548339844</ele>
        <time>2010-11-23T19:39:43Z</time>
      </trkpt>
      <trkpt lat="45.77902" lon="4.84128">
        <ele>225.11242675781</ele>
        <time>2010-11-23T19:39:44Z</time>
      </trkpt>
      <trkpt lat="45.77901" lon="4.8412">
        <ele>227</ele>
        <time>2010-11-23T19:39:45Z</time>
      </trkpt>
      <trkpt lat="45.779" lon="4.84116">
        <ele>228</ele>
        <time>2010-11-23T19:39:46Z</time>
      </trkpt>
      <trkpt lat="45.77899" lon="4.84113">
        <ele>228</ele>
        <time>2010-11-23T19:39:47Z</time>
      </trkpt>
      <trkpt lat="45.77899" lon="4.8411">
        <ele>228</ele>
        <time>2010-11-23T19:39:48Z</time>
      </trkpt>
      <trkpt lat="45.77897" lon="4.84108">
        <ele>228</ele>
        <time>2010-11-23T19:39:49Z</time>
      </trkpt>
      <trkpt lat="45.77896" lon="4.84105">
        <ele>228</ele>
        <time>2010-11-23T19:39:50Z</time>
      </trkpt>
      <trkpt lat="45.77896" lon="4.841">
        <ele>228</ele>
        <time>2010-11-23T19:39:51Z</time>
      </trkpt>
      <trkpt lat="45.77896" lon="4.84096">
        <ele>229</ele>
        <time>2010-11-23T19:39:52Z</time>
      </trkpt>
      <trkpt lat="45.77897" lon="4.84093">
        <ele>229</ele>
        <time>2010-11-23T19:39:53Z</time>
      </trkpt>
      <trkpt lat="45.77898" lon="4.8409">
        <ele>228</ele>
        <time>2010-11-23T19:39:54Z</time>
      </trkpt>
      <trkpt lat="45.77898" lon="4.84088">
        <ele>228</ele>
        <time>2010-11-23T19:39:55Z</time>
      </trkpt>
      <trkpt lat="45.779" lon="4.84085">
        <ele>228</ele>
        <time>2010-11-23T19:39:56Z</time>
      </trkpt>
      <trkpt lat="45.779" lon="4.84083">
        <ele>228</ele>
        <time>2010-11-23T19:39:57Z</time>
      </trkpt>
      <trkpt lat="45.77902" lon="4.84081">
        <ele>228</ele>
        <time>2010-11-23T19:39:58Z</time>
      </trkpt>
      <trkpt lat="45.77902" lon="4.84079">
        <ele>228</ele>
        <time>2010-11-23T19:39:59Z</time>
      </trkpt>
      <trkpt lat="45.779" lon="4.84076">
        <ele>228</ele>
        <time>2010-11-23T19:40:00Z</time>
      </trkpt>
      <trkpt lat="45.779" lon="4.84075">
        <ele>228</ele>
        <time>2010-11-23T19:40:01Z</time>
      </trkpt>
      <trkpt lat="45.77899" lon="4.84074">
        <ele>228</ele>
        <time>2010-11-23T19:40:02Z</time>
      </trkpt>
      <trkpt lat="45.77898" lon="4.84071">
        <ele>229</ele>
        <time>2010-11-23T19:40:03Z</time>
      </trkpt>
      <trkpt lat="45.77898" lon="4.84069">
        <ele>228</ele>
        <time>2010-11-23T19:40:06Z</time>
      </trkpt>
      <trkpt lat="45.77898" lon="4.84069">
        <ele>228.00205993652</ele>
        <time>2010-11-23T19:40:06Z</time>
      </trkpt>
      <trkpt lat="45.77898" lon="4.84069">
        <ele>228.00280761719</ele>
        <time>2010-11-23T19:40:06Z</time>
      </trkpt>
      <trkpt lat="45.77897" lon="4.84068">
        <ele>228.15278625488</ele>
        <time>2010-11-23T19:40:07Z</time>
      </trkpt>
      <trkpt lat="45.77892" lon="4.84061">
        <ele>229.29898071289</ele>
        <time>2010-11-23T19:40:08Z</time>
      </trkpt>
      <trkpt lat="45.77889" lon="4.84057">
        <ele>230</ele>
        <time>2010-11-23T19:40:09Z</time>
      </trkpt>
      <trkpt lat="45.77889" lon="4.84056">
        <ele>230</ele>
        <time>2010-11-23T19:40:10Z</time>
      </trkpt>
      <trkpt lat="45.77888" lon="4.84056">
        <ele>230</ele>
        <time>2010-11-23T19:40:11Z</time>
      </trkpt>
      <trkpt lat="45.77888" lon="4.84055">
        <ele>230</ele>
        <time>2010-11-23T19:40:12Z</time>
      </trkpt>
      <trkpt lat="45.77887" lon="4.84054">
        <ele>230</ele>
        <time>2010-11-23T19:40:13Z</time>
      </trkpt>
      <trkpt lat="45.77885" lon="4.84053">
        <ele>230</ele>
        <time>2010-11-23T19:40:14Z</time>
      </trkpt>
      <trkpt lat="45.77883" lon="4.84051">
        <ele>230</ele>
        <time>2010-11-23T19:40:15Z</time>
      </trkpt>
      <trkpt lat="45.77882" lon="4.8405">
        <ele>230</ele>
        <time>2010-11-23T19:40:16Z</time>
      </trkpt>
      <trkpt lat="45.7788" lon="4.84049">
        <ele>230</ele>
        <time>2010-11-23T19:40:17Z</time>
      </trkpt>
      <trkpt lat="45.77882" lon="4.8405">
        <ele>230</ele>
        <time>2010-11-23T19:40:18Z</time>
      </trkpt>
      <trkpt lat="45.77882" lon="4.84049">
        <ele>231</ele>
        <time>2010-11-23T19:40:19Z</time>
      </trkpt>
      <trkpt lat="45.77882" lon="4.84049">
        <ele>231</ele>
        <time>2010-11-23T19:40:20Z</time>
      </trkpt>
      <trkpt lat="45.77882" lon="4.84049">
        <ele>231</ele>
        <time>2010-11-23T19:40:21Z</time>
      </trkpt>
      <trkpt lat="45.77882" lon="4.84048">
        <ele>231</ele>
        <time>2010-11-23T19:40:22Z</time>
      </trkpt>
      <trkpt lat="45.77882" lon="4.84048">
        <ele>231</ele>
        <time>2010-11-23T19:40:23Z</time>
      </trkpt>
      <trkpt lat="45.77881" lon="4.84048">
        <ele>231</ele>
        <time>2010-11-23T19:40:24Z</time>
      </trkpt>
      <trkpt lat="45.77882" lon="4.84048">
        <ele>232</ele>
        <time>2010-11-23T19:40:25Z</time>
      </trkpt>
      <trkpt lat="45.77882" lon="4.84049">
        <ele>233</ele>
        <time>2010-11-23T19:40:26Z</time>
      </trkpt>
      <trkpt lat="45.77877" lon="4.84028">
        <ele>234</ele>
        <time>2010-11-23T19:40:40Z</time>
      </trkpt>
      <trkpt lat="45.77877" lon="4.84028">
        <ele>234</ele>
        <time>2010-11-23T19:40:40Z</time>
      </trkpt>
      <trkpt lat="45.77877" lon="4.84028">
        <ele>234</ele>
        <time>2010-11-23T19:40:40Z</time>
      </trkpt>
      <trkpt lat="45.77874" lon="4.84024">
        <ele>234.90570068359</ele>
        <time>2010-11-23T19:40:41Z</time>
      </trkpt>
      <trkpt lat="45.77873" lon="4.84022">
        <ele>235</ele>
        <time>2010-11-23T19:40:42Z</time>
      </trkpt>
      <trkpt lat="45.77873" lon="4.84022">
        <ele>235</ele>
        <time>2010-11-23T19:40:43Z</time>
      </trkpt>
      <trkpt lat="45.77874" lon="4.84022">
        <ele>236</ele>
        <time>2010-11-23T19:40:44Z</time>
      </trkpt>
      <trkpt lat="45.77874" lon="4.84022">
        <ele>236</ele>
        <time>2010-11-23T19:40:45Z</time>
      </trkpt>
      <trkpt lat="45.77874" lon="4.84022">
        <ele>236</ele>
        <time>2010-11-23T19:40:46Z</time>
      </trkpt>
      <trkpt lat="45.77874" lon="4.84021">
        <ele>237</ele>
        <time>2010-11-23T19:40:47Z</time>
      </trkpt>
      <trkpt lat="45.77874" lon="4.84021">
        <ele>237</ele>
        <time>2010-11-23T19:40:48Z</time>
      </trkpt>
      <trkpt lat="45.77874" lon="4.8402">
        <ele>238</ele>
        <time>2010-11-23T19:40:49Z</time>
      </trkpt>
      <trkpt lat="45.77874" lon="4.8402">
        <ele>237</ele>
        <time>2010-11-23T19:40:50Z</time>
      </trkpt>
      <trkpt lat="45.77874" lon="4.84017">
        <ele>238</ele>
        <time>2010-11-23T19:40:51Z</time>
      </trkpt>
      <trkpt lat="45.77874" lon="4.84016">
        <ele>238</ele>
        <time>2010-11-23T19:40:52Z</time>
      </trkpt>
      <trkpt lat="45.77874" lon="4.84016">
        <ele>238</ele>
        <time>2010-11-23T19:40:53Z</time>
      </trkpt>
      <trkpt lat="45.77874" lon="4.84016">
        <ele>238</ele>
        <time>2010-11-23T19:40:54Z</time>
      </trkpt>
      <trkpt lat="45.77874" lon="4.84016">
        <ele>238</ele>
        <time>2010-11-23T19:40:55Z</time>
      </trkpt>
      <trkpt lat="45.77874" lon="4.84016">
        <ele>238</ele>
        <time>2010-11-23T19:40:56Z</time>
      </trkpt>
      <trkpt lat="45.77859" lon="4.84007">
        <ele>243</ele>
        <time>2010-11-23T19:41:33Z</time>
      </trkpt>
      <trkpt lat="45.77859" lon="4.84007">
        <ele>243</ele>
        <time>2010-11-23T19:41:33Z</time>
      </trkpt>
      <trkpt lat="45.77859" lon="4.84007">
        <ele>243</ele>
        <time>2010-11-23T19:41:33Z</time>
      </trkpt>
      <trkpt lat="45.77858" lon="4.84006">
        <ele>243</ele>
        <time>2010-11-23T19:41:34Z</time>
      </trkpt>
      <trkpt lat="45.77858" lon="4.84005">
        <ele>243</ele>
        <time>2010-11-23T19:41:35Z</time>
      </trkpt>
      <trkpt lat="45.77857" lon="4.84005">
        <ele>242</ele>
        <time>2010-11-23T19:41:36Z</time>
      </trkpt>
      <trkpt lat="45.77856" lon="4.84005">
        <ele>242</ele>
        <time>2010-11-23T19:41:37Z</time>
      </trkpt>
      <trkpt lat="45.77856" lon="4.84005">
        <ele>242</ele>
        <time>2010-11-23T19:41:38Z</time>
      </trkpt>
      <trkpt lat="45.77856" lon="4.84005">
        <ele>242</ele>
        <time>2010-11-23T19:41:39Z</time>
      </trkpt>
      <trkpt lat="45.77856" lon="4.84005">
        <ele>242</ele>
        <time>2010-11-23T19:41:40Z</time>
      </trkpt>
      <trkpt lat="45.77856" lon="4.84005">
        <ele>242</ele>
        <time>2010-11-23T19:41:41Z</time>
      </trkpt>
      <trkpt lat="45.77856" lon="4.84005">
        <ele>242</ele>
        <time>2010-11-23T19:41:42Z</time>
      </trkpt>
      <trkpt lat="45.77856" lon="4.84005">
        <ele>242</ele>
        <time>2010-11-23T19:41:43Z</time>
      </trkpt>
      <trkpt lat="45.77856" lon="4.84005">
        <ele>242</ele>
        <time>2010-11-23T19:41:44Z</time>
      </trkpt>
      <trkpt lat="45.77854" lon="4.84003">
        <ele>242</ele>
        <time>2010-11-23T19:41:45Z</time>
      </trkpt>
      <trkpt lat="45.77847" lon="4.83998">
        <ele>242.79098510742</ele>
        <time>2010-11-23T19:41:46Z</time>
      </trkpt>
      <trkpt lat="45.77843" lon="4.83993">
        <ele>245</ele>
        <time>2010-11-23T19:41:47Z</time>
      </trkpt>
      <trkpt lat="45.7784" lon="4.83991">
        <ele>247</ele>
        <time>2010-11-23T19:41:48Z</time>
      </trkpt>
      <trkpt lat="45.77838" lon="4.83989">
        <ele>248</ele>
        <time>2010-11-23T19:41:49Z</time>
      </trkpt>
      <trkpt lat="45.77836" lon="4.83985">
        <ele>250</ele>
        <time>2010-11-23T19:41:50Z</time>
      </trkpt>
      <trkpt lat="45.77834" lon="4.83983">
        <ele>250</ele>
        <time>2010-11-23T19:41:51Z</time>
      </trkpt>
      <trkpt lat="45.77833" lon="4.83982">
        <ele>251</ele>
        <time>2010-11-23T19:41:52Z</time>
      </trkpt>
      <trkpt lat="45.77831" lon="4.83979">
        <ele>252</ele>
        <time>2010-11-23T19:41:53Z</time>
      </trkpt>
      <trkpt lat="45.77829" lon="4.83979">
        <ele>253</ele>
        <time>2010-11-23T19:41:54Z</time>
      </trkpt>
      <trkpt lat="45.77828" lon="4.83977">
        <ele>253</ele>
        <time>2010-11-23T19:41:57Z</time>
      </trkpt>
      <trkpt lat="45.77827" lon="4.83977">
        <ele>253.01091003418</ele>
        <time>2010-11-23T19:41:57Z</time>
      </trkpt>
      <trkpt lat="45.77827" lon="4.83977">
        <ele>253.03044128418</ele>
        <time>2010-11-23T19:41:57Z</time>
      </trkpt>
      <trkpt lat="45.77823" lon="4.83973">
        <ele>253.78202819824</ele>
        <time>2010-11-23T19:41:58Z</time>
      </trkpt>
      <trkpt lat="45.7782" lon="4.83971">
        <ele>255</ele>
        <time>2010-11-23T19:41:59Z</time>
      </trkpt>
      <trkpt lat="45.77817" lon="4.83969">
        <ele>255</ele>
        <time>2010-11-23T19:42:00Z</time>
      </trkpt>
      <trkpt lat="45.77816" lon="4.83969">
        <ele>256</ele>
        <time>2010-11-23T19:42:01Z</time>
      </trkpt>
      <trkpt lat="45.77815" lon="4.83967">
        <ele>256</ele>
        <time>2010-11-23T19:42:02Z</time>
      </trkpt>
      <trkpt lat="45.77812" lon="4.83966">
        <ele>256</ele>
        <time>2010-11-23T19:42:03Z</time>
      </trkpt>
      <trkpt lat="45.7781" lon="4.83964">
        <ele>256</ele>
        <time>2010-11-23T19:42:04Z</time>
      </trkpt>
      <trkpt lat="45.77808" lon="4.83963">
        <ele>257</ele>
        <time>2010-11-23T19:42:05Z</time>
      </trkpt>
      <trkpt lat="45.77806" lon="4.8396">
        <ele>257</ele>
        <time>2010-11-23T19:42:06Z</time>
      </trkpt>
      <trkpt lat="45.77805" lon="4.83959">
        <ele>258</ele>
        <time>2010-11-23T19:42:07Z</time>
      </trkpt>
      <trkpt lat="45.77804" lon="4.83956">
        <ele>258</ele>
        <time>2010-11-23T19:42:08Z</time>
      </trkpt>
      <trkpt lat="45.77802" lon="4.83953">
        <ele>258</ele>
        <time>2010-11-23T19:42:09Z</time>
      </trkpt>
      <trkpt lat="45.77801" lon="4.83952">
        <ele>258</ele>
        <time>2010-11-23T19:42:10Z</time>
      </trkpt>
      <trkpt lat="45.778" lon="4.83949">
        <ele>259</ele>
        <time>2010-11-23T19:42:11Z</time>
      </trkpt>
      <trkpt lat="45.778" lon="4.83947">
        <ele>260</ele>
        <time>2010-11-23T19:42:12Z</time>
      </trkpt>
      <trkpt lat="45.77797" lon="4.83946">
        <ele>261</ele>
        <time>2010-11-23T19:42:13Z</time>
      </trkpt>
      <trkpt lat="45.77794" lon="4.83943">
        <ele>261</ele>
        <time>2010-11-23T19:42:14Z</time>
      </trkpt>
      <trkpt lat="45.77792" lon="4.8394">
        <ele>262</ele>
        <time>2010-11-23T19:42:15Z</time>
      </trkpt>
      <trkpt lat="45.77791" lon="4.83939">
        <ele>262</ele>
        <time>2010-11-23T19:42:16Z</time>
      </trkpt>
      <trkpt lat="45.77788" lon="4.83936">
        <ele>262</ele>
        <time>2010-11-23T19:42:17Z</time>
      </trkpt>
      <trkpt lat="45.77787" lon="4.83934">
        <ele>263</ele>
        <time>2010-11-23T19:42:20Z</time>
      </trkpt>
      <trkpt lat="45.77787" lon="4.83934">
        <ele>263</ele>
        <time>2010-11-23T19:42:20Z</time>
      </trkpt>
      <trkpt lat="45.77787" lon="4.83934">
        <ele>263.00271606445</ele>
        <time>2010-11-23T19:42:20Z</time>
      </trkpt>
      <trkpt lat="45.77787" lon="4.83931">
        <ele>263.95690917969</ele>
        <time>2010-11-23T19:42:21Z</time>
      </trkpt>
      <trkpt lat="45.77786" lon="4.8393">
        <ele>264</ele>
        <time>2010-11-23T19:42:22Z</time>
      </trkpt>
      <trkpt lat="45.77785" lon="4.83928">
        <ele>264</ele>
        <time>2010-11-23T19:42:23Z</time>
      </trkpt>
      <trkpt lat="45.77785" lon="4.83926">
        <ele>264</ele>
        <time>2010-11-23T19:42:24Z</time>
      </trkpt>
      <trkpt lat="45.77785" lon="4.83925">
        <ele>265</ele>
        <time>2010-11-23T19:42:25Z</time>
      </trkpt>
      <trkpt lat="45.77785" lon="4.83924">
        <ele>265</ele>
        <time>2010-11-23T19:42:26Z</time>
      </trkpt>
      <trkpt lat="45.77782" lon="4.83921">
        <ele>265</ele>
        <time>2010-11-23T19:42:27Z</time>
      </trkpt>
      <trkpt lat="45.7778" lon="4.83921">
        <ele>265</ele>
        <time>2010-11-23T19:42:28Z</time>
      </trkpt>
      <trkpt lat="45.7778" lon="4.8392">
        <ele>265</ele>
        <time>2010-11-23T19:42:29Z</time>
      </trkpt>
      <trkpt lat="45.77778" lon="4.83917">
        <ele>264</ele>
        <time>2010-11-23T19:42:30Z</time>
      </trkpt>
      <trkpt lat="45.77775" lon="4.83916">
        <ele>264</ele>
        <time>2010-11-23T19:42:31Z</time>
      </trkpt>
      <trkpt lat="45.77777" lon="4.83913">
        <ele>264</ele>
        <time>2010-11-23T19:42:32Z</time>
      </trkpt>
      <trkpt lat="45.77775" lon="4.83912">
        <ele>264</ele>
        <time>2010-11-23T19:42:33Z</time>
      </trkpt>
      <trkpt lat="45.77773" lon="4.83911">
        <ele>265</ele>
        <time>2010-11-23T19:42:34Z</time>
      </trkpt>
      <trkpt lat="45.77773" lon="4.83911">
        <ele>265</ele>
        <time>2010-11-23T19:42:35Z</time>
      </trkpt>
      <trkpt lat="45.77773" lon="4.83909">
        <ele>265</ele>
        <time>2010-11-23T19:42:36Z</time>
      </trkpt>
      <trkpt lat="45.77773" lon="4.83906">
        <ele>266</ele>
        <time>2010-11-23T19:42:37Z</time>
      </trkpt>
      <trkpt lat="45.77773" lon="4.83906">
        <ele>267</ele>
        <time>2010-11-23T19:42:38Z</time>
      </trkpt>
      <trkpt lat="45.77773" lon="4.83904">
        <ele>266</ele>
        <time>2010-11-23T19:42:39Z</time>
      </trkpt>
      <trkpt lat="45.77772" lon="4.83903">
        <ele>267</ele>
        <time>2010-11-23T19:42:40Z</time>
      </trkpt>
      <trkpt lat="45.77772" lon="4.83904">
        <ele>267</ele>
        <time>2010-11-23T19:42:41Z</time>
      </trkpt>
      <trkpt lat="45.77773" lon="4.83904">
        <ele>267</ele>
        <time>2010-11-23T19:42:44Z</time>
      </trkpt>
      <trkpt lat="45.77773" lon="4.83904">
        <ele>267</ele>
        <time>2010-11-23T19:42:44Z</time>
      </trkpt>
      <trkpt lat="45.77773" lon="4.83904">
        <ele>267</ele>
        <time>2010-11-23T19:42:44Z</time>
      </trkpt>
      <trkpt lat="45.77773" lon="4.83904">
        <ele>267</ele>
        <time>2010-11-23T19:42:45Z</time>
      </trkpt>
      <trkpt lat="45.77773" lon="4.83904">
        <ele>267</ele>
        <time>2010-11-23T19:42:46Z</time>
      </trkpt>
      <trkpt lat="45.77756" lon="4.83891">
        <ele>274</ele>
        <time>2010-11-23T19:43:05Z</time>
      </trkpt>
      <trkpt lat="45.77756" lon="4.83891">
        <ele>274.00631713867</ele>
        <time>2010-11-23T19:43:05Z</time>
      </trkpt>
      <trkpt lat="45.77756" lon="4.83891">
        <ele>274.01315307617</ele>
        <time>2010-11-23T19:43:05Z</time>
      </trkpt>
      <trkpt lat="45.77754" lon="4.83888">
        <ele>275.17276000977</ele>
        <time>2010-11-23T19:43:06Z</time>
      </trkpt>
      <trkpt lat="45.77748" lon="4.83881">
        <ele>278.07431030273</ele>
        <time>2010-11-23T19:43:07Z</time>
      </trkpt>
      <trkpt lat="45.77745" lon="4.83877">
        <ele>279</ele>
        <time>2010-11-23T19:43:08Z</time>
      </trkpt>
      <trkpt lat="45.77744" lon="4.83877">
        <ele>278</ele>
        <time>2010-11-23T19:43:09Z</time>
      </trkpt>
      <trkpt lat="45.77742" lon="4.83875">
        <ele>279</ele>
        <time>2010-11-23T19:43:10Z</time>
      </trkpt>
      <trkpt lat="45.77741" lon="4.83875">
        <ele>279</ele>
        <time>2010-11-23T19:43:11Z</time>
      </trkpt>
      <trkpt lat="45.77738" lon="4.83873">
        <ele>280</ele>
        <time>2010-11-23T19:43:12Z</time>
      </trkpt>
      <trkpt lat="45.77737" lon="4.83872">
        <ele>281</ele>
        <time>2010-11-23T19:43:13Z</time>
      </trkpt>
      <trkpt lat="45.77736" lon="4.83871">
        <ele>281</ele>
        <time>2010-11-23T19:43:14Z</time>
      </trkpt>
      <trkpt lat="45.77734" lon="4.83868">
        <ele>281</ele>
        <time>2010-11-23T19:43:15Z</time>
      </trkpt>
      <trkpt lat="45.77732" lon="4.83866">
        <ele>282</ele>
        <time>2010-11-23T19:43:16Z</time>
      </trkpt>
      <trkpt lat="45.77731" lon="4.83865">
        <ele>281</ele>
        <time>2010-11-23T19:43:17Z</time>
      </trkpt>
      <trkpt lat="45.77728" lon="4.83865">
        <ele>282</ele>
        <time>2010-11-23T19:43:18Z</time>
      </trkpt>
      <trkpt lat="45.77727" lon="4.83865">
        <ele>283</ele>
        <time>2010-11-23T19:43:19Z</time>
      </trkpt>
      <trkpt lat="45.77723" lon="4.83864">
        <ele>283</ele>
        <time>2010-11-23T19:43:20Z</time>
      </trkpt>
      <trkpt lat="45.77721" lon="4.83864">
        <ele>284</ele>
        <time>2010-11-23T19:43:21Z</time>
      </trkpt>
      <trkpt lat="45.77719" lon="4.83861">
        <ele>284</ele>
        <time>2010-11-23T19:43:22Z</time>
      </trkpt>
      <trkpt lat="45.77718" lon="4.8386">
        <ele>284</ele>
        <time>2010-11-23T19:43:23Z</time>
      </trkpt>
      <trkpt lat="45.77714" lon="4.83858">
        <ele>284</ele>
        <time>2010-11-23T19:43:24Z</time>
      </trkpt>
      <trkpt lat="45.77713" lon="4.83858">
        <ele>285</ele>
        <time>2010-11-23T19:43:25Z</time>
      </trkpt>
      <trkpt lat="45.77712" lon="4.83857">
        <ele>285</ele>
        <time>2010-11-23T19:43:26Z</time>
      </trkpt>
      <trkpt lat="45.77711" lon="4.83855">
        <ele>285</ele>
        <time>2010-11-23T19:43:29Z</time>
      </trkpt>
      <trkpt lat="45.77711" lon="4.83855">
        <ele>285.00247192383</ele>
        <time>2010-11-23T19:43:29Z</time>
      </trkpt>
      <trkpt lat="45.77711" lon="4.83855">
        <ele>285.00473022461</ele>
        <time>2010-11-23T19:43:29Z</time>
      </trkpt>
      <trkpt lat="45.77709" lon="4.83851">
        <ele>285.68225097656</ele>
        <time>2010-11-23T19:43:30Z</time>
      </trkpt>
      <trkpt lat="45.77707" lon="4.83847">
        <ele>286</ele>
        <time>2010-11-23T19:43:31Z</time>
      </trkpt>
      <trkpt lat="45.77706" lon="4.83844">
        <ele>286</ele>
        <time>2010-11-23T19:43:32Z</time>
      </trkpt>
      <trkpt lat="45.77705" lon="4.8384">
        <ele>288</ele>
        <time>2010-11-23T19:43:33Z</time>
      </trkpt>
      <trkpt lat="45.77704" lon="4.83839">
        <ele>288</ele>
        <time>2010-11-23T19:43:34Z</time>
      </trkpt>
      <trkpt lat="45.77703" lon="4.83835">
        <ele>289</ele>
        <time>2010-11-23T19:43:35Z</time>
      </trkpt>
      <trkpt lat="45.77701" lon="4.83829">
        <ele>290</ele>
        <time>2010-11-23T19:43:36Z</time>
      </trkpt>
      <trkpt lat="45.77699" lon="4.83826">
        <ele>291</ele>
        <time>2010-11-23T19:43:37Z</time>
      </trkpt>
      <trkpt lat="45.77698" lon="4.83824">
        <ele>291</ele>
        <time>2010-11-23T19:43:38Z</time>
      </trkpt>
      <trkpt lat="45.77698" lon="4.83822">
        <ele>291</ele>
        <time>2010-11-23T19:43:39Z</time>
      </trkpt>
      <trkpt lat="45.77697" lon="4.8382">
        <ele>291</ele>
        <time>2010-11-23T19:43:40Z</time>
      </trkpt>
      <trkpt lat="45.77696" lon="4.83818">
        <ele>291</ele>
        <time>2010-11-23T19:43:41Z</time>
      </trkpt>
      <trkpt lat="45.77694" lon="4.83814">
        <ele>291</ele>
        <time>2010-11-23T19:43:42Z</time>
      </trkpt>
      <trkpt lat="45.77692" lon="4.83811">
        <ele>291</ele>
        <time>2010-11-23T19:43:43Z</time>
      </trkpt>
      <trkpt lat="45.77689" lon="4.8381">
        <ele>291</ele>
        <time>2010-11-23T19:43:44Z</time>
      </trkpt>
      <trkpt lat="45.77686" lon="4.83809">
        <ele>291</ele>
        <time>2010-11-23T19:43:45Z</time>
      </trkpt>
      <trkpt lat="45.77685" lon="4.83807">
        <ele>291</ele>
        <time>2010-11-23T19:43:46Z</time>
      </trkpt>
      <trkpt lat="45.77684" lon="4.83805">
        <ele>291</ele>
        <time>2010-11-23T19:43:47Z</time>
      </trkpt>
      <trkpt lat="45.77682" lon="4.83803">
        <ele>291</ele>
        <time>2010-11-23T19:43:48Z</time>
      </trkpt>
      <trkpt lat="45.7768" lon="4.83799">
        <ele>291</ele>
        <time>2010-11-23T19:43:49Z</time>
      </trkpt>
      <trkpt lat="45.77678" lon="4.83796">
        <ele>291</ele>
        <time>2010-11-23T19:43:52Z</time>
      </trkpt>
      <trkpt lat="45.77678" lon="4.83796">
        <ele>291</ele>
        <time>2010-11-23T19:43:52Z</time>
      </trkpt>
      <trkpt lat="45.77678" lon="4.83796">
        <ele>291.00189208984</ele>
        <time>2010-11-23T19:43:52Z</time>
      </trkpt>
      <trkpt lat="45.77676" lon="4.83795">
        <ele>291.35140991211</ele>
        <time>2010-11-23T19:43:53Z</time>
      </trkpt>
      <trkpt lat="45.77673" lon="4.83788">
        <ele>291</ele>
        <time>2010-11-23T19:43:54Z</time>
      </trkpt>
      <trkpt lat="45.77674" lon="4.83784">
        <ele>290</ele>
        <time>2010-11-23T19:43:55Z</time>
      </trkpt>
      <trkpt lat="45.77674" lon="4.83781">
        <ele>291</ele>
        <time>2010-11-23T19:43:56Z</time>
      </trkpt>
      <trkpt lat="45.77674" lon="4.83778">
        <ele>291</ele>
        <time>2010-11-23T19:43:57Z</time>
      </trkpt>
      <trkpt lat="45.77672" lon="4.83775">
        <ele>292</ele>
        <time>2010-11-23T19:43:58Z</time>
      </trkpt>
      <trkpt lat="45.77672" lon="4.83771">
        <ele>292</ele>
        <time>2010-11-23T19:43:59Z</time>
      </trkpt>
      <trkpt lat="45.77671" lon="4.83768">
        <ele>292</ele>
        <time>2010-11-23T19:44:00Z</time>
      </trkpt>
      <trkpt lat="45.77669" lon="4.83766">
        <ele>293</ele>
        <time>2010-11-23T19:44:01Z</time>
      </trkpt>
      <trkpt lat="45.77668" lon="4.83764">
        <ele>293</ele>
        <time>2010-11-23T19:44:02Z</time>
      </trkpt>
      <trkpt lat="45.77667" lon="4.83763">
        <ele>294</ele>
        <time>2010-11-23T19:44:03Z</time>
      </trkpt>
      <trkpt lat="45.77665" lon="4.83762">
        <ele>293</ele>
        <time>2010-11-23T19:44:04Z</time>
      </trkpt>
      <trkpt lat="45.77664" lon="4.83758">
        <ele>293</ele>
        <time>2010-11-23T19:44:05Z</time>
      </trkpt>
      <trkpt lat="45.77662" lon="4.83756">
        <ele>294</ele>
        <time>2010-11-23T19:44:06Z</time>
      </trkpt>
      <trkpt lat="45.7766" lon="4.83752">
        <ele>294</ele>
        <time>2010-11-23T19:44:07Z</time>
      </trkpt>
      <trkpt lat="45.77657" lon="4.83749">
        <ele>294</ele>
        <time>2010-11-23T19:44:08Z</time>
      </trkpt>
      <trkpt lat="45.77655" lon="4.83748">
        <ele>294</ele>
        <time>2010-11-23T19:44:09Z</time>
      </trkpt>
      <trkpt lat="45.77653" lon="4.83743">
        <ele>294</ele>
        <time>2010-11-23T19:44:10Z</time>
      </trkpt>
      <trkpt lat="45.77652" lon="4.83737">
        <ele>294</ele>
        <time>2010-11-23T19:44:11Z</time>
      </trkpt>
      <trkpt lat="45.7765" lon="4.83733">
        <ele>294</ele>
        <time>2010-11-23T19:44:12Z</time>
      </trkpt>
      <trkpt lat="45.7765" lon="4.83728">
        <ele>295</ele>
        <time>2010-11-23T19:44:13Z</time>
      </trkpt>
      <trkpt lat="45.77647" lon="4.83718">
        <ele>295</ele>
        <time>2010-11-23T19:44:16Z</time>
      </trkpt>
      <trkpt lat="45.77647" lon="4.83718">
        <ele>295</ele>
        <time>2010-11-23T19:44:16Z</time>
      </trkpt>
      <trkpt lat="45.77647" lon="4.83718">
        <ele>295.00323486328</ele>
        <time>2010-11-23T19:44:16Z</time>
      </trkpt>
      <trkpt lat="45.77646" lon="4.83715">
        <ele>295.46551513672</ele>
        <time>2010-11-23T19:44:17Z</time>
      </trkpt>
      <trkpt lat="45.77644" lon="4.83705">
        <ele>295.85705566406</ele>
        <time>2010-11-23T19:44:18Z</time>
      </trkpt>
      <trkpt lat="45.77643" lon="4.83698">
        <ele>296</ele>
        <time>2010-11-23T19:44:19Z</time>
      </trkpt>
      <trkpt lat="45.77644" lon="4.83695">
        <ele>297</ele>
        <time>2010-11-23T19:44:20Z</time>
      </trkpt>
      <trkpt lat="45.77644" lon="4.83691">
        <ele>297</ele>
        <time>2010-11-23T19:44:21Z</time>
      </trkpt>
      <trkpt lat="45.77643" lon="4.83688">
        <ele>299</ele>
        <time>2010-11-23T19:44:22Z</time>
      </trkpt>
      <trkpt lat="45.77641" lon="4.83684">
        <ele>299</ele>
        <time>2010-11-23T19:44:23Z</time>
      </trkpt>
      <trkpt lat="45.77641" lon="4.83681">
        <ele>299</ele>
        <time>2010-11-23T19:44:24Z</time>
      </trkpt>
      <trkpt lat="45.77639" lon="4.83677">
        <ele>298</ele>
        <time>2010-11-23T19:44:25Z</time>
      </trkpt>
      <trkpt lat="45.77638" lon="4.83674">
        <ele>298</ele>
        <time>2010-11-23T19:44:26Z</time>
      </trkpt>
      <trkpt lat="45.77637" lon="4.83671">
        <ele>298</ele>
        <time>2010-11-23T19:44:27Z</time>
      </trkpt>
      <trkpt lat="45.77636" lon="4.83667">
        <ele>298</ele>
        <time>2010-11-23T19:44:28Z</time>
      </trkpt>
      <trkpt lat="45.77636" lon="4.83663">
        <ele>299</ele>
        <time>2010-11-23T19:44:29Z</time>
      </trkpt>
      <trkpt lat="45.77637" lon="4.8366">
        <ele>300</ele>
        <time>2010-11-23T19:44:30Z</time>
      </trkpt>
      <trkpt lat="45.77638" lon="4.83656">
        <ele>301</ele>
        <time>2010-11-23T19:44:31Z</time>
      </trkpt>
      <trkpt lat="45.77639" lon="4.83654">
        <ele>302</ele>
        <time>2010-11-23T19:44:32Z</time>
      </trkpt>
      <trkpt lat="45.7764" lon="4.83652">
        <ele>303</ele>
        <time>2010-11-23T19:44:33Z</time>
      </trkpt>
      <trkpt lat="45.77639" lon="4.83648">
        <ele>303</ele>
        <time>2010-11-23T19:44:34Z</time>
      </trkpt>
      <trkpt lat="45.77639" lon="4.83645">
        <ele>304</ele>
        <time>2010-11-23T19:44:35Z</time>
      </trkpt>
      <trkpt lat="45.77638" lon="4.83643">
        <ele>304</ele>
        <time>2010-11-23T19:44:36Z</time>
      </trkpt>
      <trkpt lat="45.77639" lon="4.8364">
        <ele>304</ele>
        <time>2010-11-23T19:44:37Z</time>
      </trkpt>
      <trkpt lat="45.7764" lon="4.83637">
        <ele>304</ele>
        <time>2010-11-23T19:44:40Z</time>
      </trkpt>
      <trkpt lat="45.7764" lon="4.83637">
        <ele>304</ele>
        <time>2010-11-23T19:44:40Z</time>
      </trkpt>
      <trkpt lat="45.7764" lon="4.83637">
        <ele>304.00143432617</ele>
        <time>2010-11-23T19:44:40Z</time>
      </trkpt>
      <trkpt lat="45.77641" lon="4.83633">
        <ele>304.353515625</ele>
        <time>2010-11-23T19:44:41Z</time>
      </trkpt>
      <trkpt lat="45.77643" lon="4.83623">
        <ele>304.91796875</ele>
        <time>2010-11-23T19:44:42Z</time>
      </trkpt>
      <trkpt lat="45.77645" lon="4.83617">
        <ele>305</ele>
        <time>2010-11-23T19:44:43Z</time>
      </trkpt>
      <trkpt lat="45.77643" lon="4.83614">
        <ele>305</ele>
        <time>2010-11-23T19:44:44Z</time>
      </trkpt>
      <trkpt lat="45.77643" lon="4.8361">
        <ele>306</ele>
        <time>2010-11-23T19:44:45Z</time>
      </trkpt>
      <trkpt lat="45.77642" lon="4.83606">
        <ele>306</ele>
        <time>2010-11-23T19:44:46Z</time>
      </trkpt>
      <trkpt lat="45.77642" lon="4.836">
        <ele>306</ele>
        <time>2010-11-23T19:44:47Z</time>
      </trkpt>
      <trkpt lat="45.77642" lon="4.83594">
        <ele>305</ele>
        <time>2010-11-23T19:44:48Z</time>
      </trkpt>
      <trkpt lat="45.77642" lon="4.83592">
        <ele>305</ele>
        <time>2010-11-23T19:44:49Z</time>
      </trkpt>
      <trkpt lat="45.77641" lon="4.83587">
        <ele>305</ele>
        <time>2010-11-23T19:44:50Z</time>
      </trkpt>
      <trkpt lat="45.7764" lon="4.83582">
        <ele>305</ele>
        <time>2010-11-23T19:44:51Z</time>
      </trkpt>
      <trkpt lat="45.77639" lon="4.83578">
        <ele>304</ele>
        <time>2010-11-23T19:44:52Z</time>
      </trkpt>
      <trkpt lat="45.77639" lon="4.83574">
        <ele>305</ele>
        <time>2010-11-23T19:44:53Z</time>
      </trkpt>
      <trkpt lat="45.77638" lon="4.83571">
        <ele>305</ele>
        <time>2010-11-23T19:44:54Z</time>
      </trkpt>
      <trkpt lat="45.77638" lon="4.83566">
        <ele>305</ele>
        <time>2010-11-23T19:44:55Z</time>
      </trkpt>
      <trkpt lat="45.77636" lon="4.83562">
        <ele>305</ele>
        <time>2010-11-23T19:44:56Z</time>
      </trkpt>
      <trkpt lat="45.77635" lon="4.83558">
        <ele>305</ele>
        <time>2010-11-23T19:44:57Z</time>
      </trkpt>
      <trkpt lat="45.77634" lon="4.83556">
        <ele>305</ele>
        <time>2010-11-23T19:44:58Z</time>
      </trkpt>
      <trkpt lat="45.77632" lon="4.83552">
        <ele>305</ele>
        <time>2010-11-23T19:44:59Z</time>
      </trkpt>
      <trkpt lat="45.7763" lon="4.83549">
        <ele>306</ele>
        <time>2010-11-23T19:45:00Z</time>
      </trkpt>
      <trkpt lat="45.77628" lon="4.83545">
        <ele>306</ele>
        <time>2010-11-23T19:45:01Z</time>
      </trkpt>
      <trkpt lat="45.77627" lon="4.83541">
        <ele>306</ele>
        <time>2010-11-23T19:45:04Z</time>
      </trkpt>
      <trkpt lat="45.77627" lon="4.83541">
        <ele>306</ele>
        <time>2010-11-23T19:45:04Z</time>
      </trkpt>
      <trkpt lat="45.77627" lon="4.83541">
        <ele>306</ele>
        <time>2010-11-23T19:45:04Z</time>
      </trkpt>
      <trkpt lat="45.77626" lon="4.83537">
        <ele>306.44934082031</ele>
        <time>2010-11-23T19:45:05Z</time>
      </trkpt>
      <trkpt lat="45.77624" lon="4.83529">
        <ele>307</ele>
        <time>2010-11-23T19:45:06Z</time>
      </trkpt>
      <trkpt lat="45.77624" lon="4.83525">
        <ele>307</ele>
        <time>2010-11-23T19:45:07Z</time>
      </trkpt>
      <trkpt lat="45.77622" lon="4.8352">
        <ele>308</ele>
        <time>2010-11-23T19:45:08Z</time>
      </trkpt>
      <trkpt lat="45.77623" lon="4.83516">
        <ele>310</ele>
        <time>2010-11-23T19:45:09Z</time>
      </trkpt>
      <trkpt lat="45.77622" lon="4.83513">
        <ele>310</ele>
        <time>2010-11-23T19:45:10Z</time>
      </trkpt>
      <trkpt lat="45.77618" lon="4.83508">
        <ele>310</ele>
        <time>2010-11-23T19:45:11Z</time>
      </trkpt>
      <trkpt lat="45.77619" lon="4.83506">
        <ele>311</ele>
        <time>2010-11-23T19:45:12Z</time>
      </trkpt>
      <trkpt lat="45.77624" lon="4.83504">
        <ele>311</ele>
        <time>2010-11-23T19:45:13Z</time>
      </trkpt>
      <trkpt lat="45.77623" lon="4.83502">
        <ele>311</ele>
        <time>2010-11-23T19:45:14Z</time>
      </trkpt>
      <trkpt lat="45.77623" lon="4.83501">
        <ele>311</ele>
        <time>2010-11-23T19:45:15Z</time>
      </trkpt>
      <trkpt lat="45.77622" lon="4.835">
        <ele>311</ele>
        <time>2010-11-23T19:45:16Z</time>
      </trkpt>
      <trkpt lat="45.77618" lon="4.83498">
        <ele>310</ele>
        <time>2010-11-23T19:45:17Z</time>
      </trkpt>
      <trkpt lat="45.77615" lon="4.83497">
        <ele>310</ele>
        <time>2010-11-23T19:45:18Z</time>
      </trkpt>
      <trkpt lat="45.77612" lon="4.83496">
        <ele>310</ele>
        <time>2010-11-23T19:45:19Z</time>
      </trkpt>
      <trkpt lat="45.77608" lon="4.83494">
        <ele>310</ele>
        <time>2010-11-23T19:45:20Z</time>
      </trkpt>
      <trkpt lat="45.77604" lon="4.83492">
        <ele>310</ele>
        <time>2010-11-23T19:45:21Z</time>
      </trkpt>
      <trkpt lat="45.77602" lon="4.83491">
        <ele>310</ele>
        <time>2010-11-23T19:45:22Z</time>
      </trkpt>
      <trkpt lat="45.77599" lon="4.83491">
        <ele>310</ele>
        <time>2010-11-23T19:45:23Z</time>
      </trkpt>
      <trkpt lat="45.77596" lon="4.83491">
        <ele>310</ele>
        <time>2010-11-23T19:45:24Z</time>
      </trkpt>
      <trkpt lat="45.77593" lon="4.83491">
        <ele>310</ele>
        <time>2010-11-23T19:45:25Z</time>
      </trkpt>
      <trkpt lat="45.77591" lon="4.83491">
        <ele>310</ele>
        <time>2010-11-23T19:45:28Z</time>
      </trkpt>
      <trkpt lat="45.77591" lon="4.83491">
        <ele>310</ele>
        <time>2010-11-23T19:45:28Z</time>
      </trkpt>
      <trkpt lat="45.77591" lon="4.83491">
        <ele>310</ele>
        <time>2010-11-23T19:45:28Z</time>
      </trkpt>
      <trkpt lat="45.77589" lon="4.83491">
        <ele>310</ele>
        <time>2010-11-23T19:45:29Z</time>
      </trkpt>
      <trkpt lat="45.77584" lon="4.8349">
        <ele>310.59503173828</ele>
        <time>2010-11-23T19:45:30Z</time>
      </trkpt>
      <trkpt lat="45.77577" lon="4.8349">
        <ele>311</ele>
        <time>2010-11-23T19:45:31Z</time>
      </trkpt>
      <trkpt lat="45.77575" lon="4.83488">
        <ele>310</ele>
        <time>2010-11-23T19:45:32Z</time>
      </trkpt>
      <trkpt lat="45.77571" lon="4.8349">
        <ele>311</ele>
        <time>2010-11-23T19:45:33Z</time>
      </trkpt>
      <trkpt lat="45.77568" lon="4.8349">
        <ele>311</ele>
        <time>2010-11-23T19:45:34Z</time>
      </trkpt>
      <trkpt lat="45.77566" lon="4.83489">
        <ele>310</ele>
        <time>2010-11-23T19:45:35Z</time>
      </trkpt>
      <trkpt lat="45.77563" lon="4.8349">
        <ele>310</ele>
        <time>2010-11-23T19:45:36Z</time>
      </trkpt>
      <trkpt lat="45.77559" lon="4.83489">
        <ele>310</ele>
        <time>2010-11-23T19:45:37Z</time>
      </trkpt>
      <trkpt lat="45.77556" lon="4.8349">
        <ele>310</ele>
        <time>2010-11-23T19:45:38Z</time>
      </trkpt>
      <trkpt lat="45.77553" lon="4.83491">
        <ele>311</ele>
        <time>2010-11-23T19:45:39Z</time>
      </trkpt>
      <trkpt lat="45.77551" lon="4.83488">
        <ele>311</ele>
        <time>2010-11-23T19:45:40Z</time>
      </trkpt>
      <trkpt lat="45.77549" lon="4.83486">
        <ele>312</ele>
        <time>2010-11-23T19:45:41Z</time>
      </trkpt>
      <trkpt lat="45.77551" lon="4.83478">
        <ele>310.69030761719</ele>
        <time>2010-11-23T19:45:42Z</time>
      </trkpt>
      <trkpt lat="45.77553" lon="4.83468">
        <ele>305.48544311523</ele>
        <time>2010-11-23T19:45:43Z</time>
      </trkpt>
      <trkpt lat="45.77551" lon="4.83463">
        <ele>306</ele>
        <time>2010-11-23T19:45:44Z</time>
      </trkpt>
      <trkpt lat="45.7755" lon="4.8346">
        <ele>305</ele>
        <time>2010-11-23T19:45:45Z</time>
      </trkpt>
      <trkpt lat="45.7755" lon="4.83459">
        <ele>304</ele>
        <time>2010-11-23T19:45:46Z</time>
      </trkpt>
      <trkpt lat="45.77549" lon="4.83458">
        <ele>303</ele>
        <time>2010-11-23T19:45:47Z</time>
      </trkpt>
      <trkpt lat="45.77548" lon="4.83456">
        <ele>303</ele>
        <time>2010-11-23T19:45:48Z</time>
      </trkpt>
      <trkpt lat="45.77545" lon="4.83453">
        <ele>301</ele>
        <time>2010-11-23T19:45:49Z</time>
      </trkpt>
      <trkpt lat="45.77544" lon="4.83452">
        <ele>300</ele>
        <time>2010-11-23T19:45:52Z</time>
      </trkpt>
      <trkpt lat="45.77544" lon="4.83452">
        <ele>300</ele>
        <time>2010-11-23T19:45:52Z</time>
      </trkpt>
      <trkpt lat="45.77544" lon="4.83452">
        <ele>299.99862670898</ele>
        <time>2010-11-23T19:45:52Z</time>
      </trkpt>
      <trkpt lat="45.77542" lon="4.83449">
        <ele>299.73962402344</ele>
        <time>2010-11-23T19:45:53Z</time>
      </trkpt>
      <trkpt lat="45.77536" lon="4.83443">
        <ele>299.21368408203</ele>
        <time>2010-11-23T19:45:54Z</time>
      </trkpt>
      <trkpt lat="45.77532" lon="4.83438">
        <ele>299</ele>
        <time>2010-11-23T19:45:55Z</time>
      </trkpt>
      <trkpt lat="45.7753" lon="4.83436">
        <ele>299</ele>
        <time>2010-11-23T19:45:56Z</time>
      </trkpt>
      <trkpt lat="45.77527" lon="4.83434">
        <ele>299</ele>
        <time>2010-11-23T19:45:57Z</time>
      </trkpt>
      <trkpt lat="45.77524" lon="4.83431">
        <ele>300</ele>
        <time>2010-11-23T19:45:58Z</time>
      </trkpt>
      <trkpt lat="45.77524" lon="4.83429">
        <ele>301</ele>
        <time>2010-11-23T19:45:59Z</time>
      </trkpt>
      <trkpt lat="45.77523" lon="4.83427">
        <ele>302</ele>
        <time>2010-11-23T19:46:00Z</time>
      </trkpt>
      <trkpt lat="45.77522" lon="4.83424">
        <ele>302</ele>
        <time>2010-11-23T19:46:01Z</time>
      </trkpt>
      <trkpt lat="45.77521" lon="4.83423">
        <ele>303</ele>
        <time>2010-11-23T19:46:02Z</time>
      </trkpt>
      <trkpt lat="45.77519" lon="4.83419">
        <ele>303</ele>
        <time>2010-11-23T19:46:03Z</time>
      </trkpt>
      <trkpt lat="45.77517" lon="4.83417">
        <ele>303</ele>
        <time>2010-11-23T19:46:04Z</time>
      </trkpt>
      <trkpt lat="45.77515" lon="4.83414">
        <ele>302</ele>
        <time>2010-11-23T19:46:05Z</time>
      </trkpt>
      <trkpt lat="45.77514" lon="4.8341">
        <ele>302</ele>
        <time>2010-11-23T19:46:06Z</time>
      </trkpt>
      <trkpt lat="45.77511" lon="4.83408">
        <ele>302</ele>
        <time>2010-11-23T19:46:07Z</time>
      </trkpt>
      <trkpt lat="45.77508" lon="4.83405">
        <ele>303</ele>
        <time>2010-11-23T19:46:08Z</time>
      </trkpt>
      <trkpt lat="45.77506" lon="4.83402">
        <ele>302</ele>
        <time>2010-11-23T19:46:09Z</time>
      </trkpt>
      <trkpt lat="45.77504" lon="4.83394">
        <ele>302.97317504883</ele>
        <time>2010-11-23T19:46:10Z</time>
      </trkpt>
      <trkpt lat="45.77503" lon="4.83386">
        <ele>303</ele>
        <time>2010-11-23T19:46:11Z</time>
      </trkpt>
      <trkpt lat="45.77501" lon="4.83383">
        <ele>304</ele>
        <time>2010-11-23T19:46:12Z</time>
      </trkpt>
      <trkpt lat="45.77498" lon="4.83377">
        <ele>304</ele>
        <time>2010-11-23T19:46:13Z</time>
      </trkpt>
      <trkpt lat="45.77496" lon="4.83375">
        <ele>304</ele>
        <time>2010-11-23T19:46:16Z</time>
      </trkpt>
      <trkpt lat="45.77496" lon="4.83375">
        <ele>304</ele>
        <time>2010-11-23T19:46:16Z</time>
      </trkpt>
      <trkpt lat="45.77496" lon="4.83375">
        <ele>304</ele>
        <time>2010-11-23T19:46:16Z</time>
      </trkpt>
      <trkpt lat="45.77494" lon="4.83373">
        <ele>304</ele>
        <time>2010-11-23T19:46:17Z</time>
      </trkpt>
      <trkpt lat="45.7749" lon="4.83365">
        <ele>304</ele>
        <time>2010-11-23T19:46:18Z</time>
      </trkpt>
      <trkpt lat="45.77486" lon="4.83359">
        <ele>305</ele>
        <time>2010-11-23T19:46:19Z</time>
      </trkpt>
      <trkpt lat="45.77484" lon="4.83356">
        <ele>305</ele>
        <time>2010-11-23T19:46:20Z</time>
      </trkpt>
      <trkpt lat="45.77482" lon="4.83352">
        <ele>305</ele>
        <time>2010-11-23T19:46:21Z</time>
      </trkpt>
      <trkpt lat="45.7748" lon="4.8335">
        <ele>305</ele>
        <time>2010-11-23T19:46:22Z</time>
      </trkpt>
      <trkpt lat="45.77478" lon="4.83349">
        <ele>306</ele>
        <time>2010-11-23T19:46:23Z</time>
      </trkpt>
      <trkpt lat="45.77476" lon="4.83347">
        <ele>306</ele>
        <time>2010-11-23T19:46:24Z</time>
      </trkpt>
      <trkpt lat="45.77476" lon="4.83343">
        <ele>307</ele>
        <time>2010-11-23T19:46:25Z</time>
      </trkpt>
      <trkpt lat="45.77476" lon="4.8334">
        <ele>307</ele>
        <time>2010-11-23T19:46:26Z</time>
      </trkpt>
      <trkpt lat="45.77475" lon="4.83337">
        <ele>308</ele>
        <time>2010-11-23T19:46:27Z</time>
      </trkpt>
      <trkpt lat="45.77472" lon="4.83335">
        <ele>309</ele>
        <time>2010-11-23T19:46:28Z</time>
      </trkpt>
      <trkpt lat="45.77471" lon="4.83331">
        <ele>309</ele>
        <time>2010-11-23T19:46:29Z</time>
      </trkpt>
      <trkpt lat="45.77471" lon="4.83328">
        <ele>310</ele>
        <time>2010-11-23T19:46:30Z</time>
      </trkpt>
      <trkpt lat="45.77469" lon="4.83324">
        <ele>311</ele>
        <time>2010-11-23T19:46:31Z</time>
      </trkpt>
      <trkpt lat="45.7747" lon="4.8332">
        <ele>309</ele>
        <time>2010-11-23T19:46:32Z</time>
      </trkpt>
      <trkpt lat="45.7747" lon="4.83316">
        <ele>309</ele>
        <time>2010-11-23T19:46:33Z</time>
      </trkpt>
      <trkpt lat="45.77468" lon="4.83312">
        <ele>309</ele>
        <time>2010-11-23T19:46:34Z</time>
      </trkpt>
      <trkpt lat="45.77467" lon="4.83307">
        <ele>309</ele>
        <time>2010-11-23T19:46:35Z</time>
      </trkpt>
      <trkpt lat="45.77466" lon="4.83303">
        <ele>309</ele>
        <time>2010-11-23T19:46:36Z</time>
      </trkpt>
      <trkpt lat="45.77465" lon="4.83298">
        <ele>309</ele>
        <time>2010-11-23T19:46:37Z</time>
      </trkpt>
      <trkpt lat="45.77465" lon="4.83293">
        <ele>310</ele>
        <time>2010-11-23T19:46:41Z</time>
      </trkpt>
      <trkpt lat="45.77465" lon="4.83293">
        <ele>310</ele>
        <time>2010-11-23T19:46:41Z</time>
      </trkpt>
      <trkpt lat="45.77465" lon="4.83293">
        <ele>310</ele>
        <time>2010-11-23T19:46:41Z</time>
      </trkpt>
      <trkpt lat="45.77465" lon="4.83291">
        <ele>310</ele>
        <time>2010-11-23T19:46:41Z</time>
      </trkpt>
      <trkpt lat="45.77464" lon="4.83284">
        <ele>310</ele>
        <time>2010-11-23T19:46:42Z</time>
      </trkpt>
      <trkpt lat="45.77464" lon="4.83273">
        <ele>310</ele>
        <time>2010-11-23T19:46:43Z</time>
      </trkpt>
      <trkpt lat="45.77463" lon="4.83265">
        <ele>310</ele>
        <time>2010-11-23T19:46:44Z</time>
      </trkpt>
      <trkpt lat="45.77462" lon="4.83261">
        <ele>310</ele>
        <time>2010-11-23T19:46:45Z</time>
      </trkpt>
      <trkpt lat="45.77462" lon="4.83256">
        <ele>310</ele>
        <time>2010-11-23T19:46:46Z</time>
      </trkpt>
      <trkpt lat="45.77461" lon="4.83252">
        <ele>309</ele>
        <time>2010-11-23T19:46:47Z</time>
      </trkpt>
      <trkpt lat="45.7746" lon="4.83248">
        <ele>309</ele>
        <time>2010-11-23T19:46:48Z</time>
      </trkpt>
      <trkpt lat="45.7746" lon="4.83244">
        <ele>309</ele>
        <time>2010-11-23T19:46:49Z</time>
      </trkpt>
      <trkpt lat="45.77459" lon="4.8324">
        <ele>308</ele>
        <time>2010-11-23T19:46:50Z</time>
      </trkpt>
      <trkpt lat="45.7746" lon="4.83234">
        <ele>308</ele>
        <time>2010-11-23T19:46:51Z</time>
      </trkpt>
      <trkpt lat="45.77461" lon="4.8323">
        <ele>309</ele>
        <time>2010-11-23T19:46:52Z</time>
      </trkpt>
      <trkpt lat="45.7746" lon="4.83224">
        <ele>310</ele>
        <time>2010-11-23T19:46:53Z</time>
      </trkpt>
      <trkpt lat="45.7746" lon="4.83219">
        <ele>311</ele>
        <time>2010-11-23T19:46:54Z</time>
      </trkpt>
      <trkpt lat="45.77462" lon="4.83214">
        <ele>311</ele>
        <time>2010-11-23T19:46:55Z</time>
      </trkpt>
      <trkpt lat="45.77462" lon="4.8321">
        <ele>311</ele>
        <time>2010-11-23T19:46:56Z</time>
      </trkpt>
      <trkpt lat="45.77463" lon="4.83205">
        <ele>311</ele>
        <time>2010-11-23T19:46:57Z</time>
      </trkpt>
      <trkpt lat="45.77463" lon="4.832">
        <ele>311</ele>
        <time>2010-11-23T19:46:58Z</time>
      </trkpt>
      <trkpt lat="45.77463" lon="4.83196">
        <ele>311</ele>
        <time>2010-11-23T19:46:59Z</time>
      </trkpt>
      <trkpt lat="45.77463" lon="4.83191">
        <ele>312</ele>
        <time>2010-11-23T19:47:00Z</time>
      </trkpt>
      <trkpt lat="45.77462" lon="4.83185">
        <ele>314</ele>
        <time>2010-11-23T19:47:01Z</time>
      </trkpt>
      <trkpt lat="45.77462" lon="4.83181">
        <ele>315</ele>
        <time>2010-11-23T19:47:04Z</time>
      </trkpt>
      <trkpt lat="45.77462" lon="4.83181">
        <ele>315.00250244141</ele>
        <time>2010-11-23T19:47:04Z</time>
      </trkpt>
      <trkpt lat="45.77462" lon="4.83181">
        <ele>315.00454711914</ele>
        <time>2010-11-23T19:47:04Z</time>
      </trkpt>
      <trkpt lat="45.77462" lon="4.83177">
        <ele>315.79821777344</ele>
        <time>2010-11-23T19:47:05Z</time>
      </trkpt>
      <trkpt lat="45.77462" lon="4.83168">
        <ele>317</ele>
        <time>2010-11-23T19:47:06Z</time>
      </trkpt>
      <trkpt lat="45.77461" lon="4.83166">
        <ele>317</ele>
        <time>2010-11-23T19:47:07Z</time>
      </trkpt>
      <trkpt lat="45.7746" lon="4.83162">
        <ele>317</ele>
        <time>2010-11-23T19:47:08Z</time>
      </trkpt>
      <trkpt lat="45.77459" lon="4.83159">
        <ele>317</ele>
        <time>2010-11-23T19:47:09Z</time>
      </trkpt>
      <trkpt lat="45.77459" lon="4.83154">
        <ele>317</ele>
        <time>2010-11-23T19:47:10Z</time>
      </trkpt>
      <trkpt lat="45.77458" lon="4.83151">
        <ele>317</ele>
        <time>2010-11-23T19:47:11Z</time>
      </trkpt>
      <trkpt lat="45.77458" lon="4.83146">
        <ele>317</ele>
        <time>2010-11-23T19:47:12Z</time>
      </trkpt>
      <trkpt lat="45.77457" lon="4.83142">
        <ele>317</ele>
        <time>2010-11-23T19:47:13Z</time>
      </trkpt>
      <trkpt lat="45.77457" lon="4.83138">
        <ele>317</ele>
        <time>2010-11-23T19:47:14Z</time>
      </trkpt>
      <trkpt lat="45.77456" lon="4.83135">
        <ele>316</ele>
        <time>2010-11-23T19:47:15Z</time>
      </trkpt>
      <trkpt lat="45.77457" lon="4.83131">
        <ele>316</ele>
        <time>2010-11-23T19:47:16Z</time>
      </trkpt>
      <trkpt lat="45.77456" lon="4.83126">
        <ele>315</ele>
        <time>2010-11-23T19:47:17Z</time>
      </trkpt>
      <trkpt lat="45.77456" lon="4.83121">
        <ele>315</ele>
        <time>2010-11-23T19:47:18Z</time>
      </trkpt>
      <trkpt lat="45.77456" lon="4.83117">
        <ele>315</ele>
        <time>2010-11-23T19:47:19Z</time>
      </trkpt>
      <trkpt lat="45.77456" lon="4.83113">
        <ele>316</ele>
        <time>2010-11-23T19:47:20Z</time>
      </trkpt>
      <trkpt lat="45.77453" lon="4.83109">
        <ele>315</ele>
        <time>2010-11-23T19:47:21Z</time>
      </trkpt>
      <trkpt lat="45.77451" lon="4.83106">
        <ele>314</ele>
        <time>2010-11-23T19:47:22Z</time>
      </trkpt>
      <trkpt lat="45.77447" lon="4.83102">
        <ele>313</ele>
        <time>2010-11-23T19:47:23Z</time>
      </trkpt>
      <trkpt lat="45.77447" lon="4.83099">
        <ele>313</ele>
        <time>2010-11-23T19:47:24Z</time>
      </trkpt>
      <trkpt lat="45.77447" lon="4.83096">
        <ele>313</ele>
        <time>2010-11-23T19:47:25Z</time>
      </trkpt>
      <trkpt lat="45.77447" lon="4.83093">
        <ele>312</ele>
        <time>2010-11-23T19:47:28Z</time>
      </trkpt>
      <trkpt lat="45.77447" lon="4.83093">
        <ele>312</ele>
        <time>2010-11-23T19:47:28Z</time>
      </trkpt>
      <trkpt lat="45.77447" lon="4.83093">
        <ele>312</ele>
        <time>2010-11-23T19:47:28Z</time>
      </trkpt>
      <trkpt lat="45.77447" lon="4.83092">
        <ele>312</ele>
        <time>2010-11-23T19:47:29Z</time>
      </trkpt>
      <trkpt lat="45.77447" lon="4.83083">
        <ele>312.78805541992</ele>
        <time>2010-11-23T19:47:30Z</time>
      </trkpt>
      <trkpt lat="45.77446" lon="4.83076">
        <ele>314</ele>
        <time>2010-11-23T19:47:31Z</time>
      </trkpt>
      <trkpt lat="45.77446" lon="4.83075">
        <ele>314</ele>
        <time>2010-11-23T19:47:32Z</time>
      </trkpt>
      <trkpt lat="45.77446" lon="4.83072">
        <ele>315</ele>
        <time>2010-11-23T19:47:33Z</time>
      </trkpt>
      <trkpt lat="45.77444" lon="4.83069">
        <ele>315</ele>
        <time>2010-11-23T19:47:34Z</time>
      </trkpt>
      <trkpt lat="45.77443" lon="4.83065">
        <ele>315</ele>
        <time>2010-11-23T19:47:35Z</time>
      </trkpt>
      <trkpt lat="45.77442" lon="4.83062">
        <ele>315</ele>
        <time>2010-11-23T19:47:36Z</time>
      </trkpt>
      <trkpt lat="45.77441" lon="4.83057">
        <ele>315</ele>
        <time>2010-11-23T19:47:37Z</time>
      </trkpt>
      <trkpt lat="45.7744" lon="4.83051">
        <ele>315</ele>
        <time>2010-11-23T19:47:38Z</time>
      </trkpt>
      <trkpt lat="45.7744" lon="4.83043">
        <ele>313</ele>
        <time>2010-11-23T19:47:39Z</time>
      </trkpt>
      <trkpt lat="45.7744" lon="4.83037">
        <ele>312</ele>
        <time>2010-11-23T19:47:40Z</time>
      </trkpt>
      <trkpt lat="45.77439" lon="4.83031">
        <ele>311</ele>
        <time>2010-11-23T19:47:41Z</time>
      </trkpt>
      <trkpt lat="45.77437" lon="4.83024">
        <ele>311</ele>
        <time>2010-11-23T19:47:42Z</time>
      </trkpt>
      <trkpt lat="45.77436" lon="4.83018">
        <ele>310</ele>
        <time>2010-11-23T19:47:43Z</time>
      </trkpt>
      <trkpt lat="45.77439" lon="4.83015">
        <ele>310</ele>
        <time>2010-11-23T19:47:44Z</time>
      </trkpt>
      <trkpt lat="45.77441" lon="4.83011">
        <ele>310</ele>
        <time>2010-11-23T19:47:45Z</time>
      </trkpt>
      <trkpt lat="45.77442" lon="4.83006">
        <ele>309</ele>
        <time>2010-11-23T19:47:46Z</time>
      </trkpt>
      <trkpt lat="45.77443" lon="4.83003">
        <ele>309</ele>
        <time>2010-11-23T19:47:47Z</time>
      </trkpt>
      <trkpt lat="45.77442" lon="4.82997">
        <ele>310</ele>
        <time>2010-11-23T19:47:48Z</time>
      </trkpt>
      <trkpt lat="45.77442" lon="4.82993">
        <ele>311</ele>
        <time>2010-11-23T19:47:49Z</time>
      </trkpt>
      <trkpt lat="45.77442" lon="4.82989">
        <ele>311</ele>
        <time>2010-11-23T19:47:52Z</time>
      </trkpt>
      <trkpt lat="45.77442" lon="4.82989">
        <ele>311.00256347656</ele>
        <time>2010-11-23T19:47:52Z</time>
      </trkpt>
      <trkpt lat="45.77442" lon="4.82989">
        <ele>311.00256347656</ele>
        <time>2010-11-23T19:47:52Z</time>
      </trkpt>
      <trkpt lat="45.77442" lon="4.82987">
        <ele>311.15356445312</ele>
        <time>2010-11-23T19:47:53Z</time>
      </trkpt>
      <trkpt lat="45.7744" lon="4.82978">
        <ele>311.68106079102</ele>
        <time>2010-11-23T19:47:54Z</time>
      </trkpt>
      <trkpt lat="45.7744" lon="4.82969">
        <ele>312</ele>
        <time>2010-11-23T19:47:55Z</time>
      </trkpt>
      <trkpt lat="45.77439" lon="4.82963">
        <ele>312</ele>
        <time>2010-11-23T19:47:56Z</time>
      </trkpt>
      <trkpt lat="45.77439" lon="4.82957">
        <ele>312</ele>
        <time>2010-11-23T19:47:57Z</time>
      </trkpt>
      <trkpt lat="45.77438" lon="4.82953">
        <ele>312</ele>
        <time>2010-11-23T19:47:58Z</time>
      </trkpt>
      <trkpt lat="45.77437" lon="4.82948">
        <ele>312</ele>
        <time>2010-11-23T19:47:59Z</time>
      </trkpt>
      <trkpt lat="45.77436" lon="4.82944">
        <ele>313</ele>
        <time>2010-11-23T19:48:00Z</time>
      </trkpt>
      <trkpt lat="45.77436" lon="4.8294">
        <ele>313</ele>
        <time>2010-11-23T19:48:01Z</time>
      </trkpt>
      <trkpt lat="45.77436" lon="4.82935">
        <ele>312</ele>
        <time>2010-11-23T19:48:02Z</time>
      </trkpt>
      <trkpt lat="45.77436" lon="4.8293">
        <ele>312</ele>
        <time>2010-11-23T19:48:03Z</time>
      </trkpt>
      <trkpt lat="45.77436" lon="4.82926">
        <ele>312</ele>
        <time>2010-11-23T19:48:04Z</time>
      </trkpt>
      <trkpt lat="45.77435" lon="4.82923">
        <ele>311</ele>
        <time>2010-11-23T19:48:05Z</time>
      </trkpt>
      <trkpt lat="45.77435" lon="4.82918">
        <ele>311</ele>
        <time>2010-11-23T19:48:06Z</time>
      </trkpt>
      <trkpt lat="45.77435" lon="4.82915">
        <ele>310</ele>
        <time>2010-11-23T19:48:07Z</time>
      </trkpt>
      <trkpt lat="45.77434" lon="4.82911">
        <ele>310</ele>
        <time>2010-11-23T19:48:08Z</time>
      </trkpt>
      <trkpt lat="45.77434" lon="4.82907">
        <ele>310</ele>
        <time>2010-11-23T19:48:09Z</time>
      </trkpt>
      <trkpt lat="45.77434" lon="4.82902">
        <ele>310</ele>
        <time>2010-11-23T19:48:10Z</time>
      </trkpt>
      <trkpt lat="45.77433" lon="4.82898">
        <ele>310</ele>
        <time>2010-11-23T19:48:11Z</time>
      </trkpt>
      <trkpt lat="45.77433" lon="4.82894">
        <ele>310</ele>
        <time>2010-11-23T19:48:12Z</time>
      </trkpt>
      <trkpt lat="45.77432" lon="4.8289">
        <ele>310</ele>
        <time>2010-11-23T19:48:13Z</time>
      </trkpt>
      <trkpt lat="45.77433" lon="4.82887">
        <ele>311</ele>
        <time>2010-11-23T19:48:16Z</time>
      </trkpt>
      <trkpt lat="45.77433" lon="4.82887">
        <ele>311</ele>
        <time>2010-11-23T19:48:16Z</time>
      </trkpt>
      <trkpt lat="45.77433" lon="4.82887">
        <ele>311</ele>
        <time>2010-11-23T19:48:16Z</time>
      </trkpt>
      <trkpt lat="45.77434" lon="4.82883">
        <ele>311</ele>
        <time>2010-11-23T19:48:17Z</time>
      </trkpt>
      <trkpt lat="45.77435" lon="4.82875">
        <ele>311</ele>
        <time>2010-11-23T19:48:18Z</time>
      </trkpt>
      <trkpt lat="45.77435" lon="4.82875">
        <ele>311</ele>
        <time>2010-11-23T19:48:19Z</time>
      </trkpt>
      <trkpt lat="45.77436" lon="4.8287">
        <ele>311</ele>
        <time>2010-11-23T19:48:20Z</time>
      </trkpt>
      <trkpt lat="45.77436" lon="4.82865">
        <ele>311</ele>
        <time>2010-11-23T19:48:21Z</time>
      </trkpt>
      <trkpt lat="45.77436" lon="4.82861">
        <ele>312</ele>
        <time>2010-11-23T19:48:22Z</time>
      </trkpt>
      <trkpt lat="45.77439" lon="4.82857">
        <ele>312</ele>
        <time>2010-11-23T19:48:23Z</time>
      </trkpt>
      <trkpt lat="45.77438" lon="4.82852">
        <ele>312</ele>
        <time>2010-11-23T19:48:24Z</time>
      </trkpt>
      <trkpt lat="45.77436" lon="4.82848">
        <ele>313</ele>
        <time>2010-11-23T19:48:25Z</time>
      </trkpt>
      <trkpt lat="45.77436" lon="4.82842">
        <ele>314</ele>
        <time>2010-11-23T19:48:26Z</time>
      </trkpt>
      <trkpt lat="45.77436" lon="4.82838">
        <ele>315</ele>
        <time>2010-11-23T19:48:27Z</time>
      </trkpt>
      <trkpt lat="45.77435" lon="4.82832">
        <ele>316</ele>
        <time>2010-11-23T19:48:28Z</time>
      </trkpt>
      <trkpt lat="45.77436" lon="4.82828">
        <ele>317</ele>
        <time>2010-11-23T19:48:29Z</time>
      </trkpt>
      <trkpt lat="45.77435" lon="4.82823">
        <ele>317</ele>
        <time>2010-11-23T19:48:30Z</time>
      </trkpt>
      <trkpt lat="45.77434" lon="4.82819">
        <ele>317</ele>
        <time>2010-11-23T19:48:31Z</time>
      </trkpt>
      <trkpt lat="45.77433" lon="4.82815">
        <ele>317</ele>
        <time>2010-11-23T19:48:32Z</time>
      </trkpt>
      <trkpt lat="45.77432" lon="4.82811">
        <ele>317</ele>
        <time>2010-11-23T19:48:33Z</time>
      </trkpt>
      <trkpt lat="45.77431" lon="4.82806">
        <ele>317</ele>
        <time>2010-11-23T19:48:34Z</time>
      </trkpt>
      <trkpt lat="45.77428" lon="4.82804">
        <ele>317</ele>
        <time>2010-11-23T19:48:35Z</time>
      </trkpt>
      <trkpt lat="45.77426" lon="4.82799">
        <ele>317</ele>
        <time>2010-11-23T19:48:36Z</time>
      </trkpt>
      <trkpt lat="45.77424" lon="4.82793">
        <ele>317</ele>
        <time>2010-11-23T19:48:37Z</time>
      </trkpt>
      <trkpt lat="45.77424" lon="4.82789">
        <ele>316</ele>
        <time>2010-11-23T19:48:40Z</time>
      </trkpt>
      <trkpt lat="45.77424" lon="4.82789">
        <ele>315.99792480469</ele>
        <time>2010-11-23T19:48:40Z</time>
      </trkpt>
      <trkpt lat="45.77424" lon="4.82789">
        <ele>315.99697875977</ele>
        <time>2010-11-23T19:48:40Z</time>
      </trkpt>
      <trkpt lat="45.77424" lon="4.82787">
        <ele>315.78106689453</ele>
        <time>2010-11-23T19:48:41Z</time>
      </trkpt>
      <trkpt lat="45.77424" lon="4.82778">
        <ele>314.93112182617</ele>
        <time>2010-11-23T19:48:42Z</time>
      </trkpt>
      <trkpt lat="45.77424" lon="4.82767">
        <ele>314.16189575195</ele>
        <time>2010-11-23T19:48:43Z</time>
      </trkpt>
      <trkpt lat="45.77424" lon="4.8276">
        <ele>313</ele>
        <time>2010-11-23T19:48:44Z</time>
      </trkpt>
      <trkpt lat="45.77424" lon="4.82756">
        <ele>314</ele>
        <time>2010-11-23T19:48:45Z</time>
      </trkpt>
      <trkpt lat="45.77424" lon="4.82751">
        <ele>314</ele>
        <time>2010-11-23T19:48:46Z</time>
      </trkpt>
      <trkpt lat="45.77423" lon="4.82747">
        <ele>314</ele>
        <time>2010-11-23T19:48:47Z</time>
      </trkpt>
      <trkpt lat="45.77422" lon="4.82744">
        <ele>314</ele>
        <time>2010-11-23T19:48:48Z</time>
      </trkpt>
      <trkpt lat="45.77421" lon="4.8274">
        <ele>314</ele>
        <time>2010-11-23T19:48:49Z</time>
      </trkpt>
      <trkpt lat="45.7742" lon="4.82736">
        <ele>314</ele>
        <time>2010-11-23T19:48:50Z</time>
      </trkpt>
      <trkpt lat="45.7742" lon="4.82733">
        <ele>315</ele>
        <time>2010-11-23T19:48:51Z</time>
      </trkpt>
      <trkpt lat="45.77419" lon="4.82728">
        <ele>316</ele>
        <time>2010-11-23T19:48:52Z</time>
      </trkpt>
      <trkpt lat="45.77419" lon="4.82726">
        <ele>317</ele>
        <time>2010-11-23T19:48:53Z</time>
      </trkpt>
      <trkpt lat="45.77418" lon="4.82721">
        <ele>317</ele>
        <time>2010-11-23T19:48:54Z</time>
      </trkpt>
      <trkpt lat="45.77417" lon="4.82717">
        <ele>318</ele>
        <time>2010-11-23T19:48:55Z</time>
      </trkpt>
      <trkpt lat="45.77415" lon="4.82712">
        <ele>318</ele>
        <time>2010-11-23T19:48:56Z</time>
      </trkpt>
      <trkpt lat="45.77412" lon="4.82709">
        <ele>318</ele>
        <time>2010-11-23T19:48:57Z</time>
      </trkpt>
      <trkpt lat="45.7741" lon="4.82704">
        <ele>319</ele>
        <time>2010-11-23T19:48:58Z</time>
      </trkpt>
      <trkpt lat="45.7741" lon="4.82701">
        <ele>318</ele>
        <time>2010-11-23T19:48:59Z</time>
      </trkpt>
      <trkpt lat="45.77409" lon="4.82697">
        <ele>319</ele>
        <time>2010-11-23T19:49:00Z</time>
      </trkpt>
      <trkpt lat="45.77409" lon="4.82692">
        <ele>320</ele>
        <time>2010-11-23T19:49:01Z</time>
      </trkpt>
      <trkpt lat="45.77408" lon="4.82688">
        <ele>320</ele>
        <time>2010-11-23T19:49:04Z</time>
      </trkpt>
      <trkpt lat="45.77408" lon="4.82688">
        <ele>320</ele>
        <time>2010-11-23T19:49:04Z</time>
      </trkpt>
      <trkpt lat="45.77408" lon="4.82688">
        <ele>320.00170898438</ele>
        <time>2010-11-23T19:49:04Z</time>
      </trkpt>
      <trkpt lat="45.77408" lon="4.82686">
        <ele>320.00143432617</ele>
        <time>2010-11-23T19:49:05Z</time>
      </trkpt>
      <trkpt lat="45.77407" lon="4.82677">
        <ele>320.70877075195</ele>
        <time>2010-11-23T19:49:06Z</time>
      </trkpt>
      <trkpt lat="45.77406" lon="4.8267">
        <ele>321</ele>
        <time>2010-11-23T19:49:07Z</time>
      </trkpt>
      <trkpt lat="45.77405" lon="4.82666">
        <ele>321</ele>
        <time>2010-11-23T19:49:08Z</time>
      </trkpt>
      <trkpt lat="45.77405" lon="4.82662">
        <ele>321</ele>
        <time>2010-11-23T19:49:09Z</time>
      </trkpt>
      <trkpt lat="45.77405" lon="4.82658">
        <ele>322</ele>
        <time>2010-11-23T19:49:10Z</time>
      </trkpt>
      <trkpt lat="45.77405" lon="4.82654">
        <ele>322</ele>
        <time>2010-11-23T19:49:11Z</time>
      </trkpt>
      <trkpt lat="45.77405" lon="4.82651">
        <ele>322</ele>
        <time>2010-11-23T19:49:12Z</time>
      </trkpt>
      <trkpt lat="45.77404" lon="4.82648">
        <ele>322</ele>
        <time>2010-11-23T19:49:13Z</time>
      </trkpt>
      <trkpt lat="45.77403" lon="4.82643">
        <ele>322</ele>
        <time>2010-11-23T19:49:14Z</time>
      </trkpt>
      <trkpt lat="45.77403" lon="4.82638">
        <ele>322</ele>
        <time>2010-11-23T19:49:15Z</time>
      </trkpt>
      <trkpt lat="45.77403" lon="4.82634">
        <ele>323</ele>
        <time>2010-11-23T19:49:16Z</time>
      </trkpt>
      <trkpt lat="45.77402" lon="4.82629">
        <ele>323</ele>
        <time>2010-11-23T19:49:17Z</time>
      </trkpt>
      <trkpt lat="45.77401" lon="4.82624">
        <ele>323</ele>
        <time>2010-11-23T19:49:18Z</time>
      </trkpt>
      <trkpt lat="45.774" lon="4.82617">
        <ele>323</ele>
        <time>2010-11-23T19:49:19Z</time>
      </trkpt>
      <trkpt lat="45.77397" lon="4.82609">
        <ele>324</ele>
        <time>2010-11-23T19:49:20Z</time>
      </trkpt>
      <trkpt lat="45.77396" lon="4.82604">
        <ele>324</ele>
        <time>2010-11-23T19:49:21Z</time>
      </trkpt>
      <trkpt lat="45.77395" lon="4.82598">
        <ele>325</ele>
        <time>2010-11-23T19:49:22Z</time>
      </trkpt>
      <trkpt lat="45.77394" lon="4.82594">
        <ele>326</ele>
        <time>2010-11-23T19:49:23Z</time>
      </trkpt>
      <trkpt lat="45.77394" lon="4.82589">
        <ele>326</ele>
        <time>2010-11-23T19:49:24Z</time>
      </trkpt>
      <trkpt lat="45.77393" lon="4.82586">
        <ele>326</ele>
        <time>2010-11-23T19:49:25Z</time>
      </trkpt>
      <trkpt lat="45.77394" lon="4.82583">
        <ele>326</ele>
        <time>2010-11-23T19:49:28Z</time>
      </trkpt>
      <trkpt lat="45.77394" lon="4.82582">
        <ele>326</ele>
        <time>2010-11-23T19:49:28Z</time>
      </trkpt>
      <trkpt lat="45.77394" lon="4.82582">
        <ele>326</ele>
        <time>2010-11-23T19:49:28Z</time>
      </trkpt>
      <trkpt lat="45.77394" lon="4.82578">
        <ele>326</ele>
        <time>2010-11-23T19:49:29Z</time>
      </trkpt>
      <trkpt lat="45.77394" lon="4.82567">
        <ele>326</ele>
        <time>2010-11-23T19:49:30Z</time>
      </trkpt>
      <trkpt lat="45.77395" lon="4.82559">
        <ele>326</ele>
        <time>2010-11-23T19:49:31Z</time>
      </trkpt>
      <trkpt lat="45.77398" lon="4.82551">
        <ele>322</ele>
        <time>2010-11-23T19:49:33Z</time>
      </trkpt>
      <trkpt lat="45.77398" lon="4.82548">
        <ele>321.21438598633</ele>
        <time>2010-11-23T19:49:33Z</time>
      </trkpt>
      <trkpt lat="45.77399" lon="4.82537">
        <ele>317</ele>
        <time>2010-11-23T19:49:34Z</time>
      </trkpt>
      <trkpt lat="45.77401" lon="4.82533">
        <ele>315</ele>
        <time>2010-11-23T19:49:35Z</time>
      </trkpt>
      <trkpt lat="45.77401" lon="4.82529">
        <ele>313</ele>
        <time>2010-11-23T19:49:36Z</time>
      </trkpt>
      <trkpt lat="45.77401" lon="4.82525">
        <ele>311</ele>
        <time>2010-11-23T19:49:37Z</time>
      </trkpt>
      <trkpt lat="45.77401" lon="4.82521">
        <ele>309</ele>
        <time>2010-11-23T19:49:38Z</time>
      </trkpt>
      <trkpt lat="45.77401" lon="4.82518">
        <ele>309</ele>
        <time>2010-11-23T19:49:39Z</time>
      </trkpt>
      <trkpt lat="45.77401" lon="4.82515">
        <ele>309</ele>
        <time>2010-11-23T19:49:40Z</time>
      </trkpt>
      <trkpt lat="45.774" lon="4.82512">
        <ele>309</ele>
        <time>2010-11-23T19:49:41Z</time>
      </trkpt>
      <trkpt lat="45.77399" lon="4.8251">
        <ele>308</ele>
        <time>2010-11-23T19:49:42Z</time>
      </trkpt>
      <trkpt lat="45.77397" lon="4.82506">
        <ele>309</ele>
        <time>2010-11-23T19:49:43Z</time>
      </trkpt>
      <trkpt lat="45.77396" lon="4.82503">
        <ele>309</ele>
        <time>2010-11-23T19:49:44Z</time>
      </trkpt>
      <trkpt lat="45.77394" lon="4.82498">
        <ele>309</ele>
        <time>2010-11-23T19:49:45Z</time>
      </trkpt>
      <trkpt lat="45.77392" lon="4.82493">
        <ele>309</ele>
        <time>2010-11-23T19:49:46Z</time>
      </trkpt>
      <trkpt lat="45.77391" lon="4.82488">
        <ele>310</ele>
        <time>2010-11-23T19:49:47Z</time>
      </trkpt>
      <trkpt lat="45.77391" lon="4.82482">
        <ele>310</ele>
        <time>2010-11-23T19:49:48Z</time>
      </trkpt>
      <trkpt lat="45.7739" lon="4.82477">
        <ele>310</ele>
        <time>2010-11-23T19:49:49Z</time>
      </trkpt>
      <trkpt lat="45.7739" lon="4.82471">
        <ele>311</ele>
        <time>2010-11-23T19:49:52Z</time>
      </trkpt>
      <trkpt lat="45.7739" lon="4.82471">
        <ele>311</ele>
        <time>2010-11-23T19:49:52Z</time>
      </trkpt>
      <trkpt lat="45.7739" lon="4.82471">
        <ele>311</ele>
        <time>2010-11-23T19:49:52Z</time>
      </trkpt>
      <trkpt lat="45.7739" lon="4.8247">
        <ele>311</ele>
        <time>2010-11-23T19:49:53Z</time>
      </trkpt>
      <trkpt lat="45.77389" lon="4.82461">
        <ele>311.56060791016</ele>
        <time>2010-11-23T19:49:54Z</time>
      </trkpt>
      <trkpt lat="45.77389" lon="4.82451">
        <ele>312</ele>
        <time>2010-11-23T19:49:55Z</time>
      </trkpt>
      <trkpt lat="45.77387" lon="4.82446">
        <ele>314</ele>
        <time>2010-11-23T19:49:56Z</time>
      </trkpt>
      <trkpt lat="45.77386" lon="4.82442">
        <ele>314</ele>
        <time>2010-11-23T19:49:57Z</time>
      </trkpt>
      <trkpt lat="45.77386" lon="4.82438">
        <ele>315</ele>
        <time>2010-11-23T19:49:58Z</time>
      </trkpt>
      <trkpt lat="45.77384" lon="4.82431">
        <ele>317</ele>
        <time>2010-11-23T19:49:59Z</time>
      </trkpt>
      <trkpt lat="45.77382" lon="4.82424">
        <ele>317</ele>
        <time>2010-11-23T19:50:00Z</time>
      </trkpt>
      <trkpt lat="45.77382" lon="4.82419">
        <ele>318</ele>
        <time>2010-11-23T19:50:01Z</time>
      </trkpt>
      <trkpt lat="45.7738" lon="4.82415">
        <ele>319</ele>
        <time>2010-11-23T19:50:02Z</time>
      </trkpt>
      <trkpt lat="45.7738" lon="4.8241">
        <ele>320</ele>
        <time>2010-11-23T19:50:03Z</time>
      </trkpt>
      <trkpt lat="45.7738" lon="4.82405">
        <ele>321</ele>
        <time>2010-11-23T19:50:04Z</time>
      </trkpt>
      <trkpt lat="45.77379" lon="4.82399">
        <ele>321</ele>
        <time>2010-11-23T19:50:05Z</time>
      </trkpt>
      <trkpt lat="45.77378" lon="4.82394">
        <ele>322</ele>
        <time>2010-11-23T19:50:06Z</time>
      </trkpt>
      <trkpt lat="45.77376" lon="4.82389">
        <ele>322</ele>
        <time>2010-11-23T19:50:07Z</time>
      </trkpt>
      <trkpt lat="45.77376" lon="4.82385">
        <ele>323</ele>
        <time>2010-11-23T19:50:08Z</time>
      </trkpt>
      <trkpt lat="45.77376" lon="4.82381">
        <ele>323</ele>
        <time>2010-11-23T19:50:09Z</time>
      </trkpt>
      <trkpt lat="45.77375" lon="4.82379">
        <ele>322</ele>
        <time>2010-11-23T19:50:10Z</time>
      </trkpt>
      <trkpt lat="45.77373" lon="4.82373">
        <ele>321</ele>
        <time>2010-11-23T19:50:11Z</time>
      </trkpt>
      <trkpt lat="45.77372" lon="4.82368">
        <ele>321</ele>
        <time>2010-11-23T19:50:12Z</time>
      </trkpt>
      <trkpt lat="45.77368" lon="4.82366">
        <ele>319</ele>
        <time>2010-11-23T19:50:13Z</time>
      </trkpt>
      <trkpt lat="45.77361" lon="4.82365">
        <ele>314</ele>
        <time>2010-11-23T19:50:17Z</time>
      </trkpt>
      <trkpt lat="45.77361" lon="4.82365">
        <ele>313.99020385742</ele>
        <time>2010-11-23T19:50:17Z</time>
      </trkpt>
      <trkpt lat="45.77361" lon="4.82365">
        <ele>313.97885131836</ele>
        <time>2010-11-23T19:50:17Z</time>
      </trkpt>
      <trkpt lat="45.7736" lon="4.82365">
        <ele>313.53231811523</ele>
        <time>2010-11-23T19:50:17Z</time>
      </trkpt>
      <trkpt lat="45.77354" lon="4.82367">
        <ele>310.38314819336</ele>
        <time>2010-11-23T19:50:18Z</time>
      </trkpt>
      <trkpt lat="45.77346" lon="4.8237">
        <ele>307.69842529297</ele>
        <time>2010-11-23T19:50:19Z</time>
      </trkpt>
      <trkpt lat="45.77339" lon="4.82374">
        <ele>305.8108215332</ele>
        <time>2010-11-23T19:50:20Z</time>
      </trkpt>
      <trkpt lat="45.77333" lon="4.82379">
        <ele>305</ele>
        <time>2010-11-23T19:50:21Z</time>
      </trkpt>
      <trkpt lat="45.7733" lon="4.82381">
        <ele>305</ele>
        <time>2010-11-23T19:50:22Z</time>
      </trkpt>
      <trkpt lat="45.77326" lon="4.82385">
        <ele>304</ele>
        <time>2010-11-23T19:50:23Z</time>
      </trkpt>
      <trkpt lat="45.77323" lon="4.82388">
        <ele>304</ele>
        <time>2010-11-23T19:50:24Z</time>
      </trkpt>
      <trkpt lat="45.77321" lon="4.8239">
        <ele>304</ele>
        <time>2010-11-23T19:50:25Z</time>
      </trkpt>
      <trkpt lat="45.77319" lon="4.82393">
        <ele>303</ele>
        <time>2010-11-23T19:50:26Z</time>
      </trkpt>
      <trkpt lat="45.77315" lon="4.82395">
        <ele>303</ele>
        <time>2010-11-23T19:50:27Z</time>
      </trkpt>
      <trkpt lat="45.77313" lon="4.82396">
        <ele>303</ele>
        <time>2010-11-23T19:50:28Z</time>
      </trkpt>
      <trkpt lat="45.77311" lon="4.824">
        <ele>303</ele>
        <time>2010-11-23T19:50:29Z</time>
      </trkpt>
      <trkpt lat="45.77308" lon="4.82403">
        <ele>303</ele>
        <time>2010-11-23T19:50:30Z</time>
      </trkpt>
      <trkpt lat="45.77305" lon="4.82406">
        <ele>302</ele>
        <time>2010-11-23T19:50:31Z</time>
      </trkpt>
      <trkpt lat="45.77302" lon="4.82409">
        <ele>301</ele>
        <time>2010-11-23T19:50:32Z</time>
      </trkpt>
      <trkpt lat="45.77301" lon="4.82413">
        <ele>300</ele>
        <time>2010-11-23T19:50:33Z</time>
      </trkpt>
      <trkpt lat="45.77298" lon="4.82416">
        <ele>301</ele>
        <time>2010-11-23T19:50:34Z</time>
      </trkpt>
      <trkpt lat="45.77295" lon="4.82418">
        <ele>300</ele>
        <time>2010-11-23T19:50:35Z</time>
      </trkpt>
      <trkpt lat="45.77293" lon="4.82423">
        <ele>299</ele>
        <time>2010-11-23T19:50:36Z</time>
      </trkpt>
      <trkpt lat="45.77291" lon="4.82426">
        <ele>299</ele>
        <time>2010-11-23T19:50:37Z</time>
      </trkpt>
      <trkpt lat="45.77288" lon="4.8243">
        <ele>299</ele>
        <time>2010-11-23T19:50:40Z</time>
      </trkpt>
      <trkpt lat="45.77288" lon="4.8243">
        <ele>299</ele>
        <time>2010-11-23T19:50:40Z</time>
      </trkpt>
      <trkpt lat="45.77288" lon="4.8243">
        <ele>299</ele>
        <time>2010-11-23T19:50:40Z</time>
      </trkpt>
      <trkpt lat="45.77286" lon="4.82433">
        <ele>299</ele>
        <time>2010-11-23T19:50:41Z</time>
      </trkpt>
      <trkpt lat="45.77281" lon="4.82442">
        <ele>299</ele>
        <time>2010-11-23T19:50:42Z</time>
      </trkpt>
      <trkpt lat="45.77278" lon="4.82447">
        <ele>299</ele>
        <time>2010-11-23T19:50:43Z</time>
      </trkpt>
      <trkpt lat="45.77276" lon="4.82451">
        <ele>299</ele>
        <time>2010-11-23T19:50:44Z</time>
      </trkpt>
      <trkpt lat="45.77274" lon="4.82454">
        <ele>299</ele>
        <time>2010-11-23T19:50:45Z</time>
      </trkpt>
      <trkpt lat="45.77272" lon="4.82457">
        <ele>298</ele>
        <time>2010-11-23T19:50:46Z</time>
      </trkpt>
      <trkpt lat="45.7727" lon="4.82461">
        <ele>298</ele>
        <time>2010-11-23T19:50:47Z</time>
      </trkpt>
      <trkpt lat="45.77269" lon="4.82465">
        <ele>298</ele>
        <time>2010-11-23T19:50:48Z</time>
      </trkpt>
      <trkpt lat="45.77267" lon="4.82469">
        <ele>298</ele>
        <time>2010-11-23T19:50:49Z</time>
      </trkpt>
      <trkpt lat="45.77265" lon="4.82473">
        <ele>298</ele>
        <time>2010-11-23T19:50:50Z</time>
      </trkpt>
      <trkpt lat="45.77263" lon="4.82479">
        <ele>296</ele>
        <time>2010-11-23T19:50:51Z</time>
      </trkpt>
      <trkpt lat="45.77261" lon="4.82483">
        <ele>296</ele>
        <time>2010-11-23T19:50:52Z</time>
      </trkpt>
      <trkpt lat="45.77259" lon="4.82488">
        <ele>295</ele>
        <time>2010-11-23T19:50:53Z</time>
      </trkpt>
      <trkpt lat="45.77257" lon="4.82492">
        <ele>295</ele>
        <time>2010-11-23T19:50:54Z</time>
      </trkpt>
      <trkpt lat="45.77255" lon="4.82496">
        <ele>294</ele>
        <time>2010-11-23T19:50:55Z</time>
      </trkpt>
      <trkpt lat="45.77254" lon="4.82499">
        <ele>294</ele>
        <time>2010-11-23T19:50:56Z</time>
      </trkpt>
      <trkpt lat="45.77253" lon="4.82502">
        <ele>294</ele>
        <time>2010-11-23T19:50:57Z</time>
      </trkpt>
      <trkpt lat="45.77252" lon="4.82506">
        <ele>294</ele>
        <time>2010-11-23T19:50:58Z</time>
      </trkpt>
      <trkpt lat="45.77252" lon="4.82511">
        <ele>294</ele>
        <time>2010-11-23T19:50:59Z</time>
      </trkpt>
      <trkpt lat="45.77252" lon="4.82515">
        <ele>294</ele>
        <time>2010-11-23T19:51:00Z</time>
      </trkpt>
      <trkpt lat="45.77249" lon="4.82519">
        <ele>293</ele>
        <time>2010-11-23T19:51:01Z</time>
      </trkpt>
      <trkpt lat="45.77249" lon="4.82524">
        <ele>293</ele>
        <time>2010-11-23T19:51:05Z</time>
      </trkpt>
      <trkpt lat="45.77249" lon="4.82524">
        <ele>293</ele>
        <time>2010-11-23T19:51:05Z</time>
      </trkpt>
      <trkpt lat="45.77249" lon="4.82524">
        <ele>293</ele>
        <time>2010-11-23T19:51:05Z</time>
      </trkpt>
      <trkpt lat="45.77249" lon="4.82525">
        <ele>292.91302490234</ele>
        <time>2010-11-23T19:51:05Z</time>
      </trkpt>
      <trkpt lat="45.77249" lon="4.82534">
        <ele>293.39739990234</ele>
        <time>2010-11-23T19:51:06Z</time>
      </trkpt>
      <trkpt lat="45.77247" lon="4.82544">
        <ele>293.77224731445</ele>
        <time>2010-11-23T19:51:07Z</time>
      </trkpt>
      <trkpt lat="45.77246" lon="4.82554">
        <ele>294.80752563477</ele>
        <time>2010-11-23T19:51:08Z</time>
      </trkpt>
      <trkpt lat="45.77245" lon="4.8256">
        <ele>294</ele>
        <time>2010-11-23T19:51:09Z</time>
      </trkpt>
      <trkpt lat="45.77244" lon="4.82564">
        <ele>294</ele>
        <time>2010-11-23T19:51:10Z</time>
      </trkpt>
      <trkpt lat="45.7724" lon="4.82566">
        <ele>293</ele>
        <time>2010-11-23T19:51:11Z</time>
      </trkpt>
      <trkpt lat="45.77236" lon="4.82569">
        <ele>293</ele>
        <time>2010-11-23T19:51:12Z</time>
      </trkpt>
      <trkpt lat="45.77234" lon="4.8257">
        <ele>293</ele>
        <time>2010-11-23T19:51:13Z</time>
      </trkpt>
      <trkpt lat="45.7723" lon="4.82573">
        <ele>292</ele>
        <time>2010-11-23T19:51:14Z</time>
      </trkpt>
      <trkpt lat="45.77227" lon="4.82573">
        <ele>291</ele>
        <time>2010-11-23T19:51:15Z</time>
      </trkpt>
      <trkpt lat="45.77225" lon="4.82573">
        <ele>291</ele>
        <time>2010-11-23T19:51:16Z</time>
      </trkpt>
      <trkpt lat="45.77222" lon="4.82572">
        <ele>291</ele>
        <time>2010-11-23T19:51:17Z</time>
      </trkpt>
      <trkpt lat="45.7722" lon="4.82571">
        <ele>291</ele>
        <time>2010-11-23T19:51:18Z</time>
      </trkpt>
      <trkpt lat="45.77217" lon="4.8257">
        <ele>291</ele>
        <time>2010-11-23T19:51:19Z</time>
      </trkpt>
      <trkpt lat="45.77214" lon="4.82569">
        <ele>291</ele>
        <time>2010-11-23T19:51:20Z</time>
      </trkpt>
      <trkpt lat="45.77211" lon="4.82568">
        <ele>291</ele>
        <time>2010-11-23T19:51:21Z</time>
      </trkpt>
      <trkpt lat="45.77207" lon="4.82567">
        <ele>291</ele>
        <time>2010-11-23T19:51:22Z</time>
      </trkpt>
      <trkpt lat="45.77205" lon="4.82567">
        <ele>291</ele>
        <time>2010-11-23T19:51:23Z</time>
      </trkpt>
      <trkpt lat="45.772" lon="4.82565">
        <ele>291</ele>
        <time>2010-11-23T19:51:24Z</time>
      </trkpt>
      <trkpt lat="45.77198" lon="4.82568">
        <ele>291</ele>
        <time>2010-11-23T19:51:25Z</time>
      </trkpt>
      <trkpt lat="45.77195" lon="4.82568">
        <ele>290</ele>
        <time>2010-11-23T19:51:28Z</time>
      </trkpt>
      <trkpt lat="45.77195" lon="4.82568">
        <ele>289.9970703125</ele>
        <time>2010-11-23T19:51:28Z</time>
      </trkpt>
      <trkpt lat="45.77194" lon="4.82568">
        <ele>289.9958190918</ele>
        <time>2010-11-23T19:51:28Z</time>
      </trkpt>
      <trkpt lat="45.77193" lon="4.82568">
        <ele>289.75064086914</ele>
        <time>2010-11-23T19:51:29Z</time>
      </trkpt>
      <trkpt lat="45.77187" lon="4.82569">
        <ele>287.61834716797</ele>
        <time>2010-11-23T19:51:30Z</time>
      </trkpt>
      <trkpt lat="45.77179" lon="4.8257">
        <ele>285.17428588867</ele>
        <time>2010-11-23T19:51:31Z</time>
      </trkpt>
      <trkpt lat="45.77175" lon="4.82567">
        <ele>285</ele>
        <time>2010-11-23T19:51:32Z</time>
      </trkpt>
      <trkpt lat="45.77172" lon="4.82567">
        <ele>285</ele>
        <time>2010-11-23T19:51:33Z</time>
      </trkpt>
      <trkpt lat="45.7717" lon="4.82566">
        <ele>285</ele>
        <time>2010-11-23T19:51:34Z</time>
      </trkpt>
      <trkpt lat="45.77168" lon="4.82565">
        <ele>285</ele>
        <time>2010-11-23T19:51:35Z</time>
      </trkpt>
      <trkpt lat="45.77165" lon="4.82565">
        <ele>285</ele>
        <time>2010-11-23T19:51:36Z</time>
      </trkpt>
      <trkpt lat="45.77161" lon="4.82564">
        <ele>284</ele>
        <time>2010-11-23T19:51:37Z</time>
      </trkpt>
      <trkpt lat="45.77158" lon="4.82565">
        <ele>284</ele>
        <time>2010-11-23T19:51:38Z</time>
      </trkpt>
      <trkpt lat="45.77155" lon="4.82564">
        <ele>284</ele>
        <time>2010-11-23T19:51:39Z</time>
      </trkpt>
      <trkpt lat="45.77151" lon="4.82563">
        <ele>283</ele>
        <time>2010-11-23T19:51:40Z</time>
      </trkpt>
      <trkpt lat="45.77148" lon="4.82562">
        <ele>283</ele>
        <time>2010-11-23T19:51:41Z</time>
      </trkpt>
      <trkpt lat="45.77146" lon="4.82562">
        <ele>283</ele>
        <time>2010-11-23T19:51:42Z</time>
      </trkpt>
      <trkpt lat="45.77143" lon="4.8256">
        <ele>283</ele>
        <time>2010-11-23T19:51:43Z</time>
      </trkpt>
      <trkpt lat="45.7714" lon="4.82559">
        <ele>283</ele>
        <time>2010-11-23T19:51:44Z</time>
      </trkpt>
      <trkpt lat="45.77137" lon="4.82557">
        <ele>283</ele>
        <time>2010-11-23T19:51:45Z</time>
      </trkpt>
      <trkpt lat="45.77133" lon="4.82558">
        <ele>282</ele>
        <time>2010-11-23T19:51:46Z</time>
      </trkpt>
      <trkpt lat="45.7713" lon="4.82559">
        <ele>283</ele>
        <time>2010-11-23T19:51:47Z</time>
      </trkpt>
      <trkpt lat="45.77126" lon="4.82558">
        <ele>282</ele>
        <time>2010-11-23T19:51:48Z</time>
      </trkpt>
      <trkpt lat="45.77123" lon="4.82558">
        <ele>282</ele>
        <time>2010-11-23T19:51:49Z</time>
      </trkpt>
      <trkpt lat="45.77119" lon="4.8256">
        <ele>282</ele>
        <time>2010-11-23T19:51:52Z</time>
      </trkpt>
      <trkpt lat="45.77119" lon="4.8256">
        <ele>282</ele>
        <time>2010-11-23T19:51:52Z</time>
      </trkpt>
      <trkpt lat="45.77118" lon="4.8256">
        <ele>281.89022827148</ele>
        <time>2010-11-23T19:51:52Z</time>
      </trkpt>
      <trkpt lat="45.77117" lon="4.8256">
        <ele>281.90322875977</ele>
        <time>2010-11-23T19:51:53Z</time>
      </trkpt>
      <trkpt lat="45.7711" lon="4.82563">
        <ele>281.96087646484</ele>
        <time>2010-11-23T19:51:54Z</time>
      </trkpt>
      <trkpt lat="45.77103" lon="4.82564">
        <ele>281.99273681641</ele>
        <time>2010-11-23T19:51:55Z</time>
      </trkpt>
      <trkpt lat="45.77099" lon="4.82565">
        <ele>281</ele>
        <time>2010-11-23T19:51:56Z</time>
      </trkpt>
      <trkpt lat="45.77096" lon="4.82566">
        <ele>281</ele>
        <time>2010-11-23T19:51:57Z</time>
      </trkpt>
      <trkpt lat="45.77095" lon="4.82565">
        <ele>281</ele>
        <time>2010-11-23T19:51:58Z</time>
      </trkpt>
      <trkpt lat="45.77092" lon="4.82565">
        <ele>281</ele>
        <time>2010-11-23T19:51:59Z</time>
      </trkpt>
      <trkpt lat="45.7709" lon="4.82565">
        <ele>281</ele>
        <time>2010-11-23T19:52:00Z</time>
      </trkpt>
      <trkpt lat="45.77086" lon="4.82563">
        <ele>281</ele>
        <time>2010-11-23T19:52:01Z</time>
      </trkpt>
      <trkpt lat="45.77083" lon="4.82562">
        <ele>281</ele>
        <time>2010-11-23T19:52:02Z</time>
      </trkpt>
      <trkpt lat="45.7708" lon="4.82561">
        <ele>281</ele>
        <time>2010-11-23T19:52:03Z</time>
      </trkpt>
      <trkpt lat="45.77076" lon="4.82558">
        <ele>281</ele>
        <time>2010-11-23T19:52:04Z</time>
      </trkpt>
      <trkpt lat="45.77074" lon="4.82556">
        <ele>281</ele>
        <time>2010-11-23T19:52:05Z</time>
      </trkpt>
      <trkpt lat="45.77071" lon="4.82555">
        <ele>281</ele>
        <time>2010-11-23T19:52:06Z</time>
      </trkpt>
      <trkpt lat="45.77068" lon="4.82557">
        <ele>281</ele>
        <time>2010-11-23T19:52:07Z</time>
      </trkpt>
      <trkpt lat="45.77066" lon="4.82552">
        <ele>281</ele>
        <time>2010-11-23T19:52:08Z</time>
      </trkpt>
      <trkpt lat="45.77062" lon="4.82552">
        <ele>281</ele>
        <time>2010-11-23T19:52:09Z</time>
      </trkpt>
      <trkpt lat="45.77059" lon="4.8255">
        <ele>280</ele>
        <time>2010-11-23T19:52:10Z</time>
      </trkpt>
      <trkpt lat="45.77058" lon="4.82549">
        <ele>281</ele>
        <time>2010-11-23T19:52:11Z</time>
      </trkpt>
      <trkpt lat="45.77053" lon="4.82549">
        <ele>281</ele>
        <time>2010-11-23T19:52:12Z</time>
      </trkpt>
      <trkpt lat="45.77048" lon="4.82553">
        <ele>281</ele>
        <time>2010-11-23T19:52:13Z</time>
      </trkpt>
      <trkpt lat="45.77042" lon="4.82561">
        <ele>280</ele>
        <time>2010-11-23T19:52:16Z</time>
      </trkpt>
      <trkpt lat="45.77042" lon="4.82561">
        <ele>280</ele>
        <time>2010-11-23T19:52:16Z</time>
      </trkpt>
      <trkpt lat="45.77042" lon="4.82561">
        <ele>280</ele>
        <time>2010-11-23T19:52:16Z</time>
      </trkpt>
      <trkpt lat="45.77038" lon="4.82564">
        <ele>280.3681640625</ele>
        <time>2010-11-23T19:52:17Z</time>
      </trkpt>
      <trkpt lat="45.77032" lon="4.82567">
        <ele>280.09942626953</ele>
        <time>2010-11-23T19:52:18Z</time>
      </trkpt>
      <trkpt lat="45.77027" lon="4.82567">
        <ele>278</ele>
        <time>2010-11-23T19:52:19Z</time>
      </trkpt>
      <trkpt lat="45.77025" lon="4.82566">
        <ele>278</ele>
        <time>2010-11-23T19:52:20Z</time>
      </trkpt>
      <trkpt lat="45.77022" lon="4.82565">
        <ele>279</ele>
        <time>2010-11-23T19:52:21Z</time>
      </trkpt>
      <trkpt lat="45.77019" lon="4.82563">
        <ele>279</ele>
        <time>2010-11-23T19:52:22Z</time>
      </trkpt>
      <trkpt lat="45.77016" lon="4.82563">
        <ele>279</ele>
        <time>2010-11-23T19:52:23Z</time>
      </trkpt>
      <trkpt lat="45.77013" lon="4.82561">
        <ele>281</ele>
        <time>2010-11-23T19:52:24Z</time>
      </trkpt>
      <trkpt lat="45.7701" lon="4.82561">
        <ele>280</ele>
        <time>2010-11-23T19:52:25Z</time>
      </trkpt>
      <trkpt lat="45.77008" lon="4.82562">
        <ele>280</ele>
        <time>2010-11-23T19:52:26Z</time>
      </trkpt>
      <trkpt lat="45.77006" lon="4.82561">
        <ele>279</ele>
        <time>2010-11-23T19:52:27Z</time>
      </trkpt>
      <trkpt lat="45.77005" lon="4.82561">
        <ele>279</ele>
        <time>2010-11-23T19:52:28Z</time>
      </trkpt>
      <trkpt lat="45.77004" lon="4.8256">
        <ele>278</ele>
        <time>2010-11-23T19:52:29Z</time>
      </trkpt>
      <trkpt lat="45.77002" lon="4.8256">
        <ele>278</ele>
        <time>2010-11-23T19:52:30Z</time>
      </trkpt>
      <trkpt lat="45.77002" lon="4.82559">
        <ele>278</ele>
        <time>2010-11-23T19:52:31Z</time>
      </trkpt>
      <trkpt lat="45.77" lon="4.82558">
        <ele>278</ele>
        <time>2010-11-23T19:52:32Z</time>
      </trkpt>
      <trkpt lat="45.76999" lon="4.82557">
        <ele>278</ele>
        <time>2010-11-23T19:52:33Z</time>
      </trkpt>
      <trkpt lat="45.76997" lon="4.82556">
        <ele>278</ele>
        <time>2010-11-23T19:52:34Z</time>
      </trkpt>
      <trkpt lat="45.76995" lon="4.82555">
        <ele>278</ele>
        <time>2010-11-23T19:52:35Z</time>
      </trkpt>
      <trkpt lat="45.76994" lon="4.82556">
        <ele>278</ele>
        <time>2010-11-23T19:52:36Z</time>
      </trkpt>
      <trkpt lat="45.76993" lon="4.82557">
        <ele>277</ele>
        <time>2010-11-23T19:52:37Z</time>
      </trkpt>
      <trkpt lat="45.76991" lon="4.82557">
        <ele>277</ele>
        <time>2010-11-23T19:52:41Z</time>
      </trkpt>
      <trkpt lat="45.76991" lon="4.82557">
        <ele>277</ele>
        <time>2010-11-23T19:52:41Z</time>
      </trkpt>
      <trkpt lat="45.76991" lon="4.82557">
        <ele>277</ele>
        <time>2010-11-23T19:52:41Z</time>
      </trkpt>
      <trkpt lat="45.7699" lon="4.82557">
        <ele>277</ele>
        <time>2010-11-23T19:52:41Z</time>
      </trkpt>
      <trkpt lat="45.76984" lon="4.82557">
        <ele>277</ele>
        <time>2010-11-23T19:52:42Z</time>
      </trkpt>
      <trkpt lat="45.76982" lon="4.82554">
        <ele>276</ele>
        <time>2010-11-23T19:52:43Z</time>
      </trkpt>
      <trkpt lat="45.7698" lon="4.82553">
        <ele>276</ele>
        <time>2010-11-23T19:52:44Z</time>
      </trkpt>
      <trkpt lat="45.76978" lon="4.82554">
        <ele>277</ele>
        <time>2010-11-23T19:52:45Z</time>
      </trkpt>
      <trkpt lat="45.76977" lon="4.82552">
        <ele>276</ele>
        <time>2010-11-23T19:52:46Z</time>
      </trkpt>
      <trkpt lat="45.76976" lon="4.8255">
        <ele>276</ele>
        <time>2010-11-23T19:52:47Z</time>
      </trkpt>
      <trkpt lat="45.76975" lon="4.82548">
        <ele>276</ele>
        <time>2010-11-23T19:52:48Z</time>
      </trkpt>
      <trkpt lat="45.76975" lon="4.82547">
        <ele>276</ele>
        <time>2010-11-23T19:52:49Z</time>
      </trkpt>
      <trkpt lat="45.76974" lon="4.82544">
        <ele>276</ele>
        <time>2010-11-23T19:52:50Z</time>
      </trkpt>
      <trkpt lat="45.76973" lon="4.82541">
        <ele>276</ele>
        <time>2010-11-23T19:52:51Z</time>
      </trkpt>
      <trkpt lat="45.76974" lon="4.8254">
        <ele>275</ele>
        <time>2010-11-23T19:52:52Z</time>
      </trkpt>
      <trkpt lat="45.76973" lon="4.82537">
        <ele>275</ele>
        <time>2010-11-23T19:52:53Z</time>
      </trkpt>
      <trkpt lat="45.76971" lon="4.82532">
        <ele>275.53994750977</ele>
        <time>2010-11-23T19:52:54Z</time>
      </trkpt>
      <trkpt lat="45.76968" lon="4.82522">
        <ele>277.51647949219</ele>
        <time>2010-11-23T19:52:55Z</time>
      </trkpt>
      <trkpt lat="45.76965" lon="4.82513">
        <ele>277</ele>
        <time>2010-11-23T19:52:56Z</time>
      </trkpt>
      <trkpt lat="45.76964" lon="4.82508">
        <ele>278</ele>
        <time>2010-11-23T19:52:57Z</time>
      </trkpt>
      <trkpt lat="45.76964" lon="4.82503">
        <ele>277</ele>
        <time>2010-11-23T19:52:58Z</time>
      </trkpt>
      <trkpt lat="45.76967" lon="4.825">
        <ele>276</ele>
        <time>2010-11-23T19:52:59Z</time>
      </trkpt>
      <trkpt lat="45.76967" lon="4.82497">
        <ele>276</ele>
        <time>2010-11-23T19:53:00Z</time>
      </trkpt>
      <trkpt lat="45.76968" lon="4.82493">
        <ele>277</ele>
        <time>2010-11-23T19:53:01Z</time>
      </trkpt>
      <trkpt lat="45.76968" lon="4.82492">
        <ele>277</ele>
        <time>2010-11-23T19:53:05Z</time>
      </trkpt>
      <trkpt lat="45.76968" lon="4.82492">
        <ele>277</ele>
        <time>2010-11-23T19:53:05Z</time>
      </trkpt>
      <trkpt lat="45.76968" lon="4.82492">
        <ele>277.00100708008</ele>
        <time>2010-11-23T19:53:05Z</time>
      </trkpt>
      <trkpt lat="45.76968" lon="4.82491">
        <ele>277.00079345703</ele>
        <time>2010-11-23T19:53:05Z</time>
      </trkpt>
      <trkpt lat="45.76968" lon="4.82487">
        <ele>277</ele>
        <time>2010-11-23T19:53:06Z</time>
      </trkpt>
      <trkpt lat="45.7697" lon="4.82487">
        <ele>278</ele>
        <time>2010-11-23T19:53:07Z</time>
      </trkpt>
      <trkpt lat="45.76968" lon="4.82485">
        <ele>278</ele>
        <time>2010-11-23T19:53:08Z</time>
      </trkpt>
      <trkpt lat="45.76969" lon="4.82484">
        <ele>277</ele>
        <time>2010-11-23T19:53:09Z</time>
      </trkpt>
      <trkpt lat="45.76968" lon="4.82483">
        <ele>278</ele>
        <time>2010-11-23T19:53:10Z</time>
      </trkpt>
      <trkpt lat="45.76969" lon="4.82482">
        <ele>278</ele>
        <time>2010-11-23T19:53:11Z</time>
      </trkpt>
      <trkpt lat="45.7697" lon="4.82482">
        <ele>277</ele>
        <time>2010-11-23T19:53:12Z</time>
      </trkpt>
      <trkpt lat="45.7697" lon="4.82482">
        <ele>277</ele>
        <time>2010-11-23T19:53:13Z</time>
      </trkpt>
      <trkpt lat="45.76971" lon="4.82482">
        <ele>278</ele>
        <time>2010-11-23T19:53:14Z</time>
      </trkpt>
      <trkpt lat="45.7697" lon="4.82482">
        <ele>278</ele>
        <time>2010-11-23T19:53:15Z</time>
      </trkpt>
      <trkpt lat="45.76971" lon="4.82482">
        <ele>278</ele>
        <time>2010-11-23T19:53:16Z</time>
      </trkpt>
      <trkpt lat="45.76971" lon="4.82482">
        <ele>278</ele>
        <time>2010-11-23T19:53:17Z</time>
      </trkpt>
      <trkpt lat="45.76971" lon="4.82482">
        <ele>278</ele>
        <time>2010-11-23T19:53:18Z</time>
      </trkpt>
    </trkseg>
  </trk>
</gpx>